<?xml version="1.0" encoding="UTF-8" standalone="no" ?>
<gpx xmlns="http://www.topografix.com/GPX/1/1" xmlns:xsi="http://www.w3.org/2001/XMLSchema-instance" xsi:schemaLocation="http://www.topografix.com/GPX/1/1 http://www.topografix.com/GPX/1/1/gpx.xsd" version="1.1" creator="VisuGPX - https://www.visugpx.com">
  <metadata>
    <name>O 2 Turini</name>
  </metadata>
  <trk>
    <name><![CDATA[O 2 Turini_1]]></name>
    <trkseg>
      <trkpt lat="44.15004" lon="7.56289">
        <ele>1876</ele>
        <time>2017-09-17T12:47:29Z</time>
      </trkpt>
      <trkpt lat="44.15008" lon="7.56295">
        <ele>1876</ele>
        <time>2017-09-17T12:47:30Z</time>
      </trkpt>
      <trkpt lat="44.15011" lon="7.563">
        <ele>1876</ele>
        <time>2017-09-17T12:47:31Z</time>
      </trkpt>
      <trkpt lat="44.15014" lon="7.56306">
        <ele>1877</ele>
        <time>2017-09-17T12:47:32Z</time>
      </trkpt>
      <trkpt lat="44.15016" lon="7.56312">
        <ele>1877</ele>
        <time>2017-09-17T12:47:33Z</time>
      </trkpt>
      <trkpt lat="44.15018" lon="7.56318">
        <ele>1877</ele>
        <time>2017-09-17T12:47:34Z</time>
      </trkpt>
      <trkpt lat="44.1502" lon="7.56324">
        <ele>1877</ele>
        <time>2017-09-17T12:47:35Z</time>
      </trkpt>
      <trkpt lat="44.15022" lon="7.5633">
        <ele>1878</ele>
        <time>2017-09-17T12:47:36Z</time>
      </trkpt>
      <trkpt lat="44.15024" lon="7.56335">
        <ele>1878</ele>
        <time>2017-09-17T12:47:37Z</time>
      </trkpt>
      <trkpt lat="44.15025" lon="7.56341">
        <ele>1878</ele>
        <time>2017-09-17T12:47:38Z</time>
      </trkpt>
      <trkpt lat="44.15026" lon="7.56347">
        <ele>1879</ele>
        <time>2017-09-17T12:47:39Z</time>
      </trkpt>
      <trkpt lat="44.15028" lon="7.56352">
        <ele>1879</ele>
        <time>2017-09-17T12:47:40Z</time>
      </trkpt>
      <trkpt lat="44.15029" lon="7.56359">
        <ele>1879</ele>
        <time>2017-09-17T12:47:41Z</time>
      </trkpt>
      <trkpt lat="44.1503" lon="7.56365">
        <ele>1880</ele>
        <time>2017-09-17T12:47:42Z</time>
      </trkpt>
      <trkpt lat="44.15031" lon="7.56371">
        <ele>1880</ele>
        <time>2017-09-17T12:47:43Z</time>
      </trkpt>
      <trkpt lat="44.15033" lon="7.56377">
        <ele>1880</ele>
        <time>2017-09-17T12:47:44Z</time>
      </trkpt>
      <trkpt lat="44.15035" lon="7.56383">
        <ele>1881</ele>
        <time>2017-09-17T12:47:45Z</time>
      </trkpt>
      <trkpt lat="44.15037" lon="7.56388">
        <ele>1881</ele>
        <time>2017-09-17T12:47:46Z</time>
      </trkpt>
      <trkpt lat="44.15039" lon="7.56394">
        <ele>1882</ele>
        <time>2017-09-17T12:47:47Z</time>
      </trkpt>
      <trkpt lat="44.15042" lon="7.56399">
        <ele>1882</ele>
        <time>2017-09-17T12:47:48Z</time>
      </trkpt>
      <trkpt lat="44.15044" lon="7.56404">
        <ele>1883</ele>
        <time>2017-09-17T12:47:49Z</time>
      </trkpt>
      <trkpt lat="44.15047" lon="7.5641">
        <ele>1883</ele>
        <time>2017-09-17T12:47:50Z</time>
      </trkpt>
      <trkpt lat="44.15049" lon="7.56415">
        <ele>1883</ele>
        <time>2017-09-17T12:47:51Z</time>
      </trkpt>
      <trkpt lat="44.15052" lon="7.56419">
        <ele>1884</ele>
        <time>2017-09-17T12:47:52Z</time>
      </trkpt>
      <trkpt lat="44.15055" lon="7.56424">
        <ele>1884</ele>
        <time>2017-09-17T12:47:53Z</time>
      </trkpt>
      <trkpt lat="44.15057" lon="7.56429">
        <ele>1884</ele>
        <time>2017-09-17T12:47:54Z</time>
      </trkpt>
      <trkpt lat="44.1506" lon="7.56434">
        <ele>1885</ele>
        <time>2017-09-17T12:47:55Z</time>
      </trkpt>
      <trkpt lat="44.15062" lon="7.56439">
        <ele>1885</ele>
        <time>2017-09-17T12:47:56Z</time>
      </trkpt>
      <trkpt lat="44.15064" lon="7.56444">
        <ele>1885</ele>
        <time>2017-09-17T12:47:57Z</time>
      </trkpt>
      <trkpt lat="44.15066" lon="7.56449">
        <ele>1886</ele>
        <time>2017-09-17T12:47:58Z</time>
      </trkpt>
      <trkpt lat="44.15068" lon="7.56454">
        <ele>1886</ele>
        <time>2017-09-17T12:47:59Z</time>
      </trkpt>
      <trkpt lat="44.1507" lon="7.56459">
        <ele>1886</ele>
        <time>2017-09-17T12:48:00Z</time>
      </trkpt>
      <trkpt lat="44.15071" lon="7.56464">
        <ele>1887</ele>
        <time>2017-09-17T12:48:01Z</time>
      </trkpt>
      <trkpt lat="44.15073" lon="7.56469">
        <ele>1887</ele>
        <time>2017-09-17T12:48:02Z</time>
      </trkpt>
      <trkpt lat="44.15074" lon="7.56474">
        <ele>1887</ele>
        <time>2017-09-17T12:48:03Z</time>
      </trkpt>
      <trkpt lat="44.15075" lon="7.5648">
        <ele>1888</ele>
        <time>2017-09-17T12:48:04Z</time>
      </trkpt>
      <trkpt lat="44.15077" lon="7.56485">
        <ele>1888</ele>
        <time>2017-09-17T12:48:05Z</time>
      </trkpt>
      <trkpt lat="44.15078" lon="7.56491">
        <ele>1889</ele>
        <time>2017-09-17T12:48:06Z</time>
      </trkpt>
      <trkpt lat="44.15079" lon="7.56497">
        <ele>1889</ele>
        <time>2017-09-17T12:48:07Z</time>
      </trkpt>
      <trkpt lat="44.1508" lon="7.56502">
        <ele>1889</ele>
        <time>2017-09-17T12:48:08Z</time>
      </trkpt>
      <trkpt lat="44.15081" lon="7.56508">
        <ele>1889</ele>
        <time>2017-09-17T12:48:09Z</time>
      </trkpt>
      <trkpt lat="44.15082" lon="7.56514">
        <ele>1890</ele>
        <time>2017-09-17T12:48:10Z</time>
      </trkpt>
      <trkpt lat="44.15083" lon="7.5652">
        <ele>1890</ele>
        <time>2017-09-17T12:48:11Z</time>
      </trkpt>
      <trkpt lat="44.15084" lon="7.56526">
        <ele>1891</ele>
        <time>2017-09-17T12:48:12Z</time>
      </trkpt>
      <trkpt lat="44.15084" lon="7.56532">
        <ele>1891</ele>
        <time>2017-09-17T12:48:13Z</time>
      </trkpt>
      <trkpt lat="44.15084" lon="7.56537">
        <ele>1891</ele>
        <time>2017-09-17T12:48:14Z</time>
      </trkpt>
      <trkpt lat="44.15084" lon="7.56543">
        <ele>1892</ele>
        <time>2017-09-17T12:48:15Z</time>
      </trkpt>
      <trkpt lat="44.15084" lon="7.56549">
        <ele>1892</ele>
        <time>2017-09-17T12:48:16Z</time>
      </trkpt>
      <trkpt lat="44.15084" lon="7.56554">
        <ele>1892</ele>
        <time>2017-09-17T12:48:17Z</time>
      </trkpt>
      <trkpt lat="44.15085" lon="7.5656">
        <ele>1893</ele>
        <time>2017-09-17T12:48:18Z</time>
      </trkpt>
      <trkpt lat="44.15085" lon="7.56565">
        <ele>1893</ele>
        <time>2017-09-17T12:48:19Z</time>
      </trkpt>
      <trkpt lat="44.15085" lon="7.56571">
        <ele>1894</ele>
        <time>2017-09-17T12:48:20Z</time>
      </trkpt>
      <trkpt lat="44.15086" lon="7.56576">
        <ele>1894</ele>
        <time>2017-09-17T12:48:21Z</time>
      </trkpt>
      <trkpt lat="44.15086" lon="7.56582">
        <ele>1894</ele>
        <time>2017-09-17T12:48:22Z</time>
      </trkpt>
      <trkpt lat="44.15087" lon="7.56587">
        <ele>1895</ele>
        <time>2017-09-17T12:48:23Z</time>
      </trkpt>
      <trkpt lat="44.15087" lon="7.56593">
        <ele>1895</ele>
        <time>2017-09-17T12:48:24Z</time>
      </trkpt>
      <trkpt lat="44.15088" lon="7.56598">
        <ele>1895</ele>
        <time>2017-09-17T12:48:25Z</time>
      </trkpt>
      <trkpt lat="44.15089" lon="7.56604">
        <ele>1895</ele>
        <time>2017-09-17T12:48:26Z</time>
      </trkpt>
      <trkpt lat="44.1509" lon="7.5661">
        <ele>1896</ele>
        <time>2017-09-17T12:48:27Z</time>
      </trkpt>
      <trkpt lat="44.15091" lon="7.56615">
        <ele>1896</ele>
        <time>2017-09-17T12:48:28Z</time>
      </trkpt>
      <trkpt lat="44.15092" lon="7.56621">
        <ele>1896</ele>
        <time>2017-09-17T12:48:29Z</time>
      </trkpt>
      <trkpt lat="44.15093" lon="7.56626">
        <ele>1897</ele>
        <time>2017-09-17T12:48:30Z</time>
      </trkpt>
      <trkpt lat="44.15094" lon="7.56631">
        <ele>1897</ele>
        <time>2017-09-17T12:48:31Z</time>
      </trkpt>
      <trkpt lat="44.15095" lon="7.56637">
        <ele>1897</ele>
        <time>2017-09-17T12:48:32Z</time>
      </trkpt>
      <trkpt lat="44.15097" lon="7.56642">
        <ele>1898</ele>
        <time>2017-09-17T12:48:33Z</time>
      </trkpt>
      <trkpt lat="44.15099" lon="7.56646">
        <ele>1898</ele>
        <time>2017-09-17T12:48:34Z</time>
      </trkpt>
      <trkpt lat="44.151" lon="7.56652">
        <ele>1898</ele>
        <time>2017-09-17T12:48:35Z</time>
      </trkpt>
      <trkpt lat="44.15101" lon="7.56657">
        <ele>1898</ele>
        <time>2017-09-17T12:48:36Z</time>
      </trkpt>
      <trkpt lat="44.15103" lon="7.56662">
        <ele>1899</ele>
        <time>2017-09-17T12:48:37Z</time>
      </trkpt>
      <trkpt lat="44.15105" lon="7.56667">
        <ele>1899</ele>
        <time>2017-09-17T12:48:38Z</time>
      </trkpt>
      <trkpt lat="44.15106" lon="7.56672">
        <ele>1899</ele>
        <time>2017-09-17T12:48:39Z</time>
      </trkpt>
      <trkpt lat="44.15107" lon="7.56676">
        <ele>1900</ele>
        <time>2017-09-17T12:48:40Z</time>
      </trkpt>
      <trkpt lat="44.15107" lon="7.56681">
        <ele>1900</ele>
        <time>2017-09-17T12:48:41Z</time>
      </trkpt>
      <trkpt lat="44.15104" lon="7.56684">
        <ele>1900</ele>
        <time>2017-09-17T12:48:42Z</time>
      </trkpt>
      <trkpt lat="44.15101" lon="7.56686">
        <ele>1900</ele>
        <time>2017-09-17T12:48:43Z</time>
      </trkpt>
      <trkpt lat="44.15099" lon="7.56685">
        <ele>1901</ele>
        <time>2017-09-17T12:48:44Z</time>
      </trkpt>
      <trkpt lat="44.15096" lon="7.56681">
        <ele>1901</ele>
        <time>2017-09-17T12:48:45Z</time>
      </trkpt>
      <trkpt lat="44.15095" lon="7.56677">
        <ele>1901</ele>
        <time>2017-09-17T12:48:46Z</time>
      </trkpt>
      <trkpt lat="44.15094" lon="7.56671">
        <ele>1901</ele>
        <time>2017-09-17T12:48:47Z</time>
      </trkpt>
      <trkpt lat="44.15092" lon="7.56667">
        <ele>1902</ele>
        <time>2017-09-17T12:48:48Z</time>
      </trkpt>
      <trkpt lat="44.15089" lon="7.56664">
        <ele>1902</ele>
        <time>2017-09-17T12:48:49Z</time>
      </trkpt>
      <trkpt lat="44.15086" lon="7.56665">
        <ele>1902</ele>
        <time>2017-09-17T12:48:50Z</time>
      </trkpt>
      <trkpt lat="44.15084" lon="7.56668">
        <ele>1903</ele>
        <time>2017-09-17T12:48:51Z</time>
      </trkpt>
      <trkpt lat="44.15084" lon="7.56672">
        <ele>1903</ele>
        <time>2017-09-17T12:48:52Z</time>
      </trkpt>
      <trkpt lat="44.15085" lon="7.56677">
        <ele>1904</ele>
        <time>2017-09-17T12:48:53Z</time>
      </trkpt>
      <trkpt lat="44.15085" lon="7.56682">
        <ele>1904</ele>
        <time>2017-09-17T12:48:54Z</time>
      </trkpt>
      <trkpt lat="44.15085" lon="7.56688">
        <ele>1904</ele>
        <time>2017-09-17T12:48:55Z</time>
      </trkpt>
      <trkpt lat="44.15085" lon="7.56694">
        <ele>1905</ele>
        <time>2017-09-17T12:48:56Z</time>
      </trkpt>
      <trkpt lat="44.15085" lon="7.56701">
        <ele>1905</ele>
        <time>2017-09-17T12:48:57Z</time>
      </trkpt>
      <trkpt lat="44.15084" lon="7.56707">
        <ele>1905</ele>
        <time>2017-09-17T12:48:58Z</time>
      </trkpt>
      <trkpt lat="44.15083" lon="7.56713">
        <ele>1906</ele>
        <time>2017-09-17T12:48:59Z</time>
      </trkpt>
      <trkpt lat="44.15082" lon="7.56718">
        <ele>1906</ele>
        <time>2017-09-17T12:49:00Z</time>
      </trkpt>
      <trkpt lat="44.15082" lon="7.56725">
        <ele>1906</ele>
        <time>2017-09-17T12:49:01Z</time>
      </trkpt>
      <trkpt lat="44.15082" lon="7.56731">
        <ele>1906</ele>
        <time>2017-09-17T12:49:02Z</time>
      </trkpt>
      <trkpt lat="44.15083" lon="7.56738">
        <ele>1907</ele>
        <time>2017-09-17T12:49:03Z</time>
      </trkpt>
      <trkpt lat="44.15084" lon="7.56744">
        <ele>1907</ele>
        <time>2017-09-17T12:49:04Z</time>
      </trkpt>
      <trkpt lat="44.15086" lon="7.5675">
        <ele>1907</ele>
        <time>2017-09-17T12:49:05Z</time>
      </trkpt>
      <trkpt lat="44.15088" lon="7.56755">
        <ele>1907</ele>
        <time>2017-09-17T12:49:06Z</time>
      </trkpt>
      <trkpt lat="44.15091" lon="7.5676">
        <ele>1907</ele>
        <time>2017-09-17T12:49:07Z</time>
      </trkpt>
      <trkpt lat="44.15094" lon="7.56765">
        <ele>1908</ele>
        <time>2017-09-17T12:49:08Z</time>
      </trkpt>
      <trkpt lat="44.15097" lon="7.56769">
        <ele>1908</ele>
        <time>2017-09-17T12:49:09Z</time>
      </trkpt>
      <trkpt lat="44.15101" lon="7.56773">
        <ele>1908</ele>
        <time>2017-09-17T12:49:10Z</time>
      </trkpt>
      <trkpt lat="44.15104" lon="7.56776">
        <ele>1908</ele>
        <time>2017-09-17T12:49:11Z</time>
      </trkpt>
      <trkpt lat="44.15108" lon="7.5678">
        <ele>1909</ele>
        <time>2017-09-17T12:49:12Z</time>
      </trkpt>
      <trkpt lat="44.15111" lon="7.56784">
        <ele>1909</ele>
        <time>2017-09-17T12:49:13Z</time>
      </trkpt>
      <trkpt lat="44.15115" lon="7.56789">
        <ele>1909</ele>
        <time>2017-09-17T12:49:14Z</time>
      </trkpt>
      <trkpt lat="44.15118" lon="7.56793">
        <ele>1910</ele>
        <time>2017-09-17T12:49:15Z</time>
      </trkpt>
      <trkpt lat="44.1512" lon="7.56798">
        <ele>1910</ele>
        <time>2017-09-17T12:49:16Z</time>
      </trkpt>
      <trkpt lat="44.15123" lon="7.56803">
        <ele>1910</ele>
        <time>2017-09-17T12:49:17Z</time>
      </trkpt>
      <trkpt lat="44.15126" lon="7.56807">
        <ele>1911</ele>
        <time>2017-09-17T12:49:18Z</time>
      </trkpt>
      <trkpt lat="44.15128" lon="7.56812">
        <ele>1911</ele>
        <time>2017-09-17T12:49:19Z</time>
      </trkpt>
      <trkpt lat="44.15131" lon="7.56817">
        <ele>1911</ele>
        <time>2017-09-17T12:49:20Z</time>
      </trkpt>
      <trkpt lat="44.15134" lon="7.56822">
        <ele>1911</ele>
        <time>2017-09-17T12:49:21Z</time>
      </trkpt>
      <trkpt lat="44.15137" lon="7.56827">
        <ele>1912</ele>
        <time>2017-09-17T12:49:22Z</time>
      </trkpt>
      <trkpt lat="44.1514" lon="7.56831">
        <ele>1912</ele>
        <time>2017-09-17T12:49:23Z</time>
      </trkpt>
      <trkpt lat="44.15143" lon="7.56836">
        <ele>1912</ele>
        <time>2017-09-17T12:49:24Z</time>
      </trkpt>
      <trkpt lat="44.15145" lon="7.56841">
        <ele>1913</ele>
        <time>2017-09-17T12:49:25Z</time>
      </trkpt>
      <trkpt lat="44.15148" lon="7.56846">
        <ele>1913</ele>
        <time>2017-09-17T12:49:26Z</time>
      </trkpt>
      <trkpt lat="44.1515" lon="7.5685">
        <ele>1913</ele>
        <time>2017-09-17T12:49:27Z</time>
      </trkpt>
      <trkpt lat="44.15152" lon="7.56855">
        <ele>1914</ele>
        <time>2017-09-17T12:49:28Z</time>
      </trkpt>
      <trkpt lat="44.15154" lon="7.5686">
        <ele>1914</ele>
        <time>2017-09-17T12:49:29Z</time>
      </trkpt>
      <trkpt lat="44.15156" lon="7.56866">
        <ele>1914</ele>
        <time>2017-09-17T12:49:30Z</time>
      </trkpt>
      <trkpt lat="44.15158" lon="7.56871">
        <ele>1915</ele>
        <time>2017-09-17T12:49:31Z</time>
      </trkpt>
      <trkpt lat="44.15159" lon="7.56877">
        <ele>1915</ele>
        <time>2017-09-17T12:49:32Z</time>
      </trkpt>
      <trkpt lat="44.15161" lon="7.56883">
        <ele>1915</ele>
        <time>2017-09-17T12:49:33Z</time>
      </trkpt>
      <trkpt lat="44.15162" lon="7.56889">
        <ele>1915</ele>
        <time>2017-09-17T12:49:34Z</time>
      </trkpt>
      <trkpt lat="44.15163" lon="7.56895">
        <ele>1915</ele>
        <time>2017-09-17T12:49:35Z</time>
      </trkpt>
      <trkpt lat="44.15164" lon="7.56901">
        <ele>1916</ele>
        <time>2017-09-17T12:49:36Z</time>
      </trkpt>
      <trkpt lat="44.15165" lon="7.56907">
        <ele>1916</ele>
        <time>2017-09-17T12:49:37Z</time>
      </trkpt>
      <trkpt lat="44.15165" lon="7.56913">
        <ele>1916</ele>
        <time>2017-09-17T12:49:38Z</time>
      </trkpt>
      <trkpt lat="44.15165" lon="7.56919">
        <ele>1916</ele>
        <time>2017-09-17T12:49:39Z</time>
      </trkpt>
      <trkpt lat="44.15164" lon="7.56924">
        <ele>1916</ele>
        <time>2017-09-17T12:49:40Z</time>
      </trkpt>
      <trkpt lat="44.15163" lon="7.56928">
        <ele>1916</ele>
        <time>2017-09-17T12:49:41Z</time>
      </trkpt>
      <trkpt lat="44.15161" lon="7.56932">
        <ele>1917</ele>
        <time>2017-09-17T12:49:42Z</time>
      </trkpt>
      <trkpt lat="44.15159" lon="7.56935">
        <ele>1917</ele>
        <time>2017-09-17T12:49:43Z</time>
      </trkpt>
      <trkpt lat="44.15157" lon="7.56938">
        <ele>1917</ele>
        <time>2017-09-17T12:49:44Z</time>
      </trkpt>
      <trkpt lat="44.15155" lon="7.56941">
        <ele>1917</ele>
        <time>2017-09-17T12:49:45Z</time>
      </trkpt>
      <trkpt lat="44.15153" lon="7.56945">
        <ele>1917</ele>
        <time>2017-09-17T12:49:46Z</time>
      </trkpt>
      <trkpt lat="44.15151" lon="7.56948">
        <ele>1917</ele>
        <time>2017-09-17T12:49:47Z</time>
      </trkpt>
      <trkpt lat="44.15149" lon="7.56952">
        <ele>1918</ele>
        <time>2017-09-17T12:49:48Z</time>
      </trkpt>
      <trkpt lat="44.15148" lon="7.56957">
        <ele>1918</ele>
        <time>2017-09-17T12:49:49Z</time>
      </trkpt>
      <trkpt lat="44.15148" lon="7.56962">
        <ele>1918</ele>
        <time>2017-09-17T12:49:50Z</time>
      </trkpt>
      <trkpt lat="44.15148" lon="7.56967">
        <ele>1918</ele>
        <time>2017-09-17T12:49:51Z</time>
      </trkpt>
      <trkpt lat="44.15149" lon="7.56973">
        <ele>1918</ele>
        <time>2017-09-17T12:49:52Z</time>
      </trkpt>
      <trkpt lat="44.15149" lon="7.56979">
        <ele>1918</ele>
        <time>2017-09-17T12:49:53Z</time>
      </trkpt>
      <trkpt lat="44.15148" lon="7.56985">
        <ele>1918</ele>
        <time>2017-09-17T12:49:54Z</time>
      </trkpt>
      <trkpt lat="44.15148" lon="7.5699">
        <ele>1918</ele>
        <time>2017-09-17T12:49:55Z</time>
      </trkpt>
      <trkpt lat="44.15146" lon="7.56995">
        <ele>1918</ele>
        <time>2017-09-17T12:49:56Z</time>
      </trkpt>
      <trkpt lat="44.15144" lon="7.56999">
        <ele>1918</ele>
        <time>2017-09-17T12:49:57Z</time>
      </trkpt>
      <trkpt lat="44.15141" lon="7.57004">
        <ele>1918</ele>
        <time>2017-09-17T12:49:58Z</time>
      </trkpt>
      <trkpt lat="44.15138" lon="7.57008">
        <ele>1918</ele>
        <time>2017-09-17T12:49:59Z</time>
      </trkpt>
      <trkpt lat="44.15134" lon="7.5701">
        <ele>1918</ele>
        <time>2017-09-17T12:50:00Z</time>
      </trkpt>
      <trkpt lat="44.1513" lon="7.57012">
        <ele>1918</ele>
        <time>2017-09-17T12:50:01Z</time>
      </trkpt>
      <trkpt lat="44.15127" lon="7.57013">
        <ele>1918</ele>
        <time>2017-09-17T12:50:02Z</time>
      </trkpt>
      <trkpt lat="44.15124" lon="7.57013">
        <ele>1918</ele>
        <time>2017-09-17T12:50:03Z</time>
      </trkpt>
      <trkpt lat="44.15121" lon="7.57012">
        <ele>1918</ele>
        <time>2017-09-17T12:50:04Z</time>
      </trkpt>
      <trkpt lat="44.15118" lon="7.57012">
        <ele>1918</ele>
        <time>2017-09-17T12:50:05Z</time>
      </trkpt>
      <trkpt lat="44.15116" lon="7.57013">
        <ele>1918</ele>
        <time>2017-09-17T12:50:06Z</time>
      </trkpt>
      <trkpt lat="44.15115" lon="7.57016">
        <ele>1918</ele>
        <time>2017-09-17T12:50:07Z</time>
      </trkpt>
      <trkpt lat="44.15116" lon="7.5702">
        <ele>1918</ele>
        <time>2017-09-17T12:50:08Z</time>
      </trkpt>
      <trkpt lat="44.15117" lon="7.57023">
        <ele>1918</ele>
        <time>2017-09-17T12:50:09Z</time>
      </trkpt>
      <trkpt lat="44.15119" lon="7.57027">
        <ele>1918</ele>
        <time>2017-09-17T12:50:10Z</time>
      </trkpt>
      <trkpt lat="44.1512" lon="7.5703">
        <ele>1918</ele>
        <time>2017-09-17T12:50:11Z</time>
      </trkpt>
      <trkpt lat="44.15122" lon="7.57034">
        <ele>1918</ele>
        <time>2017-09-17T12:50:12Z</time>
      </trkpt>
      <trkpt lat="44.15123" lon="7.57038">
        <ele>1918</ele>
        <time>2017-09-17T12:50:13Z</time>
      </trkpt>
      <trkpt lat="44.15125" lon="7.57042">
        <ele>1918</ele>
        <time>2017-09-17T12:50:14Z</time>
      </trkpt>
      <trkpt lat="44.15126" lon="7.57047">
        <ele>1917</ele>
        <time>2017-09-17T12:50:15Z</time>
      </trkpt>
      <trkpt lat="44.15127" lon="7.57051">
        <ele>1917</ele>
        <time>2017-09-17T12:50:16Z</time>
      </trkpt>
      <trkpt lat="44.15127" lon="7.57054">
        <ele>1917</ele>
        <time>2017-09-17T12:50:17Z</time>
      </trkpt>
      <trkpt lat="44.15126" lon="7.57058">
        <ele>1917</ele>
        <time>2017-09-17T12:50:18Z</time>
      </trkpt>
      <trkpt lat="44.15126" lon="7.57063">
        <ele>1917</ele>
        <time>2017-09-17T12:50:19Z</time>
      </trkpt>
      <trkpt lat="44.15125" lon="7.57069">
        <ele>1916</ele>
        <time>2017-09-17T12:50:20Z</time>
      </trkpt>
      <trkpt lat="44.15124" lon="7.57074">
        <ele>1916</ele>
        <time>2017-09-17T12:50:21Z</time>
      </trkpt>
      <trkpt lat="44.15124" lon="7.57079">
        <ele>1915</ele>
        <time>2017-09-17T12:50:22Z</time>
      </trkpt>
      <trkpt lat="44.15124" lon="7.57086">
        <ele>1915</ele>
        <time>2017-09-17T12:50:23Z</time>
      </trkpt>
      <trkpt lat="44.15124" lon="7.57093">
        <ele>1914</ele>
        <time>2017-09-17T12:50:24Z</time>
      </trkpt>
      <trkpt lat="44.15124" lon="7.57101">
        <ele>1913</ele>
        <time>2017-09-17T12:50:25Z</time>
      </trkpt>
      <trkpt lat="44.15125" lon="7.57108">
        <ele>1912</ele>
        <time>2017-09-17T12:50:26Z</time>
      </trkpt>
      <trkpt lat="44.15126" lon="7.57114">
        <ele>1911</ele>
        <time>2017-09-17T12:50:27Z</time>
      </trkpt>
      <trkpt lat="44.15128" lon="7.57121">
        <ele>1910</ele>
        <time>2017-09-17T12:50:28Z</time>
      </trkpt>
      <trkpt lat="44.15129" lon="7.57127">
        <ele>1909</ele>
        <time>2017-09-17T12:50:29Z</time>
      </trkpt>
      <trkpt lat="44.1513" lon="7.57133">
        <ele>1907</ele>
        <time>2017-09-17T12:50:30Z</time>
      </trkpt>
      <trkpt lat="44.15131" lon="7.57139">
        <ele>1906</ele>
        <time>2017-09-17T12:50:31Z</time>
      </trkpt>
      <trkpt lat="44.15129" lon="7.57144">
        <ele>1906</ele>
        <time>2017-09-17T12:50:32Z</time>
      </trkpt>
      <trkpt lat="44.15128" lon="7.5715">
        <ele>1905</ele>
        <time>2017-09-17T12:50:33Z</time>
      </trkpt>
      <trkpt lat="44.15128" lon="7.57156">
        <ele>1903</ele>
        <time>2017-09-17T12:50:34Z</time>
      </trkpt>
      <trkpt lat="44.15129" lon="7.57163">
        <ele>1902</ele>
        <time>2017-09-17T12:50:35Z</time>
      </trkpt>
      <trkpt lat="44.15129" lon="7.5717">
        <ele>1901</ele>
        <time>2017-09-17T12:50:36Z</time>
      </trkpt>
      <trkpt lat="44.1513" lon="7.57177">
        <ele>1900</ele>
        <time>2017-09-17T12:50:37Z</time>
      </trkpt>
      <trkpt lat="44.15131" lon="7.57182">
        <ele>1899</ele>
        <time>2017-09-17T12:50:38Z</time>
      </trkpt>
      <trkpt lat="44.15132" lon="7.57188">
        <ele>1898</ele>
        <time>2017-09-17T12:50:39Z</time>
      </trkpt>
      <trkpt lat="44.15135" lon="7.57194">
        <ele>1897</ele>
        <time>2017-09-17T12:50:40Z</time>
      </trkpt>
      <trkpt lat="44.15137" lon="7.57199">
        <ele>1897</ele>
        <time>2017-09-17T12:50:41Z</time>
      </trkpt>
      <trkpt lat="44.15139" lon="7.57204">
        <ele>1896</ele>
        <time>2017-09-17T12:50:42Z</time>
      </trkpt>
      <trkpt lat="44.15143" lon="7.57207">
        <ele>1895</ele>
        <time>2017-09-17T12:50:43Z</time>
      </trkpt>
      <trkpt lat="44.15147" lon="7.57212">
        <ele>1894</ele>
        <time>2017-09-17T12:50:44Z</time>
      </trkpt>
      <trkpt lat="44.1515" lon="7.57219">
        <ele>1893</ele>
        <time>2017-09-17T12:50:45Z</time>
      </trkpt>
      <trkpt lat="44.15152" lon="7.57227">
        <ele>1893</ele>
        <time>2017-09-17T12:50:46Z</time>
      </trkpt>
      <trkpt lat="44.15153" lon="7.57235">
        <ele>1892</ele>
        <time>2017-09-17T12:50:47Z</time>
      </trkpt>
      <trkpt lat="44.15155" lon="7.57243">
        <ele>1892</ele>
        <time>2017-09-17T12:50:48Z</time>
      </trkpt>
      <trkpt lat="44.15159" lon="7.5725">
        <ele>1892</ele>
        <time>2017-09-17T12:50:49Z</time>
      </trkpt>
      <trkpt lat="44.15163" lon="7.57257">
        <ele>1891</ele>
        <time>2017-09-17T12:50:50Z</time>
      </trkpt>
      <trkpt lat="44.15167" lon="7.57262">
        <ele>1891</ele>
        <time>2017-09-17T12:50:51Z</time>
      </trkpt>
      <trkpt lat="44.15172" lon="7.57268">
        <ele>1891</ele>
        <time>2017-09-17T12:50:52Z</time>
      </trkpt>
      <trkpt lat="44.15176" lon="7.57274">
        <ele>1891</ele>
        <time>2017-09-17T12:50:53Z</time>
      </trkpt>
      <trkpt lat="44.1518" lon="7.5728">
        <ele>1891</ele>
        <time>2017-09-17T12:50:54Z</time>
      </trkpt>
      <trkpt lat="44.15185" lon="7.57285">
        <ele>1890</ele>
        <time>2017-09-17T12:50:55Z</time>
      </trkpt>
      <trkpt lat="44.15189" lon="7.57291">
        <ele>1890</ele>
        <time>2017-09-17T12:50:56Z</time>
      </trkpt>
      <trkpt lat="44.15194" lon="7.57296">
        <ele>1890</ele>
        <time>2017-09-17T12:50:57Z</time>
      </trkpt>
      <trkpt lat="44.15198" lon="7.57302">
        <ele>1890</ele>
        <time>2017-09-17T12:50:58Z</time>
      </trkpt>
      <trkpt lat="44.15203" lon="7.57308">
        <ele>1890</ele>
        <time>2017-09-17T12:50:59Z</time>
      </trkpt>
      <trkpt lat="44.15207" lon="7.57314">
        <ele>1890</ele>
        <time>2017-09-17T12:51:00Z</time>
      </trkpt>
      <trkpt lat="44.15212" lon="7.57319">
        <ele>1890</ele>
        <time>2017-09-17T12:51:01Z</time>
      </trkpt>
      <trkpt lat="44.15218" lon="7.57324">
        <ele>1889</ele>
        <time>2017-09-17T12:51:02Z</time>
      </trkpt>
      <trkpt lat="44.15223" lon="7.57329">
        <ele>1889</ele>
        <time>2017-09-17T12:51:03Z</time>
      </trkpt>
      <trkpt lat="44.15228" lon="7.57334">
        <ele>1889</ele>
        <time>2017-09-17T12:51:04Z</time>
      </trkpt>
      <trkpt lat="44.15232" lon="7.5734">
        <ele>1890</ele>
        <time>2017-09-17T12:51:05Z</time>
      </trkpt>
      <trkpt lat="44.15236" lon="7.57345">
        <ele>1890</ele>
        <time>2017-09-17T12:51:06Z</time>
      </trkpt>
      <trkpt lat="44.15241" lon="7.5735">
        <ele>1890</ele>
        <time>2017-09-17T12:51:07Z</time>
      </trkpt>
      <trkpt lat="44.15245" lon="7.57356">
        <ele>1890</ele>
        <time>2017-09-17T12:51:08Z</time>
      </trkpt>
      <trkpt lat="44.1525" lon="7.57361">
        <ele>1890</ele>
        <time>2017-09-17T12:51:09Z</time>
      </trkpt>
      <trkpt lat="44.15254" lon="7.57366">
        <ele>1890</ele>
        <time>2017-09-17T12:51:10Z</time>
      </trkpt>
      <trkpt lat="44.15259" lon="7.57371">
        <ele>1890</ele>
        <time>2017-09-17T12:51:11Z</time>
      </trkpt>
      <trkpt lat="44.15264" lon="7.57376">
        <ele>1890</ele>
        <time>2017-09-17T12:51:12Z</time>
      </trkpt>
      <trkpt lat="44.15269" lon="7.5738">
        <ele>1891</ele>
        <time>2017-09-17T12:51:13Z</time>
      </trkpt>
      <trkpt lat="44.15274" lon="7.57385">
        <ele>1891</ele>
        <time>2017-09-17T12:51:14Z</time>
      </trkpt>
      <trkpt lat="44.15279" lon="7.5739">
        <ele>1891</ele>
        <time>2017-09-17T12:51:15Z</time>
      </trkpt>
      <trkpt lat="44.15283" lon="7.57395">
        <ele>1891</ele>
        <time>2017-09-17T12:51:16Z</time>
      </trkpt>
      <trkpt lat="44.15288" lon="7.574">
        <ele>1891</ele>
        <time>2017-09-17T12:51:17Z</time>
      </trkpt>
      <trkpt lat="44.15292" lon="7.57405">
        <ele>1891</ele>
        <time>2017-09-17T12:51:18Z</time>
      </trkpt>
      <trkpt lat="44.15297" lon="7.57411">
        <ele>1891</ele>
        <time>2017-09-17T12:51:19Z</time>
      </trkpt>
      <trkpt lat="44.15301" lon="7.57416">
        <ele>1891</ele>
        <time>2017-09-17T12:51:20Z</time>
      </trkpt>
      <trkpt lat="44.15306" lon="7.57421">
        <ele>1891</ele>
        <time>2017-09-17T12:51:21Z</time>
      </trkpt>
      <trkpt lat="44.15311" lon="7.57426">
        <ele>1891</ele>
        <time>2017-09-17T12:51:22Z</time>
      </trkpt>
      <trkpt lat="44.15316" lon="7.57432">
        <ele>1891</ele>
        <time>2017-09-17T12:51:23Z</time>
      </trkpt>
      <trkpt lat="44.1532" lon="7.57437">
        <ele>1891</ele>
        <time>2017-09-17T12:51:24Z</time>
      </trkpt>
      <trkpt lat="44.15324" lon="7.57442">
        <ele>1892</ele>
        <time>2017-09-17T12:51:25Z</time>
      </trkpt>
      <trkpt lat="44.15328" lon="7.57448">
        <ele>1892</ele>
        <time>2017-09-17T12:51:26Z</time>
      </trkpt>
      <trkpt lat="44.15332" lon="7.57455">
        <ele>1892</ele>
        <time>2017-09-17T12:51:27Z</time>
      </trkpt>
      <trkpt lat="44.15335" lon="7.57461">
        <ele>1892</ele>
        <time>2017-09-17T12:51:28Z</time>
      </trkpt>
      <trkpt lat="44.15338" lon="7.57468">
        <ele>1892</ele>
        <time>2017-09-17T12:51:29Z</time>
      </trkpt>
      <trkpt lat="44.15341" lon="7.57474">
        <ele>1892</ele>
        <time>2017-09-17T12:51:30Z</time>
      </trkpt>
      <trkpt lat="44.15344" lon="7.57481">
        <ele>1892</ele>
        <time>2017-09-17T12:51:31Z</time>
      </trkpt>
      <trkpt lat="44.15347" lon="7.57489">
        <ele>1892</ele>
        <time>2017-09-17T12:51:32Z</time>
      </trkpt>
      <trkpt lat="44.15349" lon="7.57496">
        <ele>1892</ele>
        <time>2017-09-17T12:51:33Z</time>
      </trkpt>
      <trkpt lat="44.15352" lon="7.57503">
        <ele>1892</ele>
        <time>2017-09-17T12:51:34Z</time>
      </trkpt>
      <trkpt lat="44.15354" lon="7.5751">
        <ele>1892</ele>
        <time>2017-09-17T12:51:35Z</time>
      </trkpt>
      <trkpt lat="44.15357" lon="7.57517">
        <ele>1893</ele>
        <time>2017-09-17T12:51:36Z</time>
      </trkpt>
      <trkpt lat="44.15359" lon="7.57524">
        <ele>1893</ele>
        <time>2017-09-17T12:51:37Z</time>
      </trkpt>
      <trkpt lat="44.15362" lon="7.57531">
        <ele>1893</ele>
        <time>2017-09-17T12:51:38Z</time>
      </trkpt>
      <trkpt lat="44.15364" lon="7.57538">
        <ele>1893</ele>
        <time>2017-09-17T12:51:39Z</time>
      </trkpt>
      <trkpt lat="44.15366" lon="7.57545">
        <ele>1893</ele>
        <time>2017-09-17T12:51:40Z</time>
      </trkpt>
      <trkpt lat="44.15369" lon="7.57552">
        <ele>1893</ele>
        <time>2017-09-17T12:51:41Z</time>
      </trkpt>
      <trkpt lat="44.15371" lon="7.57559">
        <ele>1893</ele>
        <time>2017-09-17T12:51:42Z</time>
      </trkpt>
      <trkpt lat="44.15374" lon="7.57566">
        <ele>1894</ele>
        <time>2017-09-17T12:51:43Z</time>
      </trkpt>
      <trkpt lat="44.15376" lon="7.57574">
        <ele>1894</ele>
        <time>2017-09-17T12:51:44Z</time>
      </trkpt>
      <trkpt lat="44.15378" lon="7.57581">
        <ele>1894</ele>
        <time>2017-09-17T12:51:45Z</time>
      </trkpt>
      <trkpt lat="44.15379" lon="7.57588">
        <ele>1894</ele>
        <time>2017-09-17T12:51:46Z</time>
      </trkpt>
      <trkpt lat="44.15379" lon="7.57596">
        <ele>1894</ele>
        <time>2017-09-17T12:51:47Z</time>
      </trkpt>
      <trkpt lat="44.15378" lon="7.57604">
        <ele>1894</ele>
        <time>2017-09-17T12:51:48Z</time>
      </trkpt>
      <trkpt lat="44.15377" lon="7.57612">
        <ele>1894</ele>
        <time>2017-09-17T12:51:49Z</time>
      </trkpt>
      <trkpt lat="44.15375" lon="7.5762">
        <ele>1894</ele>
        <time>2017-09-17T12:51:50Z</time>
      </trkpt>
      <trkpt lat="44.15374" lon="7.57628">
        <ele>1894</ele>
        <time>2017-09-17T12:51:51Z</time>
      </trkpt>
      <trkpt lat="44.15372" lon="7.57635">
        <ele>1894</ele>
        <time>2017-09-17T12:51:52Z</time>
      </trkpt>
      <trkpt lat="44.15367" lon="7.57642">
        <ele>1894</ele>
        <time>2017-09-17T12:51:53Z</time>
      </trkpt>
      <trkpt lat="44.15362" lon="7.57647">
        <ele>1894</ele>
        <time>2017-09-17T12:51:54Z</time>
      </trkpt>
      <trkpt lat="44.15357" lon="7.57652">
        <ele>1894</ele>
        <time>2017-09-17T12:51:55Z</time>
      </trkpt>
      <trkpt lat="44.15352" lon="7.57659">
        <ele>1894</ele>
        <time>2017-09-17T12:51:56Z</time>
      </trkpt>
      <trkpt lat="44.15348" lon="7.57666">
        <ele>1893</ele>
        <time>2017-09-17T12:51:57Z</time>
      </trkpt>
      <trkpt lat="44.15344" lon="7.57674">
        <ele>1893</ele>
        <time>2017-09-17T12:51:58Z</time>
      </trkpt>
      <trkpt lat="44.1534" lon="7.57682">
        <ele>1893</ele>
        <time>2017-09-17T12:51:59Z</time>
      </trkpt>
      <trkpt lat="44.15335" lon="7.5769">
        <ele>1893</ele>
        <time>2017-09-17T12:52:00Z</time>
      </trkpt>
      <trkpt lat="44.1533" lon="7.57697">
        <ele>1893</ele>
        <time>2017-09-17T12:52:01Z</time>
      </trkpt>
      <trkpt lat="44.15325" lon="7.57704">
        <ele>1893</ele>
        <time>2017-09-17T12:52:02Z</time>
      </trkpt>
      <trkpt lat="44.1532" lon="7.57711">
        <ele>1892</ele>
        <time>2017-09-17T12:52:03Z</time>
      </trkpt>
      <trkpt lat="44.15314" lon="7.57717">
        <ele>1892</ele>
        <time>2017-09-17T12:52:04Z</time>
      </trkpt>
      <trkpt lat="44.15308" lon="7.57723">
        <ele>1892</ele>
        <time>2017-09-17T12:52:05Z</time>
      </trkpt>
      <trkpt lat="44.15302" lon="7.57729">
        <ele>1891</ele>
        <time>2017-09-17T12:52:06Z</time>
      </trkpt>
      <trkpt lat="44.15296" lon="7.57735">
        <ele>1891</ele>
        <time>2017-09-17T12:52:07Z</time>
      </trkpt>
      <trkpt lat="44.1529" lon="7.57742">
        <ele>1891</ele>
        <time>2017-09-17T12:52:08Z</time>
      </trkpt>
      <trkpt lat="44.15286" lon="7.57749">
        <ele>1891</ele>
        <time>2017-09-17T12:52:09Z</time>
      </trkpt>
      <trkpt lat="44.15281" lon="7.57757">
        <ele>1890</ele>
        <time>2017-09-17T12:52:10Z</time>
      </trkpt>
      <trkpt lat="44.15278" lon="7.57765">
        <ele>1890</ele>
        <time>2017-09-17T12:52:11Z</time>
      </trkpt>
      <trkpt lat="44.15274" lon="7.57773">
        <ele>1890</ele>
        <time>2017-09-17T12:52:12Z</time>
      </trkpt>
      <trkpt lat="44.1527" lon="7.57781">
        <ele>1890</ele>
        <time>2017-09-17T12:52:13Z</time>
      </trkpt>
      <trkpt lat="44.15265" lon="7.57788">
        <ele>1890</ele>
        <time>2017-09-17T12:52:14Z</time>
      </trkpt>
      <trkpt lat="44.15261" lon="7.57795">
        <ele>1889</ele>
        <time>2017-09-17T12:52:15Z</time>
      </trkpt>
      <trkpt lat="44.15256" lon="7.57802">
        <ele>1889</ele>
        <time>2017-09-17T12:52:16Z</time>
      </trkpt>
      <trkpt lat="44.15251" lon="7.57808">
        <ele>1889</ele>
        <time>2017-09-17T12:52:17Z</time>
      </trkpt>
      <trkpt lat="44.15247" lon="7.57814">
        <ele>1889</ele>
        <time>2017-09-17T12:52:18Z</time>
      </trkpt>
      <trkpt lat="44.15243" lon="7.5782">
        <ele>1889</ele>
        <time>2017-09-17T12:52:19Z</time>
      </trkpt>
      <trkpt lat="44.15239" lon="7.57826">
        <ele>1889</ele>
        <time>2017-09-17T12:52:20Z</time>
      </trkpt>
      <trkpt lat="44.15235" lon="7.57831">
        <ele>1889</ele>
        <time>2017-09-17T12:52:21Z</time>
      </trkpt>
      <trkpt lat="44.15231" lon="7.57837">
        <ele>1889</ele>
        <time>2017-09-17T12:52:22Z</time>
      </trkpt>
      <trkpt lat="44.15226" lon="7.57841">
        <ele>1889</ele>
        <time>2017-09-17T12:52:23Z</time>
      </trkpt>
      <trkpt lat="44.15222" lon="7.57845">
        <ele>1889</ele>
        <time>2017-09-17T12:52:24Z</time>
      </trkpt>
      <trkpt lat="44.15218" lon="7.57849">
        <ele>1889</ele>
        <time>2017-09-17T12:52:25Z</time>
      </trkpt>
      <trkpt lat="44.15214" lon="7.57854">
        <ele>1889</ele>
        <time>2017-09-17T12:52:26Z</time>
      </trkpt>
      <trkpt lat="44.15211" lon="7.57859">
        <ele>1889</ele>
        <time>2017-09-17T12:52:27Z</time>
      </trkpt>
      <trkpt lat="44.15207" lon="7.57865">
        <ele>1889</ele>
        <time>2017-09-17T12:52:28Z</time>
      </trkpt>
      <trkpt lat="44.15203" lon="7.57871">
        <ele>1889</ele>
        <time>2017-09-17T12:52:29Z</time>
      </trkpt>
      <trkpt lat="44.15199" lon="7.57877">
        <ele>1889</ele>
        <time>2017-09-17T12:52:30Z</time>
      </trkpt>
      <trkpt lat="44.15195" lon="7.57883">
        <ele>1889</ele>
        <time>2017-09-17T12:52:31Z</time>
      </trkpt>
      <trkpt lat="44.1519" lon="7.57888">
        <ele>1889</ele>
        <time>2017-09-17T12:52:32Z</time>
      </trkpt>
      <trkpt lat="44.15186" lon="7.57893">
        <ele>1888</ele>
        <time>2017-09-17T12:52:33Z</time>
      </trkpt>
      <trkpt lat="44.15181" lon="7.57898">
        <ele>1888</ele>
        <time>2017-09-17T12:52:34Z</time>
      </trkpt>
      <trkpt lat="44.15175" lon="7.57902">
        <ele>1888</ele>
        <time>2017-09-17T12:52:35Z</time>
      </trkpt>
      <trkpt lat="44.1517" lon="7.57907">
        <ele>1888</ele>
        <time>2017-09-17T12:52:36Z</time>
      </trkpt>
      <trkpt lat="44.15166" lon="7.57912">
        <ele>1888</ele>
        <time>2017-09-17T12:52:37Z</time>
      </trkpt>
      <trkpt lat="44.15161" lon="7.57917">
        <ele>1888</ele>
        <time>2017-09-17T12:52:38Z</time>
      </trkpt>
      <trkpt lat="44.15158" lon="7.57923">
        <ele>1888</ele>
        <time>2017-09-17T12:52:39Z</time>
      </trkpt>
      <trkpt lat="44.15154" lon="7.57929">
        <ele>1888</ele>
        <time>2017-09-17T12:52:40Z</time>
      </trkpt>
      <trkpt lat="44.15152" lon="7.57936">
        <ele>1888</ele>
        <time>2017-09-17T12:52:41Z</time>
      </trkpt>
      <trkpt lat="44.1515" lon="7.57944">
        <ele>1888</ele>
        <time>2017-09-17T12:52:42Z</time>
      </trkpt>
      <trkpt lat="44.15149" lon="7.57952">
        <ele>1887</ele>
        <time>2017-09-17T12:52:43Z</time>
      </trkpt>
      <trkpt lat="44.15149" lon="7.57961">
        <ele>1887</ele>
        <time>2017-09-17T12:52:44Z</time>
      </trkpt>
      <trkpt lat="44.15149" lon="7.57969">
        <ele>1887</ele>
        <time>2017-09-17T12:52:45Z</time>
      </trkpt>
      <trkpt lat="44.15149" lon="7.57977">
        <ele>1887</ele>
        <time>2017-09-17T12:52:46Z</time>
      </trkpt>
      <trkpt lat="44.1515" lon="7.57985">
        <ele>1887</ele>
        <time>2017-09-17T12:52:47Z</time>
      </trkpt>
      <trkpt lat="44.15149" lon="7.57994">
        <ele>1887</ele>
        <time>2017-09-17T12:52:48Z</time>
      </trkpt>
      <trkpt lat="44.15148" lon="7.58002">
        <ele>1887</ele>
        <time>2017-09-17T12:52:49Z</time>
      </trkpt>
      <trkpt lat="44.15146" lon="7.5801">
        <ele>1887</ele>
        <time>2017-09-17T12:52:50Z</time>
      </trkpt>
      <trkpt lat="44.15143" lon="7.58018">
        <ele>1887</ele>
        <time>2017-09-17T12:52:51Z</time>
      </trkpt>
      <trkpt lat="44.15141" lon="7.58025">
        <ele>1887</ele>
        <time>2017-09-17T12:52:52Z</time>
      </trkpt>
      <trkpt lat="44.15138" lon="7.58033">
        <ele>1886</ele>
        <time>2017-09-17T12:52:53Z</time>
      </trkpt>
      <trkpt lat="44.15135" lon="7.58041">
        <ele>1886</ele>
        <time>2017-09-17T12:52:54Z</time>
      </trkpt>
      <trkpt lat="44.15132" lon="7.58048">
        <ele>1886</ele>
        <time>2017-09-17T12:52:55Z</time>
      </trkpt>
      <trkpt lat="44.15129" lon="7.58055">
        <ele>1886</ele>
        <time>2017-09-17T12:52:56Z</time>
      </trkpt>
      <trkpt lat="44.15125" lon="7.58062">
        <ele>1886</ele>
        <time>2017-09-17T12:52:57Z</time>
      </trkpt>
      <trkpt lat="44.15121" lon="7.58068">
        <ele>1886</ele>
        <time>2017-09-17T12:52:58Z</time>
      </trkpt>
      <trkpt lat="44.15116" lon="7.58074">
        <ele>1886</ele>
        <time>2017-09-17T12:52:59Z</time>
      </trkpt>
      <trkpt lat="44.15111" lon="7.58079">
        <ele>1886</ele>
        <time>2017-09-17T12:53:00Z</time>
      </trkpt>
      <trkpt lat="44.15107" lon="7.58084">
        <ele>1886</ele>
        <time>2017-09-17T12:53:01Z</time>
      </trkpt>
      <trkpt lat="44.15102" lon="7.58088">
        <ele>1886</ele>
        <time>2017-09-17T12:53:02Z</time>
      </trkpt>
      <trkpt lat="44.15098" lon="7.58093">
        <ele>1886</ele>
        <time>2017-09-17T12:53:03Z</time>
      </trkpt>
      <trkpt lat="44.15093" lon="7.58097">
        <ele>1886</ele>
        <time>2017-09-17T12:53:04Z</time>
      </trkpt>
      <trkpt lat="44.15088" lon="7.581">
        <ele>1887</ele>
        <time>2017-09-17T12:53:05Z</time>
      </trkpt>
      <trkpt lat="44.15084" lon="7.58103">
        <ele>1887</ele>
        <time>2017-09-17T12:53:06Z</time>
      </trkpt>
      <trkpt lat="44.15079" lon="7.58106">
        <ele>1887</ele>
        <time>2017-09-17T12:53:07Z</time>
      </trkpt>
      <trkpt lat="44.15075" lon="7.5811">
        <ele>1887</ele>
        <time>2017-09-17T12:53:08Z</time>
      </trkpt>
      <trkpt lat="44.1507" lon="7.58113">
        <ele>1888</ele>
        <time>2017-09-17T12:53:09Z</time>
      </trkpt>
      <trkpt lat="44.15065" lon="7.58116">
        <ele>1888</ele>
        <time>2017-09-17T12:53:10Z</time>
      </trkpt>
      <trkpt lat="44.15061" lon="7.58119">
        <ele>1888</ele>
        <time>2017-09-17T12:53:11Z</time>
      </trkpt>
      <trkpt lat="44.15056" lon="7.58122">
        <ele>1889</ele>
        <time>2017-09-17T12:53:12Z</time>
      </trkpt>
      <trkpt lat="44.15052" lon="7.58125">
        <ele>1889</ele>
        <time>2017-09-17T12:53:13Z</time>
      </trkpt>
      <trkpt lat="44.15048" lon="7.58128">
        <ele>1889</ele>
        <time>2017-09-17T12:53:14Z</time>
      </trkpt>
      <trkpt lat="44.15044" lon="7.58131">
        <ele>1890</ele>
        <time>2017-09-17T12:53:15Z</time>
      </trkpt>
      <trkpt lat="44.15039" lon="7.58135">
        <ele>1890</ele>
        <time>2017-09-17T12:53:16Z</time>
      </trkpt>
      <trkpt lat="44.15035" lon="7.58138">
        <ele>1891</ele>
        <time>2017-09-17T12:53:17Z</time>
      </trkpt>
      <trkpt lat="44.15031" lon="7.58141">
        <ele>1891</ele>
        <time>2017-09-17T12:53:18Z</time>
      </trkpt>
      <trkpt lat="44.15027" lon="7.58144">
        <ele>1891</ele>
        <time>2017-09-17T12:53:19Z</time>
      </trkpt>
      <trkpt lat="44.15024" lon="7.58147">
        <ele>1892</ele>
        <time>2017-09-17T12:53:20Z</time>
      </trkpt>
      <trkpt lat="44.1502" lon="7.5815">
        <ele>1892</ele>
        <time>2017-09-17T12:53:21Z</time>
      </trkpt>
      <trkpt lat="44.15016" lon="7.58153">
        <ele>1892</ele>
        <time>2017-09-17T12:53:22Z</time>
      </trkpt>
      <trkpt lat="44.15013" lon="7.58157">
        <ele>1893</ele>
        <time>2017-09-17T12:53:23Z</time>
      </trkpt>
      <trkpt lat="44.15009" lon="7.5816">
        <ele>1893</ele>
        <time>2017-09-17T12:53:24Z</time>
      </trkpt>
      <trkpt lat="44.15005" lon="7.58164">
        <ele>1893</ele>
        <time>2017-09-17T12:53:25Z</time>
      </trkpt>
      <trkpt lat="44.15001" lon="7.58168">
        <ele>1894</ele>
        <time>2017-09-17T12:53:26Z</time>
      </trkpt>
      <trkpt lat="44.14998" lon="7.58172">
        <ele>1894</ele>
        <time>2017-09-17T12:53:27Z</time>
      </trkpt>
      <trkpt lat="44.14994" lon="7.58177">
        <ele>1894</ele>
        <time>2017-09-17T12:53:28Z</time>
      </trkpt>
      <trkpt lat="44.1499" lon="7.58182">
        <ele>1894</ele>
        <time>2017-09-17T12:53:29Z</time>
      </trkpt>
      <trkpt lat="44.14987" lon="7.58187">
        <ele>1894</ele>
        <time>2017-09-17T12:53:30Z</time>
      </trkpt>
      <trkpt lat="44.14983" lon="7.58193">
        <ele>1894</ele>
        <time>2017-09-17T12:53:31Z</time>
      </trkpt>
      <trkpt lat="44.14979" lon="7.58199">
        <ele>1894</ele>
        <time>2017-09-17T12:53:32Z</time>
      </trkpt>
      <trkpt lat="44.14974" lon="7.58205">
        <ele>1894</ele>
        <time>2017-09-17T12:53:33Z</time>
      </trkpt>
      <trkpt lat="44.14969" lon="7.58209">
        <ele>1894</ele>
        <time>2017-09-17T12:53:34Z</time>
      </trkpt>
      <trkpt lat="44.14964" lon="7.58213">
        <ele>1894</ele>
        <time>2017-09-17T12:53:35Z</time>
      </trkpt>
      <trkpt lat="44.14959" lon="7.58216">
        <ele>1894</ele>
        <time>2017-09-17T12:53:36Z</time>
      </trkpt>
      <trkpt lat="44.14954" lon="7.58219">
        <ele>1894</ele>
        <time>2017-09-17T12:53:37Z</time>
      </trkpt>
      <trkpt lat="44.14949" lon="7.58222">
        <ele>1894</ele>
        <time>2017-09-17T12:53:38Z</time>
      </trkpt>
      <trkpt lat="44.14944" lon="7.58224">
        <ele>1894</ele>
        <time>2017-09-17T12:53:39Z</time>
      </trkpt>
      <trkpt lat="44.14939" lon="7.58227">
        <ele>1894</ele>
        <time>2017-09-17T12:53:40Z</time>
      </trkpt>
      <trkpt lat="44.14934" lon="7.58229">
        <ele>1895</ele>
        <time>2017-09-17T12:53:41Z</time>
      </trkpt>
      <trkpt lat="44.14929" lon="7.58231">
        <ele>1895</ele>
        <time>2017-09-17T12:53:42Z</time>
      </trkpt>
      <trkpt lat="44.14925" lon="7.58233">
        <ele>1895</ele>
        <time>2017-09-17T12:53:43Z</time>
      </trkpt>
      <trkpt lat="44.1492" lon="7.58235">
        <ele>1895</ele>
        <time>2017-09-17T12:53:44Z</time>
      </trkpt>
      <trkpt lat="44.14915" lon="7.58237">
        <ele>1895</ele>
        <time>2017-09-17T12:53:45Z</time>
      </trkpt>
      <trkpt lat="44.14911" lon="7.58238">
        <ele>1896</ele>
        <time>2017-09-17T12:53:46Z</time>
      </trkpt>
      <trkpt lat="44.14906" lon="7.5824">
        <ele>1896</ele>
        <time>2017-09-17T12:53:47Z</time>
      </trkpt>
      <trkpt lat="44.14902" lon="7.58242">
        <ele>1896</ele>
        <time>2017-09-17T12:53:48Z</time>
      </trkpt>
      <trkpt lat="44.14897" lon="7.58244">
        <ele>1897</ele>
        <time>2017-09-17T12:53:49Z</time>
      </trkpt>
      <trkpt lat="44.14892" lon="7.58246">
        <ele>1897</ele>
        <time>2017-09-17T12:53:50Z</time>
      </trkpt>
      <trkpt lat="44.14888" lon="7.58247">
        <ele>1897</ele>
        <time>2017-09-17T12:53:51Z</time>
      </trkpt>
      <trkpt lat="44.14883" lon="7.58249">
        <ele>1897</ele>
        <time>2017-09-17T12:53:52Z</time>
      </trkpt>
      <trkpt lat="44.14879" lon="7.58251">
        <ele>1898</ele>
        <time>2017-09-17T12:53:53Z</time>
      </trkpt>
      <trkpt lat="44.14874" lon="7.58253">
        <ele>1898</ele>
        <time>2017-09-17T12:53:54Z</time>
      </trkpt>
      <trkpt lat="44.1487" lon="7.58254">
        <ele>1898</ele>
        <time>2017-09-17T12:53:55Z</time>
      </trkpt>
      <trkpt lat="44.14866" lon="7.58257">
        <ele>1898</ele>
        <time>2017-09-17T12:53:56Z</time>
      </trkpt>
      <trkpt lat="44.14862" lon="7.58259">
        <ele>1899</ele>
        <time>2017-09-17T12:53:57Z</time>
      </trkpt>
      <trkpt lat="44.14858" lon="7.58262">
        <ele>1899</ele>
        <time>2017-09-17T12:53:58Z</time>
      </trkpt>
      <trkpt lat="44.14855" lon="7.58266">
        <ele>1899</ele>
        <time>2017-09-17T12:53:59Z</time>
      </trkpt>
      <trkpt lat="44.14852" lon="7.58271">
        <ele>1900</ele>
        <time>2017-09-17T12:54:00Z</time>
      </trkpt>
      <trkpt lat="44.14851" lon="7.58276">
        <ele>1900</ele>
        <time>2017-09-17T12:54:01Z</time>
      </trkpt>
      <trkpt lat="44.1485" lon="7.58281">
        <ele>1900</ele>
        <time>2017-09-17T12:54:02Z</time>
      </trkpt>
      <trkpt lat="44.14849" lon="7.58287">
        <ele>1901</ele>
        <time>2017-09-17T12:54:03Z</time>
      </trkpt>
      <trkpt lat="44.14849" lon="7.58292">
        <ele>1901</ele>
        <time>2017-09-17T12:54:04Z</time>
      </trkpt>
      <trkpt lat="44.14849" lon="7.58298">
        <ele>1901</ele>
        <time>2017-09-17T12:54:05Z</time>
      </trkpt>
      <trkpt lat="44.1485" lon="7.58305">
        <ele>1901</ele>
        <time>2017-09-17T12:54:06Z</time>
      </trkpt>
      <trkpt lat="44.1485" lon="7.58311">
        <ele>1901</ele>
        <time>2017-09-17T12:54:07Z</time>
      </trkpt>
      <trkpt lat="44.14851" lon="7.58318">
        <ele>1902</ele>
        <time>2017-09-17T12:54:08Z</time>
      </trkpt>
      <trkpt lat="44.14852" lon="7.58325">
        <ele>1902</ele>
        <time>2017-09-17T12:54:09Z</time>
      </trkpt>
      <trkpt lat="44.14852" lon="7.58332">
        <ele>1902</ele>
        <time>2017-09-17T12:54:10Z</time>
      </trkpt>
      <trkpt lat="44.14853" lon="7.5834">
        <ele>1902</ele>
        <time>2017-09-17T12:54:11Z</time>
      </trkpt>
      <trkpt lat="44.14854" lon="7.58347">
        <ele>1902</ele>
        <time>2017-09-17T12:54:12Z</time>
      </trkpt>
      <trkpt lat="44.14855" lon="7.58354">
        <ele>1903</ele>
        <time>2017-09-17T12:54:13Z</time>
      </trkpt>
      <trkpt lat="44.14855" lon="7.58362">
        <ele>1903</ele>
        <time>2017-09-17T12:54:14Z</time>
      </trkpt>
      <trkpt lat="44.14856" lon="7.5837">
        <ele>1903</ele>
        <time>2017-09-17T12:54:15Z</time>
      </trkpt>
      <trkpt lat="44.14855" lon="7.58377">
        <ele>1903</ele>
        <time>2017-09-17T12:54:16Z</time>
      </trkpt>
      <trkpt lat="44.14854" lon="7.58385">
        <ele>1903</ele>
        <time>2017-09-17T12:54:17Z</time>
      </trkpt>
      <trkpt lat="44.14852" lon="7.58392">
        <ele>1903</ele>
        <time>2017-09-17T12:54:18Z</time>
      </trkpt>
      <trkpt lat="44.1485" lon="7.58399">
        <ele>1903</ele>
        <time>2017-09-17T12:54:19Z</time>
      </trkpt>
      <trkpt lat="44.14846" lon="7.58405">
        <ele>1903</ele>
        <time>2017-09-17T12:54:20Z</time>
      </trkpt>
      <trkpt lat="44.14842" lon="7.5841">
        <ele>1904</ele>
        <time>2017-09-17T12:54:21Z</time>
      </trkpt>
      <trkpt lat="44.14837" lon="7.58415">
        <ele>1904</ele>
        <time>2017-09-17T12:54:22Z</time>
      </trkpt>
      <trkpt lat="44.14832" lon="7.58419">
        <ele>1904</ele>
        <time>2017-09-17T12:54:23Z</time>
      </trkpt>
      <trkpt lat="44.14828" lon="7.58424">
        <ele>1904</ele>
        <time>2017-09-17T12:54:24Z</time>
      </trkpt>
      <trkpt lat="44.14823" lon="7.58428">
        <ele>1905</ele>
        <time>2017-09-17T12:54:25Z</time>
      </trkpt>
      <trkpt lat="44.14819" lon="7.58432">
        <ele>1905</ele>
        <time>2017-09-17T12:54:26Z</time>
      </trkpt>
      <trkpt lat="44.14814" lon="7.58435">
        <ele>1905</ele>
        <time>2017-09-17T12:54:27Z</time>
      </trkpt>
      <trkpt lat="44.1481" lon="7.58439">
        <ele>1905</ele>
        <time>2017-09-17T12:54:28Z</time>
      </trkpt>
      <trkpt lat="44.14805" lon="7.58443">
        <ele>1906</ele>
        <time>2017-09-17T12:54:29Z</time>
      </trkpt>
      <trkpt lat="44.14801" lon="7.58447">
        <ele>1906</ele>
        <time>2017-09-17T12:54:30Z</time>
      </trkpt>
      <trkpt lat="44.14796" lon="7.58451">
        <ele>1906</ele>
        <time>2017-09-17T12:54:31Z</time>
      </trkpt>
      <trkpt lat="44.14792" lon="7.58455">
        <ele>1906</ele>
        <time>2017-09-17T12:54:32Z</time>
      </trkpt>
      <trkpt lat="44.14787" lon="7.58459">
        <ele>1906</ele>
        <time>2017-09-17T12:54:33Z</time>
      </trkpt>
      <trkpt lat="44.14783" lon="7.58463">
        <ele>1906</ele>
        <time>2017-09-17T12:54:34Z</time>
      </trkpt>
      <trkpt lat="44.14779" lon="7.58468">
        <ele>1906</ele>
        <time>2017-09-17T12:54:35Z</time>
      </trkpt>
      <trkpt lat="44.14774" lon="7.58472">
        <ele>1906</ele>
        <time>2017-09-17T12:54:36Z</time>
      </trkpt>
      <trkpt lat="44.1477" lon="7.58476">
        <ele>1906</ele>
        <time>2017-09-17T12:54:37Z</time>
      </trkpt>
      <trkpt lat="44.14766" lon="7.58481">
        <ele>1907</ele>
        <time>2017-09-17T12:54:38Z</time>
      </trkpt>
      <trkpt lat="44.14763" lon="7.58486">
        <ele>1907</ele>
        <time>2017-09-17T12:54:39Z</time>
      </trkpt>
      <trkpt lat="44.1476" lon="7.58492">
        <ele>1907</ele>
        <time>2017-09-17T12:54:40Z</time>
      </trkpt>
      <trkpt lat="44.14757" lon="7.58498">
        <ele>1907</ele>
        <time>2017-09-17T12:54:41Z</time>
      </trkpt>
      <trkpt lat="44.14755" lon="7.58505">
        <ele>1907</ele>
        <time>2017-09-17T12:54:42Z</time>
      </trkpt>
      <trkpt lat="44.14754" lon="7.58511">
        <ele>1907</ele>
        <time>2017-09-17T12:54:43Z</time>
      </trkpt>
      <trkpt lat="44.14753" lon="7.58519">
        <ele>1907</ele>
        <time>2017-09-17T12:54:44Z</time>
      </trkpt>
      <trkpt lat="44.14752" lon="7.58526">
        <ele>1907</ele>
        <time>2017-09-17T12:54:45Z</time>
      </trkpt>
      <trkpt lat="44.14752" lon="7.58534">
        <ele>1907</ele>
        <time>2017-09-17T12:54:46Z</time>
      </trkpt>
      <trkpt lat="44.14752" lon="7.58542">
        <ele>1907</ele>
        <time>2017-09-17T12:54:47Z</time>
      </trkpt>
      <trkpt lat="44.14752" lon="7.5855">
        <ele>1906</ele>
        <time>2017-09-17T12:54:48Z</time>
      </trkpt>
      <trkpt lat="44.14752" lon="7.58558">
        <ele>1906</ele>
        <time>2017-09-17T12:54:49Z</time>
      </trkpt>
      <trkpt lat="44.14753" lon="7.58566">
        <ele>1906</ele>
        <time>2017-09-17T12:54:50Z</time>
      </trkpt>
      <trkpt lat="44.14753" lon="7.58575">
        <ele>1906</ele>
        <time>2017-09-17T12:54:51Z</time>
      </trkpt>
      <trkpt lat="44.14753" lon="7.58583">
        <ele>1906</ele>
        <time>2017-09-17T12:54:52Z</time>
      </trkpt>
      <trkpt lat="44.14753" lon="7.58591">
        <ele>1906</ele>
        <time>2017-09-17T12:54:53Z</time>
      </trkpt>
      <trkpt lat="44.14752" lon="7.58599">
        <ele>1906</ele>
        <time>2017-09-17T12:54:54Z</time>
      </trkpt>
      <trkpt lat="44.14752" lon="7.58607">
        <ele>1906</ele>
        <time>2017-09-17T12:54:55Z</time>
      </trkpt>
      <trkpt lat="44.14752" lon="7.58615">
        <ele>1906</ele>
        <time>2017-09-17T12:54:56Z</time>
      </trkpt>
      <trkpt lat="44.1475" lon="7.58622">
        <ele>1906</ele>
        <time>2017-09-17T12:54:57Z</time>
      </trkpt>
      <trkpt lat="44.14747" lon="7.58628">
        <ele>1906</ele>
        <time>2017-09-17T12:54:58Z</time>
      </trkpt>
      <trkpt lat="44.14742" lon="7.58633">
        <ele>1906</ele>
        <time>2017-09-17T12:54:59Z</time>
      </trkpt>
      <trkpt lat="44.14737" lon="7.58636">
        <ele>1906</ele>
        <time>2017-09-17T12:55:00Z</time>
      </trkpt>
      <trkpt lat="44.14731" lon="7.58639">
        <ele>1906</ele>
        <time>2017-09-17T12:55:01Z</time>
      </trkpt>
      <trkpt lat="44.14725" lon="7.58641">
        <ele>1906</ele>
        <time>2017-09-17T12:55:02Z</time>
      </trkpt>
      <trkpt lat="44.1472" lon="7.58642">
        <ele>1906</ele>
        <time>2017-09-17T12:55:03Z</time>
      </trkpt>
      <trkpt lat="44.14714" lon="7.58644">
        <ele>1907</ele>
        <time>2017-09-17T12:55:04Z</time>
      </trkpt>
      <trkpt lat="44.14709" lon="7.58646">
        <ele>1907</ele>
        <time>2017-09-17T12:55:05Z</time>
      </trkpt>
      <trkpt lat="44.14703" lon="7.58649">
        <ele>1907</ele>
        <time>2017-09-17T12:55:06Z</time>
      </trkpt>
      <trkpt lat="44.14698" lon="7.58652">
        <ele>1907</ele>
        <time>2017-09-17T12:55:07Z</time>
      </trkpt>
      <trkpt lat="44.14693" lon="7.58655">
        <ele>1907</ele>
        <time>2017-09-17T12:55:08Z</time>
      </trkpt>
      <trkpt lat="44.14688" lon="7.58658">
        <ele>1907</ele>
        <time>2017-09-17T12:55:09Z</time>
      </trkpt>
      <trkpt lat="44.14683" lon="7.58661">
        <ele>1908</ele>
        <time>2017-09-17T12:55:10Z</time>
      </trkpt>
      <trkpt lat="44.14678" lon="7.58665">
        <ele>1908</ele>
        <time>2017-09-17T12:55:11Z</time>
      </trkpt>
      <trkpt lat="44.14673" lon="7.58669">
        <ele>1908</ele>
        <time>2017-09-17T12:55:12Z</time>
      </trkpt>
      <trkpt lat="44.14669" lon="7.58673">
        <ele>1908</ele>
        <time>2017-09-17T12:55:13Z</time>
      </trkpt>
      <trkpt lat="44.14664" lon="7.58676">
        <ele>1908</ele>
        <time>2017-09-17T12:55:14Z</time>
      </trkpt>
      <trkpt lat="44.14659" lon="7.5868">
        <ele>1908</ele>
        <time>2017-09-17T12:55:15Z</time>
      </trkpt>
      <trkpt lat="44.14654" lon="7.58684">
        <ele>1909</ele>
        <time>2017-09-17T12:55:16Z</time>
      </trkpt>
      <trkpt lat="44.1465" lon="7.58688">
        <ele>1909</ele>
        <time>2017-09-17T12:55:17Z</time>
      </trkpt>
      <trkpt lat="44.14645" lon="7.58692">
        <ele>1909</ele>
        <time>2017-09-17T12:55:18Z</time>
      </trkpt>
      <trkpt lat="44.14641" lon="7.58696">
        <ele>1909</ele>
        <time>2017-09-17T12:55:19Z</time>
      </trkpt>
      <trkpt lat="44.14636" lon="7.587">
        <ele>1909</ele>
        <time>2017-09-17T12:55:20Z</time>
      </trkpt>
      <trkpt lat="44.14632" lon="7.58704">
        <ele>1910</ele>
        <time>2017-09-17T12:55:21Z</time>
      </trkpt>
      <trkpt lat="44.14628" lon="7.58709">
        <ele>1910</ele>
        <time>2017-09-17T12:55:22Z</time>
      </trkpt>
      <trkpt lat="44.14624" lon="7.58714">
        <ele>1910</ele>
        <time>2017-09-17T12:55:23Z</time>
      </trkpt>
      <trkpt lat="44.14621" lon="7.5872">
        <ele>1910</ele>
        <time>2017-09-17T12:55:24Z</time>
      </trkpt>
      <trkpt lat="44.14618" lon="7.58726">
        <ele>1910</ele>
        <time>2017-09-17T12:55:25Z</time>
      </trkpt>
      <trkpt lat="44.14615" lon="7.58733">
        <ele>1910</ele>
        <time>2017-09-17T12:55:26Z</time>
      </trkpt>
      <trkpt lat="44.14613" lon="7.58739">
        <ele>1910</ele>
        <time>2017-09-17T12:55:27Z</time>
      </trkpt>
      <trkpt lat="44.1461" lon="7.58746">
        <ele>1910</ele>
        <time>2017-09-17T12:55:28Z</time>
      </trkpt>
      <trkpt lat="44.14608" lon="7.58752">
        <ele>1911</ele>
        <time>2017-09-17T12:55:29Z</time>
      </trkpt>
      <trkpt lat="44.14606" lon="7.58759">
        <ele>1911</ele>
        <time>2017-09-17T12:55:30Z</time>
      </trkpt>
      <trkpt lat="44.14605" lon="7.58766">
        <ele>1911</ele>
        <time>2017-09-17T12:55:31Z</time>
      </trkpt>
      <trkpt lat="44.14601" lon="7.58773">
        <ele>1911</ele>
        <time>2017-09-17T12:55:32Z</time>
      </trkpt>
      <trkpt lat="44.14597" lon="7.58777">
        <ele>1911</ele>
        <time>2017-09-17T12:55:33Z</time>
      </trkpt>
      <trkpt lat="44.14591" lon="7.5878">
        <ele>1911</ele>
        <time>2017-09-17T12:55:34Z</time>
      </trkpt>
      <trkpt lat="44.14586" lon="7.58781">
        <ele>1911</ele>
        <time>2017-09-17T12:55:35Z</time>
      </trkpt>
      <trkpt lat="44.1458" lon="7.58781">
        <ele>1912</ele>
        <time>2017-09-17T12:55:36Z</time>
      </trkpt>
      <trkpt lat="44.14575" lon="7.58782">
        <ele>1912</ele>
        <time>2017-09-17T12:55:37Z</time>
      </trkpt>
      <trkpt lat="44.1457" lon="7.58783">
        <ele>1912</ele>
        <time>2017-09-17T12:55:38Z</time>
      </trkpt>
      <trkpt lat="44.14565" lon="7.58784">
        <ele>1913</ele>
        <time>2017-09-17T12:55:39Z</time>
      </trkpt>
      <trkpt lat="44.14559" lon="7.58784">
        <ele>1913</ele>
        <time>2017-09-17T12:55:40Z</time>
      </trkpt>
      <trkpt lat="44.14554" lon="7.58785">
        <ele>1913</ele>
        <time>2017-09-17T12:55:41Z</time>
      </trkpt>
      <trkpt lat="44.14548" lon="7.58785">
        <ele>1914</ele>
        <time>2017-09-17T12:55:42Z</time>
      </trkpt>
      <trkpt lat="44.14543" lon="7.58785">
        <ele>1914</ele>
        <time>2017-09-17T12:55:43Z</time>
      </trkpt>
      <trkpt lat="44.14538" lon="7.58786">
        <ele>1914</ele>
        <time>2017-09-17T12:55:44Z</time>
      </trkpt>
      <trkpt lat="44.14533" lon="7.58786">
        <ele>1915</ele>
        <time>2017-09-17T12:55:45Z</time>
      </trkpt>
      <trkpt lat="44.14528" lon="7.58786">
        <ele>1915</ele>
        <time>2017-09-17T12:55:46Z</time>
      </trkpt>
      <trkpt lat="44.14523" lon="7.58786">
        <ele>1915</ele>
        <time>2017-09-17T12:55:47Z</time>
      </trkpt>
      <trkpt lat="44.14518" lon="7.58786">
        <ele>1916</ele>
        <time>2017-09-17T12:55:48Z</time>
      </trkpt>
      <trkpt lat="44.14513" lon="7.58786">
        <ele>1916</ele>
        <time>2017-09-17T12:55:49Z</time>
      </trkpt>
      <trkpt lat="44.14509" lon="7.58786">
        <ele>1917</ele>
        <time>2017-09-17T12:55:50Z</time>
      </trkpt>
      <trkpt lat="44.14504" lon="7.58785">
        <ele>1917</ele>
        <time>2017-09-17T12:55:51Z</time>
      </trkpt>
      <trkpt lat="44.14499" lon="7.58785">
        <ele>1917</ele>
        <time>2017-09-17T12:55:52Z</time>
      </trkpt>
      <trkpt lat="44.14495" lon="7.58785">
        <ele>1918</ele>
        <time>2017-09-17T12:55:53Z</time>
      </trkpt>
      <trkpt lat="44.1449" lon="7.58784">
        <ele>1918</ele>
        <time>2017-09-17T12:55:54Z</time>
      </trkpt>
      <trkpt lat="44.14485" lon="7.58784">
        <ele>1918</ele>
        <time>2017-09-17T12:55:55Z</time>
      </trkpt>
      <trkpt lat="44.14481" lon="7.58784">
        <ele>1919</ele>
        <time>2017-09-17T12:55:56Z</time>
      </trkpt>
      <trkpt lat="44.14476" lon="7.58783">
        <ele>1919</ele>
        <time>2017-09-17T12:55:57Z</time>
      </trkpt>
      <trkpt lat="44.14472" lon="7.58782">
        <ele>1920</ele>
        <time>2017-09-17T12:55:58Z</time>
      </trkpt>
      <trkpt lat="44.14467" lon="7.58782">
        <ele>1920</ele>
        <time>2017-09-17T12:55:59Z</time>
      </trkpt>
      <trkpt lat="44.14463" lon="7.58781">
        <ele>1920</ele>
        <time>2017-09-17T12:56:00Z</time>
      </trkpt>
      <trkpt lat="44.14459" lon="7.58781">
        <ele>1921</ele>
        <time>2017-09-17T12:56:01Z</time>
      </trkpt>
      <trkpt lat="44.14455" lon="7.58781">
        <ele>1921</ele>
        <time>2017-09-17T12:56:02Z</time>
      </trkpt>
      <trkpt lat="44.14451" lon="7.58782">
        <ele>1921</ele>
        <time>2017-09-17T12:56:03Z</time>
      </trkpt>
      <trkpt lat="44.14447" lon="7.58782">
        <ele>1922</ele>
        <time>2017-09-17T12:56:04Z</time>
      </trkpt>
      <trkpt lat="44.14443" lon="7.58781">
        <ele>1922</ele>
        <time>2017-09-17T12:56:05Z</time>
      </trkpt>
      <trkpt lat="44.14439" lon="7.5878">
        <ele>1922</ele>
        <time>2017-09-17T12:56:06Z</time>
      </trkpt>
      <trkpt lat="44.14436" lon="7.58778">
        <ele>1922</ele>
        <time>2017-09-17T12:56:07Z</time>
      </trkpt>
      <trkpt lat="44.14432" lon="7.58775">
        <ele>1922</ele>
        <time>2017-09-17T12:56:08Z</time>
      </trkpt>
      <trkpt lat="44.1443" lon="7.58771">
        <ele>1923</ele>
        <time>2017-09-17T12:56:09Z</time>
      </trkpt>
      <trkpt lat="44.14427" lon="7.58767">
        <ele>1923</ele>
        <time>2017-09-17T12:56:10Z</time>
      </trkpt>
      <trkpt lat="44.14425" lon="7.58763">
        <ele>1923</ele>
        <time>2017-09-17T12:56:11Z</time>
      </trkpt>
      <trkpt lat="44.14422" lon="7.5876">
        <ele>1924</ele>
        <time>2017-09-17T12:56:12Z</time>
      </trkpt>
      <trkpt lat="44.1442" lon="7.58757">
        <ele>1924</ele>
        <time>2017-09-17T12:56:13Z</time>
      </trkpt>
      <trkpt lat="44.14417" lon="7.58753">
        <ele>1925</ele>
        <time>2017-09-17T12:56:14Z</time>
      </trkpt>
      <trkpt lat="44.14414" lon="7.5875">
        <ele>1925</ele>
        <time>2017-09-17T12:56:15Z</time>
      </trkpt>
      <trkpt lat="44.14411" lon="7.58747">
        <ele>1925</ele>
        <time>2017-09-17T12:56:16Z</time>
      </trkpt>
      <trkpt lat="44.14408" lon="7.58744">
        <ele>1925</ele>
        <time>2017-09-17T12:56:17Z</time>
      </trkpt>
      <trkpt lat="44.14405" lon="7.58742">
        <ele>1926</ele>
        <time>2017-09-17T12:56:18Z</time>
      </trkpt>
      <trkpt lat="44.14402" lon="7.58739">
        <ele>1926</ele>
        <time>2017-09-17T12:56:19Z</time>
      </trkpt>
      <trkpt lat="44.14399" lon="7.58736">
        <ele>1926</ele>
        <time>2017-09-17T12:56:20Z</time>
      </trkpt>
      <trkpt lat="44.14396" lon="7.58733">
        <ele>1927</ele>
        <time>2017-09-17T12:56:21Z</time>
      </trkpt>
      <trkpt lat="44.14393" lon="7.5873">
        <ele>1927</ele>
        <time>2017-09-17T12:56:22Z</time>
      </trkpt>
      <trkpt lat="44.1439" lon="7.58728">
        <ele>1927</ele>
        <time>2017-09-17T12:56:23Z</time>
      </trkpt>
      <trkpt lat="44.14388" lon="7.58725">
        <ele>1927</ele>
        <time>2017-09-17T12:56:24Z</time>
      </trkpt>
      <trkpt lat="44.14385" lon="7.58723">
        <ele>1928</ele>
        <time>2017-09-17T12:56:25Z</time>
      </trkpt>
      <trkpt lat="44.14382" lon="7.58721">
        <ele>1928</ele>
        <time>2017-09-17T12:56:26Z</time>
      </trkpt>
      <trkpt lat="44.14379" lon="7.58719">
        <ele>1928</ele>
        <time>2017-09-17T12:56:27Z</time>
      </trkpt>
      <trkpt lat="44.14376" lon="7.58716">
        <ele>1929</ele>
        <time>2017-09-17T12:56:28Z</time>
      </trkpt>
      <trkpt lat="44.14373" lon="7.58714">
        <ele>1929</ele>
        <time>2017-09-17T12:56:29Z</time>
      </trkpt>
      <trkpt lat="44.1437" lon="7.58712">
        <ele>1929</ele>
        <time>2017-09-17T12:56:30Z</time>
      </trkpt>
      <trkpt lat="44.14367" lon="7.58709">
        <ele>1929</ele>
        <time>2017-09-17T12:56:31Z</time>
      </trkpt>
      <trkpt lat="44.14364" lon="7.58707">
        <ele>1930</ele>
        <time>2017-09-17T12:56:32Z</time>
      </trkpt>
      <trkpt lat="44.14361" lon="7.58705">
        <ele>1930</ele>
        <time>2017-09-17T12:56:33Z</time>
      </trkpt>
      <trkpt lat="44.14358" lon="7.58702">
        <ele>1930</ele>
        <time>2017-09-17T12:56:34Z</time>
      </trkpt>
      <trkpt lat="44.14354" lon="7.587">
        <ele>1931</ele>
        <time>2017-09-17T12:56:35Z</time>
      </trkpt>
      <trkpt lat="44.14351" lon="7.58699">
        <ele>1931</ele>
        <time>2017-09-17T12:56:36Z</time>
      </trkpt>
      <trkpt lat="44.14348" lon="7.58697">
        <ele>1931</ele>
        <time>2017-09-17T12:56:37Z</time>
      </trkpt>
      <trkpt lat="44.14345" lon="7.58695">
        <ele>1931</ele>
        <time>2017-09-17T12:56:38Z</time>
      </trkpt>
      <trkpt lat="44.14342" lon="7.58693">
        <ele>1932</ele>
        <time>2017-09-17T12:56:39Z</time>
      </trkpt>
      <trkpt lat="44.14338" lon="7.58691">
        <ele>1932</ele>
        <time>2017-09-17T12:56:40Z</time>
      </trkpt>
      <trkpt lat="44.14335" lon="7.58689">
        <ele>1932</ele>
        <time>2017-09-17T12:56:41Z</time>
      </trkpt>
      <trkpt lat="44.14332" lon="7.58686">
        <ele>1933</ele>
        <time>2017-09-17T12:56:42Z</time>
      </trkpt>
      <trkpt lat="44.14329" lon="7.58684">
        <ele>1933</ele>
        <time>2017-09-17T12:56:43Z</time>
      </trkpt>
      <trkpt lat="44.14326" lon="7.58682">
        <ele>1933</ele>
        <time>2017-09-17T12:56:44Z</time>
      </trkpt>
      <trkpt lat="44.14322" lon="7.58679">
        <ele>1933</ele>
        <time>2017-09-17T12:56:45Z</time>
      </trkpt>
      <trkpt lat="44.14319" lon="7.58677">
        <ele>1934</ele>
        <time>2017-09-17T12:56:46Z</time>
      </trkpt>
      <trkpt lat="44.14316" lon="7.58674">
        <ele>1934</ele>
        <time>2017-09-17T12:56:47Z</time>
      </trkpt>
      <trkpt lat="44.14313" lon="7.58671">
        <ele>1934</ele>
        <time>2017-09-17T12:56:48Z</time>
      </trkpt>
      <trkpt lat="44.14309" lon="7.58669">
        <ele>1934</ele>
        <time>2017-09-17T12:56:49Z</time>
      </trkpt>
      <trkpt lat="44.14306" lon="7.58667">
        <ele>1935</ele>
        <time>2017-09-17T12:56:50Z</time>
      </trkpt>
      <trkpt lat="44.14303" lon="7.58665">
        <ele>1935</ele>
        <time>2017-09-17T12:56:51Z</time>
      </trkpt>
      <trkpt lat="44.14299" lon="7.58665">
        <ele>1935</ele>
        <time>2017-09-17T12:56:52Z</time>
      </trkpt>
      <trkpt lat="44.14295" lon="7.58664">
        <ele>1936</ele>
        <time>2017-09-17T12:56:53Z</time>
      </trkpt>
      <trkpt lat="44.14292" lon="7.58663">
        <ele>1936</ele>
        <time>2017-09-17T12:56:54Z</time>
      </trkpt>
      <trkpt lat="44.14288" lon="7.58663">
        <ele>1936</ele>
        <time>2017-09-17T12:56:55Z</time>
      </trkpt>
      <trkpt lat="44.14284" lon="7.58664">
        <ele>1937</ele>
        <time>2017-09-17T12:56:56Z</time>
      </trkpt>
      <trkpt lat="44.14281" lon="7.58664">
        <ele>1937</ele>
        <time>2017-09-17T12:56:57Z</time>
      </trkpt>
      <trkpt lat="44.14277" lon="7.58665">
        <ele>1937</ele>
        <time>2017-09-17T12:56:58Z</time>
      </trkpt>
      <trkpt lat="44.14274" lon="7.58667">
        <ele>1938</ele>
        <time>2017-09-17T12:56:59Z</time>
      </trkpt>
      <trkpt lat="44.14271" lon="7.5867">
        <ele>1938</ele>
        <time>2017-09-17T12:57:00Z</time>
      </trkpt>
      <trkpt lat="44.14268" lon="7.58673">
        <ele>1938</ele>
        <time>2017-09-17T12:57:01Z</time>
      </trkpt>
      <trkpt lat="44.14265" lon="7.58677">
        <ele>1939</ele>
        <time>2017-09-17T12:57:02Z</time>
      </trkpt>
      <trkpt lat="44.14263" lon="7.58681">
        <ele>1939</ele>
        <time>2017-09-17T12:57:03Z</time>
      </trkpt>
      <trkpt lat="44.1426" lon="7.58685">
        <ele>1939</ele>
        <time>2017-09-17T12:57:04Z</time>
      </trkpt>
      <trkpt lat="44.14258" lon="7.58689">
        <ele>1940</ele>
        <time>2017-09-17T12:57:05Z</time>
      </trkpt>
      <trkpt lat="44.14256" lon="7.58693">
        <ele>1940</ele>
        <time>2017-09-17T12:57:06Z</time>
      </trkpt>
      <trkpt lat="44.14254" lon="7.58697">
        <ele>1940</ele>
        <time>2017-09-17T12:57:07Z</time>
      </trkpt>
      <trkpt lat="44.14252" lon="7.58701">
        <ele>1941</ele>
        <time>2017-09-17T12:57:08Z</time>
      </trkpt>
      <trkpt lat="44.1425" lon="7.58705">
        <ele>1941</ele>
        <time>2017-09-17T12:57:09Z</time>
      </trkpt>
      <trkpt lat="44.14248" lon="7.58709">
        <ele>1941</ele>
        <time>2017-09-17T12:57:10Z</time>
      </trkpt>
      <trkpt lat="44.14245" lon="7.58713">
        <ele>1941</ele>
        <time>2017-09-17T12:57:11Z</time>
      </trkpt>
      <trkpt lat="44.14243" lon="7.58716">
        <ele>1941</ele>
        <time>2017-09-17T12:57:12Z</time>
      </trkpt>
      <trkpt lat="44.1424" lon="7.58719">
        <ele>1942</ele>
        <time>2017-09-17T12:57:13Z</time>
      </trkpt>
      <trkpt lat="44.14237" lon="7.58722">
        <ele>1942</ele>
        <time>2017-09-17T12:57:14Z</time>
      </trkpt>
      <trkpt lat="44.14234" lon="7.58724">
        <ele>1942</ele>
        <time>2017-09-17T12:57:15Z</time>
      </trkpt>
      <trkpt lat="44.1423" lon="7.58726">
        <ele>1942</ele>
        <time>2017-09-17T12:57:16Z</time>
      </trkpt>
      <trkpt lat="44.14226" lon="7.58727">
        <ele>1942</ele>
        <time>2017-09-17T12:57:17Z</time>
      </trkpt>
      <trkpt lat="44.14222" lon="7.58729">
        <ele>1942</ele>
        <time>2017-09-17T12:57:18Z</time>
      </trkpt>
      <trkpt lat="44.14219" lon="7.58729">
        <ele>1943</ele>
        <time>2017-09-17T12:57:19Z</time>
      </trkpt>
      <trkpt lat="44.14215" lon="7.5873">
        <ele>1943</ele>
        <time>2017-09-17T12:57:20Z</time>
      </trkpt>
      <trkpt lat="44.14211" lon="7.5873">
        <ele>1943</ele>
        <time>2017-09-17T12:57:21Z</time>
      </trkpt>
      <trkpt lat="44.14208" lon="7.58731">
        <ele>1943</ele>
        <time>2017-09-17T12:57:22Z</time>
      </trkpt>
      <trkpt lat="44.14204" lon="7.58733">
        <ele>1944</ele>
        <time>2017-09-17T12:57:23Z</time>
      </trkpt>
      <trkpt lat="44.142" lon="7.58734">
        <ele>1944</ele>
        <time>2017-09-17T12:57:24Z</time>
      </trkpt>
      <trkpt lat="44.14197" lon="7.58735">
        <ele>1944</ele>
        <time>2017-09-17T12:57:25Z</time>
      </trkpt>
      <trkpt lat="44.14193" lon="7.58736">
        <ele>1944</ele>
        <time>2017-09-17T12:57:26Z</time>
      </trkpt>
      <trkpt lat="44.14189" lon="7.58738">
        <ele>1945</ele>
        <time>2017-09-17T12:57:27Z</time>
      </trkpt>
      <trkpt lat="44.14186" lon="7.58739">
        <ele>1945</ele>
        <time>2017-09-17T12:57:28Z</time>
      </trkpt>
      <trkpt lat="44.14182" lon="7.5874">
        <ele>1945</ele>
        <time>2017-09-17T12:57:29Z</time>
      </trkpt>
      <trkpt lat="44.14178" lon="7.58741">
        <ele>1945</ele>
        <time>2017-09-17T12:57:30Z</time>
      </trkpt>
      <trkpt lat="44.14175" lon="7.58741">
        <ele>1946</ele>
        <time>2017-09-17T12:57:31Z</time>
      </trkpt>
      <trkpt lat="44.14172" lon="7.58741">
        <ele>1946</ele>
        <time>2017-09-17T12:57:32Z</time>
      </trkpt>
      <trkpt lat="44.1417" lon="7.58742">
        <ele>1946</ele>
        <time>2017-09-17T12:57:33Z</time>
      </trkpt>
      <trkpt lat="44.1417" lon="7.58742">
        <ele>1946</ele>
        <time>2017-09-17T12:57:34Z</time>
      </trkpt>
      <trkpt lat="44.1417" lon="7.58742">
        <ele>1946</ele>
        <time>2017-09-17T12:57:35Z</time>
      </trkpt>
      <trkpt lat="44.1417" lon="7.58742">
        <ele>1946</ele>
        <time>2017-09-17T12:57:36Z</time>
      </trkpt>
      <trkpt lat="44.1417" lon="7.58742">
        <ele>1946</ele>
        <time>2017-09-17T12:57:37Z</time>
      </trkpt>
      <trkpt lat="44.1417" lon="7.58742">
        <ele>1946</ele>
        <time>2017-09-17T12:57:38Z</time>
      </trkpt>
      <trkpt lat="44.1417" lon="7.58742">
        <ele>1946</ele>
        <time>2017-09-17T12:57:39Z</time>
      </trkpt>
      <trkpt lat="44.1417" lon="7.58742">
        <ele>1946</ele>
        <time>2017-09-17T12:57:40Z</time>
      </trkpt>
      <trkpt lat="44.1417" lon="7.58742">
        <ele>1946</ele>
        <time>2017-09-17T12:57:41Z</time>
      </trkpt>
      <trkpt lat="44.1417" lon="7.58742">
        <ele>1946</ele>
        <time>2017-09-17T12:57:42Z</time>
      </trkpt>
      <trkpt lat="44.1417" lon="7.58742">
        <ele>1946</ele>
        <time>2017-09-17T12:57:43Z</time>
      </trkpt>
      <trkpt lat="44.1417" lon="7.58742">
        <ele>1946</ele>
        <time>2017-09-17T12:57:44Z</time>
      </trkpt>
      <trkpt lat="44.1417" lon="7.58742">
        <ele>1947</ele>
        <time>2017-09-17T12:57:45Z</time>
      </trkpt>
      <trkpt lat="44.1417" lon="7.58742">
        <ele>1947</ele>
        <time>2017-09-17T12:57:46Z</time>
      </trkpt>
      <trkpt lat="44.1417" lon="7.58742">
        <ele>1947</ele>
        <time>2017-09-17T12:57:47Z</time>
      </trkpt>
      <trkpt lat="44.1417" lon="7.58742">
        <ele>1947</ele>
        <time>2017-09-17T12:57:48Z</time>
      </trkpt>
      <trkpt lat="44.1417" lon="7.58742">
        <ele>1947</ele>
        <time>2017-09-17T12:57:49Z</time>
      </trkpt>
      <trkpt lat="44.1417" lon="7.58742">
        <ele>1947</ele>
        <time>2017-09-17T12:57:50Z</time>
      </trkpt>
      <trkpt lat="44.1417" lon="7.58742">
        <ele>1947</ele>
        <time>2017-09-17T12:57:51Z</time>
      </trkpt>
      <trkpt lat="44.1417" lon="7.58742">
        <ele>1947</ele>
        <time>2017-09-17T12:57:52Z</time>
      </trkpt>
      <trkpt lat="44.1417" lon="7.58742">
        <ele>1947</ele>
        <time>2017-09-17T12:57:53Z</time>
      </trkpt>
      <trkpt lat="44.14169" lon="7.58742">
        <ele>1947</ele>
        <time>2017-09-17T12:57:54Z</time>
      </trkpt>
      <trkpt lat="44.14169" lon="7.58742">
        <ele>1947</ele>
        <time>2017-09-17T12:57:55Z</time>
      </trkpt>
      <trkpt lat="44.14169" lon="7.58742">
        <ele>1947</ele>
        <time>2017-09-17T12:57:56Z</time>
      </trkpt>
      <trkpt lat="44.14169" lon="7.58742">
        <ele>1947</ele>
        <time>2017-09-17T12:57:57Z</time>
      </trkpt>
      <trkpt lat="44.14169" lon="7.58742">
        <ele>1947</ele>
        <time>2017-09-17T12:57:58Z</time>
      </trkpt>
      <trkpt lat="44.14169" lon="7.58742">
        <ele>1947</ele>
        <time>2017-09-17T12:57:59Z</time>
      </trkpt>
      <trkpt lat="44.14169" lon="7.58742">
        <ele>1947</ele>
        <time>2017-09-17T12:58:00Z</time>
      </trkpt>
      <trkpt lat="44.14169" lon="7.58742">
        <ele>1947</ele>
        <time>2017-09-17T12:58:01Z</time>
      </trkpt>
      <trkpt lat="44.14169" lon="7.58742">
        <ele>1947</ele>
        <time>2017-09-17T12:58:02Z</time>
      </trkpt>
      <trkpt lat="44.14169" lon="7.58742">
        <ele>1947</ele>
        <time>2017-09-17T12:58:03Z</time>
      </trkpt>
      <trkpt lat="44.14169" lon="7.58742">
        <ele>1947</ele>
        <time>2017-09-17T12:58:04Z</time>
      </trkpt>
      <trkpt lat="44.14169" lon="7.58742">
        <ele>1947</ele>
        <time>2017-09-17T12:58:05Z</time>
      </trkpt>
      <trkpt lat="44.14169" lon="7.58742">
        <ele>1947</ele>
        <time>2017-09-17T12:58:06Z</time>
      </trkpt>
      <trkpt lat="44.14169" lon="7.58742">
        <ele>1947</ele>
        <time>2017-09-17T12:58:07Z</time>
      </trkpt>
      <trkpt lat="44.14169" lon="7.58742">
        <ele>1947</ele>
        <time>2017-09-17T12:58:08Z</time>
      </trkpt>
      <trkpt lat="44.14169" lon="7.58742">
        <ele>1947</ele>
        <time>2017-09-17T12:58:09Z</time>
      </trkpt>
      <trkpt lat="44.14169" lon="7.58742">
        <ele>1947</ele>
        <time>2017-09-17T12:58:10Z</time>
      </trkpt>
      <trkpt lat="44.14169" lon="7.58742">
        <ele>1947</ele>
        <time>2017-09-17T12:58:11Z</time>
      </trkpt>
      <trkpt lat="44.14169" lon="7.58742">
        <ele>1947</ele>
        <time>2017-09-17T12:58:12Z</time>
      </trkpt>
      <trkpt lat="44.14169" lon="7.58742">
        <ele>1947</ele>
        <time>2017-09-17T12:58:13Z</time>
      </trkpt>
      <trkpt lat="44.14169" lon="7.58742">
        <ele>1947</ele>
        <time>2017-09-17T12:58:14Z</time>
      </trkpt>
      <trkpt lat="44.14169" lon="7.58742">
        <ele>1947</ele>
        <time>2017-09-17T12:58:15Z</time>
      </trkpt>
      <trkpt lat="44.14169" lon="7.58742">
        <ele>1947</ele>
        <time>2017-09-17T12:58:16Z</time>
      </trkpt>
      <trkpt lat="44.14169" lon="7.58742">
        <ele>1947</ele>
        <time>2017-09-17T12:58:17Z</time>
      </trkpt>
      <trkpt lat="44.14169" lon="7.58742">
        <ele>1947</ele>
        <time>2017-09-17T12:58:18Z</time>
      </trkpt>
      <trkpt lat="44.14169" lon="7.58742">
        <ele>1947</ele>
        <time>2017-09-17T12:58:19Z</time>
      </trkpt>
      <trkpt lat="44.14169" lon="7.58742">
        <ele>1947</ele>
        <time>2017-09-17T12:58:20Z</time>
      </trkpt>
      <trkpt lat="44.14169" lon="7.58742">
        <ele>1947</ele>
        <time>2017-09-17T12:58:21Z</time>
      </trkpt>
      <trkpt lat="44.14169" lon="7.58742">
        <ele>1947</ele>
        <time>2017-09-17T12:58:22Z</time>
      </trkpt>
      <trkpt lat="44.14169" lon="7.58742">
        <ele>1947</ele>
        <time>2017-09-17T12:58:23Z</time>
      </trkpt>
      <trkpt lat="44.14169" lon="7.58742">
        <ele>1947</ele>
        <time>2017-09-17T12:58:24Z</time>
      </trkpt>
      <trkpt lat="44.14169" lon="7.58742">
        <ele>1947</ele>
        <time>2017-09-17T12:58:25Z</time>
      </trkpt>
      <trkpt lat="44.14169" lon="7.58742">
        <ele>1947</ele>
        <time>2017-09-17T12:58:26Z</time>
      </trkpt>
      <trkpt lat="44.14169" lon="7.58742">
        <ele>1947</ele>
        <time>2017-09-17T12:58:27Z</time>
      </trkpt>
      <trkpt lat="44.14169" lon="7.58742">
        <ele>1947</ele>
        <time>2017-09-17T12:58:28Z</time>
      </trkpt>
      <trkpt lat="44.14169" lon="7.58742">
        <ele>1947</ele>
        <time>2017-09-17T12:58:29Z</time>
      </trkpt>
      <trkpt lat="44.14169" lon="7.58742">
        <ele>1947</ele>
        <time>2017-09-17T12:58:30Z</time>
      </trkpt>
      <trkpt lat="44.14169" lon="7.58742">
        <ele>1947</ele>
        <time>2017-09-17T12:58:31Z</time>
      </trkpt>
      <trkpt lat="44.14169" lon="7.58742">
        <ele>1947</ele>
        <time>2017-09-17T12:58:32Z</time>
      </trkpt>
      <trkpt lat="44.14169" lon="7.58742">
        <ele>1947</ele>
        <time>2017-09-17T12:58:33Z</time>
      </trkpt>
      <trkpt lat="44.14169" lon="7.58742">
        <ele>1947</ele>
        <time>2017-09-17T12:58:34Z</time>
      </trkpt>
      <trkpt lat="44.14169" lon="7.58742">
        <ele>1947</ele>
        <time>2017-09-17T12:58:35Z</time>
      </trkpt>
      <trkpt lat="44.14169" lon="7.58742">
        <ele>1947</ele>
        <time>2017-09-17T12:58:36Z</time>
      </trkpt>
      <trkpt lat="44.14169" lon="7.58742">
        <ele>1947</ele>
        <time>2017-09-17T12:58:37Z</time>
      </trkpt>
      <trkpt lat="44.14169" lon="7.58742">
        <ele>1947</ele>
        <time>2017-09-17T12:58:38Z</time>
      </trkpt>
      <trkpt lat="44.14169" lon="7.58742">
        <ele>1947</ele>
        <time>2017-09-17T12:58:39Z</time>
      </trkpt>
      <trkpt lat="44.14169" lon="7.58742">
        <ele>1947</ele>
        <time>2017-09-17T12:58:40Z</time>
      </trkpt>
      <trkpt lat="44.14169" lon="7.58742">
        <ele>1947</ele>
        <time>2017-09-17T12:58:41Z</time>
      </trkpt>
      <trkpt lat="44.14169" lon="7.58742">
        <ele>1947</ele>
        <time>2017-09-17T12:58:42Z</time>
      </trkpt>
      <trkpt lat="44.14169" lon="7.58742">
        <ele>1947</ele>
        <time>2017-09-17T12:58:43Z</time>
      </trkpt>
      <trkpt lat="44.14169" lon="7.58742">
        <ele>1947</ele>
        <time>2017-09-17T12:58:44Z</time>
      </trkpt>
      <trkpt lat="44.14169" lon="7.58742">
        <ele>1947</ele>
        <time>2017-09-17T12:58:45Z</time>
      </trkpt>
      <trkpt lat="44.14169" lon="7.58742">
        <ele>1947</ele>
        <time>2017-09-17T12:58:46Z</time>
      </trkpt>
      <trkpt lat="44.14169" lon="7.58742">
        <ele>1947</ele>
        <time>2017-09-17T12:58:47Z</time>
      </trkpt>
      <trkpt lat="44.14169" lon="7.58742">
        <ele>1947</ele>
        <time>2017-09-17T12:58:48Z</time>
      </trkpt>
      <trkpt lat="44.14169" lon="7.58742">
        <ele>1947</ele>
        <time>2017-09-17T12:58:49Z</time>
      </trkpt>
      <trkpt lat="44.14169" lon="7.58742">
        <ele>1947</ele>
        <time>2017-09-17T12:58:50Z</time>
      </trkpt>
      <trkpt lat="44.14169" lon="7.58742">
        <ele>1947</ele>
        <time>2017-09-17T12:58:51Z</time>
      </trkpt>
      <trkpt lat="44.14169" lon="7.58742">
        <ele>1947</ele>
        <time>2017-09-17T12:58:52Z</time>
      </trkpt>
      <trkpt lat="44.14169" lon="7.58742">
        <ele>1947</ele>
        <time>2017-09-17T12:58:53Z</time>
      </trkpt>
      <trkpt lat="44.14169" lon="7.58742">
        <ele>1947</ele>
        <time>2017-09-17T12:58:54Z</time>
      </trkpt>
      <trkpt lat="44.14169" lon="7.58742">
        <ele>1947</ele>
        <time>2017-09-17T12:58:55Z</time>
      </trkpt>
      <trkpt lat="44.14169" lon="7.58742">
        <ele>1947</ele>
        <time>2017-09-17T12:58:56Z</time>
      </trkpt>
      <trkpt lat="44.14169" lon="7.58742">
        <ele>1947</ele>
        <time>2017-09-17T12:58:57Z</time>
      </trkpt>
      <trkpt lat="44.14169" lon="7.58742">
        <ele>1947</ele>
        <time>2017-09-17T12:58:58Z</time>
      </trkpt>
      <trkpt lat="44.14169" lon="7.58742">
        <ele>1947</ele>
        <time>2017-09-17T12:58:59Z</time>
      </trkpt>
      <trkpt lat="44.14169" lon="7.58742">
        <ele>1947</ele>
        <time>2017-09-17T12:59:00Z</time>
      </trkpt>
      <trkpt lat="44.14169" lon="7.58742">
        <ele>1947</ele>
        <time>2017-09-17T12:59:01Z</time>
      </trkpt>
      <trkpt lat="44.14169" lon="7.58742">
        <ele>1947</ele>
        <time>2017-09-17T12:59:02Z</time>
      </trkpt>
      <trkpt lat="44.14169" lon="7.58742">
        <ele>1947</ele>
        <time>2017-09-17T12:59:03Z</time>
      </trkpt>
      <trkpt lat="44.14169" lon="7.58742">
        <ele>1947</ele>
        <time>2017-09-17T12:59:04Z</time>
      </trkpt>
      <trkpt lat="44.14169" lon="7.58742">
        <ele>1947</ele>
        <time>2017-09-17T12:59:05Z</time>
      </trkpt>
      <trkpt lat="44.14169" lon="7.58742">
        <ele>1947</ele>
        <time>2017-09-17T12:59:06Z</time>
      </trkpt>
      <trkpt lat="44.14169" lon="7.58742">
        <ele>1947</ele>
        <time>2017-09-17T12:59:07Z</time>
      </trkpt>
      <trkpt lat="44.14169" lon="7.58742">
        <ele>1947</ele>
        <time>2017-09-17T12:59:08Z</time>
      </trkpt>
      <trkpt lat="44.14169" lon="7.58742">
        <ele>1947</ele>
        <time>2017-09-17T12:59:09Z</time>
      </trkpt>
      <trkpt lat="44.14169" lon="7.58742">
        <ele>1947</ele>
        <time>2017-09-17T12:59:10Z</time>
      </trkpt>
      <trkpt lat="44.14169" lon="7.58742">
        <ele>1947</ele>
        <time>2017-09-17T12:59:11Z</time>
      </trkpt>
      <trkpt lat="44.14169" lon="7.58742">
        <ele>1947</ele>
        <time>2017-09-17T12:59:12Z</time>
      </trkpt>
      <trkpt lat="44.14169" lon="7.58742">
        <ele>1947</ele>
        <time>2017-09-17T12:59:13Z</time>
      </trkpt>
      <trkpt lat="44.14169" lon="7.58742">
        <ele>1947</ele>
        <time>2017-09-17T12:59:14Z</time>
      </trkpt>
      <trkpt lat="44.14169" lon="7.58742">
        <ele>1947</ele>
        <time>2017-09-17T12:59:15Z</time>
      </trkpt>
      <trkpt lat="44.14169" lon="7.58742">
        <ele>1947</ele>
        <time>2017-09-17T12:59:16Z</time>
      </trkpt>
      <trkpt lat="44.14169" lon="7.58742">
        <ele>1947</ele>
        <time>2017-09-17T12:59:17Z</time>
      </trkpt>
      <trkpt lat="44.14169" lon="7.58742">
        <ele>1947</ele>
        <time>2017-09-17T12:59:18Z</time>
      </trkpt>
      <trkpt lat="44.14169" lon="7.58742">
        <ele>1947</ele>
        <time>2017-09-17T12:59:19Z</time>
      </trkpt>
      <trkpt lat="44.14169" lon="7.58742">
        <ele>1947</ele>
        <time>2017-09-17T12:59:20Z</time>
      </trkpt>
      <trkpt lat="44.14169" lon="7.58742">
        <ele>1947</ele>
        <time>2017-09-17T12:59:21Z</time>
      </trkpt>
      <trkpt lat="44.14169" lon="7.58742">
        <ele>1947</ele>
        <time>2017-09-17T12:59:22Z</time>
      </trkpt>
      <trkpt lat="44.14169" lon="7.58742">
        <ele>1947</ele>
        <time>2017-09-17T12:59:23Z</time>
      </trkpt>
      <trkpt lat="44.14169" lon="7.58742">
        <ele>1947</ele>
        <time>2017-09-17T12:59:24Z</time>
      </trkpt>
      <trkpt lat="44.14169" lon="7.58742">
        <ele>1947</ele>
        <time>2017-09-17T12:59:25Z</time>
      </trkpt>
      <trkpt lat="44.14169" lon="7.58742">
        <ele>1947</ele>
        <time>2017-09-17T12:59:26Z</time>
      </trkpt>
      <trkpt lat="44.14169" lon="7.58742">
        <ele>1947</ele>
        <time>2017-09-17T12:59:27Z</time>
      </trkpt>
      <trkpt lat="44.14169" lon="7.58742">
        <ele>1947</ele>
        <time>2017-09-17T12:59:28Z</time>
      </trkpt>
      <trkpt lat="44.14169" lon="7.58742">
        <ele>1947</ele>
        <time>2017-09-17T12:59:29Z</time>
      </trkpt>
      <trkpt lat="44.14169" lon="7.58742">
        <ele>1947</ele>
        <time>2017-09-17T12:59:30Z</time>
      </trkpt>
      <trkpt lat="44.14169" lon="7.58742">
        <ele>1947</ele>
        <time>2017-09-17T12:59:31Z</time>
      </trkpt>
      <trkpt lat="44.14169" lon="7.58742">
        <ele>1947</ele>
        <time>2017-09-17T12:59:32Z</time>
      </trkpt>
      <trkpt lat="44.14169" lon="7.58742">
        <ele>1947</ele>
        <time>2017-09-17T12:59:33Z</time>
      </trkpt>
      <trkpt lat="44.14169" lon="7.58742">
        <ele>1947</ele>
        <time>2017-09-17T12:59:34Z</time>
      </trkpt>
      <trkpt lat="44.14169" lon="7.58742">
        <ele>1947</ele>
        <time>2017-09-17T12:59:35Z</time>
      </trkpt>
      <trkpt lat="44.14169" lon="7.58742">
        <ele>1947</ele>
        <time>2017-09-17T12:59:36Z</time>
      </trkpt>
      <trkpt lat="44.14169" lon="7.58742">
        <ele>1947</ele>
        <time>2017-09-17T12:59:37Z</time>
      </trkpt>
      <trkpt lat="44.14169" lon="7.58742">
        <ele>1947</ele>
        <time>2017-09-17T12:59:38Z</time>
      </trkpt>
      <trkpt lat="44.14169" lon="7.58742">
        <ele>1947</ele>
        <time>2017-09-17T12:59:39Z</time>
      </trkpt>
      <trkpt lat="44.14169" lon="7.58742">
        <ele>1947</ele>
        <time>2017-09-17T12:59:40Z</time>
      </trkpt>
      <trkpt lat="44.14169" lon="7.58742">
        <ele>1947</ele>
        <time>2017-09-17T12:59:41Z</time>
      </trkpt>
      <trkpt lat="44.14169" lon="7.58742">
        <ele>1947</ele>
        <time>2017-09-17T12:59:42Z</time>
      </trkpt>
      <trkpt lat="44.14169" lon="7.58742">
        <ele>1947</ele>
        <time>2017-09-17T12:59:43Z</time>
      </trkpt>
      <trkpt lat="44.14169" lon="7.58742">
        <ele>1947</ele>
        <time>2017-09-17T12:59:44Z</time>
      </trkpt>
      <trkpt lat="44.14169" lon="7.58742">
        <ele>1947</ele>
        <time>2017-09-17T12:59:45Z</time>
      </trkpt>
      <trkpt lat="44.14169" lon="7.58742">
        <ele>1947</ele>
        <time>2017-09-17T12:59:46Z</time>
      </trkpt>
      <trkpt lat="44.14169" lon="7.58742">
        <ele>1947</ele>
        <time>2017-09-17T12:59:47Z</time>
      </trkpt>
      <trkpt lat="44.14169" lon="7.58742">
        <ele>1947</ele>
        <time>2017-09-17T12:59:48Z</time>
      </trkpt>
      <trkpt lat="44.14169" lon="7.58742">
        <ele>1947</ele>
        <time>2017-09-17T12:59:49Z</time>
      </trkpt>
      <trkpt lat="44.14169" lon="7.58742">
        <ele>1947</ele>
        <time>2017-09-17T12:59:50Z</time>
      </trkpt>
      <trkpt lat="44.14169" lon="7.58742">
        <ele>1947</ele>
        <time>2017-09-17T12:59:51Z</time>
      </trkpt>
      <trkpt lat="44.14169" lon="7.58742">
        <ele>1947</ele>
        <time>2017-09-17T12:59:52Z</time>
      </trkpt>
      <trkpt lat="44.14169" lon="7.58742">
        <ele>1947</ele>
        <time>2017-09-17T12:59:53Z</time>
      </trkpt>
      <trkpt lat="44.14169" lon="7.58742">
        <ele>1947</ele>
        <time>2017-09-17T12:59:54Z</time>
      </trkpt>
      <trkpt lat="44.14169" lon="7.58742">
        <ele>1947</ele>
        <time>2017-09-17T12:59:55Z</time>
      </trkpt>
      <trkpt lat="44.14169" lon="7.58742">
        <ele>1947</ele>
        <time>2017-09-17T12:59:56Z</time>
      </trkpt>
      <trkpt lat="44.14169" lon="7.58742">
        <ele>1947</ele>
        <time>2017-09-17T12:59:57Z</time>
      </trkpt>
      <trkpt lat="44.14169" lon="7.58742">
        <ele>1947</ele>
        <time>2017-09-17T12:59:58Z</time>
      </trkpt>
      <trkpt lat="44.14169" lon="7.58742">
        <ele>1947</ele>
        <time>2017-09-17T12:59:59Z</time>
      </trkpt>
      <trkpt lat="44.14169" lon="7.58742">
        <ele>1947</ele>
        <time>2017-09-17T13:00:00Z</time>
      </trkpt>
      <trkpt lat="44.14169" lon="7.58742">
        <ele>1946</ele>
        <time>2017-09-17T13:00:01Z</time>
      </trkpt>
      <trkpt lat="44.14169" lon="7.58742">
        <ele>1946</ele>
        <time>2017-09-17T13:00:02Z</time>
      </trkpt>
      <trkpt lat="44.14169" lon="7.58742">
        <ele>1946</ele>
        <time>2017-09-17T13:00:03Z</time>
      </trkpt>
      <trkpt lat="44.14169" lon="7.58742">
        <ele>1946</ele>
        <time>2017-09-17T13:00:04Z</time>
      </trkpt>
      <trkpt lat="44.14169" lon="7.58742">
        <ele>1946</ele>
        <time>2017-09-17T13:00:05Z</time>
      </trkpt>
      <trkpt lat="44.14169" lon="7.58742">
        <ele>1946</ele>
        <time>2017-09-17T13:00:06Z</time>
      </trkpt>
      <trkpt lat="44.14169" lon="7.58742">
        <ele>1946</ele>
        <time>2017-09-17T13:00:07Z</time>
      </trkpt>
      <trkpt lat="44.14169" lon="7.58742">
        <ele>1946</ele>
        <time>2017-09-17T13:00:08Z</time>
      </trkpt>
      <trkpt lat="44.14169" lon="7.58742">
        <ele>1946</ele>
        <time>2017-09-17T13:00:09Z</time>
      </trkpt>
      <trkpt lat="44.14169" lon="7.58742">
        <ele>1946</ele>
        <time>2017-09-17T13:00:10Z</time>
      </trkpt>
      <trkpt lat="44.14169" lon="7.58742">
        <ele>1946</ele>
        <time>2017-09-17T13:00:11Z</time>
      </trkpt>
      <trkpt lat="44.14169" lon="7.58742">
        <ele>1946</ele>
        <time>2017-09-17T13:00:12Z</time>
      </trkpt>
      <trkpt lat="44.14169" lon="7.58742">
        <ele>1946</ele>
        <time>2017-09-17T13:00:13Z</time>
      </trkpt>
      <trkpt lat="44.14169" lon="7.58742">
        <ele>1946</ele>
        <time>2017-09-17T13:00:14Z</time>
      </trkpt>
      <trkpt lat="44.14169" lon="7.58742">
        <ele>1946</ele>
        <time>2017-09-17T13:00:15Z</time>
      </trkpt>
      <trkpt lat="44.14169" lon="7.58742">
        <ele>1946</ele>
        <time>2017-09-17T13:00:16Z</time>
      </trkpt>
      <trkpt lat="44.14169" lon="7.58742">
        <ele>1946</ele>
        <time>2017-09-17T13:00:17Z</time>
      </trkpt>
      <trkpt lat="44.14169" lon="7.58742">
        <ele>1946</ele>
        <time>2017-09-17T13:00:18Z</time>
      </trkpt>
      <trkpt lat="44.14169" lon="7.58742">
        <ele>1946</ele>
        <time>2017-09-17T13:00:19Z</time>
      </trkpt>
      <trkpt lat="44.14169" lon="7.58742">
        <ele>1946</ele>
        <time>2017-09-17T13:00:20Z</time>
      </trkpt>
      <trkpt lat="44.14169" lon="7.58742">
        <ele>1946</ele>
        <time>2017-09-17T13:00:21Z</time>
      </trkpt>
      <trkpt lat="44.14169" lon="7.58742">
        <ele>1946</ele>
        <time>2017-09-17T13:00:22Z</time>
      </trkpt>
      <trkpt lat="44.14169" lon="7.58742">
        <ele>1946</ele>
        <time>2017-09-17T13:00:23Z</time>
      </trkpt>
      <trkpt lat="44.14169" lon="7.58742">
        <ele>1946</ele>
        <time>2017-09-17T13:00:24Z</time>
      </trkpt>
      <trkpt lat="44.14169" lon="7.58742">
        <ele>1946</ele>
        <time>2017-09-17T13:00:25Z</time>
      </trkpt>
      <trkpt lat="44.14169" lon="7.58742">
        <ele>1946</ele>
        <time>2017-09-17T13:00:26Z</time>
      </trkpt>
      <trkpt lat="44.14169" lon="7.58742">
        <ele>1946</ele>
        <time>2017-09-17T13:00:27Z</time>
      </trkpt>
      <trkpt lat="44.14169" lon="7.58742">
        <ele>1946</ele>
        <time>2017-09-17T13:00:28Z</time>
      </trkpt>
      <trkpt lat="44.14169" lon="7.58742">
        <ele>1946</ele>
        <time>2017-09-17T13:00:29Z</time>
      </trkpt>
      <trkpt lat="44.14169" lon="7.58742">
        <ele>1946</ele>
        <time>2017-09-17T13:00:30Z</time>
      </trkpt>
      <trkpt lat="44.14168" lon="7.58742">
        <ele>1946</ele>
        <time>2017-09-17T13:00:31Z</time>
      </trkpt>
      <trkpt lat="44.14167" lon="7.58742">
        <ele>1946</ele>
        <time>2017-09-17T13:00:32Z</time>
      </trkpt>
      <trkpt lat="44.14166" lon="7.58742">
        <ele>1946</ele>
        <time>2017-09-17T13:00:33Z</time>
      </trkpt>
      <trkpt lat="44.14164" lon="7.58742">
        <ele>1946</ele>
        <time>2017-09-17T13:00:34Z</time>
      </trkpt>
      <trkpt lat="44.14162" lon="7.58741">
        <ele>1946</ele>
        <time>2017-09-17T13:00:35Z</time>
      </trkpt>
      <trkpt lat="44.1416" lon="7.58741">
        <ele>1947</ele>
        <time>2017-09-17T13:00:36Z</time>
      </trkpt>
      <trkpt lat="44.14158" lon="7.58741">
        <ele>1947</ele>
        <time>2017-09-17T13:00:37Z</time>
      </trkpt>
      <trkpt lat="44.14155" lon="7.58741">
        <ele>1947</ele>
        <time>2017-09-17T13:00:38Z</time>
      </trkpt>
      <trkpt lat="44.14151" lon="7.58742">
        <ele>1947</ele>
        <time>2017-09-17T13:00:39Z</time>
      </trkpt>
      <trkpt lat="44.14147" lon="7.58742">
        <ele>1947</ele>
        <time>2017-09-17T13:00:40Z</time>
      </trkpt>
      <trkpt lat="44.14143" lon="7.58741">
        <ele>1948</ele>
        <time>2017-09-17T13:00:41Z</time>
      </trkpt>
      <trkpt lat="44.14139" lon="7.58741">
        <ele>1948</ele>
        <time>2017-09-17T13:00:42Z</time>
      </trkpt>
      <trkpt lat="44.14134" lon="7.5874">
        <ele>1948</ele>
        <time>2017-09-17T13:00:43Z</time>
      </trkpt>
      <trkpt lat="44.1413" lon="7.5874">
        <ele>1948</ele>
        <time>2017-09-17T13:00:44Z</time>
      </trkpt>
      <trkpt lat="44.14126" lon="7.58739">
        <ele>1949</ele>
        <time>2017-09-17T13:00:45Z</time>
      </trkpt>
      <trkpt lat="44.14122" lon="7.58739">
        <ele>1949</ele>
        <time>2017-09-17T13:00:46Z</time>
      </trkpt>
      <trkpt lat="44.14118" lon="7.58738">
        <ele>1949</ele>
        <time>2017-09-17T13:00:47Z</time>
      </trkpt>
      <trkpt lat="44.14113" lon="7.58736">
        <ele>1950</ele>
        <time>2017-09-17T13:00:48Z</time>
      </trkpt>
      <trkpt lat="44.1411" lon="7.58735">
        <ele>1950</ele>
        <time>2017-09-17T13:00:49Z</time>
      </trkpt>
      <trkpt lat="44.14106" lon="7.58733">
        <ele>1950</ele>
        <time>2017-09-17T13:00:50Z</time>
      </trkpt>
      <trkpt lat="44.14102" lon="7.58732">
        <ele>1951</ele>
        <time>2017-09-17T13:00:51Z</time>
      </trkpt>
      <trkpt lat="44.14099" lon="7.5873">
        <ele>1951</ele>
        <time>2017-09-17T13:00:52Z</time>
      </trkpt>
      <trkpt lat="44.14095" lon="7.58728">
        <ele>1952</ele>
        <time>2017-09-17T13:00:53Z</time>
      </trkpt>
      <trkpt lat="44.14091" lon="7.58727">
        <ele>1952</ele>
        <time>2017-09-17T13:00:54Z</time>
      </trkpt>
      <trkpt lat="44.14088" lon="7.58725">
        <ele>1952</ele>
        <time>2017-09-17T13:00:55Z</time>
      </trkpt>
      <trkpt lat="44.14084" lon="7.58723">
        <ele>1953</ele>
        <time>2017-09-17T13:00:56Z</time>
      </trkpt>
      <trkpt lat="44.14081" lon="7.58722">
        <ele>1953</ele>
        <time>2017-09-17T13:00:57Z</time>
      </trkpt>
      <trkpt lat="44.14077" lon="7.5872">
        <ele>1953</ele>
        <time>2017-09-17T13:00:58Z</time>
      </trkpt>
      <trkpt lat="44.14073" lon="7.58718">
        <ele>1954</ele>
        <time>2017-09-17T13:00:59Z</time>
      </trkpt>
      <trkpt lat="44.14069" lon="7.58717">
        <ele>1954</ele>
        <time>2017-09-17T13:01:00Z</time>
      </trkpt>
      <trkpt lat="44.14066" lon="7.58716">
        <ele>1955</ele>
        <time>2017-09-17T13:01:01Z</time>
      </trkpt>
      <trkpt lat="44.14062" lon="7.58715">
        <ele>1955</ele>
        <time>2017-09-17T13:01:02Z</time>
      </trkpt>
      <trkpt lat="44.14058" lon="7.58714">
        <ele>1955</ele>
        <time>2017-09-17T13:01:03Z</time>
      </trkpt>
      <trkpt lat="44.14054" lon="7.58713">
        <ele>1956</ele>
        <time>2017-09-17T13:01:04Z</time>
      </trkpt>
      <trkpt lat="44.1405" lon="7.58712">
        <ele>1956</ele>
        <time>2017-09-17T13:01:05Z</time>
      </trkpt>
      <trkpt lat="44.14047" lon="7.5871">
        <ele>1956</ele>
        <time>2017-09-17T13:01:06Z</time>
      </trkpt>
      <trkpt lat="44.14043" lon="7.58709">
        <ele>1957</ele>
        <time>2017-09-17T13:01:07Z</time>
      </trkpt>
      <trkpt lat="44.14039" lon="7.58708">
        <ele>1957</ele>
        <time>2017-09-17T13:01:08Z</time>
      </trkpt>
      <trkpt lat="44.14035" lon="7.58707">
        <ele>1957</ele>
        <time>2017-09-17T13:01:09Z</time>
      </trkpt>
      <trkpt lat="44.14031" lon="7.58706">
        <ele>1958</ele>
        <time>2017-09-17T13:01:10Z</time>
      </trkpt>
      <trkpt lat="44.14028" lon="7.58706">
        <ele>1958</ele>
        <time>2017-09-17T13:01:11Z</time>
      </trkpt>
      <trkpt lat="44.14024" lon="7.58705">
        <ele>1959</ele>
        <time>2017-09-17T13:01:12Z</time>
      </trkpt>
      <trkpt lat="44.1402" lon="7.58704">
        <ele>1959</ele>
        <time>2017-09-17T13:01:13Z</time>
      </trkpt>
      <trkpt lat="44.14016" lon="7.58704">
        <ele>1959</ele>
        <time>2017-09-17T13:01:14Z</time>
      </trkpt>
      <trkpt lat="44.14013" lon="7.58703">
        <ele>1960</ele>
        <time>2017-09-17T13:01:15Z</time>
      </trkpt>
      <trkpt lat="44.14009" lon="7.58702">
        <ele>1960</ele>
        <time>2017-09-17T13:01:16Z</time>
      </trkpt>
      <trkpt lat="44.14005" lon="7.58701">
        <ele>1960</ele>
        <time>2017-09-17T13:01:17Z</time>
      </trkpt>
      <trkpt lat="44.14002" lon="7.587">
        <ele>1961</ele>
        <time>2017-09-17T13:01:18Z</time>
      </trkpt>
      <trkpt lat="44.13998" lon="7.587">
        <ele>1961</ele>
        <time>2017-09-17T13:01:19Z</time>
      </trkpt>
      <trkpt lat="44.13994" lon="7.587">
        <ele>1962</ele>
        <time>2017-09-17T13:01:20Z</time>
      </trkpt>
      <trkpt lat="44.1399" lon="7.58699">
        <ele>1962</ele>
        <time>2017-09-17T13:01:21Z</time>
      </trkpt>
      <trkpt lat="44.13987" lon="7.58698">
        <ele>1963</ele>
        <time>2017-09-17T13:01:22Z</time>
      </trkpt>
      <trkpt lat="44.13983" lon="7.58698">
        <ele>1963</ele>
        <time>2017-09-17T13:01:23Z</time>
      </trkpt>
      <trkpt lat="44.1398" lon="7.58697">
        <ele>1964</ele>
        <time>2017-09-17T13:01:24Z</time>
      </trkpt>
      <trkpt lat="44.13976" lon="7.58697">
        <ele>1964</ele>
        <time>2017-09-17T13:01:25Z</time>
      </trkpt>
      <trkpt lat="44.13973" lon="7.58697">
        <ele>1964</ele>
        <time>2017-09-17T13:01:26Z</time>
      </trkpt>
      <trkpt lat="44.13969" lon="7.58696">
        <ele>1965</ele>
        <time>2017-09-17T13:01:27Z</time>
      </trkpt>
      <trkpt lat="44.13966" lon="7.58696">
        <ele>1965</ele>
        <time>2017-09-17T13:01:28Z</time>
      </trkpt>
      <trkpt lat="44.13962" lon="7.58695">
        <ele>1966</ele>
        <time>2017-09-17T13:01:29Z</time>
      </trkpt>
      <trkpt lat="44.13959" lon="7.58695">
        <ele>1966</ele>
        <time>2017-09-17T13:01:30Z</time>
      </trkpt>
      <trkpt lat="44.13955" lon="7.58694">
        <ele>1967</ele>
        <time>2017-09-17T13:01:31Z</time>
      </trkpt>
      <trkpt lat="44.13952" lon="7.58694">
        <ele>1967</ele>
        <time>2017-09-17T13:01:32Z</time>
      </trkpt>
      <trkpt lat="44.13948" lon="7.58694">
        <ele>1967</ele>
        <time>2017-09-17T13:01:33Z</time>
      </trkpt>
      <trkpt lat="44.13944" lon="7.58694">
        <ele>1968</ele>
        <time>2017-09-17T13:01:34Z</time>
      </trkpt>
      <trkpt lat="44.13941" lon="7.58694">
        <ele>1968</ele>
        <time>2017-09-17T13:01:35Z</time>
      </trkpt>
      <trkpt lat="44.13937" lon="7.58694">
        <ele>1968</ele>
        <time>2017-09-17T13:01:36Z</time>
      </trkpt>
      <trkpt lat="44.13934" lon="7.58695">
        <ele>1969</ele>
        <time>2017-09-17T13:01:37Z</time>
      </trkpt>
      <trkpt lat="44.1393" lon="7.58695">
        <ele>1969</ele>
        <time>2017-09-17T13:01:38Z</time>
      </trkpt>
      <trkpt lat="44.13927" lon="7.58696">
        <ele>1969</ele>
        <time>2017-09-17T13:01:39Z</time>
      </trkpt>
      <trkpt lat="44.13924" lon="7.58698">
        <ele>1970</ele>
        <time>2017-09-17T13:01:40Z</time>
      </trkpt>
      <trkpt lat="44.1392" lon="7.58699">
        <ele>1970</ele>
        <time>2017-09-17T13:01:41Z</time>
      </trkpt>
      <trkpt lat="44.13917" lon="7.587">
        <ele>1970</ele>
        <time>2017-09-17T13:01:42Z</time>
      </trkpt>
      <trkpt lat="44.13914" lon="7.58701">
        <ele>1971</ele>
        <time>2017-09-17T13:01:43Z</time>
      </trkpt>
      <trkpt lat="44.1391" lon="7.58702">
        <ele>1971</ele>
        <time>2017-09-17T13:01:44Z</time>
      </trkpt>
      <trkpt lat="44.13907" lon="7.58703">
        <ele>1971</ele>
        <time>2017-09-17T13:01:45Z</time>
      </trkpt>
      <trkpt lat="44.13903" lon="7.58704">
        <ele>1971</ele>
        <time>2017-09-17T13:01:46Z</time>
      </trkpt>
      <trkpt lat="44.139" lon="7.58705">
        <ele>1972</ele>
        <time>2017-09-17T13:01:47Z</time>
      </trkpt>
      <trkpt lat="44.13896" lon="7.58706">
        <ele>1972</ele>
        <time>2017-09-17T13:01:48Z</time>
      </trkpt>
      <trkpt lat="44.13893" lon="7.58706">
        <ele>1972</ele>
        <time>2017-09-17T13:01:49Z</time>
      </trkpt>
      <trkpt lat="44.13889" lon="7.58707">
        <ele>1972</ele>
        <time>2017-09-17T13:01:50Z</time>
      </trkpt>
      <trkpt lat="44.13886" lon="7.58707">
        <ele>1973</ele>
        <time>2017-09-17T13:01:51Z</time>
      </trkpt>
      <trkpt lat="44.13882" lon="7.58707">
        <ele>1973</ele>
        <time>2017-09-17T13:01:52Z</time>
      </trkpt>
      <trkpt lat="44.13878" lon="7.58707">
        <ele>1973</ele>
        <time>2017-09-17T13:01:53Z</time>
      </trkpt>
      <trkpt lat="44.13874" lon="7.58708">
        <ele>1974</ele>
        <time>2017-09-17T13:01:54Z</time>
      </trkpt>
      <trkpt lat="44.13871" lon="7.58708">
        <ele>1974</ele>
        <time>2017-09-17T13:01:55Z</time>
      </trkpt>
      <trkpt lat="44.13867" lon="7.58707">
        <ele>1974</ele>
        <time>2017-09-17T13:01:56Z</time>
      </trkpt>
      <trkpt lat="44.13863" lon="7.58707">
        <ele>1975</ele>
        <time>2017-09-17T13:01:57Z</time>
      </trkpt>
      <trkpt lat="44.13859" lon="7.58707">
        <ele>1975</ele>
        <time>2017-09-17T13:01:58Z</time>
      </trkpt>
      <trkpt lat="44.13856" lon="7.58707">
        <ele>1975</ele>
        <time>2017-09-17T13:01:59Z</time>
      </trkpt>
      <trkpt lat="44.13852" lon="7.58706">
        <ele>1975</ele>
        <time>2017-09-17T13:02:00Z</time>
      </trkpt>
      <trkpt lat="44.13848" lon="7.58706">
        <ele>1976</ele>
        <time>2017-09-17T13:02:01Z</time>
      </trkpt>
      <trkpt lat="44.13845" lon="7.58706">
        <ele>1976</ele>
        <time>2017-09-17T13:02:02Z</time>
      </trkpt>
      <trkpt lat="44.13841" lon="7.58706">
        <ele>1976</ele>
        <time>2017-09-17T13:02:03Z</time>
      </trkpt>
      <trkpt lat="44.13837" lon="7.58706">
        <ele>1977</ele>
        <time>2017-09-17T13:02:04Z</time>
      </trkpt>
      <trkpt lat="44.13834" lon="7.58705">
        <ele>1977</ele>
        <time>2017-09-17T13:02:05Z</time>
      </trkpt>
      <trkpt lat="44.1383" lon="7.58705">
        <ele>1977</ele>
        <time>2017-09-17T13:02:06Z</time>
      </trkpt>
      <trkpt lat="44.13826" lon="7.58705">
        <ele>1978</ele>
        <time>2017-09-17T13:02:07Z</time>
      </trkpt>
      <trkpt lat="44.13822" lon="7.58704">
        <ele>1978</ele>
        <time>2017-09-17T13:02:08Z</time>
      </trkpt>
      <trkpt lat="44.13818" lon="7.58703">
        <ele>1978</ele>
        <time>2017-09-17T13:02:09Z</time>
      </trkpt>
      <trkpt lat="44.13814" lon="7.58703">
        <ele>1978</ele>
        <time>2017-09-17T13:02:10Z</time>
      </trkpt>
      <trkpt lat="44.1381" lon="7.58703">
        <ele>1979</ele>
        <time>2017-09-17T13:02:11Z</time>
      </trkpt>
      <trkpt lat="44.13806" lon="7.58703">
        <ele>1979</ele>
        <time>2017-09-17T13:02:12Z</time>
      </trkpt>
      <trkpt lat="44.13802" lon="7.58702">
        <ele>1979</ele>
        <time>2017-09-17T13:02:13Z</time>
      </trkpt>
      <trkpt lat="44.13798" lon="7.58702">
        <ele>1979</ele>
        <time>2017-09-17T13:02:14Z</time>
      </trkpt>
      <trkpt lat="44.13795" lon="7.58702">
        <ele>1980</ele>
        <time>2017-09-17T13:02:15Z</time>
      </trkpt>
      <trkpt lat="44.13791" lon="7.58701">
        <ele>1980</ele>
        <time>2017-09-17T13:02:16Z</time>
      </trkpt>
      <trkpt lat="44.13787" lon="7.58701">
        <ele>1980</ele>
        <time>2017-09-17T13:02:17Z</time>
      </trkpt>
      <trkpt lat="44.13784" lon="7.587">
        <ele>1980</ele>
        <time>2017-09-17T13:02:18Z</time>
      </trkpt>
      <trkpt lat="44.1378" lon="7.587">
        <ele>1980</ele>
        <time>2017-09-17T13:02:19Z</time>
      </trkpt>
      <trkpt lat="44.13777" lon="7.58699">
        <ele>1981</ele>
        <time>2017-09-17T13:02:20Z</time>
      </trkpt>
      <trkpt lat="44.13775" lon="7.58699">
        <ele>1981</ele>
        <time>2017-09-17T13:02:21Z</time>
      </trkpt>
      <trkpt lat="44.13773" lon="7.58701">
        <ele>1981</ele>
        <time>2017-09-17T13:02:22Z</time>
      </trkpt>
      <trkpt lat="44.13772" lon="7.58703">
        <ele>1981</ele>
        <time>2017-09-17T13:02:23Z</time>
      </trkpt>
      <trkpt lat="44.13773" lon="7.58705">
        <ele>1981</ele>
        <time>2017-09-17T13:02:24Z</time>
      </trkpt>
      <trkpt lat="44.13775" lon="7.58706">
        <ele>1981</ele>
        <time>2017-09-17T13:02:25Z</time>
      </trkpt>
      <trkpt lat="44.13777" lon="7.58707">
        <ele>1982</ele>
        <time>2017-09-17T13:02:26Z</time>
      </trkpt>
      <trkpt lat="44.13779" lon="7.58707">
        <ele>1982</ele>
        <time>2017-09-17T13:02:27Z</time>
      </trkpt>
      <trkpt lat="44.13782" lon="7.58708">
        <ele>1982</ele>
        <time>2017-09-17T13:02:28Z</time>
      </trkpt>
      <trkpt lat="44.13785" lon="7.58709">
        <ele>1982</ele>
        <time>2017-09-17T13:02:29Z</time>
      </trkpt>
      <trkpt lat="44.13789" lon="7.5871">
        <ele>1983</ele>
        <time>2017-09-17T13:02:30Z</time>
      </trkpt>
      <trkpt lat="44.13792" lon="7.58711">
        <ele>1983</ele>
        <time>2017-09-17T13:02:31Z</time>
      </trkpt>
      <trkpt lat="44.13796" lon="7.58712">
        <ele>1983</ele>
        <time>2017-09-17T13:02:32Z</time>
      </trkpt>
      <trkpt lat="44.13799" lon="7.58713">
        <ele>1984</ele>
        <time>2017-09-17T13:02:33Z</time>
      </trkpt>
      <trkpt lat="44.13803" lon="7.58715">
        <ele>1984</ele>
        <time>2017-09-17T13:02:34Z</time>
      </trkpt>
      <trkpt lat="44.13806" lon="7.58716">
        <ele>1984</ele>
        <time>2017-09-17T13:02:35Z</time>
      </trkpt>
      <trkpt lat="44.1381" lon="7.58717">
        <ele>1985</ele>
        <time>2017-09-17T13:02:36Z</time>
      </trkpt>
      <trkpt lat="44.13814" lon="7.58718">
        <ele>1985</ele>
        <time>2017-09-17T13:02:37Z</time>
      </trkpt>
      <trkpt lat="44.13817" lon="7.58719">
        <ele>1985</ele>
        <time>2017-09-17T13:02:38Z</time>
      </trkpt>
      <trkpt lat="44.13821" lon="7.58721">
        <ele>1986</ele>
        <time>2017-09-17T13:02:39Z</time>
      </trkpt>
      <trkpt lat="44.13824" lon="7.58722">
        <ele>1986</ele>
        <time>2017-09-17T13:02:40Z</time>
      </trkpt>
      <trkpt lat="44.13828" lon="7.58723">
        <ele>1986</ele>
        <time>2017-09-17T13:02:41Z</time>
      </trkpt>
      <trkpt lat="44.13831" lon="7.58724">
        <ele>1987</ele>
        <time>2017-09-17T13:02:42Z</time>
      </trkpt>
      <trkpt lat="44.13835" lon="7.58725">
        <ele>1987</ele>
        <time>2017-09-17T13:02:43Z</time>
      </trkpt>
      <trkpt lat="44.13838" lon="7.58727">
        <ele>1987</ele>
        <time>2017-09-17T13:02:44Z</time>
      </trkpt>
      <trkpt lat="44.1384" lon="7.58729">
        <ele>1988</ele>
        <time>2017-09-17T13:02:45Z</time>
      </trkpt>
      <trkpt lat="44.1384" lon="7.58732">
        <ele>1988</ele>
        <time>2017-09-17T13:02:46Z</time>
      </trkpt>
      <trkpt lat="44.1384" lon="7.58734">
        <ele>1988</ele>
        <time>2017-09-17T13:02:47Z</time>
      </trkpt>
      <trkpt lat="44.13838" lon="7.58735">
        <ele>1988</ele>
        <time>2017-09-17T13:02:48Z</time>
      </trkpt>
      <trkpt lat="44.13836" lon="7.58734">
        <ele>1989</ele>
        <time>2017-09-17T13:02:49Z</time>
      </trkpt>
      <trkpt lat="44.13833" lon="7.58733">
        <ele>1989</ele>
        <time>2017-09-17T13:02:50Z</time>
      </trkpt>
      <trkpt lat="44.1383" lon="7.58731">
        <ele>1989</ele>
        <time>2017-09-17T13:02:51Z</time>
      </trkpt>
      <trkpt lat="44.13826" lon="7.58731">
        <ele>1990</ele>
        <time>2017-09-17T13:02:52Z</time>
      </trkpt>
      <trkpt lat="44.13823" lon="7.5873">
        <ele>1990</ele>
        <time>2017-09-17T13:02:53Z</time>
      </trkpt>
      <trkpt lat="44.13819" lon="7.58729">
        <ele>1990</ele>
        <time>2017-09-17T13:02:54Z</time>
      </trkpt>
      <trkpt lat="44.13815" lon="7.58729">
        <ele>1991</ele>
        <time>2017-09-17T13:02:55Z</time>
      </trkpt>
      <trkpt lat="44.13811" lon="7.58728">
        <ele>1991</ele>
        <time>2017-09-17T13:02:56Z</time>
      </trkpt>
      <trkpt lat="44.13808" lon="7.58727">
        <ele>1991</ele>
        <time>2017-09-17T13:02:57Z</time>
      </trkpt>
      <trkpt lat="44.13804" lon="7.58727">
        <ele>1992</ele>
        <time>2017-09-17T13:02:58Z</time>
      </trkpt>
      <trkpt lat="44.138" lon="7.58727">
        <ele>1992</ele>
        <time>2017-09-17T13:02:59Z</time>
      </trkpt>
      <trkpt lat="44.13797" lon="7.58727">
        <ele>1993</ele>
        <time>2017-09-17T13:03:00Z</time>
      </trkpt>
      <trkpt lat="44.13793" lon="7.58727">
        <ele>1993</ele>
        <time>2017-09-17T13:03:01Z</time>
      </trkpt>
      <trkpt lat="44.13789" lon="7.58727">
        <ele>1993</ele>
        <time>2017-09-17T13:03:02Z</time>
      </trkpt>
      <trkpt lat="44.13785" lon="7.58727">
        <ele>1994</ele>
        <time>2017-09-17T13:03:03Z</time>
      </trkpt>
      <trkpt lat="44.13782" lon="7.58727">
        <ele>1994</ele>
        <time>2017-09-17T13:03:04Z</time>
      </trkpt>
      <trkpt lat="44.13778" lon="7.58727">
        <ele>1995</ele>
        <time>2017-09-17T13:03:05Z</time>
      </trkpt>
      <trkpt lat="44.13775" lon="7.58727">
        <ele>1995</ele>
        <time>2017-09-17T13:03:06Z</time>
      </trkpt>
      <trkpt lat="44.13771" lon="7.58728">
        <ele>1995</ele>
        <time>2017-09-17T13:03:07Z</time>
      </trkpt>
      <trkpt lat="44.13768" lon="7.58728">
        <ele>1996</ele>
        <time>2017-09-17T13:03:08Z</time>
      </trkpt>
      <trkpt lat="44.13764" lon="7.58728">
        <ele>1996</ele>
        <time>2017-09-17T13:03:09Z</time>
      </trkpt>
      <trkpt lat="44.13761" lon="7.58728">
        <ele>1997</ele>
        <time>2017-09-17T13:03:10Z</time>
      </trkpt>
      <trkpt lat="44.13758" lon="7.58728">
        <ele>1997</ele>
        <time>2017-09-17T13:03:11Z</time>
      </trkpt>
      <trkpt lat="44.13754" lon="7.58729">
        <ele>1997</ele>
        <time>2017-09-17T13:03:12Z</time>
      </trkpt>
      <trkpt lat="44.13751" lon="7.58729">
        <ele>1998</ele>
        <time>2017-09-17T13:03:13Z</time>
      </trkpt>
      <trkpt lat="44.13747" lon="7.5873">
        <ele>1998</ele>
        <time>2017-09-17T13:03:14Z</time>
      </trkpt>
      <trkpt lat="44.13744" lon="7.5873">
        <ele>1998</ele>
        <time>2017-09-17T13:03:15Z</time>
      </trkpt>
      <trkpt lat="44.1374" lon="7.58731">
        <ele>1999</ele>
        <time>2017-09-17T13:03:16Z</time>
      </trkpt>
      <trkpt lat="44.13736" lon="7.58732">
        <ele>1999</ele>
        <time>2017-09-17T13:03:17Z</time>
      </trkpt>
      <trkpt lat="44.13732" lon="7.58733">
        <ele>1999</ele>
        <time>2017-09-17T13:03:18Z</time>
      </trkpt>
      <trkpt lat="44.13728" lon="7.58733">
        <ele>1999</ele>
        <time>2017-09-17T13:03:19Z</time>
      </trkpt>
      <trkpt lat="44.13724" lon="7.58732">
        <ele>1999</ele>
        <time>2017-09-17T13:03:20Z</time>
      </trkpt>
      <trkpt lat="44.1372" lon="7.58732">
        <ele>2000</ele>
        <time>2017-09-17T13:03:21Z</time>
      </trkpt>
      <trkpt lat="44.13716" lon="7.58731">
        <ele>2000</ele>
        <time>2017-09-17T13:03:22Z</time>
      </trkpt>
      <trkpt lat="44.13712" lon="7.5873">
        <ele>2000</ele>
        <time>2017-09-17T13:03:23Z</time>
      </trkpt>
      <trkpt lat="44.13708" lon="7.58729">
        <ele>2000</ele>
        <time>2017-09-17T13:03:24Z</time>
      </trkpt>
      <trkpt lat="44.13704" lon="7.58728">
        <ele>2000</ele>
        <time>2017-09-17T13:03:25Z</time>
      </trkpt>
      <trkpt lat="44.13701" lon="7.58728">
        <ele>2000</ele>
        <time>2017-09-17T13:03:26Z</time>
      </trkpt>
      <trkpt lat="44.13698" lon="7.5873">
        <ele>2000</ele>
        <time>2017-09-17T13:03:27Z</time>
      </trkpt>
      <trkpt lat="44.13697" lon="7.58734">
        <ele>2001</ele>
        <time>2017-09-17T13:03:28Z</time>
      </trkpt>
      <trkpt lat="44.13697" lon="7.58737">
        <ele>2001</ele>
        <time>2017-09-17T13:03:29Z</time>
      </trkpt>
      <trkpt lat="44.137" lon="7.58739">
        <ele>2001</ele>
        <time>2017-09-17T13:03:30Z</time>
      </trkpt>
      <trkpt lat="44.13703" lon="7.5874">
        <ele>2001</ele>
        <time>2017-09-17T13:03:31Z</time>
      </trkpt>
      <trkpt lat="44.13706" lon="7.5874">
        <ele>2002</ele>
        <time>2017-09-17T13:03:32Z</time>
      </trkpt>
      <trkpt lat="44.1371" lon="7.58739">
        <ele>2002</ele>
        <time>2017-09-17T13:03:33Z</time>
      </trkpt>
      <trkpt lat="44.13714" lon="7.5874">
        <ele>2002</ele>
        <time>2017-09-17T13:03:34Z</time>
      </trkpt>
      <trkpt lat="44.13718" lon="7.5874">
        <ele>2003</ele>
        <time>2017-09-17T13:03:35Z</time>
      </trkpt>
      <trkpt lat="44.13721" lon="7.58741">
        <ele>2003</ele>
        <time>2017-09-17T13:03:36Z</time>
      </trkpt>
      <trkpt lat="44.13725" lon="7.58742">
        <ele>2003</ele>
        <time>2017-09-17T13:03:37Z</time>
      </trkpt>
      <trkpt lat="44.13729" lon="7.58743">
        <ele>2004</ele>
        <time>2017-09-17T13:03:38Z</time>
      </trkpt>
      <trkpt lat="44.13732" lon="7.58743">
        <ele>2004</ele>
        <time>2017-09-17T13:03:39Z</time>
      </trkpt>
      <trkpt lat="44.13736" lon="7.58744">
        <ele>2004</ele>
        <time>2017-09-17T13:03:40Z</time>
      </trkpt>
      <trkpt lat="44.1374" lon="7.58745">
        <ele>2004</ele>
        <time>2017-09-17T13:03:41Z</time>
      </trkpt>
      <trkpt lat="44.13744" lon="7.58746">
        <ele>2005</ele>
        <time>2017-09-17T13:03:42Z</time>
      </trkpt>
      <trkpt lat="44.13747" lon="7.58747">
        <ele>2005</ele>
        <time>2017-09-17T13:03:43Z</time>
      </trkpt>
      <trkpt lat="44.13751" lon="7.58747">
        <ele>2005</ele>
        <time>2017-09-17T13:03:44Z</time>
      </trkpt>
      <trkpt lat="44.13754" lon="7.58748">
        <ele>2006</ele>
        <time>2017-09-17T13:03:45Z</time>
      </trkpt>
      <trkpt lat="44.13758" lon="7.58749">
        <ele>2006</ele>
        <time>2017-09-17T13:03:46Z</time>
      </trkpt>
      <trkpt lat="44.13761" lon="7.5875">
        <ele>2006</ele>
        <time>2017-09-17T13:03:47Z</time>
      </trkpt>
      <trkpt lat="44.13764" lon="7.58751">
        <ele>2006</ele>
        <time>2017-09-17T13:03:48Z</time>
      </trkpt>
      <trkpt lat="44.13768" lon="7.58752">
        <ele>2007</ele>
        <time>2017-09-17T13:03:49Z</time>
      </trkpt>
      <trkpt lat="44.13771" lon="7.58754">
        <ele>2007</ele>
        <time>2017-09-17T13:03:50Z</time>
      </trkpt>
      <trkpt lat="44.13775" lon="7.58755">
        <ele>2007</ele>
        <time>2017-09-17T13:03:51Z</time>
      </trkpt>
      <trkpt lat="44.13778" lon="7.58756">
        <ele>2007</ele>
        <time>2017-09-17T13:03:52Z</time>
      </trkpt>
      <trkpt lat="44.13781" lon="7.58757">
        <ele>2008</ele>
        <time>2017-09-17T13:03:53Z</time>
      </trkpt>
      <trkpt lat="44.13785" lon="7.58759">
        <ele>2008</ele>
        <time>2017-09-17T13:03:54Z</time>
      </trkpt>
      <trkpt lat="44.13788" lon="7.5876">
        <ele>2008</ele>
        <time>2017-09-17T13:03:55Z</time>
      </trkpt>
      <trkpt lat="44.13792" lon="7.58762">
        <ele>2009</ele>
        <time>2017-09-17T13:03:56Z</time>
      </trkpt>
      <trkpt lat="44.13795" lon="7.58764">
        <ele>2009</ele>
        <time>2017-09-17T13:03:57Z</time>
      </trkpt>
      <trkpt lat="44.13799" lon="7.58765">
        <ele>2009</ele>
        <time>2017-09-17T13:03:58Z</time>
      </trkpt>
      <trkpt lat="44.13802" lon="7.58767">
        <ele>2009</ele>
        <time>2017-09-17T13:03:59Z</time>
      </trkpt>
      <trkpt lat="44.13806" lon="7.58769">
        <ele>2010</ele>
        <time>2017-09-17T13:04:00Z</time>
      </trkpt>
      <trkpt lat="44.13809" lon="7.58771">
        <ele>2010</ele>
        <time>2017-09-17T13:04:01Z</time>
      </trkpt>
      <trkpt lat="44.13812" lon="7.58773">
        <ele>2010</ele>
        <time>2017-09-17T13:04:02Z</time>
      </trkpt>
      <trkpt lat="44.13816" lon="7.58774">
        <ele>2010</ele>
        <time>2017-09-17T13:04:03Z</time>
      </trkpt>
      <trkpt lat="44.13819" lon="7.58776">
        <ele>2011</ele>
        <time>2017-09-17T13:04:04Z</time>
      </trkpt>
      <trkpt lat="44.13822" lon="7.58778">
        <ele>2011</ele>
        <time>2017-09-17T13:04:05Z</time>
      </trkpt>
      <trkpt lat="44.13826" lon="7.5878">
        <ele>2011</ele>
        <time>2017-09-17T13:04:06Z</time>
      </trkpt>
      <trkpt lat="44.13829" lon="7.58781">
        <ele>2012</ele>
        <time>2017-09-17T13:04:07Z</time>
      </trkpt>
      <trkpt lat="44.13833" lon="7.58783">
        <ele>2012</ele>
        <time>2017-09-17T13:04:08Z</time>
      </trkpt>
      <trkpt lat="44.13836" lon="7.58784">
        <ele>2012</ele>
        <time>2017-09-17T13:04:09Z</time>
      </trkpt>
      <trkpt lat="44.1384" lon="7.58785">
        <ele>2012</ele>
        <time>2017-09-17T13:04:10Z</time>
      </trkpt>
      <trkpt lat="44.13843" lon="7.58787">
        <ele>2013</ele>
        <time>2017-09-17T13:04:11Z</time>
      </trkpt>
      <trkpt lat="44.13846" lon="7.58788">
        <ele>2013</ele>
        <time>2017-09-17T13:04:12Z</time>
      </trkpt>
      <trkpt lat="44.1385" lon="7.58789">
        <ele>2013</ele>
        <time>2017-09-17T13:04:13Z</time>
      </trkpt>
      <trkpt lat="44.13853" lon="7.5879">
        <ele>2014</ele>
        <time>2017-09-17T13:04:14Z</time>
      </trkpt>
      <trkpt lat="44.13857" lon="7.58791">
        <ele>2014</ele>
        <time>2017-09-17T13:04:15Z</time>
      </trkpt>
      <trkpt lat="44.1386" lon="7.58792">
        <ele>2014</ele>
        <time>2017-09-17T13:04:16Z</time>
      </trkpt>
      <trkpt lat="44.13864" lon="7.58793">
        <ele>2015</ele>
        <time>2017-09-17T13:04:17Z</time>
      </trkpt>
      <trkpt lat="44.13867" lon="7.58794">
        <ele>2015</ele>
        <time>2017-09-17T13:04:18Z</time>
      </trkpt>
      <trkpt lat="44.13871" lon="7.58795">
        <ele>2015</ele>
        <time>2017-09-17T13:04:19Z</time>
      </trkpt>
      <trkpt lat="44.13874" lon="7.58796">
        <ele>2015</ele>
        <time>2017-09-17T13:04:20Z</time>
      </trkpt>
      <trkpt lat="44.13878" lon="7.58797">
        <ele>2016</ele>
        <time>2017-09-17T13:04:21Z</time>
      </trkpt>
      <trkpt lat="44.13881" lon="7.58798">
        <ele>2016</ele>
        <time>2017-09-17T13:04:22Z</time>
      </trkpt>
      <trkpt lat="44.13884" lon="7.58798">
        <ele>2017</ele>
        <time>2017-09-17T13:04:23Z</time>
      </trkpt>
      <trkpt lat="44.13888" lon="7.58799">
        <ele>2017</ele>
        <time>2017-09-17T13:04:24Z</time>
      </trkpt>
      <trkpt lat="44.13891" lon="7.588">
        <ele>2017</ele>
        <time>2017-09-17T13:04:25Z</time>
      </trkpt>
      <trkpt lat="44.13895" lon="7.58801">
        <ele>2018</ele>
        <time>2017-09-17T13:04:26Z</time>
      </trkpt>
      <trkpt lat="44.13898" lon="7.58801">
        <ele>2018</ele>
        <time>2017-09-17T13:04:27Z</time>
      </trkpt>
      <trkpt lat="44.13901" lon="7.58802">
        <ele>2018</ele>
        <time>2017-09-17T13:04:28Z</time>
      </trkpt>
      <trkpt lat="44.13905" lon="7.58803">
        <ele>2019</ele>
        <time>2017-09-17T13:04:29Z</time>
      </trkpt>
      <trkpt lat="44.13908" lon="7.58804">
        <ele>2019</ele>
        <time>2017-09-17T13:04:30Z</time>
      </trkpt>
      <trkpt lat="44.13911" lon="7.58805">
        <ele>2019</ele>
        <time>2017-09-17T13:04:31Z</time>
      </trkpt>
      <trkpt lat="44.13915" lon="7.58805">
        <ele>2020</ele>
        <time>2017-09-17T13:04:32Z</time>
      </trkpt>
      <trkpt lat="44.13918" lon="7.58806">
        <ele>2020</ele>
        <time>2017-09-17T13:04:33Z</time>
      </trkpt>
      <trkpt lat="44.13922" lon="7.58807">
        <ele>2020</ele>
        <time>2017-09-17T13:04:34Z</time>
      </trkpt>
      <trkpt lat="44.13925" lon="7.58807">
        <ele>2021</ele>
        <time>2017-09-17T13:04:35Z</time>
      </trkpt>
      <trkpt lat="44.13929" lon="7.58808">
        <ele>2021</ele>
        <time>2017-09-17T13:04:36Z</time>
      </trkpt>
      <trkpt lat="44.13932" lon="7.58809">
        <ele>2022</ele>
        <time>2017-09-17T13:04:37Z</time>
      </trkpt>
      <trkpt lat="44.13936" lon="7.58809">
        <ele>2022</ele>
        <time>2017-09-17T13:04:38Z</time>
      </trkpt>
      <trkpt lat="44.13939" lon="7.5881">
        <ele>2022</ele>
        <time>2017-09-17T13:04:39Z</time>
      </trkpt>
      <trkpt lat="44.13942" lon="7.58811">
        <ele>2023</ele>
        <time>2017-09-17T13:04:40Z</time>
      </trkpt>
      <trkpt lat="44.13946" lon="7.58812">
        <ele>2023</ele>
        <time>2017-09-17T13:04:41Z</time>
      </trkpt>
      <trkpt lat="44.13949" lon="7.58813">
        <ele>2023</ele>
        <time>2017-09-17T13:04:42Z</time>
      </trkpt>
      <trkpt lat="44.13953" lon="7.58814">
        <ele>2024</ele>
        <time>2017-09-17T13:04:43Z</time>
      </trkpt>
      <trkpt lat="44.13957" lon="7.58815">
        <ele>2024</ele>
        <time>2017-09-17T13:04:44Z</time>
      </trkpt>
      <trkpt lat="44.1396" lon="7.58815">
        <ele>2024</ele>
        <time>2017-09-17T13:04:45Z</time>
      </trkpt>
      <trkpt lat="44.13964" lon="7.58816">
        <ele>2025</ele>
        <time>2017-09-17T13:04:46Z</time>
      </trkpt>
      <trkpt lat="44.13967" lon="7.58817">
        <ele>2025</ele>
        <time>2017-09-17T13:04:47Z</time>
      </trkpt>
      <trkpt lat="44.1397" lon="7.58818">
        <ele>2025</ele>
        <time>2017-09-17T13:04:48Z</time>
      </trkpt>
      <trkpt lat="44.13973" lon="7.5882">
        <ele>2026</ele>
        <time>2017-09-17T13:04:49Z</time>
      </trkpt>
      <trkpt lat="44.13974" lon="7.58824">
        <ele>2026</ele>
        <time>2017-09-17T13:04:50Z</time>
      </trkpt>
      <trkpt lat="44.13973" lon="7.58827">
        <ele>2026</ele>
        <time>2017-09-17T13:04:51Z</time>
      </trkpt>
      <trkpt lat="44.13971" lon="7.58828">
        <ele>2027</ele>
        <time>2017-09-17T13:04:52Z</time>
      </trkpt>
      <trkpt lat="44.13968" lon="7.58828">
        <ele>2027</ele>
        <time>2017-09-17T13:04:53Z</time>
      </trkpt>
      <trkpt lat="44.13965" lon="7.58828">
        <ele>2028</ele>
        <time>2017-09-17T13:04:54Z</time>
      </trkpt>
      <trkpt lat="44.13962" lon="7.58827">
        <ele>2028</ele>
        <time>2017-09-17T13:04:55Z</time>
      </trkpt>
      <trkpt lat="44.13958" lon="7.58826">
        <ele>2029</ele>
        <time>2017-09-17T13:04:56Z</time>
      </trkpt>
      <trkpt lat="44.13955" lon="7.58826">
        <ele>2029</ele>
        <time>2017-09-17T13:04:57Z</time>
      </trkpt>
      <trkpt lat="44.13951" lon="7.58826">
        <ele>2030</ele>
        <time>2017-09-17T13:04:58Z</time>
      </trkpt>
      <trkpt lat="44.13948" lon="7.58825">
        <ele>2030</ele>
        <time>2017-09-17T13:04:59Z</time>
      </trkpt>
      <trkpt lat="44.13944" lon="7.58825">
        <ele>2031</ele>
        <time>2017-09-17T13:05:00Z</time>
      </trkpt>
      <trkpt lat="44.13941" lon="7.58825">
        <ele>2031</ele>
        <time>2017-09-17T13:05:01Z</time>
      </trkpt>
      <trkpt lat="44.13937" lon="7.58825">
        <ele>2031</ele>
        <time>2017-09-17T13:05:02Z</time>
      </trkpt>
      <trkpt lat="44.13933" lon="7.58826">
        <ele>2032</ele>
        <time>2017-09-17T13:05:03Z</time>
      </trkpt>
      <trkpt lat="44.1393" lon="7.58826">
        <ele>2032</ele>
        <time>2017-09-17T13:05:04Z</time>
      </trkpt>
      <trkpt lat="44.13926" lon="7.58827">
        <ele>2032</ele>
        <time>2017-09-17T13:05:05Z</time>
      </trkpt>
      <trkpt lat="44.13923" lon="7.58828">
        <ele>2033</ele>
        <time>2017-09-17T13:05:06Z</time>
      </trkpt>
      <trkpt lat="44.13919" lon="7.58829">
        <ele>2033</ele>
        <time>2017-09-17T13:05:07Z</time>
      </trkpt>
      <trkpt lat="44.13916" lon="7.5883">
        <ele>2034</ele>
        <time>2017-09-17T13:05:08Z</time>
      </trkpt>
      <trkpt lat="44.13912" lon="7.58831">
        <ele>2034</ele>
        <time>2017-09-17T13:05:09Z</time>
      </trkpt>
      <trkpt lat="44.13908" lon="7.58832">
        <ele>2034</ele>
        <time>2017-09-17T13:05:10Z</time>
      </trkpt>
      <trkpt lat="44.13905" lon="7.58833">
        <ele>2035</ele>
        <time>2017-09-17T13:05:11Z</time>
      </trkpt>
      <trkpt lat="44.13902" lon="7.58834">
        <ele>2035</ele>
        <time>2017-09-17T13:05:12Z</time>
      </trkpt>
      <trkpt lat="44.13898" lon="7.58835">
        <ele>2036</ele>
        <time>2017-09-17T13:05:13Z</time>
      </trkpt>
      <trkpt lat="44.13895" lon="7.58836">
        <ele>2036</ele>
        <time>2017-09-17T13:05:14Z</time>
      </trkpt>
      <trkpt lat="44.13891" lon="7.58838">
        <ele>2036</ele>
        <time>2017-09-17T13:05:15Z</time>
      </trkpt>
      <trkpt lat="44.13888" lon="7.58839">
        <ele>2037</ele>
        <time>2017-09-17T13:05:16Z</time>
      </trkpt>
      <trkpt lat="44.13884" lon="7.5884">
        <ele>2037</ele>
        <time>2017-09-17T13:05:17Z</time>
      </trkpt>
      <trkpt lat="44.13881" lon="7.58842">
        <ele>2038</ele>
        <time>2017-09-17T13:05:18Z</time>
      </trkpt>
      <trkpt lat="44.13878" lon="7.58843">
        <ele>2038</ele>
        <time>2017-09-17T13:05:19Z</time>
      </trkpt>
      <trkpt lat="44.13874" lon="7.58844">
        <ele>2038</ele>
        <time>2017-09-17T13:05:20Z</time>
      </trkpt>
      <trkpt lat="44.13871" lon="7.58846">
        <ele>2039</ele>
        <time>2017-09-17T13:05:21Z</time>
      </trkpt>
      <trkpt lat="44.13867" lon="7.58847">
        <ele>2039</ele>
        <time>2017-09-17T13:05:22Z</time>
      </trkpt>
      <trkpt lat="44.13864" lon="7.58848">
        <ele>2040</ele>
        <time>2017-09-17T13:05:23Z</time>
      </trkpt>
      <trkpt lat="44.13861" lon="7.58849">
        <ele>2040</ele>
        <time>2017-09-17T13:05:24Z</time>
      </trkpt>
      <trkpt lat="44.13858" lon="7.5885">
        <ele>2040</ele>
        <time>2017-09-17T13:05:25Z</time>
      </trkpt>
      <trkpt lat="44.13855" lon="7.58851">
        <ele>2041</ele>
        <time>2017-09-17T13:05:26Z</time>
      </trkpt>
      <trkpt lat="44.13851" lon="7.58852">
        <ele>2041</ele>
        <time>2017-09-17T13:05:27Z</time>
      </trkpt>
      <trkpt lat="44.13848" lon="7.58853">
        <ele>2042</ele>
        <time>2017-09-17T13:05:28Z</time>
      </trkpt>
      <trkpt lat="44.13845" lon="7.58854">
        <ele>2042</ele>
        <time>2017-09-17T13:05:29Z</time>
      </trkpt>
      <trkpt lat="44.13842" lon="7.58855">
        <ele>2042</ele>
        <time>2017-09-17T13:05:30Z</time>
      </trkpt>
      <trkpt lat="44.13838" lon="7.58856">
        <ele>2043</ele>
        <time>2017-09-17T13:05:31Z</time>
      </trkpt>
      <trkpt lat="44.13835" lon="7.58857">
        <ele>2043</ele>
        <time>2017-09-17T13:05:32Z</time>
      </trkpt>
      <trkpt lat="44.13832" lon="7.58858">
        <ele>2043</ele>
        <time>2017-09-17T13:05:33Z</time>
      </trkpt>
      <trkpt lat="44.13828" lon="7.58859">
        <ele>2044</ele>
        <time>2017-09-17T13:05:34Z</time>
      </trkpt>
      <trkpt lat="44.13825" lon="7.5886">
        <ele>2044</ele>
        <time>2017-09-17T13:05:35Z</time>
      </trkpt>
      <trkpt lat="44.13822" lon="7.58861">
        <ele>2044</ele>
        <time>2017-09-17T13:05:36Z</time>
      </trkpt>
      <trkpt lat="44.13819" lon="7.58862">
        <ele>2045</ele>
        <time>2017-09-17T13:05:37Z</time>
      </trkpt>
      <trkpt lat="44.13816" lon="7.58864">
        <ele>2045</ele>
        <time>2017-09-17T13:05:38Z</time>
      </trkpt>
      <trkpt lat="44.13815" lon="7.58867">
        <ele>2045</ele>
        <time>2017-09-17T13:05:39Z</time>
      </trkpt>
      <trkpt lat="44.13815" lon="7.5887">
        <ele>2046</ele>
        <time>2017-09-17T13:05:40Z</time>
      </trkpt>
      <trkpt lat="44.13816" lon="7.58872">
        <ele>2046</ele>
        <time>2017-09-17T13:05:41Z</time>
      </trkpt>
      <trkpt lat="44.13818" lon="7.58873">
        <ele>2046</ele>
        <time>2017-09-17T13:05:42Z</time>
      </trkpt>
      <trkpt lat="44.13821" lon="7.58874">
        <ele>2046</ele>
        <time>2017-09-17T13:05:43Z</time>
      </trkpt>
      <trkpt lat="44.13823" lon="7.58873">
        <ele>2047</ele>
        <time>2017-09-17T13:05:44Z</time>
      </trkpt>
      <trkpt lat="44.13827" lon="7.58873">
        <ele>2047</ele>
        <time>2017-09-17T13:05:45Z</time>
      </trkpt>
      <trkpt lat="44.1383" lon="7.58873">
        <ele>2047</ele>
        <time>2017-09-17T13:05:46Z</time>
      </trkpt>
      <trkpt lat="44.13833" lon="7.58873">
        <ele>2047</ele>
        <time>2017-09-17T13:05:47Z</time>
      </trkpt>
      <trkpt lat="44.13836" lon="7.58873">
        <ele>2048</ele>
        <time>2017-09-17T13:05:48Z</time>
      </trkpt>
      <trkpt lat="44.13839" lon="7.58873">
        <ele>2048</ele>
        <time>2017-09-17T13:05:49Z</time>
      </trkpt>
      <trkpt lat="44.13842" lon="7.58873">
        <ele>2048</ele>
        <time>2017-09-17T13:05:50Z</time>
      </trkpt>
      <trkpt lat="44.13846" lon="7.58874">
        <ele>2048</ele>
        <time>2017-09-17T13:05:51Z</time>
      </trkpt>
      <trkpt lat="44.13849" lon="7.58874">
        <ele>2049</ele>
        <time>2017-09-17T13:05:52Z</time>
      </trkpt>
      <trkpt lat="44.13852" lon="7.58874">
        <ele>2049</ele>
        <time>2017-09-17T13:05:53Z</time>
      </trkpt>
      <trkpt lat="44.13856" lon="7.58874">
        <ele>2049</ele>
        <time>2017-09-17T13:05:54Z</time>
      </trkpt>
      <trkpt lat="44.13859" lon="7.58874">
        <ele>2049</ele>
        <time>2017-09-17T13:05:55Z</time>
      </trkpt>
      <trkpt lat="44.13863" lon="7.58874">
        <ele>2049</ele>
        <time>2017-09-17T13:05:56Z</time>
      </trkpt>
      <trkpt lat="44.13866" lon="7.58875">
        <ele>2050</ele>
        <time>2017-09-17T13:05:57Z</time>
      </trkpt>
      <trkpt lat="44.1387" lon="7.58875">
        <ele>2050</ele>
        <time>2017-09-17T13:05:58Z</time>
      </trkpt>
      <trkpt lat="44.13873" lon="7.58875">
        <ele>2050</ele>
        <time>2017-09-17T13:05:59Z</time>
      </trkpt>
      <trkpt lat="44.13877" lon="7.58876">
        <ele>2050</ele>
        <time>2017-09-17T13:06:00Z</time>
      </trkpt>
      <trkpt lat="44.1388" lon="7.58876">
        <ele>2051</ele>
        <time>2017-09-17T13:06:01Z</time>
      </trkpt>
      <trkpt lat="44.13884" lon="7.58876">
        <ele>2051</ele>
        <time>2017-09-17T13:06:02Z</time>
      </trkpt>
      <trkpt lat="44.13887" lon="7.58877">
        <ele>2051</ele>
        <time>2017-09-17T13:06:03Z</time>
      </trkpt>
      <trkpt lat="44.13891" lon="7.58877">
        <ele>2051</ele>
        <time>2017-09-17T13:06:04Z</time>
      </trkpt>
      <trkpt lat="44.13894" lon="7.58877">
        <ele>2052</ele>
        <time>2017-09-17T13:06:05Z</time>
      </trkpt>
      <trkpt lat="44.13897" lon="7.58877">
        <ele>2052</ele>
        <time>2017-09-17T13:06:06Z</time>
      </trkpt>
      <trkpt lat="44.139" lon="7.58877">
        <ele>2052</ele>
        <time>2017-09-17T13:06:07Z</time>
      </trkpt>
      <trkpt lat="44.13904" lon="7.58877">
        <ele>2053</ele>
        <time>2017-09-17T13:06:08Z</time>
      </trkpt>
      <trkpt lat="44.13907" lon="7.58877">
        <ele>2053</ele>
        <time>2017-09-17T13:06:09Z</time>
      </trkpt>
      <trkpt lat="44.1391" lon="7.58877">
        <ele>2053</ele>
        <time>2017-09-17T13:06:10Z</time>
      </trkpt>
      <trkpt lat="44.13913" lon="7.58878">
        <ele>2054</ele>
        <time>2017-09-17T13:06:11Z</time>
      </trkpt>
      <trkpt lat="44.13916" lon="7.58878">
        <ele>2054</ele>
        <time>2017-09-17T13:06:12Z</time>
      </trkpt>
      <trkpt lat="44.13919" lon="7.58878">
        <ele>2054</ele>
        <time>2017-09-17T13:06:13Z</time>
      </trkpt>
      <trkpt lat="44.13922" lon="7.58878">
        <ele>2055</ele>
        <time>2017-09-17T13:06:14Z</time>
      </trkpt>
      <trkpt lat="44.13925" lon="7.58879">
        <ele>2055</ele>
        <time>2017-09-17T13:06:15Z</time>
      </trkpt>
      <trkpt lat="44.13928" lon="7.5888">
        <ele>2055</ele>
        <time>2017-09-17T13:06:16Z</time>
      </trkpt>
      <trkpt lat="44.13931" lon="7.5888">
        <ele>2056</ele>
        <time>2017-09-17T13:06:17Z</time>
      </trkpt>
      <trkpt lat="44.13934" lon="7.58881">
        <ele>2056</ele>
        <time>2017-09-17T13:06:18Z</time>
      </trkpt>
      <trkpt lat="44.13937" lon="7.58881">
        <ele>2056</ele>
        <time>2017-09-17T13:06:19Z</time>
      </trkpt>
      <trkpt lat="44.13941" lon="7.58882">
        <ele>2057</ele>
        <time>2017-09-17T13:06:20Z</time>
      </trkpt>
      <trkpt lat="44.13944" lon="7.58882">
        <ele>2057</ele>
        <time>2017-09-17T13:06:21Z</time>
      </trkpt>
      <trkpt lat="44.13947" lon="7.58883">
        <ele>2057</ele>
        <time>2017-09-17T13:06:22Z</time>
      </trkpt>
      <trkpt lat="44.13951" lon="7.58883">
        <ele>2058</ele>
        <time>2017-09-17T13:06:23Z</time>
      </trkpt>
      <trkpt lat="44.13954" lon="7.58884">
        <ele>2058</ele>
        <time>2017-09-17T13:06:24Z</time>
      </trkpt>
      <trkpt lat="44.13957" lon="7.58885">
        <ele>2058</ele>
        <time>2017-09-17T13:06:25Z</time>
      </trkpt>
      <trkpt lat="44.13961" lon="7.58886">
        <ele>2059</ele>
        <time>2017-09-17T13:06:26Z</time>
      </trkpt>
      <trkpt lat="44.13965" lon="7.58886">
        <ele>2059</ele>
        <time>2017-09-17T13:06:27Z</time>
      </trkpt>
      <trkpt lat="44.13968" lon="7.58887">
        <ele>2059</ele>
        <time>2017-09-17T13:06:28Z</time>
      </trkpt>
      <trkpt lat="44.13972" lon="7.58888">
        <ele>2059</ele>
        <time>2017-09-17T13:06:29Z</time>
      </trkpt>
      <trkpt lat="44.13976" lon="7.58889">
        <ele>2060</ele>
        <time>2017-09-17T13:06:30Z</time>
      </trkpt>
      <trkpt lat="44.1398" lon="7.5889">
        <ele>2060</ele>
        <time>2017-09-17T13:06:31Z</time>
      </trkpt>
      <trkpt lat="44.13984" lon="7.58891">
        <ele>2060</ele>
        <time>2017-09-17T13:06:32Z</time>
      </trkpt>
      <trkpt lat="44.13988" lon="7.58892">
        <ele>2060</ele>
        <time>2017-09-17T13:06:33Z</time>
      </trkpt>
      <trkpt lat="44.13992" lon="7.58893">
        <ele>2060</ele>
        <time>2017-09-17T13:06:34Z</time>
      </trkpt>
      <trkpt lat="44.13997" lon="7.58895">
        <ele>2061</ele>
        <time>2017-09-17T13:06:35Z</time>
      </trkpt>
      <trkpt lat="44.14002" lon="7.58896">
        <ele>2061</ele>
        <time>2017-09-17T13:06:36Z</time>
      </trkpt>
      <trkpt lat="44.14006" lon="7.58897">
        <ele>2061</ele>
        <time>2017-09-17T13:06:37Z</time>
      </trkpt>
      <trkpt lat="44.14011" lon="7.58899">
        <ele>2061</ele>
        <time>2017-09-17T13:06:38Z</time>
      </trkpt>
      <trkpt lat="44.14016" lon="7.589">
        <ele>2061</ele>
        <time>2017-09-17T13:06:39Z</time>
      </trkpt>
      <trkpt lat="44.14021" lon="7.58902">
        <ele>2062</ele>
        <time>2017-09-17T13:06:40Z</time>
      </trkpt>
      <trkpt lat="44.14026" lon="7.58904">
        <ele>2062</ele>
        <time>2017-09-17T13:06:41Z</time>
      </trkpt>
      <trkpt lat="44.14031" lon="7.58907">
        <ele>2062</ele>
        <time>2017-09-17T13:06:42Z</time>
      </trkpt>
      <trkpt lat="44.14036" lon="7.58909">
        <ele>2062</ele>
        <time>2017-09-17T13:06:43Z</time>
      </trkpt>
      <trkpt lat="44.14041" lon="7.58912">
        <ele>2063</ele>
        <time>2017-09-17T13:06:44Z</time>
      </trkpt>
      <trkpt lat="44.14046" lon="7.58914">
        <ele>2063</ele>
        <time>2017-09-17T13:06:45Z</time>
      </trkpt>
      <trkpt lat="44.14051" lon="7.58917">
        <ele>2063</ele>
        <time>2017-09-17T13:06:46Z</time>
      </trkpt>
      <trkpt lat="44.14056" lon="7.58919">
        <ele>2064</ele>
        <time>2017-09-17T13:06:47Z</time>
      </trkpt>
      <trkpt lat="44.1406" lon="7.5892">
        <ele>2064</ele>
        <time>2017-09-17T13:06:48Z</time>
      </trkpt>
      <trkpt lat="44.14065" lon="7.58922">
        <ele>2064</ele>
        <time>2017-09-17T13:06:49Z</time>
      </trkpt>
      <trkpt lat="44.14069" lon="7.58924">
        <ele>2065</ele>
        <time>2017-09-17T13:06:50Z</time>
      </trkpt>
      <trkpt lat="44.14073" lon="7.58925">
        <ele>2065</ele>
        <time>2017-09-17T13:06:51Z</time>
      </trkpt>
      <trkpt lat="44.14077" lon="7.58927">
        <ele>2066</ele>
        <time>2017-09-17T13:06:52Z</time>
      </trkpt>
      <trkpt lat="44.14081" lon="7.58928">
        <ele>2066</ele>
        <time>2017-09-17T13:06:53Z</time>
      </trkpt>
      <trkpt lat="44.14085" lon="7.58929">
        <ele>2067</ele>
        <time>2017-09-17T13:06:54Z</time>
      </trkpt>
      <trkpt lat="44.14089" lon="7.5893">
        <ele>2067</ele>
        <time>2017-09-17T13:06:55Z</time>
      </trkpt>
      <trkpt lat="44.14092" lon="7.58932">
        <ele>2067</ele>
        <time>2017-09-17T13:06:56Z</time>
      </trkpt>
      <trkpt lat="44.14096" lon="7.58933">
        <ele>2068</ele>
        <time>2017-09-17T13:06:57Z</time>
      </trkpt>
      <trkpt lat="44.14099" lon="7.58935">
        <ele>2068</ele>
        <time>2017-09-17T13:06:58Z</time>
      </trkpt>
      <trkpt lat="44.14103" lon="7.58936">
        <ele>2069</ele>
        <time>2017-09-17T13:06:59Z</time>
      </trkpt>
      <trkpt lat="44.14107" lon="7.58937">
        <ele>2069</ele>
        <time>2017-09-17T13:07:00Z</time>
      </trkpt>
      <trkpt lat="44.1411" lon="7.58938">
        <ele>2069</ele>
        <time>2017-09-17T13:07:01Z</time>
      </trkpt>
      <trkpt lat="44.14114" lon="7.58938">
        <ele>2070</ele>
        <time>2017-09-17T13:07:02Z</time>
      </trkpt>
      <trkpt lat="44.14118" lon="7.58938">
        <ele>2070</ele>
        <time>2017-09-17T13:07:03Z</time>
      </trkpt>
      <trkpt lat="44.14123" lon="7.58938">
        <ele>2070</ele>
        <time>2017-09-17T13:07:04Z</time>
      </trkpt>
      <trkpt lat="44.14127" lon="7.58938">
        <ele>2071</ele>
        <time>2017-09-17T13:07:05Z</time>
      </trkpt>
      <trkpt lat="44.14131" lon="7.58939">
        <ele>2071</ele>
        <time>2017-09-17T13:07:06Z</time>
      </trkpt>
      <trkpt lat="44.14134" lon="7.5894">
        <ele>2071</ele>
        <time>2017-09-17T13:07:07Z</time>
      </trkpt>
      <trkpt lat="44.14138" lon="7.5894">
        <ele>2072</ele>
        <time>2017-09-17T13:07:08Z</time>
      </trkpt>
      <trkpt lat="44.14142" lon="7.58941">
        <ele>2072</ele>
        <time>2017-09-17T13:07:09Z</time>
      </trkpt>
      <trkpt lat="44.14146" lon="7.58941">
        <ele>2072</ele>
        <time>2017-09-17T13:07:10Z</time>
      </trkpt>
      <trkpt lat="44.1415" lon="7.58942">
        <ele>2073</ele>
        <time>2017-09-17T13:07:11Z</time>
      </trkpt>
      <trkpt lat="44.14154" lon="7.58943">
        <ele>2073</ele>
        <time>2017-09-17T13:07:12Z</time>
      </trkpt>
      <trkpt lat="44.14158" lon="7.58945">
        <ele>2073</ele>
        <time>2017-09-17T13:07:13Z</time>
      </trkpt>
      <trkpt lat="44.14161" lon="7.58946">
        <ele>2073</ele>
        <time>2017-09-17T13:07:14Z</time>
      </trkpt>
      <trkpt lat="44.14165" lon="7.58947">
        <ele>2074</ele>
        <time>2017-09-17T13:07:15Z</time>
      </trkpt>
      <trkpt lat="44.14169" lon="7.58948">
        <ele>2074</ele>
        <time>2017-09-17T13:07:16Z</time>
      </trkpt>
      <trkpt lat="44.14173" lon="7.58948">
        <ele>2074</ele>
        <time>2017-09-17T13:07:17Z</time>
      </trkpt>
      <trkpt lat="44.14177" lon="7.58948">
        <ele>2074</ele>
        <time>2017-09-17T13:07:18Z</time>
      </trkpt>
      <trkpt lat="44.14182" lon="7.58948">
        <ele>2075</ele>
        <time>2017-09-17T13:07:19Z</time>
      </trkpt>
      <trkpt lat="44.14186" lon="7.58948">
        <ele>2075</ele>
        <time>2017-09-17T13:07:20Z</time>
      </trkpt>
      <trkpt lat="44.1419" lon="7.58949">
        <ele>2075</ele>
        <time>2017-09-17T13:07:21Z</time>
      </trkpt>
      <trkpt lat="44.14194" lon="7.5895">
        <ele>2075</ele>
        <time>2017-09-17T13:07:22Z</time>
      </trkpt>
      <trkpt lat="44.14198" lon="7.5895">
        <ele>2076</ele>
        <time>2017-09-17T13:07:23Z</time>
      </trkpt>
      <trkpt lat="44.14202" lon="7.58951">
        <ele>2076</ele>
        <time>2017-09-17T13:07:24Z</time>
      </trkpt>
      <trkpt lat="44.14207" lon="7.58951">
        <ele>2076</ele>
        <time>2017-09-17T13:07:25Z</time>
      </trkpt>
      <trkpt lat="44.1421" lon="7.58951">
        <ele>2077</ele>
        <time>2017-09-17T13:07:26Z</time>
      </trkpt>
      <trkpt lat="44.14214" lon="7.58951">
        <ele>2077</ele>
        <time>2017-09-17T13:07:27Z</time>
      </trkpt>
      <trkpt lat="44.14218" lon="7.58951">
        <ele>2077</ele>
        <time>2017-09-17T13:07:28Z</time>
      </trkpt>
      <trkpt lat="44.14222" lon="7.58952">
        <ele>2077</ele>
        <time>2017-09-17T13:07:29Z</time>
      </trkpt>
      <trkpt lat="44.14226" lon="7.58951">
        <ele>2078</ele>
        <time>2017-09-17T13:07:30Z</time>
      </trkpt>
      <trkpt lat="44.1423" lon="7.58951">
        <ele>2078</ele>
        <time>2017-09-17T13:07:31Z</time>
      </trkpt>
      <trkpt lat="44.14234" lon="7.58949">
        <ele>2078</ele>
        <time>2017-09-17T13:07:32Z</time>
      </trkpt>
      <trkpt lat="44.14238" lon="7.58949">
        <ele>2078</ele>
        <time>2017-09-17T13:07:33Z</time>
      </trkpt>
      <trkpt lat="44.14242" lon="7.58948">
        <ele>2078</ele>
        <time>2017-09-17T13:07:34Z</time>
      </trkpt>
      <trkpt lat="44.14245" lon="7.58949">
        <ele>2079</ele>
        <time>2017-09-17T13:07:35Z</time>
      </trkpt>
      <trkpt lat="44.14249" lon="7.58949">
        <ele>2079</ele>
        <time>2017-09-17T13:07:36Z</time>
      </trkpt>
      <trkpt lat="44.14253" lon="7.5895">
        <ele>2079</ele>
        <time>2017-09-17T13:07:37Z</time>
      </trkpt>
      <trkpt lat="44.14257" lon="7.58951">
        <ele>2080</ele>
        <time>2017-09-17T13:07:38Z</time>
      </trkpt>
      <trkpt lat="44.14261" lon="7.58952">
        <ele>2080</ele>
        <time>2017-09-17T13:07:39Z</time>
      </trkpt>
      <trkpt lat="44.14264" lon="7.58953">
        <ele>2080</ele>
        <time>2017-09-17T13:07:40Z</time>
      </trkpt>
      <trkpt lat="44.14268" lon="7.58953">
        <ele>2080</ele>
        <time>2017-09-17T13:07:41Z</time>
      </trkpt>
      <trkpt lat="44.14272" lon="7.58954">
        <ele>2081</ele>
        <time>2017-09-17T13:07:42Z</time>
      </trkpt>
      <trkpt lat="44.14275" lon="7.58956">
        <ele>2081</ele>
        <time>2017-09-17T13:07:43Z</time>
      </trkpt>
      <trkpt lat="44.14279" lon="7.58958">
        <ele>2081</ele>
        <time>2017-09-17T13:07:44Z</time>
      </trkpt>
      <trkpt lat="44.14282" lon="7.58961">
        <ele>2081</ele>
        <time>2017-09-17T13:07:45Z</time>
      </trkpt>
      <trkpt lat="44.14286" lon="7.58964">
        <ele>2082</ele>
        <time>2017-09-17T13:07:46Z</time>
      </trkpt>
      <trkpt lat="44.14289" lon="7.58967">
        <ele>2082</ele>
        <time>2017-09-17T13:07:47Z</time>
      </trkpt>
      <trkpt lat="44.14293" lon="7.58971">
        <ele>2082</ele>
        <time>2017-09-17T13:07:48Z</time>
      </trkpt>
      <trkpt lat="44.14296" lon="7.58975">
        <ele>2083</ele>
        <time>2017-09-17T13:07:49Z</time>
      </trkpt>
      <trkpt lat="44.143" lon="7.58979">
        <ele>2083</ele>
        <time>2017-09-17T13:07:50Z</time>
      </trkpt>
      <trkpt lat="44.14303" lon="7.58984">
        <ele>2083</ele>
        <time>2017-09-17T13:07:51Z</time>
      </trkpt>
      <trkpt lat="44.14307" lon="7.58989">
        <ele>2083</ele>
        <time>2017-09-17T13:07:52Z</time>
      </trkpt>
      <trkpt lat="44.14311" lon="7.58993">
        <ele>2083</ele>
        <time>2017-09-17T13:07:53Z</time>
      </trkpt>
      <trkpt lat="44.14315" lon="7.58997">
        <ele>2084</ele>
        <time>2017-09-17T13:07:54Z</time>
      </trkpt>
      <trkpt lat="44.1432" lon="7.59001">
        <ele>2084</ele>
        <time>2017-09-17T13:07:55Z</time>
      </trkpt>
      <trkpt lat="44.14324" lon="7.59005">
        <ele>2084</ele>
        <time>2017-09-17T13:07:56Z</time>
      </trkpt>
      <trkpt lat="44.14328" lon="7.59009">
        <ele>2084</ele>
        <time>2017-09-17T13:07:57Z</time>
      </trkpt>
      <trkpt lat="44.14332" lon="7.59013">
        <ele>2085</ele>
        <time>2017-09-17T13:07:58Z</time>
      </trkpt>
      <trkpt lat="44.14336" lon="7.59017">
        <ele>2085</ele>
        <time>2017-09-17T13:07:59Z</time>
      </trkpt>
      <trkpt lat="44.1434" lon="7.59021">
        <ele>2085</ele>
        <time>2017-09-17T13:08:00Z</time>
      </trkpt>
      <trkpt lat="44.14344" lon="7.59025">
        <ele>2086</ele>
        <time>2017-09-17T13:08:01Z</time>
      </trkpt>
      <trkpt lat="44.14348" lon="7.59029">
        <ele>2086</ele>
        <time>2017-09-17T13:08:02Z</time>
      </trkpt>
      <trkpt lat="44.14352" lon="7.59032">
        <ele>2086</ele>
        <time>2017-09-17T13:08:03Z</time>
      </trkpt>
      <trkpt lat="44.14356" lon="7.59035">
        <ele>2087</ele>
        <time>2017-09-17T13:08:04Z</time>
      </trkpt>
      <trkpt lat="44.14361" lon="7.59037">
        <ele>2087</ele>
        <time>2017-09-17T13:08:05Z</time>
      </trkpt>
      <trkpt lat="44.14365" lon="7.59039">
        <ele>2087</ele>
        <time>2017-09-17T13:08:06Z</time>
      </trkpt>
      <trkpt lat="44.14368" lon="7.59042">
        <ele>2088</ele>
        <time>2017-09-17T13:08:07Z</time>
      </trkpt>
      <trkpt lat="44.14372" lon="7.59044">
        <ele>2088</ele>
        <time>2017-09-17T13:08:08Z</time>
      </trkpt>
      <trkpt lat="44.14376" lon="7.59046">
        <ele>2089</ele>
        <time>2017-09-17T13:08:09Z</time>
      </trkpt>
      <trkpt lat="44.14379" lon="7.59048">
        <ele>2089</ele>
        <time>2017-09-17T13:08:10Z</time>
      </trkpt>
      <trkpt lat="44.14383" lon="7.5905">
        <ele>2089</ele>
        <time>2017-09-17T13:08:11Z</time>
      </trkpt>
      <trkpt lat="44.14386" lon="7.59052">
        <ele>2090</ele>
        <time>2017-09-17T13:08:12Z</time>
      </trkpt>
      <trkpt lat="44.1439" lon="7.59053">
        <ele>2090</ele>
        <time>2017-09-17T13:08:13Z</time>
      </trkpt>
      <trkpt lat="44.14393" lon="7.59055">
        <ele>2090</ele>
        <time>2017-09-17T13:08:14Z</time>
      </trkpt>
      <trkpt lat="44.14397" lon="7.59056">
        <ele>2091</ele>
        <time>2017-09-17T13:08:15Z</time>
      </trkpt>
      <trkpt lat="44.144" lon="7.59058">
        <ele>2091</ele>
        <time>2017-09-17T13:08:16Z</time>
      </trkpt>
      <trkpt lat="44.14404" lon="7.5906">
        <ele>2091</ele>
        <time>2017-09-17T13:08:17Z</time>
      </trkpt>
      <trkpt lat="44.14407" lon="7.59062">
        <ele>2092</ele>
        <time>2017-09-17T13:08:18Z</time>
      </trkpt>
      <trkpt lat="44.1441" lon="7.59064">
        <ele>2092</ele>
        <time>2017-09-17T13:08:19Z</time>
      </trkpt>
      <trkpt lat="44.14414" lon="7.59066">
        <ele>2092</ele>
        <time>2017-09-17T13:08:20Z</time>
      </trkpt>
      <trkpt lat="44.14418" lon="7.59068">
        <ele>2093</ele>
        <time>2017-09-17T13:08:21Z</time>
      </trkpt>
      <trkpt lat="44.14421" lon="7.5907">
        <ele>2093</ele>
        <time>2017-09-17T13:08:22Z</time>
      </trkpt>
      <trkpt lat="44.14425" lon="7.59071">
        <ele>2093</ele>
        <time>2017-09-17T13:08:23Z</time>
      </trkpt>
      <trkpt lat="44.14429" lon="7.59073">
        <ele>2093</ele>
        <time>2017-09-17T13:08:24Z</time>
      </trkpt>
      <trkpt lat="44.14433" lon="7.59075">
        <ele>2093</ele>
        <time>2017-09-17T13:08:25Z</time>
      </trkpt>
      <trkpt lat="44.14436" lon="7.59077">
        <ele>2094</ele>
        <time>2017-09-17T13:08:26Z</time>
      </trkpt>
      <trkpt lat="44.1444" lon="7.59079">
        <ele>2094</ele>
        <time>2017-09-17T13:08:27Z</time>
      </trkpt>
      <trkpt lat="44.14444" lon="7.59081">
        <ele>2094</ele>
        <time>2017-09-17T13:08:28Z</time>
      </trkpt>
      <trkpt lat="44.14447" lon="7.59083">
        <ele>2094</ele>
        <time>2017-09-17T13:08:29Z</time>
      </trkpt>
      <trkpt lat="44.14451" lon="7.59085">
        <ele>2095</ele>
        <time>2017-09-17T13:08:30Z</time>
      </trkpt>
      <trkpt lat="44.14455" lon="7.59086">
        <ele>2095</ele>
        <time>2017-09-17T13:08:31Z</time>
      </trkpt>
      <trkpt lat="44.14459" lon="7.59087">
        <ele>2095</ele>
        <time>2017-09-17T13:08:32Z</time>
      </trkpt>
      <trkpt lat="44.14464" lon="7.59087">
        <ele>2095</ele>
        <time>2017-09-17T13:08:33Z</time>
      </trkpt>
      <trkpt lat="44.14468" lon="7.59086">
        <ele>2095</ele>
        <time>2017-09-17T13:08:34Z</time>
      </trkpt>
      <trkpt lat="44.14472" lon="7.59086">
        <ele>2095</ele>
        <time>2017-09-17T13:08:35Z</time>
      </trkpt>
      <trkpt lat="44.14476" lon="7.59085">
        <ele>2096</ele>
        <time>2017-09-17T13:08:36Z</time>
      </trkpt>
      <trkpt lat="44.1448" lon="7.59085">
        <ele>2096</ele>
        <time>2017-09-17T13:08:37Z</time>
      </trkpt>
      <trkpt lat="44.14484" lon="7.59085">
        <ele>2096</ele>
        <time>2017-09-17T13:08:38Z</time>
      </trkpt>
      <trkpt lat="44.14489" lon="7.59085">
        <ele>2096</ele>
        <time>2017-09-17T13:08:39Z</time>
      </trkpt>
      <trkpt lat="44.14493" lon="7.59086">
        <ele>2097</ele>
        <time>2017-09-17T13:08:40Z</time>
      </trkpt>
      <trkpt lat="44.14497" lon="7.59087">
        <ele>2097</ele>
        <time>2017-09-17T13:08:41Z</time>
      </trkpt>
      <trkpt lat="44.14501" lon="7.59088">
        <ele>2097</ele>
        <time>2017-09-17T13:08:42Z</time>
      </trkpt>
      <trkpt lat="44.14505" lon="7.5909">
        <ele>2097</ele>
        <time>2017-09-17T13:08:43Z</time>
      </trkpt>
      <trkpt lat="44.14509" lon="7.59092">
        <ele>2098</ele>
        <time>2017-09-17T13:08:44Z</time>
      </trkpt>
      <trkpt lat="44.14513" lon="7.59094">
        <ele>2098</ele>
        <time>2017-09-17T13:08:45Z</time>
      </trkpt>
      <trkpt lat="44.14517" lon="7.59096">
        <ele>2098</ele>
        <time>2017-09-17T13:08:46Z</time>
      </trkpt>
      <trkpt lat="44.14521" lon="7.59098">
        <ele>2099</ele>
        <time>2017-09-17T13:08:47Z</time>
      </trkpt>
      <trkpt lat="44.14525" lon="7.591">
        <ele>2099</ele>
        <time>2017-09-17T13:08:48Z</time>
      </trkpt>
      <trkpt lat="44.14529" lon="7.59102">
        <ele>2099</ele>
        <time>2017-09-17T13:08:49Z</time>
      </trkpt>
      <trkpt lat="44.14533" lon="7.59104">
        <ele>2099</ele>
        <time>2017-09-17T13:08:50Z</time>
      </trkpt>
      <trkpt lat="44.14537" lon="7.59106">
        <ele>2100</ele>
        <time>2017-09-17T13:08:51Z</time>
      </trkpt>
      <trkpt lat="44.14542" lon="7.59107">
        <ele>2100</ele>
        <time>2017-09-17T13:08:52Z</time>
      </trkpt>
      <trkpt lat="44.14546" lon="7.59109">
        <ele>2100</ele>
        <time>2017-09-17T13:08:53Z</time>
      </trkpt>
      <trkpt lat="44.1455" lon="7.5911">
        <ele>2101</ele>
        <time>2017-09-17T13:08:54Z</time>
      </trkpt>
      <trkpt lat="44.14554" lon="7.59111">
        <ele>2101</ele>
        <time>2017-09-17T13:08:55Z</time>
      </trkpt>
      <trkpt lat="44.14558" lon="7.59112">
        <ele>2102</ele>
        <time>2017-09-17T13:08:56Z</time>
      </trkpt>
      <trkpt lat="44.14562" lon="7.59114">
        <ele>2102</ele>
        <time>2017-09-17T13:08:57Z</time>
      </trkpt>
      <trkpt lat="44.14566" lon="7.59115">
        <ele>2102</ele>
        <time>2017-09-17T13:08:58Z</time>
      </trkpt>
      <trkpt lat="44.14569" lon="7.59116">
        <ele>2102</ele>
        <time>2017-09-17T13:08:59Z</time>
      </trkpt>
      <trkpt lat="44.14573" lon="7.59117">
        <ele>2103</ele>
        <time>2017-09-17T13:09:00Z</time>
      </trkpt>
      <trkpt lat="44.14577" lon="7.59117">
        <ele>2103</ele>
        <time>2017-09-17T13:09:01Z</time>
      </trkpt>
      <trkpt lat="44.14581" lon="7.59118">
        <ele>2104</ele>
        <time>2017-09-17T13:09:02Z</time>
      </trkpt>
      <trkpt lat="44.14585" lon="7.59118">
        <ele>2104</ele>
        <time>2017-09-17T13:09:03Z</time>
      </trkpt>
      <trkpt lat="44.14588" lon="7.59118">
        <ele>2104</ele>
        <time>2017-09-17T13:09:04Z</time>
      </trkpt>
      <trkpt lat="44.14592" lon="7.59118">
        <ele>2105</ele>
        <time>2017-09-17T13:09:05Z</time>
      </trkpt>
      <trkpt lat="44.14596" lon="7.59119">
        <ele>2105</ele>
        <time>2017-09-17T13:09:06Z</time>
      </trkpt>
      <trkpt lat="44.14599" lon="7.59119">
        <ele>2106</ele>
        <time>2017-09-17T13:09:07Z</time>
      </trkpt>
      <trkpt lat="44.14603" lon="7.59119">
        <ele>2106</ele>
        <time>2017-09-17T13:09:08Z</time>
      </trkpt>
      <trkpt lat="44.14606" lon="7.5912">
        <ele>2106</ele>
        <time>2017-09-17T13:09:09Z</time>
      </trkpt>
      <trkpt lat="44.14609" lon="7.5912">
        <ele>2107</ele>
        <time>2017-09-17T13:09:10Z</time>
      </trkpt>
      <trkpt lat="44.14613" lon="7.5912">
        <ele>2107</ele>
        <time>2017-09-17T13:09:11Z</time>
      </trkpt>
      <trkpt lat="44.14616" lon="7.59119">
        <ele>2108</ele>
        <time>2017-09-17T13:09:12Z</time>
      </trkpt>
      <trkpt lat="44.14619" lon="7.59119">
        <ele>2108</ele>
        <time>2017-09-17T13:09:13Z</time>
      </trkpt>
      <trkpt lat="44.14622" lon="7.59119">
        <ele>2109</ele>
        <time>2017-09-17T13:09:14Z</time>
      </trkpt>
      <trkpt lat="44.14626" lon="7.59118">
        <ele>2109</ele>
        <time>2017-09-17T13:09:15Z</time>
      </trkpt>
      <trkpt lat="44.14629" lon="7.59118">
        <ele>2109</ele>
        <time>2017-09-17T13:09:16Z</time>
      </trkpt>
      <trkpt lat="44.14632" lon="7.59118">
        <ele>2110</ele>
        <time>2017-09-17T13:09:17Z</time>
      </trkpt>
      <trkpt lat="44.14636" lon="7.59118">
        <ele>2110</ele>
        <time>2017-09-17T13:09:18Z</time>
      </trkpt>
      <trkpt lat="44.14639" lon="7.59117">
        <ele>2111</ele>
        <time>2017-09-17T13:09:19Z</time>
      </trkpt>
      <trkpt lat="44.14642" lon="7.59117">
        <ele>2111</ele>
        <time>2017-09-17T13:09:20Z</time>
      </trkpt>
      <trkpt lat="44.14645" lon="7.59117">
        <ele>2111</ele>
        <time>2017-09-17T13:09:21Z</time>
      </trkpt>
      <trkpt lat="44.14649" lon="7.59116">
        <ele>2112</ele>
        <time>2017-09-17T13:09:22Z</time>
      </trkpt>
      <trkpt lat="44.14652" lon="7.59116">
        <ele>2112</ele>
        <time>2017-09-17T13:09:23Z</time>
      </trkpt>
      <trkpt lat="44.14655" lon="7.59116">
        <ele>2112</ele>
        <time>2017-09-17T13:09:24Z</time>
      </trkpt>
      <trkpt lat="44.14659" lon="7.59116">
        <ele>2113</ele>
        <time>2017-09-17T13:09:25Z</time>
      </trkpt>
      <trkpt lat="44.14662" lon="7.59116">
        <ele>2113</ele>
        <time>2017-09-17T13:09:26Z</time>
      </trkpt>
      <trkpt lat="44.14665" lon="7.59116">
        <ele>2114</ele>
        <time>2017-09-17T13:09:27Z</time>
      </trkpt>
      <trkpt lat="44.14668" lon="7.59115">
        <ele>2114</ele>
        <time>2017-09-17T13:09:28Z</time>
      </trkpt>
      <trkpt lat="44.14672" lon="7.59115">
        <ele>2114</ele>
        <time>2017-09-17T13:09:29Z</time>
      </trkpt>
      <trkpt lat="44.14675" lon="7.59115">
        <ele>2115</ele>
        <time>2017-09-17T13:09:30Z</time>
      </trkpt>
      <trkpt lat="44.14678" lon="7.59115">
        <ele>2115</ele>
        <time>2017-09-17T13:09:31Z</time>
      </trkpt>
      <trkpt lat="44.14681" lon="7.59115">
        <ele>2116</ele>
        <time>2017-09-17T13:09:32Z</time>
      </trkpt>
      <trkpt lat="44.14685" lon="7.59115">
        <ele>2116</ele>
        <time>2017-09-17T13:09:33Z</time>
      </trkpt>
      <trkpt lat="44.14688" lon="7.59115">
        <ele>2116</ele>
        <time>2017-09-17T13:09:34Z</time>
      </trkpt>
      <trkpt lat="44.14691" lon="7.59115">
        <ele>2117</ele>
        <time>2017-09-17T13:09:35Z</time>
      </trkpt>
      <trkpt lat="44.14695" lon="7.59115">
        <ele>2117</ele>
        <time>2017-09-17T13:09:36Z</time>
      </trkpt>
      <trkpt lat="44.14698" lon="7.59115">
        <ele>2118</ele>
        <time>2017-09-17T13:09:37Z</time>
      </trkpt>
      <trkpt lat="44.14701" lon="7.59116">
        <ele>2118</ele>
        <time>2017-09-17T13:09:38Z</time>
      </trkpt>
      <trkpt lat="44.14704" lon="7.59116">
        <ele>2119</ele>
        <time>2017-09-17T13:09:39Z</time>
      </trkpt>
      <trkpt lat="44.14707" lon="7.59117">
        <ele>2119</ele>
        <time>2017-09-17T13:09:40Z</time>
      </trkpt>
      <trkpt lat="44.14711" lon="7.59117">
        <ele>2119</ele>
        <time>2017-09-17T13:09:41Z</time>
      </trkpt>
      <trkpt lat="44.14714" lon="7.59117">
        <ele>2120</ele>
        <time>2017-09-17T13:09:42Z</time>
      </trkpt>
      <trkpt lat="44.14717" lon="7.59116">
        <ele>2120</ele>
        <time>2017-09-17T13:09:43Z</time>
      </trkpt>
      <trkpt lat="44.14721" lon="7.59116">
        <ele>2120</ele>
        <time>2017-09-17T13:09:44Z</time>
      </trkpt>
      <trkpt lat="44.14724" lon="7.59115">
        <ele>2121</ele>
        <time>2017-09-17T13:09:45Z</time>
      </trkpt>
      <trkpt lat="44.14727" lon="7.59114">
        <ele>2121</ele>
        <time>2017-09-17T13:09:46Z</time>
      </trkpt>
      <trkpt lat="44.14731" lon="7.59114">
        <ele>2122</ele>
        <time>2017-09-17T13:09:47Z</time>
      </trkpt>
      <trkpt lat="44.14734" lon="7.59112">
        <ele>2122</ele>
        <time>2017-09-17T13:09:48Z</time>
      </trkpt>
      <trkpt lat="44.14738" lon="7.59111">
        <ele>2122</ele>
        <time>2017-09-17T13:09:49Z</time>
      </trkpt>
      <trkpt lat="44.14741" lon="7.59109">
        <ele>2123</ele>
        <time>2017-09-17T13:09:50Z</time>
      </trkpt>
      <trkpt lat="44.14744" lon="7.59108">
        <ele>2123</ele>
        <time>2017-09-17T13:09:51Z</time>
      </trkpt>
      <trkpt lat="44.14747" lon="7.59106">
        <ele>2123</ele>
        <time>2017-09-17T13:09:52Z</time>
      </trkpt>
      <trkpt lat="44.1475" lon="7.59104">
        <ele>2124</ele>
        <time>2017-09-17T13:09:53Z</time>
      </trkpt>
      <trkpt lat="44.14753" lon="7.59102">
        <ele>2124</ele>
        <time>2017-09-17T13:09:54Z</time>
      </trkpt>
      <trkpt lat="44.14757" lon="7.591">
        <ele>2125</ele>
        <time>2017-09-17T13:09:55Z</time>
      </trkpt>
      <trkpt lat="44.1476" lon="7.59099">
        <ele>2125</ele>
        <time>2017-09-17T13:09:56Z</time>
      </trkpt>
      <trkpt lat="44.14763" lon="7.59098">
        <ele>2126</ele>
        <time>2017-09-17T13:09:57Z</time>
      </trkpt>
      <trkpt lat="44.14766" lon="7.59098">
        <ele>2126</ele>
        <time>2017-09-17T13:09:58Z</time>
      </trkpt>
      <trkpt lat="44.1477" lon="7.59098">
        <ele>2126</ele>
        <time>2017-09-17T13:09:59Z</time>
      </trkpt>
      <trkpt lat="44.14773" lon="7.59098">
        <ele>2127</ele>
        <time>2017-09-17T13:10:00Z</time>
      </trkpt>
      <trkpt lat="44.14776" lon="7.59098">
        <ele>2127</ele>
        <time>2017-09-17T13:10:01Z</time>
      </trkpt>
      <trkpt lat="44.1478" lon="7.59098">
        <ele>2128</ele>
        <time>2017-09-17T13:10:02Z</time>
      </trkpt>
      <trkpt lat="44.14783" lon="7.59098">
        <ele>2128</ele>
        <time>2017-09-17T13:10:03Z</time>
      </trkpt>
      <trkpt lat="44.14786" lon="7.59096">
        <ele>2129</ele>
        <time>2017-09-17T13:10:04Z</time>
      </trkpt>
      <trkpt lat="44.14788" lon="7.59094">
        <ele>2129</ele>
        <time>2017-09-17T13:10:05Z</time>
      </trkpt>
      <trkpt lat="44.1479" lon="7.59091">
        <ele>2130</ele>
        <time>2017-09-17T13:10:06Z</time>
      </trkpt>
      <trkpt lat="44.14792" lon="7.59087">
        <ele>2130</ele>
        <time>2017-09-17T13:10:07Z</time>
      </trkpt>
      <trkpt lat="44.14793" lon="7.59082">
        <ele>2130</ele>
        <time>2017-09-17T13:10:08Z</time>
      </trkpt>
      <trkpt lat="44.14794" lon="7.59077">
        <ele>2131</ele>
        <time>2017-09-17T13:10:09Z</time>
      </trkpt>
      <trkpt lat="44.14795" lon="7.59072">
        <ele>2131</ele>
        <time>2017-09-17T13:10:10Z</time>
      </trkpt>
      <trkpt lat="44.14796" lon="7.59067">
        <ele>2131</ele>
        <time>2017-09-17T13:10:11Z</time>
      </trkpt>
      <trkpt lat="44.14797" lon="7.59063">
        <ele>2131</ele>
        <time>2017-09-17T13:10:12Z</time>
      </trkpt>
      <trkpt lat="44.14799" lon="7.59059">
        <ele>2132</ele>
        <time>2017-09-17T13:10:13Z</time>
      </trkpt>
      <trkpt lat="44.14801" lon="7.59055">
        <ele>2132</ele>
        <time>2017-09-17T13:10:14Z</time>
      </trkpt>
      <trkpt lat="44.14804" lon="7.59052">
        <ele>2132</ele>
        <time>2017-09-17T13:10:15Z</time>
      </trkpt>
      <trkpt lat="44.14807" lon="7.5905">
        <ele>2133</ele>
        <time>2017-09-17T13:10:16Z</time>
      </trkpt>
      <trkpt lat="44.14809" lon="7.59047">
        <ele>2133</ele>
        <time>2017-09-17T13:10:17Z</time>
      </trkpt>
      <trkpt lat="44.14812" lon="7.59044">
        <ele>2133</ele>
        <time>2017-09-17T13:10:18Z</time>
      </trkpt>
      <trkpt lat="44.14816" lon="7.59042">
        <ele>2134</ele>
        <time>2017-09-17T13:10:19Z</time>
      </trkpt>
      <trkpt lat="44.14819" lon="7.5904">
        <ele>2134</ele>
        <time>2017-09-17T13:10:20Z</time>
      </trkpt>
      <trkpt lat="44.14822" lon="7.59038">
        <ele>2134</ele>
        <time>2017-09-17T13:10:21Z</time>
      </trkpt>
      <trkpt lat="44.14825" lon="7.59037">
        <ele>2134</ele>
        <time>2017-09-17T13:10:22Z</time>
      </trkpt>
      <trkpt lat="44.14828" lon="7.59036">
        <ele>2135</ele>
        <time>2017-09-17T13:10:23Z</time>
      </trkpt>
      <trkpt lat="44.14832" lon="7.59035">
        <ele>2135</ele>
        <time>2017-09-17T13:10:24Z</time>
      </trkpt>
      <trkpt lat="44.14835" lon="7.59034">
        <ele>2135</ele>
        <time>2017-09-17T13:10:25Z</time>
      </trkpt>
      <trkpt lat="44.14838" lon="7.59033">
        <ele>2136</ele>
        <time>2017-09-17T13:10:26Z</time>
      </trkpt>
      <trkpt lat="44.14841" lon="7.59032">
        <ele>2136</ele>
        <time>2017-09-17T13:10:27Z</time>
      </trkpt>
      <trkpt lat="44.14845" lon="7.59031">
        <ele>2136</ele>
        <time>2017-09-17T13:10:28Z</time>
      </trkpt>
      <trkpt lat="44.14848" lon="7.5903">
        <ele>2136</ele>
        <time>2017-09-17T13:10:29Z</time>
      </trkpt>
      <trkpt lat="44.14851" lon="7.59029">
        <ele>2137</ele>
        <time>2017-09-17T13:10:30Z</time>
      </trkpt>
      <trkpt lat="44.14854" lon="7.59028">
        <ele>2137</ele>
        <time>2017-09-17T13:10:31Z</time>
      </trkpt>
      <trkpt lat="44.14858" lon="7.59028">
        <ele>2137</ele>
        <time>2017-09-17T13:10:32Z</time>
      </trkpt>
      <trkpt lat="44.14861" lon="7.59027">
        <ele>2138</ele>
        <time>2017-09-17T13:10:33Z</time>
      </trkpt>
      <trkpt lat="44.14864" lon="7.59027">
        <ele>2138</ele>
        <time>2017-09-17T13:10:34Z</time>
      </trkpt>
      <trkpt lat="44.14868" lon="7.59026">
        <ele>2139</ele>
        <time>2017-09-17T13:10:35Z</time>
      </trkpt>
      <trkpt lat="44.14871" lon="7.59026">
        <ele>2139</ele>
        <time>2017-09-17T13:10:36Z</time>
      </trkpt>
      <trkpt lat="44.14874" lon="7.59026">
        <ele>2140</ele>
        <time>2017-09-17T13:10:37Z</time>
      </trkpt>
      <trkpt lat="44.14878" lon="7.59026">
        <ele>2140</ele>
        <time>2017-09-17T13:10:38Z</time>
      </trkpt>
      <trkpt lat="44.14881" lon="7.59025">
        <ele>2140</ele>
        <time>2017-09-17T13:10:39Z</time>
      </trkpt>
      <trkpt lat="44.14884" lon="7.59025">
        <ele>2141</ele>
        <time>2017-09-17T13:10:40Z</time>
      </trkpt>
      <trkpt lat="44.14888" lon="7.59025">
        <ele>2141</ele>
        <time>2017-09-17T13:10:41Z</time>
      </trkpt>
      <trkpt lat="44.14891" lon="7.59025">
        <ele>2142</ele>
        <time>2017-09-17T13:10:42Z</time>
      </trkpt>
      <trkpt lat="44.14894" lon="7.59025">
        <ele>2142</ele>
        <time>2017-09-17T13:10:43Z</time>
      </trkpt>
      <trkpt lat="44.14897" lon="7.59025">
        <ele>2143</ele>
        <time>2017-09-17T13:10:44Z</time>
      </trkpt>
      <trkpt lat="44.149" lon="7.59025">
        <ele>2143</ele>
        <time>2017-09-17T13:10:45Z</time>
      </trkpt>
      <trkpt lat="44.14903" lon="7.59025">
        <ele>2143</ele>
        <time>2017-09-17T13:10:46Z</time>
      </trkpt>
      <trkpt lat="44.14906" lon="7.59025">
        <ele>2144</ele>
        <time>2017-09-17T13:10:47Z</time>
      </trkpt>
      <trkpt lat="44.1491" lon="7.59025">
        <ele>2144</ele>
        <time>2017-09-17T13:10:48Z</time>
      </trkpt>
      <trkpt lat="44.14913" lon="7.59024">
        <ele>2145</ele>
        <time>2017-09-17T13:10:49Z</time>
      </trkpt>
      <trkpt lat="44.14917" lon="7.59024">
        <ele>2145</ele>
        <time>2017-09-17T13:10:50Z</time>
      </trkpt>
      <trkpt lat="44.1492" lon="7.59023">
        <ele>2145</ele>
        <time>2017-09-17T13:10:51Z</time>
      </trkpt>
      <trkpt lat="44.14923" lon="7.59022">
        <ele>2146</ele>
        <time>2017-09-17T13:10:52Z</time>
      </trkpt>
      <trkpt lat="44.14926" lon="7.59022">
        <ele>2146</ele>
        <time>2017-09-17T13:10:53Z</time>
      </trkpt>
      <trkpt lat="44.14929" lon="7.59022">
        <ele>2146</ele>
        <time>2017-09-17T13:10:54Z</time>
      </trkpt>
      <trkpt lat="44.14931" lon="7.59022">
        <ele>2147</ele>
        <time>2017-09-17T13:10:55Z</time>
      </trkpt>
      <trkpt lat="44.14934" lon="7.59022">
        <ele>2147</ele>
        <time>2017-09-17T13:10:56Z</time>
      </trkpt>
      <trkpt lat="44.14937" lon="7.59021">
        <ele>2147</ele>
        <time>2017-09-17T13:10:57Z</time>
      </trkpt>
      <trkpt lat="44.1494" lon="7.59021">
        <ele>2148</ele>
        <time>2017-09-17T13:10:58Z</time>
      </trkpt>
      <trkpt lat="44.14943" lon="7.5902">
        <ele>2148</ele>
        <time>2017-09-17T13:10:59Z</time>
      </trkpt>
      <trkpt lat="44.14946" lon="7.59019">
        <ele>2148</ele>
        <time>2017-09-17T13:11:00Z</time>
      </trkpt>
      <trkpt lat="44.1495" lon="7.59017">
        <ele>2149</ele>
        <time>2017-09-17T13:11:01Z</time>
      </trkpt>
      <trkpt lat="44.14954" lon="7.59016">
        <ele>2149</ele>
        <time>2017-09-17T13:11:02Z</time>
      </trkpt>
      <trkpt lat="44.14957" lon="7.59014">
        <ele>2149</ele>
        <time>2017-09-17T13:11:03Z</time>
      </trkpt>
      <trkpt lat="44.14961" lon="7.59013">
        <ele>2150</ele>
        <time>2017-09-17T13:11:04Z</time>
      </trkpt>
      <trkpt lat="44.14964" lon="7.59012">
        <ele>2150</ele>
        <time>2017-09-17T13:11:05Z</time>
      </trkpt>
      <trkpt lat="44.14968" lon="7.59011">
        <ele>2150</ele>
        <time>2017-09-17T13:11:06Z</time>
      </trkpt>
      <trkpt lat="44.14971" lon="7.5901">
        <ele>2151</ele>
        <time>2017-09-17T13:11:07Z</time>
      </trkpt>
      <trkpt lat="44.14974" lon="7.59009">
        <ele>2151</ele>
        <time>2017-09-17T13:11:08Z</time>
      </trkpt>
      <trkpt lat="44.14977" lon="7.59008">
        <ele>2152</ele>
        <time>2017-09-17T13:11:09Z</time>
      </trkpt>
      <trkpt lat="44.1498" lon="7.59007">
        <ele>2152</ele>
        <time>2017-09-17T13:11:10Z</time>
      </trkpt>
      <trkpt lat="44.14983" lon="7.59006">
        <ele>2152</ele>
        <time>2017-09-17T13:11:11Z</time>
      </trkpt>
      <trkpt lat="44.14986" lon="7.59006">
        <ele>2153</ele>
        <time>2017-09-17T13:11:12Z</time>
      </trkpt>
      <trkpt lat="44.1499" lon="7.59006">
        <ele>2153</ele>
        <time>2017-09-17T13:11:13Z</time>
      </trkpt>
      <trkpt lat="44.14993" lon="7.59005">
        <ele>2154</ele>
        <time>2017-09-17T13:11:14Z</time>
      </trkpt>
      <trkpt lat="44.14996" lon="7.59003">
        <ele>2154</ele>
        <time>2017-09-17T13:11:15Z</time>
      </trkpt>
      <trkpt lat="44.14998" lon="7.59001">
        <ele>2154</ele>
        <time>2017-09-17T13:11:16Z</time>
      </trkpt>
      <trkpt lat="44.15001" lon="7.58997">
        <ele>2155</ele>
        <time>2017-09-17T13:11:17Z</time>
      </trkpt>
      <trkpt lat="44.15003" lon="7.58994">
        <ele>2155</ele>
        <time>2017-09-17T13:11:18Z</time>
      </trkpt>
      <trkpt lat="44.15005" lon="7.5899">
        <ele>2156</ele>
        <time>2017-09-17T13:11:19Z</time>
      </trkpt>
      <trkpt lat="44.15007" lon="7.58987">
        <ele>2156</ele>
        <time>2017-09-17T13:11:20Z</time>
      </trkpt>
      <trkpt lat="44.15009" lon="7.58985">
        <ele>2157</ele>
        <time>2017-09-17T13:11:21Z</time>
      </trkpt>
      <trkpt lat="44.15012" lon="7.58982">
        <ele>2157</ele>
        <time>2017-09-17T13:11:22Z</time>
      </trkpt>
      <trkpt lat="44.15015" lon="7.58979">
        <ele>2157</ele>
        <time>2017-09-17T13:11:23Z</time>
      </trkpt>
      <trkpt lat="44.15018" lon="7.58976">
        <ele>2157</ele>
        <time>2017-09-17T13:11:24Z</time>
      </trkpt>
      <trkpt lat="44.1502" lon="7.58973">
        <ele>2158</ele>
        <time>2017-09-17T13:11:25Z</time>
      </trkpt>
      <trkpt lat="44.15023" lon="7.5897">
        <ele>2158</ele>
        <time>2017-09-17T13:11:26Z</time>
      </trkpt>
      <trkpt lat="44.15026" lon="7.58967">
        <ele>2158</ele>
        <time>2017-09-17T13:11:27Z</time>
      </trkpt>
      <trkpt lat="44.15028" lon="7.58964">
        <ele>2159</ele>
        <time>2017-09-17T13:11:28Z</time>
      </trkpt>
      <trkpt lat="44.1503" lon="7.58962">
        <ele>2159</ele>
        <time>2017-09-17T13:11:29Z</time>
      </trkpt>
      <trkpt lat="44.15032" lon="7.5896">
        <ele>2159</ele>
        <time>2017-09-17T13:11:30Z</time>
      </trkpt>
      <trkpt lat="44.15032" lon="7.58959">
        <ele>2159</ele>
        <time>2017-09-17T13:11:31Z</time>
      </trkpt>
      <trkpt lat="44.15032" lon="7.58959">
        <ele>2159</ele>
        <time>2017-09-17T13:11:32Z</time>
      </trkpt>
      <trkpt lat="44.15033" lon="7.58959">
        <ele>2159</ele>
        <time>2017-09-17T13:11:33Z</time>
      </trkpt>
      <trkpt lat="44.15033" lon="7.58959">
        <ele>2160</ele>
        <time>2017-09-17T13:11:34Z</time>
      </trkpt>
      <trkpt lat="44.15034" lon="7.58958">
        <ele>2160</ele>
        <time>2017-09-17T13:11:35Z</time>
      </trkpt>
      <trkpt lat="44.15034" lon="7.58958">
        <ele>2160</ele>
        <time>2017-09-17T13:11:36Z</time>
      </trkpt>
      <trkpt lat="44.15034" lon="7.58958">
        <ele>2160</ele>
        <time>2017-09-17T13:11:37Z</time>
      </trkpt>
      <trkpt lat="44.15034" lon="7.58957">
        <ele>2160</ele>
        <time>2017-09-17T13:11:38Z</time>
      </trkpt>
      <trkpt lat="44.15034" lon="7.58958">
        <ele>2160</ele>
        <time>2017-09-17T13:11:39Z</time>
      </trkpt>
      <trkpt lat="44.15034" lon="7.58958">
        <ele>2160</ele>
        <time>2017-09-17T13:11:40Z</time>
      </trkpt>
      <trkpt lat="44.15034" lon="7.58958">
        <ele>2160</ele>
        <time>2017-09-17T13:11:41Z</time>
      </trkpt>
      <trkpt lat="44.15034" lon="7.58957">
        <ele>2160</ele>
        <time>2017-09-17T13:11:42Z</time>
      </trkpt>
      <trkpt lat="44.15034" lon="7.58957">
        <ele>2160</ele>
        <time>2017-09-17T13:11:43Z</time>
      </trkpt>
      <trkpt lat="44.15034" lon="7.58957">
        <ele>2160</ele>
        <time>2017-09-17T13:11:44Z</time>
      </trkpt>
      <trkpt lat="44.15034" lon="7.58958">
        <ele>2160</ele>
        <time>2017-09-17T13:11:45Z</time>
      </trkpt>
      <trkpt lat="44.15034" lon="7.58958">
        <ele>2160</ele>
        <time>2017-09-17T13:11:46Z</time>
      </trkpt>
      <trkpt lat="44.15034" lon="7.58958">
        <ele>2160</ele>
        <time>2017-09-17T13:11:47Z</time>
      </trkpt>
      <trkpt lat="44.15034" lon="7.58958">
        <ele>2160</ele>
        <time>2017-09-17T13:11:48Z</time>
      </trkpt>
      <trkpt lat="44.15034" lon="7.58958">
        <ele>2160</ele>
        <time>2017-09-17T13:11:49Z</time>
      </trkpt>
      <trkpt lat="44.15034" lon="7.58958">
        <ele>2160</ele>
        <time>2017-09-17T13:11:50Z</time>
      </trkpt>
      <trkpt lat="44.15034" lon="7.58958">
        <ele>2160</ele>
        <time>2017-09-17T13:11:51Z</time>
      </trkpt>
      <trkpt lat="44.15034" lon="7.58958">
        <ele>2160</ele>
        <time>2017-09-17T13:11:52Z</time>
      </trkpt>
      <trkpt lat="44.15034" lon="7.58958">
        <ele>2160</ele>
        <time>2017-09-17T13:11:53Z</time>
      </trkpt>
      <trkpt lat="44.15034" lon="7.58958">
        <ele>2160</ele>
        <time>2017-09-17T13:11:54Z</time>
      </trkpt>
      <trkpt lat="44.15034" lon="7.58958">
        <ele>2160</ele>
        <time>2017-09-17T13:11:55Z</time>
      </trkpt>
      <trkpt lat="44.15034" lon="7.58958">
        <ele>2160</ele>
        <time>2017-09-17T13:11:56Z</time>
      </trkpt>
      <trkpt lat="44.15034" lon="7.58958">
        <ele>2160</ele>
        <time>2017-09-17T13:11:57Z</time>
      </trkpt>
      <trkpt lat="44.15034" lon="7.58958">
        <ele>2160</ele>
        <time>2017-09-17T13:11:58Z</time>
      </trkpt>
      <trkpt lat="44.15034" lon="7.58958">
        <ele>2160</ele>
        <time>2017-09-17T13:11:59Z</time>
      </trkpt>
      <trkpt lat="44.15034" lon="7.58958">
        <ele>2160</ele>
        <time>2017-09-17T13:12:00Z</time>
      </trkpt>
      <trkpt lat="44.15034" lon="7.58958">
        <ele>2160</ele>
        <time>2017-09-17T13:12:01Z</time>
      </trkpt>
      <trkpt lat="44.15034" lon="7.58958">
        <ele>2160</ele>
        <time>2017-09-17T13:12:02Z</time>
      </trkpt>
      <trkpt lat="44.15034" lon="7.58958">
        <ele>2160</ele>
        <time>2017-09-17T13:12:03Z</time>
      </trkpt>
      <trkpt lat="44.15034" lon="7.58958">
        <ele>2160</ele>
        <time>2017-09-17T13:12:04Z</time>
      </trkpt>
      <trkpt lat="44.15034" lon="7.58958">
        <ele>2160</ele>
        <time>2017-09-17T13:12:05Z</time>
      </trkpt>
      <trkpt lat="44.15034" lon="7.58958">
        <ele>2160</ele>
        <time>2017-09-17T13:12:06Z</time>
      </trkpt>
      <trkpt lat="44.15034" lon="7.58958">
        <ele>2160</ele>
        <time>2017-09-17T13:12:07Z</time>
      </trkpt>
      <trkpt lat="44.15034" lon="7.58958">
        <ele>2160</ele>
        <time>2017-09-17T13:12:08Z</time>
      </trkpt>
      <trkpt lat="44.15034" lon="7.58958">
        <ele>2161</ele>
        <time>2017-09-17T13:12:09Z</time>
      </trkpt>
      <trkpt lat="44.15034" lon="7.58958">
        <ele>2161</ele>
        <time>2017-09-17T13:12:10Z</time>
      </trkpt>
      <trkpt lat="44.15034" lon="7.58958">
        <ele>2161</ele>
        <time>2017-09-17T13:12:11Z</time>
      </trkpt>
      <trkpt lat="44.15034" lon="7.58958">
        <ele>2161</ele>
        <time>2017-09-17T13:12:12Z</time>
      </trkpt>
      <trkpt lat="44.15034" lon="7.58958">
        <ele>2161</ele>
        <time>2017-09-17T13:12:13Z</time>
      </trkpt>
      <trkpt lat="44.15034" lon="7.58958">
        <ele>2161</ele>
        <time>2017-09-17T13:12:14Z</time>
      </trkpt>
      <trkpt lat="44.15034" lon="7.58958">
        <ele>2161</ele>
        <time>2017-09-17T13:12:15Z</time>
      </trkpt>
      <trkpt lat="44.15034" lon="7.58958">
        <ele>2161</ele>
        <time>2017-09-17T13:12:16Z</time>
      </trkpt>
      <trkpt lat="44.15033" lon="7.58957">
        <ele>2161</ele>
        <time>2017-09-17T13:12:17Z</time>
      </trkpt>
      <trkpt lat="44.15033" lon="7.58957">
        <ele>2161</ele>
        <time>2017-09-17T13:12:18Z</time>
      </trkpt>
      <trkpt lat="44.15034" lon="7.58956">
        <ele>2161</ele>
        <time>2017-09-17T13:12:19Z</time>
      </trkpt>
      <trkpt lat="44.15034" lon="7.58955">
        <ele>2161</ele>
        <time>2017-09-17T13:12:20Z</time>
      </trkpt>
      <trkpt lat="44.15034" lon="7.58954">
        <ele>2161</ele>
        <time>2017-09-17T13:12:21Z</time>
      </trkpt>
      <trkpt lat="44.15035" lon="7.58954">
        <ele>2161</ele>
        <time>2017-09-17T13:12:22Z</time>
      </trkpt>
      <trkpt lat="44.15036" lon="7.58953">
        <ele>2162</ele>
        <time>2017-09-17T13:12:23Z</time>
      </trkpt>
      <trkpt lat="44.15037" lon="7.58953">
        <ele>2162</ele>
        <time>2017-09-17T13:12:24Z</time>
      </trkpt>
      <trkpt lat="44.15038" lon="7.58953">
        <ele>2162</ele>
        <time>2017-09-17T13:12:25Z</time>
      </trkpt>
      <trkpt lat="44.15038" lon="7.58954">
        <ele>2162</ele>
        <time>2017-09-17T13:12:26Z</time>
      </trkpt>
      <trkpt lat="44.15038" lon="7.58955">
        <ele>2162</ele>
        <time>2017-09-17T13:12:27Z</time>
      </trkpt>
      <trkpt lat="44.15038" lon="7.58955">
        <ele>2162</ele>
        <time>2017-09-17T13:12:28Z</time>
      </trkpt>
      <trkpt lat="44.15038" lon="7.58955">
        <ele>2163</ele>
        <time>2017-09-17T13:12:29Z</time>
      </trkpt>
      <trkpt lat="44.15038" lon="7.58955">
        <ele>2163</ele>
        <time>2017-09-17T13:12:30Z</time>
      </trkpt>
      <trkpt lat="44.15038" lon="7.58955">
        <ele>2163</ele>
        <time>2017-09-17T13:12:31Z</time>
      </trkpt>
      <trkpt lat="44.15038" lon="7.58955">
        <ele>2163</ele>
        <time>2017-09-17T13:12:32Z</time>
      </trkpt>
      <trkpt lat="44.15038" lon="7.58955">
        <ele>2163</ele>
        <time>2017-09-17T13:12:33Z</time>
      </trkpt>
      <trkpt lat="44.15038" lon="7.58955">
        <ele>2163</ele>
        <time>2017-09-17T13:12:34Z</time>
      </trkpt>
      <trkpt lat="44.15038" lon="7.58955">
        <ele>2163</ele>
        <time>2017-09-17T13:12:35Z</time>
      </trkpt>
      <trkpt lat="44.15038" lon="7.58955">
        <ele>2163</ele>
        <time>2017-09-17T13:12:36Z</time>
      </trkpt>
      <trkpt lat="44.15038" lon="7.58955">
        <ele>2163</ele>
        <time>2017-09-17T13:12:37Z</time>
      </trkpt>
      <trkpt lat="44.15038" lon="7.58955">
        <ele>2164</ele>
        <time>2017-09-17T13:12:38Z</time>
      </trkpt>
      <trkpt lat="44.15038" lon="7.58955">
        <ele>2164</ele>
        <time>2017-09-17T13:12:39Z</time>
      </trkpt>
      <trkpt lat="44.15038" lon="7.58955">
        <ele>2164</ele>
        <time>2017-09-17T13:12:40Z</time>
      </trkpt>
      <trkpt lat="44.15038" lon="7.58955">
        <ele>2164</ele>
        <time>2017-09-17T13:12:41Z</time>
      </trkpt>
      <trkpt lat="44.15038" lon="7.58955">
        <ele>2164</ele>
        <time>2017-09-17T13:12:42Z</time>
      </trkpt>
      <trkpt lat="44.15038" lon="7.58955">
        <ele>2164</ele>
        <time>2017-09-17T13:12:43Z</time>
      </trkpt>
      <trkpt lat="44.15038" lon="7.58955">
        <ele>2164</ele>
        <time>2017-09-17T13:12:44Z</time>
      </trkpt>
      <trkpt lat="44.15038" lon="7.58955">
        <ele>2164</ele>
        <time>2017-09-17T13:12:45Z</time>
      </trkpt>
      <trkpt lat="44.15038" lon="7.58955">
        <ele>2164</ele>
        <time>2017-09-17T13:12:46Z</time>
      </trkpt>
      <trkpt lat="44.15038" lon="7.58955">
        <ele>2164</ele>
        <time>2017-09-17T13:12:47Z</time>
      </trkpt>
      <trkpt lat="44.15038" lon="7.58955">
        <ele>2164</ele>
        <time>2017-09-17T13:12:48Z</time>
      </trkpt>
      <trkpt lat="44.15038" lon="7.58955">
        <ele>2164</ele>
        <time>2017-09-17T13:12:49Z</time>
      </trkpt>
      <trkpt lat="44.15038" lon="7.58955">
        <ele>2164</ele>
        <time>2017-09-17T13:12:50Z</time>
      </trkpt>
      <trkpt lat="44.15039" lon="7.58955">
        <ele>2164</ele>
        <time>2017-09-17T13:12:51Z</time>
      </trkpt>
      <trkpt lat="44.15039" lon="7.58955">
        <ele>2164</ele>
        <time>2017-09-17T13:12:52Z</time>
      </trkpt>
      <trkpt lat="44.15039" lon="7.58955">
        <ele>2164</ele>
        <time>2017-09-17T13:12:53Z</time>
      </trkpt>
      <trkpt lat="44.15039" lon="7.58955">
        <ele>2164</ele>
        <time>2017-09-17T13:12:54Z</time>
      </trkpt>
      <trkpt lat="44.15039" lon="7.58955">
        <ele>2164</ele>
        <time>2017-09-17T13:12:55Z</time>
      </trkpt>
      <trkpt lat="44.15039" lon="7.58955">
        <ele>2164</ele>
        <time>2017-09-17T13:12:56Z</time>
      </trkpt>
      <trkpt lat="44.15039" lon="7.58955">
        <ele>2164</ele>
        <time>2017-09-17T13:12:57Z</time>
      </trkpt>
      <trkpt lat="44.15039" lon="7.58955">
        <ele>2164</ele>
        <time>2017-09-17T13:12:58Z</time>
      </trkpt>
      <trkpt lat="44.15039" lon="7.58955">
        <ele>2164</ele>
        <time>2017-09-17T13:12:59Z</time>
      </trkpt>
      <trkpt lat="44.15039" lon="7.58955">
        <ele>2164</ele>
        <time>2017-09-17T13:13:00Z</time>
      </trkpt>
      <trkpt lat="44.15039" lon="7.58955">
        <ele>2164</ele>
        <time>2017-09-17T13:13:01Z</time>
      </trkpt>
      <trkpt lat="44.15039" lon="7.58955">
        <ele>2164</ele>
        <time>2017-09-17T13:13:02Z</time>
      </trkpt>
      <trkpt lat="44.15039" lon="7.58955">
        <ele>2164</ele>
        <time>2017-09-17T13:13:03Z</time>
      </trkpt>
      <trkpt lat="44.15039" lon="7.58955">
        <ele>2164</ele>
        <time>2017-09-17T13:13:04Z</time>
      </trkpt>
      <trkpt lat="44.15039" lon="7.58955">
        <ele>2164</ele>
        <time>2017-09-17T13:13:05Z</time>
      </trkpt>
      <trkpt lat="44.15039" lon="7.58955">
        <ele>2164</ele>
        <time>2017-09-17T13:13:06Z</time>
      </trkpt>
      <trkpt lat="44.15039" lon="7.58955">
        <ele>2164</ele>
        <time>2017-09-17T13:13:07Z</time>
      </trkpt>
      <trkpt lat="44.15039" lon="7.58955">
        <ele>2164</ele>
        <time>2017-09-17T13:13:08Z</time>
      </trkpt>
      <trkpt lat="44.15039" lon="7.58955">
        <ele>2164</ele>
        <time>2017-09-17T13:13:09Z</time>
      </trkpt>
      <trkpt lat="44.15038" lon="7.58955">
        <ele>2164</ele>
        <time>2017-09-17T13:13:10Z</time>
      </trkpt>
      <trkpt lat="44.15038" lon="7.58956">
        <ele>2164</ele>
        <time>2017-09-17T13:13:11Z</time>
      </trkpt>
      <trkpt lat="44.15038" lon="7.58956">
        <ele>2164</ele>
        <time>2017-09-17T13:13:12Z</time>
      </trkpt>
      <trkpt lat="44.15038" lon="7.58956">
        <ele>2164</ele>
        <time>2017-09-17T13:13:13Z</time>
      </trkpt>
      <trkpt lat="44.15038" lon="7.58956">
        <ele>2165</ele>
        <time>2017-09-17T13:13:14Z</time>
      </trkpt>
      <trkpt lat="44.15038" lon="7.58956">
        <ele>2165</ele>
        <time>2017-09-17T13:13:15Z</time>
      </trkpt>
      <trkpt lat="44.15038" lon="7.58956">
        <ele>2165</ele>
        <time>2017-09-17T13:13:16Z</time>
      </trkpt>
      <trkpt lat="44.15038" lon="7.58956">
        <ele>2165</ele>
        <time>2017-09-17T13:13:17Z</time>
      </trkpt>
      <trkpt lat="44.15038" lon="7.58957">
        <ele>2165</ele>
        <time>2017-09-17T13:13:18Z</time>
      </trkpt>
      <trkpt lat="44.15039" lon="7.58958">
        <ele>2165</ele>
        <time>2017-09-17T13:13:19Z</time>
      </trkpt>
      <trkpt lat="44.15038" lon="7.58959">
        <ele>2165</ele>
        <time>2017-09-17T13:13:20Z</time>
      </trkpt>
      <trkpt lat="44.15038" lon="7.58961">
        <ele>2165</ele>
        <time>2017-09-17T13:13:21Z</time>
      </trkpt>
      <trkpt lat="44.15037" lon="7.58962">
        <ele>2165</ele>
        <time>2017-09-17T13:13:22Z</time>
      </trkpt>
      <trkpt lat="44.15036" lon="7.58963">
        <ele>2165</ele>
        <time>2017-09-17T13:13:23Z</time>
      </trkpt>
      <trkpt lat="44.15036" lon="7.58965">
        <ele>2165</ele>
        <time>2017-09-17T13:13:24Z</time>
      </trkpt>
      <trkpt lat="44.15035" lon="7.58966">
        <ele>2165</ele>
        <time>2017-09-17T13:13:25Z</time>
      </trkpt>
      <trkpt lat="44.15034" lon="7.58967">
        <ele>2166</ele>
        <time>2017-09-17T13:13:26Z</time>
      </trkpt>
      <trkpt lat="44.15033" lon="7.58968">
        <ele>2166</ele>
        <time>2017-09-17T13:13:27Z</time>
      </trkpt>
      <trkpt lat="44.15032" lon="7.5897">
        <ele>2166</ele>
        <time>2017-09-17T13:13:28Z</time>
      </trkpt>
      <trkpt lat="44.1503" lon="7.58973">
        <ele>2166</ele>
        <time>2017-09-17T13:13:29Z</time>
      </trkpt>
      <trkpt lat="44.15028" lon="7.58976">
        <ele>2166</ele>
        <time>2017-09-17T13:13:30Z</time>
      </trkpt>
      <trkpt lat="44.15026" lon="7.58979">
        <ele>2166</ele>
        <time>2017-09-17T13:13:31Z</time>
      </trkpt>
      <trkpt lat="44.15024" lon="7.58982">
        <ele>2166</ele>
        <time>2017-09-17T13:13:32Z</time>
      </trkpt>
      <trkpt lat="44.15022" lon="7.58985">
        <ele>2166</ele>
        <time>2017-09-17T13:13:33Z</time>
      </trkpt>
      <trkpt lat="44.1502" lon="7.58988">
        <ele>2166</ele>
        <time>2017-09-17T13:13:34Z</time>
      </trkpt>
      <trkpt lat="44.15019" lon="7.58991">
        <ele>2167</ele>
        <time>2017-09-17T13:13:35Z</time>
      </trkpt>
      <trkpt lat="44.15018" lon="7.58995">
        <ele>2167</ele>
        <time>2017-09-17T13:13:36Z</time>
      </trkpt>
      <trkpt lat="44.15019" lon="7.58997">
        <ele>2167</ele>
        <time>2017-09-17T13:13:37Z</time>
      </trkpt>
      <trkpt lat="44.15021" lon="7.58998">
        <ele>2168</ele>
        <time>2017-09-17T13:13:38Z</time>
      </trkpt>
      <trkpt lat="44.15023" lon="7.58996">
        <ele>2168</ele>
        <time>2017-09-17T13:13:39Z</time>
      </trkpt>
      <trkpt lat="44.15024" lon="7.58994">
        <ele>2168</ele>
        <time>2017-09-17T13:13:40Z</time>
      </trkpt>
      <trkpt lat="44.15026" lon="7.58991">
        <ele>2168</ele>
        <time>2017-09-17T13:13:41Z</time>
      </trkpt>
      <trkpt lat="44.15028" lon="7.58988">
        <ele>2168</ele>
        <time>2017-09-17T13:13:42Z</time>
      </trkpt>
      <trkpt lat="44.15031" lon="7.58985">
        <ele>2169</ele>
        <time>2017-09-17T13:13:43Z</time>
      </trkpt>
      <trkpt lat="44.15033" lon="7.58983">
        <ele>2169</ele>
        <time>2017-09-17T13:13:44Z</time>
      </trkpt>
      <trkpt lat="44.15036" lon="7.58981">
        <ele>2169</ele>
        <time>2017-09-17T13:13:45Z</time>
      </trkpt>
      <trkpt lat="44.15039" lon="7.58979">
        <ele>2170</ele>
        <time>2017-09-17T13:13:46Z</time>
      </trkpt>
      <trkpt lat="44.15042" lon="7.58977">
        <ele>2170</ele>
        <time>2017-09-17T13:13:47Z</time>
      </trkpt>
      <trkpt lat="44.15045" lon="7.58976">
        <ele>2170</ele>
        <time>2017-09-17T13:13:48Z</time>
      </trkpt>
      <trkpt lat="44.15047" lon="7.58977">
        <ele>2170</ele>
        <time>2017-09-17T13:13:49Z</time>
      </trkpt>
      <trkpt lat="44.15049" lon="7.58979">
        <ele>2171</ele>
        <time>2017-09-17T13:13:50Z</time>
      </trkpt>
      <trkpt lat="44.15051" lon="7.58983">
        <ele>2171</ele>
        <time>2017-09-17T13:13:51Z</time>
      </trkpt>
      <trkpt lat="44.15052" lon="7.58987">
        <ele>2171</ele>
        <time>2017-09-17T13:13:52Z</time>
      </trkpt>
      <trkpt lat="44.15053" lon="7.58991">
        <ele>2172</ele>
        <time>2017-09-17T13:13:53Z</time>
      </trkpt>
      <trkpt lat="44.15054" lon="7.58994">
        <ele>2172</ele>
        <time>2017-09-17T13:13:54Z</time>
      </trkpt>
      <trkpt lat="44.15055" lon="7.58998">
        <ele>2172</ele>
        <time>2017-09-17T13:13:55Z</time>
      </trkpt>
      <trkpt lat="44.15056" lon="7.59002">
        <ele>2173</ele>
        <time>2017-09-17T13:13:56Z</time>
      </trkpt>
      <trkpt lat="44.15057" lon="7.59006">
        <ele>2173</ele>
        <time>2017-09-17T13:13:57Z</time>
      </trkpt>
      <trkpt lat="44.15057" lon="7.5901">
        <ele>2174</ele>
        <time>2017-09-17T13:13:58Z</time>
      </trkpt>
      <trkpt lat="44.15058" lon="7.59013">
        <ele>2174</ele>
        <time>2017-09-17T13:13:59Z</time>
      </trkpt>
      <trkpt lat="44.15059" lon="7.59017">
        <ele>2174</ele>
        <time>2017-09-17T13:14:00Z</time>
      </trkpt>
      <trkpt lat="44.1506" lon="7.59021">
        <ele>2175</ele>
        <time>2017-09-17T13:14:01Z</time>
      </trkpt>
      <trkpt lat="44.15062" lon="7.59025">
        <ele>2175</ele>
        <time>2017-09-17T13:14:02Z</time>
      </trkpt>
      <trkpt lat="44.15063" lon="7.59029">
        <ele>2175</ele>
        <time>2017-09-17T13:14:03Z</time>
      </trkpt>
      <trkpt lat="44.15065" lon="7.59033">
        <ele>2176</ele>
        <time>2017-09-17T13:14:04Z</time>
      </trkpt>
      <trkpt lat="44.15066" lon="7.59037">
        <ele>2176</ele>
        <time>2017-09-17T13:14:05Z</time>
      </trkpt>
      <trkpt lat="44.15067" lon="7.59041">
        <ele>2177</ele>
        <time>2017-09-17T13:14:06Z</time>
      </trkpt>
      <trkpt lat="44.15068" lon="7.59045">
        <ele>2177</ele>
        <time>2017-09-17T13:14:07Z</time>
      </trkpt>
      <trkpt lat="44.1507" lon="7.59049">
        <ele>2177</ele>
        <time>2017-09-17T13:14:08Z</time>
      </trkpt>
      <trkpt lat="44.15071" lon="7.59052">
        <ele>2178</ele>
        <time>2017-09-17T13:14:09Z</time>
      </trkpt>
      <trkpt lat="44.15073" lon="7.59056">
        <ele>2178</ele>
        <time>2017-09-17T13:14:10Z</time>
      </trkpt>
      <trkpt lat="44.15075" lon="7.5906">
        <ele>2178</ele>
        <time>2017-09-17T13:14:11Z</time>
      </trkpt>
      <trkpt lat="44.15076" lon="7.59064">
        <ele>2179</ele>
        <time>2017-09-17T13:14:12Z</time>
      </trkpt>
      <trkpt lat="44.15078" lon="7.59068">
        <ele>2179</ele>
        <time>2017-09-17T13:14:13Z</time>
      </trkpt>
      <trkpt lat="44.1508" lon="7.59071">
        <ele>2179</ele>
        <time>2017-09-17T13:14:14Z</time>
      </trkpt>
      <trkpt lat="44.15082" lon="7.59075">
        <ele>2180</ele>
        <time>2017-09-17T13:14:15Z</time>
      </trkpt>
      <trkpt lat="44.15083" lon="7.59079">
        <ele>2180</ele>
        <time>2017-09-17T13:14:16Z</time>
      </trkpt>
      <trkpt lat="44.15085" lon="7.59083">
        <ele>2181</ele>
        <time>2017-09-17T13:14:17Z</time>
      </trkpt>
      <trkpt lat="44.15086" lon="7.59086">
        <ele>2181</ele>
        <time>2017-09-17T13:14:18Z</time>
      </trkpt>
      <trkpt lat="44.15088" lon="7.59089">
        <ele>2182</ele>
        <time>2017-09-17T13:14:19Z</time>
      </trkpt>
      <trkpt lat="44.1509" lon="7.59093">
        <ele>2182</ele>
        <time>2017-09-17T13:14:20Z</time>
      </trkpt>
      <trkpt lat="44.15092" lon="7.59096">
        <ele>2182</ele>
        <time>2017-09-17T13:14:21Z</time>
      </trkpt>
      <trkpt lat="44.15094" lon="7.591">
        <ele>2183</ele>
        <time>2017-09-17T13:14:22Z</time>
      </trkpt>
      <trkpt lat="44.15096" lon="7.59103">
        <ele>2183</ele>
        <time>2017-09-17T13:14:23Z</time>
      </trkpt>
      <trkpt lat="44.15098" lon="7.59107">
        <ele>2184</ele>
        <time>2017-09-17T13:14:24Z</time>
      </trkpt>
      <trkpt lat="44.15099" lon="7.5911">
        <ele>2184</ele>
        <time>2017-09-17T13:14:25Z</time>
      </trkpt>
      <trkpt lat="44.15101" lon="7.59114">
        <ele>2184</ele>
        <time>2017-09-17T13:14:26Z</time>
      </trkpt>
      <trkpt lat="44.15103" lon="7.59117">
        <ele>2185</ele>
        <time>2017-09-17T13:14:27Z</time>
      </trkpt>
      <trkpt lat="44.15105" lon="7.5912">
        <ele>2185</ele>
        <time>2017-09-17T13:14:28Z</time>
      </trkpt>
      <trkpt lat="44.15108" lon="7.59123">
        <ele>2185</ele>
        <time>2017-09-17T13:14:29Z</time>
      </trkpt>
      <trkpt lat="44.1511" lon="7.59126">
        <ele>2186</ele>
        <time>2017-09-17T13:14:30Z</time>
      </trkpt>
      <trkpt lat="44.15113" lon="7.59129">
        <ele>2186</ele>
        <time>2017-09-17T13:14:31Z</time>
      </trkpt>
      <trkpt lat="44.15115" lon="7.59132">
        <ele>2186</ele>
        <time>2017-09-17T13:14:32Z</time>
      </trkpt>
      <trkpt lat="44.15118" lon="7.59135">
        <ele>2187</ele>
        <time>2017-09-17T13:14:33Z</time>
      </trkpt>
      <trkpt lat="44.1512" lon="7.59139">
        <ele>2187</ele>
        <time>2017-09-17T13:14:34Z</time>
      </trkpt>
      <trkpt lat="44.15121" lon="7.59142">
        <ele>2187</ele>
        <time>2017-09-17T13:14:35Z</time>
      </trkpt>
      <trkpt lat="44.15122" lon="7.59145">
        <ele>2188</ele>
        <time>2017-09-17T13:14:36Z</time>
      </trkpt>
      <trkpt lat="44.15121" lon="7.59147">
        <ele>2188</ele>
        <time>2017-09-17T13:14:37Z</time>
      </trkpt>
      <trkpt lat="44.1512" lon="7.59147">
        <ele>2188</ele>
        <time>2017-09-17T13:14:38Z</time>
      </trkpt>
      <trkpt lat="44.1512" lon="7.59147">
        <ele>2189</ele>
        <time>2017-09-17T13:14:39Z</time>
      </trkpt>
      <trkpt lat="44.15119" lon="7.59147">
        <ele>2189</ele>
        <time>2017-09-17T13:14:40Z</time>
      </trkpt>
      <trkpt lat="44.15119" lon="7.59147">
        <ele>2189</ele>
        <time>2017-09-17T13:14:41Z</time>
      </trkpt>
      <trkpt lat="44.15119" lon="7.59147">
        <ele>2189</ele>
        <time>2017-09-17T13:14:42Z</time>
      </trkpt>
      <trkpt lat="44.15119" lon="7.59147">
        <ele>2189</ele>
        <time>2017-09-17T13:14:43Z</time>
      </trkpt>
      <trkpt lat="44.15119" lon="7.59147">
        <ele>2189</ele>
        <time>2017-09-17T13:14:44Z</time>
      </trkpt>
      <trkpt lat="44.15119" lon="7.59147">
        <ele>2189</ele>
        <time>2017-09-17T13:14:45Z</time>
      </trkpt>
      <trkpt lat="44.15119" lon="7.59147">
        <ele>2189</ele>
        <time>2017-09-17T13:14:46Z</time>
      </trkpt>
      <trkpt lat="44.15118" lon="7.59147">
        <ele>2189</ele>
        <time>2017-09-17T13:14:47Z</time>
      </trkpt>
      <trkpt lat="44.15117" lon="7.59146">
        <ele>2189</ele>
        <time>2017-09-17T13:14:48Z</time>
      </trkpt>
      <trkpt lat="44.15116" lon="7.59145">
        <ele>2189</ele>
        <time>2017-09-17T13:14:49Z</time>
      </trkpt>
      <trkpt lat="44.15114" lon="7.59144">
        <ele>2189</ele>
        <time>2017-09-17T13:14:50Z</time>
      </trkpt>
      <trkpt lat="44.15112" lon="7.59141">
        <ele>2189</ele>
        <time>2017-09-17T13:14:51Z</time>
      </trkpt>
      <trkpt lat="44.1511" lon="7.59138">
        <ele>2189</ele>
        <time>2017-09-17T13:14:52Z</time>
      </trkpt>
      <trkpt lat="44.15107" lon="7.59136">
        <ele>2189</ele>
        <time>2017-09-17T13:14:53Z</time>
      </trkpt>
      <trkpt lat="44.15104" lon="7.59134">
        <ele>2189</ele>
        <time>2017-09-17T13:14:54Z</time>
      </trkpt>
      <trkpt lat="44.15102" lon="7.59132">
        <ele>2189</ele>
        <time>2017-09-17T13:14:55Z</time>
      </trkpt>
      <trkpt lat="44.15099" lon="7.5913">
        <ele>2189</ele>
        <time>2017-09-17T13:14:56Z</time>
      </trkpt>
      <trkpt lat="44.15096" lon="7.59128">
        <ele>2190</ele>
        <time>2017-09-17T13:14:57Z</time>
      </trkpt>
      <trkpt lat="44.15094" lon="7.59126">
        <ele>2190</ele>
        <time>2017-09-17T13:14:58Z</time>
      </trkpt>
      <trkpt lat="44.15091" lon="7.59123">
        <ele>2190</ele>
        <time>2017-09-17T13:14:59Z</time>
      </trkpt>
      <trkpt lat="44.15089" lon="7.59121">
        <ele>2190</ele>
        <time>2017-09-17T13:15:00Z</time>
      </trkpt>
      <trkpt lat="44.15086" lon="7.59119">
        <ele>2190</ele>
        <time>2017-09-17T13:15:01Z</time>
      </trkpt>
      <trkpt lat="44.15084" lon="7.59118">
        <ele>2190</ele>
        <time>2017-09-17T13:15:02Z</time>
      </trkpt>
      <trkpt lat="44.15082" lon="7.5912">
        <ele>2191</ele>
        <time>2017-09-17T13:15:03Z</time>
      </trkpt>
      <trkpt lat="44.15081" lon="7.59122">
        <ele>2191</ele>
        <time>2017-09-17T13:15:04Z</time>
      </trkpt>
      <trkpt lat="44.15081" lon="7.59125">
        <ele>2191</ele>
        <time>2017-09-17T13:15:05Z</time>
      </trkpt>
      <trkpt lat="44.15083" lon="7.59128">
        <ele>2191</ele>
        <time>2017-09-17T13:15:06Z</time>
      </trkpt>
      <trkpt lat="44.15085" lon="7.5913">
        <ele>2191</ele>
        <time>2017-09-17T13:15:07Z</time>
      </trkpt>
      <trkpt lat="44.15088" lon="7.59133">
        <ele>2191</ele>
        <time>2017-09-17T13:15:08Z</time>
      </trkpt>
      <trkpt lat="44.15091" lon="7.59137">
        <ele>2192</ele>
        <time>2017-09-17T13:15:09Z</time>
      </trkpt>
      <trkpt lat="44.15093" lon="7.5914">
        <ele>2192</ele>
        <time>2017-09-17T13:15:10Z</time>
      </trkpt>
      <trkpt lat="44.15096" lon="7.59144">
        <ele>2192</ele>
        <time>2017-09-17T13:15:11Z</time>
      </trkpt>
      <trkpt lat="44.15099" lon="7.59148">
        <ele>2192</ele>
        <time>2017-09-17T13:15:12Z</time>
      </trkpt>
      <trkpt lat="44.15102" lon="7.59151">
        <ele>2193</ele>
        <time>2017-09-17T13:15:13Z</time>
      </trkpt>
      <trkpt lat="44.15105" lon="7.59155">
        <ele>2193</ele>
        <time>2017-09-17T13:15:14Z</time>
      </trkpt>
      <trkpt lat="44.15107" lon="7.59158">
        <ele>2194</ele>
        <time>2017-09-17T13:15:15Z</time>
      </trkpt>
      <trkpt lat="44.15111" lon="7.5916">
        <ele>2194</ele>
        <time>2017-09-17T13:15:16Z</time>
      </trkpt>
      <trkpt lat="44.15114" lon="7.59162">
        <ele>2194</ele>
        <time>2017-09-17T13:15:17Z</time>
      </trkpt>
      <trkpt lat="44.15118" lon="7.59163">
        <ele>2195</ele>
        <time>2017-09-17T13:15:18Z</time>
      </trkpt>
      <trkpt lat="44.15122" lon="7.59165">
        <ele>2195</ele>
        <time>2017-09-17T13:15:19Z</time>
      </trkpt>
      <trkpt lat="44.15125" lon="7.59167">
        <ele>2195</ele>
        <time>2017-09-17T13:15:20Z</time>
      </trkpt>
      <trkpt lat="44.15129" lon="7.5917">
        <ele>2195</ele>
        <time>2017-09-17T13:15:21Z</time>
      </trkpt>
      <trkpt lat="44.15132" lon="7.59174">
        <ele>2196</ele>
        <time>2017-09-17T13:15:22Z</time>
      </trkpt>
      <trkpt lat="44.15134" lon="7.59179">
        <ele>2196</ele>
        <time>2017-09-17T13:15:23Z</time>
      </trkpt>
      <trkpt lat="44.15136" lon="7.59184">
        <ele>2196</ele>
        <time>2017-09-17T13:15:24Z</time>
      </trkpt>
      <trkpt lat="44.15138" lon="7.59189">
        <ele>2196</ele>
        <time>2017-09-17T13:15:25Z</time>
      </trkpt>
      <trkpt lat="44.1514" lon="7.59195">
        <ele>2197</ele>
        <time>2017-09-17T13:15:26Z</time>
      </trkpt>
      <trkpt lat="44.15143" lon="7.592">
        <ele>2197</ele>
        <time>2017-09-17T13:15:27Z</time>
      </trkpt>
      <trkpt lat="44.15145" lon="7.59206">
        <ele>2197</ele>
        <time>2017-09-17T13:15:28Z</time>
      </trkpt>
      <trkpt lat="44.15147" lon="7.59211">
        <ele>2197</ele>
        <time>2017-09-17T13:15:29Z</time>
      </trkpt>
      <trkpt lat="44.15149" lon="7.59217">
        <ele>2198</ele>
        <time>2017-09-17T13:15:30Z</time>
      </trkpt>
      <trkpt lat="44.15151" lon="7.59223">
        <ele>2198</ele>
        <time>2017-09-17T13:15:31Z</time>
      </trkpt>
      <trkpt lat="44.15153" lon="7.59228">
        <ele>2198</ele>
        <time>2017-09-17T13:15:32Z</time>
      </trkpt>
      <trkpt lat="44.15156" lon="7.59234">
        <ele>2198</ele>
        <time>2017-09-17T13:15:33Z</time>
      </trkpt>
      <trkpt lat="44.15158" lon="7.5924">
        <ele>2198</ele>
        <time>2017-09-17T13:15:34Z</time>
      </trkpt>
      <trkpt lat="44.15161" lon="7.59247">
        <ele>2198</ele>
        <time>2017-09-17T13:15:35Z</time>
      </trkpt>
      <trkpt lat="44.15164" lon="7.59254">
        <ele>2197</ele>
        <time>2017-09-17T13:15:36Z</time>
      </trkpt>
      <trkpt lat="44.15168" lon="7.59261">
        <ele>2197</ele>
        <time>2017-09-17T13:15:37Z</time>
      </trkpt>
      <trkpt lat="44.15172" lon="7.59268">
        <ele>2197</ele>
        <time>2017-09-17T13:15:38Z</time>
      </trkpt>
      <trkpt lat="44.15175" lon="7.59275">
        <ele>2196</ele>
        <time>2017-09-17T13:15:39Z</time>
      </trkpt>
      <trkpt lat="44.15178" lon="7.59283">
        <ele>2196</ele>
        <time>2017-09-17T13:15:40Z</time>
      </trkpt>
      <trkpt lat="44.1518" lon="7.59291">
        <ele>2196</ele>
        <time>2017-09-17T13:15:41Z</time>
      </trkpt>
      <trkpt lat="44.1518" lon="7.593">
        <ele>2195</ele>
        <time>2017-09-17T13:15:42Z</time>
      </trkpt>
      <trkpt lat="44.15181" lon="7.59309">
        <ele>2195</ele>
        <time>2017-09-17T13:15:43Z</time>
      </trkpt>
      <trkpt lat="44.15182" lon="7.59317">
        <ele>2195</ele>
        <time>2017-09-17T13:15:44Z</time>
      </trkpt>
      <trkpt lat="44.15185" lon="7.59325">
        <ele>2194</ele>
        <time>2017-09-17T13:15:45Z</time>
      </trkpt>
      <trkpt lat="44.1519" lon="7.59332">
        <ele>2194</ele>
        <time>2017-09-17T13:15:46Z</time>
      </trkpt>
      <trkpt lat="44.15195" lon="7.59337">
        <ele>2194</ele>
        <time>2017-09-17T13:15:47Z</time>
      </trkpt>
      <trkpt lat="44.15201" lon="7.59343">
        <ele>2193</ele>
        <time>2017-09-17T13:15:48Z</time>
      </trkpt>
      <trkpt lat="44.15205" lon="7.59351">
        <ele>2193</ele>
        <time>2017-09-17T13:15:49Z</time>
      </trkpt>
      <trkpt lat="44.15207" lon="7.59359">
        <ele>2193</ele>
        <time>2017-09-17T13:15:50Z</time>
      </trkpt>
      <trkpt lat="44.15209" lon="7.59368">
        <ele>2193</ele>
        <time>2017-09-17T13:15:51Z</time>
      </trkpt>
      <trkpt lat="44.15211" lon="7.59376">
        <ele>2193</ele>
        <time>2017-09-17T13:15:52Z</time>
      </trkpt>
      <trkpt lat="44.15214" lon="7.59383">
        <ele>2193</ele>
        <time>2017-09-17T13:15:53Z</time>
      </trkpt>
      <trkpt lat="44.15217" lon="7.59391">
        <ele>2193</ele>
        <time>2017-09-17T13:15:54Z</time>
      </trkpt>
      <trkpt lat="44.1522" lon="7.59398">
        <ele>2192</ele>
        <time>2017-09-17T13:15:55Z</time>
      </trkpt>
      <trkpt lat="44.15223" lon="7.59405">
        <ele>2192</ele>
        <time>2017-09-17T13:15:56Z</time>
      </trkpt>
      <trkpt lat="44.15226" lon="7.59412">
        <ele>2192</ele>
        <time>2017-09-17T13:15:57Z</time>
      </trkpt>
      <trkpt lat="44.15229" lon="7.5942">
        <ele>2192</ele>
        <time>2017-09-17T13:15:58Z</time>
      </trkpt>
      <trkpt lat="44.15231" lon="7.59427">
        <ele>2192</ele>
        <time>2017-09-17T13:15:59Z</time>
      </trkpt>
      <trkpt lat="44.15234" lon="7.59434">
        <ele>2192</ele>
        <time>2017-09-17T13:16:00Z</time>
      </trkpt>
      <trkpt lat="44.15237" lon="7.59441">
        <ele>2192</ele>
        <time>2017-09-17T13:16:01Z</time>
      </trkpt>
      <trkpt lat="44.1524" lon="7.59448">
        <ele>2192</ele>
        <time>2017-09-17T13:16:02Z</time>
      </trkpt>
      <trkpt lat="44.15243" lon="7.59455">
        <ele>2192</ele>
        <time>2017-09-17T13:16:03Z</time>
      </trkpt>
      <trkpt lat="44.15246" lon="7.59463">
        <ele>2192</ele>
        <time>2017-09-17T13:16:04Z</time>
      </trkpt>
      <trkpt lat="44.15249" lon="7.5947">
        <ele>2192</ele>
        <time>2017-09-17T13:16:05Z</time>
      </trkpt>
      <trkpt lat="44.15253" lon="7.59477">
        <ele>2191</ele>
        <time>2017-09-17T13:16:06Z</time>
      </trkpt>
      <trkpt lat="44.15257" lon="7.59484">
        <ele>2191</ele>
        <time>2017-09-17T13:16:07Z</time>
      </trkpt>
      <trkpt lat="44.1526" lon="7.59491">
        <ele>2191</ele>
        <time>2017-09-17T13:16:08Z</time>
      </trkpt>
      <trkpt lat="44.15263" lon="7.59498">
        <ele>2191</ele>
        <time>2017-09-17T13:16:09Z</time>
      </trkpt>
      <trkpt lat="44.15266" lon="7.59505">
        <ele>2191</ele>
        <time>2017-09-17T13:16:10Z</time>
      </trkpt>
      <trkpt lat="44.15269" lon="7.59513">
        <ele>2191</ele>
        <time>2017-09-17T13:16:11Z</time>
      </trkpt>
      <trkpt lat="44.15271" lon="7.59521">
        <ele>2191</ele>
        <time>2017-09-17T13:16:12Z</time>
      </trkpt>
      <trkpt lat="44.15274" lon="7.59528">
        <ele>2191</ele>
        <time>2017-09-17T13:16:13Z</time>
      </trkpt>
      <trkpt lat="44.15276" lon="7.59536">
        <ele>2191</ele>
        <time>2017-09-17T13:16:14Z</time>
      </trkpt>
      <trkpt lat="44.15277" lon="7.59545">
        <ele>2191</ele>
        <time>2017-09-17T13:16:15Z</time>
      </trkpt>
      <trkpt lat="44.15278" lon="7.59552">
        <ele>2191</ele>
        <time>2017-09-17T13:16:16Z</time>
      </trkpt>
      <trkpt lat="44.15278" lon="7.5956">
        <ele>2191</ele>
        <time>2017-09-17T13:16:17Z</time>
      </trkpt>
      <trkpt lat="44.15278" lon="7.59567">
        <ele>2191</ele>
        <time>2017-09-17T13:16:18Z</time>
      </trkpt>
      <trkpt lat="44.15278" lon="7.59571">
        <ele>2191</ele>
        <time>2017-09-17T13:16:19Z</time>
      </trkpt>
      <trkpt lat="44.15278" lon="7.59574">
        <ele>2191</ele>
        <time>2017-09-17T13:16:20Z</time>
      </trkpt>
      <trkpt lat="44.15278" lon="7.59574">
        <ele>2191</ele>
        <time>2017-09-17T13:16:21Z</time>
      </trkpt>
      <trkpt lat="44.15278" lon="7.59574">
        <ele>2191</ele>
        <time>2017-09-17T13:16:22Z</time>
      </trkpt>
      <trkpt lat="44.15278" lon="7.59574">
        <ele>2191</ele>
        <time>2017-09-17T13:16:23Z</time>
      </trkpt>
      <trkpt lat="44.15278" lon="7.59575">
        <ele>2191</ele>
        <time>2017-09-17T13:16:24Z</time>
      </trkpt>
      <trkpt lat="44.15278" lon="7.59575">
        <ele>2191</ele>
        <time>2017-09-17T13:16:25Z</time>
      </trkpt>
      <trkpt lat="44.15278" lon="7.59575">
        <ele>2191</ele>
        <time>2017-09-17T13:16:26Z</time>
      </trkpt>
      <trkpt lat="44.15278" lon="7.59575">
        <ele>2191</ele>
        <time>2017-09-17T13:16:27Z</time>
      </trkpt>
      <trkpt lat="44.15278" lon="7.59575">
        <ele>2191</ele>
        <time>2017-09-17T13:16:28Z</time>
      </trkpt>
      <trkpt lat="44.15278" lon="7.59575">
        <ele>2191</ele>
        <time>2017-09-17T13:16:29Z</time>
      </trkpt>
      <trkpt lat="44.15278" lon="7.59575">
        <ele>2191</ele>
        <time>2017-09-17T13:16:30Z</time>
      </trkpt>
      <trkpt lat="44.15278" lon="7.59575">
        <ele>2191</ele>
        <time>2017-09-17T13:16:31Z</time>
      </trkpt>
      <trkpt lat="44.15278" lon="7.59576">
        <ele>2191</ele>
        <time>2017-09-17T13:16:32Z</time>
      </trkpt>
      <trkpt lat="44.15277" lon="7.59577">
        <ele>2192</ele>
        <time>2017-09-17T13:16:33Z</time>
      </trkpt>
      <trkpt lat="44.15277" lon="7.59579">
        <ele>2192</ele>
        <time>2017-09-17T13:16:34Z</time>
      </trkpt>
      <trkpt lat="44.15276" lon="7.59582">
        <ele>2192</ele>
        <time>2017-09-17T13:16:35Z</time>
      </trkpt>
      <trkpt lat="44.15276" lon="7.59584">
        <ele>2192</ele>
        <time>2017-09-17T13:16:36Z</time>
      </trkpt>
      <trkpt lat="44.15276" lon="7.59587">
        <ele>2192</ele>
        <time>2017-09-17T13:16:37Z</time>
      </trkpt>
      <trkpt lat="44.15275" lon="7.5959">
        <ele>2192</ele>
        <time>2017-09-17T13:16:38Z</time>
      </trkpt>
      <trkpt lat="44.15273" lon="7.59592">
        <ele>2192</ele>
        <time>2017-09-17T13:16:39Z</time>
      </trkpt>
      <trkpt lat="44.15271" lon="7.59595">
        <ele>2192</ele>
        <time>2017-09-17T13:16:40Z</time>
      </trkpt>
      <trkpt lat="44.15269" lon="7.59599">
        <ele>2193</ele>
        <time>2017-09-17T13:16:41Z</time>
      </trkpt>
      <trkpt lat="44.15267" lon="7.59602">
        <ele>2193</ele>
        <time>2017-09-17T13:16:42Z</time>
      </trkpt>
      <trkpt lat="44.15264" lon="7.59605">
        <ele>2193</ele>
        <time>2017-09-17T13:16:43Z</time>
      </trkpt>
      <trkpt lat="44.15262" lon="7.59608">
        <ele>2193</ele>
        <time>2017-09-17T13:16:44Z</time>
      </trkpt>
      <trkpt lat="44.1526" lon="7.59611">
        <ele>2194</ele>
        <time>2017-09-17T13:16:45Z</time>
      </trkpt>
      <trkpt lat="44.15258" lon="7.59614">
        <ele>2194</ele>
        <time>2017-09-17T13:16:46Z</time>
      </trkpt>
      <trkpt lat="44.15256" lon="7.59617">
        <ele>2194</ele>
        <time>2017-09-17T13:16:47Z</time>
      </trkpt>
      <trkpt lat="44.15254" lon="7.59619">
        <ele>2195</ele>
        <time>2017-09-17T13:16:48Z</time>
      </trkpt>
      <trkpt lat="44.15251" lon="7.59621">
        <ele>2195</ele>
        <time>2017-09-17T13:16:49Z</time>
      </trkpt>
      <trkpt lat="44.15249" lon="7.59624">
        <ele>2195</ele>
        <time>2017-09-17T13:16:50Z</time>
      </trkpt>
      <trkpt lat="44.15247" lon="7.59626">
        <ele>2196</ele>
        <time>2017-09-17T13:16:51Z</time>
      </trkpt>
      <trkpt lat="44.15245" lon="7.59629">
        <ele>2196</ele>
        <time>2017-09-17T13:16:52Z</time>
      </trkpt>
      <trkpt lat="44.15242" lon="7.59631">
        <ele>2196</ele>
        <time>2017-09-17T13:16:53Z</time>
      </trkpt>
      <trkpt lat="44.1524" lon="7.59634">
        <ele>2197</ele>
        <time>2017-09-17T13:16:54Z</time>
      </trkpt>
      <trkpt lat="44.15237" lon="7.59636">
        <ele>2197</ele>
        <time>2017-09-17T13:16:55Z</time>
      </trkpt>
      <trkpt lat="44.15234" lon="7.59638">
        <ele>2197</ele>
        <time>2017-09-17T13:16:56Z</time>
      </trkpt>
      <trkpt lat="44.15232" lon="7.59641">
        <ele>2198</ele>
        <time>2017-09-17T13:16:57Z</time>
      </trkpt>
      <trkpt lat="44.1523" lon="7.59644">
        <ele>2198</ele>
        <time>2017-09-17T13:16:58Z</time>
      </trkpt>
      <trkpt lat="44.15231" lon="7.59647">
        <ele>2198</ele>
        <time>2017-09-17T13:16:59Z</time>
      </trkpt>
      <trkpt lat="44.15232" lon="7.59648">
        <ele>2199</ele>
        <time>2017-09-17T13:17:00Z</time>
      </trkpt>
      <trkpt lat="44.15235" lon="7.59648">
        <ele>2199</ele>
        <time>2017-09-17T13:17:01Z</time>
      </trkpt>
      <trkpt lat="44.15237" lon="7.59647">
        <ele>2199</ele>
        <time>2017-09-17T13:17:02Z</time>
      </trkpt>
      <trkpt lat="44.15239" lon="7.59646">
        <ele>2200</ele>
        <time>2017-09-17T13:17:03Z</time>
      </trkpt>
      <trkpt lat="44.15242" lon="7.59645">
        <ele>2200</ele>
        <time>2017-09-17T13:17:04Z</time>
      </trkpt>
      <trkpt lat="44.15245" lon="7.59645">
        <ele>2200</ele>
        <time>2017-09-17T13:17:05Z</time>
      </trkpt>
      <trkpt lat="44.15248" lon="7.59643">
        <ele>2200</ele>
        <time>2017-09-17T13:17:06Z</time>
      </trkpt>
      <trkpt lat="44.15251" lon="7.59642">
        <ele>2201</ele>
        <time>2017-09-17T13:17:07Z</time>
      </trkpt>
      <trkpt lat="44.15254" lon="7.59641">
        <ele>2201</ele>
        <time>2017-09-17T13:17:08Z</time>
      </trkpt>
      <trkpt lat="44.15257" lon="7.59639">
        <ele>2201</ele>
        <time>2017-09-17T13:17:09Z</time>
      </trkpt>
      <trkpt lat="44.1526" lon="7.59638">
        <ele>2202</ele>
        <time>2017-09-17T13:17:10Z</time>
      </trkpt>
      <trkpt lat="44.15263" lon="7.59637">
        <ele>2202</ele>
        <time>2017-09-17T13:17:11Z</time>
      </trkpt>
      <trkpt lat="44.15265" lon="7.59636">
        <ele>2202</ele>
        <time>2017-09-17T13:17:12Z</time>
      </trkpt>
      <trkpt lat="44.15268" lon="7.59635">
        <ele>2202</ele>
        <time>2017-09-17T13:17:13Z</time>
      </trkpt>
      <trkpt lat="44.15271" lon="7.59634">
        <ele>2203</ele>
        <time>2017-09-17T13:17:14Z</time>
      </trkpt>
      <trkpt lat="44.15274" lon="7.59635">
        <ele>2203</ele>
        <time>2017-09-17T13:17:15Z</time>
      </trkpt>
      <trkpt lat="44.15276" lon="7.59636">
        <ele>2203</ele>
        <time>2017-09-17T13:17:16Z</time>
      </trkpt>
      <trkpt lat="44.15278" lon="7.59639">
        <ele>2203</ele>
        <time>2017-09-17T13:17:17Z</time>
      </trkpt>
      <trkpt lat="44.15277" lon="7.59642">
        <ele>2203</ele>
        <time>2017-09-17T13:17:18Z</time>
      </trkpt>
      <trkpt lat="44.15276" lon="7.59644">
        <ele>2204</ele>
        <time>2017-09-17T13:17:19Z</time>
      </trkpt>
      <trkpt lat="44.15274" lon="7.59645">
        <ele>2204</ele>
        <time>2017-09-17T13:17:20Z</time>
      </trkpt>
      <trkpt lat="44.15271" lon="7.59646">
        <ele>2204</ele>
        <time>2017-09-17T13:17:21Z</time>
      </trkpt>
      <trkpt lat="44.15269" lon="7.59646">
        <ele>2204</ele>
        <time>2017-09-17T13:17:22Z</time>
      </trkpt>
      <trkpt lat="44.15266" lon="7.59648">
        <ele>2204</ele>
        <time>2017-09-17T13:17:23Z</time>
      </trkpt>
      <trkpt lat="44.15263" lon="7.5965">
        <ele>2205</ele>
        <time>2017-09-17T13:17:24Z</time>
      </trkpt>
      <trkpt lat="44.1526" lon="7.59651">
        <ele>2205</ele>
        <time>2017-09-17T13:17:25Z</time>
      </trkpt>
      <trkpt lat="44.15258" lon="7.59654">
        <ele>2205</ele>
        <time>2017-09-17T13:17:26Z</time>
      </trkpt>
      <trkpt lat="44.15255" lon="7.59656">
        <ele>2205</ele>
        <time>2017-09-17T13:17:27Z</time>
      </trkpt>
      <trkpt lat="44.15253" lon="7.59658">
        <ele>2206</ele>
        <time>2017-09-17T13:17:28Z</time>
      </trkpt>
      <trkpt lat="44.1525" lon="7.5966">
        <ele>2206</ele>
        <time>2017-09-17T13:17:29Z</time>
      </trkpt>
      <trkpt lat="44.15248" lon="7.59662">
        <ele>2207</ele>
        <time>2017-09-17T13:17:30Z</time>
      </trkpt>
      <trkpt lat="44.15245" lon="7.59663">
        <ele>2207</ele>
        <time>2017-09-17T13:17:31Z</time>
      </trkpt>
      <trkpt lat="44.15242" lon="7.59665">
        <ele>2207</ele>
        <time>2017-09-17T13:17:32Z</time>
      </trkpt>
      <trkpt lat="44.15239" lon="7.59666">
        <ele>2208</ele>
        <time>2017-09-17T13:17:33Z</time>
      </trkpt>
      <trkpt lat="44.15236" lon="7.59668">
        <ele>2208</ele>
        <time>2017-09-17T13:17:34Z</time>
      </trkpt>
      <trkpt lat="44.15233" lon="7.59669">
        <ele>2208</ele>
        <time>2017-09-17T13:17:35Z</time>
      </trkpt>
      <trkpt lat="44.1523" lon="7.59671">
        <ele>2209</ele>
        <time>2017-09-17T13:17:36Z</time>
      </trkpt>
      <trkpt lat="44.15228" lon="7.59673">
        <ele>2209</ele>
        <time>2017-09-17T13:17:37Z</time>
      </trkpt>
      <trkpt lat="44.15226" lon="7.59677">
        <ele>2209</ele>
        <time>2017-09-17T13:17:38Z</time>
      </trkpt>
      <trkpt lat="44.15227" lon="7.59679">
        <ele>2210</ele>
        <time>2017-09-17T13:17:39Z</time>
      </trkpt>
      <trkpt lat="44.15229" lon="7.59681">
        <ele>2210</ele>
        <time>2017-09-17T13:17:40Z</time>
      </trkpt>
      <trkpt lat="44.15232" lon="7.59681">
        <ele>2210</ele>
        <time>2017-09-17T13:17:41Z</time>
      </trkpt>
      <trkpt lat="44.15235" lon="7.59679">
        <ele>2211</ele>
        <time>2017-09-17T13:17:42Z</time>
      </trkpt>
      <trkpt lat="44.15238" lon="7.59678">
        <ele>2211</ele>
        <time>2017-09-17T13:17:43Z</time>
      </trkpt>
      <trkpt lat="44.15242" lon="7.59677">
        <ele>2211</ele>
        <time>2017-09-17T13:17:44Z</time>
      </trkpt>
      <trkpt lat="44.15246" lon="7.59676">
        <ele>2212</ele>
        <time>2017-09-17T13:17:45Z</time>
      </trkpt>
      <trkpt lat="44.1525" lon="7.59676">
        <ele>2212</ele>
        <time>2017-09-17T13:17:46Z</time>
      </trkpt>
      <trkpt lat="44.15253" lon="7.59676">
        <ele>2212</ele>
        <time>2017-09-17T13:17:47Z</time>
      </trkpt>
      <trkpt lat="44.15257" lon="7.59676">
        <ele>2213</ele>
        <time>2017-09-17T13:17:48Z</time>
      </trkpt>
      <trkpt lat="44.15261" lon="7.59676">
        <ele>2213</ele>
        <time>2017-09-17T13:17:49Z</time>
      </trkpt>
      <trkpt lat="44.15264" lon="7.59676">
        <ele>2213</ele>
        <time>2017-09-17T13:17:50Z</time>
      </trkpt>
      <trkpt lat="44.15267" lon="7.59675">
        <ele>2214</ele>
        <time>2017-09-17T13:17:51Z</time>
      </trkpt>
      <trkpt lat="44.15271" lon="7.59675">
        <ele>2214</ele>
        <time>2017-09-17T13:17:52Z</time>
      </trkpt>
      <trkpt lat="44.15273" lon="7.59676">
        <ele>2214</ele>
        <time>2017-09-17T13:17:53Z</time>
      </trkpt>
      <trkpt lat="44.15275" lon="7.59679">
        <ele>2215</ele>
        <time>2017-09-17T13:17:54Z</time>
      </trkpt>
      <trkpt lat="44.15275" lon="7.59681">
        <ele>2215</ele>
        <time>2017-09-17T13:17:55Z</time>
      </trkpt>
      <trkpt lat="44.15274" lon="7.59683">
        <ele>2215</ele>
        <time>2017-09-17T13:17:56Z</time>
      </trkpt>
      <trkpt lat="44.15272" lon="7.59683">
        <ele>2215</ele>
        <time>2017-09-17T13:17:57Z</time>
      </trkpt>
      <trkpt lat="44.1527" lon="7.59682">
        <ele>2215</ele>
        <time>2017-09-17T13:17:58Z</time>
      </trkpt>
      <trkpt lat="44.15267" lon="7.59683">
        <ele>2216</ele>
        <time>2017-09-17T13:17:59Z</time>
      </trkpt>
      <trkpt lat="44.15264" lon="7.59683">
        <ele>2216</ele>
        <time>2017-09-17T13:18:00Z</time>
      </trkpt>
      <trkpt lat="44.15261" lon="7.59685">
        <ele>2216</ele>
        <time>2017-09-17T13:18:01Z</time>
      </trkpt>
      <trkpt lat="44.15258" lon="7.59686">
        <ele>2217</ele>
        <time>2017-09-17T13:18:02Z</time>
      </trkpt>
      <trkpt lat="44.15256" lon="7.59688">
        <ele>2217</ele>
        <time>2017-09-17T13:18:03Z</time>
      </trkpt>
      <trkpt lat="44.15253" lon="7.5969">
        <ele>2217</ele>
        <time>2017-09-17T13:18:04Z</time>
      </trkpt>
      <trkpt lat="44.1525" lon="7.59692">
        <ele>2218</ele>
        <time>2017-09-17T13:18:05Z</time>
      </trkpt>
      <trkpt lat="44.15248" lon="7.59694">
        <ele>2218</ele>
        <time>2017-09-17T13:18:06Z</time>
      </trkpt>
      <trkpt lat="44.15245" lon="7.59695">
        <ele>2218</ele>
        <time>2017-09-17T13:18:07Z</time>
      </trkpt>
      <trkpt lat="44.15242" lon="7.59697">
        <ele>2219</ele>
        <time>2017-09-17T13:18:08Z</time>
      </trkpt>
      <trkpt lat="44.15238" lon="7.59698">
        <ele>2219</ele>
        <time>2017-09-17T13:18:09Z</time>
      </trkpt>
      <trkpt lat="44.15235" lon="7.597">
        <ele>2219</ele>
        <time>2017-09-17T13:18:10Z</time>
      </trkpt>
      <trkpt lat="44.15232" lon="7.59701">
        <ele>2220</ele>
        <time>2017-09-17T13:18:11Z</time>
      </trkpt>
      <trkpt lat="44.15229" lon="7.59703">
        <ele>2220</ele>
        <time>2017-09-17T13:18:12Z</time>
      </trkpt>
      <trkpt lat="44.15226" lon="7.59704">
        <ele>2221</ele>
        <time>2017-09-17T13:18:13Z</time>
      </trkpt>
      <trkpt lat="44.15224" lon="7.59707">
        <ele>2221</ele>
        <time>2017-09-17T13:18:14Z</time>
      </trkpt>
      <trkpt lat="44.15221" lon="7.59709">
        <ele>2221</ele>
        <time>2017-09-17T13:18:15Z</time>
      </trkpt>
      <trkpt lat="44.15218" lon="7.59711">
        <ele>2221</ele>
        <time>2017-09-17T13:18:16Z</time>
      </trkpt>
      <trkpt lat="44.15215" lon="7.59713">
        <ele>2222</ele>
        <time>2017-09-17T13:18:17Z</time>
      </trkpt>
      <trkpt lat="44.15212" lon="7.59715">
        <ele>2222</ele>
        <time>2017-09-17T13:18:18Z</time>
      </trkpt>
      <trkpt lat="44.1521" lon="7.59717">
        <ele>2222</ele>
        <time>2017-09-17T13:18:19Z</time>
      </trkpt>
      <trkpt lat="44.15207" lon="7.59719">
        <ele>2223</ele>
        <time>2017-09-17T13:18:20Z</time>
      </trkpt>
      <trkpt lat="44.15205" lon="7.59721">
        <ele>2223</ele>
        <time>2017-09-17T13:18:21Z</time>
      </trkpt>
      <trkpt lat="44.15204" lon="7.59724">
        <ele>2223</ele>
        <time>2017-09-17T13:18:22Z</time>
      </trkpt>
      <trkpt lat="44.15204" lon="7.59726">
        <ele>2223</ele>
        <time>2017-09-17T13:18:23Z</time>
      </trkpt>
      <trkpt lat="44.15205" lon="7.59729">
        <ele>2224</ele>
        <time>2017-09-17T13:18:24Z</time>
      </trkpt>
      <trkpt lat="44.15208" lon="7.59729">
        <ele>2224</ele>
        <time>2017-09-17T13:18:25Z</time>
      </trkpt>
      <trkpt lat="44.1521" lon="7.59728">
        <ele>2224</ele>
        <time>2017-09-17T13:18:26Z</time>
      </trkpt>
      <trkpt lat="44.15212" lon="7.59725">
        <ele>2224</ele>
        <time>2017-09-17T13:18:27Z</time>
      </trkpt>
      <trkpt lat="44.15215" lon="7.59723">
        <ele>2224</ele>
        <time>2017-09-17T13:18:28Z</time>
      </trkpt>
      <trkpt lat="44.15218" lon="7.59722">
        <ele>2225</ele>
        <time>2017-09-17T13:18:29Z</time>
      </trkpt>
      <trkpt lat="44.15221" lon="7.59722">
        <ele>2225</ele>
        <time>2017-09-17T13:18:30Z</time>
      </trkpt>
      <trkpt lat="44.15224" lon="7.59723">
        <ele>2225</ele>
        <time>2017-09-17T13:18:31Z</time>
      </trkpt>
      <trkpt lat="44.15227" lon="7.59723">
        <ele>2225</ele>
        <time>2017-09-17T13:18:32Z</time>
      </trkpt>
      <trkpt lat="44.1523" lon="7.59723">
        <ele>2226</ele>
        <time>2017-09-17T13:18:33Z</time>
      </trkpt>
      <trkpt lat="44.15233" lon="7.59723">
        <ele>2226</ele>
        <time>2017-09-17T13:18:34Z</time>
      </trkpt>
      <trkpt lat="44.15236" lon="7.59723">
        <ele>2226</ele>
        <time>2017-09-17T13:18:35Z</time>
      </trkpt>
      <trkpt lat="44.15239" lon="7.59723">
        <ele>2226</ele>
        <time>2017-09-17T13:18:36Z</time>
      </trkpt>
      <trkpt lat="44.15242" lon="7.59724">
        <ele>2226</ele>
        <time>2017-09-17T13:18:37Z</time>
      </trkpt>
      <trkpt lat="44.15245" lon="7.59725">
        <ele>2227</ele>
        <time>2017-09-17T13:18:38Z</time>
      </trkpt>
      <trkpt lat="44.15248" lon="7.59726">
        <ele>2227</ele>
        <time>2017-09-17T13:18:39Z</time>
      </trkpt>
      <trkpt lat="44.15251" lon="7.59726">
        <ele>2227</ele>
        <time>2017-09-17T13:18:40Z</time>
      </trkpt>
      <trkpt lat="44.15254" lon="7.59727">
        <ele>2227</ele>
        <time>2017-09-17T13:18:41Z</time>
      </trkpt>
      <trkpt lat="44.15257" lon="7.59728">
        <ele>2228</ele>
        <time>2017-09-17T13:18:42Z</time>
      </trkpt>
      <trkpt lat="44.15261" lon="7.59729">
        <ele>2228</ele>
        <time>2017-09-17T13:18:43Z</time>
      </trkpt>
      <trkpt lat="44.15264" lon="7.5973">
        <ele>2228</ele>
        <time>2017-09-17T13:18:44Z</time>
      </trkpt>
      <trkpt lat="44.15268" lon="7.59732">
        <ele>2228</ele>
        <time>2017-09-17T13:18:45Z</time>
      </trkpt>
      <trkpt lat="44.15271" lon="7.59733">
        <ele>2228</ele>
        <time>2017-09-17T13:18:46Z</time>
      </trkpt>
      <trkpt lat="44.15275" lon="7.59733">
        <ele>2229</ele>
        <time>2017-09-17T13:18:47Z</time>
      </trkpt>
      <trkpt lat="44.15279" lon="7.59735">
        <ele>2229</ele>
        <time>2017-09-17T13:18:48Z</time>
      </trkpt>
      <trkpt lat="44.15281" lon="7.59738">
        <ele>2229</ele>
        <time>2017-09-17T13:18:49Z</time>
      </trkpt>
      <trkpt lat="44.15281" lon="7.59742">
        <ele>2229</ele>
        <time>2017-09-17T13:18:50Z</time>
      </trkpt>
      <trkpt lat="44.15279" lon="7.59745">
        <ele>2230</ele>
        <time>2017-09-17T13:18:51Z</time>
      </trkpt>
      <trkpt lat="44.15276" lon="7.59746">
        <ele>2230</ele>
        <time>2017-09-17T13:18:52Z</time>
      </trkpt>
      <trkpt lat="44.15273" lon="7.59745">
        <ele>2230</ele>
        <time>2017-09-17T13:18:53Z</time>
      </trkpt>
      <trkpt lat="44.1527" lon="7.59745">
        <ele>2231</ele>
        <time>2017-09-17T13:18:54Z</time>
      </trkpt>
      <trkpt lat="44.15267" lon="7.59745">
        <ele>2231</ele>
        <time>2017-09-17T13:18:55Z</time>
      </trkpt>
      <trkpt lat="44.15264" lon="7.59747">
        <ele>2232</ele>
        <time>2017-09-17T13:18:56Z</time>
      </trkpt>
      <trkpt lat="44.15261" lon="7.59749">
        <ele>2232</ele>
        <time>2017-09-17T13:18:57Z</time>
      </trkpt>
      <trkpt lat="44.15258" lon="7.59752">
        <ele>2232</ele>
        <time>2017-09-17T13:18:58Z</time>
      </trkpt>
      <trkpt lat="44.15255" lon="7.59755">
        <ele>2233</ele>
        <time>2017-09-17T13:18:59Z</time>
      </trkpt>
      <trkpt lat="44.15253" lon="7.59757">
        <ele>2233</ele>
        <time>2017-09-17T13:19:00Z</time>
      </trkpt>
      <trkpt lat="44.1525" lon="7.5976">
        <ele>2233</ele>
        <time>2017-09-17T13:19:01Z</time>
      </trkpt>
      <trkpt lat="44.15248" lon="7.59762">
        <ele>2234</ele>
        <time>2017-09-17T13:19:02Z</time>
      </trkpt>
      <trkpt lat="44.15246" lon="7.59765">
        <ele>2234</ele>
        <time>2017-09-17T13:19:03Z</time>
      </trkpt>
      <trkpt lat="44.15243" lon="7.59767">
        <ele>2235</ele>
        <time>2017-09-17T13:19:04Z</time>
      </trkpt>
      <trkpt lat="44.1524" lon="7.5977">
        <ele>2235</ele>
        <time>2017-09-17T13:19:05Z</time>
      </trkpt>
      <trkpt lat="44.15238" lon="7.59772">
        <ele>2235</ele>
        <time>2017-09-17T13:19:06Z</time>
      </trkpt>
      <trkpt lat="44.15235" lon="7.59776">
        <ele>2236</ele>
        <time>2017-09-17T13:19:07Z</time>
      </trkpt>
      <trkpt lat="44.15233" lon="7.59779">
        <ele>2236</ele>
        <time>2017-09-17T13:19:08Z</time>
      </trkpt>
      <trkpt lat="44.15231" lon="7.59783">
        <ele>2236</ele>
        <time>2017-09-17T13:19:09Z</time>
      </trkpt>
      <trkpt lat="44.15228" lon="7.59785">
        <ele>2237</ele>
        <time>2017-09-17T13:19:10Z</time>
      </trkpt>
      <trkpt lat="44.15226" lon="7.59787">
        <ele>2237</ele>
        <time>2017-09-17T13:19:11Z</time>
      </trkpt>
      <trkpt lat="44.15223" lon="7.5979">
        <ele>2237</ele>
        <time>2017-09-17T13:19:12Z</time>
      </trkpt>
      <trkpt lat="44.1522" lon="7.59791">
        <ele>2238</ele>
        <time>2017-09-17T13:19:13Z</time>
      </trkpt>
      <trkpt lat="44.15217" lon="7.59792">
        <ele>2238</ele>
        <time>2017-09-17T13:19:14Z</time>
      </trkpt>
      <trkpt lat="44.15214" lon="7.59793">
        <ele>2238</ele>
        <time>2017-09-17T13:19:15Z</time>
      </trkpt>
      <trkpt lat="44.1521" lon="7.59794">
        <ele>2239</ele>
        <time>2017-09-17T13:19:16Z</time>
      </trkpt>
      <trkpt lat="44.15207" lon="7.59795">
        <ele>2239</ele>
        <time>2017-09-17T13:19:17Z</time>
      </trkpt>
      <trkpt lat="44.15203" lon="7.59796">
        <ele>2239</ele>
        <time>2017-09-17T13:19:18Z</time>
      </trkpt>
      <trkpt lat="44.15199" lon="7.59798">
        <ele>2240</ele>
        <time>2017-09-17T13:19:19Z</time>
      </trkpt>
      <trkpt lat="44.15196" lon="7.59799">
        <ele>2240</ele>
        <time>2017-09-17T13:19:20Z</time>
      </trkpt>
      <trkpt lat="44.15192" lon="7.59801">
        <ele>2240</ele>
        <time>2017-09-17T13:19:21Z</time>
      </trkpt>
      <trkpt lat="44.15189" lon="7.59803">
        <ele>2241</ele>
        <time>2017-09-17T13:19:22Z</time>
      </trkpt>
      <trkpt lat="44.15186" lon="7.59804">
        <ele>2241</ele>
        <time>2017-09-17T13:19:23Z</time>
      </trkpt>
      <trkpt lat="44.15182" lon="7.59806">
        <ele>2242</ele>
        <time>2017-09-17T13:19:24Z</time>
      </trkpt>
      <trkpt lat="44.15179" lon="7.59808">
        <ele>2242</ele>
        <time>2017-09-17T13:19:25Z</time>
      </trkpt>
      <trkpt lat="44.15176" lon="7.5981">
        <ele>2242</ele>
        <time>2017-09-17T13:19:26Z</time>
      </trkpt>
      <trkpt lat="44.15173" lon="7.59813">
        <ele>2243</ele>
        <time>2017-09-17T13:19:27Z</time>
      </trkpt>
      <trkpt lat="44.15171" lon="7.59816">
        <ele>2243</ele>
        <time>2017-09-17T13:19:28Z</time>
      </trkpt>
      <trkpt lat="44.15169" lon="7.5982">
        <ele>2243</ele>
        <time>2017-09-17T13:19:29Z</time>
      </trkpt>
      <trkpt lat="44.15167" lon="7.59824">
        <ele>2243</ele>
        <time>2017-09-17T13:19:30Z</time>
      </trkpt>
      <trkpt lat="44.15165" lon="7.59828">
        <ele>2244</ele>
        <time>2017-09-17T13:19:31Z</time>
      </trkpt>
      <trkpt lat="44.15164" lon="7.59832">
        <ele>2244</ele>
        <time>2017-09-17T13:19:32Z</time>
      </trkpt>
      <trkpt lat="44.15162" lon="7.59837">
        <ele>2244</ele>
        <time>2017-09-17T13:19:33Z</time>
      </trkpt>
      <trkpt lat="44.15159" lon="7.59842">
        <ele>2244</ele>
        <time>2017-09-17T13:19:34Z</time>
      </trkpt>
      <trkpt lat="44.15156" lon="7.59846">
        <ele>2244</ele>
        <time>2017-09-17T13:19:35Z</time>
      </trkpt>
      <trkpt lat="44.15154" lon="7.59851">
        <ele>2244</ele>
        <time>2017-09-17T13:19:36Z</time>
      </trkpt>
      <trkpt lat="44.15151" lon="7.59856">
        <ele>2245</ele>
        <time>2017-09-17T13:19:37Z</time>
      </trkpt>
      <trkpt lat="44.15149" lon="7.59861">
        <ele>2245</ele>
        <time>2017-09-17T13:19:38Z</time>
      </trkpt>
      <trkpt lat="44.15146" lon="7.59867">
        <ele>2245</ele>
        <time>2017-09-17T13:19:39Z</time>
      </trkpt>
      <trkpt lat="44.15144" lon="7.59874">
        <ele>2245</ele>
        <time>2017-09-17T13:19:40Z</time>
      </trkpt>
      <trkpt lat="44.15142" lon="7.5988">
        <ele>2245</ele>
        <time>2017-09-17T13:19:41Z</time>
      </trkpt>
      <trkpt lat="44.15141" lon="7.59888">
        <ele>2245</ele>
        <time>2017-09-17T13:19:42Z</time>
      </trkpt>
      <trkpt lat="44.15139" lon="7.59894">
        <ele>2245</ele>
        <time>2017-09-17T13:19:43Z</time>
      </trkpt>
      <trkpt lat="44.15138" lon="7.59901">
        <ele>2245</ele>
        <time>2017-09-17T13:19:44Z</time>
      </trkpt>
      <trkpt lat="44.15137" lon="7.59908">
        <ele>2245</ele>
        <time>2017-09-17T13:19:45Z</time>
      </trkpt>
      <trkpt lat="44.15135" lon="7.59915">
        <ele>2246</ele>
        <time>2017-09-17T13:19:46Z</time>
      </trkpt>
      <trkpt lat="44.15134" lon="7.59921">
        <ele>2246</ele>
        <time>2017-09-17T13:19:47Z</time>
      </trkpt>
      <trkpt lat="44.15133" lon="7.59928">
        <ele>2246</ele>
        <time>2017-09-17T13:19:48Z</time>
      </trkpt>
      <trkpt lat="44.15131" lon="7.59935">
        <ele>2246</ele>
        <time>2017-09-17T13:19:49Z</time>
      </trkpt>
      <trkpt lat="44.1513" lon="7.59942">
        <ele>2246</ele>
        <time>2017-09-17T13:19:50Z</time>
      </trkpt>
      <trkpt lat="44.15128" lon="7.59948">
        <ele>2246</ele>
        <time>2017-09-17T13:19:51Z</time>
      </trkpt>
      <trkpt lat="44.15126" lon="7.59955">
        <ele>2247</ele>
        <time>2017-09-17T13:19:52Z</time>
      </trkpt>
      <trkpt lat="44.15123" lon="7.59961">
        <ele>2247</ele>
        <time>2017-09-17T13:19:53Z</time>
      </trkpt>
      <trkpt lat="44.1512" lon="7.59966">
        <ele>2247</ele>
        <time>2017-09-17T13:19:54Z</time>
      </trkpt>
      <trkpt lat="44.15119" lon="7.59973">
        <ele>2247</ele>
        <time>2017-09-17T13:19:55Z</time>
      </trkpt>
      <trkpt lat="44.15117" lon="7.5998">
        <ele>2247</ele>
        <time>2017-09-17T13:19:56Z</time>
      </trkpt>
      <trkpt lat="44.15117" lon="7.59986">
        <ele>2247</ele>
        <time>2017-09-17T13:19:57Z</time>
      </trkpt>
      <trkpt lat="44.15118" lon="7.59993">
        <ele>2247</ele>
        <time>2017-09-17T13:19:58Z</time>
      </trkpt>
      <trkpt lat="44.15118" lon="7.6">
        <ele>2247</ele>
        <time>2017-09-17T13:19:59Z</time>
      </trkpt>
      <trkpt lat="44.15118" lon="7.60006">
        <ele>2247</ele>
        <time>2017-09-17T13:20:00Z</time>
      </trkpt>
      <trkpt lat="44.15117" lon="7.60013">
        <ele>2247</ele>
        <time>2017-09-17T13:20:01Z</time>
      </trkpt>
      <trkpt lat="44.15116" lon="7.6002">
        <ele>2247</ele>
        <time>2017-09-17T13:20:02Z</time>
      </trkpt>
      <trkpt lat="44.15115" lon="7.60028">
        <ele>2247</ele>
        <time>2017-09-17T13:20:03Z</time>
      </trkpt>
      <trkpt lat="44.15113" lon="7.60035">
        <ele>2247</ele>
        <time>2017-09-17T13:20:04Z</time>
      </trkpt>
      <trkpt lat="44.15111" lon="7.60041">
        <ele>2247</ele>
        <time>2017-09-17T13:20:05Z</time>
      </trkpt>
      <trkpt lat="44.1511" lon="7.60046">
        <ele>2247</ele>
        <time>2017-09-17T13:20:06Z</time>
      </trkpt>
      <trkpt lat="44.15109" lon="7.60049">
        <ele>2247</ele>
        <time>2017-09-17T13:20:07Z</time>
      </trkpt>
      <trkpt lat="44.15109" lon="7.6005">
        <ele>2247</ele>
        <time>2017-09-17T13:20:08Z</time>
      </trkpt>
      <trkpt lat="44.15109" lon="7.6005">
        <ele>2247</ele>
        <time>2017-09-17T13:20:09Z</time>
      </trkpt>
      <trkpt lat="44.15109" lon="7.6005">
        <ele>2247</ele>
        <time>2017-09-17T13:20:10Z</time>
      </trkpt>
      <trkpt lat="44.15109" lon="7.6005">
        <ele>2247</ele>
        <time>2017-09-17T13:20:11Z</time>
      </trkpt>
      <trkpt lat="44.15109" lon="7.6005">
        <ele>2247</ele>
        <time>2017-09-17T13:20:12Z</time>
      </trkpt>
      <trkpt lat="44.15109" lon="7.6005">
        <ele>2247</ele>
        <time>2017-09-17T13:20:13Z</time>
      </trkpt>
      <trkpt lat="44.15109" lon="7.6005">
        <ele>2247</ele>
        <time>2017-09-17T13:20:14Z</time>
      </trkpt>
      <trkpt lat="44.15109" lon="7.6005">
        <ele>2247</ele>
        <time>2017-09-17T13:20:15Z</time>
      </trkpt>
      <trkpt lat="44.15109" lon="7.6005">
        <ele>2247</ele>
        <time>2017-09-17T13:20:16Z</time>
      </trkpt>
      <trkpt lat="44.15109" lon="7.6005">
        <ele>2246</ele>
        <time>2017-09-17T13:20:17Z</time>
      </trkpt>
      <trkpt lat="44.15109" lon="7.6005">
        <ele>2247</ele>
        <time>2017-09-17T13:20:18Z</time>
      </trkpt>
      <trkpt lat="44.15109" lon="7.6005">
        <ele>2247</ele>
        <time>2017-09-17T13:20:19Z</time>
      </trkpt>
      <trkpt lat="44.15109" lon="7.6005">
        <ele>2247</ele>
        <time>2017-09-17T13:20:20Z</time>
      </trkpt>
      <trkpt lat="44.15109" lon="7.6005">
        <ele>2246</ele>
        <time>2017-09-17T13:20:21Z</time>
      </trkpt>
      <trkpt lat="44.15109" lon="7.6005">
        <ele>2246</ele>
        <time>2017-09-17T13:20:22Z</time>
      </trkpt>
      <trkpt lat="44.15109" lon="7.6005">
        <ele>2246</ele>
        <time>2017-09-17T13:20:23Z</time>
      </trkpt>
      <trkpt lat="44.15109" lon="7.6005">
        <ele>2246</ele>
        <time>2017-09-17T13:20:24Z</time>
      </trkpt>
      <trkpt lat="44.15109" lon="7.6005">
        <ele>2246</ele>
        <time>2017-09-17T13:20:25Z</time>
      </trkpt>
      <trkpt lat="44.15109" lon="7.6005">
        <ele>2246</ele>
        <time>2017-09-17T13:20:26Z</time>
      </trkpt>
      <trkpt lat="44.15109" lon="7.6005">
        <ele>2246</ele>
        <time>2017-09-17T13:20:27Z</time>
      </trkpt>
      <trkpt lat="44.15109" lon="7.6005">
        <ele>2246</ele>
        <time>2017-09-17T13:20:28Z</time>
      </trkpt>
      <trkpt lat="44.15109" lon="7.6005">
        <ele>2246</ele>
        <time>2017-09-17T13:20:29Z</time>
      </trkpt>
      <trkpt lat="44.15109" lon="7.6005">
        <ele>2246</ele>
        <time>2017-09-17T13:20:30Z</time>
      </trkpt>
      <trkpt lat="44.15109" lon="7.6005">
        <ele>2246</ele>
        <time>2017-09-17T13:20:31Z</time>
      </trkpt>
      <trkpt lat="44.15109" lon="7.6005">
        <ele>2246</ele>
        <time>2017-09-17T13:20:32Z</time>
      </trkpt>
      <trkpt lat="44.15109" lon="7.6005">
        <ele>2246</ele>
        <time>2017-09-17T13:20:33Z</time>
      </trkpt>
      <trkpt lat="44.15109" lon="7.6005">
        <ele>2246</ele>
        <time>2017-09-17T13:20:34Z</time>
      </trkpt>
      <trkpt lat="44.15109" lon="7.6005">
        <ele>2246</ele>
        <time>2017-09-17T13:20:35Z</time>
      </trkpt>
      <trkpt lat="44.15109" lon="7.6005">
        <ele>2246</ele>
        <time>2017-09-17T13:20:36Z</time>
      </trkpt>
      <trkpt lat="44.15109" lon="7.6005">
        <ele>2246</ele>
        <time>2017-09-17T13:20:37Z</time>
      </trkpt>
      <trkpt lat="44.15109" lon="7.6005">
        <ele>2246</ele>
        <time>2017-09-17T13:20:38Z</time>
      </trkpt>
      <trkpt lat="44.15109" lon="7.6005">
        <ele>2246</ele>
        <time>2017-09-17T13:20:39Z</time>
      </trkpt>
      <trkpt lat="44.15109" lon="7.6005">
        <ele>2246</ele>
        <time>2017-09-17T13:20:40Z</time>
      </trkpt>
      <trkpt lat="44.15109" lon="7.6005">
        <ele>2246</ele>
        <time>2017-09-17T13:20:41Z</time>
      </trkpt>
      <trkpt lat="44.15109" lon="7.6005">
        <ele>2246</ele>
        <time>2017-09-17T13:20:42Z</time>
      </trkpt>
      <trkpt lat="44.15109" lon="7.6005">
        <ele>2246</ele>
        <time>2017-09-17T13:20:43Z</time>
      </trkpt>
      <trkpt lat="44.15109" lon="7.6005">
        <ele>2246</ele>
        <time>2017-09-17T13:20:44Z</time>
      </trkpt>
      <trkpt lat="44.15109" lon="7.6005">
        <ele>2246</ele>
        <time>2017-09-17T13:20:45Z</time>
      </trkpt>
      <trkpt lat="44.15109" lon="7.6005">
        <ele>2246</ele>
        <time>2017-09-17T13:20:46Z</time>
      </trkpt>
      <trkpt lat="44.15109" lon="7.6005">
        <ele>2246</ele>
        <time>2017-09-17T13:20:47Z</time>
      </trkpt>
      <trkpt lat="44.15109" lon="7.6005">
        <ele>2246</ele>
        <time>2017-09-17T13:20:48Z</time>
      </trkpt>
      <trkpt lat="44.15109" lon="7.6005">
        <ele>2246</ele>
        <time>2017-09-17T13:20:49Z</time>
      </trkpt>
      <trkpt lat="44.15109" lon="7.6005">
        <ele>2246</ele>
        <time>2017-09-17T13:20:50Z</time>
      </trkpt>
      <trkpt lat="44.15109" lon="7.6005">
        <ele>2246</ele>
        <time>2017-09-17T13:20:51Z</time>
      </trkpt>
      <trkpt lat="44.15109" lon="7.6005">
        <ele>2246</ele>
        <time>2017-09-17T13:20:52Z</time>
      </trkpt>
      <trkpt lat="44.15109" lon="7.6005">
        <ele>2246</ele>
        <time>2017-09-17T13:20:53Z</time>
      </trkpt>
      <trkpt lat="44.15109" lon="7.6005">
        <ele>2246</ele>
        <time>2017-09-17T13:20:54Z</time>
      </trkpt>
      <trkpt lat="44.15109" lon="7.6005">
        <ele>2246</ele>
        <time>2017-09-17T13:20:55Z</time>
      </trkpt>
      <trkpt lat="44.15109" lon="7.6005">
        <ele>2246</ele>
        <time>2017-09-17T13:20:56Z</time>
      </trkpt>
      <trkpt lat="44.15109" lon="7.6005">
        <ele>2246</ele>
        <time>2017-09-17T13:20:57Z</time>
      </trkpt>
      <trkpt lat="44.15109" lon="7.6005">
        <ele>2246</ele>
        <time>2017-09-17T13:20:58Z</time>
      </trkpt>
      <trkpt lat="44.15109" lon="7.6005">
        <ele>2246</ele>
        <time>2017-09-17T13:20:59Z</time>
      </trkpt>
      <trkpt lat="44.15109" lon="7.6005">
        <ele>2246</ele>
        <time>2017-09-17T13:21:00Z</time>
      </trkpt>
      <trkpt lat="44.15109" lon="7.6005">
        <ele>2246</ele>
        <time>2017-09-17T13:21:01Z</time>
      </trkpt>
      <trkpt lat="44.15109" lon="7.6005">
        <ele>2246</ele>
        <time>2017-09-17T13:21:02Z</time>
      </trkpt>
      <trkpt lat="44.15109" lon="7.6005">
        <ele>2246</ele>
        <time>2017-09-17T13:21:03Z</time>
      </trkpt>
      <trkpt lat="44.15109" lon="7.6005">
        <ele>2246</ele>
        <time>2017-09-17T13:21:04Z</time>
      </trkpt>
      <trkpt lat="44.15109" lon="7.6005">
        <ele>2246</ele>
        <time>2017-09-17T13:21:05Z</time>
      </trkpt>
      <trkpt lat="44.15109" lon="7.6005">
        <ele>2246</ele>
        <time>2017-09-17T13:21:06Z</time>
      </trkpt>
      <trkpt lat="44.15109" lon="7.6005">
        <ele>2246</ele>
        <time>2017-09-17T13:21:07Z</time>
      </trkpt>
      <trkpt lat="44.15109" lon="7.6005">
        <ele>2246</ele>
        <time>2017-09-17T13:21:08Z</time>
      </trkpt>
      <trkpt lat="44.15109" lon="7.6005">
        <ele>2246</ele>
        <time>2017-09-17T13:21:09Z</time>
      </trkpt>
      <trkpt lat="44.15109" lon="7.6005">
        <ele>2246</ele>
        <time>2017-09-17T13:21:10Z</time>
      </trkpt>
      <trkpt lat="44.15109" lon="7.6005">
        <ele>2246</ele>
        <time>2017-09-17T13:21:11Z</time>
      </trkpt>
      <trkpt lat="44.15108" lon="7.6005">
        <ele>2246</ele>
        <time>2017-09-17T13:21:12Z</time>
      </trkpt>
      <trkpt lat="44.15108" lon="7.6005">
        <ele>2246</ele>
        <time>2017-09-17T13:21:13Z</time>
      </trkpt>
      <trkpt lat="44.15108" lon="7.6005">
        <ele>2246</ele>
        <time>2017-09-17T13:21:14Z</time>
      </trkpt>
      <trkpt lat="44.15108" lon="7.6005">
        <ele>2246</ele>
        <time>2017-09-17T13:21:15Z</time>
      </trkpt>
      <trkpt lat="44.15108" lon="7.6005">
        <ele>2246</ele>
        <time>2017-09-17T13:21:16Z</time>
      </trkpt>
      <trkpt lat="44.15108" lon="7.6005">
        <ele>2246</ele>
        <time>2017-09-17T13:21:17Z</time>
      </trkpt>
      <trkpt lat="44.15108" lon="7.6005">
        <ele>2246</ele>
        <time>2017-09-17T13:21:18Z</time>
      </trkpt>
      <trkpt lat="44.15108" lon="7.6005">
        <ele>2246</ele>
        <time>2017-09-17T13:21:19Z</time>
      </trkpt>
      <trkpt lat="44.15108" lon="7.6005">
        <ele>2246</ele>
        <time>2017-09-17T13:21:20Z</time>
      </trkpt>
      <trkpt lat="44.15108" lon="7.6005">
        <ele>2246</ele>
        <time>2017-09-17T13:21:21Z</time>
      </trkpt>
      <trkpt lat="44.15108" lon="7.6005">
        <ele>2246</ele>
        <time>2017-09-17T13:21:22Z</time>
      </trkpt>
      <trkpt lat="44.15108" lon="7.6005">
        <ele>2246</ele>
        <time>2017-09-17T13:21:23Z</time>
      </trkpt>
      <trkpt lat="44.15108" lon="7.6005">
        <ele>2246</ele>
        <time>2017-09-17T13:21:24Z</time>
      </trkpt>
      <trkpt lat="44.15108" lon="7.6005">
        <ele>2246</ele>
        <time>2017-09-17T13:21:25Z</time>
      </trkpt>
      <trkpt lat="44.15108" lon="7.6005">
        <ele>2246</ele>
        <time>2017-09-17T13:21:26Z</time>
      </trkpt>
      <trkpt lat="44.15108" lon="7.6005">
        <ele>2246</ele>
        <time>2017-09-17T13:21:27Z</time>
      </trkpt>
      <trkpt lat="44.15108" lon="7.6005">
        <ele>2246</ele>
        <time>2017-09-17T13:21:28Z</time>
      </trkpt>
      <trkpt lat="44.15108" lon="7.6005">
        <ele>2246</ele>
        <time>2017-09-17T13:21:29Z</time>
      </trkpt>
      <trkpt lat="44.15108" lon="7.6005">
        <ele>2246</ele>
        <time>2017-09-17T13:21:30Z</time>
      </trkpt>
      <trkpt lat="44.15108" lon="7.6005">
        <ele>2246</ele>
        <time>2017-09-17T13:21:31Z</time>
      </trkpt>
      <trkpt lat="44.15108" lon="7.6005">
        <ele>2246</ele>
        <time>2017-09-17T13:21:32Z</time>
      </trkpt>
      <trkpt lat="44.15108" lon="7.6005">
        <ele>2246</ele>
        <time>2017-09-17T13:21:33Z</time>
      </trkpt>
      <trkpt lat="44.15108" lon="7.6005">
        <ele>2246</ele>
        <time>2017-09-17T13:21:34Z</time>
      </trkpt>
      <trkpt lat="44.15108" lon="7.6005">
        <ele>2246</ele>
        <time>2017-09-17T13:21:35Z</time>
      </trkpt>
      <trkpt lat="44.15108" lon="7.6005">
        <ele>2246</ele>
        <time>2017-09-17T13:21:36Z</time>
      </trkpt>
      <trkpt lat="44.15108" lon="7.6005">
        <ele>2246</ele>
        <time>2017-09-17T13:21:37Z</time>
      </trkpt>
      <trkpt lat="44.15108" lon="7.6005">
        <ele>2246</ele>
        <time>2017-09-17T13:21:38Z</time>
      </trkpt>
      <trkpt lat="44.15108" lon="7.6005">
        <ele>2246</ele>
        <time>2017-09-17T13:21:39Z</time>
      </trkpt>
      <trkpt lat="44.15108" lon="7.6005">
        <ele>2245</ele>
        <time>2017-09-17T13:21:40Z</time>
      </trkpt>
      <trkpt lat="44.15108" lon="7.6005">
        <ele>2245</ele>
        <time>2017-09-17T13:21:41Z</time>
      </trkpt>
      <trkpt lat="44.15108" lon="7.60051">
        <ele>2245</ele>
        <time>2017-09-17T13:21:42Z</time>
      </trkpt>
      <trkpt lat="44.15107" lon="7.60053">
        <ele>2245</ele>
        <time>2017-09-17T13:21:43Z</time>
      </trkpt>
      <trkpt lat="44.15107" lon="7.60055">
        <ele>2246</ele>
        <time>2017-09-17T13:21:44Z</time>
      </trkpt>
      <trkpt lat="44.15106" lon="7.60057">
        <ele>2246</ele>
        <time>2017-09-17T13:21:45Z</time>
      </trkpt>
      <trkpt lat="44.15105" lon="7.6006">
        <ele>2246</ele>
        <time>2017-09-17T13:21:46Z</time>
      </trkpt>
      <trkpt lat="44.15104" lon="7.60063">
        <ele>2246</ele>
        <time>2017-09-17T13:21:47Z</time>
      </trkpt>
      <trkpt lat="44.15103" lon="7.60067">
        <ele>2246</ele>
        <time>2017-09-17T13:21:48Z</time>
      </trkpt>
      <trkpt lat="44.15101" lon="7.60071">
        <ele>2246</ele>
        <time>2017-09-17T13:21:49Z</time>
      </trkpt>
      <trkpt lat="44.151" lon="7.60076">
        <ele>2246</ele>
        <time>2017-09-17T13:21:50Z</time>
      </trkpt>
      <trkpt lat="44.15098" lon="7.60081">
        <ele>2246</ele>
        <time>2017-09-17T13:21:51Z</time>
      </trkpt>
      <trkpt lat="44.15095" lon="7.60087">
        <ele>2246</ele>
        <time>2017-09-17T13:21:52Z</time>
      </trkpt>
      <trkpt lat="44.15093" lon="7.60092">
        <ele>2246</ele>
        <time>2017-09-17T13:21:53Z</time>
      </trkpt>
      <trkpt lat="44.1509" lon="7.60098">
        <ele>2246</ele>
        <time>2017-09-17T13:21:54Z</time>
      </trkpt>
      <trkpt lat="44.15088" lon="7.60103">
        <ele>2246</ele>
        <time>2017-09-17T13:21:55Z</time>
      </trkpt>
      <trkpt lat="44.15086" lon="7.60109">
        <ele>2246</ele>
        <time>2017-09-17T13:21:56Z</time>
      </trkpt>
      <trkpt lat="44.15084" lon="7.60115">
        <ele>2245</ele>
        <time>2017-09-17T13:21:57Z</time>
      </trkpt>
      <trkpt lat="44.15082" lon="7.60121">
        <ele>2245</ele>
        <time>2017-09-17T13:21:58Z</time>
      </trkpt>
      <trkpt lat="44.1508" lon="7.60127">
        <ele>2245</ele>
        <time>2017-09-17T13:21:59Z</time>
      </trkpt>
      <trkpt lat="44.15078" lon="7.60133">
        <ele>2245</ele>
        <time>2017-09-17T13:22:00Z</time>
      </trkpt>
      <trkpt lat="44.15076" lon="7.6014">
        <ele>2245</ele>
        <time>2017-09-17T13:22:01Z</time>
      </trkpt>
      <trkpt lat="44.15074" lon="7.60146">
        <ele>2245</ele>
        <time>2017-09-17T13:22:02Z</time>
      </trkpt>
      <trkpt lat="44.15071" lon="7.60151">
        <ele>2245</ele>
        <time>2017-09-17T13:22:03Z</time>
      </trkpt>
      <trkpt lat="44.15069" lon="7.60157">
        <ele>2245</ele>
        <time>2017-09-17T13:22:04Z</time>
      </trkpt>
      <trkpt lat="44.15065" lon="7.60162">
        <ele>2245</ele>
        <time>2017-09-17T13:22:05Z</time>
      </trkpt>
      <trkpt lat="44.15062" lon="7.60167">
        <ele>2245</ele>
        <time>2017-09-17T13:22:06Z</time>
      </trkpt>
      <trkpt lat="44.15058" lon="7.60171">
        <ele>2245</ele>
        <time>2017-09-17T13:22:07Z</time>
      </trkpt>
      <trkpt lat="44.15055" lon="7.60176">
        <ele>2245</ele>
        <time>2017-09-17T13:22:08Z</time>
      </trkpt>
      <trkpt lat="44.15051" lon="7.60181">
        <ele>2245</ele>
        <time>2017-09-17T13:22:09Z</time>
      </trkpt>
      <trkpt lat="44.15047" lon="7.60186">
        <ele>2244</ele>
        <time>2017-09-17T13:22:10Z</time>
      </trkpt>
      <trkpt lat="44.15044" lon="7.60192">
        <ele>2244</ele>
        <time>2017-09-17T13:22:11Z</time>
      </trkpt>
      <trkpt lat="44.1504" lon="7.60199">
        <ele>2244</ele>
        <time>2017-09-17T13:22:12Z</time>
      </trkpt>
      <trkpt lat="44.15037" lon="7.60205">
        <ele>2244</ele>
        <time>2017-09-17T13:22:13Z</time>
      </trkpt>
      <trkpt lat="44.15033" lon="7.6021">
        <ele>2244</ele>
        <time>2017-09-17T13:22:14Z</time>
      </trkpt>
      <trkpt lat="44.15028" lon="7.60215">
        <ele>2244</ele>
        <time>2017-09-17T13:22:15Z</time>
      </trkpt>
      <trkpt lat="44.15023" lon="7.60221">
        <ele>2244</ele>
        <time>2017-09-17T13:22:16Z</time>
      </trkpt>
      <trkpt lat="44.15019" lon="7.60226">
        <ele>2243</ele>
        <time>2017-09-17T13:22:17Z</time>
      </trkpt>
      <trkpt lat="44.15015" lon="7.60233">
        <ele>2243</ele>
        <time>2017-09-17T13:22:18Z</time>
      </trkpt>
      <trkpt lat="44.15013" lon="7.60241">
        <ele>2242</ele>
        <time>2017-09-17T13:22:19Z</time>
      </trkpt>
      <trkpt lat="44.15012" lon="7.6025">
        <ele>2242</ele>
        <time>2017-09-17T13:22:20Z</time>
      </trkpt>
      <trkpt lat="44.15011" lon="7.6026">
        <ele>2241</ele>
        <time>2017-09-17T13:22:21Z</time>
      </trkpt>
      <trkpt lat="44.1501" lon="7.60269">
        <ele>2241</ele>
        <time>2017-09-17T13:22:22Z</time>
      </trkpt>
      <trkpt lat="44.15007" lon="7.60276">
        <ele>2241</ele>
        <time>2017-09-17T13:22:23Z</time>
      </trkpt>
      <trkpt lat="44.15004" lon="7.60283">
        <ele>2240</ele>
        <time>2017-09-17T13:22:24Z</time>
      </trkpt>
      <trkpt lat="44.15" lon="7.60289">
        <ele>2240</ele>
        <time>2017-09-17T13:22:25Z</time>
      </trkpt>
      <trkpt lat="44.14995" lon="7.60295">
        <ele>2239</ele>
        <time>2017-09-17T13:22:26Z</time>
      </trkpt>
      <trkpt lat="44.14992" lon="7.603">
        <ele>2239</ele>
        <time>2017-09-17T13:22:27Z</time>
      </trkpt>
      <trkpt lat="44.1499" lon="7.60307">
        <ele>2239</ele>
        <time>2017-09-17T13:22:28Z</time>
      </trkpt>
      <trkpt lat="44.1499" lon="7.60314">
        <ele>2238</ele>
        <time>2017-09-17T13:22:29Z</time>
      </trkpt>
      <trkpt lat="44.14989" lon="7.60322">
        <ele>2238</ele>
        <time>2017-09-17T13:22:30Z</time>
      </trkpt>
      <trkpt lat="44.14988" lon="7.6033">
        <ele>2237</ele>
        <time>2017-09-17T13:22:31Z</time>
      </trkpt>
      <trkpt lat="44.14987" lon="7.60338">
        <ele>2237</ele>
        <time>2017-09-17T13:22:32Z</time>
      </trkpt>
      <trkpt lat="44.14986" lon="7.60347">
        <ele>2237</ele>
        <time>2017-09-17T13:22:33Z</time>
      </trkpt>
      <trkpt lat="44.14985" lon="7.60356">
        <ele>2236</ele>
        <time>2017-09-17T13:22:34Z</time>
      </trkpt>
      <trkpt lat="44.14983" lon="7.60365">
        <ele>2235</ele>
        <time>2017-09-17T13:22:35Z</time>
      </trkpt>
      <trkpt lat="44.14982" lon="7.60374">
        <ele>2235</ele>
        <time>2017-09-17T13:22:36Z</time>
      </trkpt>
      <trkpt lat="44.14981" lon="7.60384">
        <ele>2234</ele>
        <time>2017-09-17T13:22:37Z</time>
      </trkpt>
      <trkpt lat="44.1498" lon="7.60393">
        <ele>2234</ele>
        <time>2017-09-17T13:22:38Z</time>
      </trkpt>
      <trkpt lat="44.1498" lon="7.60403">
        <ele>2233</ele>
        <time>2017-09-17T13:22:39Z</time>
      </trkpt>
      <trkpt lat="44.1498" lon="7.60414">
        <ele>2233</ele>
        <time>2017-09-17T13:22:40Z</time>
      </trkpt>
      <trkpt lat="44.14981" lon="7.60424">
        <ele>2232</ele>
        <time>2017-09-17T13:22:41Z</time>
      </trkpt>
      <trkpt lat="44.14982" lon="7.60435">
        <ele>2231</ele>
        <time>2017-09-17T13:22:42Z</time>
      </trkpt>
      <trkpt lat="44.14983" lon="7.60445">
        <ele>2231</ele>
        <time>2017-09-17T13:22:43Z</time>
      </trkpt>
      <trkpt lat="44.14985" lon="7.60455">
        <ele>2230</ele>
        <time>2017-09-17T13:22:44Z</time>
      </trkpt>
      <trkpt lat="44.14985" lon="7.60464">
        <ele>2230</ele>
        <time>2017-09-17T13:22:45Z</time>
      </trkpt>
      <trkpt lat="44.14985" lon="7.60473">
        <ele>2229</ele>
        <time>2017-09-17T13:22:46Z</time>
      </trkpt>
      <trkpt lat="44.14983" lon="7.60482">
        <ele>2228</ele>
        <time>2017-09-17T13:22:47Z</time>
      </trkpt>
      <trkpt lat="44.14982" lon="7.60491">
        <ele>2228</ele>
        <time>2017-09-17T13:22:48Z</time>
      </trkpt>
      <trkpt lat="44.14981" lon="7.605">
        <ele>2227</ele>
        <time>2017-09-17T13:22:49Z</time>
      </trkpt>
      <trkpt lat="44.14982" lon="7.6051">
        <ele>2226</ele>
        <time>2017-09-17T13:22:50Z</time>
      </trkpt>
      <trkpt lat="44.14985" lon="7.6052">
        <ele>2224</ele>
        <time>2017-09-17T13:22:51Z</time>
      </trkpt>
      <trkpt lat="44.14988" lon="7.60531">
        <ele>2223</ele>
        <time>2017-09-17T13:22:52Z</time>
      </trkpt>
      <trkpt lat="44.14991" lon="7.60543">
        <ele>2221</ele>
        <time>2017-09-17T13:22:53Z</time>
      </trkpt>
      <trkpt lat="44.14994" lon="7.60556">
        <ele>2220</ele>
        <time>2017-09-17T13:22:54Z</time>
      </trkpt>
      <trkpt lat="44.14996" lon="7.60569">
        <ele>2219</ele>
        <time>2017-09-17T13:22:55Z</time>
      </trkpt>
      <trkpt lat="44.14997" lon="7.60582">
        <ele>2218</ele>
        <time>2017-09-17T13:22:56Z</time>
      </trkpt>
      <trkpt lat="44.14999" lon="7.60595">
        <ele>2217</ele>
        <time>2017-09-17T13:22:57Z</time>
      </trkpt>
      <trkpt lat="44.15" lon="7.60608">
        <ele>2216</ele>
        <time>2017-09-17T13:22:58Z</time>
      </trkpt>
      <trkpt lat="44.15001" lon="7.6062">
        <ele>2215</ele>
        <time>2017-09-17T13:22:59Z</time>
      </trkpt>
      <trkpt lat="44.15002" lon="7.60632">
        <ele>2214</ele>
        <time>2017-09-17T13:23:00Z</time>
      </trkpt>
      <trkpt lat="44.15002" lon="7.60644">
        <ele>2214</ele>
        <time>2017-09-17T13:23:01Z</time>
      </trkpt>
      <trkpt lat="44.15001" lon="7.60656">
        <ele>2213</ele>
        <time>2017-09-17T13:23:02Z</time>
      </trkpt>
      <trkpt lat="44.14999" lon="7.60668">
        <ele>2213</ele>
        <time>2017-09-17T13:23:03Z</time>
      </trkpt>
      <trkpt lat="44.14999" lon="7.60679">
        <ele>2212</ele>
        <time>2017-09-17T13:23:04Z</time>
      </trkpt>
      <trkpt lat="44.14998" lon="7.60691">
        <ele>2212</ele>
        <time>2017-09-17T13:23:05Z</time>
      </trkpt>
      <trkpt lat="44.14998" lon="7.60702">
        <ele>2212</ele>
        <time>2017-09-17T13:23:06Z</time>
      </trkpt>
      <trkpt lat="44.14997" lon="7.60712">
        <ele>2212</ele>
        <time>2017-09-17T13:23:07Z</time>
      </trkpt>
      <trkpt lat="44.14996" lon="7.60723">
        <ele>2211</ele>
        <time>2017-09-17T13:23:08Z</time>
      </trkpt>
      <trkpt lat="44.14994" lon="7.60732">
        <ele>2211</ele>
        <time>2017-09-17T13:23:09Z</time>
      </trkpt>
      <trkpt lat="44.14991" lon="7.60742">
        <ele>2211</ele>
        <time>2017-09-17T13:23:10Z</time>
      </trkpt>
      <trkpt lat="44.14989" lon="7.6075">
        <ele>2211</ele>
        <time>2017-09-17T13:23:11Z</time>
      </trkpt>
      <trkpt lat="44.14986" lon="7.60759">
        <ele>2211</ele>
        <time>2017-09-17T13:23:12Z</time>
      </trkpt>
      <trkpt lat="44.14984" lon="7.60767">
        <ele>2211</ele>
        <time>2017-09-17T13:23:13Z</time>
      </trkpt>
      <trkpt lat="44.14982" lon="7.60774">
        <ele>2211</ele>
        <time>2017-09-17T13:23:14Z</time>
      </trkpt>
      <trkpt lat="44.14979" lon="7.60782">
        <ele>2211</ele>
        <time>2017-09-17T13:23:15Z</time>
      </trkpt>
      <trkpt lat="44.14977" lon="7.60788">
        <ele>2211</ele>
        <time>2017-09-17T13:23:16Z</time>
      </trkpt>
      <trkpt lat="44.14974" lon="7.60795">
        <ele>2211</ele>
        <time>2017-09-17T13:23:17Z</time>
      </trkpt>
      <trkpt lat="44.14972" lon="7.60802">
        <ele>2211</ele>
        <time>2017-09-17T13:23:18Z</time>
      </trkpt>
      <trkpt lat="44.14969" lon="7.60809">
        <ele>2211</ele>
        <time>2017-09-17T13:23:19Z</time>
      </trkpt>
      <trkpt lat="44.14967" lon="7.60815">
        <ele>2211</ele>
        <time>2017-09-17T13:23:20Z</time>
      </trkpt>
      <trkpt lat="44.14965" lon="7.60822">
        <ele>2210</ele>
        <time>2017-09-17T13:23:21Z</time>
      </trkpt>
      <trkpt lat="44.14963" lon="7.60829">
        <ele>2210</ele>
        <time>2017-09-17T13:23:22Z</time>
      </trkpt>
      <trkpt lat="44.14961" lon="7.60836">
        <ele>2210</ele>
        <time>2017-09-17T13:23:23Z</time>
      </trkpt>
      <trkpt lat="44.14959" lon="7.60842">
        <ele>2210</ele>
        <time>2017-09-17T13:23:24Z</time>
      </trkpt>
      <trkpt lat="44.14957" lon="7.60849">
        <ele>2210</ele>
        <time>2017-09-17T13:23:25Z</time>
      </trkpt>
      <trkpt lat="44.14955" lon="7.60855">
        <ele>2210</ele>
        <time>2017-09-17T13:23:26Z</time>
      </trkpt>
      <trkpt lat="44.14953" lon="7.60862">
        <ele>2210</ele>
        <time>2017-09-17T13:23:27Z</time>
      </trkpt>
      <trkpt lat="44.14952" lon="7.60868">
        <ele>2210</ele>
        <time>2017-09-17T13:23:28Z</time>
      </trkpt>
      <trkpt lat="44.1495" lon="7.60875">
        <ele>2210</ele>
        <time>2017-09-17T13:23:29Z</time>
      </trkpt>
      <trkpt lat="44.14949" lon="7.60881">
        <ele>2210</ele>
        <time>2017-09-17T13:23:30Z</time>
      </trkpt>
      <trkpt lat="44.14947" lon="7.60887">
        <ele>2210</ele>
        <time>2017-09-17T13:23:31Z</time>
      </trkpt>
      <trkpt lat="44.14946" lon="7.60894">
        <ele>2210</ele>
        <time>2017-09-17T13:23:32Z</time>
      </trkpt>
      <trkpt lat="44.14944" lon="7.60901">
        <ele>2210</ele>
        <time>2017-09-17T13:23:33Z</time>
      </trkpt>
      <trkpt lat="44.14943" lon="7.60907">
        <ele>2210</ele>
        <time>2017-09-17T13:23:34Z</time>
      </trkpt>
      <trkpt lat="44.14941" lon="7.60914">
        <ele>2210</ele>
        <time>2017-09-17T13:23:35Z</time>
      </trkpt>
      <trkpt lat="44.1494" lon="7.6092">
        <ele>2210</ele>
        <time>2017-09-17T13:23:36Z</time>
      </trkpt>
      <trkpt lat="44.14938" lon="7.60926">
        <ele>2210</ele>
        <time>2017-09-17T13:23:37Z</time>
      </trkpt>
      <trkpt lat="44.14937" lon="7.60933">
        <ele>2210</ele>
        <time>2017-09-17T13:23:38Z</time>
      </trkpt>
      <trkpt lat="44.14935" lon="7.60939">
        <ele>2209</ele>
        <time>2017-09-17T13:23:39Z</time>
      </trkpt>
      <trkpt lat="44.14934" lon="7.60946">
        <ele>2209</ele>
        <time>2017-09-17T13:23:40Z</time>
      </trkpt>
      <trkpt lat="44.14932" lon="7.60953">
        <ele>2209</ele>
        <time>2017-09-17T13:23:41Z</time>
      </trkpt>
      <trkpt lat="44.14932" lon="7.6096">
        <ele>2209</ele>
        <time>2017-09-17T13:23:42Z</time>
      </trkpt>
      <trkpt lat="44.14931" lon="7.60966">
        <ele>2209</ele>
        <time>2017-09-17T13:23:43Z</time>
      </trkpt>
      <trkpt lat="44.1493" lon="7.60973">
        <ele>2209</ele>
        <time>2017-09-17T13:23:44Z</time>
      </trkpt>
      <trkpt lat="44.1493" lon="7.6098">
        <ele>2209</ele>
        <time>2017-09-17T13:23:45Z</time>
      </trkpt>
      <trkpt lat="44.14929" lon="7.60986">
        <ele>2209</ele>
        <time>2017-09-17T13:23:46Z</time>
      </trkpt>
      <trkpt lat="44.1493" lon="7.60993">
        <ele>2209</ele>
        <time>2017-09-17T13:23:47Z</time>
      </trkpt>
      <trkpt lat="44.1493" lon="7.61">
        <ele>2208</ele>
        <time>2017-09-17T13:23:48Z</time>
      </trkpt>
      <trkpt lat="44.1493" lon="7.61006">
        <ele>2208</ele>
        <time>2017-09-17T13:23:49Z</time>
      </trkpt>
      <trkpt lat="44.1493" lon="7.61013">
        <ele>2208</ele>
        <time>2017-09-17T13:23:50Z</time>
      </trkpt>
      <trkpt lat="44.1493" lon="7.6102">
        <ele>2208</ele>
        <time>2017-09-17T13:23:51Z</time>
      </trkpt>
      <trkpt lat="44.14929" lon="7.61027">
        <ele>2208</ele>
        <time>2017-09-17T13:23:52Z</time>
      </trkpt>
      <trkpt lat="44.14929" lon="7.61034">
        <ele>2208</ele>
        <time>2017-09-17T13:23:53Z</time>
      </trkpt>
      <trkpt lat="44.14928" lon="7.61041">
        <ele>2208</ele>
        <time>2017-09-17T13:23:54Z</time>
      </trkpt>
      <trkpt lat="44.14927" lon="7.61048">
        <ele>2208</ele>
        <time>2017-09-17T13:23:55Z</time>
      </trkpt>
      <trkpt lat="44.14925" lon="7.61055">
        <ele>2208</ele>
        <time>2017-09-17T13:23:56Z</time>
      </trkpt>
      <trkpt lat="44.14924" lon="7.61061">
        <ele>2208</ele>
        <time>2017-09-17T13:23:57Z</time>
      </trkpt>
      <trkpt lat="44.14922" lon="7.61068">
        <ele>2208</ele>
        <time>2017-09-17T13:23:58Z</time>
      </trkpt>
      <trkpt lat="44.14919" lon="7.61075">
        <ele>2208</ele>
        <time>2017-09-17T13:23:59Z</time>
      </trkpt>
      <trkpt lat="44.14917" lon="7.61082">
        <ele>2208</ele>
        <time>2017-09-17T13:24:00Z</time>
      </trkpt>
      <trkpt lat="44.14915" lon="7.61089">
        <ele>2208</ele>
        <time>2017-09-17T13:24:01Z</time>
      </trkpt>
      <trkpt lat="44.14913" lon="7.61096">
        <ele>2208</ele>
        <time>2017-09-17T13:24:02Z</time>
      </trkpt>
      <trkpt lat="44.14911" lon="7.61104">
        <ele>2208</ele>
        <time>2017-09-17T13:24:03Z</time>
      </trkpt>
      <trkpt lat="44.1491" lon="7.61111">
        <ele>2208</ele>
        <time>2017-09-17T13:24:04Z</time>
      </trkpt>
      <trkpt lat="44.14909" lon="7.61119">
        <ele>2208</ele>
        <time>2017-09-17T13:24:05Z</time>
      </trkpt>
      <trkpt lat="44.14908" lon="7.61126">
        <ele>2208</ele>
        <time>2017-09-17T13:24:06Z</time>
      </trkpt>
      <trkpt lat="44.14907" lon="7.61134">
        <ele>2208</ele>
        <time>2017-09-17T13:24:07Z</time>
      </trkpt>
      <trkpt lat="44.14905" lon="7.61141">
        <ele>2208</ele>
        <time>2017-09-17T13:24:08Z</time>
      </trkpt>
      <trkpt lat="44.14904" lon="7.61149">
        <ele>2208</ele>
        <time>2017-09-17T13:24:09Z</time>
      </trkpt>
      <trkpt lat="44.14903" lon="7.61156">
        <ele>2208</ele>
        <time>2017-09-17T13:24:10Z</time>
      </trkpt>
      <trkpt lat="44.14901" lon="7.61163">
        <ele>2208</ele>
        <time>2017-09-17T13:24:11Z</time>
      </trkpt>
      <trkpt lat="44.14899" lon="7.6117">
        <ele>2208</ele>
        <time>2017-09-17T13:24:12Z</time>
      </trkpt>
      <trkpt lat="44.14897" lon="7.61177">
        <ele>2208</ele>
        <time>2017-09-17T13:24:13Z</time>
      </trkpt>
      <trkpt lat="44.14895" lon="7.61183">
        <ele>2208</ele>
        <time>2017-09-17T13:24:14Z</time>
      </trkpt>
      <trkpt lat="44.14893" lon="7.6119">
        <ele>2208</ele>
        <time>2017-09-17T13:24:15Z</time>
      </trkpt>
      <trkpt lat="44.14891" lon="7.61197">
        <ele>2208</ele>
        <time>2017-09-17T13:24:16Z</time>
      </trkpt>
      <trkpt lat="44.1489" lon="7.61205">
        <ele>2208</ele>
        <time>2017-09-17T13:24:17Z</time>
      </trkpt>
      <trkpt lat="44.1489" lon="7.61213">
        <ele>2207</ele>
        <time>2017-09-17T13:24:18Z</time>
      </trkpt>
      <trkpt lat="44.1489" lon="7.6122">
        <ele>2207</ele>
        <time>2017-09-17T13:24:19Z</time>
      </trkpt>
      <trkpt lat="44.14891" lon="7.61228">
        <ele>2207</ele>
        <time>2017-09-17T13:24:20Z</time>
      </trkpt>
      <trkpt lat="44.14892" lon="7.61237">
        <ele>2207</ele>
        <time>2017-09-17T13:24:21Z</time>
      </trkpt>
      <trkpt lat="44.14894" lon="7.61245">
        <ele>2206</ele>
        <time>2017-09-17T13:24:22Z</time>
      </trkpt>
      <trkpt lat="44.14896" lon="7.61254">
        <ele>2206</ele>
        <time>2017-09-17T13:24:23Z</time>
      </trkpt>
      <trkpt lat="44.14899" lon="7.61262">
        <ele>2206</ele>
        <time>2017-09-17T13:24:24Z</time>
      </trkpt>
      <trkpt lat="44.14901" lon="7.61271">
        <ele>2205</ele>
        <time>2017-09-17T13:24:25Z</time>
      </trkpt>
      <trkpt lat="44.14904" lon="7.6128">
        <ele>2205</ele>
        <time>2017-09-17T13:24:26Z</time>
      </trkpt>
      <trkpt lat="44.14907" lon="7.61289">
        <ele>2205</ele>
        <time>2017-09-17T13:24:27Z</time>
      </trkpt>
      <trkpt lat="44.1491" lon="7.61298">
        <ele>2204</ele>
        <time>2017-09-17T13:24:28Z</time>
      </trkpt>
      <trkpt lat="44.14913" lon="7.61307">
        <ele>2204</ele>
        <time>2017-09-17T13:24:29Z</time>
      </trkpt>
      <trkpt lat="44.14916" lon="7.61317">
        <ele>2203</ele>
        <time>2017-09-17T13:24:30Z</time>
      </trkpt>
      <trkpt lat="44.14919" lon="7.61327">
        <ele>2203</ele>
        <time>2017-09-17T13:24:31Z</time>
      </trkpt>
      <trkpt lat="44.14922" lon="7.61337">
        <ele>2202</ele>
        <time>2017-09-17T13:24:32Z</time>
      </trkpt>
      <trkpt lat="44.14924" lon="7.61347">
        <ele>2202</ele>
        <time>2017-09-17T13:24:33Z</time>
      </trkpt>
      <trkpt lat="44.14927" lon="7.61357">
        <ele>2201</ele>
        <time>2017-09-17T13:24:34Z</time>
      </trkpt>
      <trkpt lat="44.14929" lon="7.61367">
        <ele>2201</ele>
        <time>2017-09-17T13:24:35Z</time>
      </trkpt>
      <trkpt lat="44.14932" lon="7.61376">
        <ele>2200</ele>
        <time>2017-09-17T13:24:36Z</time>
      </trkpt>
      <trkpt lat="44.14935" lon="7.61386">
        <ele>2200</ele>
        <time>2017-09-17T13:24:37Z</time>
      </trkpt>
      <trkpt lat="44.14937" lon="7.61396">
        <ele>2199</ele>
        <time>2017-09-17T13:24:38Z</time>
      </trkpt>
      <trkpt lat="44.14939" lon="7.61406">
        <ele>2199</ele>
        <time>2017-09-17T13:24:39Z</time>
      </trkpt>
      <trkpt lat="44.1494" lon="7.61417">
        <ele>2198</ele>
        <time>2017-09-17T13:24:40Z</time>
      </trkpt>
      <trkpt lat="44.14941" lon="7.61427">
        <ele>2198</ele>
        <time>2017-09-17T13:24:41Z</time>
      </trkpt>
      <trkpt lat="44.14943" lon="7.61438">
        <ele>2197</ele>
        <time>2017-09-17T13:24:42Z</time>
      </trkpt>
      <trkpt lat="44.14943" lon="7.61449">
        <ele>2197</ele>
        <time>2017-09-17T13:24:43Z</time>
      </trkpt>
      <trkpt lat="44.14943" lon="7.6146">
        <ele>2196</ele>
        <time>2017-09-17T13:24:44Z</time>
      </trkpt>
      <trkpt lat="44.14942" lon="7.61472">
        <ele>2195</ele>
        <time>2017-09-17T13:24:45Z</time>
      </trkpt>
      <trkpt lat="44.14941" lon="7.61484">
        <ele>2195</ele>
        <time>2017-09-17T13:24:46Z</time>
      </trkpt>
      <trkpt lat="44.1494" lon="7.61495">
        <ele>2195</ele>
        <time>2017-09-17T13:24:47Z</time>
      </trkpt>
      <trkpt lat="44.14937" lon="7.61505">
        <ele>2195</ele>
        <time>2017-09-17T13:24:48Z</time>
      </trkpt>
      <trkpt lat="44.14934" lon="7.61514">
        <ele>2195</ele>
        <time>2017-09-17T13:24:49Z</time>
      </trkpt>
      <trkpt lat="44.14932" lon="7.61524">
        <ele>2195</ele>
        <time>2017-09-17T13:24:50Z</time>
      </trkpt>
      <trkpt lat="44.1493" lon="7.61533">
        <ele>2195</ele>
        <time>2017-09-17T13:24:51Z</time>
      </trkpt>
      <trkpt lat="44.14929" lon="7.61542">
        <ele>2195</ele>
        <time>2017-09-17T13:24:52Z</time>
      </trkpt>
      <trkpt lat="44.14927" lon="7.6155">
        <ele>2195</ele>
        <time>2017-09-17T13:24:53Z</time>
      </trkpt>
      <trkpt lat="44.14925" lon="7.61558">
        <ele>2196</ele>
        <time>2017-09-17T13:24:54Z</time>
      </trkpt>
      <trkpt lat="44.14923" lon="7.61566">
        <ele>2196</ele>
        <time>2017-09-17T13:24:55Z</time>
      </trkpt>
      <trkpt lat="44.14921" lon="7.61574">
        <ele>2196</ele>
        <time>2017-09-17T13:24:56Z</time>
      </trkpt>
      <trkpt lat="44.14918" lon="7.61581">
        <ele>2196</ele>
        <time>2017-09-17T13:24:57Z</time>
      </trkpt>
      <trkpt lat="44.14916" lon="7.61589">
        <ele>2196</ele>
        <time>2017-09-17T13:24:58Z</time>
      </trkpt>
      <trkpt lat="44.14913" lon="7.61596">
        <ele>2196</ele>
        <time>2017-09-17T13:24:59Z</time>
      </trkpt>
      <trkpt lat="44.1491" lon="7.61603">
        <ele>2196</ele>
        <time>2017-09-17T13:25:00Z</time>
      </trkpt>
      <trkpt lat="44.14906" lon="7.6161">
        <ele>2196</ele>
        <time>2017-09-17T13:25:01Z</time>
      </trkpt>
      <trkpt lat="44.14903" lon="7.61617">
        <ele>2196</ele>
        <time>2017-09-17T13:25:02Z</time>
      </trkpt>
      <trkpt lat="44.14899" lon="7.61625">
        <ele>2196</ele>
        <time>2017-09-17T13:25:03Z</time>
      </trkpt>
      <trkpt lat="44.14896" lon="7.61632">
        <ele>2196</ele>
        <time>2017-09-17T13:25:04Z</time>
      </trkpt>
      <trkpt lat="44.14893" lon="7.61639">
        <ele>2196</ele>
        <time>2017-09-17T13:25:05Z</time>
      </trkpt>
      <trkpt lat="44.1489" lon="7.61646">
        <ele>2196</ele>
        <time>2017-09-17T13:25:06Z</time>
      </trkpt>
      <trkpt lat="44.14887" lon="7.61653">
        <ele>2196</ele>
        <time>2017-09-17T13:25:07Z</time>
      </trkpt>
      <trkpt lat="44.14883" lon="7.6166">
        <ele>2196</ele>
        <time>2017-09-17T13:25:08Z</time>
      </trkpt>
      <trkpt lat="44.14881" lon="7.61667">
        <ele>2196</ele>
        <time>2017-09-17T13:25:09Z</time>
      </trkpt>
      <trkpt lat="44.14878" lon="7.61675">
        <ele>2196</ele>
        <time>2017-09-17T13:25:10Z</time>
      </trkpt>
      <trkpt lat="44.14876" lon="7.61682">
        <ele>2196</ele>
        <time>2017-09-17T13:25:11Z</time>
      </trkpt>
      <trkpt lat="44.14874" lon="7.61688">
        <ele>2196</ele>
        <time>2017-09-17T13:25:12Z</time>
      </trkpt>
      <trkpt lat="44.14871" lon="7.61695">
        <ele>2196</ele>
        <time>2017-09-17T13:25:13Z</time>
      </trkpt>
      <trkpt lat="44.14869" lon="7.61702">
        <ele>2196</ele>
        <time>2017-09-17T13:25:14Z</time>
      </trkpt>
      <trkpt lat="44.14867" lon="7.61709">
        <ele>2196</ele>
        <time>2017-09-17T13:25:15Z</time>
      </trkpt>
      <trkpt lat="44.14864" lon="7.61716">
        <ele>2196</ele>
        <time>2017-09-17T13:25:16Z</time>
      </trkpt>
      <trkpt lat="44.1486" lon="7.61722">
        <ele>2196</ele>
        <time>2017-09-17T13:25:17Z</time>
      </trkpt>
      <trkpt lat="44.14857" lon="7.61728">
        <ele>2196</ele>
        <time>2017-09-17T13:25:18Z</time>
      </trkpt>
      <trkpt lat="44.14854" lon="7.61735">
        <ele>2196</ele>
        <time>2017-09-17T13:25:19Z</time>
      </trkpt>
      <trkpt lat="44.1485" lon="7.61741">
        <ele>2196</ele>
        <time>2017-09-17T13:25:20Z</time>
      </trkpt>
      <trkpt lat="44.14846" lon="7.61747">
        <ele>2196</ele>
        <time>2017-09-17T13:25:21Z</time>
      </trkpt>
      <trkpt lat="44.14843" lon="7.61753">
        <ele>2196</ele>
        <time>2017-09-17T13:25:22Z</time>
      </trkpt>
      <trkpt lat="44.14839" lon="7.61759">
        <ele>2195</ele>
        <time>2017-09-17T13:25:23Z</time>
      </trkpt>
      <trkpt lat="44.14836" lon="7.61766">
        <ele>2195</ele>
        <time>2017-09-17T13:25:24Z</time>
      </trkpt>
      <trkpt lat="44.14833" lon="7.61772">
        <ele>2195</ele>
        <time>2017-09-17T13:25:25Z</time>
      </trkpt>
      <trkpt lat="44.1483" lon="7.61779">
        <ele>2195</ele>
        <time>2017-09-17T13:25:26Z</time>
      </trkpt>
      <trkpt lat="44.14828" lon="7.61786">
        <ele>2195</ele>
        <time>2017-09-17T13:25:27Z</time>
      </trkpt>
      <trkpt lat="44.14826" lon="7.61794">
        <ele>2195</ele>
        <time>2017-09-17T13:25:28Z</time>
      </trkpt>
      <trkpt lat="44.14824" lon="7.61801">
        <ele>2196</ele>
        <time>2017-09-17T13:25:29Z</time>
      </trkpt>
      <trkpt lat="44.14822" lon="7.61809">
        <ele>2196</ele>
        <time>2017-09-17T13:25:30Z</time>
      </trkpt>
      <trkpt lat="44.14821" lon="7.61816">
        <ele>2196</ele>
        <time>2017-09-17T13:25:31Z</time>
      </trkpt>
      <trkpt lat="44.1482" lon="7.61824">
        <ele>2196</ele>
        <time>2017-09-17T13:25:32Z</time>
      </trkpt>
      <trkpt lat="44.14819" lon="7.61832">
        <ele>2196</ele>
        <time>2017-09-17T13:25:33Z</time>
      </trkpt>
      <trkpt lat="44.14818" lon="7.6184">
        <ele>2196</ele>
        <time>2017-09-17T13:25:34Z</time>
      </trkpt>
      <trkpt lat="44.14817" lon="7.61848">
        <ele>2196</ele>
        <time>2017-09-17T13:25:35Z</time>
      </trkpt>
      <trkpt lat="44.14815" lon="7.61855">
        <ele>2196</ele>
        <time>2017-09-17T13:25:36Z</time>
      </trkpt>
      <trkpt lat="44.14812" lon="7.61863">
        <ele>2196</ele>
        <time>2017-09-17T13:25:37Z</time>
      </trkpt>
      <trkpt lat="44.1481" lon="7.6187">
        <ele>2196</ele>
        <time>2017-09-17T13:25:38Z</time>
      </trkpt>
      <trkpt lat="44.14807" lon="7.61877">
        <ele>2196</ele>
        <time>2017-09-17T13:25:39Z</time>
      </trkpt>
      <trkpt lat="44.14804" lon="7.61884">
        <ele>2196</ele>
        <time>2017-09-17T13:25:40Z</time>
      </trkpt>
      <trkpt lat="44.14801" lon="7.61892">
        <ele>2196</ele>
        <time>2017-09-17T13:25:41Z</time>
      </trkpt>
      <trkpt lat="44.14798" lon="7.61899">
        <ele>2195</ele>
        <time>2017-09-17T13:25:42Z</time>
      </trkpt>
      <trkpt lat="44.14794" lon="7.61907">
        <ele>2195</ele>
        <time>2017-09-17T13:25:43Z</time>
      </trkpt>
      <trkpt lat="44.14791" lon="7.61915">
        <ele>2195</ele>
        <time>2017-09-17T13:25:44Z</time>
      </trkpt>
      <trkpt lat="44.14789" lon="7.61922">
        <ele>2195</ele>
        <time>2017-09-17T13:25:45Z</time>
      </trkpt>
      <trkpt lat="44.14786" lon="7.61929">
        <ele>2195</ele>
        <time>2017-09-17T13:25:46Z</time>
      </trkpt>
      <trkpt lat="44.14784" lon="7.61935">
        <ele>2196</ele>
        <time>2017-09-17T13:25:47Z</time>
      </trkpt>
      <trkpt lat="44.14781" lon="7.61941">
        <ele>2196</ele>
        <time>2017-09-17T13:25:48Z</time>
      </trkpt>
      <trkpt lat="44.14778" lon="7.61946">
        <ele>2196</ele>
        <time>2017-09-17T13:25:49Z</time>
      </trkpt>
      <trkpt lat="44.14775" lon="7.61952">
        <ele>2196</ele>
        <time>2017-09-17T13:25:50Z</time>
      </trkpt>
      <trkpt lat="44.14772" lon="7.61958">
        <ele>2195</ele>
        <time>2017-09-17T13:25:51Z</time>
      </trkpt>
      <trkpt lat="44.14768" lon="7.61964">
        <ele>2195</ele>
        <time>2017-09-17T13:25:52Z</time>
      </trkpt>
      <trkpt lat="44.14765" lon="7.6197">
        <ele>2195</ele>
        <time>2017-09-17T13:25:53Z</time>
      </trkpt>
      <trkpt lat="44.14763" lon="7.61976">
        <ele>2195</ele>
        <time>2017-09-17T13:25:54Z</time>
      </trkpt>
      <trkpt lat="44.1476" lon="7.61983">
        <ele>2195</ele>
        <time>2017-09-17T13:25:55Z</time>
      </trkpt>
      <trkpt lat="44.14758" lon="7.6199">
        <ele>2195</ele>
        <time>2017-09-17T13:25:56Z</time>
      </trkpt>
      <trkpt lat="44.14755" lon="7.61997">
        <ele>2195</ele>
        <time>2017-09-17T13:25:57Z</time>
      </trkpt>
      <trkpt lat="44.14753" lon="7.62004">
        <ele>2195</ele>
        <time>2017-09-17T13:25:58Z</time>
      </trkpt>
      <trkpt lat="44.14751" lon="7.62012">
        <ele>2194</ele>
        <time>2017-09-17T13:25:59Z</time>
      </trkpt>
      <trkpt lat="44.14749" lon="7.62019">
        <ele>2194</ele>
        <time>2017-09-17T13:26:00Z</time>
      </trkpt>
      <trkpt lat="44.14747" lon="7.62027">
        <ele>2194</ele>
        <time>2017-09-17T13:26:01Z</time>
      </trkpt>
      <trkpt lat="44.14745" lon="7.62034">
        <ele>2194</ele>
        <time>2017-09-17T13:26:02Z</time>
      </trkpt>
      <trkpt lat="44.14744" lon="7.62042">
        <ele>2194</ele>
        <time>2017-09-17T13:26:03Z</time>
      </trkpt>
      <trkpt lat="44.14743" lon="7.6205">
        <ele>2194</ele>
        <time>2017-09-17T13:26:04Z</time>
      </trkpt>
      <trkpt lat="44.14741" lon="7.62058">
        <ele>2194</ele>
        <time>2017-09-17T13:26:05Z</time>
      </trkpt>
      <trkpt lat="44.1474" lon="7.62066">
        <ele>2194</ele>
        <time>2017-09-17T13:26:06Z</time>
      </trkpt>
      <trkpt lat="44.14739" lon="7.62074">
        <ele>2194</ele>
        <time>2017-09-17T13:26:07Z</time>
      </trkpt>
      <trkpt lat="44.14738" lon="7.62082">
        <ele>2194</ele>
        <time>2017-09-17T13:26:08Z</time>
      </trkpt>
      <trkpt lat="44.14738" lon="7.6209">
        <ele>2194</ele>
        <time>2017-09-17T13:26:09Z</time>
      </trkpt>
      <trkpt lat="44.1474" lon="7.62098">
        <ele>2193</ele>
        <time>2017-09-17T13:26:10Z</time>
      </trkpt>
      <trkpt lat="44.14743" lon="7.62105">
        <ele>2193</ele>
        <time>2017-09-17T13:26:11Z</time>
      </trkpt>
      <trkpt lat="44.14745" lon="7.62112">
        <ele>2193</ele>
        <time>2017-09-17T13:26:12Z</time>
      </trkpt>
      <trkpt lat="44.14748" lon="7.6212">
        <ele>2193</ele>
        <time>2017-09-17T13:26:13Z</time>
      </trkpt>
      <trkpt lat="44.1475" lon="7.62127">
        <ele>2193</ele>
        <time>2017-09-17T13:26:14Z</time>
      </trkpt>
      <trkpt lat="44.14753" lon="7.62134">
        <ele>2193</ele>
        <time>2017-09-17T13:26:15Z</time>
      </trkpt>
      <trkpt lat="44.14755" lon="7.62142">
        <ele>2193</ele>
        <time>2017-09-17T13:26:16Z</time>
      </trkpt>
      <trkpt lat="44.14757" lon="7.62149">
        <ele>2193</ele>
        <time>2017-09-17T13:26:17Z</time>
      </trkpt>
      <trkpt lat="44.14759" lon="7.62155">
        <ele>2193</ele>
        <time>2017-09-17T13:26:18Z</time>
      </trkpt>
      <trkpt lat="44.14761" lon="7.62158">
        <ele>2193</ele>
        <time>2017-09-17T13:26:19Z</time>
      </trkpt>
      <trkpt lat="44.14761" lon="7.62158">
        <ele>2193</ele>
        <time>2017-09-17T13:26:20Z</time>
      </trkpt>
      <trkpt lat="44.14761" lon="7.62158">
        <ele>2194</ele>
        <time>2017-09-17T13:26:21Z</time>
      </trkpt>
      <trkpt lat="44.14761" lon="7.62159">
        <ele>2194</ele>
        <time>2017-09-17T13:26:22Z</time>
      </trkpt>
      <trkpt lat="44.14761" lon="7.62159">
        <ele>2194</ele>
        <time>2017-09-17T13:26:23Z</time>
      </trkpt>
      <trkpt lat="44.14761" lon="7.62159">
        <ele>2194</ele>
        <time>2017-09-17T13:26:24Z</time>
      </trkpt>
      <trkpt lat="44.14761" lon="7.62159">
        <ele>2194</ele>
        <time>2017-09-17T13:26:25Z</time>
      </trkpt>
      <trkpt lat="44.14761" lon="7.62159">
        <ele>2194</ele>
        <time>2017-09-17T13:26:26Z</time>
      </trkpt>
      <trkpt lat="44.14761" lon="7.62159">
        <ele>2194</ele>
        <time>2017-09-17T13:26:27Z</time>
      </trkpt>
      <trkpt lat="44.14761" lon="7.62159">
        <ele>2194</ele>
        <time>2017-09-17T13:26:28Z</time>
      </trkpt>
      <trkpt lat="44.14761" lon="7.62159">
        <ele>2194</ele>
        <time>2017-09-17T13:26:29Z</time>
      </trkpt>
      <trkpt lat="44.14761" lon="7.6216">
        <ele>2194</ele>
        <time>2017-09-17T13:26:30Z</time>
      </trkpt>
      <trkpt lat="44.14761" lon="7.6216">
        <ele>2194</ele>
        <time>2017-09-17T13:26:31Z</time>
      </trkpt>
      <trkpt lat="44.14761" lon="7.6216">
        <ele>2194</ele>
        <time>2017-09-17T13:26:32Z</time>
      </trkpt>
      <trkpt lat="44.14761" lon="7.6216">
        <ele>2194</ele>
        <time>2017-09-17T13:26:33Z</time>
      </trkpt>
      <trkpt lat="44.14761" lon="7.6216">
        <ele>2194</ele>
        <time>2017-09-17T13:26:34Z</time>
      </trkpt>
      <trkpt lat="44.14761" lon="7.6216">
        <ele>2194</ele>
        <time>2017-09-17T13:26:35Z</time>
      </trkpt>
      <trkpt lat="44.14761" lon="7.6216">
        <ele>2194</ele>
        <time>2017-09-17T13:26:36Z</time>
      </trkpt>
      <trkpt lat="44.14761" lon="7.6216">
        <ele>2194</ele>
        <time>2017-09-17T13:26:37Z</time>
      </trkpt>
      <trkpt lat="44.14761" lon="7.6216">
        <ele>2194</ele>
        <time>2017-09-17T13:26:38Z</time>
      </trkpt>
      <trkpt lat="44.14761" lon="7.6216">
        <ele>2194</ele>
        <time>2017-09-17T13:26:39Z</time>
      </trkpt>
      <trkpt lat="44.14761" lon="7.6216">
        <ele>2194</ele>
        <time>2017-09-17T13:26:40Z</time>
      </trkpt>
      <trkpt lat="44.14761" lon="7.6216">
        <ele>2194</ele>
        <time>2017-09-17T13:26:41Z</time>
      </trkpt>
      <trkpt lat="44.14761" lon="7.6216">
        <ele>2194</ele>
        <time>2017-09-17T13:26:42Z</time>
      </trkpt>
      <trkpt lat="44.14761" lon="7.6216">
        <ele>2194</ele>
        <time>2017-09-17T13:26:43Z</time>
      </trkpt>
      <trkpt lat="44.14761" lon="7.6216">
        <ele>2194</ele>
        <time>2017-09-17T13:26:44Z</time>
      </trkpt>
      <trkpt lat="44.14761" lon="7.6216">
        <ele>2194</ele>
        <time>2017-09-17T13:26:45Z</time>
      </trkpt>
      <trkpt lat="44.14761" lon="7.6216">
        <ele>2194</ele>
        <time>2017-09-17T13:26:46Z</time>
      </trkpt>
      <trkpt lat="44.14761" lon="7.6216">
        <ele>2194</ele>
        <time>2017-09-17T13:26:47Z</time>
      </trkpt>
      <trkpt lat="44.14761" lon="7.6216">
        <ele>2194</ele>
        <time>2017-09-17T13:26:48Z</time>
      </trkpt>
      <trkpt lat="44.14761" lon="7.6216">
        <ele>2194</ele>
        <time>2017-09-17T13:26:49Z</time>
      </trkpt>
      <trkpt lat="44.14761" lon="7.6216">
        <ele>2194</ele>
        <time>2017-09-17T13:26:50Z</time>
      </trkpt>
      <trkpt lat="44.14761" lon="7.62159">
        <ele>2194</ele>
        <time>2017-09-17T13:26:51Z</time>
      </trkpt>
      <trkpt lat="44.14762" lon="7.62159">
        <ele>2194</ele>
        <time>2017-09-17T13:26:52Z</time>
      </trkpt>
      <trkpt lat="44.14762" lon="7.62159">
        <ele>2194</ele>
        <time>2017-09-17T13:26:53Z</time>
      </trkpt>
      <trkpt lat="44.14762" lon="7.62159">
        <ele>2194</ele>
        <time>2017-09-17T13:26:54Z</time>
      </trkpt>
      <trkpt lat="44.14762" lon="7.62159">
        <ele>2194</ele>
        <time>2017-09-17T13:26:55Z</time>
      </trkpt>
      <trkpt lat="44.14761" lon="7.62159">
        <ele>2194</ele>
        <time>2017-09-17T13:26:56Z</time>
      </trkpt>
      <trkpt lat="44.14761" lon="7.62159">
        <ele>2194</ele>
        <time>2017-09-17T13:26:57Z</time>
      </trkpt>
      <trkpt lat="44.14761" lon="7.62159">
        <ele>2194</ele>
        <time>2017-09-17T13:26:58Z</time>
      </trkpt>
      <trkpt lat="44.14761" lon="7.62159">
        <ele>2194</ele>
        <time>2017-09-17T13:26:59Z</time>
      </trkpt>
      <trkpt lat="44.14761" lon="7.62159">
        <ele>2194</ele>
        <time>2017-09-17T13:27:00Z</time>
      </trkpt>
      <trkpt lat="44.14761" lon="7.62159">
        <ele>2194</ele>
        <time>2017-09-17T13:27:01Z</time>
      </trkpt>
      <trkpt lat="44.14761" lon="7.62159">
        <ele>2194</ele>
        <time>2017-09-17T13:27:02Z</time>
      </trkpt>
      <trkpt lat="44.14761" lon="7.62159">
        <ele>2194</ele>
        <time>2017-09-17T13:27:03Z</time>
      </trkpt>
      <trkpt lat="44.14761" lon="7.62158">
        <ele>2194</ele>
        <time>2017-09-17T13:27:04Z</time>
      </trkpt>
      <trkpt lat="44.14761" lon="7.62158">
        <ele>2194</ele>
        <time>2017-09-17T13:27:05Z</time>
      </trkpt>
      <trkpt lat="44.14761" lon="7.62158">
        <ele>2194</ele>
        <time>2017-09-17T13:27:06Z</time>
      </trkpt>
      <trkpt lat="44.14761" lon="7.62158">
        <ele>2194</ele>
        <time>2017-09-17T13:27:07Z</time>
      </trkpt>
      <trkpt lat="44.14761" lon="7.62158">
        <ele>2194</ele>
        <time>2017-09-17T13:27:08Z</time>
      </trkpt>
      <trkpt lat="44.14761" lon="7.62158">
        <ele>2194</ele>
        <time>2017-09-17T13:27:09Z</time>
      </trkpt>
      <trkpt lat="44.14761" lon="7.62158">
        <ele>2194</ele>
        <time>2017-09-17T13:27:10Z</time>
      </trkpt>
      <trkpt lat="44.14761" lon="7.62158">
        <ele>2194</ele>
        <time>2017-09-17T13:27:11Z</time>
      </trkpt>
      <trkpt lat="44.14761" lon="7.62158">
        <ele>2194</ele>
        <time>2017-09-17T13:27:12Z</time>
      </trkpt>
      <trkpt lat="44.14761" lon="7.62158">
        <ele>2194</ele>
        <time>2017-09-17T13:27:13Z</time>
      </trkpt>
      <trkpt lat="44.14761" lon="7.62157">
        <ele>2194</ele>
        <time>2017-09-17T13:27:14Z</time>
      </trkpt>
      <trkpt lat="44.14761" lon="7.62157">
        <ele>2193</ele>
        <time>2017-09-17T13:27:15Z</time>
      </trkpt>
      <trkpt lat="44.14761" lon="7.62157">
        <ele>2193</ele>
        <time>2017-09-17T13:27:16Z</time>
      </trkpt>
      <trkpt lat="44.1476" lon="7.62157">
        <ele>2193</ele>
        <time>2017-09-17T13:27:17Z</time>
      </trkpt>
      <trkpt lat="44.1476" lon="7.62157">
        <ele>2193</ele>
        <time>2017-09-17T13:27:18Z</time>
      </trkpt>
      <trkpt lat="44.1476" lon="7.62157">
        <ele>2193</ele>
        <time>2017-09-17T13:27:19Z</time>
      </trkpt>
      <trkpt lat="44.1476" lon="7.62157">
        <ele>2193</ele>
        <time>2017-09-17T13:27:20Z</time>
      </trkpt>
      <trkpt lat="44.1476" lon="7.62157">
        <ele>2193</ele>
        <time>2017-09-17T13:27:21Z</time>
      </trkpt>
      <trkpt lat="44.1476" lon="7.62157">
        <ele>2193</ele>
        <time>2017-09-17T13:27:22Z</time>
      </trkpt>
      <trkpt lat="44.1476" lon="7.62157">
        <ele>2193</ele>
        <time>2017-09-17T13:27:23Z</time>
      </trkpt>
      <trkpt lat="44.1476" lon="7.62157">
        <ele>2193</ele>
        <time>2017-09-17T13:27:24Z</time>
      </trkpt>
      <trkpt lat="44.1476" lon="7.62157">
        <ele>2193</ele>
        <time>2017-09-17T13:27:25Z</time>
      </trkpt>
      <trkpt lat="44.1476" lon="7.62157">
        <ele>2193</ele>
        <time>2017-09-17T13:27:26Z</time>
      </trkpt>
      <trkpt lat="44.1476" lon="7.62157">
        <ele>2193</ele>
        <time>2017-09-17T13:27:27Z</time>
      </trkpt>
      <trkpt lat="44.1476" lon="7.62156">
        <ele>2193</ele>
        <time>2017-09-17T13:27:28Z</time>
      </trkpt>
      <trkpt lat="44.1476" lon="7.62157">
        <ele>2193</ele>
        <time>2017-09-17T13:27:29Z</time>
      </trkpt>
      <trkpt lat="44.1476" lon="7.62157">
        <ele>2193</ele>
        <time>2017-09-17T13:27:30Z</time>
      </trkpt>
      <trkpt lat="44.1476" lon="7.62157">
        <ele>2193</ele>
        <time>2017-09-17T13:27:31Z</time>
      </trkpt>
      <trkpt lat="44.1476" lon="7.62157">
        <ele>2193</ele>
        <time>2017-09-17T13:27:32Z</time>
      </trkpt>
      <trkpt lat="44.1476" lon="7.62158">
        <ele>2193</ele>
        <time>2017-09-17T13:27:33Z</time>
      </trkpt>
      <trkpt lat="44.14761" lon="7.6216">
        <ele>2193</ele>
        <time>2017-09-17T13:27:34Z</time>
      </trkpt>
      <trkpt lat="44.14762" lon="7.62162">
        <ele>2193</ele>
        <time>2017-09-17T13:27:35Z</time>
      </trkpt>
      <trkpt lat="44.14763" lon="7.62165">
        <ele>2193</ele>
        <time>2017-09-17T13:27:36Z</time>
      </trkpt>
      <trkpt lat="44.14765" lon="7.62169">
        <ele>2193</ele>
        <time>2017-09-17T13:27:37Z</time>
      </trkpt>
      <trkpt lat="44.14767" lon="7.62172">
        <ele>2193</ele>
        <time>2017-09-17T13:27:38Z</time>
      </trkpt>
      <trkpt lat="44.14771" lon="7.62175">
        <ele>2193</ele>
        <time>2017-09-17T13:27:39Z</time>
      </trkpt>
      <trkpt lat="44.14774" lon="7.62179">
        <ele>2193</ele>
        <time>2017-09-17T13:27:40Z</time>
      </trkpt>
      <trkpt lat="44.14779" lon="7.62182">
        <ele>2193</ele>
        <time>2017-09-17T13:27:41Z</time>
      </trkpt>
      <trkpt lat="44.14783" lon="7.62186">
        <ele>2193</ele>
        <time>2017-09-17T13:27:42Z</time>
      </trkpt>
      <trkpt lat="44.14787" lon="7.62191">
        <ele>2193</ele>
        <time>2017-09-17T13:27:43Z</time>
      </trkpt>
      <trkpt lat="44.1479" lon="7.62197">
        <ele>2193</ele>
        <time>2017-09-17T13:27:44Z</time>
      </trkpt>
      <trkpt lat="44.14793" lon="7.62204">
        <ele>2193</ele>
        <time>2017-09-17T13:27:45Z</time>
      </trkpt>
      <trkpt lat="44.14797" lon="7.62209">
        <ele>2193</ele>
        <time>2017-09-17T13:27:46Z</time>
      </trkpt>
      <trkpt lat="44.14801" lon="7.62214">
        <ele>2193</ele>
        <time>2017-09-17T13:27:47Z</time>
      </trkpt>
      <trkpt lat="44.14806" lon="7.62219">
        <ele>2193</ele>
        <time>2017-09-17T13:27:48Z</time>
      </trkpt>
      <trkpt lat="44.14811" lon="7.62223">
        <ele>2193</ele>
        <time>2017-09-17T13:27:49Z</time>
      </trkpt>
      <trkpt lat="44.14816" lon="7.62226">
        <ele>2193</ele>
        <time>2017-09-17T13:27:50Z</time>
      </trkpt>
      <trkpt lat="44.14821" lon="7.6223">
        <ele>2193</ele>
        <time>2017-09-17T13:27:51Z</time>
      </trkpt>
      <trkpt lat="44.14827" lon="7.62233">
        <ele>2193</ele>
        <time>2017-09-17T13:27:52Z</time>
      </trkpt>
      <trkpt lat="44.14832" lon="7.62236">
        <ele>2193</ele>
        <time>2017-09-17T13:27:53Z</time>
      </trkpt>
      <trkpt lat="44.14837" lon="7.6224">
        <ele>2193</ele>
        <time>2017-09-17T13:27:54Z</time>
      </trkpt>
      <trkpt lat="44.14843" lon="7.62243">
        <ele>2193</ele>
        <time>2017-09-17T13:27:55Z</time>
      </trkpt>
      <trkpt lat="44.14848" lon="7.62245">
        <ele>2193</ele>
        <time>2017-09-17T13:27:56Z</time>
      </trkpt>
      <trkpt lat="44.14854" lon="7.62246">
        <ele>2193</ele>
        <time>2017-09-17T13:27:57Z</time>
      </trkpt>
      <trkpt lat="44.1486" lon="7.62248">
        <ele>2193</ele>
        <time>2017-09-17T13:27:58Z</time>
      </trkpt>
      <trkpt lat="44.14865" lon="7.62249">
        <ele>2194</ele>
        <time>2017-09-17T13:27:59Z</time>
      </trkpt>
      <trkpt lat="44.1487" lon="7.6225">
        <ele>2194</ele>
        <time>2017-09-17T13:28:00Z</time>
      </trkpt>
      <trkpt lat="44.14876" lon="7.62251">
        <ele>2194</ele>
        <time>2017-09-17T13:28:01Z</time>
      </trkpt>
      <trkpt lat="44.14881" lon="7.62252">
        <ele>2194</ele>
        <time>2017-09-17T13:28:02Z</time>
      </trkpt>
      <trkpt lat="44.14885" lon="7.62254">
        <ele>2194</ele>
        <time>2017-09-17T13:28:03Z</time>
      </trkpt>
      <trkpt lat="44.1489" lon="7.62256">
        <ele>2194</ele>
        <time>2017-09-17T13:28:04Z</time>
      </trkpt>
      <trkpt lat="44.14894" lon="7.62258">
        <ele>2195</ele>
        <time>2017-09-17T13:28:05Z</time>
      </trkpt>
      <trkpt lat="44.14898" lon="7.62261">
        <ele>2195</ele>
        <time>2017-09-17T13:28:06Z</time>
      </trkpt>
      <trkpt lat="44.14901" lon="7.62264">
        <ele>2195</ele>
        <time>2017-09-17T13:28:07Z</time>
      </trkpt>
      <trkpt lat="44.14903" lon="7.62268">
        <ele>2195</ele>
        <time>2017-09-17T13:28:08Z</time>
      </trkpt>
      <trkpt lat="44.14906" lon="7.6227">
        <ele>2195</ele>
        <time>2017-09-17T13:28:09Z</time>
      </trkpt>
      <trkpt lat="44.1491" lon="7.62272">
        <ele>2195</ele>
        <time>2017-09-17T13:28:10Z</time>
      </trkpt>
      <trkpt lat="44.14914" lon="7.62273">
        <ele>2195</ele>
        <time>2017-09-17T13:28:11Z</time>
      </trkpt>
      <trkpt lat="44.14917" lon="7.62272">
        <ele>2195</ele>
        <time>2017-09-17T13:28:12Z</time>
      </trkpt>
      <trkpt lat="44.14919" lon="7.62268">
        <ele>2195</ele>
        <time>2017-09-17T13:28:13Z</time>
      </trkpt>
      <trkpt lat="44.1492" lon="7.62264">
        <ele>2195</ele>
        <time>2017-09-17T13:28:14Z</time>
      </trkpt>
      <trkpt lat="44.14923" lon="7.62259">
        <ele>2195</ele>
        <time>2017-09-17T13:28:15Z</time>
      </trkpt>
      <trkpt lat="44.14926" lon="7.62253">
        <ele>2194</ele>
        <time>2017-09-17T13:28:16Z</time>
      </trkpt>
      <trkpt lat="44.1493" lon="7.62249">
        <ele>2194</ele>
        <time>2017-09-17T13:28:17Z</time>
      </trkpt>
      <trkpt lat="44.14934" lon="7.62246">
        <ele>2193</ele>
        <time>2017-09-17T13:28:18Z</time>
      </trkpt>
      <trkpt lat="44.14938" lon="7.62242">
        <ele>2193</ele>
        <time>2017-09-17T13:28:19Z</time>
      </trkpt>
      <trkpt lat="44.14943" lon="7.62238">
        <ele>2192</ele>
        <time>2017-09-17T13:28:20Z</time>
      </trkpt>
      <trkpt lat="44.14948" lon="7.62234">
        <ele>2191</ele>
        <time>2017-09-17T13:28:21Z</time>
      </trkpt>
      <trkpt lat="44.14953" lon="7.62229">
        <ele>2191</ele>
        <time>2017-09-17T13:28:22Z</time>
      </trkpt>
      <trkpt lat="44.14958" lon="7.62226">
        <ele>2190</ele>
        <time>2017-09-17T13:28:23Z</time>
      </trkpt>
      <trkpt lat="44.14962" lon="7.62221">
        <ele>2189</ele>
        <time>2017-09-17T13:28:24Z</time>
      </trkpt>
      <trkpt lat="44.14966" lon="7.62216">
        <ele>2189</ele>
        <time>2017-09-17T13:28:25Z</time>
      </trkpt>
      <trkpt lat="44.14971" lon="7.62212">
        <ele>2188</ele>
        <time>2017-09-17T13:28:26Z</time>
      </trkpt>
      <trkpt lat="44.14976" lon="7.62208">
        <ele>2187</ele>
        <time>2017-09-17T13:28:27Z</time>
      </trkpt>
      <trkpt lat="44.14982" lon="7.62204">
        <ele>2186</ele>
        <time>2017-09-17T13:28:28Z</time>
      </trkpt>
      <trkpt lat="44.14987" lon="7.622">
        <ele>2186</ele>
        <time>2017-09-17T13:28:29Z</time>
      </trkpt>
      <trkpt lat="44.14992" lon="7.62198">
        <ele>2185</ele>
        <time>2017-09-17T13:28:30Z</time>
      </trkpt>
      <trkpt lat="44.14997" lon="7.62196">
        <ele>2184</ele>
        <time>2017-09-17T13:28:31Z</time>
      </trkpt>
      <trkpt lat="44.15003" lon="7.62193">
        <ele>2184</ele>
        <time>2017-09-17T13:28:32Z</time>
      </trkpt>
      <trkpt lat="44.15008" lon="7.62189">
        <ele>2183</ele>
        <time>2017-09-17T13:28:33Z</time>
      </trkpt>
      <trkpt lat="44.15014" lon="7.62186">
        <ele>2182</ele>
        <time>2017-09-17T13:28:34Z</time>
      </trkpt>
      <trkpt lat="44.15018" lon="7.62182">
        <ele>2181</ele>
        <time>2017-09-17T13:28:35Z</time>
      </trkpt>
      <trkpt lat="44.15023" lon="7.62178">
        <ele>2181</ele>
        <time>2017-09-17T13:28:36Z</time>
      </trkpt>
      <trkpt lat="44.15027" lon="7.62175">
        <ele>2180</ele>
        <time>2017-09-17T13:28:37Z</time>
      </trkpt>
      <trkpt lat="44.15031" lon="7.62173">
        <ele>2179</ele>
        <time>2017-09-17T13:28:38Z</time>
      </trkpt>
      <trkpt lat="44.15035" lon="7.62172">
        <ele>2178</ele>
        <time>2017-09-17T13:28:39Z</time>
      </trkpt>
      <trkpt lat="44.15041" lon="7.6217">
        <ele>2178</ele>
        <time>2017-09-17T13:28:40Z</time>
      </trkpt>
      <trkpt lat="44.15046" lon="7.6217">
        <ele>2177</ele>
        <time>2017-09-17T13:28:41Z</time>
      </trkpt>
      <trkpt lat="44.15051" lon="7.6217">
        <ele>2176</ele>
        <time>2017-09-17T13:28:42Z</time>
      </trkpt>
      <trkpt lat="44.15056" lon="7.62171">
        <ele>2176</ele>
        <time>2017-09-17T13:28:43Z</time>
      </trkpt>
      <trkpt lat="44.15061" lon="7.62172">
        <ele>2175</ele>
        <time>2017-09-17T13:28:44Z</time>
      </trkpt>
      <trkpt lat="44.15066" lon="7.62172">
        <ele>2174</ele>
        <time>2017-09-17T13:28:45Z</time>
      </trkpt>
      <trkpt lat="44.15071" lon="7.62172">
        <ele>2174</ele>
        <time>2017-09-17T13:28:46Z</time>
      </trkpt>
      <trkpt lat="44.15076" lon="7.62173">
        <ele>2173</ele>
        <time>2017-09-17T13:28:47Z</time>
      </trkpt>
      <trkpt lat="44.15082" lon="7.62173">
        <ele>2173</ele>
        <time>2017-09-17T13:28:48Z</time>
      </trkpt>
      <trkpt lat="44.15087" lon="7.62174">
        <ele>2172</ele>
        <time>2017-09-17T13:28:49Z</time>
      </trkpt>
      <trkpt lat="44.15091" lon="7.62176">
        <ele>2172</ele>
        <time>2017-09-17T13:28:50Z</time>
      </trkpt>
      <trkpt lat="44.15096" lon="7.62178">
        <ele>2172</ele>
        <time>2017-09-17T13:28:51Z</time>
      </trkpt>
      <trkpt lat="44.15101" lon="7.6218">
        <ele>2171</ele>
        <time>2017-09-17T13:28:52Z</time>
      </trkpt>
      <trkpt lat="44.15107" lon="7.62181">
        <ele>2170</ele>
        <time>2017-09-17T13:28:53Z</time>
      </trkpt>
      <trkpt lat="44.15112" lon="7.62183">
        <ele>2170</ele>
        <time>2017-09-17T13:28:54Z</time>
      </trkpt>
      <trkpt lat="44.15117" lon="7.62186">
        <ele>2169</ele>
        <time>2017-09-17T13:28:55Z</time>
      </trkpt>
      <trkpt lat="44.15122" lon="7.6219">
        <ele>2169</ele>
        <time>2017-09-17T13:28:56Z</time>
      </trkpt>
      <trkpt lat="44.15128" lon="7.62193">
        <ele>2168</ele>
        <time>2017-09-17T13:28:57Z</time>
      </trkpt>
      <trkpt lat="44.15133" lon="7.62196">
        <ele>2168</ele>
        <time>2017-09-17T13:28:58Z</time>
      </trkpt>
      <trkpt lat="44.15138" lon="7.622">
        <ele>2167</ele>
        <time>2017-09-17T13:28:59Z</time>
      </trkpt>
      <trkpt lat="44.15142" lon="7.62204">
        <ele>2166</ele>
        <time>2017-09-17T13:29:00Z</time>
      </trkpt>
      <trkpt lat="44.15148" lon="7.62207">
        <ele>2165</ele>
        <time>2017-09-17T13:29:01Z</time>
      </trkpt>
      <trkpt lat="44.15152" lon="7.62211">
        <ele>2164</ele>
        <time>2017-09-17T13:29:02Z</time>
      </trkpt>
      <trkpt lat="44.15156" lon="7.62214">
        <ele>2163</ele>
        <time>2017-09-17T13:29:03Z</time>
      </trkpt>
      <trkpt lat="44.15161" lon="7.62218">
        <ele>2162</ele>
        <time>2017-09-17T13:29:04Z</time>
      </trkpt>
      <trkpt lat="44.15165" lon="7.62222">
        <ele>2161</ele>
        <time>2017-09-17T13:29:05Z</time>
      </trkpt>
      <trkpt lat="44.1517" lon="7.62226">
        <ele>2161</ele>
        <time>2017-09-17T13:29:06Z</time>
      </trkpt>
      <trkpt lat="44.15172" lon="7.62228">
        <ele>2160</ele>
        <time>2017-09-17T13:29:07Z</time>
      </trkpt>
      <trkpt lat="44.15173" lon="7.6223">
        <ele>2159</ele>
        <time>2017-09-17T13:29:08Z</time>
      </trkpt>
      <trkpt lat="44.15175" lon="7.62232">
        <ele>2159</ele>
        <time>2017-09-17T13:29:09Z</time>
      </trkpt>
      <trkpt lat="44.15178" lon="7.62234">
        <ele>2158</ele>
        <time>2017-09-17T13:29:10Z</time>
      </trkpt>
      <trkpt lat="44.15181" lon="7.62237">
        <ele>2158</ele>
        <time>2017-09-17T13:29:11Z</time>
      </trkpt>
      <trkpt lat="44.15184" lon="7.62241">
        <ele>2157</ele>
        <time>2017-09-17T13:29:12Z</time>
      </trkpt>
      <trkpt lat="44.15185" lon="7.62245">
        <ele>2157</ele>
        <time>2017-09-17T13:29:13Z</time>
      </trkpt>
      <trkpt lat="44.15186" lon="7.62249">
        <ele>2157</ele>
        <time>2017-09-17T13:29:14Z</time>
      </trkpt>
      <trkpt lat="44.15187" lon="7.62253">
        <ele>2156</ele>
        <time>2017-09-17T13:29:15Z</time>
      </trkpt>
      <trkpt lat="44.15188" lon="7.62257">
        <ele>2156</ele>
        <time>2017-09-17T13:29:16Z</time>
      </trkpt>
      <trkpt lat="44.15189" lon="7.62261">
        <ele>2155</ele>
        <time>2017-09-17T13:29:17Z</time>
      </trkpt>
      <trkpt lat="44.15191" lon="7.62267">
        <ele>2155</ele>
        <time>2017-09-17T13:29:18Z</time>
      </trkpt>
      <trkpt lat="44.15193" lon="7.62273">
        <ele>2154</ele>
        <time>2017-09-17T13:29:19Z</time>
      </trkpt>
      <trkpt lat="44.15195" lon="7.62278">
        <ele>2154</ele>
        <time>2017-09-17T13:29:20Z</time>
      </trkpt>
      <trkpt lat="44.15198" lon="7.62284">
        <ele>2153</ele>
        <time>2017-09-17T13:29:21Z</time>
      </trkpt>
      <trkpt lat="44.15201" lon="7.6229">
        <ele>2153</ele>
        <time>2017-09-17T13:29:22Z</time>
      </trkpt>
      <trkpt lat="44.15203" lon="7.62295">
        <ele>2152</ele>
        <time>2017-09-17T13:29:23Z</time>
      </trkpt>
      <trkpt lat="44.15204" lon="7.62301">
        <ele>2152</ele>
        <time>2017-09-17T13:29:24Z</time>
      </trkpt>
      <trkpt lat="44.15206" lon="7.62308">
        <ele>2151</ele>
        <time>2017-09-17T13:29:25Z</time>
      </trkpt>
      <trkpt lat="44.15208" lon="7.62315">
        <ele>2151</ele>
        <time>2017-09-17T13:29:26Z</time>
      </trkpt>
      <trkpt lat="44.15209" lon="7.62323">
        <ele>2150</ele>
        <time>2017-09-17T13:29:27Z</time>
      </trkpt>
      <trkpt lat="44.15211" lon="7.6233">
        <ele>2150</ele>
        <time>2017-09-17T13:29:28Z</time>
      </trkpt>
      <trkpt lat="44.15212" lon="7.62337">
        <ele>2150</ele>
        <time>2017-09-17T13:29:29Z</time>
      </trkpt>
      <trkpt lat="44.15212" lon="7.62344">
        <ele>2149</ele>
        <time>2017-09-17T13:29:30Z</time>
      </trkpt>
      <trkpt lat="44.15213" lon="7.6235">
        <ele>2149</ele>
        <time>2017-09-17T13:29:31Z</time>
      </trkpt>
      <trkpt lat="44.15214" lon="7.62356">
        <ele>2148</ele>
        <time>2017-09-17T13:29:32Z</time>
      </trkpt>
      <trkpt lat="44.15215" lon="7.62362">
        <ele>2148</ele>
        <time>2017-09-17T13:29:33Z</time>
      </trkpt>
      <trkpt lat="44.15217" lon="7.62369">
        <ele>2147</ele>
        <time>2017-09-17T13:29:34Z</time>
      </trkpt>
      <trkpt lat="44.15218" lon="7.62376">
        <ele>2147</ele>
        <time>2017-09-17T13:29:35Z</time>
      </trkpt>
      <trkpt lat="44.1522" lon="7.62382">
        <ele>2146</ele>
        <time>2017-09-17T13:29:36Z</time>
      </trkpt>
      <trkpt lat="44.15222" lon="7.62387">
        <ele>2146</ele>
        <time>2017-09-17T13:29:37Z</time>
      </trkpt>
      <trkpt lat="44.15225" lon="7.62388">
        <ele>2145</ele>
        <time>2017-09-17T13:29:38Z</time>
      </trkpt>
      <trkpt lat="44.15228" lon="7.62386">
        <ele>2145</ele>
        <time>2017-09-17T13:29:39Z</time>
      </trkpt>
      <trkpt lat="44.15232" lon="7.62383">
        <ele>2144</ele>
        <time>2017-09-17T13:29:40Z</time>
      </trkpt>
      <trkpt lat="44.15236" lon="7.6238">
        <ele>2143</ele>
        <time>2017-09-17T13:29:41Z</time>
      </trkpt>
      <trkpt lat="44.1524" lon="7.62379">
        <ele>2142</ele>
        <time>2017-09-17T13:29:42Z</time>
      </trkpt>
      <trkpt lat="44.15245" lon="7.62379">
        <ele>2141</ele>
        <time>2017-09-17T13:29:43Z</time>
      </trkpt>
      <trkpt lat="44.1525" lon="7.62381">
        <ele>2140</ele>
        <time>2017-09-17T13:29:44Z</time>
      </trkpt>
      <trkpt lat="44.15255" lon="7.62384">
        <ele>2140</ele>
        <time>2017-09-17T13:29:45Z</time>
      </trkpt>
      <trkpt lat="44.15259" lon="7.62388">
        <ele>2139</ele>
        <time>2017-09-17T13:29:46Z</time>
      </trkpt>
      <trkpt lat="44.15263" lon="7.62392">
        <ele>2139</ele>
        <time>2017-09-17T13:29:47Z</time>
      </trkpt>
      <trkpt lat="44.15267" lon="7.62395">
        <ele>2138</ele>
        <time>2017-09-17T13:29:48Z</time>
      </trkpt>
      <trkpt lat="44.15271" lon="7.62397">
        <ele>2137</ele>
        <time>2017-09-17T13:29:49Z</time>
      </trkpt>
      <trkpt lat="44.15276" lon="7.62398">
        <ele>2137</ele>
        <time>2017-09-17T13:29:50Z</time>
      </trkpt>
      <trkpt lat="44.15281" lon="7.62398">
        <ele>2136</ele>
        <time>2017-09-17T13:29:51Z</time>
      </trkpt>
      <trkpt lat="44.15286" lon="7.62397">
        <ele>2135</ele>
        <time>2017-09-17T13:29:52Z</time>
      </trkpt>
      <trkpt lat="44.1529" lon="7.62397">
        <ele>2134</ele>
        <time>2017-09-17T13:29:53Z</time>
      </trkpt>
      <trkpt lat="44.15295" lon="7.62396">
        <ele>2133</ele>
        <time>2017-09-17T13:29:54Z</time>
      </trkpt>
      <trkpt lat="44.15298" lon="7.62395">
        <ele>2132</ele>
        <time>2017-09-17T13:29:55Z</time>
      </trkpt>
      <trkpt lat="44.15302" lon="7.62395">
        <ele>2131</ele>
        <time>2017-09-17T13:29:56Z</time>
      </trkpt>
      <trkpt lat="44.15306" lon="7.62395">
        <ele>2130</ele>
        <time>2017-09-17T13:29:57Z</time>
      </trkpt>
      <trkpt lat="44.15309" lon="7.62393">
        <ele>2129</ele>
        <time>2017-09-17T13:29:58Z</time>
      </trkpt>
      <trkpt lat="44.15313" lon="7.62392">
        <ele>2128</ele>
        <time>2017-09-17T13:29:59Z</time>
      </trkpt>
      <trkpt lat="44.15316" lon="7.62392">
        <ele>2127</ele>
        <time>2017-09-17T13:30:00Z</time>
      </trkpt>
      <trkpt lat="44.15319" lon="7.62391">
        <ele>2127</ele>
        <time>2017-09-17T13:30:01Z</time>
      </trkpt>
      <trkpt lat="44.15322" lon="7.6239">
        <ele>2126</ele>
        <time>2017-09-17T13:30:02Z</time>
      </trkpt>
      <trkpt lat="44.15326" lon="7.62389">
        <ele>2125</ele>
        <time>2017-09-17T13:30:03Z</time>
      </trkpt>
      <trkpt lat="44.1533" lon="7.62389">
        <ele>2125</ele>
        <time>2017-09-17T13:30:04Z</time>
      </trkpt>
      <trkpt lat="44.15334" lon="7.62389">
        <ele>2124</ele>
        <time>2017-09-17T13:30:05Z</time>
      </trkpt>
      <trkpt lat="44.15339" lon="7.62389">
        <ele>2123</ele>
        <time>2017-09-17T13:30:06Z</time>
      </trkpt>
      <trkpt lat="44.15343" lon="7.62388">
        <ele>2122</ele>
        <time>2017-09-17T13:30:07Z</time>
      </trkpt>
      <trkpt lat="44.15348" lon="7.62387">
        <ele>2121</ele>
        <time>2017-09-17T13:30:08Z</time>
      </trkpt>
      <trkpt lat="44.15352" lon="7.62386">
        <ele>2120</ele>
        <time>2017-09-17T13:30:09Z</time>
      </trkpt>
      <trkpt lat="44.15357" lon="7.62384">
        <ele>2119</ele>
        <time>2017-09-17T13:30:10Z</time>
      </trkpt>
      <trkpt lat="44.15362" lon="7.62383">
        <ele>2118</ele>
        <time>2017-09-17T13:30:11Z</time>
      </trkpt>
      <trkpt lat="44.15366" lon="7.62383">
        <ele>2118</ele>
        <time>2017-09-17T13:30:12Z</time>
      </trkpt>
      <trkpt lat="44.1537" lon="7.62382">
        <ele>2117</ele>
        <time>2017-09-17T13:30:13Z</time>
      </trkpt>
      <trkpt lat="44.15372" lon="7.62382">
        <ele>2116</ele>
        <time>2017-09-17T13:30:14Z</time>
      </trkpt>
      <trkpt lat="44.15372" lon="7.62382">
        <ele>2116</ele>
        <time>2017-09-17T13:30:15Z</time>
      </trkpt>
      <trkpt lat="44.15372" lon="7.62381">
        <ele>2116</ele>
        <time>2017-09-17T13:30:16Z</time>
      </trkpt>
      <trkpt lat="44.15372" lon="7.62381">
        <ele>2115</ele>
        <time>2017-09-17T13:30:17Z</time>
      </trkpt>
      <trkpt lat="44.15373" lon="7.62381">
        <ele>2115</ele>
        <time>2017-09-17T13:30:18Z</time>
      </trkpt>
      <trkpt lat="44.15373" lon="7.62381">
        <ele>2115</ele>
        <time>2017-09-17T13:30:19Z</time>
      </trkpt>
      <trkpt lat="44.15373" lon="7.62381">
        <ele>2115</ele>
        <time>2017-09-17T13:30:20Z</time>
      </trkpt>
      <trkpt lat="44.15373" lon="7.62381">
        <ele>2115</ele>
        <time>2017-09-17T13:30:21Z</time>
      </trkpt>
      <trkpt lat="44.15373" lon="7.62381">
        <ele>2115</ele>
        <time>2017-09-17T13:30:22Z</time>
      </trkpt>
      <trkpt lat="44.15373" lon="7.62381">
        <ele>2115</ele>
        <time>2017-09-17T13:30:23Z</time>
      </trkpt>
      <trkpt lat="44.15373" lon="7.62381">
        <ele>2114</ele>
        <time>2017-09-17T13:30:24Z</time>
      </trkpt>
      <trkpt lat="44.15373" lon="7.62381">
        <ele>2114</ele>
        <time>2017-09-17T13:30:25Z</time>
      </trkpt>
      <trkpt lat="44.15373" lon="7.6238">
        <ele>2114</ele>
        <time>2017-09-17T13:30:26Z</time>
      </trkpt>
      <trkpt lat="44.15373" lon="7.6238">
        <ele>2114</ele>
        <time>2017-09-17T13:30:27Z</time>
      </trkpt>
      <trkpt lat="44.15373" lon="7.6238">
        <ele>2114</ele>
        <time>2017-09-17T13:30:28Z</time>
      </trkpt>
      <trkpt lat="44.15374" lon="7.6238">
        <ele>2114</ele>
        <time>2017-09-17T13:30:29Z</time>
      </trkpt>
      <trkpt lat="44.15374" lon="7.6238">
        <ele>2114</ele>
        <time>2017-09-17T13:30:30Z</time>
      </trkpt>
      <trkpt lat="44.15374" lon="7.6238">
        <ele>2114</ele>
        <time>2017-09-17T13:30:31Z</time>
      </trkpt>
      <trkpt lat="44.15374" lon="7.6238">
        <ele>2114</ele>
        <time>2017-09-17T13:30:32Z</time>
      </trkpt>
      <trkpt lat="44.15374" lon="7.6238">
        <ele>2114</ele>
        <time>2017-09-17T13:30:33Z</time>
      </trkpt>
      <trkpt lat="44.15374" lon="7.6238">
        <ele>2114</ele>
        <time>2017-09-17T13:30:34Z</time>
      </trkpt>
      <trkpt lat="44.15374" lon="7.6238">
        <ele>2113</ele>
        <time>2017-09-17T13:30:35Z</time>
      </trkpt>
      <trkpt lat="44.15374" lon="7.6238">
        <ele>2113</ele>
        <time>2017-09-17T13:30:36Z</time>
      </trkpt>
      <trkpt lat="44.15374" lon="7.6238">
        <ele>2113</ele>
        <time>2017-09-17T13:30:37Z</time>
      </trkpt>
      <trkpt lat="44.15374" lon="7.6238">
        <ele>2113</ele>
        <time>2017-09-17T13:30:38Z</time>
      </trkpt>
      <trkpt lat="44.15374" lon="7.6238">
        <ele>2113</ele>
        <time>2017-09-17T13:30:39Z</time>
      </trkpt>
      <trkpt lat="44.15374" lon="7.6238">
        <ele>2113</ele>
        <time>2017-09-17T13:30:40Z</time>
      </trkpt>
      <trkpt lat="44.15374" lon="7.6238">
        <ele>2113</ele>
        <time>2017-09-17T13:30:41Z</time>
      </trkpt>
      <trkpt lat="44.15374" lon="7.6238">
        <ele>2113</ele>
        <time>2017-09-17T13:30:42Z</time>
      </trkpt>
      <trkpt lat="44.15374" lon="7.6238">
        <ele>2113</ele>
        <time>2017-09-17T13:30:43Z</time>
      </trkpt>
      <trkpt lat="44.15374" lon="7.62381">
        <ele>2113</ele>
        <time>2017-09-17T13:30:44Z</time>
      </trkpt>
      <trkpt lat="44.15374" lon="7.62381">
        <ele>2113</ele>
        <time>2017-09-17T13:30:45Z</time>
      </trkpt>
      <trkpt lat="44.15374" lon="7.62381">
        <ele>2113</ele>
        <time>2017-09-17T13:30:46Z</time>
      </trkpt>
      <trkpt lat="44.15374" lon="7.6238">
        <ele>2113</ele>
        <time>2017-09-17T13:30:47Z</time>
      </trkpt>
      <trkpt lat="44.15374" lon="7.6238">
        <ele>2113</ele>
        <time>2017-09-17T13:30:48Z</time>
      </trkpt>
      <trkpt lat="44.15374" lon="7.6238">
        <ele>2113</ele>
        <time>2017-09-17T13:30:49Z</time>
      </trkpt>
      <trkpt lat="44.15374" lon="7.6238">
        <ele>2112</ele>
        <time>2017-09-17T13:30:50Z</time>
      </trkpt>
      <trkpt lat="44.15374" lon="7.6238">
        <ele>2112</ele>
        <time>2017-09-17T13:30:51Z</time>
      </trkpt>
      <trkpt lat="44.15374" lon="7.6238">
        <ele>2112</ele>
        <time>2017-09-17T13:30:52Z</time>
      </trkpt>
      <trkpt lat="44.15374" lon="7.6238">
        <ele>2112</ele>
        <time>2017-09-17T13:30:53Z</time>
      </trkpt>
      <trkpt lat="44.15374" lon="7.6238">
        <ele>2112</ele>
        <time>2017-09-17T13:30:54Z</time>
      </trkpt>
      <trkpt lat="44.15374" lon="7.6238">
        <ele>2112</ele>
        <time>2017-09-17T13:30:55Z</time>
      </trkpt>
      <trkpt lat="44.15374" lon="7.6238">
        <ele>2112</ele>
        <time>2017-09-17T13:30:56Z</time>
      </trkpt>
      <trkpt lat="44.15374" lon="7.6238">
        <ele>2112</ele>
        <time>2017-09-17T13:30:57Z</time>
      </trkpt>
      <trkpt lat="44.15374" lon="7.6238">
        <ele>2112</ele>
        <time>2017-09-17T13:30:58Z</time>
      </trkpt>
      <trkpt lat="44.15374" lon="7.6238">
        <ele>2112</ele>
        <time>2017-09-17T13:30:59Z</time>
      </trkpt>
      <trkpt lat="44.15374" lon="7.6238">
        <ele>2112</ele>
        <time>2017-09-17T13:31:00Z</time>
      </trkpt>
      <trkpt lat="44.15374" lon="7.6238">
        <ele>2112</ele>
        <time>2017-09-17T13:31:01Z</time>
      </trkpt>
      <trkpt lat="44.15374" lon="7.6238">
        <ele>2112</ele>
        <time>2017-09-17T13:31:02Z</time>
      </trkpt>
      <trkpt lat="44.15374" lon="7.6238">
        <ele>2112</ele>
        <time>2017-09-17T13:31:03Z</time>
      </trkpt>
      <trkpt lat="44.15374" lon="7.6238">
        <ele>2112</ele>
        <time>2017-09-17T13:31:04Z</time>
      </trkpt>
      <trkpt lat="44.15374" lon="7.6238">
        <ele>2112</ele>
        <time>2017-09-17T13:31:05Z</time>
      </trkpt>
      <trkpt lat="44.15374" lon="7.6238">
        <ele>2112</ele>
        <time>2017-09-17T13:31:06Z</time>
      </trkpt>
      <trkpt lat="44.15374" lon="7.6238">
        <ele>2112</ele>
        <time>2017-09-17T13:31:07Z</time>
      </trkpt>
      <trkpt lat="44.15374" lon="7.6238">
        <ele>2112</ele>
        <time>2017-09-17T13:31:08Z</time>
      </trkpt>
      <trkpt lat="44.15374" lon="7.6238">
        <ele>2112</ele>
        <time>2017-09-17T13:31:09Z</time>
      </trkpt>
      <trkpt lat="44.15374" lon="7.6238">
        <ele>2112</ele>
        <time>2017-09-17T13:31:10Z</time>
      </trkpt>
      <trkpt lat="44.15374" lon="7.6238">
        <ele>2112</ele>
        <time>2017-09-17T13:31:11Z</time>
      </trkpt>
      <trkpt lat="44.15374" lon="7.6238">
        <ele>2112</ele>
        <time>2017-09-17T13:31:12Z</time>
      </trkpt>
      <trkpt lat="44.15374" lon="7.6238">
        <ele>2112</ele>
        <time>2017-09-17T13:31:13Z</time>
      </trkpt>
      <trkpt lat="44.15374" lon="7.6238">
        <ele>2112</ele>
        <time>2017-09-17T13:31:14Z</time>
      </trkpt>
      <trkpt lat="44.15374" lon="7.6238">
        <ele>2112</ele>
        <time>2017-09-17T13:31:15Z</time>
      </trkpt>
      <trkpt lat="44.15374" lon="7.6238">
        <ele>2112</ele>
        <time>2017-09-17T13:31:16Z</time>
      </trkpt>
      <trkpt lat="44.15374" lon="7.6238">
        <ele>2112</ele>
        <time>2017-09-17T13:31:17Z</time>
      </trkpt>
      <trkpt lat="44.15374" lon="7.6238">
        <ele>2112</ele>
        <time>2017-09-17T13:31:18Z</time>
      </trkpt>
      <trkpt lat="44.15374" lon="7.6238">
        <ele>2112</ele>
        <time>2017-09-17T13:31:19Z</time>
      </trkpt>
      <trkpt lat="44.15374" lon="7.6238">
        <ele>2112</ele>
        <time>2017-09-17T13:31:20Z</time>
      </trkpt>
      <trkpt lat="44.15374" lon="7.6238">
        <ele>2112</ele>
        <time>2017-09-17T13:31:21Z</time>
      </trkpt>
      <trkpt lat="44.15374" lon="7.6238">
        <ele>2112</ele>
        <time>2017-09-17T13:31:22Z</time>
      </trkpt>
      <trkpt lat="44.15374" lon="7.6238">
        <ele>2112</ele>
        <time>2017-09-17T13:31:23Z</time>
      </trkpt>
      <trkpt lat="44.15374" lon="7.6238">
        <ele>2112</ele>
        <time>2017-09-17T13:31:24Z</time>
      </trkpt>
      <trkpt lat="44.15374" lon="7.6238">
        <ele>2112</ele>
        <time>2017-09-17T13:31:25Z</time>
      </trkpt>
      <trkpt lat="44.15374" lon="7.6238">
        <ele>2112</ele>
        <time>2017-09-17T13:31:26Z</time>
      </trkpt>
      <trkpt lat="44.15374" lon="7.6238">
        <ele>2112</ele>
        <time>2017-09-17T13:31:27Z</time>
      </trkpt>
      <trkpt lat="44.15374" lon="7.6238">
        <ele>2112</ele>
        <time>2017-09-17T13:31:28Z</time>
      </trkpt>
      <trkpt lat="44.15374" lon="7.6238">
        <ele>2112</ele>
        <time>2017-09-17T13:31:29Z</time>
      </trkpt>
      <trkpt lat="44.15374" lon="7.6238">
        <ele>2112</ele>
        <time>2017-09-17T13:31:30Z</time>
      </trkpt>
      <trkpt lat="44.15374" lon="7.6238">
        <ele>2112</ele>
        <time>2017-09-17T13:31:31Z</time>
      </trkpt>
      <trkpt lat="44.15374" lon="7.6238">
        <ele>2112</ele>
        <time>2017-09-17T13:31:32Z</time>
      </trkpt>
      <trkpt lat="44.15374" lon="7.6238">
        <ele>2112</ele>
        <time>2017-09-17T13:31:33Z</time>
      </trkpt>
      <trkpt lat="44.15375" lon="7.6238">
        <ele>2112</ele>
        <time>2017-09-17T13:31:34Z</time>
      </trkpt>
      <trkpt lat="44.15377" lon="7.6238">
        <ele>2112</ele>
        <time>2017-09-17T13:31:35Z</time>
      </trkpt>
      <trkpt lat="44.15379" lon="7.62379">
        <ele>2111</ele>
        <time>2017-09-17T13:31:36Z</time>
      </trkpt>
      <trkpt lat="44.15382" lon="7.62378">
        <ele>2111</ele>
        <time>2017-09-17T13:31:37Z</time>
      </trkpt>
      <trkpt lat="44.15385" lon="7.62378">
        <ele>2110</ele>
        <time>2017-09-17T13:31:38Z</time>
      </trkpt>
      <trkpt lat="44.1539" lon="7.62377">
        <ele>2110</ele>
        <time>2017-09-17T13:31:39Z</time>
      </trkpt>
      <trkpt lat="44.15394" lon="7.62376">
        <ele>2109</ele>
        <time>2017-09-17T13:31:40Z</time>
      </trkpt>
      <trkpt lat="44.15399" lon="7.62374">
        <ele>2109</ele>
        <time>2017-09-17T13:31:41Z</time>
      </trkpt>
      <trkpt lat="44.15404" lon="7.62374">
        <ele>2108</ele>
        <time>2017-09-17T13:31:42Z</time>
      </trkpt>
      <trkpt lat="44.15408" lon="7.62373">
        <ele>2107</ele>
        <time>2017-09-17T13:31:43Z</time>
      </trkpt>
      <trkpt lat="44.15413" lon="7.62373">
        <ele>2106</ele>
        <time>2017-09-17T13:31:44Z</time>
      </trkpt>
      <trkpt lat="44.15418" lon="7.62374">
        <ele>2106</ele>
        <time>2017-09-17T13:31:45Z</time>
      </trkpt>
      <trkpt lat="44.15424" lon="7.62374">
        <ele>2105</ele>
        <time>2017-09-17T13:31:46Z</time>
      </trkpt>
      <trkpt lat="44.15429" lon="7.62374">
        <ele>2104</ele>
        <time>2017-09-17T13:31:47Z</time>
      </trkpt>
      <trkpt lat="44.15435" lon="7.62375">
        <ele>2103</ele>
        <time>2017-09-17T13:31:48Z</time>
      </trkpt>
      <trkpt lat="44.15441" lon="7.62376">
        <ele>2102</ele>
        <time>2017-09-17T13:31:49Z</time>
      </trkpt>
      <trkpt lat="44.15447" lon="7.62378">
        <ele>2101</ele>
        <time>2017-09-17T13:31:50Z</time>
      </trkpt>
      <trkpt lat="44.15453" lon="7.62379">
        <ele>2100</ele>
        <time>2017-09-17T13:31:51Z</time>
      </trkpt>
      <trkpt lat="44.15459" lon="7.6238">
        <ele>2099</ele>
        <time>2017-09-17T13:31:52Z</time>
      </trkpt>
      <trkpt lat="44.15465" lon="7.62381">
        <ele>2098</ele>
        <time>2017-09-17T13:31:53Z</time>
      </trkpt>
      <trkpt lat="44.1547" lon="7.62382">
        <ele>2097</ele>
        <time>2017-09-17T13:31:54Z</time>
      </trkpt>
      <trkpt lat="44.15475" lon="7.62384">
        <ele>2096</ele>
        <time>2017-09-17T13:31:55Z</time>
      </trkpt>
      <trkpt lat="44.15479" lon="7.62386">
        <ele>2095</ele>
        <time>2017-09-17T13:31:56Z</time>
      </trkpt>
      <trkpt lat="44.15483" lon="7.62388">
        <ele>2094</ele>
        <time>2017-09-17T13:31:57Z</time>
      </trkpt>
      <trkpt lat="44.15486" lon="7.6239">
        <ele>2093</ele>
        <time>2017-09-17T13:31:58Z</time>
      </trkpt>
      <trkpt lat="44.15488" lon="7.62391">
        <ele>2092</ele>
        <time>2017-09-17T13:31:59Z</time>
      </trkpt>
      <trkpt lat="44.15491" lon="7.62393">
        <ele>2092</ele>
        <time>2017-09-17T13:32:00Z</time>
      </trkpt>
      <trkpt lat="44.15492" lon="7.62395">
        <ele>2091</ele>
        <time>2017-09-17T13:32:01Z</time>
      </trkpt>
      <trkpt lat="44.15494" lon="7.62397">
        <ele>2090</ele>
        <time>2017-09-17T13:32:02Z</time>
      </trkpt>
      <trkpt lat="44.15496" lon="7.62399">
        <ele>2089</ele>
        <time>2017-09-17T13:32:03Z</time>
      </trkpt>
      <trkpt lat="44.15497" lon="7.62401">
        <ele>2088</ele>
        <time>2017-09-17T13:32:04Z</time>
      </trkpt>
      <trkpt lat="44.15498" lon="7.62403">
        <ele>2088</ele>
        <time>2017-09-17T13:32:05Z</time>
      </trkpt>
      <trkpt lat="44.15499" lon="7.62405">
        <ele>2087</ele>
        <time>2017-09-17T13:32:06Z</time>
      </trkpt>
      <trkpt lat="44.15501" lon="7.62407">
        <ele>2086</ele>
        <time>2017-09-17T13:32:07Z</time>
      </trkpt>
      <trkpt lat="44.15502" lon="7.62409">
        <ele>2085</ele>
        <time>2017-09-17T13:32:08Z</time>
      </trkpt>
      <trkpt lat="44.15504" lon="7.62409">
        <ele>2085</ele>
        <time>2017-09-17T13:32:09Z</time>
      </trkpt>
      <trkpt lat="44.15506" lon="7.62407">
        <ele>2084</ele>
        <time>2017-09-17T13:32:10Z</time>
      </trkpt>
      <trkpt lat="44.15508" lon="7.62404">
        <ele>2084</ele>
        <time>2017-09-17T13:32:11Z</time>
      </trkpt>
      <trkpt lat="44.1551" lon="7.62402">
        <ele>2083</ele>
        <time>2017-09-17T13:32:12Z</time>
      </trkpt>
      <trkpt lat="44.15513" lon="7.62401">
        <ele>2083</ele>
        <time>2017-09-17T13:32:13Z</time>
      </trkpt>
      <trkpt lat="44.15516" lon="7.624">
        <ele>2083</ele>
        <time>2017-09-17T13:32:14Z</time>
      </trkpt>
      <trkpt lat="44.15519" lon="7.62401">
        <ele>2082</ele>
        <time>2017-09-17T13:32:15Z</time>
      </trkpt>
      <trkpt lat="44.15521" lon="7.62403">
        <ele>2082</ele>
        <time>2017-09-17T13:32:16Z</time>
      </trkpt>
      <trkpt lat="44.15524" lon="7.62406">
        <ele>2082</ele>
        <time>2017-09-17T13:32:17Z</time>
      </trkpt>
      <trkpt lat="44.15526" lon="7.62408">
        <ele>2082</ele>
        <time>2017-09-17T13:32:18Z</time>
      </trkpt>
      <trkpt lat="44.15528" lon="7.62411">
        <ele>2082</ele>
        <time>2017-09-17T13:32:19Z</time>
      </trkpt>
      <trkpt lat="44.1553" lon="7.62414">
        <ele>2082</ele>
        <time>2017-09-17T13:32:20Z</time>
      </trkpt>
      <trkpt lat="44.15532" lon="7.62416">
        <ele>2082</ele>
        <time>2017-09-17T13:32:21Z</time>
      </trkpt>
      <trkpt lat="44.15534" lon="7.62419">
        <ele>2082</ele>
        <time>2017-09-17T13:32:22Z</time>
      </trkpt>
      <trkpt lat="44.15536" lon="7.62422">
        <ele>2083</ele>
        <time>2017-09-17T13:32:23Z</time>
      </trkpt>
      <trkpt lat="44.15537" lon="7.62425">
        <ele>2083</ele>
        <time>2017-09-17T13:32:24Z</time>
      </trkpt>
      <trkpt lat="44.15539" lon="7.62427">
        <ele>2083</ele>
        <time>2017-09-17T13:32:25Z</time>
      </trkpt>
      <trkpt lat="44.15541" lon="7.6243">
        <ele>2084</ele>
        <time>2017-09-17T13:32:26Z</time>
      </trkpt>
      <trkpt lat="44.15543" lon="7.62432">
        <ele>2084</ele>
        <time>2017-09-17T13:32:27Z</time>
      </trkpt>
      <trkpt lat="44.15545" lon="7.62435">
        <ele>2084</ele>
        <time>2017-09-17T13:32:28Z</time>
      </trkpt>
      <trkpt lat="44.15547" lon="7.62437">
        <ele>2084</ele>
        <time>2017-09-17T13:32:29Z</time>
      </trkpt>
      <trkpt lat="44.1555" lon="7.62439">
        <ele>2085</ele>
        <time>2017-09-17T13:32:30Z</time>
      </trkpt>
      <trkpt lat="44.15552" lon="7.62442">
        <ele>2085</ele>
        <time>2017-09-17T13:32:31Z</time>
      </trkpt>
      <trkpt lat="44.15554" lon="7.62444">
        <ele>2085</ele>
        <time>2017-09-17T13:32:32Z</time>
      </trkpt>
      <trkpt lat="44.15557" lon="7.62446">
        <ele>2086</ele>
        <time>2017-09-17T13:32:33Z</time>
      </trkpt>
      <trkpt lat="44.15559" lon="7.62447">
        <ele>2086</ele>
        <time>2017-09-17T13:32:34Z</time>
      </trkpt>
      <trkpt lat="44.15562" lon="7.62449">
        <ele>2086</ele>
        <time>2017-09-17T13:32:35Z</time>
      </trkpt>
      <trkpt lat="44.15564" lon="7.62451">
        <ele>2087</ele>
        <time>2017-09-17T13:32:36Z</time>
      </trkpt>
      <trkpt lat="44.15566" lon="7.62453">
        <ele>2087</ele>
        <time>2017-09-17T13:32:37Z</time>
      </trkpt>
      <trkpt lat="44.15568" lon="7.62456">
        <ele>2087</ele>
        <time>2017-09-17T13:32:38Z</time>
      </trkpt>
      <trkpt lat="44.1557" lon="7.62458">
        <ele>2088</ele>
        <time>2017-09-17T13:32:39Z</time>
      </trkpt>
      <trkpt lat="44.15572" lon="7.62461">
        <ele>2088</ele>
        <time>2017-09-17T13:32:40Z</time>
      </trkpt>
      <trkpt lat="44.15573" lon="7.62464">
        <ele>2088</ele>
        <time>2017-09-17T13:32:41Z</time>
      </trkpt>
      <trkpt lat="44.15575" lon="7.62467">
        <ele>2089</ele>
        <time>2017-09-17T13:32:42Z</time>
      </trkpt>
      <trkpt lat="44.15576" lon="7.6247">
        <ele>2089</ele>
        <time>2017-09-17T13:32:43Z</time>
      </trkpt>
      <trkpt lat="44.15579" lon="7.62472">
        <ele>2089</ele>
        <time>2017-09-17T13:32:44Z</time>
      </trkpt>
      <trkpt lat="44.15581" lon="7.62474">
        <ele>2090</ele>
        <time>2017-09-17T13:32:45Z</time>
      </trkpt>
      <trkpt lat="44.15583" lon="7.62475">
        <ele>2090</ele>
        <time>2017-09-17T13:32:46Z</time>
      </trkpt>
      <trkpt lat="44.15586" lon="7.62476">
        <ele>2090</ele>
        <time>2017-09-17T13:32:47Z</time>
      </trkpt>
      <trkpt lat="44.15588" lon="7.62478">
        <ele>2091</ele>
        <time>2017-09-17T13:32:48Z</time>
      </trkpt>
      <trkpt lat="44.15591" lon="7.62479">
        <ele>2091</ele>
        <time>2017-09-17T13:32:49Z</time>
      </trkpt>
      <trkpt lat="44.15593" lon="7.6248">
        <ele>2091</ele>
        <time>2017-09-17T13:32:50Z</time>
      </trkpt>
      <trkpt lat="44.15596" lon="7.62482">
        <ele>2092</ele>
        <time>2017-09-17T13:32:51Z</time>
      </trkpt>
      <trkpt lat="44.15598" lon="7.62483">
        <ele>2092</ele>
        <time>2017-09-17T13:32:52Z</time>
      </trkpt>
      <trkpt lat="44.156" lon="7.62485">
        <ele>2092</ele>
        <time>2017-09-17T13:32:53Z</time>
      </trkpt>
      <trkpt lat="44.15603" lon="7.62486">
        <ele>2093</ele>
        <time>2017-09-17T13:32:54Z</time>
      </trkpt>
      <trkpt lat="44.15605" lon="7.62488">
        <ele>2093</ele>
        <time>2017-09-17T13:32:55Z</time>
      </trkpt>
      <trkpt lat="44.15607" lon="7.6249">
        <ele>2093</ele>
        <time>2017-09-17T13:32:56Z</time>
      </trkpt>
      <trkpt lat="44.15609" lon="7.62492">
        <ele>2094</ele>
        <time>2017-09-17T13:32:57Z</time>
      </trkpt>
      <trkpt lat="44.15611" lon="7.62493">
        <ele>2094</ele>
        <time>2017-09-17T13:32:58Z</time>
      </trkpt>
      <trkpt lat="44.15613" lon="7.62495">
        <ele>2094</ele>
        <time>2017-09-17T13:32:59Z</time>
      </trkpt>
      <trkpt lat="44.15615" lon="7.62497">
        <ele>2095</ele>
        <time>2017-09-17T13:33:00Z</time>
      </trkpt>
      <trkpt lat="44.15617" lon="7.62498">
        <ele>2095</ele>
        <time>2017-09-17T13:33:01Z</time>
      </trkpt>
      <trkpt lat="44.15619" lon="7.62499">
        <ele>2096</ele>
        <time>2017-09-17T13:33:02Z</time>
      </trkpt>
      <trkpt lat="44.15622" lon="7.625">
        <ele>2096</ele>
        <time>2017-09-17T13:33:03Z</time>
      </trkpt>
      <trkpt lat="44.15624" lon="7.62501">
        <ele>2096</ele>
        <time>2017-09-17T13:33:04Z</time>
      </trkpt>
      <trkpt lat="44.15627" lon="7.62502">
        <ele>2096</ele>
        <time>2017-09-17T13:33:05Z</time>
      </trkpt>
      <trkpt lat="44.15629" lon="7.62503">
        <ele>2097</ele>
        <time>2017-09-17T13:33:06Z</time>
      </trkpt>
      <trkpt lat="44.15632" lon="7.62504">
        <ele>2097</ele>
        <time>2017-09-17T13:33:07Z</time>
      </trkpt>
      <trkpt lat="44.15634" lon="7.62505">
        <ele>2097</ele>
        <time>2017-09-17T13:33:08Z</time>
      </trkpt>
      <trkpt lat="44.15636" lon="7.62507">
        <ele>2097</ele>
        <time>2017-09-17T13:33:09Z</time>
      </trkpt>
      <trkpt lat="44.15639" lon="7.62508">
        <ele>2098</ele>
        <time>2017-09-17T13:33:10Z</time>
      </trkpt>
      <trkpt lat="44.15642" lon="7.62509">
        <ele>2098</ele>
        <time>2017-09-17T13:33:11Z</time>
      </trkpt>
      <trkpt lat="44.15645" lon="7.6251">
        <ele>2098</ele>
        <time>2017-09-17T13:33:12Z</time>
      </trkpt>
      <trkpt lat="44.15648" lon="7.6251">
        <ele>2099</ele>
        <time>2017-09-17T13:33:13Z</time>
      </trkpt>
      <trkpt lat="44.15651" lon="7.62511">
        <ele>2099</ele>
        <time>2017-09-17T13:33:14Z</time>
      </trkpt>
      <trkpt lat="44.15653" lon="7.62511">
        <ele>2099</ele>
        <time>2017-09-17T13:33:15Z</time>
      </trkpt>
      <trkpt lat="44.15656" lon="7.62511">
        <ele>2099</ele>
        <time>2017-09-17T13:33:16Z</time>
      </trkpt>
      <trkpt lat="44.15659" lon="7.62512">
        <ele>2100</ele>
        <time>2017-09-17T13:33:17Z</time>
      </trkpt>
      <trkpt lat="44.15662" lon="7.62512">
        <ele>2100</ele>
        <time>2017-09-17T13:33:18Z</time>
      </trkpt>
      <trkpt lat="44.15665" lon="7.62513">
        <ele>2100</ele>
        <time>2017-09-17T13:33:19Z</time>
      </trkpt>
      <trkpt lat="44.15667" lon="7.62514">
        <ele>2100</ele>
        <time>2017-09-17T13:33:20Z</time>
      </trkpt>
      <trkpt lat="44.1567" lon="7.62516">
        <ele>2100</ele>
        <time>2017-09-17T13:33:21Z</time>
      </trkpt>
      <trkpt lat="44.15672" lon="7.62517">
        <ele>2101</ele>
        <time>2017-09-17T13:33:22Z</time>
      </trkpt>
      <trkpt lat="44.15675" lon="7.62518">
        <ele>2101</ele>
        <time>2017-09-17T13:33:23Z</time>
      </trkpt>
      <trkpt lat="44.15677" lon="7.62519">
        <ele>2101</ele>
        <time>2017-09-17T13:33:24Z</time>
      </trkpt>
      <trkpt lat="44.1568" lon="7.62521">
        <ele>2102</ele>
        <time>2017-09-17T13:33:25Z</time>
      </trkpt>
      <trkpt lat="44.15682" lon="7.62522">
        <ele>2102</ele>
        <time>2017-09-17T13:33:26Z</time>
      </trkpt>
      <trkpt lat="44.15685" lon="7.62523">
        <ele>2102</ele>
        <time>2017-09-17T13:33:27Z</time>
      </trkpt>
      <trkpt lat="44.15687" lon="7.62525">
        <ele>2103</ele>
        <time>2017-09-17T13:33:28Z</time>
      </trkpt>
      <trkpt lat="44.1569" lon="7.62526">
        <ele>2103</ele>
        <time>2017-09-17T13:33:29Z</time>
      </trkpt>
      <trkpt lat="44.15693" lon="7.62526">
        <ele>2103</ele>
        <time>2017-09-17T13:33:30Z</time>
      </trkpt>
      <trkpt lat="44.15695" lon="7.62526">
        <ele>2103</ele>
        <time>2017-09-17T13:33:31Z</time>
      </trkpt>
      <trkpt lat="44.15698" lon="7.62526">
        <ele>2104</ele>
        <time>2017-09-17T13:33:32Z</time>
      </trkpt>
      <trkpt lat="44.15701" lon="7.62525">
        <ele>2104</ele>
        <time>2017-09-17T13:33:33Z</time>
      </trkpt>
      <trkpt lat="44.15704" lon="7.62525">
        <ele>2104</ele>
        <time>2017-09-17T13:33:34Z</time>
      </trkpt>
      <trkpt lat="44.15706" lon="7.62525">
        <ele>2105</ele>
        <time>2017-09-17T13:33:35Z</time>
      </trkpt>
      <trkpt lat="44.15709" lon="7.62524">
        <ele>2105</ele>
        <time>2017-09-17T13:33:36Z</time>
      </trkpt>
      <trkpt lat="44.15712" lon="7.62525">
        <ele>2105</ele>
        <time>2017-09-17T13:33:37Z</time>
      </trkpt>
      <trkpt lat="44.15714" lon="7.62525">
        <ele>2105</ele>
        <time>2017-09-17T13:33:38Z</time>
      </trkpt>
      <trkpt lat="44.15717" lon="7.62526">
        <ele>2106</ele>
        <time>2017-09-17T13:33:39Z</time>
      </trkpt>
      <trkpt lat="44.1572" lon="7.62527">
        <ele>2106</ele>
        <time>2017-09-17T13:33:40Z</time>
      </trkpt>
      <trkpt lat="44.15722" lon="7.62529">
        <ele>2106</ele>
        <time>2017-09-17T13:33:41Z</time>
      </trkpt>
      <trkpt lat="44.15725" lon="7.6253">
        <ele>2107</ele>
        <time>2017-09-17T13:33:42Z</time>
      </trkpt>
      <trkpt lat="44.15727" lon="7.62532">
        <ele>2107</ele>
        <time>2017-09-17T13:33:43Z</time>
      </trkpt>
      <trkpt lat="44.1573" lon="7.62533">
        <ele>2108</ele>
        <time>2017-09-17T13:33:44Z</time>
      </trkpt>
      <trkpt lat="44.15732" lon="7.62535">
        <ele>2108</ele>
        <time>2017-09-17T13:33:45Z</time>
      </trkpt>
      <trkpt lat="44.15735" lon="7.62536">
        <ele>2108</ele>
        <time>2017-09-17T13:33:46Z</time>
      </trkpt>
      <trkpt lat="44.15737" lon="7.62537">
        <ele>2109</ele>
        <time>2017-09-17T13:33:47Z</time>
      </trkpt>
      <trkpt lat="44.15739" lon="7.62538">
        <ele>2109</ele>
        <time>2017-09-17T13:33:48Z</time>
      </trkpt>
      <trkpt lat="44.15742" lon="7.6254">
        <ele>2110</ele>
        <time>2017-09-17T13:33:49Z</time>
      </trkpt>
      <trkpt lat="44.15744" lon="7.62541">
        <ele>2110</ele>
        <time>2017-09-17T13:33:50Z</time>
      </trkpt>
      <trkpt lat="44.15746" lon="7.62543">
        <ele>2110</ele>
        <time>2017-09-17T13:33:51Z</time>
      </trkpt>
      <trkpt lat="44.15748" lon="7.62544">
        <ele>2111</ele>
        <time>2017-09-17T13:33:52Z</time>
      </trkpt>
      <trkpt lat="44.15751" lon="7.62546">
        <ele>2111</ele>
        <time>2017-09-17T13:33:53Z</time>
      </trkpt>
      <trkpt lat="44.15753" lon="7.62547">
        <ele>2112</ele>
        <time>2017-09-17T13:33:54Z</time>
      </trkpt>
      <trkpt lat="44.15756" lon="7.62548">
        <ele>2112</ele>
        <time>2017-09-17T13:33:55Z</time>
      </trkpt>
      <trkpt lat="44.15758" lon="7.6255">
        <ele>2112</ele>
        <time>2017-09-17T13:33:56Z</time>
      </trkpt>
      <trkpt lat="44.1576" lon="7.62552">
        <ele>2113</ele>
        <time>2017-09-17T13:33:57Z</time>
      </trkpt>
      <trkpt lat="44.15762" lon="7.62553">
        <ele>2113</ele>
        <time>2017-09-17T13:33:58Z</time>
      </trkpt>
      <trkpt lat="44.15765" lon="7.62555">
        <ele>2113</ele>
        <time>2017-09-17T13:33:59Z</time>
      </trkpt>
      <trkpt lat="44.15767" lon="7.62557">
        <ele>2114</ele>
        <time>2017-09-17T13:34:00Z</time>
      </trkpt>
      <trkpt lat="44.15769" lon="7.62559">
        <ele>2114</ele>
        <time>2017-09-17T13:34:01Z</time>
      </trkpt>
      <trkpt lat="44.15771" lon="7.62561">
        <ele>2114</ele>
        <time>2017-09-17T13:34:02Z</time>
      </trkpt>
      <trkpt lat="44.15773" lon="7.62564">
        <ele>2115</ele>
        <time>2017-09-17T13:34:03Z</time>
      </trkpt>
      <trkpt lat="44.15775" lon="7.62566">
        <ele>2115</ele>
        <time>2017-09-17T13:34:04Z</time>
      </trkpt>
      <trkpt lat="44.15777" lon="7.62568">
        <ele>2115</ele>
        <time>2017-09-17T13:34:05Z</time>
      </trkpt>
      <trkpt lat="44.15779" lon="7.62571">
        <ele>2116</ele>
        <time>2017-09-17T13:34:06Z</time>
      </trkpt>
      <trkpt lat="44.15781" lon="7.62573">
        <ele>2116</ele>
        <time>2017-09-17T13:34:07Z</time>
      </trkpt>
      <trkpt lat="44.15783" lon="7.62575">
        <ele>2116</ele>
        <time>2017-09-17T13:34:08Z</time>
      </trkpt>
      <trkpt lat="44.15785" lon="7.62577">
        <ele>2116</ele>
        <time>2017-09-17T13:34:09Z</time>
      </trkpt>
      <trkpt lat="44.15787" lon="7.62579">
        <ele>2117</ele>
        <time>2017-09-17T13:34:10Z</time>
      </trkpt>
      <trkpt lat="44.15789" lon="7.62581">
        <ele>2117</ele>
        <time>2017-09-17T13:34:11Z</time>
      </trkpt>
      <trkpt lat="44.15791" lon="7.62583">
        <ele>2117</ele>
        <time>2017-09-17T13:34:12Z</time>
      </trkpt>
      <trkpt lat="44.15794" lon="7.62585">
        <ele>2118</ele>
        <time>2017-09-17T13:34:13Z</time>
      </trkpt>
      <trkpt lat="44.15796" lon="7.62587">
        <ele>2118</ele>
        <time>2017-09-17T13:34:14Z</time>
      </trkpt>
      <trkpt lat="44.15799" lon="7.6259">
        <ele>2118</ele>
        <time>2017-09-17T13:34:15Z</time>
      </trkpt>
      <trkpt lat="44.15802" lon="7.62592">
        <ele>2119</ele>
        <time>2017-09-17T13:34:16Z</time>
      </trkpt>
      <trkpt lat="44.15804" lon="7.62595">
        <ele>2119</ele>
        <time>2017-09-17T13:34:17Z</time>
      </trkpt>
      <trkpt lat="44.15807" lon="7.62597">
        <ele>2119</ele>
        <time>2017-09-17T13:34:18Z</time>
      </trkpt>
      <trkpt lat="44.15809" lon="7.626">
        <ele>2120</ele>
        <time>2017-09-17T13:34:19Z</time>
      </trkpt>
      <trkpt lat="44.15811" lon="7.62603">
        <ele>2120</ele>
        <time>2017-09-17T13:34:20Z</time>
      </trkpt>
      <trkpt lat="44.15814" lon="7.62606">
        <ele>2120</ele>
        <time>2017-09-17T13:34:21Z</time>
      </trkpt>
      <trkpt lat="44.15816" lon="7.62608">
        <ele>2121</ele>
        <time>2017-09-17T13:34:22Z</time>
      </trkpt>
      <trkpt lat="44.15819" lon="7.6261">
        <ele>2121</ele>
        <time>2017-09-17T13:34:23Z</time>
      </trkpt>
      <trkpt lat="44.15822" lon="7.62612">
        <ele>2122</ele>
        <time>2017-09-17T13:34:24Z</time>
      </trkpt>
      <trkpt lat="44.15825" lon="7.62613">
        <ele>2122</ele>
        <time>2017-09-17T13:34:25Z</time>
      </trkpt>
      <trkpt lat="44.15829" lon="7.62614">
        <ele>2122</ele>
        <time>2017-09-17T13:34:26Z</time>
      </trkpt>
      <trkpt lat="44.15832" lon="7.62615">
        <ele>2123</ele>
        <time>2017-09-17T13:34:27Z</time>
      </trkpt>
      <trkpt lat="44.15835" lon="7.62616">
        <ele>2123</ele>
        <time>2017-09-17T13:34:28Z</time>
      </trkpt>
      <trkpt lat="44.15838" lon="7.62616">
        <ele>2123</ele>
        <time>2017-09-17T13:34:29Z</time>
      </trkpt>
      <trkpt lat="44.15842" lon="7.62617">
        <ele>2123</ele>
        <time>2017-09-17T13:34:30Z</time>
      </trkpt>
      <trkpt lat="44.15845" lon="7.62618">
        <ele>2124</ele>
        <time>2017-09-17T13:34:31Z</time>
      </trkpt>
      <trkpt lat="44.15848" lon="7.62619">
        <ele>2124</ele>
        <time>2017-09-17T13:34:32Z</time>
      </trkpt>
      <trkpt lat="44.15851" lon="7.6262">
        <ele>2124</ele>
        <time>2017-09-17T13:34:33Z</time>
      </trkpt>
      <trkpt lat="44.15854" lon="7.62621">
        <ele>2125</ele>
        <time>2017-09-17T13:34:34Z</time>
      </trkpt>
      <trkpt lat="44.15858" lon="7.62623">
        <ele>2125</ele>
        <time>2017-09-17T13:34:35Z</time>
      </trkpt>
      <trkpt lat="44.15861" lon="7.62625">
        <ele>2125</ele>
        <time>2017-09-17T13:34:36Z</time>
      </trkpt>
      <trkpt lat="44.15865" lon="7.62626">
        <ele>2126</ele>
        <time>2017-09-17T13:34:37Z</time>
      </trkpt>
      <trkpt lat="44.15869" lon="7.62628">
        <ele>2126</ele>
        <time>2017-09-17T13:34:38Z</time>
      </trkpt>
      <trkpt lat="44.15873" lon="7.62629">
        <ele>2126</ele>
        <time>2017-09-17T13:34:39Z</time>
      </trkpt>
      <trkpt lat="44.15877" lon="7.6263">
        <ele>2127</ele>
        <time>2017-09-17T13:34:40Z</time>
      </trkpt>
      <trkpt lat="44.1588" lon="7.62631">
        <ele>2127</ele>
        <time>2017-09-17T13:34:41Z</time>
      </trkpt>
      <trkpt lat="44.15884" lon="7.62632">
        <ele>2127</ele>
        <time>2017-09-17T13:34:42Z</time>
      </trkpt>
      <trkpt lat="44.15888" lon="7.62633">
        <ele>2128</ele>
        <time>2017-09-17T13:34:43Z</time>
      </trkpt>
      <trkpt lat="44.15891" lon="7.62634">
        <ele>2128</ele>
        <time>2017-09-17T13:34:44Z</time>
      </trkpt>
      <trkpt lat="44.15895" lon="7.62635">
        <ele>2129</ele>
        <time>2017-09-17T13:34:45Z</time>
      </trkpt>
      <trkpt lat="44.15899" lon="7.62636">
        <ele>2129</ele>
        <time>2017-09-17T13:34:46Z</time>
      </trkpt>
      <trkpt lat="44.15902" lon="7.62637">
        <ele>2130</ele>
        <time>2017-09-17T13:34:47Z</time>
      </trkpt>
      <trkpt lat="44.15906" lon="7.62638">
        <ele>2130</ele>
        <time>2017-09-17T13:34:48Z</time>
      </trkpt>
      <trkpt lat="44.15909" lon="7.62638">
        <ele>2131</ele>
        <time>2017-09-17T13:34:49Z</time>
      </trkpt>
      <trkpt lat="44.15913" lon="7.62638">
        <ele>2131</ele>
        <time>2017-09-17T13:34:50Z</time>
      </trkpt>
      <trkpt lat="44.15916" lon="7.62638">
        <ele>2132</ele>
        <time>2017-09-17T13:34:51Z</time>
      </trkpt>
      <trkpt lat="44.1592" lon="7.62639">
        <ele>2132</ele>
        <time>2017-09-17T13:34:52Z</time>
      </trkpt>
      <trkpt lat="44.15923" lon="7.62639">
        <ele>2133</ele>
        <time>2017-09-17T13:34:53Z</time>
      </trkpt>
      <trkpt lat="44.15927" lon="7.62639">
        <ele>2133</ele>
        <time>2017-09-17T13:34:54Z</time>
      </trkpt>
      <trkpt lat="44.15931" lon="7.62639">
        <ele>2134</ele>
        <time>2017-09-17T13:34:55Z</time>
      </trkpt>
      <trkpt lat="44.15935" lon="7.6264">
        <ele>2134</ele>
        <time>2017-09-17T13:34:56Z</time>
      </trkpt>
      <trkpt lat="44.15938" lon="7.6264">
        <ele>2134</ele>
        <time>2017-09-17T13:34:57Z</time>
      </trkpt>
      <trkpt lat="44.15942" lon="7.6264">
        <ele>2135</ele>
        <time>2017-09-17T13:34:58Z</time>
      </trkpt>
      <trkpt lat="44.15945" lon="7.6264">
        <ele>2135</ele>
        <time>2017-09-17T13:34:59Z</time>
      </trkpt>
      <trkpt lat="44.15949" lon="7.6264">
        <ele>2135</ele>
        <time>2017-09-17T13:35:00Z</time>
      </trkpt>
      <trkpt lat="44.15952" lon="7.62639">
        <ele>2136</ele>
        <time>2017-09-17T13:35:01Z</time>
      </trkpt>
      <trkpt lat="44.15955" lon="7.62639">
        <ele>2136</ele>
        <time>2017-09-17T13:35:02Z</time>
      </trkpt>
      <trkpt lat="44.15959" lon="7.6264">
        <ele>2137</ele>
        <time>2017-09-17T13:35:03Z</time>
      </trkpt>
      <trkpt lat="44.15962" lon="7.62641">
        <ele>2137</ele>
        <time>2017-09-17T13:35:04Z</time>
      </trkpt>
      <trkpt lat="44.15966" lon="7.62641">
        <ele>2138</ele>
        <time>2017-09-17T13:35:05Z</time>
      </trkpt>
      <trkpt lat="44.1597" lon="7.62641">
        <ele>2138</ele>
        <time>2017-09-17T13:35:06Z</time>
      </trkpt>
      <trkpt lat="44.15973" lon="7.62641">
        <ele>2138</ele>
        <time>2017-09-17T13:35:07Z</time>
      </trkpt>
      <trkpt lat="44.15977" lon="7.62641">
        <ele>2139</ele>
        <time>2017-09-17T13:35:08Z</time>
      </trkpt>
      <trkpt lat="44.1598" lon="7.62641">
        <ele>2139</ele>
        <time>2017-09-17T13:35:09Z</time>
      </trkpt>
      <trkpt lat="44.15984" lon="7.62641">
        <ele>2140</ele>
        <time>2017-09-17T13:35:10Z</time>
      </trkpt>
      <trkpt lat="44.15987" lon="7.62641">
        <ele>2140</ele>
        <time>2017-09-17T13:35:11Z</time>
      </trkpt>
      <trkpt lat="44.1599" lon="7.6264">
        <ele>2140</ele>
        <time>2017-09-17T13:35:12Z</time>
      </trkpt>
      <trkpt lat="44.15994" lon="7.62639">
        <ele>2141</ele>
        <time>2017-09-17T13:35:13Z</time>
      </trkpt>
      <trkpt lat="44.15997" lon="7.62638">
        <ele>2141</ele>
        <time>2017-09-17T13:35:14Z</time>
      </trkpt>
      <trkpt lat="44.16" lon="7.62637">
        <ele>2142</ele>
        <time>2017-09-17T13:35:15Z</time>
      </trkpt>
      <trkpt lat="44.16004" lon="7.62635">
        <ele>2142</ele>
        <time>2017-09-17T13:35:16Z</time>
      </trkpt>
      <trkpt lat="44.16007" lon="7.62633">
        <ele>2142</ele>
        <time>2017-09-17T13:35:17Z</time>
      </trkpt>
      <trkpt lat="44.1601" lon="7.62631">
        <ele>2143</ele>
        <time>2017-09-17T13:35:18Z</time>
      </trkpt>
      <trkpt lat="44.16013" lon="7.6263">
        <ele>2143</ele>
        <time>2017-09-17T13:35:19Z</time>
      </trkpt>
      <trkpt lat="44.16017" lon="7.62629">
        <ele>2143</ele>
        <time>2017-09-17T13:35:20Z</time>
      </trkpt>
      <trkpt lat="44.1602" lon="7.62628">
        <ele>2144</ele>
        <time>2017-09-17T13:35:21Z</time>
      </trkpt>
      <trkpt lat="44.16024" lon="7.62628">
        <ele>2144</ele>
        <time>2017-09-17T13:35:22Z</time>
      </trkpt>
      <trkpt lat="44.16028" lon="7.62627">
        <ele>2145</ele>
        <time>2017-09-17T13:35:23Z</time>
      </trkpt>
      <trkpt lat="44.16031" lon="7.62627">
        <ele>2145</ele>
        <time>2017-09-17T13:35:24Z</time>
      </trkpt>
      <trkpt lat="44.16034" lon="7.62628">
        <ele>2145</ele>
        <time>2017-09-17T13:35:25Z</time>
      </trkpt>
      <trkpt lat="44.16038" lon="7.6263">
        <ele>2146</ele>
        <time>2017-09-17T13:35:26Z</time>
      </trkpt>
      <trkpt lat="44.16041" lon="7.62632">
        <ele>2146</ele>
        <time>2017-09-17T13:35:27Z</time>
      </trkpt>
      <trkpt lat="44.16044" lon="7.62634">
        <ele>2147</ele>
        <time>2017-09-17T13:35:28Z</time>
      </trkpt>
      <trkpt lat="44.16048" lon="7.62635">
        <ele>2147</ele>
        <time>2017-09-17T13:35:29Z</time>
      </trkpt>
      <trkpt lat="44.16052" lon="7.62635">
        <ele>2148</ele>
        <time>2017-09-17T13:35:30Z</time>
      </trkpt>
      <trkpt lat="44.16055" lon="7.62634">
        <ele>2148</ele>
        <time>2017-09-17T13:35:31Z</time>
      </trkpt>
      <trkpt lat="44.16059" lon="7.62632">
        <ele>2148</ele>
        <time>2017-09-17T13:35:32Z</time>
      </trkpt>
      <trkpt lat="44.16062" lon="7.62628">
        <ele>2149</ele>
        <time>2017-09-17T13:35:33Z</time>
      </trkpt>
      <trkpt lat="44.16064" lon="7.62624">
        <ele>2149</ele>
        <time>2017-09-17T13:35:34Z</time>
      </trkpt>
      <trkpt lat="44.16067" lon="7.6262">
        <ele>2150</ele>
        <time>2017-09-17T13:35:35Z</time>
      </trkpt>
      <trkpt lat="44.16069" lon="7.62615">
        <ele>2150</ele>
        <time>2017-09-17T13:35:36Z</time>
      </trkpt>
      <trkpt lat="44.16071" lon="7.62611">
        <ele>2150</ele>
        <time>2017-09-17T13:35:37Z</time>
      </trkpt>
      <trkpt lat="44.16075" lon="7.62609">
        <ele>2151</ele>
        <time>2017-09-17T13:35:38Z</time>
      </trkpt>
      <trkpt lat="44.16079" lon="7.62608">
        <ele>2151</ele>
        <time>2017-09-17T13:35:39Z</time>
      </trkpt>
      <trkpt lat="44.16083" lon="7.62607">
        <ele>2151</ele>
        <time>2017-09-17T13:35:40Z</time>
      </trkpt>
      <trkpt lat="44.16087" lon="7.62605">
        <ele>2151</ele>
        <time>2017-09-17T13:35:41Z</time>
      </trkpt>
      <trkpt lat="44.1609" lon="7.62601">
        <ele>2152</ele>
        <time>2017-09-17T13:35:42Z</time>
      </trkpt>
      <trkpt lat="44.16093" lon="7.62597">
        <ele>2152</ele>
        <time>2017-09-17T13:35:43Z</time>
      </trkpt>
      <trkpt lat="44.16096" lon="7.62593">
        <ele>2152</ele>
        <time>2017-09-17T13:35:44Z</time>
      </trkpt>
      <trkpt lat="44.161" lon="7.6259">
        <ele>2152</ele>
        <time>2017-09-17T13:35:45Z</time>
      </trkpt>
      <trkpt lat="44.16103" lon="7.62587">
        <ele>2153</ele>
        <time>2017-09-17T13:35:46Z</time>
      </trkpt>
      <trkpt lat="44.16107" lon="7.62584">
        <ele>2153</ele>
        <time>2017-09-17T13:35:47Z</time>
      </trkpt>
      <trkpt lat="44.16111" lon="7.62581">
        <ele>2153</ele>
        <time>2017-09-17T13:35:48Z</time>
      </trkpt>
      <trkpt lat="44.16115" lon="7.62579">
        <ele>2153</ele>
        <time>2017-09-17T13:35:49Z</time>
      </trkpt>
      <trkpt lat="44.16119" lon="7.62579">
        <ele>2154</ele>
        <time>2017-09-17T13:35:50Z</time>
      </trkpt>
      <trkpt lat="44.16124" lon="7.6258">
        <ele>2154</ele>
        <time>2017-09-17T13:35:51Z</time>
      </trkpt>
      <trkpt lat="44.16129" lon="7.62581">
        <ele>2154</ele>
        <time>2017-09-17T13:35:52Z</time>
      </trkpt>
      <trkpt lat="44.16134" lon="7.62583">
        <ele>2154</ele>
        <time>2017-09-17T13:35:53Z</time>
      </trkpt>
      <trkpt lat="44.16138" lon="7.62586">
        <ele>2154</ele>
        <time>2017-09-17T13:35:54Z</time>
      </trkpt>
      <trkpt lat="44.16143" lon="7.62589">
        <ele>2154</ele>
        <time>2017-09-17T13:35:55Z</time>
      </trkpt>
      <trkpt lat="44.16147" lon="7.62593">
        <ele>2154</ele>
        <time>2017-09-17T13:35:56Z</time>
      </trkpt>
      <trkpt lat="44.16152" lon="7.62597">
        <ele>2155</ele>
        <time>2017-09-17T13:35:57Z</time>
      </trkpt>
      <trkpt lat="44.16157" lon="7.62601">
        <ele>2155</ele>
        <time>2017-09-17T13:35:58Z</time>
      </trkpt>
      <trkpt lat="44.16162" lon="7.62603">
        <ele>2155</ele>
        <time>2017-09-17T13:35:59Z</time>
      </trkpt>
      <trkpt lat="44.16167" lon="7.62606">
        <ele>2155</ele>
        <time>2017-09-17T13:36:00Z</time>
      </trkpt>
      <trkpt lat="44.16172" lon="7.62608">
        <ele>2155</ele>
        <time>2017-09-17T13:36:01Z</time>
      </trkpt>
      <trkpt lat="44.16177" lon="7.6261">
        <ele>2155</ele>
        <time>2017-09-17T13:36:02Z</time>
      </trkpt>
      <trkpt lat="44.16183" lon="7.62612">
        <ele>2155</ele>
        <time>2017-09-17T13:36:03Z</time>
      </trkpt>
      <trkpt lat="44.16188" lon="7.62613">
        <ele>2156</ele>
        <time>2017-09-17T13:36:04Z</time>
      </trkpt>
      <trkpt lat="44.16194" lon="7.62613">
        <ele>2156</ele>
        <time>2017-09-17T13:36:05Z</time>
      </trkpt>
      <trkpt lat="44.162" lon="7.62612">
        <ele>2156</ele>
        <time>2017-09-17T13:36:06Z</time>
      </trkpt>
      <trkpt lat="44.16205" lon="7.62609">
        <ele>2156</ele>
        <time>2017-09-17T13:36:07Z</time>
      </trkpt>
      <trkpt lat="44.16211" lon="7.62605">
        <ele>2155</ele>
        <time>2017-09-17T13:36:08Z</time>
      </trkpt>
      <trkpt lat="44.16215" lon="7.626">
        <ele>2155</ele>
        <time>2017-09-17T13:36:09Z</time>
      </trkpt>
      <trkpt lat="44.16219" lon="7.62594">
        <ele>2155</ele>
        <time>2017-09-17T13:36:10Z</time>
      </trkpt>
      <trkpt lat="44.16222" lon="7.62589">
        <ele>2156</ele>
        <time>2017-09-17T13:36:11Z</time>
      </trkpt>
      <trkpt lat="44.16227" lon="7.62584">
        <ele>2156</ele>
        <time>2017-09-17T13:36:12Z</time>
      </trkpt>
      <trkpt lat="44.16232" lon="7.62582">
        <ele>2156</ele>
        <time>2017-09-17T13:36:13Z</time>
      </trkpt>
      <trkpt lat="44.16238" lon="7.6258">
        <ele>2156</ele>
        <time>2017-09-17T13:36:14Z</time>
      </trkpt>
      <trkpt lat="44.16244" lon="7.6258">
        <ele>2156</ele>
        <time>2017-09-17T13:36:15Z</time>
      </trkpt>
      <trkpt lat="44.1625" lon="7.62582">
        <ele>2155</ele>
        <time>2017-09-17T13:36:16Z</time>
      </trkpt>
      <trkpt lat="44.16256" lon="7.62585">
        <ele>2155</ele>
        <time>2017-09-17T13:36:17Z</time>
      </trkpt>
      <trkpt lat="44.16262" lon="7.62587">
        <ele>2155</ele>
        <time>2017-09-17T13:36:18Z</time>
      </trkpt>
      <trkpt lat="44.16268" lon="7.62589">
        <ele>2155</ele>
        <time>2017-09-17T13:36:19Z</time>
      </trkpt>
      <trkpt lat="44.16274" lon="7.6259">
        <ele>2155</ele>
        <time>2017-09-17T13:36:20Z</time>
      </trkpt>
      <trkpt lat="44.1628" lon="7.62591">
        <ele>2155</ele>
        <time>2017-09-17T13:36:21Z</time>
      </trkpt>
      <trkpt lat="44.16287" lon="7.62592">
        <ele>2155</ele>
        <time>2017-09-17T13:36:22Z</time>
      </trkpt>
      <trkpt lat="44.16293" lon="7.62591">
        <ele>2155</ele>
        <time>2017-09-17T13:36:23Z</time>
      </trkpt>
      <trkpt lat="44.16299" lon="7.62589">
        <ele>2155</ele>
        <time>2017-09-17T13:36:24Z</time>
      </trkpt>
      <trkpt lat="44.16304" lon="7.62586">
        <ele>2155</ele>
        <time>2017-09-17T13:36:25Z</time>
      </trkpt>
      <trkpt lat="44.16309" lon="7.62582">
        <ele>2155</ele>
        <time>2017-09-17T13:36:26Z</time>
      </trkpt>
      <trkpt lat="44.16314" lon="7.62578">
        <ele>2155</ele>
        <time>2017-09-17T13:36:27Z</time>
      </trkpt>
      <trkpt lat="44.1632" lon="7.62574">
        <ele>2155</ele>
        <time>2017-09-17T13:36:28Z</time>
      </trkpt>
      <trkpt lat="44.16325" lon="7.6257">
        <ele>2155</ele>
        <time>2017-09-17T13:36:29Z</time>
      </trkpt>
      <trkpt lat="44.16331" lon="7.62567">
        <ele>2155</ele>
        <time>2017-09-17T13:36:30Z</time>
      </trkpt>
      <trkpt lat="44.16337" lon="7.62565">
        <ele>2155</ele>
        <time>2017-09-17T13:36:31Z</time>
      </trkpt>
      <trkpt lat="44.16343" lon="7.62564">
        <ele>2155</ele>
        <time>2017-09-17T13:36:32Z</time>
      </trkpt>
      <trkpt lat="44.1635" lon="7.62566">
        <ele>2154</ele>
        <time>2017-09-17T13:36:33Z</time>
      </trkpt>
      <trkpt lat="44.16356" lon="7.62568">
        <ele>2154</ele>
        <time>2017-09-17T13:36:34Z</time>
      </trkpt>
      <trkpt lat="44.16362" lon="7.6257">
        <ele>2154</ele>
        <time>2017-09-17T13:36:35Z</time>
      </trkpt>
      <trkpt lat="44.16369" lon="7.62572">
        <ele>2154</ele>
        <time>2017-09-17T13:36:36Z</time>
      </trkpt>
      <trkpt lat="44.16375" lon="7.62574">
        <ele>2154</ele>
        <time>2017-09-17T13:36:37Z</time>
      </trkpt>
      <trkpt lat="44.16382" lon="7.62576">
        <ele>2154</ele>
        <time>2017-09-17T13:36:38Z</time>
      </trkpt>
      <trkpt lat="44.16388" lon="7.62578">
        <ele>2154</ele>
        <time>2017-09-17T13:36:39Z</time>
      </trkpt>
      <trkpt lat="44.16395" lon="7.62579">
        <ele>2154</ele>
        <time>2017-09-17T13:36:40Z</time>
      </trkpt>
      <trkpt lat="44.16402" lon="7.6258">
        <ele>2153</ele>
        <time>2017-09-17T13:36:41Z</time>
      </trkpt>
      <trkpt lat="44.16408" lon="7.62582">
        <ele>2153</ele>
        <time>2017-09-17T13:36:42Z</time>
      </trkpt>
      <trkpt lat="44.16415" lon="7.62583">
        <ele>2153</ele>
        <time>2017-09-17T13:36:43Z</time>
      </trkpt>
      <trkpt lat="44.16422" lon="7.62583">
        <ele>2153</ele>
        <time>2017-09-17T13:36:44Z</time>
      </trkpt>
      <trkpt lat="44.16428" lon="7.6258">
        <ele>2152</ele>
        <time>2017-09-17T13:36:45Z</time>
      </trkpt>
      <trkpt lat="44.16435" lon="7.62577">
        <ele>2152</ele>
        <time>2017-09-17T13:36:46Z</time>
      </trkpt>
      <trkpt lat="44.16441" lon="7.62573">
        <ele>2152</ele>
        <time>2017-09-17T13:36:47Z</time>
      </trkpt>
      <trkpt lat="44.16448" lon="7.62568">
        <ele>2151</ele>
        <time>2017-09-17T13:36:48Z</time>
      </trkpt>
      <trkpt lat="44.16455" lon="7.62564">
        <ele>2151</ele>
        <time>2017-09-17T13:36:49Z</time>
      </trkpt>
      <trkpt lat="44.16462" lon="7.6256">
        <ele>2151</ele>
        <time>2017-09-17T13:36:50Z</time>
      </trkpt>
      <trkpt lat="44.16467" lon="7.62556">
        <ele>2150</ele>
        <time>2017-09-17T13:36:51Z</time>
      </trkpt>
      <trkpt lat="44.16473" lon="7.62551">
        <ele>2149</ele>
        <time>2017-09-17T13:36:52Z</time>
      </trkpt>
      <trkpt lat="44.16478" lon="7.62546">
        <ele>2148</ele>
        <time>2017-09-17T13:36:53Z</time>
      </trkpt>
      <trkpt lat="44.16484" lon="7.62544">
        <ele>2148</ele>
        <time>2017-09-17T13:36:54Z</time>
      </trkpt>
      <trkpt lat="44.1649" lon="7.62543">
        <ele>2147</ele>
        <time>2017-09-17T13:36:55Z</time>
      </trkpt>
      <trkpt lat="44.16496" lon="7.62541">
        <ele>2146</ele>
        <time>2017-09-17T13:36:56Z</time>
      </trkpt>
      <trkpt lat="44.16503" lon="7.62538">
        <ele>2145</ele>
        <time>2017-09-17T13:36:57Z</time>
      </trkpt>
      <trkpt lat="44.16508" lon="7.62533">
        <ele>2144</ele>
        <time>2017-09-17T13:36:58Z</time>
      </trkpt>
      <trkpt lat="44.16512" lon="7.62527">
        <ele>2143</ele>
        <time>2017-09-17T13:36:59Z</time>
      </trkpt>
      <trkpt lat="44.16514" lon="7.6252">
        <ele>2143</ele>
        <time>2017-09-17T13:37:00Z</time>
      </trkpt>
      <trkpt lat="44.16518" lon="7.62514">
        <ele>2142</ele>
        <time>2017-09-17T13:37:01Z</time>
      </trkpt>
      <trkpt lat="44.16522" lon="7.62509">
        <ele>2142</ele>
        <time>2017-09-17T13:37:02Z</time>
      </trkpt>
      <trkpt lat="44.16526" lon="7.62505">
        <ele>2141</ele>
        <time>2017-09-17T13:37:03Z</time>
      </trkpt>
      <trkpt lat="44.1653" lon="7.62499">
        <ele>2141</ele>
        <time>2017-09-17T13:37:04Z</time>
      </trkpt>
      <trkpt lat="44.16533" lon="7.62492">
        <ele>2141</ele>
        <time>2017-09-17T13:37:05Z</time>
      </trkpt>
      <trkpt lat="44.16537" lon="7.62486">
        <ele>2140</ele>
        <time>2017-09-17T13:37:06Z</time>
      </trkpt>
      <trkpt lat="44.1654" lon="7.6248">
        <ele>2140</ele>
        <time>2017-09-17T13:37:07Z</time>
      </trkpt>
      <trkpt lat="44.16544" lon="7.62475">
        <ele>2139</ele>
        <time>2017-09-17T13:37:08Z</time>
      </trkpt>
      <trkpt lat="44.16548" lon="7.62471">
        <ele>2139</ele>
        <time>2017-09-17T13:37:09Z</time>
      </trkpt>
      <trkpt lat="44.16553" lon="7.6247">
        <ele>2138</ele>
        <time>2017-09-17T13:37:10Z</time>
      </trkpt>
      <trkpt lat="44.16558" lon="7.6247">
        <ele>2138</ele>
        <time>2017-09-17T13:37:11Z</time>
      </trkpt>
      <trkpt lat="44.16562" lon="7.62471">
        <ele>2137</ele>
        <time>2017-09-17T13:37:12Z</time>
      </trkpt>
      <trkpt lat="44.16567" lon="7.62472">
        <ele>2137</ele>
        <time>2017-09-17T13:37:13Z</time>
      </trkpt>
      <trkpt lat="44.16572" lon="7.62471">
        <ele>2136</ele>
        <time>2017-09-17T13:37:14Z</time>
      </trkpt>
      <trkpt lat="44.16577" lon="7.62469">
        <ele>2136</ele>
        <time>2017-09-17T13:37:15Z</time>
      </trkpt>
      <trkpt lat="44.16581" lon="7.62466">
        <ele>2135</ele>
        <time>2017-09-17T13:37:16Z</time>
      </trkpt>
      <trkpt lat="44.16585" lon="7.62463">
        <ele>2135</ele>
        <time>2017-09-17T13:37:17Z</time>
      </trkpt>
      <trkpt lat="44.16588" lon="7.62462">
        <ele>2134</ele>
        <time>2017-09-17T13:37:18Z</time>
      </trkpt>
      <trkpt lat="44.16591" lon="7.62463">
        <ele>2134</ele>
        <time>2017-09-17T13:37:19Z</time>
      </trkpt>
      <trkpt lat="44.16592" lon="7.62465">
        <ele>2133</ele>
        <time>2017-09-17T13:37:20Z</time>
      </trkpt>
      <trkpt lat="44.16592" lon="7.62469">
        <ele>2133</ele>
        <time>2017-09-17T13:37:21Z</time>
      </trkpt>
      <trkpt lat="44.16591" lon="7.62472">
        <ele>2132</ele>
        <time>2017-09-17T13:37:22Z</time>
      </trkpt>
      <trkpt lat="44.16588" lon="7.62474">
        <ele>2132</ele>
        <time>2017-09-17T13:37:23Z</time>
      </trkpt>
      <trkpt lat="44.16583" lon="7.62475">
        <ele>2132</ele>
        <time>2017-09-17T13:37:24Z</time>
      </trkpt>
      <trkpt lat="44.16578" lon="7.62477">
        <ele>2131</ele>
        <time>2017-09-17T13:37:25Z</time>
      </trkpt>
      <trkpt lat="44.16573" lon="7.62479">
        <ele>2131</ele>
        <time>2017-09-17T13:37:26Z</time>
      </trkpt>
      <trkpt lat="44.16567" lon="7.62481">
        <ele>2131</ele>
        <time>2017-09-17T13:37:27Z</time>
      </trkpt>
      <trkpt lat="44.16561" lon="7.62482">
        <ele>2130</ele>
        <time>2017-09-17T13:37:28Z</time>
      </trkpt>
      <trkpt lat="44.16556" lon="7.62485">
        <ele>2130</ele>
        <time>2017-09-17T13:37:29Z</time>
      </trkpt>
      <trkpt lat="44.16551" lon="7.62489">
        <ele>2130</ele>
        <time>2017-09-17T13:37:30Z</time>
      </trkpt>
      <trkpt lat="44.16546" lon="7.62494">
        <ele>2130</ele>
        <time>2017-09-17T13:37:31Z</time>
      </trkpt>
      <trkpt lat="44.16541" lon="7.625">
        <ele>2130</ele>
        <time>2017-09-17T13:37:32Z</time>
      </trkpt>
      <trkpt lat="44.16537" lon="7.62506">
        <ele>2129</ele>
        <time>2017-09-17T13:37:33Z</time>
      </trkpt>
      <trkpt lat="44.16534" lon="7.62513">
        <ele>2129</ele>
        <time>2017-09-17T13:37:34Z</time>
      </trkpt>
      <trkpt lat="44.1653" lon="7.62521">
        <ele>2129</ele>
        <time>2017-09-17T13:37:35Z</time>
      </trkpt>
      <trkpt lat="44.16527" lon="7.62528">
        <ele>2129</ele>
        <time>2017-09-17T13:37:36Z</time>
      </trkpt>
      <trkpt lat="44.16524" lon="7.62535">
        <ele>2129</ele>
        <time>2017-09-17T13:37:37Z</time>
      </trkpt>
      <trkpt lat="44.16521" lon="7.62544">
        <ele>2128</ele>
        <time>2017-09-17T13:37:38Z</time>
      </trkpt>
      <trkpt lat="44.16519" lon="7.62552">
        <ele>2128</ele>
        <time>2017-09-17T13:37:39Z</time>
      </trkpt>
      <trkpt lat="44.16517" lon="7.62561">
        <ele>2128</ele>
        <time>2017-09-17T13:37:40Z</time>
      </trkpt>
      <trkpt lat="44.16514" lon="7.62569">
        <ele>2127</ele>
        <time>2017-09-17T13:37:41Z</time>
      </trkpt>
      <trkpt lat="44.16512" lon="7.62577">
        <ele>2127</ele>
        <time>2017-09-17T13:37:42Z</time>
      </trkpt>
      <trkpt lat="44.16508" lon="7.62585">
        <ele>2127</ele>
        <time>2017-09-17T13:37:43Z</time>
      </trkpt>
      <trkpt lat="44.16505" lon="7.62593">
        <ele>2126</ele>
        <time>2017-09-17T13:37:44Z</time>
      </trkpt>
      <trkpt lat="44.16501" lon="7.626">
        <ele>2126</ele>
        <time>2017-09-17T13:37:45Z</time>
      </trkpt>
      <trkpt lat="44.16497" lon="7.62607">
        <ele>2125</ele>
        <time>2017-09-17T13:37:46Z</time>
      </trkpt>
      <trkpt lat="44.16493" lon="7.62614">
        <ele>2125</ele>
        <time>2017-09-17T13:37:47Z</time>
      </trkpt>
      <trkpt lat="44.16489" lon="7.62621">
        <ele>2125</ele>
        <time>2017-09-17T13:37:48Z</time>
      </trkpt>
      <trkpt lat="44.16485" lon="7.62629">
        <ele>2124</ele>
        <time>2017-09-17T13:37:49Z</time>
      </trkpt>
      <trkpt lat="44.1648" lon="7.62636">
        <ele>2124</ele>
        <time>2017-09-17T13:37:50Z</time>
      </trkpt>
      <trkpt lat="44.16476" lon="7.62644">
        <ele>2123</ele>
        <time>2017-09-17T13:37:51Z</time>
      </trkpt>
      <trkpt lat="44.16471" lon="7.62652">
        <ele>2123</ele>
        <time>2017-09-17T13:37:52Z</time>
      </trkpt>
      <trkpt lat="44.16467" lon="7.6266">
        <ele>2122</ele>
        <time>2017-09-17T13:37:53Z</time>
      </trkpt>
      <trkpt lat="44.16462" lon="7.62669">
        <ele>2122</ele>
        <time>2017-09-17T13:37:54Z</time>
      </trkpt>
      <trkpt lat="44.16458" lon="7.62677">
        <ele>2121</ele>
        <time>2017-09-17T13:37:55Z</time>
      </trkpt>
      <trkpt lat="44.16454" lon="7.62686">
        <ele>2120</ele>
        <time>2017-09-17T13:37:56Z</time>
      </trkpt>
      <trkpt lat="44.16449" lon="7.62694">
        <ele>2120</ele>
        <time>2017-09-17T13:37:57Z</time>
      </trkpt>
      <trkpt lat="44.16445" lon="7.62702">
        <ele>2119</ele>
        <time>2017-09-17T13:37:58Z</time>
      </trkpt>
      <trkpt lat="44.16441" lon="7.62711">
        <ele>2119</ele>
        <time>2017-09-17T13:37:59Z</time>
      </trkpt>
      <trkpt lat="44.16437" lon="7.62719">
        <ele>2118</ele>
        <time>2017-09-17T13:38:00Z</time>
      </trkpt>
      <trkpt lat="44.16432" lon="7.62727">
        <ele>2118</ele>
        <time>2017-09-17T13:38:01Z</time>
      </trkpt>
      <trkpt lat="44.16428" lon="7.62733">
        <ele>2117</ele>
        <time>2017-09-17T13:38:02Z</time>
      </trkpt>
      <trkpt lat="44.16424" lon="7.62741">
        <ele>2116</ele>
        <time>2017-09-17T13:38:03Z</time>
      </trkpt>
      <trkpt lat="44.16421" lon="7.6275">
        <ele>2116</ele>
        <time>2017-09-17T13:38:04Z</time>
      </trkpt>
      <trkpt lat="44.16419" lon="7.6276">
        <ele>2115</ele>
        <time>2017-09-17T13:38:05Z</time>
      </trkpt>
      <trkpt lat="44.16417" lon="7.62769">
        <ele>2114</ele>
        <time>2017-09-17T13:38:06Z</time>
      </trkpt>
      <trkpt lat="44.16413" lon="7.62778">
        <ele>2114</ele>
        <time>2017-09-17T13:38:07Z</time>
      </trkpt>
      <trkpt lat="44.1641" lon="7.62787">
        <ele>2113</ele>
        <time>2017-09-17T13:38:08Z</time>
      </trkpt>
      <trkpt lat="44.16408" lon="7.62798">
        <ele>2112</ele>
        <time>2017-09-17T13:38:09Z</time>
      </trkpt>
      <trkpt lat="44.16406" lon="7.62808">
        <ele>2111</ele>
        <time>2017-09-17T13:38:10Z</time>
      </trkpt>
      <trkpt lat="44.16405" lon="7.62818">
        <ele>2110</ele>
        <time>2017-09-17T13:38:11Z</time>
      </trkpt>
      <trkpt lat="44.16404" lon="7.62829">
        <ele>2108</ele>
        <time>2017-09-17T13:38:12Z</time>
      </trkpt>
      <trkpt lat="44.16403" lon="7.62839">
        <ele>2107</ele>
        <time>2017-09-17T13:38:13Z</time>
      </trkpt>
      <trkpt lat="44.16402" lon="7.62849">
        <ele>2106</ele>
        <time>2017-09-17T13:38:14Z</time>
      </trkpt>
      <trkpt lat="44.16401" lon="7.62858">
        <ele>2105</ele>
        <time>2017-09-17T13:38:15Z</time>
      </trkpt>
      <trkpt lat="44.16399" lon="7.62868">
        <ele>2104</ele>
        <time>2017-09-17T13:38:16Z</time>
      </trkpt>
      <trkpt lat="44.16396" lon="7.62877">
        <ele>2103</ele>
        <time>2017-09-17T13:38:17Z</time>
      </trkpt>
      <trkpt lat="44.16393" lon="7.62887">
        <ele>2101</ele>
        <time>2017-09-17T13:38:18Z</time>
      </trkpt>
      <trkpt lat="44.1639" lon="7.62897">
        <ele>2100</ele>
        <time>2017-09-17T13:38:19Z</time>
      </trkpt>
      <trkpt lat="44.16387" lon="7.62908">
        <ele>2099</ele>
        <time>2017-09-17T13:38:20Z</time>
      </trkpt>
      <trkpt lat="44.16384" lon="7.62918">
        <ele>2098</ele>
        <time>2017-09-17T13:38:21Z</time>
      </trkpt>
      <trkpt lat="44.16381" lon="7.62929">
        <ele>2097</ele>
        <time>2017-09-17T13:38:22Z</time>
      </trkpt>
      <trkpt lat="44.16377" lon="7.62939">
        <ele>2096</ele>
        <time>2017-09-17T13:38:23Z</time>
      </trkpt>
      <trkpt lat="44.16372" lon="7.62948">
        <ele>2095</ele>
        <time>2017-09-17T13:38:24Z</time>
      </trkpt>
      <trkpt lat="44.16367" lon="7.62958">
        <ele>2094</ele>
        <time>2017-09-17T13:38:25Z</time>
      </trkpt>
      <trkpt lat="44.16363" lon="7.62967">
        <ele>2093</ele>
        <time>2017-09-17T13:38:26Z</time>
      </trkpt>
      <trkpt lat="44.16359" lon="7.62977">
        <ele>2092</ele>
        <time>2017-09-17T13:38:27Z</time>
      </trkpt>
      <trkpt lat="44.16356" lon="7.62987">
        <ele>2091</ele>
        <time>2017-09-17T13:38:28Z</time>
      </trkpt>
      <trkpt lat="44.16354" lon="7.62997">
        <ele>2091</ele>
        <time>2017-09-17T13:38:29Z</time>
      </trkpt>
      <trkpt lat="44.16354" lon="7.63008">
        <ele>2090</ele>
        <time>2017-09-17T13:38:30Z</time>
      </trkpt>
      <trkpt lat="44.16354" lon="7.63018">
        <ele>2089</ele>
        <time>2017-09-17T13:38:31Z</time>
      </trkpt>
      <trkpt lat="44.16355" lon="7.63029">
        <ele>2088</ele>
        <time>2017-09-17T13:38:32Z</time>
      </trkpt>
      <trkpt lat="44.16356" lon="7.63041">
        <ele>2088</ele>
        <time>2017-09-17T13:38:33Z</time>
      </trkpt>
      <trkpt lat="44.16357" lon="7.63053">
        <ele>2087</ele>
        <time>2017-09-17T13:38:34Z</time>
      </trkpt>
      <trkpt lat="44.16358" lon="7.63065">
        <ele>2086</ele>
        <time>2017-09-17T13:38:35Z</time>
      </trkpt>
      <trkpt lat="44.16359" lon="7.63077">
        <ele>2085</ele>
        <time>2017-09-17T13:38:36Z</time>
      </trkpt>
      <trkpt lat="44.1636" lon="7.63089">
        <ele>2084</ele>
        <time>2017-09-17T13:38:37Z</time>
      </trkpt>
      <trkpt lat="44.16361" lon="7.631">
        <ele>2083</ele>
        <time>2017-09-17T13:38:38Z</time>
      </trkpt>
      <trkpt lat="44.16361" lon="7.6311">
        <ele>2082</ele>
        <time>2017-09-17T13:38:39Z</time>
      </trkpt>
      <trkpt lat="44.1636" lon="7.63119">
        <ele>2081</ele>
        <time>2017-09-17T13:38:40Z</time>
      </trkpt>
      <trkpt lat="44.1636" lon="7.63126">
        <ele>2081</ele>
        <time>2017-09-17T13:38:41Z</time>
      </trkpt>
      <trkpt lat="44.16359" lon="7.63132">
        <ele>2080</ele>
        <time>2017-09-17T13:38:42Z</time>
      </trkpt>
      <trkpt lat="44.1636" lon="7.63137">
        <ele>2080</ele>
        <time>2017-09-17T13:38:43Z</time>
      </trkpt>
      <trkpt lat="44.16361" lon="7.63141">
        <ele>2080</ele>
        <time>2017-09-17T13:38:44Z</time>
      </trkpt>
      <trkpt lat="44.16362" lon="7.63143">
        <ele>2079</ele>
        <time>2017-09-17T13:38:45Z</time>
      </trkpt>
      <trkpt lat="44.16365" lon="7.63143">
        <ele>2079</ele>
        <time>2017-09-17T13:38:46Z</time>
      </trkpt>
      <trkpt lat="44.16368" lon="7.63141">
        <ele>2078</ele>
        <time>2017-09-17T13:38:47Z</time>
      </trkpt>
      <trkpt lat="44.16371" lon="7.63138">
        <ele>2078</ele>
        <time>2017-09-17T13:38:48Z</time>
      </trkpt>
      <trkpt lat="44.16373" lon="7.63132">
        <ele>2077</ele>
        <time>2017-09-17T13:38:49Z</time>
      </trkpt>
      <trkpt lat="44.16374" lon="7.63125">
        <ele>2077</ele>
        <time>2017-09-17T13:38:50Z</time>
      </trkpt>
      <trkpt lat="44.16376" lon="7.63118">
        <ele>2077</ele>
        <time>2017-09-17T13:38:51Z</time>
      </trkpt>
      <trkpt lat="44.16378" lon="7.6311">
        <ele>2076</ele>
        <time>2017-09-17T13:38:52Z</time>
      </trkpt>
      <trkpt lat="44.16381" lon="7.63103">
        <ele>2076</ele>
        <time>2017-09-17T13:38:53Z</time>
      </trkpt>
      <trkpt lat="44.16385" lon="7.63095">
        <ele>2075</ele>
        <time>2017-09-17T13:38:54Z</time>
      </trkpt>
      <trkpt lat="44.16389" lon="7.6309">
        <ele>2075</ele>
        <time>2017-09-17T13:38:55Z</time>
      </trkpt>
      <trkpt lat="44.16395" lon="7.63087">
        <ele>2075</ele>
        <time>2017-09-17T13:38:56Z</time>
      </trkpt>
      <trkpt lat="44.16401" lon="7.63088">
        <ele>2074</ele>
        <time>2017-09-17T13:38:57Z</time>
      </trkpt>
      <trkpt lat="44.16407" lon="7.6309">
        <ele>2074</ele>
        <time>2017-09-17T13:38:58Z</time>
      </trkpt>
      <trkpt lat="44.16412" lon="7.63096">
        <ele>2074</ele>
        <time>2017-09-17T13:38:59Z</time>
      </trkpt>
      <trkpt lat="44.16415" lon="7.63102">
        <ele>2074</ele>
        <time>2017-09-17T13:39:00Z</time>
      </trkpt>
      <trkpt lat="44.16417" lon="7.6311">
        <ele>2074</ele>
        <time>2017-09-17T13:39:01Z</time>
      </trkpt>
      <trkpt lat="44.16418" lon="7.63119">
        <ele>2074</ele>
        <time>2017-09-17T13:39:02Z</time>
      </trkpt>
      <trkpt lat="44.16418" lon="7.63127">
        <ele>2074</ele>
        <time>2017-09-17T13:39:03Z</time>
      </trkpt>
      <trkpt lat="44.16419" lon="7.63136">
        <ele>2073</ele>
        <time>2017-09-17T13:39:04Z</time>
      </trkpt>
      <trkpt lat="44.16421" lon="7.63143">
        <ele>2073</ele>
        <time>2017-09-17T13:39:05Z</time>
      </trkpt>
      <trkpt lat="44.16426" lon="7.63149">
        <ele>2073</ele>
        <time>2017-09-17T13:39:06Z</time>
      </trkpt>
      <trkpt lat="44.16431" lon="7.63153">
        <ele>2073</ele>
        <time>2017-09-17T13:39:07Z</time>
      </trkpt>
      <trkpt lat="44.16437" lon="7.63154">
        <ele>2073</ele>
        <time>2017-09-17T13:39:08Z</time>
      </trkpt>
      <trkpt lat="44.16443" lon="7.63154">
        <ele>2073</ele>
        <time>2017-09-17T13:39:09Z</time>
      </trkpt>
      <trkpt lat="44.16449" lon="7.63151">
        <ele>2073</ele>
        <time>2017-09-17T13:39:10Z</time>
      </trkpt>
      <trkpt lat="44.16454" lon="7.63146">
        <ele>2073</ele>
        <time>2017-09-17T13:39:11Z</time>
      </trkpt>
      <trkpt lat="44.1646" lon="7.63143">
        <ele>2073</ele>
        <time>2017-09-17T13:39:12Z</time>
      </trkpt>
      <trkpt lat="44.16466" lon="7.63141">
        <ele>2072</ele>
        <time>2017-09-17T13:39:13Z</time>
      </trkpt>
      <trkpt lat="44.16472" lon="7.63142">
        <ele>2072</ele>
        <time>2017-09-17T13:39:14Z</time>
      </trkpt>
      <trkpt lat="44.16477" lon="7.63146">
        <ele>2072</ele>
        <time>2017-09-17T13:39:15Z</time>
      </trkpt>
      <trkpt lat="44.16482" lon="7.63152">
        <ele>2072</ele>
        <time>2017-09-17T13:39:16Z</time>
      </trkpt>
      <trkpt lat="44.16484" lon="7.63159">
        <ele>2072</ele>
        <time>2017-09-17T13:39:17Z</time>
      </trkpt>
      <trkpt lat="44.16486" lon="7.63167">
        <ele>2072</ele>
        <time>2017-09-17T13:39:18Z</time>
      </trkpt>
      <trkpt lat="44.16486" lon="7.63174">
        <ele>2072</ele>
        <time>2017-09-17T13:39:19Z</time>
      </trkpt>
      <trkpt lat="44.16487" lon="7.63182">
        <ele>2072</ele>
        <time>2017-09-17T13:39:20Z</time>
      </trkpt>
      <trkpt lat="44.16488" lon="7.63189">
        <ele>2072</ele>
        <time>2017-09-17T13:39:21Z</time>
      </trkpt>
      <trkpt lat="44.16489" lon="7.63197">
        <ele>2072</ele>
        <time>2017-09-17T13:39:22Z</time>
      </trkpt>
      <trkpt lat="44.16491" lon="7.63204">
        <ele>2072</ele>
        <time>2017-09-17T13:39:23Z</time>
      </trkpt>
      <trkpt lat="44.16492" lon="7.63211">
        <ele>2071</ele>
        <time>2017-09-17T13:39:24Z</time>
      </trkpt>
      <trkpt lat="44.16493" lon="7.63218">
        <ele>2071</ele>
        <time>2017-09-17T13:39:25Z</time>
      </trkpt>
      <trkpt lat="44.16494" lon="7.63225">
        <ele>2071</ele>
        <time>2017-09-17T13:39:26Z</time>
      </trkpt>
      <trkpt lat="44.16495" lon="7.63231">
        <ele>2072</ele>
        <time>2017-09-17T13:39:27Z</time>
      </trkpt>
      <trkpt lat="44.16496" lon="7.63237">
        <ele>2072</ele>
        <time>2017-09-17T13:39:28Z</time>
      </trkpt>
      <trkpt lat="44.16497" lon="7.63243">
        <ele>2072</ele>
        <time>2017-09-17T13:39:29Z</time>
      </trkpt>
      <trkpt lat="44.16498" lon="7.63249">
        <ele>2072</ele>
        <time>2017-09-17T13:39:30Z</time>
      </trkpt>
      <trkpt lat="44.16499" lon="7.63254">
        <ele>2072</ele>
        <time>2017-09-17T13:39:31Z</time>
      </trkpt>
      <trkpt lat="44.16501" lon="7.63259">
        <ele>2072</ele>
        <time>2017-09-17T13:39:32Z</time>
      </trkpt>
      <trkpt lat="44.16502" lon="7.63264">
        <ele>2072</ele>
        <time>2017-09-17T13:39:33Z</time>
      </trkpt>
      <trkpt lat="44.16503" lon="7.63269">
        <ele>2072</ele>
        <time>2017-09-17T13:39:34Z</time>
      </trkpt>
      <trkpt lat="44.16504" lon="7.63274">
        <ele>2073</ele>
        <time>2017-09-17T13:39:35Z</time>
      </trkpt>
      <trkpt lat="44.16505" lon="7.63278">
        <ele>2073</ele>
        <time>2017-09-17T13:39:36Z</time>
      </trkpt>
      <trkpt lat="44.16506" lon="7.63283">
        <ele>2073</ele>
        <time>2017-09-17T13:39:37Z</time>
      </trkpt>
      <trkpt lat="44.16507" lon="7.63287">
        <ele>2073</ele>
        <time>2017-09-17T13:39:38Z</time>
      </trkpt>
      <trkpt lat="44.16508" lon="7.63292">
        <ele>2073</ele>
        <time>2017-09-17T13:39:39Z</time>
      </trkpt>
      <trkpt lat="44.16509" lon="7.63296">
        <ele>2074</ele>
        <time>2017-09-17T13:39:40Z</time>
      </trkpt>
      <trkpt lat="44.1651" lon="7.63301">
        <ele>2074</ele>
        <time>2017-09-17T13:39:41Z</time>
      </trkpt>
      <trkpt lat="44.16511" lon="7.63305">
        <ele>2074</ele>
        <time>2017-09-17T13:39:42Z</time>
      </trkpt>
      <trkpt lat="44.16513" lon="7.63309">
        <ele>2074</ele>
        <time>2017-09-17T13:39:43Z</time>
      </trkpt>
      <trkpt lat="44.16514" lon="7.63314">
        <ele>2074</ele>
        <time>2017-09-17T13:39:44Z</time>
      </trkpt>
      <trkpt lat="44.16515" lon="7.63318">
        <ele>2075</ele>
        <time>2017-09-17T13:39:45Z</time>
      </trkpt>
      <trkpt lat="44.16516" lon="7.63322">
        <ele>2075</ele>
        <time>2017-09-17T13:39:46Z</time>
      </trkpt>
      <trkpt lat="44.16517" lon="7.63327">
        <ele>2075</ele>
        <time>2017-09-17T13:39:47Z</time>
      </trkpt>
      <trkpt lat="44.16518" lon="7.63332">
        <ele>2075</ele>
        <time>2017-09-17T13:39:48Z</time>
      </trkpt>
      <trkpt lat="44.16519" lon="7.63336">
        <ele>2076</ele>
        <time>2017-09-17T13:39:49Z</time>
      </trkpt>
      <trkpt lat="44.1652" lon="7.63341">
        <ele>2076</ele>
        <time>2017-09-17T13:39:50Z</time>
      </trkpt>
      <trkpt lat="44.16522" lon="7.63345">
        <ele>2076</ele>
        <time>2017-09-17T13:39:51Z</time>
      </trkpt>
      <trkpt lat="44.16523" lon="7.6335">
        <ele>2077</ele>
        <time>2017-09-17T13:39:52Z</time>
      </trkpt>
      <trkpt lat="44.16525" lon="7.63354">
        <ele>2077</ele>
        <time>2017-09-17T13:39:53Z</time>
      </trkpt>
      <trkpt lat="44.16526" lon="7.63359">
        <ele>2077</ele>
        <time>2017-09-17T13:39:54Z</time>
      </trkpt>
      <trkpt lat="44.16527" lon="7.63364">
        <ele>2078</ele>
        <time>2017-09-17T13:39:55Z</time>
      </trkpt>
      <trkpt lat="44.16528" lon="7.63369">
        <ele>2078</ele>
        <time>2017-09-17T13:39:56Z</time>
      </trkpt>
      <trkpt lat="44.16528" lon="7.63374">
        <ele>2078</ele>
        <time>2017-09-17T13:39:57Z</time>
      </trkpt>
      <trkpt lat="44.16529" lon="7.63379">
        <ele>2079</ele>
        <time>2017-09-17T13:39:58Z</time>
      </trkpt>
      <trkpt lat="44.16529" lon="7.63384">
        <ele>2079</ele>
        <time>2017-09-17T13:39:59Z</time>
      </trkpt>
      <trkpt lat="44.16529" lon="7.6339">
        <ele>2079</ele>
        <time>2017-09-17T13:40:00Z</time>
      </trkpt>
      <trkpt lat="44.16528" lon="7.63395">
        <ele>2079</ele>
        <time>2017-09-17T13:40:01Z</time>
      </trkpt>
      <trkpt lat="44.16528" lon="7.63399">
        <ele>2080</ele>
        <time>2017-09-17T13:40:02Z</time>
      </trkpt>
      <trkpt lat="44.16528" lon="7.63404">
        <ele>2080</ele>
        <time>2017-09-17T13:40:03Z</time>
      </trkpt>
      <trkpt lat="44.16528" lon="7.6341">
        <ele>2080</ele>
        <time>2017-09-17T13:40:04Z</time>
      </trkpt>
      <trkpt lat="44.16527" lon="7.63415">
        <ele>2081</ele>
        <time>2017-09-17T13:40:05Z</time>
      </trkpt>
      <trkpt lat="44.16527" lon="7.6342">
        <ele>2081</ele>
        <time>2017-09-17T13:40:06Z</time>
      </trkpt>
      <trkpt lat="44.16527" lon="7.63425">
        <ele>2081</ele>
        <time>2017-09-17T13:40:07Z</time>
      </trkpt>
      <trkpt lat="44.16527" lon="7.6343">
        <ele>2081</ele>
        <time>2017-09-17T13:40:08Z</time>
      </trkpt>
      <trkpt lat="44.16527" lon="7.63435">
        <ele>2082</ele>
        <time>2017-09-17T13:40:09Z</time>
      </trkpt>
      <trkpt lat="44.16527" lon="7.63439">
        <ele>2082</ele>
        <time>2017-09-17T13:40:10Z</time>
      </trkpt>
      <trkpt lat="44.16527" lon="7.63444">
        <ele>2082</ele>
        <time>2017-09-17T13:40:11Z</time>
      </trkpt>
      <trkpt lat="44.16528" lon="7.63449">
        <ele>2083</ele>
        <time>2017-09-17T13:40:12Z</time>
      </trkpt>
      <trkpt lat="44.16528" lon="7.63454">
        <ele>2083</ele>
        <time>2017-09-17T13:40:13Z</time>
      </trkpt>
      <trkpt lat="44.1653" lon="7.63459">
        <ele>2083</ele>
        <time>2017-09-17T13:40:14Z</time>
      </trkpt>
      <trkpt lat="44.16531" lon="7.63463">
        <ele>2083</ele>
        <time>2017-09-17T13:40:15Z</time>
      </trkpt>
      <trkpt lat="44.16533" lon="7.63468">
        <ele>2084</ele>
        <time>2017-09-17T13:40:16Z</time>
      </trkpt>
      <trkpt lat="44.16534" lon="7.63473">
        <ele>2084</ele>
        <time>2017-09-17T13:40:17Z</time>
      </trkpt>
      <trkpt lat="44.16536" lon="7.63478">
        <ele>2084</ele>
        <time>2017-09-17T13:40:18Z</time>
      </trkpt>
      <trkpt lat="44.16537" lon="7.63483">
        <ele>2085</ele>
        <time>2017-09-17T13:40:19Z</time>
      </trkpt>
      <trkpt lat="44.16539" lon="7.63488">
        <ele>2085</ele>
        <time>2017-09-17T13:40:20Z</time>
      </trkpt>
      <trkpt lat="44.16541" lon="7.63493">
        <ele>2085</ele>
        <time>2017-09-17T13:40:21Z</time>
      </trkpt>
      <trkpt lat="44.16543" lon="7.63497">
        <ele>2086</ele>
        <time>2017-09-17T13:40:22Z</time>
      </trkpt>
      <trkpt lat="44.16545" lon="7.63502">
        <ele>2086</ele>
        <time>2017-09-17T13:40:23Z</time>
      </trkpt>
      <trkpt lat="44.16547" lon="7.63506">
        <ele>2087</ele>
        <time>2017-09-17T13:40:24Z</time>
      </trkpt>
      <trkpt lat="44.1655" lon="7.6351">
        <ele>2087</ele>
        <time>2017-09-17T13:40:25Z</time>
      </trkpt>
      <trkpt lat="44.16552" lon="7.63513">
        <ele>2087</ele>
        <time>2017-09-17T13:40:26Z</time>
      </trkpt>
      <trkpt lat="44.16555" lon="7.63516">
        <ele>2088</ele>
        <time>2017-09-17T13:40:27Z</time>
      </trkpt>
      <trkpt lat="44.16559" lon="7.6352">
        <ele>2088</ele>
        <time>2017-09-17T13:40:28Z</time>
      </trkpt>
      <trkpt lat="44.16562" lon="7.63522">
        <ele>2088</ele>
        <time>2017-09-17T13:40:29Z</time>
      </trkpt>
      <trkpt lat="44.16565" lon="7.63525">
        <ele>2089</ele>
        <time>2017-09-17T13:40:30Z</time>
      </trkpt>
      <trkpt lat="44.16569" lon="7.63527">
        <ele>2089</ele>
        <time>2017-09-17T13:40:31Z</time>
      </trkpt>
      <trkpt lat="44.16573" lon="7.6353">
        <ele>2090</ele>
        <time>2017-09-17T13:40:32Z</time>
      </trkpt>
      <trkpt lat="44.16576" lon="7.63532">
        <ele>2090</ele>
        <time>2017-09-17T13:40:33Z</time>
      </trkpt>
      <trkpt lat="44.1658" lon="7.63535">
        <ele>2090</ele>
        <time>2017-09-17T13:40:34Z</time>
      </trkpt>
      <trkpt lat="44.16584" lon="7.63537">
        <ele>2091</ele>
        <time>2017-09-17T13:40:35Z</time>
      </trkpt>
      <trkpt lat="44.16588" lon="7.63539">
        <ele>2091</ele>
        <time>2017-09-17T13:40:36Z</time>
      </trkpt>
      <trkpt lat="44.16592" lon="7.63541">
        <ele>2091</ele>
        <time>2017-09-17T13:40:37Z</time>
      </trkpt>
      <trkpt lat="44.16597" lon="7.63541">
        <ele>2092</ele>
        <time>2017-09-17T13:40:38Z</time>
      </trkpt>
      <trkpt lat="44.16602" lon="7.63541">
        <ele>2092</ele>
        <time>2017-09-17T13:40:39Z</time>
      </trkpt>
      <trkpt lat="44.16607" lon="7.63541">
        <ele>2092</ele>
        <time>2017-09-17T13:40:40Z</time>
      </trkpt>
      <trkpt lat="44.16612" lon="7.6354">
        <ele>2093</ele>
        <time>2017-09-17T13:40:41Z</time>
      </trkpt>
      <trkpt lat="44.16617" lon="7.63539">
        <ele>2093</ele>
        <time>2017-09-17T13:40:42Z</time>
      </trkpt>
      <trkpt lat="44.16621" lon="7.63537">
        <ele>2094</ele>
        <time>2017-09-17T13:40:43Z</time>
      </trkpt>
      <trkpt lat="44.16626" lon="7.63534">
        <ele>2094</ele>
        <time>2017-09-17T13:40:44Z</time>
      </trkpt>
      <trkpt lat="44.1663" lon="7.6353">
        <ele>2095</ele>
        <time>2017-09-17T13:40:45Z</time>
      </trkpt>
      <trkpt lat="44.16634" lon="7.63526">
        <ele>2095</ele>
        <time>2017-09-17T13:40:46Z</time>
      </trkpt>
      <trkpt lat="44.16639" lon="7.63523">
        <ele>2095</ele>
        <time>2017-09-17T13:40:47Z</time>
      </trkpt>
      <trkpt lat="44.16644" lon="7.63521">
        <ele>2096</ele>
        <time>2017-09-17T13:40:48Z</time>
      </trkpt>
      <trkpt lat="44.1665" lon="7.63519">
        <ele>2096</ele>
        <time>2017-09-17T13:40:49Z</time>
      </trkpt>
      <trkpt lat="44.16655" lon="7.63518">
        <ele>2096</ele>
        <time>2017-09-17T13:40:50Z</time>
      </trkpt>
      <trkpt lat="44.1666" lon="7.63517">
        <ele>2096</ele>
        <time>2017-09-17T13:40:51Z</time>
      </trkpt>
      <trkpt lat="44.16666" lon="7.63515">
        <ele>2097</ele>
        <time>2017-09-17T13:40:52Z</time>
      </trkpt>
      <trkpt lat="44.16671" lon="7.63512">
        <ele>2097</ele>
        <time>2017-09-17T13:40:53Z</time>
      </trkpt>
      <trkpt lat="44.16676" lon="7.63509">
        <ele>2098</ele>
        <time>2017-09-17T13:40:54Z</time>
      </trkpt>
      <trkpt lat="44.1668" lon="7.63504">
        <ele>2098</ele>
        <time>2017-09-17T13:40:55Z</time>
      </trkpt>
      <trkpt lat="44.16684" lon="7.63499">
        <ele>2098</ele>
        <time>2017-09-17T13:40:56Z</time>
      </trkpt>
      <trkpt lat="44.16688" lon="7.63493">
        <ele>2098</ele>
        <time>2017-09-17T13:40:57Z</time>
      </trkpt>
      <trkpt lat="44.16691" lon="7.63486">
        <ele>2098</ele>
        <time>2017-09-17T13:40:58Z</time>
      </trkpt>
      <trkpt lat="44.16693" lon="7.63479">
        <ele>2099</ele>
        <time>2017-09-17T13:40:59Z</time>
      </trkpt>
      <trkpt lat="44.16695" lon="7.63472">
        <ele>2099</ele>
        <time>2017-09-17T13:41:00Z</time>
      </trkpt>
      <trkpt lat="44.16697" lon="7.63464">
        <ele>2099</ele>
        <time>2017-09-17T13:41:01Z</time>
      </trkpt>
      <trkpt lat="44.16699" lon="7.63457">
        <ele>2099</ele>
        <time>2017-09-17T13:41:02Z</time>
      </trkpt>
      <trkpt lat="44.16702" lon="7.63449">
        <ele>2099</ele>
        <time>2017-09-17T13:41:03Z</time>
      </trkpt>
      <trkpt lat="44.16704" lon="7.63442">
        <ele>2099</ele>
        <time>2017-09-17T13:41:04Z</time>
      </trkpt>
      <trkpt lat="44.16707" lon="7.63435">
        <ele>2100</ele>
        <time>2017-09-17T13:41:05Z</time>
      </trkpt>
      <trkpt lat="44.16709" lon="7.63428">
        <ele>2100</ele>
        <time>2017-09-17T13:41:06Z</time>
      </trkpt>
      <trkpt lat="44.16712" lon="7.6342">
        <ele>2100</ele>
        <time>2017-09-17T13:41:07Z</time>
      </trkpt>
      <trkpt lat="44.16714" lon="7.63413">
        <ele>2100</ele>
        <time>2017-09-17T13:41:08Z</time>
      </trkpt>
      <trkpt lat="44.16717" lon="7.63406">
        <ele>2100</ele>
        <time>2017-09-17T13:41:09Z</time>
      </trkpt>
      <trkpt lat="44.16719" lon="7.634">
        <ele>2100</ele>
        <time>2017-09-17T13:41:10Z</time>
      </trkpt>
      <trkpt lat="44.16722" lon="7.63393">
        <ele>2101</ele>
        <time>2017-09-17T13:41:11Z</time>
      </trkpt>
      <trkpt lat="44.16724" lon="7.63386">
        <ele>2101</ele>
        <time>2017-09-17T13:41:12Z</time>
      </trkpt>
      <trkpt lat="44.16727" lon="7.6338">
        <ele>2101</ele>
        <time>2017-09-17T13:41:13Z</time>
      </trkpt>
      <trkpt lat="44.16729" lon="7.63373">
        <ele>2101</ele>
        <time>2017-09-17T13:41:14Z</time>
      </trkpt>
      <trkpt lat="44.16732" lon="7.63367">
        <ele>2101</ele>
        <time>2017-09-17T13:41:15Z</time>
      </trkpt>
      <trkpt lat="44.16734" lon="7.63361">
        <ele>2102</ele>
        <time>2017-09-17T13:41:16Z</time>
      </trkpt>
      <trkpt lat="44.16737" lon="7.63354">
        <ele>2102</ele>
        <time>2017-09-17T13:41:17Z</time>
      </trkpt>
      <trkpt lat="44.16739" lon="7.63348">
        <ele>2102</ele>
        <time>2017-09-17T13:41:18Z</time>
      </trkpt>
      <trkpt lat="44.16741" lon="7.63342">
        <ele>2102</ele>
        <time>2017-09-17T13:41:19Z</time>
      </trkpt>
      <trkpt lat="44.16743" lon="7.63335">
        <ele>2102</ele>
        <time>2017-09-17T13:41:20Z</time>
      </trkpt>
      <trkpt lat="44.16745" lon="7.63329">
        <ele>2102</ele>
        <time>2017-09-17T13:41:21Z</time>
      </trkpt>
      <trkpt lat="44.16747" lon="7.63322">
        <ele>2103</ele>
        <time>2017-09-17T13:41:22Z</time>
      </trkpt>
      <trkpt lat="44.1675" lon="7.63316">
        <ele>2103</ele>
        <time>2017-09-17T13:41:23Z</time>
      </trkpt>
      <trkpt lat="44.16754" lon="7.63312">
        <ele>2103</ele>
        <time>2017-09-17T13:41:24Z</time>
      </trkpt>
      <trkpt lat="44.16759" lon="7.63309">
        <ele>2103</ele>
        <time>2017-09-17T13:41:25Z</time>
      </trkpt>
      <trkpt lat="44.16763" lon="7.63309">
        <ele>2103</ele>
        <time>2017-09-17T13:41:26Z</time>
      </trkpt>
      <trkpt lat="44.16768" lon="7.63309">
        <ele>2103</ele>
        <time>2017-09-17T13:41:27Z</time>
      </trkpt>
      <trkpt lat="44.16773" lon="7.63309">
        <ele>2103</ele>
        <time>2017-09-17T13:41:28Z</time>
      </trkpt>
      <trkpt lat="44.16778" lon="7.6331">
        <ele>2103</ele>
        <time>2017-09-17T13:41:29Z</time>
      </trkpt>
      <trkpt lat="44.16782" lon="7.6331">
        <ele>2104</ele>
        <time>2017-09-17T13:41:30Z</time>
      </trkpt>
      <trkpt lat="44.16787" lon="7.63311">
        <ele>2104</ele>
        <time>2017-09-17T13:41:31Z</time>
      </trkpt>
      <trkpt lat="44.16792" lon="7.63311">
        <ele>2104</ele>
        <time>2017-09-17T13:41:32Z</time>
      </trkpt>
      <trkpt lat="44.16796" lon="7.63311">
        <ele>2104</ele>
        <time>2017-09-17T13:41:33Z</time>
      </trkpt>
      <trkpt lat="44.16801" lon="7.6331">
        <ele>2104</ele>
        <time>2017-09-17T13:41:34Z</time>
      </trkpt>
      <trkpt lat="44.16806" lon="7.63309">
        <ele>2105</ele>
        <time>2017-09-17T13:41:35Z</time>
      </trkpt>
      <trkpt lat="44.1681" lon="7.63309">
        <ele>2105</ele>
        <time>2017-09-17T13:41:36Z</time>
      </trkpt>
      <trkpt lat="44.16815" lon="7.63308">
        <ele>2105</ele>
        <time>2017-09-17T13:41:37Z</time>
      </trkpt>
      <trkpt lat="44.16819" lon="7.63308">
        <ele>2105</ele>
        <time>2017-09-17T13:41:38Z</time>
      </trkpt>
      <trkpt lat="44.16823" lon="7.63307">
        <ele>2106</ele>
        <time>2017-09-17T13:41:39Z</time>
      </trkpt>
      <trkpt lat="44.16828" lon="7.63308">
        <ele>2106</ele>
        <time>2017-09-17T13:41:40Z</time>
      </trkpt>
      <trkpt lat="44.16832" lon="7.63308">
        <ele>2106</ele>
        <time>2017-09-17T13:41:41Z</time>
      </trkpt>
      <trkpt lat="44.16837" lon="7.63308">
        <ele>2106</ele>
        <time>2017-09-17T13:41:42Z</time>
      </trkpt>
      <trkpt lat="44.16841" lon="7.63308">
        <ele>2107</ele>
        <time>2017-09-17T13:41:43Z</time>
      </trkpt>
      <trkpt lat="44.16846" lon="7.63308">
        <ele>2107</ele>
        <time>2017-09-17T13:41:44Z</time>
      </trkpt>
      <trkpt lat="44.16851" lon="7.63308">
        <ele>2107</ele>
        <time>2017-09-17T13:41:45Z</time>
      </trkpt>
      <trkpt lat="44.16855" lon="7.63309">
        <ele>2107</ele>
        <time>2017-09-17T13:41:46Z</time>
      </trkpt>
      <trkpt lat="44.1686" lon="7.63308">
        <ele>2108</ele>
        <time>2017-09-17T13:41:47Z</time>
      </trkpt>
      <trkpt lat="44.16865" lon="7.63307">
        <ele>2108</ele>
        <time>2017-09-17T13:41:48Z</time>
      </trkpt>
      <trkpt lat="44.16869" lon="7.63306">
        <ele>2108</ele>
        <time>2017-09-17T13:41:49Z</time>
      </trkpt>
      <trkpt lat="44.16874" lon="7.63305">
        <ele>2109</ele>
        <time>2017-09-17T13:41:50Z</time>
      </trkpt>
      <trkpt lat="44.16879" lon="7.63303">
        <ele>2109</ele>
        <time>2017-09-17T13:41:51Z</time>
      </trkpt>
      <trkpt lat="44.16883" lon="7.633">
        <ele>2109</ele>
        <time>2017-09-17T13:41:52Z</time>
      </trkpt>
      <trkpt lat="44.16887" lon="7.63297">
        <ele>2110</ele>
        <time>2017-09-17T13:41:53Z</time>
      </trkpt>
      <trkpt lat="44.16892" lon="7.63293">
        <ele>2110</ele>
        <time>2017-09-17T13:41:54Z</time>
      </trkpt>
      <trkpt lat="44.16896" lon="7.63291">
        <ele>2110</ele>
        <time>2017-09-17T13:41:55Z</time>
      </trkpt>
      <trkpt lat="44.16901" lon="7.63289">
        <ele>2110</ele>
        <time>2017-09-17T13:41:56Z</time>
      </trkpt>
      <trkpt lat="44.16906" lon="7.63289">
        <ele>2111</ele>
        <time>2017-09-17T13:41:57Z</time>
      </trkpt>
      <trkpt lat="44.1691" lon="7.63289">
        <ele>2111</ele>
        <time>2017-09-17T13:41:58Z</time>
      </trkpt>
      <trkpt lat="44.16915" lon="7.63288">
        <ele>2111</ele>
        <time>2017-09-17T13:41:59Z</time>
      </trkpt>
      <trkpt lat="44.1692" lon="7.63286">
        <ele>2112</ele>
        <time>2017-09-17T13:42:00Z</time>
      </trkpt>
      <trkpt lat="44.16925" lon="7.63285">
        <ele>2112</ele>
        <time>2017-09-17T13:42:01Z</time>
      </trkpt>
      <trkpt lat="44.16929" lon="7.63285">
        <ele>2112</ele>
        <time>2017-09-17T13:42:02Z</time>
      </trkpt>
      <trkpt lat="44.16934" lon="7.63285">
        <ele>2113</ele>
        <time>2017-09-17T13:42:03Z</time>
      </trkpt>
      <trkpt lat="44.16939" lon="7.63285">
        <ele>2113</ele>
        <time>2017-09-17T13:42:04Z</time>
      </trkpt>
      <trkpt lat="44.16944" lon="7.63286">
        <ele>2113</ele>
        <time>2017-09-17T13:42:05Z</time>
      </trkpt>
      <trkpt lat="44.16948" lon="7.63287">
        <ele>2114</ele>
        <time>2017-09-17T13:42:06Z</time>
      </trkpt>
      <trkpt lat="44.16952" lon="7.6329">
        <ele>2114</ele>
        <time>2017-09-17T13:42:07Z</time>
      </trkpt>
      <trkpt lat="44.16956" lon="7.63294">
        <ele>2114</ele>
        <time>2017-09-17T13:42:08Z</time>
      </trkpt>
      <trkpt lat="44.1696" lon="7.63297">
        <ele>2115</ele>
        <time>2017-09-17T13:42:09Z</time>
      </trkpt>
      <trkpt lat="44.16963" lon="7.63301">
        <ele>2115</ele>
        <time>2017-09-17T13:42:10Z</time>
      </trkpt>
      <trkpt lat="44.16967" lon="7.63305">
        <ele>2115</ele>
        <time>2017-09-17T13:42:11Z</time>
      </trkpt>
      <trkpt lat="44.1697" lon="7.63309">
        <ele>2116</ele>
        <time>2017-09-17T13:42:12Z</time>
      </trkpt>
      <trkpt lat="44.16974" lon="7.63312">
        <ele>2116</ele>
        <time>2017-09-17T13:42:13Z</time>
      </trkpt>
      <trkpt lat="44.16977" lon="7.63316">
        <ele>2116</ele>
        <time>2017-09-17T13:42:14Z</time>
      </trkpt>
      <trkpt lat="44.1698" lon="7.6332">
        <ele>2117</ele>
        <time>2017-09-17T13:42:15Z</time>
      </trkpt>
      <trkpt lat="44.16984" lon="7.63323">
        <ele>2117</ele>
        <time>2017-09-17T13:42:16Z</time>
      </trkpt>
      <trkpt lat="44.16988" lon="7.63326">
        <ele>2117</ele>
        <time>2017-09-17T13:42:17Z</time>
      </trkpt>
      <trkpt lat="44.16992" lon="7.63329">
        <ele>2118</ele>
        <time>2017-09-17T13:42:18Z</time>
      </trkpt>
      <trkpt lat="44.16995" lon="7.63333">
        <ele>2118</ele>
        <time>2017-09-17T13:42:19Z</time>
      </trkpt>
      <trkpt lat="44.16998" lon="7.63337">
        <ele>2118</ele>
        <time>2017-09-17T13:42:20Z</time>
      </trkpt>
      <trkpt lat="44.17002" lon="7.63341">
        <ele>2119</ele>
        <time>2017-09-17T13:42:21Z</time>
      </trkpt>
      <trkpt lat="44.17005" lon="7.63344">
        <ele>2119</ele>
        <time>2017-09-17T13:42:22Z</time>
      </trkpt>
      <trkpt lat="44.17008" lon="7.63347">
        <ele>2119</ele>
        <time>2017-09-17T13:42:23Z</time>
      </trkpt>
      <trkpt lat="44.17012" lon="7.63349">
        <ele>2120</ele>
        <time>2017-09-17T13:42:24Z</time>
      </trkpt>
      <trkpt lat="44.17016" lon="7.63351">
        <ele>2120</ele>
        <time>2017-09-17T13:42:25Z</time>
      </trkpt>
      <trkpt lat="44.17019" lon="7.63354">
        <ele>2120</ele>
        <time>2017-09-17T13:42:26Z</time>
      </trkpt>
      <trkpt lat="44.17023" lon="7.63356">
        <ele>2121</ele>
        <time>2017-09-17T13:42:27Z</time>
      </trkpt>
      <trkpt lat="44.17027" lon="7.63359">
        <ele>2121</ele>
        <time>2017-09-17T13:42:28Z</time>
      </trkpt>
      <trkpt lat="44.1703" lon="7.63362">
        <ele>2122</ele>
        <time>2017-09-17T13:42:29Z</time>
      </trkpt>
      <trkpt lat="44.17034" lon="7.63365">
        <ele>2122</ele>
        <time>2017-09-17T13:42:30Z</time>
      </trkpt>
      <trkpt lat="44.17037" lon="7.63368">
        <ele>2122</ele>
        <time>2017-09-17T13:42:31Z</time>
      </trkpt>
      <trkpt lat="44.1704" lon="7.63371">
        <ele>2123</ele>
        <time>2017-09-17T13:42:32Z</time>
      </trkpt>
      <trkpt lat="44.17044" lon="7.63375">
        <ele>2123</ele>
        <time>2017-09-17T13:42:33Z</time>
      </trkpt>
      <trkpt lat="44.17047" lon="7.63378">
        <ele>2123</ele>
        <time>2017-09-17T13:42:34Z</time>
      </trkpt>
      <trkpt lat="44.17051" lon="7.63381">
        <ele>2124</ele>
        <time>2017-09-17T13:42:35Z</time>
      </trkpt>
      <trkpt lat="44.17054" lon="7.63382">
        <ele>2124</ele>
        <time>2017-09-17T13:42:36Z</time>
      </trkpt>
      <trkpt lat="44.17058" lon="7.63383">
        <ele>2124</ele>
        <time>2017-09-17T13:42:37Z</time>
      </trkpt>
      <trkpt lat="44.17062" lon="7.63383">
        <ele>2125</ele>
        <time>2017-09-17T13:42:38Z</time>
      </trkpt>
      <trkpt lat="44.17066" lon="7.63383">
        <ele>2125</ele>
        <time>2017-09-17T13:42:39Z</time>
      </trkpt>
      <trkpt lat="44.1707" lon="7.63384">
        <ele>2125</ele>
        <time>2017-09-17T13:42:40Z</time>
      </trkpt>
      <trkpt lat="44.17074" lon="7.63385">
        <ele>2126</ele>
        <time>2017-09-17T13:42:41Z</time>
      </trkpt>
      <trkpt lat="44.17078" lon="7.63386">
        <ele>2126</ele>
        <time>2017-09-17T13:42:42Z</time>
      </trkpt>
      <trkpt lat="44.17082" lon="7.63387">
        <ele>2126</ele>
        <time>2017-09-17T13:42:43Z</time>
      </trkpt>
      <trkpt lat="44.17085" lon="7.63389">
        <ele>2127</ele>
        <time>2017-09-17T13:42:44Z</time>
      </trkpt>
      <trkpt lat="44.17089" lon="7.63391">
        <ele>2127</ele>
        <time>2017-09-17T13:42:45Z</time>
      </trkpt>
      <trkpt lat="44.17092" lon="7.63394">
        <ele>2127</ele>
        <time>2017-09-17T13:42:46Z</time>
      </trkpt>
      <trkpt lat="44.17095" lon="7.63398">
        <ele>2128</ele>
        <time>2017-09-17T13:42:47Z</time>
      </trkpt>
      <trkpt lat="44.17098" lon="7.63402">
        <ele>2128</ele>
        <time>2017-09-17T13:42:48Z</time>
      </trkpt>
      <trkpt lat="44.171" lon="7.63406">
        <ele>2128</ele>
        <time>2017-09-17T13:42:49Z</time>
      </trkpt>
      <trkpt lat="44.17102" lon="7.6341">
        <ele>2129</ele>
        <time>2017-09-17T13:42:50Z</time>
      </trkpt>
      <trkpt lat="44.17104" lon="7.63414">
        <ele>2129</ele>
        <time>2017-09-17T13:42:51Z</time>
      </trkpt>
      <trkpt lat="44.17105" lon="7.63419">
        <ele>2129</ele>
        <time>2017-09-17T13:42:52Z</time>
      </trkpt>
      <trkpt lat="44.17107" lon="7.63424">
        <ele>2129</ele>
        <time>2017-09-17T13:42:53Z</time>
      </trkpt>
      <trkpt lat="44.17108" lon="7.6343">
        <ele>2130</ele>
        <time>2017-09-17T13:42:54Z</time>
      </trkpt>
      <trkpt lat="44.17109" lon="7.63435">
        <ele>2130</ele>
        <time>2017-09-17T13:42:55Z</time>
      </trkpt>
      <trkpt lat="44.1711" lon="7.63441">
        <ele>2130</ele>
        <time>2017-09-17T13:42:56Z</time>
      </trkpt>
      <trkpt lat="44.17111" lon="7.63446">
        <ele>2130</ele>
        <time>2017-09-17T13:42:57Z</time>
      </trkpt>
      <trkpt lat="44.17113" lon="7.63452">
        <ele>2130</ele>
        <time>2017-09-17T13:42:58Z</time>
      </trkpt>
      <trkpt lat="44.17115" lon="7.63457">
        <ele>2131</ele>
        <time>2017-09-17T13:42:59Z</time>
      </trkpt>
      <trkpt lat="44.17117" lon="7.63463">
        <ele>2131</ele>
        <time>2017-09-17T13:43:00Z</time>
      </trkpt>
      <trkpt lat="44.17119" lon="7.63468">
        <ele>2131</ele>
        <time>2017-09-17T13:43:01Z</time>
      </trkpt>
      <trkpt lat="44.17121" lon="7.63474">
        <ele>2131</ele>
        <time>2017-09-17T13:43:02Z</time>
      </trkpt>
      <trkpt lat="44.17122" lon="7.6348">
        <ele>2131</ele>
        <time>2017-09-17T13:43:03Z</time>
      </trkpt>
      <trkpt lat="44.17122" lon="7.63486">
        <ele>2131</ele>
        <time>2017-09-17T13:43:04Z</time>
      </trkpt>
      <trkpt lat="44.17122" lon="7.63493">
        <ele>2131</ele>
        <time>2017-09-17T13:43:05Z</time>
      </trkpt>
      <trkpt lat="44.17123" lon="7.63499">
        <ele>2131</ele>
        <time>2017-09-17T13:43:06Z</time>
      </trkpt>
      <trkpt lat="44.17123" lon="7.63505">
        <ele>2131</ele>
        <time>2017-09-17T13:43:07Z</time>
      </trkpt>
      <trkpt lat="44.17124" lon="7.63511">
        <ele>2131</ele>
        <time>2017-09-17T13:43:08Z</time>
      </trkpt>
      <trkpt lat="44.17124" lon="7.63517">
        <ele>2132</ele>
        <time>2017-09-17T13:43:09Z</time>
      </trkpt>
      <trkpt lat="44.17124" lon="7.63524">
        <ele>2132</ele>
        <time>2017-09-17T13:43:10Z</time>
      </trkpt>
      <trkpt lat="44.17123" lon="7.6353">
        <ele>2132</ele>
        <time>2017-09-17T13:43:11Z</time>
      </trkpt>
      <trkpt lat="44.17122" lon="7.63536">
        <ele>2132</ele>
        <time>2017-09-17T13:43:12Z</time>
      </trkpt>
      <trkpt lat="44.17121" lon="7.63542">
        <ele>2132</ele>
        <time>2017-09-17T13:43:13Z</time>
      </trkpt>
      <trkpt lat="44.17121" lon="7.63547">
        <ele>2132</ele>
        <time>2017-09-17T13:43:14Z</time>
      </trkpt>
      <trkpt lat="44.17123" lon="7.63554">
        <ele>2132</ele>
        <time>2017-09-17T13:43:15Z</time>
      </trkpt>
      <trkpt lat="44.17125" lon="7.6356">
        <ele>2132</ele>
        <time>2017-09-17T13:43:16Z</time>
      </trkpt>
      <trkpt lat="44.17129" lon="7.63565">
        <ele>2132</ele>
        <time>2017-09-17T13:43:17Z</time>
      </trkpt>
      <trkpt lat="44.17133" lon="7.63569">
        <ele>2132</ele>
        <time>2017-09-17T13:43:18Z</time>
      </trkpt>
      <trkpt lat="44.17138" lon="7.63571">
        <ele>2133</ele>
        <time>2017-09-17T13:43:19Z</time>
      </trkpt>
      <trkpt lat="44.17143" lon="7.63572">
        <ele>2133</ele>
        <time>2017-09-17T13:43:20Z</time>
      </trkpt>
      <trkpt lat="44.17149" lon="7.63571">
        <ele>2133</ele>
        <time>2017-09-17T13:43:21Z</time>
      </trkpt>
      <trkpt lat="44.17154" lon="7.63571">
        <ele>2133</ele>
        <time>2017-09-17T13:43:22Z</time>
      </trkpt>
      <trkpt lat="44.17158" lon="7.63571">
        <ele>2133</ele>
        <time>2017-09-17T13:43:23Z</time>
      </trkpt>
      <trkpt lat="44.17164" lon="7.63572">
        <ele>2133</ele>
        <time>2017-09-17T13:43:24Z</time>
      </trkpt>
      <trkpt lat="44.17169" lon="7.63573">
        <ele>2133</ele>
        <time>2017-09-17T13:43:25Z</time>
      </trkpt>
      <trkpt lat="44.17175" lon="7.63576">
        <ele>2133</ele>
        <time>2017-09-17T13:43:26Z</time>
      </trkpt>
      <trkpt lat="44.17181" lon="7.63579">
        <ele>2133</ele>
        <time>2017-09-17T13:43:27Z</time>
      </trkpt>
      <trkpt lat="44.17187" lon="7.63582">
        <ele>2133</ele>
        <time>2017-09-17T13:43:28Z</time>
      </trkpt>
      <trkpt lat="44.17193" lon="7.63585">
        <ele>2132</ele>
        <time>2017-09-17T13:43:29Z</time>
      </trkpt>
      <trkpt lat="44.172" lon="7.63588">
        <ele>2132</ele>
        <time>2017-09-17T13:43:30Z</time>
      </trkpt>
      <trkpt lat="44.17206" lon="7.63591">
        <ele>2132</ele>
        <time>2017-09-17T13:43:31Z</time>
      </trkpt>
      <trkpt lat="44.17213" lon="7.63595">
        <ele>2132</ele>
        <time>2017-09-17T13:43:32Z</time>
      </trkpt>
      <trkpt lat="44.17219" lon="7.636">
        <ele>2132</ele>
        <time>2017-09-17T13:43:33Z</time>
      </trkpt>
      <trkpt lat="44.17224" lon="7.63608">
        <ele>2132</ele>
        <time>2017-09-17T13:43:34Z</time>
      </trkpt>
      <trkpt lat="44.17228" lon="7.63616">
        <ele>2132</ele>
        <time>2017-09-17T13:43:35Z</time>
      </trkpt>
      <trkpt lat="44.17231" lon="7.63626">
        <ele>2132</ele>
        <time>2017-09-17T13:43:36Z</time>
      </trkpt>
      <trkpt lat="44.17234" lon="7.63635">
        <ele>2132</ele>
        <time>2017-09-17T13:43:37Z</time>
      </trkpt>
      <trkpt lat="44.17239" lon="7.63643">
        <ele>2132</ele>
        <time>2017-09-17T13:43:38Z</time>
      </trkpt>
      <trkpt lat="44.17245" lon="7.63648">
        <ele>2132</ele>
        <time>2017-09-17T13:43:39Z</time>
      </trkpt>
      <trkpt lat="44.17252" lon="7.6365">
        <ele>2132</ele>
        <time>2017-09-17T13:43:40Z</time>
      </trkpt>
      <trkpt lat="44.17258" lon="7.63652">
        <ele>2132</ele>
        <time>2017-09-17T13:43:41Z</time>
      </trkpt>
      <trkpt lat="44.17264" lon="7.63654">
        <ele>2132</ele>
        <time>2017-09-17T13:43:42Z</time>
      </trkpt>
      <trkpt lat="44.17269" lon="7.63656">
        <ele>2133</ele>
        <time>2017-09-17T13:43:43Z</time>
      </trkpt>
      <trkpt lat="44.17274" lon="7.63658">
        <ele>2133</ele>
        <time>2017-09-17T13:43:44Z</time>
      </trkpt>
      <trkpt lat="44.17278" lon="7.6366">
        <ele>2134</ele>
        <time>2017-09-17T13:43:45Z</time>
      </trkpt>
      <trkpt lat="44.17282" lon="7.63662">
        <ele>2134</ele>
        <time>2017-09-17T13:43:46Z</time>
      </trkpt>
      <trkpt lat="44.17286" lon="7.63664">
        <ele>2135</ele>
        <time>2017-09-17T13:43:47Z</time>
      </trkpt>
      <trkpt lat="44.17291" lon="7.63664">
        <ele>2135</ele>
        <time>2017-09-17T13:43:48Z</time>
      </trkpt>
      <trkpt lat="44.17295" lon="7.63665">
        <ele>2136</ele>
        <time>2017-09-17T13:43:49Z</time>
      </trkpt>
      <trkpt lat="44.17299" lon="7.63665">
        <ele>2136</ele>
        <time>2017-09-17T13:43:50Z</time>
      </trkpt>
      <trkpt lat="44.17304" lon="7.63666">
        <ele>2137</ele>
        <time>2017-09-17T13:43:51Z</time>
      </trkpt>
      <trkpt lat="44.17308" lon="7.63668">
        <ele>2137</ele>
        <time>2017-09-17T13:43:52Z</time>
      </trkpt>
      <trkpt lat="44.17312" lon="7.63671">
        <ele>2138</ele>
        <time>2017-09-17T13:43:53Z</time>
      </trkpt>
      <trkpt lat="44.17315" lon="7.63674">
        <ele>2139</ele>
        <time>2017-09-17T13:43:54Z</time>
      </trkpt>
      <trkpt lat="44.17318" lon="7.63677">
        <ele>2139</ele>
        <time>2017-09-17T13:43:55Z</time>
      </trkpt>
      <trkpt lat="44.17321" lon="7.63681">
        <ele>2139</ele>
        <time>2017-09-17T13:43:56Z</time>
      </trkpt>
      <trkpt lat="44.17325" lon="7.63684">
        <ele>2140</ele>
        <time>2017-09-17T13:43:57Z</time>
      </trkpt>
      <trkpt lat="44.17328" lon="7.63687">
        <ele>2140</ele>
        <time>2017-09-17T13:43:58Z</time>
      </trkpt>
      <trkpt lat="44.17332" lon="7.63689">
        <ele>2141</ele>
        <time>2017-09-17T13:43:59Z</time>
      </trkpt>
      <trkpt lat="44.17336" lon="7.63692">
        <ele>2141</ele>
        <time>2017-09-17T13:44:00Z</time>
      </trkpt>
      <trkpt lat="44.17339" lon="7.63696">
        <ele>2142</ele>
        <time>2017-09-17T13:44:01Z</time>
      </trkpt>
      <trkpt lat="44.17343" lon="7.63699">
        <ele>2142</ele>
        <time>2017-09-17T13:44:02Z</time>
      </trkpt>
      <trkpt lat="44.17346" lon="7.63703">
        <ele>2142</ele>
        <time>2017-09-17T13:44:03Z</time>
      </trkpt>
      <trkpt lat="44.1735" lon="7.63706">
        <ele>2143</ele>
        <time>2017-09-17T13:44:04Z</time>
      </trkpt>
      <trkpt lat="44.17354" lon="7.63708">
        <ele>2143</ele>
        <time>2017-09-17T13:44:05Z</time>
      </trkpt>
      <trkpt lat="44.17358" lon="7.6371">
        <ele>2144</ele>
        <time>2017-09-17T13:44:06Z</time>
      </trkpt>
      <trkpt lat="44.17362" lon="7.63711">
        <ele>2145</ele>
        <time>2017-09-17T13:44:07Z</time>
      </trkpt>
      <trkpt lat="44.17366" lon="7.63711">
        <ele>2145</ele>
        <time>2017-09-17T13:44:08Z</time>
      </trkpt>
      <trkpt lat="44.1737" lon="7.63711">
        <ele>2145</ele>
        <time>2017-09-17T13:44:09Z</time>
      </trkpt>
      <trkpt lat="44.17374" lon="7.63712">
        <ele>2146</ele>
        <time>2017-09-17T13:44:10Z</time>
      </trkpt>
      <trkpt lat="44.17378" lon="7.63715">
        <ele>2146</ele>
        <time>2017-09-17T13:44:11Z</time>
      </trkpt>
      <trkpt lat="44.17381" lon="7.63719">
        <ele>2146</ele>
        <time>2017-09-17T13:44:12Z</time>
      </trkpt>
      <trkpt lat="44.17384" lon="7.63723">
        <ele>2147</ele>
        <time>2017-09-17T13:44:13Z</time>
      </trkpt>
      <trkpt lat="44.17385" lon="7.63729">
        <ele>2147</ele>
        <time>2017-09-17T13:44:14Z</time>
      </trkpt>
      <trkpt lat="44.17386" lon="7.63734">
        <ele>2148</ele>
        <time>2017-09-17T13:44:15Z</time>
      </trkpt>
      <trkpt lat="44.17386" lon="7.6374">
        <ele>2148</ele>
        <time>2017-09-17T13:44:16Z</time>
      </trkpt>
      <trkpt lat="44.17385" lon="7.63745">
        <ele>2148</ele>
        <time>2017-09-17T13:44:17Z</time>
      </trkpt>
      <trkpt lat="44.17383" lon="7.6375">
        <ele>2148</ele>
        <time>2017-09-17T13:44:18Z</time>
      </trkpt>
      <trkpt lat="44.17381" lon="7.63755">
        <ele>2148</ele>
        <time>2017-09-17T13:44:19Z</time>
      </trkpt>
      <trkpt lat="44.17378" lon="7.6376">
        <ele>2149</ele>
        <time>2017-09-17T13:44:20Z</time>
      </trkpt>
      <trkpt lat="44.17376" lon="7.63767">
        <ele>2149</ele>
        <time>2017-09-17T13:44:21Z</time>
      </trkpt>
      <trkpt lat="44.17376" lon="7.63774">
        <ele>2149</ele>
        <time>2017-09-17T13:44:22Z</time>
      </trkpt>
      <trkpt lat="44.17377" lon="7.63781">
        <ele>2149</ele>
        <time>2017-09-17T13:44:23Z</time>
      </trkpt>
      <trkpt lat="44.17378" lon="7.63788">
        <ele>2149</ele>
        <time>2017-09-17T13:44:24Z</time>
      </trkpt>
      <trkpt lat="44.17379" lon="7.63796">
        <ele>2149</ele>
        <time>2017-09-17T13:44:25Z</time>
      </trkpt>
      <trkpt lat="44.1738" lon="7.63804">
        <ele>2149</ele>
        <time>2017-09-17T13:44:26Z</time>
      </trkpt>
      <trkpt lat="44.1738" lon="7.63811">
        <ele>2149</ele>
        <time>2017-09-17T13:44:27Z</time>
      </trkpt>
      <trkpt lat="44.17379" lon="7.63819">
        <ele>2149</ele>
        <time>2017-09-17T13:44:28Z</time>
      </trkpt>
      <trkpt lat="44.17379" lon="7.63827">
        <ele>2149</ele>
        <time>2017-09-17T13:44:29Z</time>
      </trkpt>
      <trkpt lat="44.17378" lon="7.63834">
        <ele>2149</ele>
        <time>2017-09-17T13:44:30Z</time>
      </trkpt>
      <trkpt lat="44.17375" lon="7.63842">
        <ele>2149</ele>
        <time>2017-09-17T13:44:31Z</time>
      </trkpt>
      <trkpt lat="44.17372" lon="7.63848">
        <ele>2149</ele>
        <time>2017-09-17T13:44:32Z</time>
      </trkpt>
      <trkpt lat="44.17368" lon="7.63853">
        <ele>2149</ele>
        <time>2017-09-17T13:44:33Z</time>
      </trkpt>
      <trkpt lat="44.17363" lon="7.63857">
        <ele>2149</ele>
        <time>2017-09-17T13:44:34Z</time>
      </trkpt>
      <trkpt lat="44.17358" lon="7.63861">
        <ele>2150</ele>
        <time>2017-09-17T13:44:35Z</time>
      </trkpt>
      <trkpt lat="44.17352" lon="7.63864">
        <ele>2150</ele>
        <time>2017-09-17T13:44:36Z</time>
      </trkpt>
      <trkpt lat="44.17347" lon="7.63866">
        <ele>2150</ele>
        <time>2017-09-17T13:44:37Z</time>
      </trkpt>
      <trkpt lat="44.17341" lon="7.63869">
        <ele>2150</ele>
        <time>2017-09-17T13:44:38Z</time>
      </trkpt>
      <trkpt lat="44.17336" lon="7.63872">
        <ele>2150</ele>
        <time>2017-09-17T13:44:39Z</time>
      </trkpt>
      <trkpt lat="44.17331" lon="7.63876">
        <ele>2150</ele>
        <time>2017-09-17T13:44:40Z</time>
      </trkpt>
      <trkpt lat="44.17325" lon="7.63879">
        <ele>2150</ele>
        <time>2017-09-17T13:44:41Z</time>
      </trkpt>
      <trkpt lat="44.1732" lon="7.63882">
        <ele>2150</ele>
        <time>2017-09-17T13:44:42Z</time>
      </trkpt>
      <trkpt lat="44.17315" lon="7.63885">
        <ele>2150</ele>
        <time>2017-09-17T13:44:43Z</time>
      </trkpt>
      <trkpt lat="44.1731" lon="7.63889">
        <ele>2150</ele>
        <time>2017-09-17T13:44:44Z</time>
      </trkpt>
      <trkpt lat="44.17305" lon="7.63893">
        <ele>2150</ele>
        <time>2017-09-17T13:44:45Z</time>
      </trkpt>
      <trkpt lat="44.173" lon="7.63897">
        <ele>2151</ele>
        <time>2017-09-17T13:44:46Z</time>
      </trkpt>
      <trkpt lat="44.17295" lon="7.63902">
        <ele>2151</ele>
        <time>2017-09-17T13:44:47Z</time>
      </trkpt>
      <trkpt lat="44.1729" lon="7.63907">
        <ele>2151</ele>
        <time>2017-09-17T13:44:48Z</time>
      </trkpt>
      <trkpt lat="44.17285" lon="7.63911">
        <ele>2151</ele>
        <time>2017-09-17T13:44:49Z</time>
      </trkpt>
      <trkpt lat="44.1728" lon="7.63916">
        <ele>2151</ele>
        <time>2017-09-17T13:44:50Z</time>
      </trkpt>
      <trkpt lat="44.17275" lon="7.6392">
        <ele>2151</ele>
        <time>2017-09-17T13:44:51Z</time>
      </trkpt>
      <trkpt lat="44.1727" lon="7.63922">
        <ele>2151</ele>
        <time>2017-09-17T13:44:52Z</time>
      </trkpt>
      <trkpt lat="44.17264" lon="7.63922">
        <ele>2151</ele>
        <time>2017-09-17T13:44:53Z</time>
      </trkpt>
      <trkpt lat="44.17258" lon="7.63921">
        <ele>2151</ele>
        <time>2017-09-17T13:44:54Z</time>
      </trkpt>
      <trkpt lat="44.17253" lon="7.6392">
        <ele>2151</ele>
        <time>2017-09-17T13:44:55Z</time>
      </trkpt>
      <trkpt lat="44.17247" lon="7.63919">
        <ele>2151</ele>
        <time>2017-09-17T13:44:56Z</time>
      </trkpt>
      <trkpt lat="44.17241" lon="7.63918">
        <ele>2151</ele>
        <time>2017-09-17T13:44:57Z</time>
      </trkpt>
      <trkpt lat="44.17236" lon="7.63915">
        <ele>2151</ele>
        <time>2017-09-17T13:44:58Z</time>
      </trkpt>
      <trkpt lat="44.17231" lon="7.63912">
        <ele>2151</ele>
        <time>2017-09-17T13:44:59Z</time>
      </trkpt>
      <trkpt lat="44.17225" lon="7.6391">
        <ele>2151</ele>
        <time>2017-09-17T13:45:00Z</time>
      </trkpt>
      <trkpt lat="44.17219" lon="7.6391">
        <ele>2151</ele>
        <time>2017-09-17T13:45:01Z</time>
      </trkpt>
      <trkpt lat="44.17214" lon="7.63911">
        <ele>2151</ele>
        <time>2017-09-17T13:45:02Z</time>
      </trkpt>
      <trkpt lat="44.17208" lon="7.63912">
        <ele>2151</ele>
        <time>2017-09-17T13:45:03Z</time>
      </trkpt>
      <trkpt lat="44.17202" lon="7.63912">
        <ele>2151</ele>
        <time>2017-09-17T13:45:04Z</time>
      </trkpt>
      <trkpt lat="44.17196" lon="7.63912">
        <ele>2151</ele>
        <time>2017-09-17T13:45:05Z</time>
      </trkpt>
      <trkpt lat="44.1719" lon="7.63909">
        <ele>2151</ele>
        <time>2017-09-17T13:45:06Z</time>
      </trkpt>
      <trkpt lat="44.17185" lon="7.63905">
        <ele>2151</ele>
        <time>2017-09-17T13:45:07Z</time>
      </trkpt>
      <trkpt lat="44.1718" lon="7.63902">
        <ele>2152</ele>
        <time>2017-09-17T13:45:08Z</time>
      </trkpt>
      <trkpt lat="44.17174" lon="7.63899">
        <ele>2152</ele>
        <time>2017-09-17T13:45:09Z</time>
      </trkpt>
      <trkpt lat="44.17169" lon="7.63897">
        <ele>2152</ele>
        <time>2017-09-17T13:45:10Z</time>
      </trkpt>
      <trkpt lat="44.17163" lon="7.63896">
        <ele>2152</ele>
        <time>2017-09-17T13:45:11Z</time>
      </trkpt>
      <trkpt lat="44.17158" lon="7.63898">
        <ele>2152</ele>
        <time>2017-09-17T13:45:12Z</time>
      </trkpt>
      <trkpt lat="44.17153" lon="7.63901">
        <ele>2152</ele>
        <time>2017-09-17T13:45:13Z</time>
      </trkpt>
      <trkpt lat="44.17149" lon="7.63905">
        <ele>2152</ele>
        <time>2017-09-17T13:45:14Z</time>
      </trkpt>
      <trkpt lat="44.17144" lon="7.63909">
        <ele>2152</ele>
        <time>2017-09-17T13:45:15Z</time>
      </trkpt>
      <trkpt lat="44.17139" lon="7.63912">
        <ele>2153</ele>
        <time>2017-09-17T13:45:16Z</time>
      </trkpt>
      <trkpt lat="44.17134" lon="7.63914">
        <ele>2153</ele>
        <time>2017-09-17T13:45:17Z</time>
      </trkpt>
      <trkpt lat="44.1713" lon="7.63917">
        <ele>2153</ele>
        <time>2017-09-17T13:45:18Z</time>
      </trkpt>
      <trkpt lat="44.17125" lon="7.6392">
        <ele>2153</ele>
        <time>2017-09-17T13:45:19Z</time>
      </trkpt>
      <trkpt lat="44.1712" lon="7.63923">
        <ele>2153</ele>
        <time>2017-09-17T13:45:20Z</time>
      </trkpt>
      <trkpt lat="44.17116" lon="7.63927">
        <ele>2153</ele>
        <time>2017-09-17T13:45:21Z</time>
      </trkpt>
      <trkpt lat="44.17111" lon="7.63931">
        <ele>2153</ele>
        <time>2017-09-17T13:45:22Z</time>
      </trkpt>
      <trkpt lat="44.17106" lon="7.63934">
        <ele>2153</ele>
        <time>2017-09-17T13:45:23Z</time>
      </trkpt>
      <trkpt lat="44.17101" lon="7.63936">
        <ele>2153</ele>
        <time>2017-09-17T13:45:24Z</time>
      </trkpt>
      <trkpt lat="44.17096" lon="7.63938">
        <ele>2153</ele>
        <time>2017-09-17T13:45:25Z</time>
      </trkpt>
      <trkpt lat="44.17091" lon="7.63939">
        <ele>2153</ele>
        <time>2017-09-17T13:45:26Z</time>
      </trkpt>
      <trkpt lat="44.17085" lon="7.63941">
        <ele>2153</ele>
        <time>2017-09-17T13:45:27Z</time>
      </trkpt>
      <trkpt lat="44.1708" lon="7.63942">
        <ele>2153</ele>
        <time>2017-09-17T13:45:28Z</time>
      </trkpt>
      <trkpt lat="44.17074" lon="7.63943">
        <ele>2153</ele>
        <time>2017-09-17T13:45:29Z</time>
      </trkpt>
      <trkpt lat="44.17069" lon="7.63944">
        <ele>2154</ele>
        <time>2017-09-17T13:45:30Z</time>
      </trkpt>
      <trkpt lat="44.17063" lon="7.63946">
        <ele>2154</ele>
        <time>2017-09-17T13:45:31Z</time>
      </trkpt>
      <trkpt lat="44.17058" lon="7.63946">
        <ele>2154</ele>
        <time>2017-09-17T13:45:32Z</time>
      </trkpt>
      <trkpt lat="44.17053" lon="7.63948">
        <ele>2154</ele>
        <time>2017-09-17T13:45:33Z</time>
      </trkpt>
      <trkpt lat="44.17048" lon="7.6395">
        <ele>2154</ele>
        <time>2017-09-17T13:45:34Z</time>
      </trkpt>
      <trkpt lat="44.17043" lon="7.63953">
        <ele>2154</ele>
        <time>2017-09-17T13:45:35Z</time>
      </trkpt>
      <trkpt lat="44.1704" lon="7.63959">
        <ele>2154</ele>
        <time>2017-09-17T13:45:36Z</time>
      </trkpt>
      <trkpt lat="44.17039" lon="7.63966">
        <ele>2154</ele>
        <time>2017-09-17T13:45:37Z</time>
      </trkpt>
      <trkpt lat="44.17038" lon="7.63973">
        <ele>2154</ele>
        <time>2017-09-17T13:45:38Z</time>
      </trkpt>
      <trkpt lat="44.17039" lon="7.6398">
        <ele>2154</ele>
        <time>2017-09-17T13:45:39Z</time>
      </trkpt>
      <trkpt lat="44.1704" lon="7.63988">
        <ele>2154</ele>
        <time>2017-09-17T13:45:40Z</time>
      </trkpt>
      <trkpt lat="44.17041" lon="7.63995">
        <ele>2154</ele>
        <time>2017-09-17T13:45:41Z</time>
      </trkpt>
      <trkpt lat="44.17042" lon="7.64003">
        <ele>2154</ele>
        <time>2017-09-17T13:45:42Z</time>
      </trkpt>
      <trkpt lat="44.17044" lon="7.64011">
        <ele>2154</ele>
        <time>2017-09-17T13:45:43Z</time>
      </trkpt>
      <trkpt lat="44.17047" lon="7.64018">
        <ele>2154</ele>
        <time>2017-09-17T13:45:44Z</time>
      </trkpt>
      <trkpt lat="44.17051" lon="7.64024">
        <ele>2153</ele>
        <time>2017-09-17T13:45:45Z</time>
      </trkpt>
      <trkpt lat="44.17056" lon="7.64028">
        <ele>2153</ele>
        <time>2017-09-17T13:45:46Z</time>
      </trkpt>
      <trkpt lat="44.17062" lon="7.6403">
        <ele>2153</ele>
        <time>2017-09-17T13:45:47Z</time>
      </trkpt>
      <trkpt lat="44.17068" lon="7.64032">
        <ele>2153</ele>
        <time>2017-09-17T13:45:48Z</time>
      </trkpt>
      <trkpt lat="44.17074" lon="7.64035">
        <ele>2153</ele>
        <time>2017-09-17T13:45:49Z</time>
      </trkpt>
      <trkpt lat="44.17079" lon="7.64039">
        <ele>2154</ele>
        <time>2017-09-17T13:45:50Z</time>
      </trkpt>
      <trkpt lat="44.17084" lon="7.64044">
        <ele>2154</ele>
        <time>2017-09-17T13:45:51Z</time>
      </trkpt>
      <trkpt lat="44.17088" lon="7.64051">
        <ele>2154</ele>
        <time>2017-09-17T13:45:52Z</time>
      </trkpt>
      <trkpt lat="44.17091" lon="7.64058">
        <ele>2154</ele>
        <time>2017-09-17T13:45:53Z</time>
      </trkpt>
      <trkpt lat="44.17094" lon="7.64066">
        <ele>2154</ele>
        <time>2017-09-17T13:45:54Z</time>
      </trkpt>
      <trkpt lat="44.17097" lon="7.64073">
        <ele>2154</ele>
        <time>2017-09-17T13:45:55Z</time>
      </trkpt>
      <trkpt lat="44.171" lon="7.64081">
        <ele>2154</ele>
        <time>2017-09-17T13:45:56Z</time>
      </trkpt>
      <trkpt lat="44.17103" lon="7.64087">
        <ele>2154</ele>
        <time>2017-09-17T13:45:57Z</time>
      </trkpt>
      <trkpt lat="44.17106" lon="7.64094">
        <ele>2154</ele>
        <time>2017-09-17T13:45:58Z</time>
      </trkpt>
      <trkpt lat="44.17109" lon="7.64101">
        <ele>2154</ele>
        <time>2017-09-17T13:45:59Z</time>
      </trkpt>
      <trkpt lat="44.17113" lon="7.64108">
        <ele>2154</ele>
        <time>2017-09-17T13:46:00Z</time>
      </trkpt>
      <trkpt lat="44.17116" lon="7.64114">
        <ele>2154</ele>
        <time>2017-09-17T13:46:01Z</time>
      </trkpt>
      <trkpt lat="44.1712" lon="7.6412">
        <ele>2154</ele>
        <time>2017-09-17T13:46:02Z</time>
      </trkpt>
      <trkpt lat="44.17124" lon="7.64126">
        <ele>2155</ele>
        <time>2017-09-17T13:46:03Z</time>
      </trkpt>
      <trkpt lat="44.17128" lon="7.64132">
        <ele>2155</ele>
        <time>2017-09-17T13:46:04Z</time>
      </trkpt>
      <trkpt lat="44.17131" lon="7.64138">
        <ele>2155</ele>
        <time>2017-09-17T13:46:05Z</time>
      </trkpt>
      <trkpt lat="44.17135" lon="7.64143">
        <ele>2155</ele>
        <time>2017-09-17T13:46:06Z</time>
      </trkpt>
      <trkpt lat="44.17139" lon="7.64149">
        <ele>2155</ele>
        <time>2017-09-17T13:46:07Z</time>
      </trkpt>
      <trkpt lat="44.17142" lon="7.64154">
        <ele>2155</ele>
        <time>2017-09-17T13:46:08Z</time>
      </trkpt>
      <trkpt lat="44.17146" lon="7.64158">
        <ele>2156</ele>
        <time>2017-09-17T13:46:09Z</time>
      </trkpt>
      <trkpt lat="44.17149" lon="7.64163">
        <ele>2156</ele>
        <time>2017-09-17T13:46:10Z</time>
      </trkpt>
      <trkpt lat="44.17152" lon="7.64168">
        <ele>2156</ele>
        <time>2017-09-17T13:46:11Z</time>
      </trkpt>
      <trkpt lat="44.17155" lon="7.64173">
        <ele>2157</ele>
        <time>2017-09-17T13:46:12Z</time>
      </trkpt>
      <trkpt lat="44.17158" lon="7.64177">
        <ele>2157</ele>
        <time>2017-09-17T13:46:13Z</time>
      </trkpt>
      <trkpt lat="44.1716" lon="7.64182">
        <ele>2157</ele>
        <time>2017-09-17T13:46:14Z</time>
      </trkpt>
      <trkpt lat="44.17161" lon="7.64188">
        <ele>2158</ele>
        <time>2017-09-17T13:46:15Z</time>
      </trkpt>
      <trkpt lat="44.17162" lon="7.64193">
        <ele>2158</ele>
        <time>2017-09-17T13:46:16Z</time>
      </trkpt>
      <trkpt lat="44.17163" lon="7.64198">
        <ele>2159</ele>
        <time>2017-09-17T13:46:17Z</time>
      </trkpt>
      <trkpt lat="44.17165" lon="7.64203">
        <ele>2159</ele>
        <time>2017-09-17T13:46:18Z</time>
      </trkpt>
      <trkpt lat="44.17166" lon="7.64208">
        <ele>2160</ele>
        <time>2017-09-17T13:46:19Z</time>
      </trkpt>
      <trkpt lat="44.17168" lon="7.64213">
        <ele>2160</ele>
        <time>2017-09-17T13:46:20Z</time>
      </trkpt>
      <trkpt lat="44.17169" lon="7.64218">
        <ele>2160</ele>
        <time>2017-09-17T13:46:21Z</time>
      </trkpt>
      <trkpt lat="44.17171" lon="7.64222">
        <ele>2161</ele>
        <time>2017-09-17T13:46:22Z</time>
      </trkpt>
      <trkpt lat="44.17173" lon="7.64227">
        <ele>2161</ele>
        <time>2017-09-17T13:46:23Z</time>
      </trkpt>
      <trkpt lat="44.17175" lon="7.64231">
        <ele>2162</ele>
        <time>2017-09-17T13:46:24Z</time>
      </trkpt>
      <trkpt lat="44.17176" lon="7.64236">
        <ele>2162</ele>
        <time>2017-09-17T13:46:25Z</time>
      </trkpt>
      <trkpt lat="44.17177" lon="7.64241">
        <ele>2162</ele>
        <time>2017-09-17T13:46:26Z</time>
      </trkpt>
      <trkpt lat="44.17178" lon="7.64246">
        <ele>2163</ele>
        <time>2017-09-17T13:46:27Z</time>
      </trkpt>
      <trkpt lat="44.17179" lon="7.6425">
        <ele>2163</ele>
        <time>2017-09-17T13:46:28Z</time>
      </trkpt>
      <trkpt lat="44.17179" lon="7.64255">
        <ele>2163</ele>
        <time>2017-09-17T13:46:29Z</time>
      </trkpt>
      <trkpt lat="44.17179" lon="7.6426">
        <ele>2163</ele>
        <time>2017-09-17T13:46:30Z</time>
      </trkpt>
      <trkpt lat="44.17179" lon="7.64264">
        <ele>2164</ele>
        <time>2017-09-17T13:46:31Z</time>
      </trkpt>
      <trkpt lat="44.17178" lon="7.64269">
        <ele>2164</ele>
        <time>2017-09-17T13:46:32Z</time>
      </trkpt>
      <trkpt lat="44.17177" lon="7.64274">
        <ele>2164</ele>
        <time>2017-09-17T13:46:33Z</time>
      </trkpt>
      <trkpt lat="44.17177" lon="7.64278">
        <ele>2165</ele>
        <time>2017-09-17T13:46:34Z</time>
      </trkpt>
      <trkpt lat="44.17176" lon="7.64283">
        <ele>2165</ele>
        <time>2017-09-17T13:46:35Z</time>
      </trkpt>
      <trkpt lat="44.17177" lon="7.64288">
        <ele>2166</ele>
        <time>2017-09-17T13:46:36Z</time>
      </trkpt>
      <trkpt lat="44.17177" lon="7.64292">
        <ele>2166</ele>
        <time>2017-09-17T13:46:37Z</time>
      </trkpt>
      <trkpt lat="44.17178" lon="7.64297">
        <ele>2166</ele>
        <time>2017-09-17T13:46:38Z</time>
      </trkpt>
      <trkpt lat="44.17179" lon="7.64301">
        <ele>2167</ele>
        <time>2017-09-17T13:46:39Z</time>
      </trkpt>
      <trkpt lat="44.17179" lon="7.64306">
        <ele>2167</ele>
        <time>2017-09-17T13:46:40Z</time>
      </trkpt>
      <trkpt lat="44.1718" lon="7.6431">
        <ele>2167</ele>
        <time>2017-09-17T13:46:41Z</time>
      </trkpt>
      <trkpt lat="44.17181" lon="7.64315">
        <ele>2168</ele>
        <time>2017-09-17T13:46:42Z</time>
      </trkpt>
      <trkpt lat="44.17182" lon="7.64319">
        <ele>2168</ele>
        <time>2017-09-17T13:46:43Z</time>
      </trkpt>
      <trkpt lat="44.17183" lon="7.64324">
        <ele>2168</ele>
        <time>2017-09-17T13:46:44Z</time>
      </trkpt>
      <trkpt lat="44.17184" lon="7.64328">
        <ele>2169</ele>
        <time>2017-09-17T13:46:45Z</time>
      </trkpt>
      <trkpt lat="44.17185" lon="7.64332">
        <ele>2169</ele>
        <time>2017-09-17T13:46:46Z</time>
      </trkpt>
      <trkpt lat="44.17187" lon="7.64336">
        <ele>2169</ele>
        <time>2017-09-17T13:46:47Z</time>
      </trkpt>
      <trkpt lat="44.17189" lon="7.6434">
        <ele>2170</ele>
        <time>2017-09-17T13:46:48Z</time>
      </trkpt>
      <trkpt lat="44.1719" lon="7.64344">
        <ele>2170</ele>
        <time>2017-09-17T13:46:49Z</time>
      </trkpt>
      <trkpt lat="44.17192" lon="7.64348">
        <ele>2170</ele>
        <time>2017-09-17T13:46:50Z</time>
      </trkpt>
      <trkpt lat="44.17194" lon="7.64351">
        <ele>2171</ele>
        <time>2017-09-17T13:46:51Z</time>
      </trkpt>
      <trkpt lat="44.17196" lon="7.64355">
        <ele>2171</ele>
        <time>2017-09-17T13:46:52Z</time>
      </trkpt>
      <trkpt lat="44.17197" lon="7.64359">
        <ele>2171</ele>
        <time>2017-09-17T13:46:53Z</time>
      </trkpt>
      <trkpt lat="44.17199" lon="7.64363">
        <ele>2172</ele>
        <time>2017-09-17T13:46:54Z</time>
      </trkpt>
      <trkpt lat="44.17201" lon="7.64368">
        <ele>2172</ele>
        <time>2017-09-17T13:46:55Z</time>
      </trkpt>
      <trkpt lat="44.17202" lon="7.64372">
        <ele>2173</ele>
        <time>2017-09-17T13:46:56Z</time>
      </trkpt>
      <trkpt lat="44.17203" lon="7.64376">
        <ele>2173</ele>
        <time>2017-09-17T13:46:57Z</time>
      </trkpt>
      <trkpt lat="44.17205" lon="7.64381">
        <ele>2173</ele>
        <time>2017-09-17T13:46:58Z</time>
      </trkpt>
      <trkpt lat="44.17205" lon="7.64385">
        <ele>2174</ele>
        <time>2017-09-17T13:46:59Z</time>
      </trkpt>
      <trkpt lat="44.17207" lon="7.64389">
        <ele>2174</ele>
        <time>2017-09-17T13:47:00Z</time>
      </trkpt>
      <trkpt lat="44.17208" lon="7.64393">
        <ele>2174</ele>
        <time>2017-09-17T13:47:01Z</time>
      </trkpt>
      <trkpt lat="44.17209" lon="7.64398">
        <ele>2175</ele>
        <time>2017-09-17T13:47:02Z</time>
      </trkpt>
      <trkpt lat="44.17211" lon="7.64402">
        <ele>2175</ele>
        <time>2017-09-17T13:47:03Z</time>
      </trkpt>
      <trkpt lat="44.17212" lon="7.64406">
        <ele>2175</ele>
        <time>2017-09-17T13:47:04Z</time>
      </trkpt>
      <trkpt lat="44.17214" lon="7.6441">
        <ele>2175</ele>
        <time>2017-09-17T13:47:05Z</time>
      </trkpt>
      <trkpt lat="44.17216" lon="7.64414">
        <ele>2176</ele>
        <time>2017-09-17T13:47:06Z</time>
      </trkpt>
      <trkpt lat="44.17217" lon="7.64419">
        <ele>2176</ele>
        <time>2017-09-17T13:47:07Z</time>
      </trkpt>
      <trkpt lat="44.17219" lon="7.64423">
        <ele>2176</ele>
        <time>2017-09-17T13:47:08Z</time>
      </trkpt>
      <trkpt lat="44.17221" lon="7.64426">
        <ele>2176</ele>
        <time>2017-09-17T13:47:09Z</time>
      </trkpt>
      <trkpt lat="44.17222" lon="7.6443">
        <ele>2176</ele>
        <time>2017-09-17T13:47:10Z</time>
      </trkpt>
      <trkpt lat="44.17223" lon="7.64434">
        <ele>2176</ele>
        <time>2017-09-17T13:47:11Z</time>
      </trkpt>
      <trkpt lat="44.17224" lon="7.64438">
        <ele>2177</ele>
        <time>2017-09-17T13:47:12Z</time>
      </trkpt>
      <trkpt lat="44.17225" lon="7.64442">
        <ele>2177</ele>
        <time>2017-09-17T13:47:13Z</time>
      </trkpt>
      <trkpt lat="44.17225" lon="7.64446">
        <ele>2177</ele>
        <time>2017-09-17T13:47:14Z</time>
      </trkpt>
      <trkpt lat="44.17225" lon="7.64451">
        <ele>2177</ele>
        <time>2017-09-17T13:47:15Z</time>
      </trkpt>
      <trkpt lat="44.17225" lon="7.64455">
        <ele>2177</ele>
        <time>2017-09-17T13:47:16Z</time>
      </trkpt>
      <trkpt lat="44.17223" lon="7.64459">
        <ele>2178</ele>
        <time>2017-09-17T13:47:17Z</time>
      </trkpt>
      <trkpt lat="44.17222" lon="7.64463">
        <ele>2178</ele>
        <time>2017-09-17T13:47:18Z</time>
      </trkpt>
      <trkpt lat="44.17219" lon="7.64466">
        <ele>2178</ele>
        <time>2017-09-17T13:47:19Z</time>
      </trkpt>
      <trkpt lat="44.17217" lon="7.64469">
        <ele>2179</ele>
        <time>2017-09-17T13:47:20Z</time>
      </trkpt>
      <trkpt lat="44.17214" lon="7.64471">
        <ele>2179</ele>
        <time>2017-09-17T13:47:21Z</time>
      </trkpt>
      <trkpt lat="44.17212" lon="7.64474">
        <ele>2179</ele>
        <time>2017-09-17T13:47:22Z</time>
      </trkpt>
      <trkpt lat="44.17211" lon="7.64478">
        <ele>2180</ele>
        <time>2017-09-17T13:47:23Z</time>
      </trkpt>
      <trkpt lat="44.17209" lon="7.64481">
        <ele>2180</ele>
        <time>2017-09-17T13:47:24Z</time>
      </trkpt>
      <trkpt lat="44.17208" lon="7.64485">
        <ele>2181</ele>
        <time>2017-09-17T13:47:25Z</time>
      </trkpt>
      <trkpt lat="44.17207" lon="7.64489">
        <ele>2181</ele>
        <time>2017-09-17T13:47:26Z</time>
      </trkpt>
      <trkpt lat="44.17206" lon="7.64493">
        <ele>2181</ele>
        <time>2017-09-17T13:47:27Z</time>
      </trkpt>
      <trkpt lat="44.17205" lon="7.64498">
        <ele>2182</ele>
        <time>2017-09-17T13:47:28Z</time>
      </trkpt>
      <trkpt lat="44.17205" lon="7.64502">
        <ele>2182</ele>
        <time>2017-09-17T13:47:29Z</time>
      </trkpt>
      <trkpt lat="44.17205" lon="7.64507">
        <ele>2183</ele>
        <time>2017-09-17T13:47:30Z</time>
      </trkpt>
      <trkpt lat="44.17206" lon="7.64511">
        <ele>2183</ele>
        <time>2017-09-17T13:47:31Z</time>
      </trkpt>
      <trkpt lat="44.17206" lon="7.64516">
        <ele>2184</ele>
        <time>2017-09-17T13:47:32Z</time>
      </trkpt>
      <trkpt lat="44.17207" lon="7.6452">
        <ele>2184</ele>
        <time>2017-09-17T13:47:33Z</time>
      </trkpt>
      <trkpt lat="44.17208" lon="7.64524">
        <ele>2185</ele>
        <time>2017-09-17T13:47:34Z</time>
      </trkpt>
      <trkpt lat="44.17209" lon="7.64528">
        <ele>2185</ele>
        <time>2017-09-17T13:47:35Z</time>
      </trkpt>
      <trkpt lat="44.1721" lon="7.64532">
        <ele>2186</ele>
        <time>2017-09-17T13:47:36Z</time>
      </trkpt>
      <trkpt lat="44.17211" lon="7.64536">
        <ele>2186</ele>
        <time>2017-09-17T13:47:37Z</time>
      </trkpt>
      <trkpt lat="44.17212" lon="7.6454">
        <ele>2186</ele>
        <time>2017-09-17T13:47:38Z</time>
      </trkpt>
      <trkpt lat="44.17214" lon="7.64544">
        <ele>2187</ele>
        <time>2017-09-17T13:47:39Z</time>
      </trkpt>
      <trkpt lat="44.17216" lon="7.64548">
        <ele>2187</ele>
        <time>2017-09-17T13:47:40Z</time>
      </trkpt>
      <trkpt lat="44.17218" lon="7.64552">
        <ele>2188</ele>
        <time>2017-09-17T13:47:41Z</time>
      </trkpt>
      <trkpt lat="44.17219" lon="7.64556">
        <ele>2188</ele>
        <time>2017-09-17T13:47:42Z</time>
      </trkpt>
      <trkpt lat="44.17221" lon="7.6456">
        <ele>2189</ele>
        <time>2017-09-17T13:47:43Z</time>
      </trkpt>
      <trkpt lat="44.17224" lon="7.64563">
        <ele>2189</ele>
        <time>2017-09-17T13:47:44Z</time>
      </trkpt>
      <trkpt lat="44.17227" lon="7.64566">
        <ele>2190</ele>
        <time>2017-09-17T13:47:45Z</time>
      </trkpt>
      <trkpt lat="44.1723" lon="7.64568">
        <ele>2190</ele>
        <time>2017-09-17T13:47:46Z</time>
      </trkpt>
      <trkpt lat="44.17233" lon="7.6457">
        <ele>2191</ele>
        <time>2017-09-17T13:47:47Z</time>
      </trkpt>
      <trkpt lat="44.17236" lon="7.64571">
        <ele>2191</ele>
        <time>2017-09-17T13:47:48Z</time>
      </trkpt>
      <trkpt lat="44.1724" lon="7.64572">
        <ele>2191</ele>
        <time>2017-09-17T13:47:49Z</time>
      </trkpt>
      <trkpt lat="44.17243" lon="7.64574">
        <ele>2192</ele>
        <time>2017-09-17T13:47:50Z</time>
      </trkpt>
      <trkpt lat="44.17245" lon="7.64578">
        <ele>2192</ele>
        <time>2017-09-17T13:47:51Z</time>
      </trkpt>
      <trkpt lat="44.17246" lon="7.64582">
        <ele>2193</ele>
        <time>2017-09-17T13:47:52Z</time>
      </trkpt>
      <trkpt lat="44.17245" lon="7.64587">
        <ele>2193</ele>
        <time>2017-09-17T13:47:53Z</time>
      </trkpt>
      <trkpt lat="44.17243" lon="7.6459">
        <ele>2193</ele>
        <time>2017-09-17T13:47:54Z</time>
      </trkpt>
      <trkpt lat="44.17239" lon="7.64591">
        <ele>2194</ele>
        <time>2017-09-17T13:47:55Z</time>
      </trkpt>
      <trkpt lat="44.17235" lon="7.64591">
        <ele>2194</ele>
        <time>2017-09-17T13:47:56Z</time>
      </trkpt>
      <trkpt lat="44.17232" lon="7.64591">
        <ele>2194</ele>
        <time>2017-09-17T13:47:57Z</time>
      </trkpt>
      <trkpt lat="44.17228" lon="7.64591">
        <ele>2195</ele>
        <time>2017-09-17T13:47:58Z</time>
      </trkpt>
      <trkpt lat="44.17225" lon="7.64592">
        <ele>2195</ele>
        <time>2017-09-17T13:47:59Z</time>
      </trkpt>
      <trkpt lat="44.17221" lon="7.64594">
        <ele>2196</ele>
        <time>2017-09-17T13:48:00Z</time>
      </trkpt>
      <trkpt lat="44.17219" lon="7.64597">
        <ele>2196</ele>
        <time>2017-09-17T13:48:01Z</time>
      </trkpt>
      <trkpt lat="44.17216" lon="7.646">
        <ele>2196</ele>
        <time>2017-09-17T13:48:02Z</time>
      </trkpt>
      <trkpt lat="44.17215" lon="7.64604">
        <ele>2197</ele>
        <time>2017-09-17T13:48:03Z</time>
      </trkpt>
      <trkpt lat="44.17214" lon="7.64609">
        <ele>2197</ele>
        <time>2017-09-17T13:48:04Z</time>
      </trkpt>
      <trkpt lat="44.17213" lon="7.64614">
        <ele>2198</ele>
        <time>2017-09-17T13:48:05Z</time>
      </trkpt>
      <trkpt lat="44.17213" lon="7.64619">
        <ele>2198</ele>
        <time>2017-09-17T13:48:06Z</time>
      </trkpt>
      <trkpt lat="44.17212" lon="7.64623">
        <ele>2199</ele>
        <time>2017-09-17T13:48:07Z</time>
      </trkpt>
      <trkpt lat="44.17211" lon="7.64628">
        <ele>2199</ele>
        <time>2017-09-17T13:48:08Z</time>
      </trkpt>
      <trkpt lat="44.17209" lon="7.64633">
        <ele>2199</ele>
        <time>2017-09-17T13:48:09Z</time>
      </trkpt>
      <trkpt lat="44.17206" lon="7.64637">
        <ele>2200</ele>
        <time>2017-09-17T13:48:10Z</time>
      </trkpt>
      <trkpt lat="44.17204" lon="7.6464">
        <ele>2200</ele>
        <time>2017-09-17T13:48:11Z</time>
      </trkpt>
      <trkpt lat="44.172" lon="7.64642">
        <ele>2201</ele>
        <time>2017-09-17T13:48:12Z</time>
      </trkpt>
      <trkpt lat="44.17197" lon="7.64643">
        <ele>2201</ele>
        <time>2017-09-17T13:48:13Z</time>
      </trkpt>
      <trkpt lat="44.17193" lon="7.64644">
        <ele>2201</ele>
        <time>2017-09-17T13:48:14Z</time>
      </trkpt>
      <trkpt lat="44.17189" lon="7.64643">
        <ele>2201</ele>
        <time>2017-09-17T13:48:15Z</time>
      </trkpt>
      <trkpt lat="44.17185" lon="7.64642">
        <ele>2202</ele>
        <time>2017-09-17T13:48:16Z</time>
      </trkpt>
      <trkpt lat="44.17181" lon="7.64641">
        <ele>2202</ele>
        <time>2017-09-17T13:48:17Z</time>
      </trkpt>
      <trkpt lat="44.17177" lon="7.6464">
        <ele>2202</ele>
        <time>2017-09-17T13:48:18Z</time>
      </trkpt>
      <trkpt lat="44.17173" lon="7.6464">
        <ele>2202</ele>
        <time>2017-09-17T13:48:19Z</time>
      </trkpt>
      <trkpt lat="44.17168" lon="7.64639">
        <ele>2202</ele>
        <time>2017-09-17T13:48:20Z</time>
      </trkpt>
      <trkpt lat="44.17164" lon="7.64639">
        <ele>2203</ele>
        <time>2017-09-17T13:48:21Z</time>
      </trkpt>
      <trkpt lat="44.17159" lon="7.64639">
        <ele>2203</ele>
        <time>2017-09-17T13:48:22Z</time>
      </trkpt>
      <trkpt lat="44.17155" lon="7.6464">
        <ele>2203</ele>
        <time>2017-09-17T13:48:23Z</time>
      </trkpt>
      <trkpt lat="44.17151" lon="7.64641">
        <ele>2203</ele>
        <time>2017-09-17T13:48:24Z</time>
      </trkpt>
      <trkpt lat="44.17147" lon="7.64641">
        <ele>2203</ele>
        <time>2017-09-17T13:48:25Z</time>
      </trkpt>
      <trkpt lat="44.17142" lon="7.64642">
        <ele>2203</ele>
        <time>2017-09-17T13:48:26Z</time>
      </trkpt>
      <trkpt lat="44.17136" lon="7.64643">
        <ele>2203</ele>
        <time>2017-09-17T13:48:27Z</time>
      </trkpt>
      <trkpt lat="44.17131" lon="7.64644">
        <ele>2204</ele>
        <time>2017-09-17T13:48:28Z</time>
      </trkpt>
      <trkpt lat="44.17126" lon="7.64647">
        <ele>2204</ele>
        <time>2017-09-17T13:48:29Z</time>
      </trkpt>
      <trkpt lat="44.17121" lon="7.6465">
        <ele>2204</ele>
        <time>2017-09-17T13:48:30Z</time>
      </trkpt>
      <trkpt lat="44.17117" lon="7.64654">
        <ele>2204</ele>
        <time>2017-09-17T13:48:31Z</time>
      </trkpt>
      <trkpt lat="44.17113" lon="7.64659">
        <ele>2204</ele>
        <time>2017-09-17T13:48:32Z</time>
      </trkpt>
      <trkpt lat="44.1711" lon="7.64665">
        <ele>2204</ele>
        <time>2017-09-17T13:48:33Z</time>
      </trkpt>
      <trkpt lat="44.17108" lon="7.64671">
        <ele>2205</ele>
        <time>2017-09-17T13:48:34Z</time>
      </trkpt>
      <trkpt lat="44.17107" lon="7.64677">
        <ele>2205</ele>
        <time>2017-09-17T13:48:35Z</time>
      </trkpt>
      <trkpt lat="44.17105" lon="7.64684">
        <ele>2205</ele>
        <time>2017-09-17T13:48:36Z</time>
      </trkpt>
      <trkpt lat="44.17102" lon="7.64689">
        <ele>2205</ele>
        <time>2017-09-17T13:48:37Z</time>
      </trkpt>
      <trkpt lat="44.17099" lon="7.64695">
        <ele>2205</ele>
        <time>2017-09-17T13:48:38Z</time>
      </trkpt>
      <trkpt lat="44.17096" lon="7.64699">
        <ele>2206</ele>
        <time>2017-09-17T13:48:39Z</time>
      </trkpt>
      <trkpt lat="44.17093" lon="7.64705">
        <ele>2206</ele>
        <time>2017-09-17T13:48:40Z</time>
      </trkpt>
      <trkpt lat="44.17091" lon="7.64711">
        <ele>2206</ele>
        <time>2017-09-17T13:48:41Z</time>
      </trkpt>
      <trkpt lat="44.1709" lon="7.64718">
        <ele>2207</ele>
        <time>2017-09-17T13:48:42Z</time>
      </trkpt>
      <trkpt lat="44.1709" lon="7.64723">
        <ele>2207</ele>
        <time>2017-09-17T13:48:43Z</time>
      </trkpt>
      <trkpt lat="44.17091" lon="7.64729">
        <ele>2207</ele>
        <time>2017-09-17T13:48:44Z</time>
      </trkpt>
      <trkpt lat="44.17092" lon="7.64734">
        <ele>2208</ele>
        <time>2017-09-17T13:48:45Z</time>
      </trkpt>
      <trkpt lat="44.17093" lon="7.64738">
        <ele>2208</ele>
        <time>2017-09-17T13:48:46Z</time>
      </trkpt>
      <trkpt lat="44.17093" lon="7.64743">
        <ele>2208</ele>
        <time>2017-09-17T13:48:47Z</time>
      </trkpt>
      <trkpt lat="44.17094" lon="7.64747">
        <ele>2209</ele>
        <time>2017-09-17T13:48:48Z</time>
      </trkpt>
      <trkpt lat="44.17094" lon="7.64752">
        <ele>2209</ele>
        <time>2017-09-17T13:48:49Z</time>
      </trkpt>
      <trkpt lat="44.17094" lon="7.64757">
        <ele>2209</ele>
        <time>2017-09-17T13:48:50Z</time>
      </trkpt>
      <trkpt lat="44.17094" lon="7.64762">
        <ele>2210</ele>
        <time>2017-09-17T13:48:51Z</time>
      </trkpt>
      <trkpt lat="44.17094" lon="7.64766">
        <ele>2210</ele>
        <time>2017-09-17T13:48:52Z</time>
      </trkpt>
      <trkpt lat="44.17093" lon="7.64771">
        <ele>2210</ele>
        <time>2017-09-17T13:48:53Z</time>
      </trkpt>
      <trkpt lat="44.17091" lon="7.64775">
        <ele>2211</ele>
        <time>2017-09-17T13:48:54Z</time>
      </trkpt>
      <trkpt lat="44.17089" lon="7.64779">
        <ele>2211</ele>
        <time>2017-09-17T13:48:55Z</time>
      </trkpt>
      <trkpt lat="44.17087" lon="7.64783">
        <ele>2211</ele>
        <time>2017-09-17T13:48:56Z</time>
      </trkpt>
      <trkpt lat="44.17084" lon="7.64786">
        <ele>2212</ele>
        <time>2017-09-17T13:48:57Z</time>
      </trkpt>
      <trkpt lat="44.17082" lon="7.64788">
        <ele>2212</ele>
        <time>2017-09-17T13:48:58Z</time>
      </trkpt>
      <trkpt lat="44.17079" lon="7.64791">
        <ele>2213</ele>
        <time>2017-09-17T13:48:59Z</time>
      </trkpt>
      <trkpt lat="44.17076" lon="7.64793">
        <ele>2214</ele>
        <time>2017-09-17T13:49:00Z</time>
      </trkpt>
      <trkpt lat="44.17073" lon="7.64795">
        <ele>2214</ele>
        <time>2017-09-17T13:49:01Z</time>
      </trkpt>
      <trkpt lat="44.1707" lon="7.64796">
        <ele>2215</ele>
        <time>2017-09-17T13:49:02Z</time>
      </trkpt>
      <trkpt lat="44.17067" lon="7.64797">
        <ele>2215</ele>
        <time>2017-09-17T13:49:03Z</time>
      </trkpt>
      <trkpt lat="44.17064" lon="7.64797">
        <ele>2216</ele>
        <time>2017-09-17T13:49:04Z</time>
      </trkpt>
      <trkpt lat="44.1706" lon="7.64797">
        <ele>2216</ele>
        <time>2017-09-17T13:49:05Z</time>
      </trkpt>
      <trkpt lat="44.17057" lon="7.64797">
        <ele>2217</ele>
        <time>2017-09-17T13:49:06Z</time>
      </trkpt>
      <trkpt lat="44.17053" lon="7.64796">
        <ele>2217</ele>
        <time>2017-09-17T13:49:07Z</time>
      </trkpt>
      <trkpt lat="44.1705" lon="7.64795">
        <ele>2218</ele>
        <time>2017-09-17T13:49:08Z</time>
      </trkpt>
      <trkpt lat="44.17047" lon="7.64795">
        <ele>2218</ele>
        <time>2017-09-17T13:49:09Z</time>
      </trkpt>
      <trkpt lat="44.17044" lon="7.64795">
        <ele>2219</ele>
        <time>2017-09-17T13:49:10Z</time>
      </trkpt>
      <trkpt lat="44.17041" lon="7.64796">
        <ele>2219</ele>
        <time>2017-09-17T13:49:11Z</time>
      </trkpt>
      <trkpt lat="44.17038" lon="7.64796">
        <ele>2220</ele>
        <time>2017-09-17T13:49:12Z</time>
      </trkpt>
      <trkpt lat="44.17034" lon="7.64796">
        <ele>2220</ele>
        <time>2017-09-17T13:49:13Z</time>
      </trkpt>
      <trkpt lat="44.17031" lon="7.64794">
        <ele>2220</ele>
        <time>2017-09-17T13:49:14Z</time>
      </trkpt>
      <trkpt lat="44.17029" lon="7.64792">
        <ele>2221</ele>
        <time>2017-09-17T13:49:15Z</time>
      </trkpt>
      <trkpt lat="44.17026" lon="7.64789">
        <ele>2221</ele>
        <time>2017-09-17T13:49:16Z</time>
      </trkpt>
      <trkpt lat="44.17024" lon="7.64786">
        <ele>2222</ele>
        <time>2017-09-17T13:49:17Z</time>
      </trkpt>
      <trkpt lat="44.17021" lon="7.64782">
        <ele>2222</ele>
        <time>2017-09-17T13:49:18Z</time>
      </trkpt>
      <trkpt lat="44.17019" lon="7.64779">
        <ele>2222</ele>
        <time>2017-09-17T13:49:19Z</time>
      </trkpt>
      <trkpt lat="44.17016" lon="7.64775">
        <ele>2223</ele>
        <time>2017-09-17T13:49:20Z</time>
      </trkpt>
      <trkpt lat="44.17014" lon="7.64772">
        <ele>2223</ele>
        <time>2017-09-17T13:49:21Z</time>
      </trkpt>
      <trkpt lat="44.17012" lon="7.64768">
        <ele>2223</ele>
        <time>2017-09-17T13:49:22Z</time>
      </trkpt>
      <trkpt lat="44.1701" lon="7.64764">
        <ele>2224</ele>
        <time>2017-09-17T13:49:23Z</time>
      </trkpt>
      <trkpt lat="44.17008" lon="7.64762">
        <ele>2224</ele>
        <time>2017-09-17T13:49:24Z</time>
      </trkpt>
      <trkpt lat="44.17005" lon="7.6476">
        <ele>2225</ele>
        <time>2017-09-17T13:49:25Z</time>
      </trkpt>
      <trkpt lat="44.17002" lon="7.64761">
        <ele>2225</ele>
        <time>2017-09-17T13:49:26Z</time>
      </trkpt>
      <trkpt lat="44.16999" lon="7.64763">
        <ele>2225</ele>
        <time>2017-09-17T13:49:27Z</time>
      </trkpt>
      <trkpt lat="44.16998" lon="7.64767">
        <ele>2225</ele>
        <time>2017-09-17T13:49:28Z</time>
      </trkpt>
      <trkpt lat="44.16999" lon="7.64771">
        <ele>2225</ele>
        <time>2017-09-17T13:49:29Z</time>
      </trkpt>
      <trkpt lat="44.17" lon="7.64775">
        <ele>2226</ele>
        <time>2017-09-17T13:49:30Z</time>
      </trkpt>
      <trkpt lat="44.17002" lon="7.64779">
        <ele>2226</ele>
        <time>2017-09-17T13:49:31Z</time>
      </trkpt>
      <trkpt lat="44.17005" lon="7.64783">
        <ele>2226</ele>
        <time>2017-09-17T13:49:32Z</time>
      </trkpt>
      <trkpt lat="44.17007" lon="7.64788">
        <ele>2226</ele>
        <time>2017-09-17T13:49:33Z</time>
      </trkpt>
      <trkpt lat="44.17008" lon="7.64794">
        <ele>2226</ele>
        <time>2017-09-17T13:49:34Z</time>
      </trkpt>
      <trkpt lat="44.17008" lon="7.648">
        <ele>2226</ele>
        <time>2017-09-17T13:49:35Z</time>
      </trkpt>
      <trkpt lat="44.17009" lon="7.64806">
        <ele>2227</ele>
        <time>2017-09-17T13:49:36Z</time>
      </trkpt>
      <trkpt lat="44.17009" lon="7.64813">
        <ele>2227</ele>
        <time>2017-09-17T13:49:37Z</time>
      </trkpt>
      <trkpt lat="44.1701" lon="7.64819">
        <ele>2227</ele>
        <time>2017-09-17T13:49:38Z</time>
      </trkpt>
      <trkpt lat="44.1701" lon="7.64825">
        <ele>2227</ele>
        <time>2017-09-17T13:49:39Z</time>
      </trkpt>
      <trkpt lat="44.1701" lon="7.64831">
        <ele>2228</ele>
        <time>2017-09-17T13:49:40Z</time>
      </trkpt>
      <trkpt lat="44.1701" lon="7.64837">
        <ele>2228</ele>
        <time>2017-09-17T13:49:41Z</time>
      </trkpt>
      <trkpt lat="44.1701" lon="7.64843">
        <ele>2228</ele>
        <time>2017-09-17T13:49:42Z</time>
      </trkpt>
      <trkpt lat="44.17009" lon="7.6485">
        <ele>2228</ele>
        <time>2017-09-17T13:49:43Z</time>
      </trkpt>
      <trkpt lat="44.17009" lon="7.64856">
        <ele>2228</ele>
        <time>2017-09-17T13:49:44Z</time>
      </trkpt>
      <trkpt lat="44.17008" lon="7.64862">
        <ele>2229</ele>
        <time>2017-09-17T13:49:45Z</time>
      </trkpt>
      <trkpt lat="44.17007" lon="7.64868">
        <ele>2229</ele>
        <time>2017-09-17T13:49:46Z</time>
      </trkpt>
      <trkpt lat="44.17007" lon="7.64874">
        <ele>2229</ele>
        <time>2017-09-17T13:49:47Z</time>
      </trkpt>
      <trkpt lat="44.17007" lon="7.6488">
        <ele>2229</ele>
        <time>2017-09-17T13:49:48Z</time>
      </trkpt>
      <trkpt lat="44.17007" lon="7.64886">
        <ele>2229</ele>
        <time>2017-09-17T13:49:49Z</time>
      </trkpt>
      <trkpt lat="44.17007" lon="7.64891">
        <ele>2229</ele>
        <time>2017-09-17T13:49:50Z</time>
      </trkpt>
      <trkpt lat="44.17007" lon="7.64897">
        <ele>2230</ele>
        <time>2017-09-17T13:49:51Z</time>
      </trkpt>
      <trkpt lat="44.17007" lon="7.64903">
        <ele>2229</ele>
        <time>2017-09-17T13:49:52Z</time>
      </trkpt>
      <trkpt lat="44.17007" lon="7.64908">
        <ele>2229</ele>
        <time>2017-09-17T13:49:53Z</time>
      </trkpt>
      <trkpt lat="44.17008" lon="7.64915">
        <ele>2229</ele>
        <time>2017-09-17T13:49:54Z</time>
      </trkpt>
      <trkpt lat="44.17008" lon="7.64921">
        <ele>2229</ele>
        <time>2017-09-17T13:49:55Z</time>
      </trkpt>
      <trkpt lat="44.17009" lon="7.64928">
        <ele>2229</ele>
        <time>2017-09-17T13:49:56Z</time>
      </trkpt>
      <trkpt lat="44.1701" lon="7.64935">
        <ele>2228</ele>
        <time>2017-09-17T13:49:57Z</time>
      </trkpt>
      <trkpt lat="44.17012" lon="7.64943">
        <ele>2228</ele>
        <time>2017-09-17T13:49:58Z</time>
      </trkpt>
      <trkpt lat="44.17013" lon="7.64951">
        <ele>2227</ele>
        <time>2017-09-17T13:49:59Z</time>
      </trkpt>
      <trkpt lat="44.17015" lon="7.64959">
        <ele>2227</ele>
        <time>2017-09-17T13:50:00Z</time>
      </trkpt>
      <trkpt lat="44.17015" lon="7.64966">
        <ele>2226</ele>
        <time>2017-09-17T13:50:01Z</time>
      </trkpt>
      <trkpt lat="44.17014" lon="7.64975">
        <ele>2226</ele>
        <time>2017-09-17T13:50:02Z</time>
      </trkpt>
      <trkpt lat="44.17012" lon="7.64983">
        <ele>2225</ele>
        <time>2017-09-17T13:50:03Z</time>
      </trkpt>
      <trkpt lat="44.17009" lon="7.64991">
        <ele>2224</ele>
        <time>2017-09-17T13:50:04Z</time>
      </trkpt>
      <trkpt lat="44.17005" lon="7.64999">
        <ele>2224</ele>
        <time>2017-09-17T13:50:05Z</time>
      </trkpt>
      <trkpt lat="44.17001" lon="7.65006">
        <ele>2223</ele>
        <time>2017-09-17T13:50:06Z</time>
      </trkpt>
      <trkpt lat="44.16997" lon="7.65014">
        <ele>2222</ele>
        <time>2017-09-17T13:50:07Z</time>
      </trkpt>
      <trkpt lat="44.16992" lon="7.65022">
        <ele>2221</ele>
        <time>2017-09-17T13:50:08Z</time>
      </trkpt>
      <trkpt lat="44.16988" lon="7.6503">
        <ele>2221</ele>
        <time>2017-09-17T13:50:09Z</time>
      </trkpt>
      <trkpt lat="44.16984" lon="7.6504">
        <ele>2220</ele>
        <time>2017-09-17T13:50:10Z</time>
      </trkpt>
      <trkpt lat="44.1698" lon="7.6505">
        <ele>2219</ele>
        <time>2017-09-17T13:50:11Z</time>
      </trkpt>
      <trkpt lat="44.16977" lon="7.6506">
        <ele>2218</ele>
        <time>2017-09-17T13:50:12Z</time>
      </trkpt>
      <trkpt lat="44.16973" lon="7.6507">
        <ele>2217</ele>
        <time>2017-09-17T13:50:13Z</time>
      </trkpt>
      <trkpt lat="44.1697" lon="7.65081">
        <ele>2216</ele>
        <time>2017-09-17T13:50:14Z</time>
      </trkpt>
      <trkpt lat="44.16967" lon="7.65093">
        <ele>2215</ele>
        <time>2017-09-17T13:50:15Z</time>
      </trkpt>
      <trkpt lat="44.16964" lon="7.65106">
        <ele>2214</ele>
        <time>2017-09-17T13:50:16Z</time>
      </trkpt>
      <trkpt lat="44.16963" lon="7.65119">
        <ele>2214</ele>
        <time>2017-09-17T13:50:17Z</time>
      </trkpt>
      <trkpt lat="44.16963" lon="7.65133">
        <ele>2213</ele>
        <time>2017-09-17T13:50:18Z</time>
      </trkpt>
      <trkpt lat="44.16963" lon="7.65145">
        <ele>2213</ele>
        <time>2017-09-17T13:50:19Z</time>
      </trkpt>
      <trkpt lat="44.16964" lon="7.65157">
        <ele>2212</ele>
        <time>2017-09-17T13:50:20Z</time>
      </trkpt>
      <trkpt lat="44.16965" lon="7.65168">
        <ele>2212</ele>
        <time>2017-09-17T13:50:21Z</time>
      </trkpt>
      <trkpt lat="44.16967" lon="7.65179">
        <ele>2212</ele>
        <time>2017-09-17T13:50:22Z</time>
      </trkpt>
      <trkpt lat="44.16967" lon="7.6519">
        <ele>2212</ele>
        <time>2017-09-17T13:50:23Z</time>
      </trkpt>
      <trkpt lat="44.16969" lon="7.652">
        <ele>2212</ele>
        <time>2017-09-17T13:50:24Z</time>
      </trkpt>
      <trkpt lat="44.1697" lon="7.65209">
        <ele>2212</ele>
        <time>2017-09-17T13:50:25Z</time>
      </trkpt>
      <trkpt lat="44.16972" lon="7.65218">
        <ele>2212</ele>
        <time>2017-09-17T13:50:26Z</time>
      </trkpt>
      <trkpt lat="44.16975" lon="7.65226">
        <ele>2213</ele>
        <time>2017-09-17T13:50:27Z</time>
      </trkpt>
      <trkpt lat="44.16978" lon="7.65233">
        <ele>2213</ele>
        <time>2017-09-17T13:50:28Z</time>
      </trkpt>
      <trkpt lat="44.16981" lon="7.6524">
        <ele>2213</ele>
        <time>2017-09-17T13:50:29Z</time>
      </trkpt>
      <trkpt lat="44.16984" lon="7.65247">
        <ele>2213</ele>
        <time>2017-09-17T13:50:30Z</time>
      </trkpt>
      <trkpt lat="44.16987" lon="7.65253">
        <ele>2213</ele>
        <time>2017-09-17T13:50:31Z</time>
      </trkpt>
      <trkpt lat="44.16989" lon="7.6526">
        <ele>2213</ele>
        <time>2017-09-17T13:50:32Z</time>
      </trkpt>
      <trkpt lat="44.16993" lon="7.65266">
        <ele>2214</ele>
        <time>2017-09-17T13:50:33Z</time>
      </trkpt>
      <trkpt lat="44.16996" lon="7.65271">
        <ele>2214</ele>
        <time>2017-09-17T13:50:34Z</time>
      </trkpt>
      <trkpt lat="44.17" lon="7.65276">
        <ele>2214</ele>
        <time>2017-09-17T13:50:35Z</time>
      </trkpt>
      <trkpt lat="44.17003" lon="7.6528">
        <ele>2214</ele>
        <time>2017-09-17T13:50:36Z</time>
      </trkpt>
      <trkpt lat="44.17007" lon="7.65285">
        <ele>2214</ele>
        <time>2017-09-17T13:50:37Z</time>
      </trkpt>
      <trkpt lat="44.17011" lon="7.6529">
        <ele>2214</ele>
        <time>2017-09-17T13:50:38Z</time>
      </trkpt>
      <trkpt lat="44.17015" lon="7.65294">
        <ele>2215</ele>
        <time>2017-09-17T13:50:39Z</time>
      </trkpt>
      <trkpt lat="44.17019" lon="7.65298">
        <ele>2215</ele>
        <time>2017-09-17T13:50:40Z</time>
      </trkpt>
      <trkpt lat="44.17023" lon="7.65301">
        <ele>2215</ele>
        <time>2017-09-17T13:50:41Z</time>
      </trkpt>
      <trkpt lat="44.17027" lon="7.65306">
        <ele>2215</ele>
        <time>2017-09-17T13:50:42Z</time>
      </trkpt>
      <trkpt lat="44.1703" lon="7.6531">
        <ele>2215</ele>
        <time>2017-09-17T13:50:43Z</time>
      </trkpt>
      <trkpt lat="44.17033" lon="7.65316">
        <ele>2215</ele>
        <time>2017-09-17T13:50:44Z</time>
      </trkpt>
      <trkpt lat="44.17036" lon="7.65321">
        <ele>2216</ele>
        <time>2017-09-17T13:50:45Z</time>
      </trkpt>
      <trkpt lat="44.1704" lon="7.65325">
        <ele>2216</ele>
        <time>2017-09-17T13:50:46Z</time>
      </trkpt>
      <trkpt lat="44.17044" lon="7.65328">
        <ele>2216</ele>
        <time>2017-09-17T13:50:47Z</time>
      </trkpt>
      <trkpt lat="44.17049" lon="7.6533">
        <ele>2216</ele>
        <time>2017-09-17T13:50:48Z</time>
      </trkpt>
      <trkpt lat="44.17054" lon="7.65331">
        <ele>2216</ele>
        <time>2017-09-17T13:50:49Z</time>
      </trkpt>
      <trkpt lat="44.17059" lon="7.65333">
        <ele>2216</ele>
        <time>2017-09-17T13:50:50Z</time>
      </trkpt>
      <trkpt lat="44.17063" lon="7.65337">
        <ele>2216</ele>
        <time>2017-09-17T13:50:51Z</time>
      </trkpt>
      <trkpt lat="44.17066" lon="7.65342">
        <ele>2216</ele>
        <time>2017-09-17T13:50:52Z</time>
      </trkpt>
      <trkpt lat="44.17068" lon="7.65349">
        <ele>2216</ele>
        <time>2017-09-17T13:50:53Z</time>
      </trkpt>
      <trkpt lat="44.17069" lon="7.65355">
        <ele>2216</ele>
        <time>2017-09-17T13:50:54Z</time>
      </trkpt>
      <trkpt lat="44.17069" lon="7.65362">
        <ele>2216</ele>
        <time>2017-09-17T13:50:55Z</time>
      </trkpt>
      <trkpt lat="44.17068" lon="7.65369">
        <ele>2216</ele>
        <time>2017-09-17T13:50:56Z</time>
      </trkpt>
      <trkpt lat="44.17066" lon="7.65375">
        <ele>2216</ele>
        <time>2017-09-17T13:50:57Z</time>
      </trkpt>
      <trkpt lat="44.17062" lon="7.6538">
        <ele>2216</ele>
        <time>2017-09-17T13:50:58Z</time>
      </trkpt>
      <trkpt lat="44.17058" lon="7.65383">
        <ele>2217</ele>
        <time>2017-09-17T13:50:59Z</time>
      </trkpt>
      <trkpt lat="44.17053" lon="7.65385">
        <ele>2217</ele>
        <time>2017-09-17T13:51:00Z</time>
      </trkpt>
      <trkpt lat="44.17048" lon="7.65385">
        <ele>2217</ele>
        <time>2017-09-17T13:51:01Z</time>
      </trkpt>
      <trkpt lat="44.17043" lon="7.65383">
        <ele>2217</ele>
        <time>2017-09-17T13:51:02Z</time>
      </trkpt>
      <trkpt lat="44.17039" lon="7.6538">
        <ele>2217</ele>
        <time>2017-09-17T13:51:03Z</time>
      </trkpt>
      <trkpt lat="44.17033" lon="7.65378">
        <ele>2217</ele>
        <time>2017-09-17T13:51:04Z</time>
      </trkpt>
      <trkpt lat="44.17028" lon="7.65378">
        <ele>2217</ele>
        <time>2017-09-17T13:51:05Z</time>
      </trkpt>
      <trkpt lat="44.17023" lon="7.65379">
        <ele>2217</ele>
        <time>2017-09-17T13:51:06Z</time>
      </trkpt>
      <trkpt lat="44.17017" lon="7.6538">
        <ele>2217</ele>
        <time>2017-09-17T13:51:07Z</time>
      </trkpt>
      <trkpt lat="44.17012" lon="7.65383">
        <ele>2217</ele>
        <time>2017-09-17T13:51:08Z</time>
      </trkpt>
      <trkpt lat="44.17007" lon="7.65386">
        <ele>2217</ele>
        <time>2017-09-17T13:51:09Z</time>
      </trkpt>
      <trkpt lat="44.17003" lon="7.6539">
        <ele>2217</ele>
        <time>2017-09-17T13:51:10Z</time>
      </trkpt>
      <trkpt lat="44.16999" lon="7.65395">
        <ele>2217</ele>
        <time>2017-09-17T13:51:11Z</time>
      </trkpt>
      <trkpt lat="44.16995" lon="7.65399">
        <ele>2217</ele>
        <time>2017-09-17T13:51:12Z</time>
      </trkpt>
      <trkpt lat="44.1699" lon="7.65401">
        <ele>2217</ele>
        <time>2017-09-17T13:51:13Z</time>
      </trkpt>
      <trkpt lat="44.16985" lon="7.65403">
        <ele>2217</ele>
        <time>2017-09-17T13:51:14Z</time>
      </trkpt>
      <trkpt lat="44.16981" lon="7.65406">
        <ele>2217</ele>
        <time>2017-09-17T13:51:15Z</time>
      </trkpt>
      <trkpt lat="44.16977" lon="7.65411">
        <ele>2217</ele>
        <time>2017-09-17T13:51:16Z</time>
      </trkpt>
      <trkpt lat="44.16974" lon="7.65417">
        <ele>2216</ele>
        <time>2017-09-17T13:51:17Z</time>
      </trkpt>
      <trkpt lat="44.16971" lon="7.65425">
        <ele>2216</ele>
        <time>2017-09-17T13:51:18Z</time>
      </trkpt>
      <trkpt lat="44.16971" lon="7.65433">
        <ele>2216</ele>
        <time>2017-09-17T13:51:19Z</time>
      </trkpt>
      <trkpt lat="44.16971" lon="7.65442">
        <ele>2215</ele>
        <time>2017-09-17T13:51:20Z</time>
      </trkpt>
      <trkpt lat="44.16972" lon="7.65452">
        <ele>2215</ele>
        <time>2017-09-17T13:51:21Z</time>
      </trkpt>
      <trkpt lat="44.16973" lon="7.65461">
        <ele>2214</ele>
        <time>2017-09-17T13:51:22Z</time>
      </trkpt>
      <trkpt lat="44.16973" lon="7.65471">
        <ele>2214</ele>
        <time>2017-09-17T13:51:23Z</time>
      </trkpt>
      <trkpt lat="44.16972" lon="7.65481">
        <ele>2213</ele>
        <time>2017-09-17T13:51:24Z</time>
      </trkpt>
      <trkpt lat="44.16971" lon="7.65491">
        <ele>2213</ele>
        <time>2017-09-17T13:51:25Z</time>
      </trkpt>
      <trkpt lat="44.16969" lon="7.65501">
        <ele>2212</ele>
        <time>2017-09-17T13:51:26Z</time>
      </trkpt>
      <trkpt lat="44.16967" lon="7.6551">
        <ele>2211</ele>
        <time>2017-09-17T13:51:27Z</time>
      </trkpt>
      <trkpt lat="44.16965" lon="7.65518">
        <ele>2211</ele>
        <time>2017-09-17T13:51:28Z</time>
      </trkpt>
      <trkpt lat="44.16962" lon="7.65525">
        <ele>2210</ele>
        <time>2017-09-17T13:51:29Z</time>
      </trkpt>
      <trkpt lat="44.16959" lon="7.65531">
        <ele>2210</ele>
        <time>2017-09-17T13:51:30Z</time>
      </trkpt>
      <trkpt lat="44.16955" lon="7.65537">
        <ele>2209</ele>
        <time>2017-09-17T13:51:31Z</time>
      </trkpt>
      <trkpt lat="44.16952" lon="7.65544">
        <ele>2209</ele>
        <time>2017-09-17T13:51:32Z</time>
      </trkpt>
      <trkpt lat="44.1695" lon="7.65551">
        <ele>2209</ele>
        <time>2017-09-17T13:51:33Z</time>
      </trkpt>
      <trkpt lat="44.16948" lon="7.65559">
        <ele>2208</ele>
        <time>2017-09-17T13:51:34Z</time>
      </trkpt>
      <trkpt lat="44.16946" lon="7.65568">
        <ele>2208</ele>
        <time>2017-09-17T13:51:35Z</time>
      </trkpt>
      <trkpt lat="44.16944" lon="7.65576">
        <ele>2208</ele>
        <time>2017-09-17T13:51:36Z</time>
      </trkpt>
      <trkpt lat="44.16942" lon="7.65583">
        <ele>2207</ele>
        <time>2017-09-17T13:51:37Z</time>
      </trkpt>
      <trkpt lat="44.16939" lon="7.65589">
        <ele>2207</ele>
        <time>2017-09-17T13:51:38Z</time>
      </trkpt>
      <trkpt lat="44.16935" lon="7.65594">
        <ele>2206</ele>
        <time>2017-09-17T13:51:39Z</time>
      </trkpt>
      <trkpt lat="44.1693" lon="7.65597">
        <ele>2205</ele>
        <time>2017-09-17T13:51:40Z</time>
      </trkpt>
      <trkpt lat="44.16924" lon="7.65598">
        <ele>2204</ele>
        <time>2017-09-17T13:51:41Z</time>
      </trkpt>
      <trkpt lat="44.16917" lon="7.65598">
        <ele>2204</ele>
        <time>2017-09-17T13:51:42Z</time>
      </trkpt>
      <trkpt lat="44.16911" lon="7.656">
        <ele>2203</ele>
        <time>2017-09-17T13:51:43Z</time>
      </trkpt>
      <trkpt lat="44.16905" lon="7.65604">
        <ele>2202</ele>
        <time>2017-09-17T13:51:44Z</time>
      </trkpt>
      <trkpt lat="44.16899" lon="7.65608">
        <ele>2201</ele>
        <time>2017-09-17T13:51:45Z</time>
      </trkpt>
      <trkpt lat="44.16894" lon="7.65611">
        <ele>2200</ele>
        <time>2017-09-17T13:51:46Z</time>
      </trkpt>
      <trkpt lat="44.16888" lon="7.65613">
        <ele>2200</ele>
        <time>2017-09-17T13:51:47Z</time>
      </trkpt>
      <trkpt lat="44.16884" lon="7.65616">
        <ele>2199</ele>
        <time>2017-09-17T13:51:48Z</time>
      </trkpt>
      <trkpt lat="44.16881" lon="7.65621">
        <ele>2199</ele>
        <time>2017-09-17T13:51:49Z</time>
      </trkpt>
      <trkpt lat="44.16881" lon="7.65626">
        <ele>2199</ele>
        <time>2017-09-17T13:51:50Z</time>
      </trkpt>
      <trkpt lat="44.16882" lon="7.65631">
        <ele>2198</ele>
        <time>2017-09-17T13:51:51Z</time>
      </trkpt>
      <trkpt lat="44.16885" lon="7.65633">
        <ele>2198</ele>
        <time>2017-09-17T13:51:52Z</time>
      </trkpt>
      <trkpt lat="44.16889" lon="7.65633">
        <ele>2198</ele>
        <time>2017-09-17T13:51:53Z</time>
      </trkpt>
      <trkpt lat="44.16893" lon="7.65631">
        <ele>2198</ele>
        <time>2017-09-17T13:51:54Z</time>
      </trkpt>
      <trkpt lat="44.16897" lon="7.65627">
        <ele>2197</ele>
        <time>2017-09-17T13:51:55Z</time>
      </trkpt>
      <trkpt lat="44.169" lon="7.65623">
        <ele>2197</ele>
        <time>2017-09-17T13:51:56Z</time>
      </trkpt>
      <trkpt lat="44.16905" lon="7.65619">
        <ele>2196</ele>
        <time>2017-09-17T13:51:57Z</time>
      </trkpt>
      <trkpt lat="44.1691" lon="7.65617">
        <ele>2196</ele>
        <time>2017-09-17T13:51:58Z</time>
      </trkpt>
      <trkpt lat="44.16915" lon="7.65617">
        <ele>2195</ele>
        <time>2017-09-17T13:51:59Z</time>
      </trkpt>
      <trkpt lat="44.16921" lon="7.65618">
        <ele>2195</ele>
        <time>2017-09-17T13:52:00Z</time>
      </trkpt>
      <trkpt lat="44.16926" lon="7.65618">
        <ele>2194</ele>
        <time>2017-09-17T13:52:01Z</time>
      </trkpt>
      <trkpt lat="44.16932" lon="7.65616">
        <ele>2194</ele>
        <time>2017-09-17T13:52:02Z</time>
      </trkpt>
      <trkpt lat="44.16937" lon="7.65612">
        <ele>2193</ele>
        <time>2017-09-17T13:52:03Z</time>
      </trkpt>
      <trkpt lat="44.16942" lon="7.65606">
        <ele>2193</ele>
        <time>2017-09-17T13:52:04Z</time>
      </trkpt>
      <trkpt lat="44.16948" lon="7.65601">
        <ele>2192</ele>
        <time>2017-09-17T13:52:05Z</time>
      </trkpt>
      <trkpt lat="44.16954" lon="7.65595">
        <ele>2191</ele>
        <time>2017-09-17T13:52:06Z</time>
      </trkpt>
      <trkpt lat="44.1696" lon="7.65587">
        <ele>2190</ele>
        <time>2017-09-17T13:52:07Z</time>
      </trkpt>
      <trkpt lat="44.16965" lon="7.6558">
        <ele>2189</ele>
        <time>2017-09-17T13:52:08Z</time>
      </trkpt>
      <trkpt lat="44.16972" lon="7.65574">
        <ele>2188</ele>
        <time>2017-09-17T13:52:09Z</time>
      </trkpt>
      <trkpt lat="44.16979" lon="7.65568">
        <ele>2187</ele>
        <time>2017-09-17T13:52:10Z</time>
      </trkpt>
      <trkpt lat="44.16987" lon="7.65564">
        <ele>2186</ele>
        <time>2017-09-17T13:52:11Z</time>
      </trkpt>
      <trkpt lat="44.16994" lon="7.6556">
        <ele>2186</ele>
        <time>2017-09-17T13:52:12Z</time>
      </trkpt>
      <trkpt lat="44.17002" lon="7.65557">
        <ele>2185</ele>
        <time>2017-09-17T13:52:13Z</time>
      </trkpt>
      <trkpt lat="44.17009" lon="7.65558">
        <ele>2184</ele>
        <time>2017-09-17T13:52:14Z</time>
      </trkpt>
      <trkpt lat="44.17015" lon="7.65558">
        <ele>2183</ele>
        <time>2017-09-17T13:52:15Z</time>
      </trkpt>
      <trkpt lat="44.17021" lon="7.65555">
        <ele>2183</ele>
        <time>2017-09-17T13:52:16Z</time>
      </trkpt>
      <trkpt lat="44.17027" lon="7.65549">
        <ele>2182</ele>
        <time>2017-09-17T13:52:17Z</time>
      </trkpt>
      <trkpt lat="44.17031" lon="7.65542">
        <ele>2181</ele>
        <time>2017-09-17T13:52:18Z</time>
      </trkpt>
      <trkpt lat="44.17037" lon="7.65536">
        <ele>2181</ele>
        <time>2017-09-17T13:52:19Z</time>
      </trkpt>
      <trkpt lat="44.17044" lon="7.65533">
        <ele>2180</ele>
        <time>2017-09-17T13:52:20Z</time>
      </trkpt>
      <trkpt lat="44.17052" lon="7.65533">
        <ele>2179</ele>
        <time>2017-09-17T13:52:21Z</time>
      </trkpt>
      <trkpt lat="44.17058" lon="7.65538">
        <ele>2179</ele>
        <time>2017-09-17T13:52:22Z</time>
      </trkpt>
      <trkpt lat="44.17064" lon="7.65545">
        <ele>2178</ele>
        <time>2017-09-17T13:52:23Z</time>
      </trkpt>
      <trkpt lat="44.1707" lon="7.65552">
        <ele>2178</ele>
        <time>2017-09-17T13:52:24Z</time>
      </trkpt>
      <trkpt lat="44.17075" lon="7.65559">
        <ele>2177</ele>
        <time>2017-09-17T13:52:25Z</time>
      </trkpt>
      <trkpt lat="44.1708" lon="7.65568">
        <ele>2176</ele>
        <time>2017-09-17T13:52:26Z</time>
      </trkpt>
      <trkpt lat="44.17084" lon="7.65577">
        <ele>2176</ele>
        <time>2017-09-17T13:52:27Z</time>
      </trkpt>
      <trkpt lat="44.1709" lon="7.65583">
        <ele>2175</ele>
        <time>2017-09-17T13:52:28Z</time>
      </trkpt>
      <trkpt lat="44.17097" lon="7.65587">
        <ele>2175</ele>
        <time>2017-09-17T13:52:29Z</time>
      </trkpt>
      <trkpt lat="44.17105" lon="7.65588">
        <ele>2174</ele>
        <time>2017-09-17T13:52:30Z</time>
      </trkpt>
      <trkpt lat="44.17112" lon="7.65589">
        <ele>2174</ele>
        <time>2017-09-17T13:52:31Z</time>
      </trkpt>
      <trkpt lat="44.17118" lon="7.65591">
        <ele>2173</ele>
        <time>2017-09-17T13:52:32Z</time>
      </trkpt>
      <trkpt lat="44.17123" lon="7.65595">
        <ele>2173</ele>
        <time>2017-09-17T13:52:33Z</time>
      </trkpt>
      <trkpt lat="44.17125" lon="7.65601">
        <ele>2173</ele>
        <time>2017-09-17T13:52:34Z</time>
      </trkpt>
      <trkpt lat="44.17124" lon="7.65607">
        <ele>2172</ele>
        <time>2017-09-17T13:52:35Z</time>
      </trkpt>
      <trkpt lat="44.17121" lon="7.65612">
        <ele>2172</ele>
        <time>2017-09-17T13:52:36Z</time>
      </trkpt>
      <trkpt lat="44.17116" lon="7.65615">
        <ele>2172</ele>
        <time>2017-09-17T13:52:37Z</time>
      </trkpt>
      <trkpt lat="44.17111" lon="7.65615">
        <ele>2172</ele>
        <time>2017-09-17T13:52:38Z</time>
      </trkpt>
      <trkpt lat="44.17106" lon="7.65612">
        <ele>2171</ele>
        <time>2017-09-17T13:52:39Z</time>
      </trkpt>
      <trkpt lat="44.17101" lon="7.6561">
        <ele>2171</ele>
        <time>2017-09-17T13:52:40Z</time>
      </trkpt>
      <trkpt lat="44.17095" lon="7.65609">
        <ele>2171</ele>
        <time>2017-09-17T13:52:41Z</time>
      </trkpt>
      <trkpt lat="44.17088" lon="7.6561">
        <ele>2170</ele>
        <time>2017-09-17T13:52:42Z</time>
      </trkpt>
      <trkpt lat="44.17081" lon="7.65611">
        <ele>2170</ele>
        <time>2017-09-17T13:52:43Z</time>
      </trkpt>
      <trkpt lat="44.17075" lon="7.65613">
        <ele>2169</ele>
        <time>2017-09-17T13:52:44Z</time>
      </trkpt>
      <trkpt lat="44.1707" lon="7.65616">
        <ele>2169</ele>
        <time>2017-09-17T13:52:45Z</time>
      </trkpt>
      <trkpt lat="44.17065" lon="7.65621">
        <ele>2168</ele>
        <time>2017-09-17T13:52:46Z</time>
      </trkpt>
      <trkpt lat="44.17062" lon="7.65627">
        <ele>2168</ele>
        <time>2017-09-17T13:52:47Z</time>
      </trkpt>
      <trkpt lat="44.17058" lon="7.65635">
        <ele>2167</ele>
        <time>2017-09-17T13:52:48Z</time>
      </trkpt>
      <trkpt lat="44.17054" lon="7.65642">
        <ele>2167</ele>
        <time>2017-09-17T13:52:49Z</time>
      </trkpt>
      <trkpt lat="44.17049" lon="7.65648">
        <ele>2166</ele>
        <time>2017-09-17T13:52:50Z</time>
      </trkpt>
      <trkpt lat="44.17043" lon="7.65653">
        <ele>2165</ele>
        <time>2017-09-17T13:52:51Z</time>
      </trkpt>
      <trkpt lat="44.17037" lon="7.65657">
        <ele>2165</ele>
        <time>2017-09-17T13:52:52Z</time>
      </trkpt>
      <trkpt lat="44.17029" lon="7.65661">
        <ele>2164</ele>
        <time>2017-09-17T13:52:53Z</time>
      </trkpt>
      <trkpt lat="44.17022" lon="7.65665">
        <ele>2163</ele>
        <time>2017-09-17T13:52:54Z</time>
      </trkpt>
      <trkpt lat="44.17016" lon="7.6567">
        <ele>2162</ele>
        <time>2017-09-17T13:52:55Z</time>
      </trkpt>
      <trkpt lat="44.1701" lon="7.65675">
        <ele>2161</ele>
        <time>2017-09-17T13:52:56Z</time>
      </trkpt>
      <trkpt lat="44.17005" lon="7.65681">
        <ele>2160</ele>
        <time>2017-09-17T13:52:57Z</time>
      </trkpt>
      <trkpt lat="44.17001" lon="7.65688">
        <ele>2159</ele>
        <time>2017-09-17T13:52:58Z</time>
      </trkpt>
      <trkpt lat="44.16999" lon="7.65696">
        <ele>2158</ele>
        <time>2017-09-17T13:52:59Z</time>
      </trkpt>
      <trkpt lat="44.16998" lon="7.65706">
        <ele>2157</ele>
        <time>2017-09-17T13:53:00Z</time>
      </trkpt>
      <trkpt lat="44.16997" lon="7.65717">
        <ele>2156</ele>
        <time>2017-09-17T13:53:01Z</time>
      </trkpt>
      <trkpt lat="44.16997" lon="7.65728">
        <ele>2155</ele>
        <time>2017-09-17T13:53:02Z</time>
      </trkpt>
      <trkpt lat="44.16996" lon="7.65741">
        <ele>2153</ele>
        <time>2017-09-17T13:53:03Z</time>
      </trkpt>
      <trkpt lat="44.16995" lon="7.65753">
        <ele>2151</ele>
        <time>2017-09-17T13:53:04Z</time>
      </trkpt>
      <trkpt lat="44.16993" lon="7.65766">
        <ele>2150</ele>
        <time>2017-09-17T13:53:05Z</time>
      </trkpt>
      <trkpt lat="44.1699" lon="7.65779">
        <ele>2148</ele>
        <time>2017-09-17T13:53:06Z</time>
      </trkpt>
      <trkpt lat="44.16987" lon="7.65792">
        <ele>2146</ele>
        <time>2017-09-17T13:53:07Z</time>
      </trkpt>
      <trkpt lat="44.16985" lon="7.65805">
        <ele>2145</ele>
        <time>2017-09-17T13:53:08Z</time>
      </trkpt>
      <trkpt lat="44.16983" lon="7.65818">
        <ele>2143</ele>
        <time>2017-09-17T13:53:09Z</time>
      </trkpt>
      <trkpt lat="44.16982" lon="7.65831">
        <ele>2142</ele>
        <time>2017-09-17T13:53:10Z</time>
      </trkpt>
      <trkpt lat="44.1698" lon="7.65843">
        <ele>2141</ele>
        <time>2017-09-17T13:53:11Z</time>
      </trkpt>
      <trkpt lat="44.16977" lon="7.65856">
        <ele>2140</ele>
        <time>2017-09-17T13:53:12Z</time>
      </trkpt>
      <trkpt lat="44.16975" lon="7.65868">
        <ele>2139</ele>
        <time>2017-09-17T13:53:13Z</time>
      </trkpt>
      <trkpt lat="44.16972" lon="7.65881">
        <ele>2138</ele>
        <time>2017-09-17T13:53:14Z</time>
      </trkpt>
      <trkpt lat="44.1697" lon="7.65893">
        <ele>2137</ele>
        <time>2017-09-17T13:53:15Z</time>
      </trkpt>
      <trkpt lat="44.16966" lon="7.65904">
        <ele>2136</ele>
        <time>2017-09-17T13:53:16Z</time>
      </trkpt>
      <trkpt lat="44.16962" lon="7.65915">
        <ele>2135</ele>
        <time>2017-09-17T13:53:17Z</time>
      </trkpt>
      <trkpt lat="44.16956" lon="7.65924">
        <ele>2134</ele>
        <time>2017-09-17T13:53:18Z</time>
      </trkpt>
      <trkpt lat="44.16949" lon="7.65932">
        <ele>2133</ele>
        <time>2017-09-17T13:53:19Z</time>
      </trkpt>
      <trkpt lat="44.16942" lon="7.6594">
        <ele>2132</ele>
        <time>2017-09-17T13:53:20Z</time>
      </trkpt>
      <trkpt lat="44.16934" lon="7.65948">
        <ele>2131</ele>
        <time>2017-09-17T13:53:21Z</time>
      </trkpt>
      <trkpt lat="44.16928" lon="7.65956">
        <ele>2130</ele>
        <time>2017-09-17T13:53:22Z</time>
      </trkpt>
      <trkpt lat="44.16923" lon="7.65966">
        <ele>2129</ele>
        <time>2017-09-17T13:53:23Z</time>
      </trkpt>
      <trkpt lat="44.1692" lon="7.65977">
        <ele>2128</ele>
        <time>2017-09-17T13:53:24Z</time>
      </trkpt>
      <trkpt lat="44.16919" lon="7.65989">
        <ele>2128</ele>
        <time>2017-09-17T13:53:25Z</time>
      </trkpt>
      <trkpt lat="44.16916" lon="7.66">
        <ele>2127</ele>
        <time>2017-09-17T13:53:26Z</time>
      </trkpt>
      <trkpt lat="44.16913" lon="7.6601">
        <ele>2126</ele>
        <time>2017-09-17T13:53:27Z</time>
      </trkpt>
      <trkpt lat="44.16909" lon="7.66021">
        <ele>2126</ele>
        <time>2017-09-17T13:53:28Z</time>
      </trkpt>
      <trkpt lat="44.16905" lon="7.66032">
        <ele>2125</ele>
        <time>2017-09-17T13:53:29Z</time>
      </trkpt>
      <trkpt lat="44.16904" lon="7.66043">
        <ele>2125</ele>
        <time>2017-09-17T13:53:30Z</time>
      </trkpt>
      <trkpt lat="44.16904" lon="7.66055">
        <ele>2124</ele>
        <time>2017-09-17T13:53:31Z</time>
      </trkpt>
      <trkpt lat="44.16906" lon="7.66066">
        <ele>2124</ele>
        <time>2017-09-17T13:53:32Z</time>
      </trkpt>
      <trkpt lat="44.16909" lon="7.66077">
        <ele>2123</ele>
        <time>2017-09-17T13:53:33Z</time>
      </trkpt>
      <trkpt lat="44.16913" lon="7.66087">
        <ele>2123</ele>
        <time>2017-09-17T13:53:34Z</time>
      </trkpt>
      <trkpt lat="44.16918" lon="7.66096">
        <ele>2122</ele>
        <time>2017-09-17T13:53:35Z</time>
      </trkpt>
      <trkpt lat="44.16924" lon="7.66103">
        <ele>2122</ele>
        <time>2017-09-17T13:53:36Z</time>
      </trkpt>
      <trkpt lat="44.1693" lon="7.66111">
        <ele>2122</ele>
        <time>2017-09-17T13:53:37Z</time>
      </trkpt>
      <trkpt lat="44.16936" lon="7.66119">
        <ele>2121</ele>
        <time>2017-09-17T13:53:38Z</time>
      </trkpt>
      <trkpt lat="44.16942" lon="7.66125">
        <ele>2121</ele>
        <time>2017-09-17T13:53:39Z</time>
      </trkpt>
      <trkpt lat="44.16949" lon="7.66131">
        <ele>2121</ele>
        <time>2017-09-17T13:53:40Z</time>
      </trkpt>
      <trkpt lat="44.16955" lon="7.66136">
        <ele>2121</ele>
        <time>2017-09-17T13:53:41Z</time>
      </trkpt>
      <trkpt lat="44.16961" lon="7.6614">
        <ele>2120</ele>
        <time>2017-09-17T13:53:42Z</time>
      </trkpt>
      <trkpt lat="44.16966" lon="7.66144">
        <ele>2120</ele>
        <time>2017-09-17T13:53:43Z</time>
      </trkpt>
      <trkpt lat="44.16971" lon="7.66148">
        <ele>2120</ele>
        <time>2017-09-17T13:53:44Z</time>
      </trkpt>
      <trkpt lat="44.16975" lon="7.66151">
        <ele>2119</ele>
        <time>2017-09-17T13:53:45Z</time>
      </trkpt>
      <trkpt lat="44.16978" lon="7.66154">
        <ele>2119</ele>
        <time>2017-09-17T13:53:46Z</time>
      </trkpt>
      <trkpt lat="44.1698" lon="7.66156">
        <ele>2119</ele>
        <time>2017-09-17T13:53:47Z</time>
      </trkpt>
      <trkpt lat="44.16982" lon="7.66158">
        <ele>2119</ele>
        <time>2017-09-17T13:53:48Z</time>
      </trkpt>
      <trkpt lat="44.16983" lon="7.6616">
        <ele>2119</ele>
        <time>2017-09-17T13:53:49Z</time>
      </trkpt>
      <trkpt lat="44.16984" lon="7.66162">
        <ele>2119</ele>
        <time>2017-09-17T13:53:50Z</time>
      </trkpt>
      <trkpt lat="44.16985" lon="7.66163">
        <ele>2119</ele>
        <time>2017-09-17T13:53:51Z</time>
      </trkpt>
      <trkpt lat="44.16985" lon="7.66164">
        <ele>2119</ele>
        <time>2017-09-17T13:53:52Z</time>
      </trkpt>
      <trkpt lat="44.16985" lon="7.66164">
        <ele>2119</ele>
        <time>2017-09-17T13:53:53Z</time>
      </trkpt>
      <trkpt lat="44.16985" lon="7.66164">
        <ele>2119</ele>
        <time>2017-09-17T13:53:54Z</time>
      </trkpt>
      <trkpt lat="44.16985" lon="7.66165">
        <ele>2119</ele>
        <time>2017-09-17T13:53:55Z</time>
      </trkpt>
      <trkpt lat="44.16986" lon="7.66166">
        <ele>2119</ele>
        <time>2017-09-17T13:53:56Z</time>
      </trkpt>
      <trkpt lat="44.16986" lon="7.66167">
        <ele>2119</ele>
        <time>2017-09-17T13:53:57Z</time>
      </trkpt>
      <trkpt lat="44.16987" lon="7.66169">
        <ele>2119</ele>
        <time>2017-09-17T13:53:58Z</time>
      </trkpt>
      <trkpt lat="44.16988" lon="7.66171">
        <ele>2119</ele>
        <time>2017-09-17T13:53:59Z</time>
      </trkpt>
      <trkpt lat="44.16988" lon="7.66175">
        <ele>2118</ele>
        <time>2017-09-17T13:54:00Z</time>
      </trkpt>
      <trkpt lat="44.16988" lon="7.66178">
        <ele>2118</ele>
        <time>2017-09-17T13:54:01Z</time>
      </trkpt>
      <trkpt lat="44.16988" lon="7.66183">
        <ele>2118</ele>
        <time>2017-09-17T13:54:02Z</time>
      </trkpt>
      <trkpt lat="44.16987" lon="7.66188">
        <ele>2118</ele>
        <time>2017-09-17T13:54:03Z</time>
      </trkpt>
      <trkpt lat="44.16987" lon="7.66193">
        <ele>2118</ele>
        <time>2017-09-17T13:54:04Z</time>
      </trkpt>
      <trkpt lat="44.16987" lon="7.66199">
        <ele>2118</ele>
        <time>2017-09-17T13:54:05Z</time>
      </trkpt>
      <trkpt lat="44.16987" lon="7.66204">
        <ele>2118</ele>
        <time>2017-09-17T13:54:06Z</time>
      </trkpt>
      <trkpt lat="44.16989" lon="7.6621">
        <ele>2118</ele>
        <time>2017-09-17T13:54:07Z</time>
      </trkpt>
      <trkpt lat="44.16991" lon="7.66215">
        <ele>2117</ele>
        <time>2017-09-17T13:54:08Z</time>
      </trkpt>
      <trkpt lat="44.16994" lon="7.66219">
        <ele>2117</ele>
        <time>2017-09-17T13:54:09Z</time>
      </trkpt>
      <trkpt lat="44.16997" lon="7.66223">
        <ele>2117</ele>
        <time>2017-09-17T13:54:10Z</time>
      </trkpt>
      <trkpt lat="44.17002" lon="7.66226">
        <ele>2117</ele>
        <time>2017-09-17T13:54:11Z</time>
      </trkpt>
      <trkpt lat="44.17007" lon="7.66228">
        <ele>2116</ele>
        <time>2017-09-17T13:54:12Z</time>
      </trkpt>
      <trkpt lat="44.17013" lon="7.6623">
        <ele>2116</ele>
        <time>2017-09-17T13:54:13Z</time>
      </trkpt>
      <trkpt lat="44.17018" lon="7.66233">
        <ele>2116</ele>
        <time>2017-09-17T13:54:14Z</time>
      </trkpt>
      <trkpt lat="44.17024" lon="7.66237">
        <ele>2115</ele>
        <time>2017-09-17T13:54:15Z</time>
      </trkpt>
      <trkpt lat="44.17029" lon="7.66241">
        <ele>2115</ele>
        <time>2017-09-17T13:54:16Z</time>
      </trkpt>
      <trkpt lat="44.17034" lon="7.66247">
        <ele>2115</ele>
        <time>2017-09-17T13:54:17Z</time>
      </trkpt>
      <trkpt lat="44.1704" lon="7.66253">
        <ele>2114</ele>
        <time>2017-09-17T13:54:18Z</time>
      </trkpt>
      <trkpt lat="44.17046" lon="7.66258">
        <ele>2114</ele>
        <time>2017-09-17T13:54:19Z</time>
      </trkpt>
      <trkpt lat="44.17052" lon="7.66263">
        <ele>2114</ele>
        <time>2017-09-17T13:54:20Z</time>
      </trkpt>
      <trkpt lat="44.17058" lon="7.66267">
        <ele>2113</ele>
        <time>2017-09-17T13:54:21Z</time>
      </trkpt>
      <trkpt lat="44.17065" lon="7.66272">
        <ele>2113</ele>
        <time>2017-09-17T13:54:22Z</time>
      </trkpt>
      <trkpt lat="44.17072" lon="7.66276">
        <ele>2113</ele>
        <time>2017-09-17T13:54:23Z</time>
      </trkpt>
      <trkpt lat="44.17079" lon="7.6628">
        <ele>2112</ele>
        <time>2017-09-17T13:54:24Z</time>
      </trkpt>
      <trkpt lat="44.17086" lon="7.66286">
        <ele>2112</ele>
        <time>2017-09-17T13:54:25Z</time>
      </trkpt>
      <trkpt lat="44.17092" lon="7.66293">
        <ele>2112</ele>
        <time>2017-09-17T13:54:26Z</time>
      </trkpt>
      <trkpt lat="44.17095" lon="7.66301">
        <ele>2111</ele>
        <time>2017-09-17T13:54:27Z</time>
      </trkpt>
      <trkpt lat="44.17097" lon="7.66311">
        <ele>2111</ele>
        <time>2017-09-17T13:54:28Z</time>
      </trkpt>
      <trkpt lat="44.17096" lon="7.66321">
        <ele>2111</ele>
        <time>2017-09-17T13:54:29Z</time>
      </trkpt>
      <trkpt lat="44.17093" lon="7.6633">
        <ele>2111</ele>
        <time>2017-09-17T13:54:30Z</time>
      </trkpt>
      <trkpt lat="44.17091" lon="7.6634">
        <ele>2111</ele>
        <time>2017-09-17T13:54:31Z</time>
      </trkpt>
      <trkpt lat="44.17091" lon="7.6635">
        <ele>2111</ele>
        <time>2017-09-17T13:54:32Z</time>
      </trkpt>
      <trkpt lat="44.17091" lon="7.66359">
        <ele>2111</ele>
        <time>2017-09-17T13:54:33Z</time>
      </trkpt>
      <trkpt lat="44.17091" lon="7.66369">
        <ele>2111</ele>
        <time>2017-09-17T13:54:34Z</time>
      </trkpt>
      <trkpt lat="44.17089" lon="7.66377">
        <ele>2111</ele>
        <time>2017-09-17T13:54:35Z</time>
      </trkpt>
      <trkpt lat="44.17087" lon="7.66385">
        <ele>2110</ele>
        <time>2017-09-17T13:54:36Z</time>
      </trkpt>
      <trkpt lat="44.17084" lon="7.66393">
        <ele>2110</ele>
        <time>2017-09-17T13:54:37Z</time>
      </trkpt>
      <trkpt lat="44.17082" lon="7.66401">
        <ele>2110</ele>
        <time>2017-09-17T13:54:38Z</time>
      </trkpt>
      <trkpt lat="44.17079" lon="7.66408">
        <ele>2110</ele>
        <time>2017-09-17T13:54:39Z</time>
      </trkpt>
      <trkpt lat="44.17076" lon="7.66415">
        <ele>2110</ele>
        <time>2017-09-17T13:54:40Z</time>
      </trkpt>
      <trkpt lat="44.17073" lon="7.66422">
        <ele>2110</ele>
        <time>2017-09-17T13:54:41Z</time>
      </trkpt>
      <trkpt lat="44.17069" lon="7.66428">
        <ele>2110</ele>
        <time>2017-09-17T13:54:42Z</time>
      </trkpt>
      <trkpt lat="44.17065" lon="7.66434">
        <ele>2110</ele>
        <time>2017-09-17T13:54:43Z</time>
      </trkpt>
      <trkpt lat="44.17061" lon="7.6644">
        <ele>2110</ele>
        <time>2017-09-17T13:54:44Z</time>
      </trkpt>
      <trkpt lat="44.17057" lon="7.66446">
        <ele>2110</ele>
        <time>2017-09-17T13:54:45Z</time>
      </trkpt>
      <trkpt lat="44.17053" lon="7.66452">
        <ele>2109</ele>
        <time>2017-09-17T13:54:46Z</time>
      </trkpt>
      <trkpt lat="44.17049" lon="7.66458">
        <ele>2109</ele>
        <time>2017-09-17T13:54:47Z</time>
      </trkpt>
      <trkpt lat="44.17046" lon="7.66465">
        <ele>2109</ele>
        <time>2017-09-17T13:54:48Z</time>
      </trkpt>
      <trkpt lat="44.17042" lon="7.66471">
        <ele>2109</ele>
        <time>2017-09-17T13:54:49Z</time>
      </trkpt>
      <trkpt lat="44.17038" lon="7.66477">
        <ele>2109</ele>
        <time>2017-09-17T13:54:50Z</time>
      </trkpt>
      <trkpt lat="44.17034" lon="7.66482">
        <ele>2109</ele>
        <time>2017-09-17T13:54:51Z</time>
      </trkpt>
      <trkpt lat="44.17029" lon="7.66486">
        <ele>2109</ele>
        <time>2017-09-17T13:54:52Z</time>
      </trkpt>
      <trkpt lat="44.17023" lon="7.66489">
        <ele>2109</ele>
        <time>2017-09-17T13:54:53Z</time>
      </trkpt>
      <trkpt lat="44.17018" lon="7.66491">
        <ele>2109</ele>
        <time>2017-09-17T13:54:54Z</time>
      </trkpt>
      <trkpt lat="44.17012" lon="7.66493">
        <ele>2109</ele>
        <time>2017-09-17T13:54:55Z</time>
      </trkpt>
      <trkpt lat="44.17007" lon="7.66495">
        <ele>2109</ele>
        <time>2017-09-17T13:54:56Z</time>
      </trkpt>
      <trkpt lat="44.17003" lon="7.665">
        <ele>2109</ele>
        <time>2017-09-17T13:54:57Z</time>
      </trkpt>
      <trkpt lat="44.16999" lon="7.66506">
        <ele>2108</ele>
        <time>2017-09-17T13:54:58Z</time>
      </trkpt>
      <trkpt lat="44.16997" lon="7.66513">
        <ele>2108</ele>
        <time>2017-09-17T13:54:59Z</time>
      </trkpt>
      <trkpt lat="44.16996" lon="7.66522">
        <ele>2107</ele>
        <time>2017-09-17T13:55:00Z</time>
      </trkpt>
      <trkpt lat="44.16998" lon="7.6653">
        <ele>2107</ele>
        <time>2017-09-17T13:55:01Z</time>
      </trkpt>
      <trkpt lat="44.17001" lon="7.66539">
        <ele>2107</ele>
        <time>2017-09-17T13:55:02Z</time>
      </trkpt>
      <trkpt lat="44.17004" lon="7.66547">
        <ele>2106</ele>
        <time>2017-09-17T13:55:03Z</time>
      </trkpt>
      <trkpt lat="44.17008" lon="7.66555">
        <ele>2106</ele>
        <time>2017-09-17T13:55:04Z</time>
      </trkpt>
      <trkpt lat="44.17012" lon="7.66564">
        <ele>2105</ele>
        <time>2017-09-17T13:55:05Z</time>
      </trkpt>
      <trkpt lat="44.17015" lon="7.66573">
        <ele>2105</ele>
        <time>2017-09-17T13:55:06Z</time>
      </trkpt>
      <trkpt lat="44.17019" lon="7.66582">
        <ele>2104</ele>
        <time>2017-09-17T13:55:07Z</time>
      </trkpt>
      <trkpt lat="44.17021" lon="7.66591">
        <ele>2104</ele>
        <time>2017-09-17T13:55:08Z</time>
      </trkpt>
      <trkpt lat="44.17023" lon="7.66601">
        <ele>2103</ele>
        <time>2017-09-17T13:55:09Z</time>
      </trkpt>
      <trkpt lat="44.17022" lon="7.6661">
        <ele>2103</ele>
        <time>2017-09-17T13:55:10Z</time>
      </trkpt>
      <trkpt lat="44.1702" lon="7.6662">
        <ele>2102</ele>
        <time>2017-09-17T13:55:11Z</time>
      </trkpt>
      <trkpt lat="44.17017" lon="7.66629">
        <ele>2102</ele>
        <time>2017-09-17T13:55:12Z</time>
      </trkpt>
      <trkpt lat="44.17011" lon="7.66635">
        <ele>2101</ele>
        <time>2017-09-17T13:55:13Z</time>
      </trkpt>
      <trkpt lat="44.17004" lon="7.6664">
        <ele>2101</ele>
        <time>2017-09-17T13:55:14Z</time>
      </trkpt>
      <trkpt lat="44.16997" lon="7.66645">
        <ele>2100</ele>
        <time>2017-09-17T13:55:15Z</time>
      </trkpt>
      <trkpt lat="44.1699" lon="7.66649">
        <ele>2099</ele>
        <time>2017-09-17T13:55:16Z</time>
      </trkpt>
      <trkpt lat="44.16983" lon="7.66654">
        <ele>2099</ele>
        <time>2017-09-17T13:55:17Z</time>
      </trkpt>
      <trkpt lat="44.16976" lon="7.66659">
        <ele>2098</ele>
        <time>2017-09-17T13:55:18Z</time>
      </trkpt>
      <trkpt lat="44.1697" lon="7.66666">
        <ele>2098</ele>
        <time>2017-09-17T13:55:19Z</time>
      </trkpt>
      <trkpt lat="44.16963" lon="7.66674">
        <ele>2097</ele>
        <time>2017-09-17T13:55:20Z</time>
      </trkpt>
      <trkpt lat="44.16957" lon="7.66681">
        <ele>2097</ele>
        <time>2017-09-17T13:55:21Z</time>
      </trkpt>
      <trkpt lat="44.1695" lon="7.66688">
        <ele>2096</ele>
        <time>2017-09-17T13:55:22Z</time>
      </trkpt>
      <trkpt lat="44.16944" lon="7.66695">
        <ele>2096</ele>
        <time>2017-09-17T13:55:23Z</time>
      </trkpt>
      <trkpt lat="44.16938" lon="7.66704">
        <ele>2095</ele>
        <time>2017-09-17T13:55:24Z</time>
      </trkpt>
      <trkpt lat="44.16933" lon="7.66712">
        <ele>2094</ele>
        <time>2017-09-17T13:55:25Z</time>
      </trkpt>
      <trkpt lat="44.16927" lon="7.66719">
        <ele>2094</ele>
        <time>2017-09-17T13:55:26Z</time>
      </trkpt>
      <trkpt lat="44.1692" lon="7.66723">
        <ele>2093</ele>
        <time>2017-09-17T13:55:27Z</time>
      </trkpt>
      <trkpt lat="44.16913" lon="7.66725">
        <ele>2092</ele>
        <time>2017-09-17T13:55:28Z</time>
      </trkpt>
      <trkpt lat="44.16906" lon="7.66728">
        <ele>2092</ele>
        <time>2017-09-17T13:55:29Z</time>
      </trkpt>
      <trkpt lat="44.16899" lon="7.66733">
        <ele>2091</ele>
        <time>2017-09-17T13:55:30Z</time>
      </trkpt>
      <trkpt lat="44.16893" lon="7.66739">
        <ele>2090</ele>
        <time>2017-09-17T13:55:31Z</time>
      </trkpt>
      <trkpt lat="44.16887" lon="7.66746">
        <ele>2090</ele>
        <time>2017-09-17T13:55:32Z</time>
      </trkpt>
      <trkpt lat="44.16881" lon="7.66751">
        <ele>2089</ele>
        <time>2017-09-17T13:55:33Z</time>
      </trkpt>
      <trkpt lat="44.16875" lon="7.66754">
        <ele>2088</ele>
        <time>2017-09-17T13:55:34Z</time>
      </trkpt>
      <trkpt lat="44.16868" lon="7.66754">
        <ele>2088</ele>
        <time>2017-09-17T13:55:35Z</time>
      </trkpt>
      <trkpt lat="44.16861" lon="7.66752">
        <ele>2087</ele>
        <time>2017-09-17T13:55:36Z</time>
      </trkpt>
      <trkpt lat="44.16855" lon="7.66747">
        <ele>2086</ele>
        <time>2017-09-17T13:55:37Z</time>
      </trkpt>
      <trkpt lat="44.16848" lon="7.66744">
        <ele>2086</ele>
        <time>2017-09-17T13:55:38Z</time>
      </trkpt>
      <trkpt lat="44.16841" lon="7.66744">
        <ele>2085</ele>
        <time>2017-09-17T13:55:39Z</time>
      </trkpt>
      <trkpt lat="44.16834" lon="7.66746">
        <ele>2084</ele>
        <time>2017-09-17T13:55:40Z</time>
      </trkpt>
      <trkpt lat="44.16829" lon="7.6675">
        <ele>2084</ele>
        <time>2017-09-17T13:55:41Z</time>
      </trkpt>
      <trkpt lat="44.16825" lon="7.66757">
        <ele>2083</ele>
        <time>2017-09-17T13:55:42Z</time>
      </trkpt>
      <trkpt lat="44.16821" lon="7.66765">
        <ele>2082</ele>
        <time>2017-09-17T13:55:43Z</time>
      </trkpt>
      <trkpt lat="44.16817" lon="7.66772">
        <ele>2081</ele>
        <time>2017-09-17T13:55:44Z</time>
      </trkpt>
      <trkpt lat="44.16811" lon="7.66777">
        <ele>2081</ele>
        <time>2017-09-17T13:55:45Z</time>
      </trkpt>
      <trkpt lat="44.16804" lon="7.6678">
        <ele>2080</ele>
        <time>2017-09-17T13:55:46Z</time>
      </trkpt>
      <trkpt lat="44.16796" lon="7.66781">
        <ele>2079</ele>
        <time>2017-09-17T13:55:47Z</time>
      </trkpt>
      <trkpt lat="44.16789" lon="7.66781">
        <ele>2079</ele>
        <time>2017-09-17T13:55:48Z</time>
      </trkpt>
      <trkpt lat="44.16782" lon="7.66781">
        <ele>2079</ele>
        <time>2017-09-17T13:55:49Z</time>
      </trkpt>
      <trkpt lat="44.16774" lon="7.66783">
        <ele>2078</ele>
        <time>2017-09-17T13:55:50Z</time>
      </trkpt>
      <trkpt lat="44.16767" lon="7.66785">
        <ele>2078</ele>
        <time>2017-09-17T13:55:51Z</time>
      </trkpt>
      <trkpt lat="44.1676" lon="7.66787">
        <ele>2078</ele>
        <time>2017-09-17T13:55:52Z</time>
      </trkpt>
      <trkpt lat="44.16753" lon="7.66786">
        <ele>2078</ele>
        <time>2017-09-17T13:55:53Z</time>
      </trkpt>
      <trkpt lat="44.16746" lon="7.66784">
        <ele>2077</ele>
        <time>2017-09-17T13:55:54Z</time>
      </trkpt>
      <trkpt lat="44.16739" lon="7.66781">
        <ele>2077</ele>
        <time>2017-09-17T13:55:55Z</time>
      </trkpt>
      <trkpt lat="44.16732" lon="7.66777">
        <ele>2077</ele>
        <time>2017-09-17T13:55:56Z</time>
      </trkpt>
      <trkpt lat="44.16725" lon="7.66776">
        <ele>2077</ele>
        <time>2017-09-17T13:55:57Z</time>
      </trkpt>
      <trkpt lat="44.16718" lon="7.66777">
        <ele>2077</ele>
        <time>2017-09-17T13:55:58Z</time>
      </trkpt>
      <trkpt lat="44.16712" lon="7.66781">
        <ele>2077</ele>
        <time>2017-09-17T13:55:59Z</time>
      </trkpt>
      <trkpt lat="44.16705" lon="7.66785">
        <ele>2076</ele>
        <time>2017-09-17T13:56:00Z</time>
      </trkpt>
      <trkpt lat="44.16699" lon="7.66785">
        <ele>2076</ele>
        <time>2017-09-17T13:56:01Z</time>
      </trkpt>
      <trkpt lat="44.16692" lon="7.66785">
        <ele>2076</ele>
        <time>2017-09-17T13:56:02Z</time>
      </trkpt>
      <trkpt lat="44.16686" lon="7.66784">
        <ele>2076</ele>
        <time>2017-09-17T13:56:03Z</time>
      </trkpt>
      <trkpt lat="44.1668" lon="7.66787">
        <ele>2076</ele>
        <time>2017-09-17T13:56:04Z</time>
      </trkpt>
      <trkpt lat="44.16675" lon="7.66792">
        <ele>2076</ele>
        <time>2017-09-17T13:56:05Z</time>
      </trkpt>
      <trkpt lat="44.16673" lon="7.668">
        <ele>2076</ele>
        <time>2017-09-17T13:56:06Z</time>
      </trkpt>
      <trkpt lat="44.16673" lon="7.66808">
        <ele>2075</ele>
        <time>2017-09-17T13:56:07Z</time>
      </trkpt>
      <trkpt lat="44.16673" lon="7.66817">
        <ele>2075</ele>
        <time>2017-09-17T13:56:08Z</time>
      </trkpt>
      <trkpt lat="44.16673" lon="7.66825">
        <ele>2075</ele>
        <time>2017-09-17T13:56:09Z</time>
      </trkpt>
      <trkpt lat="44.16671" lon="7.66833">
        <ele>2075</ele>
        <time>2017-09-17T13:56:10Z</time>
      </trkpt>
      <trkpt lat="44.16668" lon="7.66839">
        <ele>2075</ele>
        <time>2017-09-17T13:56:11Z</time>
      </trkpt>
      <trkpt lat="44.16662" lon="7.66842">
        <ele>2075</ele>
        <time>2017-09-17T13:56:12Z</time>
      </trkpt>
      <trkpt lat="44.16656" lon="7.66843">
        <ele>2075</ele>
        <time>2017-09-17T13:56:13Z</time>
      </trkpt>
      <trkpt lat="44.16651" lon="7.6684">
        <ele>2075</ele>
        <time>2017-09-17T13:56:14Z</time>
      </trkpt>
      <trkpt lat="44.16645" lon="7.66836">
        <ele>2075</ele>
        <time>2017-09-17T13:56:15Z</time>
      </trkpt>
      <trkpt lat="44.16639" lon="7.66833">
        <ele>2075</ele>
        <time>2017-09-17T13:56:16Z</time>
      </trkpt>
      <trkpt lat="44.16633" lon="7.66831">
        <ele>2075</ele>
        <time>2017-09-17T13:56:17Z</time>
      </trkpt>
      <trkpt lat="44.16627" lon="7.66831">
        <ele>2075</ele>
        <time>2017-09-17T13:56:18Z</time>
      </trkpt>
      <trkpt lat="44.16621" lon="7.66831">
        <ele>2075</ele>
        <time>2017-09-17T13:56:19Z</time>
      </trkpt>
      <trkpt lat="44.16615" lon="7.6683">
        <ele>2075</ele>
        <time>2017-09-17T13:56:20Z</time>
      </trkpt>
      <trkpt lat="44.16609" lon="7.66831">
        <ele>2075</ele>
        <time>2017-09-17T13:56:21Z</time>
      </trkpt>
      <trkpt lat="44.16603" lon="7.66833">
        <ele>2075</ele>
        <time>2017-09-17T13:56:22Z</time>
      </trkpt>
      <trkpt lat="44.16598" lon="7.66837">
        <ele>2075</ele>
        <time>2017-09-17T13:56:23Z</time>
      </trkpt>
      <trkpt lat="44.16593" lon="7.66843">
        <ele>2074</ele>
        <time>2017-09-17T13:56:24Z</time>
      </trkpt>
      <trkpt lat="44.16589" lon="7.66849">
        <ele>2074</ele>
        <time>2017-09-17T13:56:25Z</time>
      </trkpt>
      <trkpt lat="44.16584" lon="7.66854">
        <ele>2074</ele>
        <time>2017-09-17T13:56:26Z</time>
      </trkpt>
      <trkpt lat="44.16578" lon="7.66857">
        <ele>2074</ele>
        <time>2017-09-17T13:56:27Z</time>
      </trkpt>
      <trkpt lat="44.16572" lon="7.66858">
        <ele>2074</ele>
        <time>2017-09-17T13:56:28Z</time>
      </trkpt>
      <trkpt lat="44.16566" lon="7.66857">
        <ele>2073</ele>
        <time>2017-09-17T13:56:29Z</time>
      </trkpt>
      <trkpt lat="44.1656" lon="7.66857">
        <ele>2073</ele>
        <time>2017-09-17T13:56:30Z</time>
      </trkpt>
      <trkpt lat="44.16554" lon="7.66861">
        <ele>2073</ele>
        <time>2017-09-17T13:56:31Z</time>
      </trkpt>
      <trkpt lat="44.16548" lon="7.66865">
        <ele>2073</ele>
        <time>2017-09-17T13:56:32Z</time>
      </trkpt>
      <trkpt lat="44.16543" lon="7.6687">
        <ele>2073</ele>
        <time>2017-09-17T13:56:33Z</time>
      </trkpt>
      <trkpt lat="44.16538" lon="7.66873">
        <ele>2073</ele>
        <time>2017-09-17T13:56:34Z</time>
      </trkpt>
      <trkpt lat="44.16532" lon="7.66874">
        <ele>2073</ele>
        <time>2017-09-17T13:56:35Z</time>
      </trkpt>
      <trkpt lat="44.16526" lon="7.66872">
        <ele>2073</ele>
        <time>2017-09-17T13:56:36Z</time>
      </trkpt>
      <trkpt lat="44.1652" lon="7.66869">
        <ele>2073</ele>
        <time>2017-09-17T13:56:37Z</time>
      </trkpt>
      <trkpt lat="44.16515" lon="7.66865">
        <ele>2073</ele>
        <time>2017-09-17T13:56:38Z</time>
      </trkpt>
      <trkpt lat="44.1651" lon="7.66862">
        <ele>2073</ele>
        <time>2017-09-17T13:56:39Z</time>
      </trkpt>
      <trkpt lat="44.16504" lon="7.6686">
        <ele>2073</ele>
        <time>2017-09-17T13:56:40Z</time>
      </trkpt>
      <trkpt lat="44.16498" lon="7.6686">
        <ele>2073</ele>
        <time>2017-09-17T13:56:41Z</time>
      </trkpt>
      <trkpt lat="44.16493" lon="7.66862">
        <ele>2073</ele>
        <time>2017-09-17T13:56:42Z</time>
      </trkpt>
      <trkpt lat="44.16487" lon="7.66864">
        <ele>2073</ele>
        <time>2017-09-17T13:56:43Z</time>
      </trkpt>
      <trkpt lat="44.16483" lon="7.66869">
        <ele>2073</ele>
        <time>2017-09-17T13:56:44Z</time>
      </trkpt>
      <trkpt lat="44.1648" lon="7.66875">
        <ele>2073</ele>
        <time>2017-09-17T13:56:45Z</time>
      </trkpt>
      <trkpt lat="44.16481" lon="7.66882">
        <ele>2073</ele>
        <time>2017-09-17T13:56:46Z</time>
      </trkpt>
      <trkpt lat="44.16484" lon="7.66888">
        <ele>2073</ele>
        <time>2017-09-17T13:56:47Z</time>
      </trkpt>
      <trkpt lat="44.16487" lon="7.66894">
        <ele>2073</ele>
        <time>2017-09-17T13:56:48Z</time>
      </trkpt>
      <trkpt lat="44.16489" lon="7.66901">
        <ele>2073</ele>
        <time>2017-09-17T13:56:49Z</time>
      </trkpt>
      <trkpt lat="44.16488" lon="7.66908">
        <ele>2073</ele>
        <time>2017-09-17T13:56:50Z</time>
      </trkpt>
      <trkpt lat="44.16485" lon="7.66913">
        <ele>2073</ele>
        <time>2017-09-17T13:56:51Z</time>
      </trkpt>
      <trkpt lat="44.16481" lon="7.66916">
        <ele>2073</ele>
        <time>2017-09-17T13:56:52Z</time>
      </trkpt>
      <trkpt lat="44.16476" lon="7.66916">
        <ele>2073</ele>
        <time>2017-09-17T13:56:53Z</time>
      </trkpt>
      <trkpt lat="44.16471" lon="7.66915">
        <ele>2073</ele>
        <time>2017-09-17T13:56:54Z</time>
      </trkpt>
      <trkpt lat="44.16466" lon="7.66915">
        <ele>2073</ele>
        <time>2017-09-17T13:56:55Z</time>
      </trkpt>
      <trkpt lat="44.16461" lon="7.66916">
        <ele>2074</ele>
        <time>2017-09-17T13:56:56Z</time>
      </trkpt>
      <trkpt lat="44.16456" lon="7.6692">
        <ele>2074</ele>
        <time>2017-09-17T13:56:57Z</time>
      </trkpt>
      <trkpt lat="44.16452" lon="7.66924">
        <ele>2074</ele>
        <time>2017-09-17T13:56:58Z</time>
      </trkpt>
      <trkpt lat="44.16449" lon="7.66929">
        <ele>2074</ele>
        <time>2017-09-17T13:56:59Z</time>
      </trkpt>
      <trkpt lat="44.16445" lon="7.66934">
        <ele>2074</ele>
        <time>2017-09-17T13:57:00Z</time>
      </trkpt>
      <trkpt lat="44.16441" lon="7.66939">
        <ele>2074</ele>
        <time>2017-09-17T13:57:01Z</time>
      </trkpt>
      <trkpt lat="44.16437" lon="7.66943">
        <ele>2074</ele>
        <time>2017-09-17T13:57:02Z</time>
      </trkpt>
      <trkpt lat="44.16433" lon="7.66948">
        <ele>2074</ele>
        <time>2017-09-17T13:57:03Z</time>
      </trkpt>
      <trkpt lat="44.16429" lon="7.66952">
        <ele>2074</ele>
        <time>2017-09-17T13:57:04Z</time>
      </trkpt>
      <trkpt lat="44.16424" lon="7.66954">
        <ele>2074</ele>
        <time>2017-09-17T13:57:05Z</time>
      </trkpt>
      <trkpt lat="44.16419" lon="7.66955">
        <ele>2074</ele>
        <time>2017-09-17T13:57:06Z</time>
      </trkpt>
      <trkpt lat="44.16414" lon="7.66954">
        <ele>2074</ele>
        <time>2017-09-17T13:57:07Z</time>
      </trkpt>
      <trkpt lat="44.16409" lon="7.66954">
        <ele>2074</ele>
        <time>2017-09-17T13:57:08Z</time>
      </trkpt>
      <trkpt lat="44.16404" lon="7.66954">
        <ele>2075</ele>
        <time>2017-09-17T13:57:09Z</time>
      </trkpt>
      <trkpt lat="44.16399" lon="7.66956">
        <ele>2075</ele>
        <time>2017-09-17T13:57:10Z</time>
      </trkpt>
      <trkpt lat="44.16395" lon="7.6696">
        <ele>2074</ele>
        <time>2017-09-17T13:57:11Z</time>
      </trkpt>
      <trkpt lat="44.1639" lon="7.66963">
        <ele>2074</ele>
        <time>2017-09-17T13:57:12Z</time>
      </trkpt>
      <trkpt lat="44.16386" lon="7.66967">
        <ele>2074</ele>
        <time>2017-09-17T13:57:13Z</time>
      </trkpt>
      <trkpt lat="44.16382" lon="7.66971">
        <ele>2074</ele>
        <time>2017-09-17T13:57:14Z</time>
      </trkpt>
      <trkpt lat="44.16377" lon="7.66973">
        <ele>2074</ele>
        <time>2017-09-17T13:57:15Z</time>
      </trkpt>
      <trkpt lat="44.16372" lon="7.66974">
        <ele>2074</ele>
        <time>2017-09-17T13:57:16Z</time>
      </trkpt>
      <trkpt lat="44.16367" lon="7.66973">
        <ele>2074</ele>
        <time>2017-09-17T13:57:17Z</time>
      </trkpt>
      <trkpt lat="44.16362" lon="7.66972">
        <ele>2075</ele>
        <time>2017-09-17T13:57:18Z</time>
      </trkpt>
      <trkpt lat="44.16357" lon="7.66971">
        <ele>2075</ele>
        <time>2017-09-17T13:57:19Z</time>
      </trkpt>
      <trkpt lat="44.16352" lon="7.6697">
        <ele>2075</ele>
        <time>2017-09-17T13:57:20Z</time>
      </trkpt>
      <trkpt lat="44.16347" lon="7.66969">
        <ele>2075</ele>
        <time>2017-09-17T13:57:21Z</time>
      </trkpt>
      <trkpt lat="44.16343" lon="7.66966">
        <ele>2075</ele>
        <time>2017-09-17T13:57:22Z</time>
      </trkpt>
      <trkpt lat="44.16338" lon="7.66963">
        <ele>2075</ele>
        <time>2017-09-17T13:57:23Z</time>
      </trkpt>
      <trkpt lat="44.16334" lon="7.66959">
        <ele>2075</ele>
        <time>2017-09-17T13:57:24Z</time>
      </trkpt>
      <trkpt lat="44.16329" lon="7.66957">
        <ele>2076</ele>
        <time>2017-09-17T13:57:25Z</time>
      </trkpt>
      <trkpt lat="44.16324" lon="7.66955">
        <ele>2076</ele>
        <time>2017-09-17T13:57:26Z</time>
      </trkpt>
      <trkpt lat="44.16319" lon="7.66954">
        <ele>2076</ele>
        <time>2017-09-17T13:57:27Z</time>
      </trkpt>
      <trkpt lat="44.16314" lon="7.66953">
        <ele>2076</ele>
        <time>2017-09-17T13:57:28Z</time>
      </trkpt>
      <trkpt lat="44.16309" lon="7.66952">
        <ele>2076</ele>
        <time>2017-09-17T13:57:29Z</time>
      </trkpt>
      <trkpt lat="44.16304" lon="7.66952">
        <ele>2077</ele>
        <time>2017-09-17T13:57:30Z</time>
      </trkpt>
      <trkpt lat="44.16299" lon="7.66953">
        <ele>2077</ele>
        <time>2017-09-17T13:57:31Z</time>
      </trkpt>
      <trkpt lat="44.16295" lon="7.66955">
        <ele>2077</ele>
        <time>2017-09-17T13:57:32Z</time>
      </trkpt>
      <trkpt lat="44.16291" lon="7.66959">
        <ele>2077</ele>
        <time>2017-09-17T13:57:33Z</time>
      </trkpt>
      <trkpt lat="44.16287" lon="7.66963">
        <ele>2077</ele>
        <time>2017-09-17T13:57:34Z</time>
      </trkpt>
      <trkpt lat="44.16283" lon="7.66966">
        <ele>2077</ele>
        <time>2017-09-17T13:57:35Z</time>
      </trkpt>
      <trkpt lat="44.16278" lon="7.66969">
        <ele>2078</ele>
        <time>2017-09-17T13:57:36Z</time>
      </trkpt>
      <trkpt lat="44.16274" lon="7.66972">
        <ele>2078</ele>
        <time>2017-09-17T13:57:37Z</time>
      </trkpt>
      <trkpt lat="44.16269" lon="7.66974">
        <ele>2078</ele>
        <time>2017-09-17T13:57:38Z</time>
      </trkpt>
      <trkpt lat="44.16265" lon="7.66976">
        <ele>2078</ele>
        <time>2017-09-17T13:57:39Z</time>
      </trkpt>
      <trkpt lat="44.1626" lon="7.66977">
        <ele>2078</ele>
        <time>2017-09-17T13:57:40Z</time>
      </trkpt>
      <trkpt lat="44.16255" lon="7.66977">
        <ele>2078</ele>
        <time>2017-09-17T13:57:41Z</time>
      </trkpt>
      <trkpt lat="44.1625" lon="7.66977">
        <ele>2078</ele>
        <time>2017-09-17T13:57:42Z</time>
      </trkpt>
      <trkpt lat="44.16245" lon="7.66976">
        <ele>2079</ele>
        <time>2017-09-17T13:57:43Z</time>
      </trkpt>
      <trkpt lat="44.16241" lon="7.66976">
        <ele>2079</ele>
        <time>2017-09-17T13:57:44Z</time>
      </trkpt>
      <trkpt lat="44.16236" lon="7.66974">
        <ele>2079</ele>
        <time>2017-09-17T13:57:45Z</time>
      </trkpt>
      <trkpt lat="44.16231" lon="7.66973">
        <ele>2079</ele>
        <time>2017-09-17T13:57:46Z</time>
      </trkpt>
      <trkpt lat="44.16226" lon="7.66971">
        <ele>2079</ele>
        <time>2017-09-17T13:57:47Z</time>
      </trkpt>
      <trkpt lat="44.16221" lon="7.66969">
        <ele>2079</ele>
        <time>2017-09-17T13:57:48Z</time>
      </trkpt>
      <trkpt lat="44.16217" lon="7.66967">
        <ele>2080</ele>
        <time>2017-09-17T13:57:49Z</time>
      </trkpt>
      <trkpt lat="44.16212" lon="7.66965">
        <ele>2080</ele>
        <time>2017-09-17T13:57:50Z</time>
      </trkpt>
      <trkpt lat="44.16208" lon="7.66963">
        <ele>2080</ele>
        <time>2017-09-17T13:57:51Z</time>
      </trkpt>
      <trkpt lat="44.16203" lon="7.66961">
        <ele>2080</ele>
        <time>2017-09-17T13:57:52Z</time>
      </trkpt>
      <trkpt lat="44.16199" lon="7.6696">
        <ele>2081</ele>
        <time>2017-09-17T13:57:53Z</time>
      </trkpt>
      <trkpt lat="44.16194" lon="7.66959">
        <ele>2081</ele>
        <time>2017-09-17T13:57:54Z</time>
      </trkpt>
      <trkpt lat="44.16189" lon="7.66958">
        <ele>2081</ele>
        <time>2017-09-17T13:57:55Z</time>
      </trkpt>
      <trkpt lat="44.16184" lon="7.66957">
        <ele>2081</ele>
        <time>2017-09-17T13:57:56Z</time>
      </trkpt>
      <trkpt lat="44.16179" lon="7.66957">
        <ele>2081</ele>
        <time>2017-09-17T13:57:57Z</time>
      </trkpt>
      <trkpt lat="44.16174" lon="7.66958">
        <ele>2081</ele>
        <time>2017-09-17T13:57:58Z</time>
      </trkpt>
      <trkpt lat="44.1617" lon="7.66958">
        <ele>2081</ele>
        <time>2017-09-17T13:57:59Z</time>
      </trkpt>
      <trkpt lat="44.16166" lon="7.66959">
        <ele>2082</ele>
        <time>2017-09-17T13:58:00Z</time>
      </trkpt>
      <trkpt lat="44.16161" lon="7.66959">
        <ele>2082</ele>
        <time>2017-09-17T13:58:01Z</time>
      </trkpt>
      <trkpt lat="44.16157" lon="7.6696">
        <ele>2082</ele>
        <time>2017-09-17T13:58:02Z</time>
      </trkpt>
      <trkpt lat="44.16153" lon="7.6696">
        <ele>2082</ele>
        <time>2017-09-17T13:58:03Z</time>
      </trkpt>
      <trkpt lat="44.16149" lon="7.66959">
        <ele>2082</ele>
        <time>2017-09-17T13:58:04Z</time>
      </trkpt>
      <trkpt lat="44.16145" lon="7.66958">
        <ele>2082</ele>
        <time>2017-09-17T13:58:05Z</time>
      </trkpt>
      <trkpt lat="44.16141" lon="7.66956">
        <ele>2083</ele>
        <time>2017-09-17T13:58:06Z</time>
      </trkpt>
      <trkpt lat="44.16137" lon="7.66956">
        <ele>2083</ele>
        <time>2017-09-17T13:58:07Z</time>
      </trkpt>
      <trkpt lat="44.16133" lon="7.66956">
        <ele>2084</ele>
        <time>2017-09-17T13:58:08Z</time>
      </trkpt>
      <trkpt lat="44.16129" lon="7.66957">
        <ele>2084</ele>
        <time>2017-09-17T13:58:09Z</time>
      </trkpt>
      <trkpt lat="44.16125" lon="7.66959">
        <ele>2084</ele>
        <time>2017-09-17T13:58:10Z</time>
      </trkpt>
      <trkpt lat="44.16122" lon="7.66962">
        <ele>2084</ele>
        <time>2017-09-17T13:58:11Z</time>
      </trkpt>
      <trkpt lat="44.1612" lon="7.66966">
        <ele>2084</ele>
        <time>2017-09-17T13:58:12Z</time>
      </trkpt>
      <trkpt lat="44.16118" lon="7.6697">
        <ele>2085</ele>
        <time>2017-09-17T13:58:13Z</time>
      </trkpt>
      <trkpt lat="44.16115" lon="7.66974">
        <ele>2085</ele>
        <time>2017-09-17T13:58:14Z</time>
      </trkpt>
      <trkpt lat="44.16113" lon="7.66978">
        <ele>2085</ele>
        <time>2017-09-17T13:58:15Z</time>
      </trkpt>
      <trkpt lat="44.16112" lon="7.66982">
        <ele>2085</ele>
        <time>2017-09-17T13:58:16Z</time>
      </trkpt>
      <trkpt lat="44.1611" lon="7.66986">
        <ele>2086</ele>
        <time>2017-09-17T13:58:17Z</time>
      </trkpt>
      <trkpt lat="44.16108" lon="7.6699">
        <ele>2086</ele>
        <time>2017-09-17T13:58:18Z</time>
      </trkpt>
      <trkpt lat="44.16106" lon="7.66994">
        <ele>2086</ele>
        <time>2017-09-17T13:58:19Z</time>
      </trkpt>
      <trkpt lat="44.16103" lon="7.66997">
        <ele>2086</ele>
        <time>2017-09-17T13:58:20Z</time>
      </trkpt>
      <trkpt lat="44.161" lon="7.67">
        <ele>2086</ele>
        <time>2017-09-17T13:58:21Z</time>
      </trkpt>
      <trkpt lat="44.16097" lon="7.67001">
        <ele>2087</ele>
        <time>2017-09-17T13:58:22Z</time>
      </trkpt>
      <trkpt lat="44.16093" lon="7.67002">
        <ele>2087</ele>
        <time>2017-09-17T13:58:23Z</time>
      </trkpt>
      <trkpt lat="44.16089" lon="7.67002">
        <ele>2087</ele>
        <time>2017-09-17T13:58:24Z</time>
      </trkpt>
      <trkpt lat="44.16085" lon="7.67002">
        <ele>2087</ele>
        <time>2017-09-17T13:58:25Z</time>
      </trkpt>
      <trkpt lat="44.16082" lon="7.67002">
        <ele>2088</ele>
        <time>2017-09-17T13:58:26Z</time>
      </trkpt>
      <trkpt lat="44.16078" lon="7.67001">
        <ele>2088</ele>
        <time>2017-09-17T13:58:27Z</time>
      </trkpt>
      <trkpt lat="44.16074" lon="7.67001">
        <ele>2088</ele>
        <time>2017-09-17T13:58:28Z</time>
      </trkpt>
      <trkpt lat="44.16071" lon="7.67">
        <ele>2089</ele>
        <time>2017-09-17T13:58:29Z</time>
      </trkpt>
      <trkpt lat="44.16067" lon="7.66999">
        <ele>2089</ele>
        <time>2017-09-17T13:58:30Z</time>
      </trkpt>
      <trkpt lat="44.16063" lon="7.66999">
        <ele>2090</ele>
        <time>2017-09-17T13:58:31Z</time>
      </trkpt>
      <trkpt lat="44.1606" lon="7.66998">
        <ele>2090</ele>
        <time>2017-09-17T13:58:32Z</time>
      </trkpt>
      <trkpt lat="44.16056" lon="7.66998">
        <ele>2091</ele>
        <time>2017-09-17T13:58:33Z</time>
      </trkpt>
      <trkpt lat="44.16052" lon="7.66997">
        <ele>2091</ele>
        <time>2017-09-17T13:58:34Z</time>
      </trkpt>
      <trkpt lat="44.16049" lon="7.66996">
        <ele>2091</ele>
        <time>2017-09-17T13:58:35Z</time>
      </trkpt>
      <trkpt lat="44.16045" lon="7.66994">
        <ele>2092</ele>
        <time>2017-09-17T13:58:36Z</time>
      </trkpt>
      <trkpt lat="44.16041" lon="7.66992">
        <ele>2092</ele>
        <time>2017-09-17T13:58:37Z</time>
      </trkpt>
      <trkpt lat="44.16037" lon="7.6699">
        <ele>2093</ele>
        <time>2017-09-17T13:58:38Z</time>
      </trkpt>
      <trkpt lat="44.16034" lon="7.66987">
        <ele>2093</ele>
        <time>2017-09-17T13:58:39Z</time>
      </trkpt>
      <trkpt lat="44.1603" lon="7.66985">
        <ele>2094</ele>
        <time>2017-09-17T13:58:40Z</time>
      </trkpt>
      <trkpt lat="44.16026" lon="7.66982">
        <ele>2094</ele>
        <time>2017-09-17T13:58:41Z</time>
      </trkpt>
      <trkpt lat="44.16022" lon="7.66979">
        <ele>2094</ele>
        <time>2017-09-17T13:58:42Z</time>
      </trkpt>
      <trkpt lat="44.16018" lon="7.66978">
        <ele>2095</ele>
        <time>2017-09-17T13:58:43Z</time>
      </trkpt>
      <trkpt lat="44.16014" lon="7.66977">
        <ele>2095</ele>
        <time>2017-09-17T13:58:44Z</time>
      </trkpt>
      <trkpt lat="44.1601" lon="7.66977">
        <ele>2095</ele>
        <time>2017-09-17T13:58:45Z</time>
      </trkpt>
      <trkpt lat="44.16006" lon="7.66979">
        <ele>2096</ele>
        <time>2017-09-17T13:58:46Z</time>
      </trkpt>
      <trkpt lat="44.16002" lon="7.66981">
        <ele>2096</ele>
        <time>2017-09-17T13:58:47Z</time>
      </trkpt>
      <trkpt lat="44.15998" lon="7.66984">
        <ele>2096</ele>
        <time>2017-09-17T13:58:48Z</time>
      </trkpt>
      <trkpt lat="44.15995" lon="7.66987">
        <ele>2096</ele>
        <time>2017-09-17T13:58:49Z</time>
      </trkpt>
      <trkpt lat="44.15991" lon="7.66991">
        <ele>2096</ele>
        <time>2017-09-17T13:58:50Z</time>
      </trkpt>
      <trkpt lat="44.15988" lon="7.66995">
        <ele>2097</ele>
        <time>2017-09-17T13:58:51Z</time>
      </trkpt>
      <trkpt lat="44.15985" lon="7.67001">
        <ele>2097</ele>
        <time>2017-09-17T13:58:52Z</time>
      </trkpt>
      <trkpt lat="44.15982" lon="7.67006">
        <ele>2097</ele>
        <time>2017-09-17T13:58:53Z</time>
      </trkpt>
      <trkpt lat="44.15977" lon="7.6701">
        <ele>2097</ele>
        <time>2017-09-17T13:58:54Z</time>
      </trkpt>
      <trkpt lat="44.15972" lon="7.67014">
        <ele>2097</ele>
        <time>2017-09-17T13:58:55Z</time>
      </trkpt>
      <trkpt lat="44.15968" lon="7.67018">
        <ele>2097</ele>
        <time>2017-09-17T13:58:56Z</time>
      </trkpt>
      <trkpt lat="44.15963" lon="7.67023">
        <ele>2096</ele>
        <time>2017-09-17T13:58:57Z</time>
      </trkpt>
      <trkpt lat="44.15959" lon="7.67029">
        <ele>2096</ele>
        <time>2017-09-17T13:58:58Z</time>
      </trkpt>
      <trkpt lat="44.15955" lon="7.67034">
        <ele>2096</ele>
        <time>2017-09-17T13:58:59Z</time>
      </trkpt>
      <trkpt lat="44.1595" lon="7.67039">
        <ele>2096</ele>
        <time>2017-09-17T13:59:00Z</time>
      </trkpt>
      <trkpt lat="44.15945" lon="7.67044">
        <ele>2096</ele>
        <time>2017-09-17T13:59:01Z</time>
      </trkpt>
      <trkpt lat="44.15941" lon="7.6705">
        <ele>2096</ele>
        <time>2017-09-17T13:59:02Z</time>
      </trkpt>
      <trkpt lat="44.15938" lon="7.67056">
        <ele>2096</ele>
        <time>2017-09-17T13:59:03Z</time>
      </trkpt>
      <trkpt lat="44.15936" lon="7.67062">
        <ele>2097</ele>
        <time>2017-09-17T13:59:04Z</time>
      </trkpt>
      <trkpt lat="44.15934" lon="7.67068">
        <ele>2097</ele>
        <time>2017-09-17T13:59:05Z</time>
      </trkpt>
      <trkpt lat="44.15932" lon="7.67075">
        <ele>2097</ele>
        <time>2017-09-17T13:59:06Z</time>
      </trkpt>
      <trkpt lat="44.15931" lon="7.67081">
        <ele>2097</ele>
        <time>2017-09-17T13:59:07Z</time>
      </trkpt>
      <trkpt lat="44.1593" lon="7.67088">
        <ele>2098</ele>
        <time>2017-09-17T13:59:08Z</time>
      </trkpt>
      <trkpt lat="44.15928" lon="7.67094">
        <ele>2098</ele>
        <time>2017-09-17T13:59:09Z</time>
      </trkpt>
      <trkpt lat="44.15925" lon="7.67099">
        <ele>2098</ele>
        <time>2017-09-17T13:59:10Z</time>
      </trkpt>
      <trkpt lat="44.15923" lon="7.67104">
        <ele>2099</ele>
        <time>2017-09-17T13:59:11Z</time>
      </trkpt>
      <trkpt lat="44.15919" lon="7.67109">
        <ele>2099</ele>
        <time>2017-09-17T13:59:12Z</time>
      </trkpt>
      <trkpt lat="44.15916" lon="7.67113">
        <ele>2099</ele>
        <time>2017-09-17T13:59:13Z</time>
      </trkpt>
      <trkpt lat="44.15912" lon="7.67116">
        <ele>2100</ele>
        <time>2017-09-17T13:59:14Z</time>
      </trkpt>
      <trkpt lat="44.15908" lon="7.67117">
        <ele>2100</ele>
        <time>2017-09-17T13:59:15Z</time>
      </trkpt>
      <trkpt lat="44.15904" lon="7.67117">
        <ele>2100</ele>
        <time>2017-09-17T13:59:16Z</time>
      </trkpt>
      <trkpt lat="44.159" lon="7.67116">
        <ele>2101</ele>
        <time>2017-09-17T13:59:17Z</time>
      </trkpt>
      <trkpt lat="44.15896" lon="7.67116">
        <ele>2101</ele>
        <time>2017-09-17T13:59:18Z</time>
      </trkpt>
      <trkpt lat="44.15893" lon="7.67116">
        <ele>2102</ele>
        <time>2017-09-17T13:59:19Z</time>
      </trkpt>
      <trkpt lat="44.15889" lon="7.67116">
        <ele>2102</ele>
        <time>2017-09-17T13:59:20Z</time>
      </trkpt>
      <trkpt lat="44.15886" lon="7.67116">
        <ele>2102</ele>
        <time>2017-09-17T13:59:21Z</time>
      </trkpt>
      <trkpt lat="44.15883" lon="7.67117">
        <ele>2103</ele>
        <time>2017-09-17T13:59:22Z</time>
      </trkpt>
      <trkpt lat="44.1588" lon="7.67119">
        <ele>2103</ele>
        <time>2017-09-17T13:59:23Z</time>
      </trkpt>
      <trkpt lat="44.15878" lon="7.67121">
        <ele>2103</ele>
        <time>2017-09-17T13:59:24Z</time>
      </trkpt>
      <trkpt lat="44.15875" lon="7.67123">
        <ele>2104</ele>
        <time>2017-09-17T13:59:25Z</time>
      </trkpt>
      <trkpt lat="44.15873" lon="7.67124">
        <ele>2104</ele>
        <time>2017-09-17T13:59:26Z</time>
      </trkpt>
      <trkpt lat="44.1587" lon="7.67126">
        <ele>2104</ele>
        <time>2017-09-17T13:59:27Z</time>
      </trkpt>
      <trkpt lat="44.15867" lon="7.67128">
        <ele>2104</ele>
        <time>2017-09-17T13:59:28Z</time>
      </trkpt>
      <trkpt lat="44.15865" lon="7.6713">
        <ele>2105</ele>
        <time>2017-09-17T13:59:29Z</time>
      </trkpt>
      <trkpt lat="44.15863" lon="7.67132">
        <ele>2105</ele>
        <time>2017-09-17T13:59:30Z</time>
      </trkpt>
      <trkpt lat="44.1586" lon="7.67133">
        <ele>2105</ele>
        <time>2017-09-17T13:59:31Z</time>
      </trkpt>
      <trkpt lat="44.15858" lon="7.67134">
        <ele>2106</ele>
        <time>2017-09-17T13:59:32Z</time>
      </trkpt>
      <trkpt lat="44.15856" lon="7.67136">
        <ele>2106</ele>
        <time>2017-09-17T13:59:33Z</time>
      </trkpt>
      <trkpt lat="44.15854" lon="7.67138">
        <ele>2106</ele>
        <time>2017-09-17T13:59:34Z</time>
      </trkpt>
      <trkpt lat="44.15851" lon="7.67139">
        <ele>2106</ele>
        <time>2017-09-17T13:59:35Z</time>
      </trkpt>
      <trkpt lat="44.15849" lon="7.67141">
        <ele>2107</ele>
        <time>2017-09-17T13:59:36Z</time>
      </trkpt>
      <trkpt lat="44.15846" lon="7.67142">
        <ele>2107</ele>
        <time>2017-09-17T13:59:37Z</time>
      </trkpt>
      <trkpt lat="44.15844" lon="7.67144">
        <ele>2107</ele>
        <time>2017-09-17T13:59:38Z</time>
      </trkpt>
      <trkpt lat="44.15842" lon="7.67145">
        <ele>2107</ele>
        <time>2017-09-17T13:59:39Z</time>
      </trkpt>
      <trkpt lat="44.1584" lon="7.67147">
        <ele>2108</ele>
        <time>2017-09-17T13:59:40Z</time>
      </trkpt>
      <trkpt lat="44.15839" lon="7.67149">
        <ele>2108</ele>
        <time>2017-09-17T13:59:41Z</time>
      </trkpt>
      <trkpt lat="44.15839" lon="7.6715">
        <ele>2108</ele>
        <time>2017-09-17T13:59:42Z</time>
      </trkpt>
      <trkpt lat="44.15839" lon="7.67151">
        <ele>2108</ele>
        <time>2017-09-17T13:59:43Z</time>
      </trkpt>
      <trkpt lat="44.15839" lon="7.67152">
        <ele>2109</ele>
        <time>2017-09-17T13:59:44Z</time>
      </trkpt>
      <trkpt lat="44.15839" lon="7.67152">
        <ele>2109</ele>
        <time>2017-09-17T13:59:45Z</time>
      </trkpt>
      <trkpt lat="44.15839" lon="7.67152">
        <ele>2109</ele>
        <time>2017-09-17T13:59:46Z</time>
      </trkpt>
      <trkpt lat="44.15839" lon="7.67151">
        <ele>2109</ele>
        <time>2017-09-17T13:59:47Z</time>
      </trkpt>
      <trkpt lat="44.15839" lon="7.67151">
        <ele>2109</ele>
        <time>2017-09-17T13:59:48Z</time>
      </trkpt>
      <trkpt lat="44.15839" lon="7.67151">
        <ele>2109</ele>
        <time>2017-09-17T13:59:49Z</time>
      </trkpt>
      <trkpt lat="44.15839" lon="7.67151">
        <ele>2109</ele>
        <time>2017-09-17T13:59:50Z</time>
      </trkpt>
      <trkpt lat="44.15839" lon="7.67151">
        <ele>2109</ele>
        <time>2017-09-17T13:59:51Z</time>
      </trkpt>
      <trkpt lat="44.15839" lon="7.67151">
        <ele>2109</ele>
        <time>2017-09-17T13:59:52Z</time>
      </trkpt>
      <trkpt lat="44.15839" lon="7.67151">
        <ele>2109</ele>
        <time>2017-09-17T13:59:53Z</time>
      </trkpt>
      <trkpt lat="44.15839" lon="7.67151">
        <ele>2109</ele>
        <time>2017-09-17T13:59:54Z</time>
      </trkpt>
      <trkpt lat="44.15839" lon="7.67151">
        <ele>2109</ele>
        <time>2017-09-17T13:59:55Z</time>
      </trkpt>
      <trkpt lat="44.1584" lon="7.67151">
        <ele>2109</ele>
        <time>2017-09-17T13:59:56Z</time>
      </trkpt>
      <trkpt lat="44.1584" lon="7.67151">
        <ele>2109</ele>
        <time>2017-09-17T13:59:57Z</time>
      </trkpt>
      <trkpt lat="44.1584" lon="7.67151">
        <ele>2109</ele>
        <time>2017-09-17T13:59:58Z</time>
      </trkpt>
      <trkpt lat="44.1584" lon="7.67151">
        <ele>2109</ele>
        <time>2017-09-17T13:59:59Z</time>
      </trkpt>
      <trkpt lat="44.1584" lon="7.67151">
        <ele>2109</ele>
        <time>2017-09-17T14:00:00Z</time>
      </trkpt>
      <trkpt lat="44.1584" lon="7.67151">
        <ele>2109</ele>
        <time>2017-09-17T14:00:01Z</time>
      </trkpt>
      <trkpt lat="44.1584" lon="7.67151">
        <ele>2109</ele>
        <time>2017-09-17T14:00:02Z</time>
      </trkpt>
      <trkpt lat="44.1584" lon="7.67151">
        <ele>2109</ele>
        <time>2017-09-17T14:00:03Z</time>
      </trkpt>
      <trkpt lat="44.1584" lon="7.67151">
        <ele>2109</ele>
        <time>2017-09-17T14:00:04Z</time>
      </trkpt>
      <trkpt lat="44.1584" lon="7.67151">
        <ele>2110</ele>
        <time>2017-09-17T14:00:05Z</time>
      </trkpt>
      <trkpt lat="44.1584" lon="7.67151">
        <ele>2110</ele>
        <time>2017-09-17T14:00:06Z</time>
      </trkpt>
      <trkpt lat="44.1584" lon="7.67151">
        <ele>2110</ele>
        <time>2017-09-17T14:00:07Z</time>
      </trkpt>
      <trkpt lat="44.1584" lon="7.67151">
        <ele>2110</ele>
        <time>2017-09-17T14:00:08Z</time>
      </trkpt>
      <trkpt lat="44.1584" lon="7.67151">
        <ele>2110</ele>
        <time>2017-09-17T14:00:09Z</time>
      </trkpt>
      <trkpt lat="44.1584" lon="7.67151">
        <ele>2110</ele>
        <time>2017-09-17T14:00:10Z</time>
      </trkpt>
      <trkpt lat="44.1584" lon="7.67151">
        <ele>2110</ele>
        <time>2017-09-17T14:00:11Z</time>
      </trkpt>
      <trkpt lat="44.1584" lon="7.67151">
        <ele>2110</ele>
        <time>2017-09-17T14:00:12Z</time>
      </trkpt>
      <trkpt lat="44.1584" lon="7.67151">
        <ele>2110</ele>
        <time>2017-09-17T14:00:13Z</time>
      </trkpt>
      <trkpt lat="44.1584" lon="7.67151">
        <ele>2110</ele>
        <time>2017-09-17T14:00:14Z</time>
      </trkpt>
      <trkpt lat="44.1584" lon="7.67151">
        <ele>2110</ele>
        <time>2017-09-17T14:00:15Z</time>
      </trkpt>
      <trkpt lat="44.1584" lon="7.67151">
        <ele>2110</ele>
        <time>2017-09-17T14:00:16Z</time>
      </trkpt>
      <trkpt lat="44.1584" lon="7.67151">
        <ele>2110</ele>
        <time>2017-09-17T14:00:17Z</time>
      </trkpt>
      <trkpt lat="44.1584" lon="7.67151">
        <ele>2110</ele>
        <time>2017-09-17T14:00:18Z</time>
      </trkpt>
      <trkpt lat="44.1584" lon="7.67151">
        <ele>2110</ele>
        <time>2017-09-17T14:00:19Z</time>
      </trkpt>
      <trkpt lat="44.1584" lon="7.67151">
        <ele>2110</ele>
        <time>2017-09-17T14:00:20Z</time>
      </trkpt>
      <trkpt lat="44.1584" lon="7.67151">
        <ele>2110</ele>
        <time>2017-09-17T14:00:21Z</time>
      </trkpt>
      <trkpt lat="44.1584" lon="7.67151">
        <ele>2110</ele>
        <time>2017-09-17T14:00:22Z</time>
      </trkpt>
      <trkpt lat="44.1584" lon="7.67151">
        <ele>2110</ele>
        <time>2017-09-17T14:00:23Z</time>
      </trkpt>
      <trkpt lat="44.1584" lon="7.67151">
        <ele>2110</ele>
        <time>2017-09-17T14:00:24Z</time>
      </trkpt>
      <trkpt lat="44.1584" lon="7.67151">
        <ele>2110</ele>
        <time>2017-09-17T14:00:25Z</time>
      </trkpt>
      <trkpt lat="44.1584" lon="7.67151">
        <ele>2110</ele>
        <time>2017-09-17T14:00:26Z</time>
      </trkpt>
      <trkpt lat="44.1584" lon="7.67151">
        <ele>2110</ele>
        <time>2017-09-17T14:00:27Z</time>
      </trkpt>
      <trkpt lat="44.1584" lon="7.67151">
        <ele>2110</ele>
        <time>2017-09-17T14:00:28Z</time>
      </trkpt>
      <trkpt lat="44.1584" lon="7.67151">
        <ele>2110</ele>
        <time>2017-09-17T14:00:29Z</time>
      </trkpt>
      <trkpt lat="44.1584" lon="7.67151">
        <ele>2110</ele>
        <time>2017-09-17T14:00:30Z</time>
      </trkpt>
      <trkpt lat="44.1584" lon="7.67151">
        <ele>2110</ele>
        <time>2017-09-17T14:00:31Z</time>
      </trkpt>
      <trkpt lat="44.1584" lon="7.67151">
        <ele>2110</ele>
        <time>2017-09-17T14:00:32Z</time>
      </trkpt>
      <trkpt lat="44.1584" lon="7.67151">
        <ele>2110</ele>
        <time>2017-09-17T14:00:33Z</time>
      </trkpt>
      <trkpt lat="44.1584" lon="7.67151">
        <ele>2110</ele>
        <time>2017-09-17T14:00:34Z</time>
      </trkpt>
      <trkpt lat="44.1584" lon="7.67151">
        <ele>2110</ele>
        <time>2017-09-17T14:00:35Z</time>
      </trkpt>
      <trkpt lat="44.1584" lon="7.67151">
        <ele>2110</ele>
        <time>2017-09-17T14:00:36Z</time>
      </trkpt>
      <trkpt lat="44.1584" lon="7.67151">
        <ele>2110</ele>
        <time>2017-09-17T14:00:37Z</time>
      </trkpt>
      <trkpt lat="44.1584" lon="7.67151">
        <ele>2110</ele>
        <time>2017-09-17T14:00:38Z</time>
      </trkpt>
      <trkpt lat="44.1584" lon="7.67151">
        <ele>2110</ele>
        <time>2017-09-17T14:00:39Z</time>
      </trkpt>
      <trkpt lat="44.1584" lon="7.67151">
        <ele>2110</ele>
        <time>2017-09-17T14:00:40Z</time>
      </trkpt>
      <trkpt lat="44.1584" lon="7.67151">
        <ele>2110</ele>
        <time>2017-09-17T14:00:41Z</time>
      </trkpt>
      <trkpt lat="44.1584" lon="7.67151">
        <ele>2110</ele>
        <time>2017-09-17T14:00:42Z</time>
      </trkpt>
      <trkpt lat="44.1584" lon="7.67151">
        <ele>2110</ele>
        <time>2017-09-17T14:00:43Z</time>
      </trkpt>
      <trkpt lat="44.1584" lon="7.67151">
        <ele>2110</ele>
        <time>2017-09-17T14:00:44Z</time>
      </trkpt>
      <trkpt lat="44.1584" lon="7.67151">
        <ele>2110</ele>
        <time>2017-09-17T14:00:45Z</time>
      </trkpt>
      <trkpt lat="44.1584" lon="7.67151">
        <ele>2110</ele>
        <time>2017-09-17T14:00:46Z</time>
      </trkpt>
      <trkpt lat="44.1584" lon="7.67151">
        <ele>2110</ele>
        <time>2017-09-17T14:00:47Z</time>
      </trkpt>
      <trkpt lat="44.1584" lon="7.67151">
        <ele>2110</ele>
        <time>2017-09-17T14:00:48Z</time>
      </trkpt>
      <trkpt lat="44.1584" lon="7.67151">
        <ele>2110</ele>
        <time>2017-09-17T14:00:49Z</time>
      </trkpt>
      <trkpt lat="44.1584" lon="7.67151">
        <ele>2110</ele>
        <time>2017-09-17T14:00:50Z</time>
      </trkpt>
      <trkpt lat="44.1584" lon="7.67151">
        <ele>2110</ele>
        <time>2017-09-17T14:00:51Z</time>
      </trkpt>
      <trkpt lat="44.1584" lon="7.67151">
        <ele>2110</ele>
        <time>2017-09-17T14:00:52Z</time>
      </trkpt>
      <trkpt lat="44.1584" lon="7.67151">
        <ele>2110</ele>
        <time>2017-09-17T14:00:53Z</time>
      </trkpt>
      <trkpt lat="44.1584" lon="7.67151">
        <ele>2110</ele>
        <time>2017-09-17T14:00:54Z</time>
      </trkpt>
      <trkpt lat="44.1584" lon="7.67151">
        <ele>2110</ele>
        <time>2017-09-17T14:00:55Z</time>
      </trkpt>
      <trkpt lat="44.1584" lon="7.67151">
        <ele>2110</ele>
        <time>2017-09-17T14:00:56Z</time>
      </trkpt>
      <trkpt lat="44.1584" lon="7.67151">
        <ele>2110</ele>
        <time>2017-09-17T14:00:57Z</time>
      </trkpt>
      <trkpt lat="44.1584" lon="7.67151">
        <ele>2110</ele>
        <time>2017-09-17T14:00:58Z</time>
      </trkpt>
      <trkpt lat="44.1584" lon="7.67151">
        <ele>2110</ele>
        <time>2017-09-17T14:00:59Z</time>
      </trkpt>
      <trkpt lat="44.1584" lon="7.67151">
        <ele>2110</ele>
        <time>2017-09-17T14:01:00Z</time>
      </trkpt>
      <trkpt lat="44.1584" lon="7.67151">
        <ele>2110</ele>
        <time>2017-09-17T14:01:01Z</time>
      </trkpt>
      <trkpt lat="44.1584" lon="7.67151">
        <ele>2110</ele>
        <time>2017-09-17T14:01:02Z</time>
      </trkpt>
      <trkpt lat="44.1584" lon="7.67151">
        <ele>2110</ele>
        <time>2017-09-17T14:01:03Z</time>
      </trkpt>
      <trkpt lat="44.1584" lon="7.67151">
        <ele>2110</ele>
        <time>2017-09-17T14:01:04Z</time>
      </trkpt>
      <trkpt lat="44.1584" lon="7.67151">
        <ele>2110</ele>
        <time>2017-09-17T14:01:05Z</time>
      </trkpt>
      <trkpt lat="44.1584" lon="7.67151">
        <ele>2110</ele>
        <time>2017-09-17T14:01:06Z</time>
      </trkpt>
      <trkpt lat="44.1584" lon="7.67151">
        <ele>2110</ele>
        <time>2017-09-17T14:01:07Z</time>
      </trkpt>
      <trkpt lat="44.1584" lon="7.67151">
        <ele>2110</ele>
        <time>2017-09-17T14:01:08Z</time>
      </trkpt>
      <trkpt lat="44.1584" lon="7.67151">
        <ele>2110</ele>
        <time>2017-09-17T14:01:09Z</time>
      </trkpt>
      <trkpt lat="44.1584" lon="7.67151">
        <ele>2110</ele>
        <time>2017-09-17T14:01:10Z</time>
      </trkpt>
      <trkpt lat="44.1584" lon="7.67151">
        <ele>2110</ele>
        <time>2017-09-17T14:01:11Z</time>
      </trkpt>
      <trkpt lat="44.1584" lon="7.67151">
        <ele>2110</ele>
        <time>2017-09-17T14:01:12Z</time>
      </trkpt>
      <trkpt lat="44.1584" lon="7.67151">
        <ele>2110</ele>
        <time>2017-09-17T14:01:13Z</time>
      </trkpt>
      <trkpt lat="44.1584" lon="7.67151">
        <ele>2110</ele>
        <time>2017-09-17T14:01:14Z</time>
      </trkpt>
      <trkpt lat="44.1584" lon="7.67151">
        <ele>2110</ele>
        <time>2017-09-17T14:01:15Z</time>
      </trkpt>
      <trkpt lat="44.1584" lon="7.67151">
        <ele>2110</ele>
        <time>2017-09-17T14:01:16Z</time>
      </trkpt>
      <trkpt lat="44.1584" lon="7.67151">
        <ele>2110</ele>
        <time>2017-09-17T14:01:17Z</time>
      </trkpt>
      <trkpt lat="44.1584" lon="7.67151">
        <ele>2110</ele>
        <time>2017-09-17T14:01:18Z</time>
      </trkpt>
      <trkpt lat="44.1584" lon="7.67151">
        <ele>2110</ele>
        <time>2017-09-17T14:01:19Z</time>
      </trkpt>
      <trkpt lat="44.1584" lon="7.67151">
        <ele>2110</ele>
        <time>2017-09-17T14:01:20Z</time>
      </trkpt>
      <trkpt lat="44.1584" lon="7.67151">
        <ele>2110</ele>
        <time>2017-09-17T14:01:21Z</time>
      </trkpt>
      <trkpt lat="44.1584" lon="7.67151">
        <ele>2110</ele>
        <time>2017-09-17T14:01:22Z</time>
      </trkpt>
      <trkpt lat="44.1584" lon="7.67151">
        <ele>2110</ele>
        <time>2017-09-17T14:01:23Z</time>
      </trkpt>
      <trkpt lat="44.1584" lon="7.67151">
        <ele>2110</ele>
        <time>2017-09-17T14:01:24Z</time>
      </trkpt>
      <trkpt lat="44.1584" lon="7.67151">
        <ele>2110</ele>
        <time>2017-09-17T14:01:25Z</time>
      </trkpt>
      <trkpt lat="44.1584" lon="7.67151">
        <ele>2110</ele>
        <time>2017-09-17T14:01:26Z</time>
      </trkpt>
      <trkpt lat="44.1584" lon="7.67151">
        <ele>2110</ele>
        <time>2017-09-17T14:01:27Z</time>
      </trkpt>
      <trkpt lat="44.1584" lon="7.67151">
        <ele>2110</ele>
        <time>2017-09-17T14:01:28Z</time>
      </trkpt>
      <trkpt lat="44.1584" lon="7.67151">
        <ele>2110</ele>
        <time>2017-09-17T14:01:29Z</time>
      </trkpt>
      <trkpt lat="44.1584" lon="7.67151">
        <ele>2111</ele>
        <time>2017-09-17T14:01:30Z</time>
      </trkpt>
      <trkpt lat="44.1584" lon="7.67151">
        <ele>2111</ele>
        <time>2017-09-17T14:01:31Z</time>
      </trkpt>
      <trkpt lat="44.1584" lon="7.67151">
        <ele>2111</ele>
        <time>2017-09-17T14:01:32Z</time>
      </trkpt>
      <trkpt lat="44.1584" lon="7.67151">
        <ele>2111</ele>
        <time>2017-09-17T14:01:33Z</time>
      </trkpt>
      <trkpt lat="44.1584" lon="7.67151">
        <ele>2111</ele>
        <time>2017-09-17T14:01:34Z</time>
      </trkpt>
      <trkpt lat="44.1584" lon="7.67151">
        <ele>2111</ele>
        <time>2017-09-17T14:01:35Z</time>
      </trkpt>
      <trkpt lat="44.1584" lon="7.67151">
        <ele>2111</ele>
        <time>2017-09-17T14:01:36Z</time>
      </trkpt>
      <trkpt lat="44.1584" lon="7.67151">
        <ele>2111</ele>
        <time>2017-09-17T14:01:37Z</time>
      </trkpt>
      <trkpt lat="44.1584" lon="7.67151">
        <ele>2111</ele>
        <time>2017-09-17T14:01:38Z</time>
      </trkpt>
      <trkpt lat="44.1584" lon="7.67151">
        <ele>2111</ele>
        <time>2017-09-17T14:01:39Z</time>
      </trkpt>
      <trkpt lat="44.1584" lon="7.67151">
        <ele>2111</ele>
        <time>2017-09-17T14:01:40Z</time>
      </trkpt>
      <trkpt lat="44.1584" lon="7.67151">
        <ele>2111</ele>
        <time>2017-09-17T14:01:41Z</time>
      </trkpt>
      <trkpt lat="44.1584" lon="7.67151">
        <ele>2111</ele>
        <time>2017-09-17T14:01:42Z</time>
      </trkpt>
      <trkpt lat="44.15839" lon="7.67151">
        <ele>2111</ele>
        <time>2017-09-17T14:01:43Z</time>
      </trkpt>
      <trkpt lat="44.15839" lon="7.67151">
        <ele>2111</ele>
        <time>2017-09-17T14:01:44Z</time>
      </trkpt>
      <trkpt lat="44.15839" lon="7.67151">
        <ele>2111</ele>
        <time>2017-09-17T14:01:45Z</time>
      </trkpt>
      <trkpt lat="44.15839" lon="7.67151">
        <ele>2111</ele>
        <time>2017-09-17T14:01:46Z</time>
      </trkpt>
      <trkpt lat="44.15839" lon="7.67151">
        <ele>2111</ele>
        <time>2017-09-17T14:01:47Z</time>
      </trkpt>
      <trkpt lat="44.15839" lon="7.67151">
        <ele>2111</ele>
        <time>2017-09-17T14:01:48Z</time>
      </trkpt>
      <trkpt lat="44.15839" lon="7.67151">
        <ele>2111</ele>
        <time>2017-09-17T14:01:49Z</time>
      </trkpt>
      <trkpt lat="44.15839" lon="7.67151">
        <ele>2111</ele>
        <time>2017-09-17T14:01:50Z</time>
      </trkpt>
      <trkpt lat="44.15839" lon="7.67151">
        <ele>2111</ele>
        <time>2017-09-17T14:01:51Z</time>
      </trkpt>
      <trkpt lat="44.15839" lon="7.6715">
        <ele>2111</ele>
        <time>2017-09-17T14:01:52Z</time>
      </trkpt>
      <trkpt lat="44.15839" lon="7.67151">
        <ele>2111</ele>
        <time>2017-09-17T14:01:53Z</time>
      </trkpt>
      <trkpt lat="44.15838" lon="7.67151">
        <ele>2111</ele>
        <time>2017-09-17T14:01:54Z</time>
      </trkpt>
      <trkpt lat="44.15838" lon="7.67151">
        <ele>2111</ele>
        <time>2017-09-17T14:01:55Z</time>
      </trkpt>
      <trkpt lat="44.15838" lon="7.67151">
        <ele>2111</ele>
        <time>2017-09-17T14:01:56Z</time>
      </trkpt>
      <trkpt lat="44.15838" lon="7.67151">
        <ele>2111</ele>
        <time>2017-09-17T14:01:57Z</time>
      </trkpt>
      <trkpt lat="44.15838" lon="7.67151">
        <ele>2111</ele>
        <time>2017-09-17T14:01:58Z</time>
      </trkpt>
      <trkpt lat="44.15837" lon="7.67151">
        <ele>2111</ele>
        <time>2017-09-17T14:01:59Z</time>
      </trkpt>
      <trkpt lat="44.15836" lon="7.67152">
        <ele>2111</ele>
        <time>2017-09-17T14:02:00Z</time>
      </trkpt>
      <trkpt lat="44.15835" lon="7.67152">
        <ele>2111</ele>
        <time>2017-09-17T14:02:01Z</time>
      </trkpt>
      <trkpt lat="44.15833" lon="7.67152">
        <ele>2111</ele>
        <time>2017-09-17T14:02:02Z</time>
      </trkpt>
      <trkpt lat="44.15832" lon="7.67152">
        <ele>2111</ele>
        <time>2017-09-17T14:02:03Z</time>
      </trkpt>
      <trkpt lat="44.1583" lon="7.67152">
        <ele>2111</ele>
        <time>2017-09-17T14:02:04Z</time>
      </trkpt>
      <trkpt lat="44.15828" lon="7.67152">
        <ele>2112</ele>
        <time>2017-09-17T14:02:05Z</time>
      </trkpt>
      <trkpt lat="44.15827" lon="7.67152">
        <ele>2112</ele>
        <time>2017-09-17T14:02:06Z</time>
      </trkpt>
      <trkpt lat="44.15825" lon="7.67152">
        <ele>2112</ele>
        <time>2017-09-17T14:02:07Z</time>
      </trkpt>
      <trkpt lat="44.15823" lon="7.67152">
        <ele>2112</ele>
        <time>2017-09-17T14:02:08Z</time>
      </trkpt>
      <trkpt lat="44.15821" lon="7.67152">
        <ele>2112</ele>
        <time>2017-09-17T14:02:09Z</time>
      </trkpt>
      <trkpt lat="44.1582" lon="7.67152">
        <ele>2112</ele>
        <time>2017-09-17T14:02:10Z</time>
      </trkpt>
      <trkpt lat="44.15818" lon="7.67152">
        <ele>2113</ele>
        <time>2017-09-17T14:02:11Z</time>
      </trkpt>
      <trkpt lat="44.15817" lon="7.67152">
        <ele>2113</ele>
        <time>2017-09-17T14:02:12Z</time>
      </trkpt>
      <trkpt lat="44.15815" lon="7.67152">
        <ele>2113</ele>
        <time>2017-09-17T14:02:13Z</time>
      </trkpt>
      <trkpt lat="44.15814" lon="7.67152">
        <ele>2113</ele>
        <time>2017-09-17T14:02:14Z</time>
      </trkpt>
      <trkpt lat="44.15812" lon="7.67152">
        <ele>2113</ele>
        <time>2017-09-17T14:02:15Z</time>
      </trkpt>
      <trkpt lat="44.15809" lon="7.67151">
        <ele>2113</ele>
        <time>2017-09-17T14:02:16Z</time>
      </trkpt>
      <trkpt lat="44.15806" lon="7.6715">
        <ele>2114</ele>
        <time>2017-09-17T14:02:17Z</time>
      </trkpt>
      <trkpt lat="44.15803" lon="7.67148">
        <ele>2114</ele>
        <time>2017-09-17T14:02:18Z</time>
      </trkpt>
      <trkpt lat="44.158" lon="7.67147">
        <ele>2114</ele>
        <time>2017-09-17T14:02:19Z</time>
      </trkpt>
      <trkpt lat="44.15798" lon="7.67145">
        <ele>2115</ele>
        <time>2017-09-17T14:02:20Z</time>
      </trkpt>
      <trkpt lat="44.15795" lon="7.67142">
        <ele>2115</ele>
        <time>2017-09-17T14:02:21Z</time>
      </trkpt>
      <trkpt lat="44.15792" lon="7.6714">
        <ele>2115</ele>
        <time>2017-09-17T14:02:22Z</time>
      </trkpt>
      <trkpt lat="44.1579" lon="7.67137">
        <ele>2115</ele>
        <time>2017-09-17T14:02:23Z</time>
      </trkpt>
      <trkpt lat="44.15787" lon="7.67135">
        <ele>2116</ele>
        <time>2017-09-17T14:02:24Z</time>
      </trkpt>
      <trkpt lat="44.15785" lon="7.67132">
        <ele>2116</ele>
        <time>2017-09-17T14:02:25Z</time>
      </trkpt>
      <trkpt lat="44.15782" lon="7.6713">
        <ele>2116</ele>
        <time>2017-09-17T14:02:26Z</time>
      </trkpt>
      <trkpt lat="44.15779" lon="7.67128">
        <ele>2117</ele>
        <time>2017-09-17T14:02:27Z</time>
      </trkpt>
      <trkpt lat="44.15777" lon="7.67126">
        <ele>2117</ele>
        <time>2017-09-17T14:02:28Z</time>
      </trkpt>
      <trkpt lat="44.15774" lon="7.67124">
        <ele>2117</ele>
        <time>2017-09-17T14:02:29Z</time>
      </trkpt>
      <trkpt lat="44.15771" lon="7.67123">
        <ele>2118</ele>
        <time>2017-09-17T14:02:30Z</time>
      </trkpt>
      <trkpt lat="44.15768" lon="7.67122">
        <ele>2118</ele>
        <time>2017-09-17T14:02:31Z</time>
      </trkpt>
      <trkpt lat="44.15765" lon="7.67121">
        <ele>2118</ele>
        <time>2017-09-17T14:02:32Z</time>
      </trkpt>
      <trkpt lat="44.15763" lon="7.67121">
        <ele>2118</ele>
        <time>2017-09-17T14:02:33Z</time>
      </trkpt>
      <trkpt lat="44.1576" lon="7.67121">
        <ele>2119</ele>
        <time>2017-09-17T14:02:34Z</time>
      </trkpt>
      <trkpt lat="44.15757" lon="7.6712">
        <ele>2119</ele>
        <time>2017-09-17T14:02:35Z</time>
      </trkpt>
      <trkpt lat="44.15754" lon="7.6712">
        <ele>2119</ele>
        <time>2017-09-17T14:02:36Z</time>
      </trkpt>
      <trkpt lat="44.15751" lon="7.67119">
        <ele>2120</ele>
        <time>2017-09-17T14:02:37Z</time>
      </trkpt>
      <trkpt lat="44.15749" lon="7.67118">
        <ele>2120</ele>
        <time>2017-09-17T14:02:38Z</time>
      </trkpt>
      <trkpt lat="44.15746" lon="7.67116">
        <ele>2120</ele>
        <time>2017-09-17T14:02:39Z</time>
      </trkpt>
      <trkpt lat="44.15743" lon="7.67115">
        <ele>2120</ele>
        <time>2017-09-17T14:02:40Z</time>
      </trkpt>
      <trkpt lat="44.15741" lon="7.67114">
        <ele>2121</ele>
        <time>2017-09-17T14:02:41Z</time>
      </trkpt>
      <trkpt lat="44.15738" lon="7.67113">
        <ele>2121</ele>
        <time>2017-09-17T14:02:42Z</time>
      </trkpt>
      <trkpt lat="44.15735" lon="7.67112">
        <ele>2121</ele>
        <time>2017-09-17T14:02:43Z</time>
      </trkpt>
      <trkpt lat="44.15733" lon="7.67111">
        <ele>2122</ele>
        <time>2017-09-17T14:02:44Z</time>
      </trkpt>
      <trkpt lat="44.1573" lon="7.6711">
        <ele>2122</ele>
        <time>2017-09-17T14:02:45Z</time>
      </trkpt>
      <trkpt lat="44.15727" lon="7.67109">
        <ele>2122</ele>
        <time>2017-09-17T14:02:46Z</time>
      </trkpt>
      <trkpt lat="44.15724" lon="7.67108">
        <ele>2123</ele>
        <time>2017-09-17T14:02:47Z</time>
      </trkpt>
      <trkpt lat="44.15722" lon="7.67108">
        <ele>2123</ele>
        <time>2017-09-17T14:02:48Z</time>
      </trkpt>
      <trkpt lat="44.15719" lon="7.67107">
        <ele>2123</ele>
        <time>2017-09-17T14:02:49Z</time>
      </trkpt>
      <trkpt lat="44.15716" lon="7.67107">
        <ele>2124</ele>
        <time>2017-09-17T14:02:50Z</time>
      </trkpt>
      <trkpt lat="44.15713" lon="7.67107">
        <ele>2124</ele>
        <time>2017-09-17T14:02:51Z</time>
      </trkpt>
      <trkpt lat="44.1571" lon="7.67106">
        <ele>2124</ele>
        <time>2017-09-17T14:02:52Z</time>
      </trkpt>
      <trkpt lat="44.15707" lon="7.67106">
        <ele>2124</ele>
        <time>2017-09-17T14:02:53Z</time>
      </trkpt>
      <trkpt lat="44.15705" lon="7.67106">
        <ele>2125</ele>
        <time>2017-09-17T14:02:54Z</time>
      </trkpt>
      <trkpt lat="44.15702" lon="7.67107">
        <ele>2125</ele>
        <time>2017-09-17T14:02:55Z</time>
      </trkpt>
      <trkpt lat="44.15699" lon="7.67107">
        <ele>2125</ele>
        <time>2017-09-17T14:02:56Z</time>
      </trkpt>
      <trkpt lat="44.15697" lon="7.67107">
        <ele>2126</ele>
        <time>2017-09-17T14:02:57Z</time>
      </trkpt>
      <trkpt lat="44.15694" lon="7.67108">
        <ele>2126</ele>
        <time>2017-09-17T14:02:58Z</time>
      </trkpt>
      <trkpt lat="44.15691" lon="7.67108">
        <ele>2126</ele>
        <time>2017-09-17T14:02:59Z</time>
      </trkpt>
      <trkpt lat="44.15689" lon="7.67108">
        <ele>2127</ele>
        <time>2017-09-17T14:03:00Z</time>
      </trkpt>
      <trkpt lat="44.15687" lon="7.67109">
        <ele>2127</ele>
        <time>2017-09-17T14:03:01Z</time>
      </trkpt>
      <trkpt lat="44.15684" lon="7.67109">
        <ele>2127</ele>
        <time>2017-09-17T14:03:02Z</time>
      </trkpt>
      <trkpt lat="44.15682" lon="7.6711">
        <ele>2127</ele>
        <time>2017-09-17T14:03:03Z</time>
      </trkpt>
      <trkpt lat="44.15679" lon="7.6711">
        <ele>2128</ele>
        <time>2017-09-17T14:03:04Z</time>
      </trkpt>
      <trkpt lat="44.15677" lon="7.67111">
        <ele>2128</ele>
        <time>2017-09-17T14:03:05Z</time>
      </trkpt>
      <trkpt lat="44.15674" lon="7.67112">
        <ele>2128</ele>
        <time>2017-09-17T14:03:06Z</time>
      </trkpt>
      <trkpt lat="44.15672" lon="7.67114">
        <ele>2128</ele>
        <time>2017-09-17T14:03:07Z</time>
      </trkpt>
      <trkpt lat="44.15669" lon="7.67115">
        <ele>2129</ele>
        <time>2017-09-17T14:03:08Z</time>
      </trkpt>
      <trkpt lat="44.15667" lon="7.67117">
        <ele>2129</ele>
        <time>2017-09-17T14:03:09Z</time>
      </trkpt>
      <trkpt lat="44.15665" lon="7.67119">
        <ele>2129</ele>
        <time>2017-09-17T14:03:10Z</time>
      </trkpt>
      <trkpt lat="44.15663" lon="7.67121">
        <ele>2130</ele>
        <time>2017-09-17T14:03:11Z</time>
      </trkpt>
      <trkpt lat="44.15661" lon="7.67123">
        <ele>2130</ele>
        <time>2017-09-17T14:03:12Z</time>
      </trkpt>
      <trkpt lat="44.15659" lon="7.67125">
        <ele>2130</ele>
        <time>2017-09-17T14:03:13Z</time>
      </trkpt>
      <trkpt lat="44.15657" lon="7.67127">
        <ele>2130</ele>
        <time>2017-09-17T14:03:14Z</time>
      </trkpt>
      <trkpt lat="44.15655" lon="7.6713">
        <ele>2131</ele>
        <time>2017-09-17T14:03:15Z</time>
      </trkpt>
      <trkpt lat="44.15652" lon="7.67132">
        <ele>2131</ele>
        <time>2017-09-17T14:03:16Z</time>
      </trkpt>
      <trkpt lat="44.1565" lon="7.67134">
        <ele>2131</ele>
        <time>2017-09-17T14:03:17Z</time>
      </trkpt>
      <trkpt lat="44.15648" lon="7.67136">
        <ele>2132</ele>
        <time>2017-09-17T14:03:18Z</time>
      </trkpt>
      <trkpt lat="44.15646" lon="7.67138">
        <ele>2132</ele>
        <time>2017-09-17T14:03:19Z</time>
      </trkpt>
      <trkpt lat="44.15643" lon="7.67139">
        <ele>2132</ele>
        <time>2017-09-17T14:03:20Z</time>
      </trkpt>
      <trkpt lat="44.15641" lon="7.67141">
        <ele>2132</ele>
        <time>2017-09-17T14:03:21Z</time>
      </trkpt>
      <trkpt lat="44.15639" lon="7.67143">
        <ele>2133</ele>
        <time>2017-09-17T14:03:22Z</time>
      </trkpt>
      <trkpt lat="44.15636" lon="7.67144">
        <ele>2133</ele>
        <time>2017-09-17T14:03:23Z</time>
      </trkpt>
      <trkpt lat="44.15634" lon="7.67145">
        <ele>2133</ele>
        <time>2017-09-17T14:03:24Z</time>
      </trkpt>
      <trkpt lat="44.15631" lon="7.67146">
        <ele>2133</ele>
        <time>2017-09-17T14:03:25Z</time>
      </trkpt>
      <trkpt lat="44.15628" lon="7.67146">
        <ele>2134</ele>
        <time>2017-09-17T14:03:26Z</time>
      </trkpt>
      <trkpt lat="44.15626" lon="7.67146">
        <ele>2134</ele>
        <time>2017-09-17T14:03:27Z</time>
      </trkpt>
      <trkpt lat="44.15623" lon="7.67146">
        <ele>2134</ele>
        <time>2017-09-17T14:03:28Z</time>
      </trkpt>
      <trkpt lat="44.1562" lon="7.67147">
        <ele>2135</ele>
        <time>2017-09-17T14:03:29Z</time>
      </trkpt>
      <trkpt lat="44.15618" lon="7.67147">
        <ele>2135</ele>
        <time>2017-09-17T14:03:30Z</time>
      </trkpt>
      <trkpt lat="44.15615" lon="7.67148">
        <ele>2136</ele>
        <time>2017-09-17T14:03:31Z</time>
      </trkpt>
      <trkpt lat="44.15613" lon="7.67148">
        <ele>2136</ele>
        <time>2017-09-17T14:03:32Z</time>
      </trkpt>
      <trkpt lat="44.1561" lon="7.67148">
        <ele>2136</ele>
        <time>2017-09-17T14:03:33Z</time>
      </trkpt>
      <trkpt lat="44.15608" lon="7.67148">
        <ele>2137</ele>
        <time>2017-09-17T14:03:34Z</time>
      </trkpt>
      <trkpt lat="44.15606" lon="7.67148">
        <ele>2137</ele>
        <time>2017-09-17T14:03:35Z</time>
      </trkpt>
      <trkpt lat="44.15603" lon="7.67148">
        <ele>2137</ele>
        <time>2017-09-17T14:03:36Z</time>
      </trkpt>
      <trkpt lat="44.15601" lon="7.67147">
        <ele>2138</ele>
        <time>2017-09-17T14:03:37Z</time>
      </trkpt>
      <trkpt lat="44.15598" lon="7.67147">
        <ele>2138</ele>
        <time>2017-09-17T14:03:38Z</time>
      </trkpt>
      <trkpt lat="44.15596" lon="7.67146">
        <ele>2138</ele>
        <time>2017-09-17T14:03:39Z</time>
      </trkpt>
      <trkpt lat="44.15594" lon="7.67145">
        <ele>2139</ele>
        <time>2017-09-17T14:03:40Z</time>
      </trkpt>
      <trkpt lat="44.15591" lon="7.67144">
        <ele>2139</ele>
        <time>2017-09-17T14:03:41Z</time>
      </trkpt>
      <trkpt lat="44.15589" lon="7.67144">
        <ele>2139</ele>
        <time>2017-09-17T14:03:42Z</time>
      </trkpt>
      <trkpt lat="44.15586" lon="7.67144">
        <ele>2140</ele>
        <time>2017-09-17T14:03:43Z</time>
      </trkpt>
      <trkpt lat="44.15584" lon="7.67143">
        <ele>2140</ele>
        <time>2017-09-17T14:03:44Z</time>
      </trkpt>
      <trkpt lat="44.15582" lon="7.67143">
        <ele>2140</ele>
        <time>2017-09-17T14:03:45Z</time>
      </trkpt>
      <trkpt lat="44.1558" lon="7.67143">
        <ele>2141</ele>
        <time>2017-09-17T14:03:46Z</time>
      </trkpt>
      <trkpt lat="44.15577" lon="7.67142">
        <ele>2141</ele>
        <time>2017-09-17T14:03:47Z</time>
      </trkpt>
      <trkpt lat="44.15575" lon="7.67141">
        <ele>2142</ele>
        <time>2017-09-17T14:03:48Z</time>
      </trkpt>
      <trkpt lat="44.15573" lon="7.6714">
        <ele>2142</ele>
        <time>2017-09-17T14:03:49Z</time>
      </trkpt>
      <trkpt lat="44.1557" lon="7.67138">
        <ele>2142</ele>
        <time>2017-09-17T14:03:50Z</time>
      </trkpt>
      <trkpt lat="44.15569" lon="7.67135">
        <ele>2143</ele>
        <time>2017-09-17T14:03:51Z</time>
      </trkpt>
      <trkpt lat="44.15567" lon="7.67133">
        <ele>2143</ele>
        <time>2017-09-17T14:03:52Z</time>
      </trkpt>
      <trkpt lat="44.15566" lon="7.6713">
        <ele>2143</ele>
        <time>2017-09-17T14:03:53Z</time>
      </trkpt>
      <trkpt lat="44.15563" lon="7.67128">
        <ele>2144</ele>
        <time>2017-09-17T14:03:54Z</time>
      </trkpt>
      <trkpt lat="44.15561" lon="7.67125">
        <ele>2144</ele>
        <time>2017-09-17T14:03:55Z</time>
      </trkpt>
      <trkpt lat="44.15558" lon="7.67124">
        <ele>2144</ele>
        <time>2017-09-17T14:03:56Z</time>
      </trkpt>
      <trkpt lat="44.15556" lon="7.67123">
        <ele>2145</ele>
        <time>2017-09-17T14:03:57Z</time>
      </trkpt>
      <trkpt lat="44.15554" lon="7.67123">
        <ele>2145</ele>
        <time>2017-09-17T14:03:58Z</time>
      </trkpt>
      <trkpt lat="44.15551" lon="7.67123">
        <ele>2145</ele>
        <time>2017-09-17T14:03:59Z</time>
      </trkpt>
      <trkpt lat="44.15549" lon="7.67123">
        <ele>2145</ele>
        <time>2017-09-17T14:04:00Z</time>
      </trkpt>
      <trkpt lat="44.15546" lon="7.67123">
        <ele>2146</ele>
        <time>2017-09-17T14:04:01Z</time>
      </trkpt>
      <trkpt lat="44.15544" lon="7.67124">
        <ele>2146</ele>
        <time>2017-09-17T14:04:02Z</time>
      </trkpt>
      <trkpt lat="44.15541" lon="7.67124">
        <ele>2146</ele>
        <time>2017-09-17T14:04:03Z</time>
      </trkpt>
      <trkpt lat="44.15539" lon="7.67124">
        <ele>2147</ele>
        <time>2017-09-17T14:04:04Z</time>
      </trkpt>
      <trkpt lat="44.15537" lon="7.67123">
        <ele>2147</ele>
        <time>2017-09-17T14:04:05Z</time>
      </trkpt>
      <trkpt lat="44.15535" lon="7.67122">
        <ele>2147</ele>
        <time>2017-09-17T14:04:06Z</time>
      </trkpt>
      <trkpt lat="44.15533" lon="7.6712">
        <ele>2148</ele>
        <time>2017-09-17T14:04:07Z</time>
      </trkpt>
      <trkpt lat="44.15531" lon="7.67118">
        <ele>2148</ele>
        <time>2017-09-17T14:04:08Z</time>
      </trkpt>
      <trkpt lat="44.15529" lon="7.67116">
        <ele>2148</ele>
        <time>2017-09-17T14:04:09Z</time>
      </trkpt>
      <trkpt lat="44.15528" lon="7.67113">
        <ele>2148</ele>
        <time>2017-09-17T14:04:10Z</time>
      </trkpt>
      <trkpt lat="44.15527" lon="7.6711">
        <ele>2149</ele>
        <time>2017-09-17T14:04:11Z</time>
      </trkpt>
      <trkpt lat="44.15527" lon="7.67107">
        <ele>2149</ele>
        <time>2017-09-17T14:04:12Z</time>
      </trkpt>
      <trkpt lat="44.15525" lon="7.67104">
        <ele>2149</ele>
        <time>2017-09-17T14:04:13Z</time>
      </trkpt>
      <trkpt lat="44.15523" lon="7.67101">
        <ele>2150</ele>
        <time>2017-09-17T14:04:14Z</time>
      </trkpt>
      <trkpt lat="44.15521" lon="7.67099">
        <ele>2150</ele>
        <time>2017-09-17T14:04:15Z</time>
      </trkpt>
      <trkpt lat="44.15519" lon="7.67096">
        <ele>2150</ele>
        <time>2017-09-17T14:04:16Z</time>
      </trkpt>
      <trkpt lat="44.15517" lon="7.67094">
        <ele>2150</ele>
        <time>2017-09-17T14:04:17Z</time>
      </trkpt>
      <trkpt lat="44.15514" lon="7.67092">
        <ele>2151</ele>
        <time>2017-09-17T14:04:18Z</time>
      </trkpt>
      <trkpt lat="44.15511" lon="7.67091">
        <ele>2151</ele>
        <time>2017-09-17T14:04:19Z</time>
      </trkpt>
      <trkpt lat="44.15508" lon="7.6709">
        <ele>2151</ele>
        <time>2017-09-17T14:04:20Z</time>
      </trkpt>
      <trkpt lat="44.15505" lon="7.67089">
        <ele>2151</ele>
        <time>2017-09-17T14:04:21Z</time>
      </trkpt>
      <trkpt lat="44.15503" lon="7.67089">
        <ele>2152</ele>
        <time>2017-09-17T14:04:22Z</time>
      </trkpt>
      <trkpt lat="44.155" lon="7.67089">
        <ele>2152</ele>
        <time>2017-09-17T14:04:23Z</time>
      </trkpt>
      <trkpt lat="44.15497" lon="7.6709">
        <ele>2152</ele>
        <time>2017-09-17T14:04:24Z</time>
      </trkpt>
      <trkpt lat="44.15495" lon="7.67091">
        <ele>2153</ele>
        <time>2017-09-17T14:04:25Z</time>
      </trkpt>
      <trkpt lat="44.15493" lon="7.67093">
        <ele>2153</ele>
        <time>2017-09-17T14:04:26Z</time>
      </trkpt>
      <trkpt lat="44.15491" lon="7.67096">
        <ele>2154</ele>
        <time>2017-09-17T14:04:27Z</time>
      </trkpt>
      <trkpt lat="44.15489" lon="7.67098">
        <ele>2154</ele>
        <time>2017-09-17T14:04:28Z</time>
      </trkpt>
      <trkpt lat="44.15487" lon="7.67101">
        <ele>2154</ele>
        <time>2017-09-17T14:04:29Z</time>
      </trkpt>
      <trkpt lat="44.15484" lon="7.67104">
        <ele>2155</ele>
        <time>2017-09-17T14:04:30Z</time>
      </trkpt>
      <trkpt lat="44.15482" lon="7.67106">
        <ele>2155</ele>
        <time>2017-09-17T14:04:31Z</time>
      </trkpt>
      <trkpt lat="44.1548" lon="7.67109">
        <ele>2155</ele>
        <time>2017-09-17T14:04:32Z</time>
      </trkpt>
      <trkpt lat="44.15478" lon="7.67111">
        <ele>2156</ele>
        <time>2017-09-17T14:04:33Z</time>
      </trkpt>
      <trkpt lat="44.15476" lon="7.67113">
        <ele>2156</ele>
        <time>2017-09-17T14:04:34Z</time>
      </trkpt>
      <trkpt lat="44.15474" lon="7.67114">
        <ele>2157</ele>
        <time>2017-09-17T14:04:35Z</time>
      </trkpt>
      <trkpt lat="44.15471" lon="7.67116">
        <ele>2157</ele>
        <time>2017-09-17T14:04:36Z</time>
      </trkpt>
      <trkpt lat="44.15469" lon="7.67116">
        <ele>2157</ele>
        <time>2017-09-17T14:04:37Z</time>
      </trkpt>
      <trkpt lat="44.15466" lon="7.67116">
        <ele>2157</ele>
        <time>2017-09-17T14:04:38Z</time>
      </trkpt>
      <trkpt lat="44.15464" lon="7.67116">
        <ele>2158</ele>
        <time>2017-09-17T14:04:39Z</time>
      </trkpt>
      <trkpt lat="44.15461" lon="7.67116">
        <ele>2158</ele>
        <time>2017-09-17T14:04:40Z</time>
      </trkpt>
      <trkpt lat="44.15458" lon="7.67117">
        <ele>2158</ele>
        <time>2017-09-17T14:04:41Z</time>
      </trkpt>
      <trkpt lat="44.15456" lon="7.67118">
        <ele>2158</ele>
        <time>2017-09-17T14:04:42Z</time>
      </trkpt>
      <trkpt lat="44.15453" lon="7.6712">
        <ele>2159</ele>
        <time>2017-09-17T14:04:43Z</time>
      </trkpt>
      <trkpt lat="44.15451" lon="7.67121">
        <ele>2159</ele>
        <time>2017-09-17T14:04:44Z</time>
      </trkpt>
      <trkpt lat="44.15449" lon="7.67123">
        <ele>2159</ele>
        <time>2017-09-17T14:04:45Z</time>
      </trkpt>
      <trkpt lat="44.15447" lon="7.67125">
        <ele>2159</ele>
        <time>2017-09-17T14:04:46Z</time>
      </trkpt>
      <trkpt lat="44.15444" lon="7.67126">
        <ele>2159</ele>
        <time>2017-09-17T14:04:47Z</time>
      </trkpt>
      <trkpt lat="44.15442" lon="7.67127">
        <ele>2160</ele>
        <time>2017-09-17T14:04:48Z</time>
      </trkpt>
      <trkpt lat="44.15439" lon="7.67128">
        <ele>2160</ele>
        <time>2017-09-17T14:04:49Z</time>
      </trkpt>
      <trkpt lat="44.15437" lon="7.67129">
        <ele>2160</ele>
        <time>2017-09-17T14:04:50Z</time>
      </trkpt>
      <trkpt lat="44.15434" lon="7.67129">
        <ele>2160</ele>
        <time>2017-09-17T14:04:51Z</time>
      </trkpt>
      <trkpt lat="44.15431" lon="7.67129">
        <ele>2161</ele>
        <time>2017-09-17T14:04:52Z</time>
      </trkpt>
      <trkpt lat="44.15429" lon="7.6713">
        <ele>2161</ele>
        <time>2017-09-17T14:04:53Z</time>
      </trkpt>
      <trkpt lat="44.15426" lon="7.6713">
        <ele>2161</ele>
        <time>2017-09-17T14:04:54Z</time>
      </trkpt>
      <trkpt lat="44.15423" lon="7.67131">
        <ele>2161</ele>
        <time>2017-09-17T14:04:55Z</time>
      </trkpt>
      <trkpt lat="44.15421" lon="7.67132">
        <ele>2162</ele>
        <time>2017-09-17T14:04:56Z</time>
      </trkpt>
      <trkpt lat="44.15418" lon="7.67133">
        <ele>2162</ele>
        <time>2017-09-17T14:04:57Z</time>
      </trkpt>
      <trkpt lat="44.15415" lon="7.67133">
        <ele>2162</ele>
        <time>2017-09-17T14:04:58Z</time>
      </trkpt>
      <trkpt lat="44.15413" lon="7.67132">
        <ele>2163</ele>
        <time>2017-09-17T14:04:59Z</time>
      </trkpt>
      <trkpt lat="44.1541" lon="7.67131">
        <ele>2163</ele>
        <time>2017-09-17T14:05:00Z</time>
      </trkpt>
      <trkpt lat="44.15408" lon="7.6713">
        <ele>2163</ele>
        <time>2017-09-17T14:05:01Z</time>
      </trkpt>
      <trkpt lat="44.15405" lon="7.67129">
        <ele>2163</ele>
        <time>2017-09-17T14:05:02Z</time>
      </trkpt>
      <trkpt lat="44.15402" lon="7.67128">
        <ele>2164</ele>
        <time>2017-09-17T14:05:03Z</time>
      </trkpt>
      <trkpt lat="44.15399" lon="7.67128">
        <ele>2164</ele>
        <time>2017-09-17T14:05:04Z</time>
      </trkpt>
      <trkpt lat="44.15396" lon="7.67128">
        <ele>2164</ele>
        <time>2017-09-17T14:05:05Z</time>
      </trkpt>
      <trkpt lat="44.15394" lon="7.67128">
        <ele>2164</ele>
        <time>2017-09-17T14:05:06Z</time>
      </trkpt>
      <trkpt lat="44.15391" lon="7.67128">
        <ele>2164</ele>
        <time>2017-09-17T14:05:07Z</time>
      </trkpt>
      <trkpt lat="44.15388" lon="7.67129">
        <ele>2165</ele>
        <time>2017-09-17T14:05:08Z</time>
      </trkpt>
      <trkpt lat="44.15385" lon="7.67129">
        <ele>2165</ele>
        <time>2017-09-17T14:05:09Z</time>
      </trkpt>
      <trkpt lat="44.15383" lon="7.67129">
        <ele>2165</ele>
        <time>2017-09-17T14:05:10Z</time>
      </trkpt>
      <trkpt lat="44.1538" lon="7.6713">
        <ele>2165</ele>
        <time>2017-09-17T14:05:11Z</time>
      </trkpt>
      <trkpt lat="44.15378" lon="7.67131">
        <ele>2166</ele>
        <time>2017-09-17T14:05:12Z</time>
      </trkpt>
      <trkpt lat="44.15375" lon="7.67132">
        <ele>2166</ele>
        <time>2017-09-17T14:05:13Z</time>
      </trkpt>
      <trkpt lat="44.15373" lon="7.67134">
        <ele>2166</ele>
        <time>2017-09-17T14:05:14Z</time>
      </trkpt>
      <trkpt lat="44.15371" lon="7.67136">
        <ele>2167</ele>
        <time>2017-09-17T14:05:15Z</time>
      </trkpt>
      <trkpt lat="44.15369" lon="7.67138">
        <ele>2167</ele>
        <time>2017-09-17T14:05:16Z</time>
      </trkpt>
      <trkpt lat="44.15367" lon="7.6714">
        <ele>2167</ele>
        <time>2017-09-17T14:05:17Z</time>
      </trkpt>
      <trkpt lat="44.15365" lon="7.67143">
        <ele>2167</ele>
        <time>2017-09-17T14:05:18Z</time>
      </trkpt>
      <trkpt lat="44.15363" lon="7.67145">
        <ele>2168</ele>
        <time>2017-09-17T14:05:19Z</time>
      </trkpt>
      <trkpt lat="44.15361" lon="7.67148">
        <ele>2168</ele>
        <time>2017-09-17T14:05:20Z</time>
      </trkpt>
      <trkpt lat="44.1536" lon="7.6715">
        <ele>2168</ele>
        <time>2017-09-17T14:05:21Z</time>
      </trkpt>
      <trkpt lat="44.15358" lon="7.67153">
        <ele>2168</ele>
        <time>2017-09-17T14:05:22Z</time>
      </trkpt>
      <trkpt lat="44.15356" lon="7.67155">
        <ele>2168</ele>
        <time>2017-09-17T14:05:23Z</time>
      </trkpt>
      <trkpt lat="44.15355" lon="7.67159">
        <ele>2169</ele>
        <time>2017-09-17T14:05:24Z</time>
      </trkpt>
      <trkpt lat="44.15354" lon="7.67162">
        <ele>2169</ele>
        <time>2017-09-17T14:05:25Z</time>
      </trkpt>
      <trkpt lat="44.15353" lon="7.67166">
        <ele>2169</ele>
        <time>2017-09-17T14:05:26Z</time>
      </trkpt>
      <trkpt lat="44.15352" lon="7.67169">
        <ele>2170</ele>
        <time>2017-09-17T14:05:27Z</time>
      </trkpt>
      <trkpt lat="44.1535" lon="7.67173">
        <ele>2170</ele>
        <time>2017-09-17T14:05:28Z</time>
      </trkpt>
      <trkpt lat="44.15348" lon="7.67176">
        <ele>2170</ele>
        <time>2017-09-17T14:05:29Z</time>
      </trkpt>
      <trkpt lat="44.15347" lon="7.67179">
        <ele>2171</ele>
        <time>2017-09-17T14:05:30Z</time>
      </trkpt>
      <trkpt lat="44.15345" lon="7.67182">
        <ele>2171</ele>
        <time>2017-09-17T14:05:31Z</time>
      </trkpt>
      <trkpt lat="44.15344" lon="7.67185">
        <ele>2171</ele>
        <time>2017-09-17T14:05:32Z</time>
      </trkpt>
      <trkpt lat="44.15342" lon="7.67188">
        <ele>2172</ele>
        <time>2017-09-17T14:05:33Z</time>
      </trkpt>
      <trkpt lat="44.1534" lon="7.6719">
        <ele>2172</ele>
        <time>2017-09-17T14:05:34Z</time>
      </trkpt>
      <trkpt lat="44.15339" lon="7.67193">
        <ele>2173</ele>
        <time>2017-09-17T14:05:35Z</time>
      </trkpt>
      <trkpt lat="44.15337" lon="7.67195">
        <ele>2173</ele>
        <time>2017-09-17T14:05:36Z</time>
      </trkpt>
      <trkpt lat="44.15335" lon="7.67197">
        <ele>2173</ele>
        <time>2017-09-17T14:05:37Z</time>
      </trkpt>
      <trkpt lat="44.15333" lon="7.67198">
        <ele>2173</ele>
        <time>2017-09-17T14:05:38Z</time>
      </trkpt>
      <trkpt lat="44.1533" lon="7.672">
        <ele>2174</ele>
        <time>2017-09-17T14:05:39Z</time>
      </trkpt>
      <trkpt lat="44.15328" lon="7.672">
        <ele>2174</ele>
        <time>2017-09-17T14:05:40Z</time>
      </trkpt>
      <trkpt lat="44.15325" lon="7.672">
        <ele>2174</ele>
        <time>2017-09-17T14:05:41Z</time>
      </trkpt>
      <trkpt lat="44.15323" lon="7.672">
        <ele>2175</ele>
        <time>2017-09-17T14:05:42Z</time>
      </trkpt>
      <trkpt lat="44.1532" lon="7.67201">
        <ele>2175</ele>
        <time>2017-09-17T14:05:43Z</time>
      </trkpt>
      <trkpt lat="44.15317" lon="7.67202">
        <ele>2175</ele>
        <time>2017-09-17T14:05:44Z</time>
      </trkpt>
      <trkpt lat="44.15315" lon="7.67203">
        <ele>2176</ele>
        <time>2017-09-17T14:05:45Z</time>
      </trkpt>
      <trkpt lat="44.15312" lon="7.67204">
        <ele>2176</ele>
        <time>2017-09-17T14:05:46Z</time>
      </trkpt>
      <trkpt lat="44.1531" lon="7.67206">
        <ele>2176</ele>
        <time>2017-09-17T14:05:47Z</time>
      </trkpt>
      <trkpt lat="44.15308" lon="7.67207">
        <ele>2177</ele>
        <time>2017-09-17T14:05:48Z</time>
      </trkpt>
      <trkpt lat="44.15305" lon="7.67209">
        <ele>2177</ele>
        <time>2017-09-17T14:05:49Z</time>
      </trkpt>
      <trkpt lat="44.15303" lon="7.6721">
        <ele>2177</ele>
        <time>2017-09-17T14:05:50Z</time>
      </trkpt>
      <trkpt lat="44.15301" lon="7.67212">
        <ele>2178</ele>
        <time>2017-09-17T14:05:51Z</time>
      </trkpt>
      <trkpt lat="44.15299" lon="7.67214">
        <ele>2178</ele>
        <time>2017-09-17T14:05:52Z</time>
      </trkpt>
      <trkpt lat="44.15297" lon="7.67216">
        <ele>2178</ele>
        <time>2017-09-17T14:05:53Z</time>
      </trkpt>
      <trkpt lat="44.15295" lon="7.67219">
        <ele>2179</ele>
        <time>2017-09-17T14:05:54Z</time>
      </trkpt>
      <trkpt lat="44.15293" lon="7.67222">
        <ele>2179</ele>
        <time>2017-09-17T14:05:55Z</time>
      </trkpt>
      <trkpt lat="44.15292" lon="7.67224">
        <ele>2179</ele>
        <time>2017-09-17T14:05:56Z</time>
      </trkpt>
      <trkpt lat="44.1529" lon="7.67227">
        <ele>2179</ele>
        <time>2017-09-17T14:05:57Z</time>
      </trkpt>
      <trkpt lat="44.15288" lon="7.6723">
        <ele>2180</ele>
        <time>2017-09-17T14:05:58Z</time>
      </trkpt>
      <trkpt lat="44.15286" lon="7.67232">
        <ele>2180</ele>
        <time>2017-09-17T14:05:59Z</time>
      </trkpt>
      <trkpt lat="44.15285" lon="7.67233">
        <ele>2180</ele>
        <time>2017-09-17T14:06:00Z</time>
      </trkpt>
      <trkpt lat="44.15283" lon="7.67236">
        <ele>2181</ele>
        <time>2017-09-17T14:06:01Z</time>
      </trkpt>
      <trkpt lat="44.15281" lon="7.67238">
        <ele>2181</ele>
        <time>2017-09-17T14:06:02Z</time>
      </trkpt>
      <trkpt lat="44.15279" lon="7.6724">
        <ele>2181</ele>
        <time>2017-09-17T14:06:03Z</time>
      </trkpt>
      <trkpt lat="44.15278" lon="7.67243">
        <ele>2181</ele>
        <time>2017-09-17T14:06:04Z</time>
      </trkpt>
      <trkpt lat="44.15277" lon="7.67246">
        <ele>2182</ele>
        <time>2017-09-17T14:06:05Z</time>
      </trkpt>
      <trkpt lat="44.15275" lon="7.67249">
        <ele>2182</ele>
        <time>2017-09-17T14:06:06Z</time>
      </trkpt>
      <trkpt lat="44.15274" lon="7.67252">
        <ele>2182</ele>
        <time>2017-09-17T14:06:07Z</time>
      </trkpt>
      <trkpt lat="44.15272" lon="7.67255">
        <ele>2182</ele>
        <time>2017-09-17T14:06:08Z</time>
      </trkpt>
      <trkpt lat="44.15271" lon="7.67257">
        <ele>2183</ele>
        <time>2017-09-17T14:06:09Z</time>
      </trkpt>
      <trkpt lat="44.15269" lon="7.67259">
        <ele>2183</ele>
        <time>2017-09-17T14:06:10Z</time>
      </trkpt>
      <trkpt lat="44.15267" lon="7.67261">
        <ele>2183</ele>
        <time>2017-09-17T14:06:11Z</time>
      </trkpt>
      <trkpt lat="44.15265" lon="7.67263">
        <ele>2183</ele>
        <time>2017-09-17T14:06:12Z</time>
      </trkpt>
      <trkpt lat="44.15263" lon="7.67265">
        <ele>2184</ele>
        <time>2017-09-17T14:06:13Z</time>
      </trkpt>
      <trkpt lat="44.15261" lon="7.67268">
        <ele>2184</ele>
        <time>2017-09-17T14:06:14Z</time>
      </trkpt>
      <trkpt lat="44.1526" lon="7.67271">
        <ele>2184</ele>
        <time>2017-09-17T14:06:15Z</time>
      </trkpt>
      <trkpt lat="44.15258" lon="7.67274">
        <ele>2184</ele>
        <time>2017-09-17T14:06:16Z</time>
      </trkpt>
      <trkpt lat="44.15257" lon="7.67277">
        <ele>2184</ele>
        <time>2017-09-17T14:06:17Z</time>
      </trkpt>
      <trkpt lat="44.15256" lon="7.6728">
        <ele>2185</ele>
        <time>2017-09-17T14:06:18Z</time>
      </trkpt>
      <trkpt lat="44.15254" lon="7.67282">
        <ele>2185</ele>
        <time>2017-09-17T14:06:19Z</time>
      </trkpt>
      <trkpt lat="44.15252" lon="7.67284">
        <ele>2185</ele>
        <time>2017-09-17T14:06:20Z</time>
      </trkpt>
      <trkpt lat="44.1525" lon="7.67286">
        <ele>2185</ele>
        <time>2017-09-17T14:06:21Z</time>
      </trkpt>
      <trkpt lat="44.15247" lon="7.67287">
        <ele>2185</ele>
        <time>2017-09-17T14:06:22Z</time>
      </trkpt>
      <trkpt lat="44.15245" lon="7.67288">
        <ele>2186</ele>
        <time>2017-09-17T14:06:23Z</time>
      </trkpt>
      <trkpt lat="44.15242" lon="7.67289">
        <ele>2186</ele>
        <time>2017-09-17T14:06:24Z</time>
      </trkpt>
      <trkpt lat="44.15239" lon="7.6729">
        <ele>2186</ele>
        <time>2017-09-17T14:06:25Z</time>
      </trkpt>
      <trkpt lat="44.15236" lon="7.67291">
        <ele>2186</ele>
        <time>2017-09-17T14:06:26Z</time>
      </trkpt>
      <trkpt lat="44.15233" lon="7.67292">
        <ele>2187</ele>
        <time>2017-09-17T14:06:27Z</time>
      </trkpt>
      <trkpt lat="44.1523" lon="7.67293">
        <ele>2187</ele>
        <time>2017-09-17T14:06:28Z</time>
      </trkpt>
      <trkpt lat="44.15227" lon="7.67294">
        <ele>2187</ele>
        <time>2017-09-17T14:06:29Z</time>
      </trkpt>
      <trkpt lat="44.15224" lon="7.67296">
        <ele>2187</ele>
        <time>2017-09-17T14:06:30Z</time>
      </trkpt>
      <trkpt lat="44.15221" lon="7.67298">
        <ele>2187</ele>
        <time>2017-09-17T14:06:31Z</time>
      </trkpt>
      <trkpt lat="44.15218" lon="7.673">
        <ele>2187</ele>
        <time>2017-09-17T14:06:32Z</time>
      </trkpt>
      <trkpt lat="44.15215" lon="7.67302">
        <ele>2188</ele>
        <time>2017-09-17T14:06:33Z</time>
      </trkpt>
      <trkpt lat="44.15212" lon="7.67303">
        <ele>2188</ele>
        <time>2017-09-17T14:06:34Z</time>
      </trkpt>
      <trkpt lat="44.15208" lon="7.67303">
        <ele>2188</ele>
        <time>2017-09-17T14:06:35Z</time>
      </trkpt>
      <trkpt lat="44.15204" lon="7.67303">
        <ele>2188</ele>
        <time>2017-09-17T14:06:36Z</time>
      </trkpt>
      <trkpt lat="44.152" lon="7.67304">
        <ele>2188</ele>
        <time>2017-09-17T14:06:37Z</time>
      </trkpt>
      <trkpt lat="44.15196" lon="7.67304">
        <ele>2188</ele>
        <time>2017-09-17T14:06:38Z</time>
      </trkpt>
      <trkpt lat="44.15192" lon="7.67306">
        <ele>2188</ele>
        <time>2017-09-17T14:06:39Z</time>
      </trkpt>
      <trkpt lat="44.15189" lon="7.67308">
        <ele>2189</ele>
        <time>2017-09-17T14:06:40Z</time>
      </trkpt>
      <trkpt lat="44.15185" lon="7.6731">
        <ele>2189</ele>
        <time>2017-09-17T14:06:41Z</time>
      </trkpt>
      <trkpt lat="44.15181" lon="7.67312">
        <ele>2189</ele>
        <time>2017-09-17T14:06:42Z</time>
      </trkpt>
      <trkpt lat="44.15177" lon="7.67315">
        <ele>2189</ele>
        <time>2017-09-17T14:06:43Z</time>
      </trkpt>
      <trkpt lat="44.15173" lon="7.67318">
        <ele>2189</ele>
        <time>2017-09-17T14:06:44Z</time>
      </trkpt>
      <trkpt lat="44.1517" lon="7.67322">
        <ele>2189</ele>
        <time>2017-09-17T14:06:45Z</time>
      </trkpt>
      <trkpt lat="44.15167" lon="7.67327">
        <ele>2189</ele>
        <time>2017-09-17T14:06:46Z</time>
      </trkpt>
      <trkpt lat="44.15164" lon="7.67333">
        <ele>2189</ele>
        <time>2017-09-17T14:06:47Z</time>
      </trkpt>
      <trkpt lat="44.15162" lon="7.67339">
        <ele>2189</ele>
        <time>2017-09-17T14:06:48Z</time>
      </trkpt>
      <trkpt lat="44.1516" lon="7.67345">
        <ele>2189</ele>
        <time>2017-09-17T14:06:49Z</time>
      </trkpt>
      <trkpt lat="44.15158" lon="7.67351">
        <ele>2189</ele>
        <time>2017-09-17T14:06:50Z</time>
      </trkpt>
      <trkpt lat="44.15156" lon="7.67357">
        <ele>2189</ele>
        <time>2017-09-17T14:06:51Z</time>
      </trkpt>
      <trkpt lat="44.15154" lon="7.67364">
        <ele>2189</ele>
        <time>2017-09-17T14:06:52Z</time>
      </trkpt>
      <trkpt lat="44.15152" lon="7.67371">
        <ele>2189</ele>
        <time>2017-09-17T14:06:53Z</time>
      </trkpt>
      <trkpt lat="44.15149" lon="7.67377">
        <ele>2189</ele>
        <time>2017-09-17T14:06:54Z</time>
      </trkpt>
      <trkpt lat="44.15147" lon="7.67384">
        <ele>2189</ele>
        <time>2017-09-17T14:06:55Z</time>
      </trkpt>
      <trkpt lat="44.15144" lon="7.67391">
        <ele>2189</ele>
        <time>2017-09-17T14:06:56Z</time>
      </trkpt>
      <trkpt lat="44.15142" lon="7.67398">
        <ele>2189</ele>
        <time>2017-09-17T14:06:57Z</time>
      </trkpt>
      <trkpt lat="44.15139" lon="7.67405">
        <ele>2189</ele>
        <time>2017-09-17T14:06:58Z</time>
      </trkpt>
      <trkpt lat="44.15137" lon="7.67412">
        <ele>2189</ele>
        <time>2017-09-17T14:06:59Z</time>
      </trkpt>
      <trkpt lat="44.15135" lon="7.6742">
        <ele>2190</ele>
        <time>2017-09-17T14:07:00Z</time>
      </trkpt>
      <trkpt lat="44.15133" lon="7.67427">
        <ele>2190</ele>
        <time>2017-09-17T14:07:01Z</time>
      </trkpt>
      <trkpt lat="44.15131" lon="7.67434">
        <ele>2190</ele>
        <time>2017-09-17T14:07:02Z</time>
      </trkpt>
      <trkpt lat="44.15129" lon="7.67442">
        <ele>2190</ele>
        <time>2017-09-17T14:07:03Z</time>
      </trkpt>
      <trkpt lat="44.15128" lon="7.67448">
        <ele>2191</ele>
        <time>2017-09-17T14:07:04Z</time>
      </trkpt>
      <trkpt lat="44.15126" lon="7.67455">
        <ele>2191</ele>
        <time>2017-09-17T14:07:05Z</time>
      </trkpt>
      <trkpt lat="44.15124" lon="7.67461">
        <ele>2191</ele>
        <time>2017-09-17T14:07:06Z</time>
      </trkpt>
      <trkpt lat="44.15123" lon="7.67468">
        <ele>2191</ele>
        <time>2017-09-17T14:07:07Z</time>
      </trkpt>
      <trkpt lat="44.15123" lon="7.67474">
        <ele>2191</ele>
        <time>2017-09-17T14:07:08Z</time>
      </trkpt>
      <trkpt lat="44.15123" lon="7.6748">
        <ele>2192</ele>
        <time>2017-09-17T14:07:09Z</time>
      </trkpt>
      <trkpt lat="44.15123" lon="7.67485">
        <ele>2192</ele>
        <time>2017-09-17T14:07:10Z</time>
      </trkpt>
      <trkpt lat="44.15123" lon="7.67491">
        <ele>2192</ele>
        <time>2017-09-17T14:07:11Z</time>
      </trkpt>
      <trkpt lat="44.15123" lon="7.67496">
        <ele>2192</ele>
        <time>2017-09-17T14:07:12Z</time>
      </trkpt>
      <trkpt lat="44.15122" lon="7.67501">
        <ele>2192</ele>
        <time>2017-09-17T14:07:13Z</time>
      </trkpt>
      <trkpt lat="44.15121" lon="7.67506">
        <ele>2193</ele>
        <time>2017-09-17T14:07:14Z</time>
      </trkpt>
      <trkpt lat="44.1512" lon="7.67511">
        <ele>2193</ele>
        <time>2017-09-17T14:07:15Z</time>
      </trkpt>
      <trkpt lat="44.15119" lon="7.67516">
        <ele>2193</ele>
        <time>2017-09-17T14:07:16Z</time>
      </trkpt>
      <trkpt lat="44.15118" lon="7.67521">
        <ele>2194</ele>
        <time>2017-09-17T14:07:17Z</time>
      </trkpt>
      <trkpt lat="44.15117" lon="7.67526">
        <ele>2194</ele>
        <time>2017-09-17T14:07:18Z</time>
      </trkpt>
      <trkpt lat="44.15116" lon="7.67531">
        <ele>2194</ele>
        <time>2017-09-17T14:07:19Z</time>
      </trkpt>
      <trkpt lat="44.15115" lon="7.67535">
        <ele>2194</ele>
        <time>2017-09-17T14:07:20Z</time>
      </trkpt>
      <trkpt lat="44.15113" lon="7.6754">
        <ele>2195</ele>
        <time>2017-09-17T14:07:21Z</time>
      </trkpt>
      <trkpt lat="44.15112" lon="7.67544">
        <ele>2195</ele>
        <time>2017-09-17T14:07:22Z</time>
      </trkpt>
      <trkpt lat="44.1511" lon="7.67549">
        <ele>2195</ele>
        <time>2017-09-17T14:07:23Z</time>
      </trkpt>
      <trkpt lat="44.15108" lon="7.67553">
        <ele>2195</ele>
        <time>2017-09-17T14:07:24Z</time>
      </trkpt>
      <trkpt lat="44.15107" lon="7.67557">
        <ele>2196</ele>
        <time>2017-09-17T14:07:25Z</time>
      </trkpt>
      <trkpt lat="44.15105" lon="7.67561">
        <ele>2196</ele>
        <time>2017-09-17T14:07:26Z</time>
      </trkpt>
      <trkpt lat="44.15104" lon="7.67566">
        <ele>2196</ele>
        <time>2017-09-17T14:07:27Z</time>
      </trkpt>
      <trkpt lat="44.15104" lon="7.6757">
        <ele>2197</ele>
        <time>2017-09-17T14:07:28Z</time>
      </trkpt>
      <trkpt lat="44.15103" lon="7.67575">
        <ele>2197</ele>
        <time>2017-09-17T14:07:29Z</time>
      </trkpt>
      <trkpt lat="44.15102" lon="7.67579">
        <ele>2197</ele>
        <time>2017-09-17T14:07:30Z</time>
      </trkpt>
      <trkpt lat="44.15101" lon="7.67584">
        <ele>2197</ele>
        <time>2017-09-17T14:07:31Z</time>
      </trkpt>
      <trkpt lat="44.151" lon="7.67588">
        <ele>2197</ele>
        <time>2017-09-17T14:07:32Z</time>
      </trkpt>
      <trkpt lat="44.15099" lon="7.67592">
        <ele>2198</ele>
        <time>2017-09-17T14:07:33Z</time>
      </trkpt>
      <trkpt lat="44.15097" lon="7.67596">
        <ele>2198</ele>
        <time>2017-09-17T14:07:34Z</time>
      </trkpt>
      <trkpt lat="44.15096" lon="7.676">
        <ele>2198</ele>
        <time>2017-09-17T14:07:35Z</time>
      </trkpt>
      <trkpt lat="44.15094" lon="7.67605">
        <ele>2198</ele>
        <time>2017-09-17T14:07:36Z</time>
      </trkpt>
      <trkpt lat="44.15093" lon="7.67609">
        <ele>2199</ele>
        <time>2017-09-17T14:07:37Z</time>
      </trkpt>
      <trkpt lat="44.15091" lon="7.67612">
        <ele>2199</ele>
        <time>2017-09-17T14:07:38Z</time>
      </trkpt>
      <trkpt lat="44.15089" lon="7.67616">
        <ele>2199</ele>
        <time>2017-09-17T14:07:39Z</time>
      </trkpt>
      <trkpt lat="44.15087" lon="7.67619">
        <ele>2200</ele>
        <time>2017-09-17T14:07:40Z</time>
      </trkpt>
      <trkpt lat="44.15086" lon="7.67623">
        <ele>2200</ele>
        <time>2017-09-17T14:07:41Z</time>
      </trkpt>
      <trkpt lat="44.15084" lon="7.67627">
        <ele>2200</ele>
        <time>2017-09-17T14:07:42Z</time>
      </trkpt>
      <trkpt lat="44.15083" lon="7.67631">
        <ele>2200</ele>
        <time>2017-09-17T14:07:43Z</time>
      </trkpt>
      <trkpt lat="44.15081" lon="7.67634">
        <ele>2201</ele>
        <time>2017-09-17T14:07:44Z</time>
      </trkpt>
      <trkpt lat="44.15079" lon="7.67638">
        <ele>2201</ele>
        <time>2017-09-17T14:07:45Z</time>
      </trkpt>
      <trkpt lat="44.15077" lon="7.67642">
        <ele>2201</ele>
        <time>2017-09-17T14:07:46Z</time>
      </trkpt>
      <trkpt lat="44.15075" lon="7.67645">
        <ele>2201</ele>
        <time>2017-09-17T14:07:47Z</time>
      </trkpt>
      <trkpt lat="44.15073" lon="7.67648">
        <ele>2202</ele>
        <time>2017-09-17T14:07:48Z</time>
      </trkpt>
      <trkpt lat="44.1507" lon="7.67651">
        <ele>2202</ele>
        <time>2017-09-17T14:07:49Z</time>
      </trkpt>
      <trkpt lat="44.15068" lon="7.67654">
        <ele>2202</ele>
        <time>2017-09-17T14:07:50Z</time>
      </trkpt>
      <trkpt lat="44.15065" lon="7.67656">
        <ele>2202</ele>
        <time>2017-09-17T14:07:51Z</time>
      </trkpt>
      <trkpt lat="44.15062" lon="7.67658">
        <ele>2203</ele>
        <time>2017-09-17T14:07:52Z</time>
      </trkpt>
      <trkpt lat="44.15059" lon="7.6766">
        <ele>2203</ele>
        <time>2017-09-17T14:07:53Z</time>
      </trkpt>
      <trkpt lat="44.15057" lon="7.67662">
        <ele>2203</ele>
        <time>2017-09-17T14:07:54Z</time>
      </trkpt>
      <trkpt lat="44.15054" lon="7.67665">
        <ele>2203</ele>
        <time>2017-09-17T14:07:55Z</time>
      </trkpt>
      <trkpt lat="44.15052" lon="7.67668">
        <ele>2203</ele>
        <time>2017-09-17T14:07:56Z</time>
      </trkpt>
      <trkpt lat="44.15049" lon="7.67671">
        <ele>2203</ele>
        <time>2017-09-17T14:07:57Z</time>
      </trkpt>
      <trkpt lat="44.15046" lon="7.67674">
        <ele>2204</ele>
        <time>2017-09-17T14:07:58Z</time>
      </trkpt>
      <trkpt lat="44.15043" lon="7.67678">
        <ele>2204</ele>
        <time>2017-09-17T14:07:59Z</time>
      </trkpt>
      <trkpt lat="44.1504" lon="7.67682">
        <ele>2204</ele>
        <time>2017-09-17T14:08:00Z</time>
      </trkpt>
      <trkpt lat="44.15038" lon="7.67687">
        <ele>2204</ele>
        <time>2017-09-17T14:08:01Z</time>
      </trkpt>
      <trkpt lat="44.15035" lon="7.67693">
        <ele>2204</ele>
        <time>2017-09-17T14:08:02Z</time>
      </trkpt>
      <trkpt lat="44.15033" lon="7.67698">
        <ele>2204</ele>
        <time>2017-09-17T14:08:03Z</time>
      </trkpt>
      <trkpt lat="44.1503" lon="7.67704">
        <ele>2204</ele>
        <time>2017-09-17T14:08:04Z</time>
      </trkpt>
      <trkpt lat="44.15028" lon="7.67711">
        <ele>2204</ele>
        <time>2017-09-17T14:08:05Z</time>
      </trkpt>
      <trkpt lat="44.15026" lon="7.67717">
        <ele>2204</ele>
        <time>2017-09-17T14:08:06Z</time>
      </trkpt>
      <trkpt lat="44.15025" lon="7.67723">
        <ele>2204</ele>
        <time>2017-09-17T14:08:07Z</time>
      </trkpt>
      <trkpt lat="44.15024" lon="7.67729">
        <ele>2205</ele>
        <time>2017-09-17T14:08:08Z</time>
      </trkpt>
      <trkpt lat="44.15023" lon="7.67735">
        <ele>2205</ele>
        <time>2017-09-17T14:08:09Z</time>
      </trkpt>
      <trkpt lat="44.15021" lon="7.67741">
        <ele>2205</ele>
        <time>2017-09-17T14:08:10Z</time>
      </trkpt>
      <trkpt lat="44.1502" lon="7.67748">
        <ele>2205</ele>
        <time>2017-09-17T14:08:11Z</time>
      </trkpt>
      <trkpt lat="44.15019" lon="7.67754">
        <ele>2205</ele>
        <time>2017-09-17T14:08:12Z</time>
      </trkpt>
      <trkpt lat="44.15018" lon="7.6776">
        <ele>2206</ele>
        <time>2017-09-17T14:08:13Z</time>
      </trkpt>
      <trkpt lat="44.15018" lon="7.67767">
        <ele>2206</ele>
        <time>2017-09-17T14:08:14Z</time>
      </trkpt>
      <trkpt lat="44.15017" lon="7.67773">
        <ele>2206</ele>
        <time>2017-09-17T14:08:15Z</time>
      </trkpt>
      <trkpt lat="44.15016" lon="7.67779">
        <ele>2207</ele>
        <time>2017-09-17T14:08:16Z</time>
      </trkpt>
      <trkpt lat="44.15015" lon="7.67785">
        <ele>2207</ele>
        <time>2017-09-17T14:08:17Z</time>
      </trkpt>
      <trkpt lat="44.15013" lon="7.6779">
        <ele>2207</ele>
        <time>2017-09-17T14:08:18Z</time>
      </trkpt>
      <trkpt lat="44.1501" lon="7.67795">
        <ele>2207</ele>
        <time>2017-09-17T14:08:19Z</time>
      </trkpt>
      <trkpt lat="44.15008" lon="7.678">
        <ele>2208</ele>
        <time>2017-09-17T14:08:20Z</time>
      </trkpt>
      <trkpt lat="44.15006" lon="7.67806">
        <ele>2208</ele>
        <time>2017-09-17T14:08:21Z</time>
      </trkpt>
      <trkpt lat="44.15005" lon="7.67812">
        <ele>2208</ele>
        <time>2017-09-17T14:08:22Z</time>
      </trkpt>
      <trkpt lat="44.15005" lon="7.67818">
        <ele>2208</ele>
        <time>2017-09-17T14:08:23Z</time>
      </trkpt>
      <trkpt lat="44.15005" lon="7.67825">
        <ele>2208</ele>
        <time>2017-09-17T14:08:24Z</time>
      </trkpt>
      <trkpt lat="44.15005" lon="7.67831">
        <ele>2208</ele>
        <time>2017-09-17T14:08:25Z</time>
      </trkpt>
      <trkpt lat="44.15004" lon="7.67837">
        <ele>2208</ele>
        <time>2017-09-17T14:08:26Z</time>
      </trkpt>
      <trkpt lat="44.15002" lon="7.67843">
        <ele>2208</ele>
        <time>2017-09-17T14:08:27Z</time>
      </trkpt>
      <trkpt lat="44.15001" lon="7.67849">
        <ele>2209</ele>
        <time>2017-09-17T14:08:28Z</time>
      </trkpt>
      <trkpt lat="44.15" lon="7.67854">
        <ele>2209</ele>
        <time>2017-09-17T14:08:29Z</time>
      </trkpt>
      <trkpt lat="44.14999" lon="7.67859">
        <ele>2209</ele>
        <time>2017-09-17T14:08:30Z</time>
      </trkpt>
      <trkpt lat="44.14998" lon="7.67864">
        <ele>2210</ele>
        <time>2017-09-17T14:08:31Z</time>
      </trkpt>
      <trkpt lat="44.14997" lon="7.67869">
        <ele>2210</ele>
        <time>2017-09-17T14:08:32Z</time>
      </trkpt>
      <trkpt lat="44.14997" lon="7.67875">
        <ele>2210</ele>
        <time>2017-09-17T14:08:33Z</time>
      </trkpt>
      <trkpt lat="44.14997" lon="7.67879">
        <ele>2211</ele>
        <time>2017-09-17T14:08:34Z</time>
      </trkpt>
      <trkpt lat="44.14996" lon="7.67884">
        <ele>2211</ele>
        <time>2017-09-17T14:08:35Z</time>
      </trkpt>
      <trkpt lat="44.14996" lon="7.67889">
        <ele>2211</ele>
        <time>2017-09-17T14:08:36Z</time>
      </trkpt>
      <trkpt lat="44.14996" lon="7.67894">
        <ele>2212</ele>
        <time>2017-09-17T14:08:37Z</time>
      </trkpt>
      <trkpt lat="44.14995" lon="7.67898">
        <ele>2212</ele>
        <time>2017-09-17T14:08:38Z</time>
      </trkpt>
      <trkpt lat="44.14995" lon="7.67903">
        <ele>2213</ele>
        <time>2017-09-17T14:08:39Z</time>
      </trkpt>
      <trkpt lat="44.14995" lon="7.67908">
        <ele>2213</ele>
        <time>2017-09-17T14:08:40Z</time>
      </trkpt>
      <trkpt lat="44.14994" lon="7.67912">
        <ele>2213</ele>
        <time>2017-09-17T14:08:41Z</time>
      </trkpt>
      <trkpt lat="44.14993" lon="7.67917">
        <ele>2214</ele>
        <time>2017-09-17T14:08:42Z</time>
      </trkpt>
      <trkpt lat="44.14992" lon="7.67921">
        <ele>2214</ele>
        <time>2017-09-17T14:08:43Z</time>
      </trkpt>
      <trkpt lat="44.1499" lon="7.67925">
        <ele>2215</ele>
        <time>2017-09-17T14:08:44Z</time>
      </trkpt>
      <trkpt lat="44.14989" lon="7.67929">
        <ele>2215</ele>
        <time>2017-09-17T14:08:45Z</time>
      </trkpt>
      <trkpt lat="44.14987" lon="7.67933">
        <ele>2215</ele>
        <time>2017-09-17T14:08:46Z</time>
      </trkpt>
      <trkpt lat="44.14985" lon="7.67937">
        <ele>2215</ele>
        <time>2017-09-17T14:08:47Z</time>
      </trkpt>
      <trkpt lat="44.14983" lon="7.6794">
        <ele>2216</ele>
        <time>2017-09-17T14:08:48Z</time>
      </trkpt>
      <trkpt lat="44.14981" lon="7.67944">
        <ele>2216</ele>
        <time>2017-09-17T14:08:49Z</time>
      </trkpt>
      <trkpt lat="44.14978" lon="7.67947">
        <ele>2216</ele>
        <time>2017-09-17T14:08:50Z</time>
      </trkpt>
      <trkpt lat="44.14976" lon="7.67949">
        <ele>2216</ele>
        <time>2017-09-17T14:08:51Z</time>
      </trkpt>
      <trkpt lat="44.14974" lon="7.67952">
        <ele>2217</ele>
        <time>2017-09-17T14:08:52Z</time>
      </trkpt>
      <trkpt lat="44.14972" lon="7.67956">
        <ele>2217</ele>
        <time>2017-09-17T14:08:53Z</time>
      </trkpt>
      <trkpt lat="44.1497" lon="7.6796">
        <ele>2217</ele>
        <time>2017-09-17T14:08:54Z</time>
      </trkpt>
      <trkpt lat="44.1497" lon="7.67964">
        <ele>2217</ele>
        <time>2017-09-17T14:08:55Z</time>
      </trkpt>
      <trkpt lat="44.14971" lon="7.67969">
        <ele>2217</ele>
        <time>2017-09-17T14:08:56Z</time>
      </trkpt>
      <trkpt lat="44.14972" lon="7.67974">
        <ele>2217</ele>
        <time>2017-09-17T14:08:57Z</time>
      </trkpt>
      <trkpt lat="44.14973" lon="7.67978">
        <ele>2217</ele>
        <time>2017-09-17T14:08:58Z</time>
      </trkpt>
      <trkpt lat="44.14975" lon="7.67982">
        <ele>2217</ele>
        <time>2017-09-17T14:08:59Z</time>
      </trkpt>
      <trkpt lat="44.14976" lon="7.67987">
        <ele>2218</ele>
        <time>2017-09-17T14:09:00Z</time>
      </trkpt>
      <trkpt lat="44.14976" lon="7.67992">
        <ele>2218</ele>
        <time>2017-09-17T14:09:01Z</time>
      </trkpt>
      <trkpt lat="44.14976" lon="7.67997">
        <ele>2218</ele>
        <time>2017-09-17T14:09:02Z</time>
      </trkpt>
      <trkpt lat="44.14976" lon="7.68001">
        <ele>2218</ele>
        <time>2017-09-17T14:09:03Z</time>
      </trkpt>
      <trkpt lat="44.14976" lon="7.68006">
        <ele>2218</ele>
        <time>2017-09-17T14:09:04Z</time>
      </trkpt>
      <trkpt lat="44.14976" lon="7.6801">
        <ele>2219</ele>
        <time>2017-09-17T14:09:05Z</time>
      </trkpt>
      <trkpt lat="44.14976" lon="7.68015">
        <ele>2219</ele>
        <time>2017-09-17T14:09:06Z</time>
      </trkpt>
      <trkpt lat="44.14976" lon="7.68019">
        <ele>2220</ele>
        <time>2017-09-17T14:09:07Z</time>
      </trkpt>
      <trkpt lat="44.14975" lon="7.68023">
        <ele>2220</ele>
        <time>2017-09-17T14:09:08Z</time>
      </trkpt>
      <trkpt lat="44.14975" lon="7.68026">
        <ele>2220</ele>
        <time>2017-09-17T14:09:09Z</time>
      </trkpt>
      <trkpt lat="44.14974" lon="7.6803">
        <ele>2221</ele>
        <time>2017-09-17T14:09:10Z</time>
      </trkpt>
      <trkpt lat="44.14973" lon="7.68034">
        <ele>2221</ele>
        <time>2017-09-17T14:09:11Z</time>
      </trkpt>
      <trkpt lat="44.14972" lon="7.68037">
        <ele>2221</ele>
        <time>2017-09-17T14:09:12Z</time>
      </trkpt>
      <trkpt lat="44.14971" lon="7.68041">
        <ele>2222</ele>
        <time>2017-09-17T14:09:13Z</time>
      </trkpt>
      <trkpt lat="44.1497" lon="7.68044">
        <ele>2222</ele>
        <time>2017-09-17T14:09:14Z</time>
      </trkpt>
      <trkpt lat="44.14969" lon="7.68047">
        <ele>2222</ele>
        <time>2017-09-17T14:09:15Z</time>
      </trkpt>
      <trkpt lat="44.14968" lon="7.68051">
        <ele>2223</ele>
        <time>2017-09-17T14:09:16Z</time>
      </trkpt>
      <trkpt lat="44.14967" lon="7.68055">
        <ele>2223</ele>
        <time>2017-09-17T14:09:17Z</time>
      </trkpt>
      <trkpt lat="44.14966" lon="7.68058">
        <ele>2223</ele>
        <time>2017-09-17T14:09:18Z</time>
      </trkpt>
      <trkpt lat="44.14966" lon="7.68062">
        <ele>2224</ele>
        <time>2017-09-17T14:09:19Z</time>
      </trkpt>
      <trkpt lat="44.14965" lon="7.68065">
        <ele>2224</ele>
        <time>2017-09-17T14:09:20Z</time>
      </trkpt>
      <trkpt lat="44.14964" lon="7.68069">
        <ele>2224</ele>
        <time>2017-09-17T14:09:21Z</time>
      </trkpt>
      <trkpt lat="44.14964" lon="7.68072">
        <ele>2225</ele>
        <time>2017-09-17T14:09:22Z</time>
      </trkpt>
      <trkpt lat="44.14963" lon="7.68076">
        <ele>2225</ele>
        <time>2017-09-17T14:09:23Z</time>
      </trkpt>
      <trkpt lat="44.14962" lon="7.68079">
        <ele>2225</ele>
        <time>2017-09-17T14:09:24Z</time>
      </trkpt>
      <trkpt lat="44.14961" lon="7.68083">
        <ele>2225</ele>
        <time>2017-09-17T14:09:25Z</time>
      </trkpt>
      <trkpt lat="44.1496" lon="7.68086">
        <ele>2226</ele>
        <time>2017-09-17T14:09:26Z</time>
      </trkpt>
      <trkpt lat="44.14958" lon="7.6809">
        <ele>2226</ele>
        <time>2017-09-17T14:09:27Z</time>
      </trkpt>
      <trkpt lat="44.14957" lon="7.68093">
        <ele>2226</ele>
        <time>2017-09-17T14:09:28Z</time>
      </trkpt>
      <trkpt lat="44.14957" lon="7.68097">
        <ele>2227</ele>
        <time>2017-09-17T14:09:29Z</time>
      </trkpt>
      <trkpt lat="44.14956" lon="7.68101">
        <ele>2227</ele>
        <time>2017-09-17T14:09:30Z</time>
      </trkpt>
      <trkpt lat="44.14955" lon="7.68104">
        <ele>2227</ele>
        <time>2017-09-17T14:09:31Z</time>
      </trkpt>
      <trkpt lat="44.14954" lon="7.68108">
        <ele>2228</ele>
        <time>2017-09-17T14:09:32Z</time>
      </trkpt>
      <trkpt lat="44.14953" lon="7.68111">
        <ele>2228</ele>
        <time>2017-09-17T14:09:33Z</time>
      </trkpt>
      <trkpt lat="44.14952" lon="7.68114">
        <ele>2228</ele>
        <time>2017-09-17T14:09:34Z</time>
      </trkpt>
      <trkpt lat="44.14952" lon="7.68118">
        <ele>2228</ele>
        <time>2017-09-17T14:09:35Z</time>
      </trkpt>
      <trkpt lat="44.14951" lon="7.68122">
        <ele>2229</ele>
        <time>2017-09-17T14:09:36Z</time>
      </trkpt>
      <trkpt lat="44.1495" lon="7.68125">
        <ele>2229</ele>
        <time>2017-09-17T14:09:37Z</time>
      </trkpt>
      <trkpt lat="44.1495" lon="7.68129">
        <ele>2229</ele>
        <time>2017-09-17T14:09:38Z</time>
      </trkpt>
      <trkpt lat="44.14949" lon="7.68133">
        <ele>2230</ele>
        <time>2017-09-17T14:09:39Z</time>
      </trkpt>
      <trkpt lat="44.14949" lon="7.68137">
        <ele>2230</ele>
        <time>2017-09-17T14:09:40Z</time>
      </trkpt>
      <trkpt lat="44.14948" lon="7.6814">
        <ele>2230</ele>
        <time>2017-09-17T14:09:41Z</time>
      </trkpt>
      <trkpt lat="44.14947" lon="7.68144">
        <ele>2230</ele>
        <time>2017-09-17T14:09:42Z</time>
      </trkpt>
      <trkpt lat="44.14947" lon="7.68147">
        <ele>2231</ele>
        <time>2017-09-17T14:09:43Z</time>
      </trkpt>
      <trkpt lat="44.14946" lon="7.68151">
        <ele>2231</ele>
        <time>2017-09-17T14:09:44Z</time>
      </trkpt>
      <trkpt lat="44.14946" lon="7.68155">
        <ele>2231</ele>
        <time>2017-09-17T14:09:45Z</time>
      </trkpt>
      <trkpt lat="44.14945" lon="7.68158">
        <ele>2231</ele>
        <time>2017-09-17T14:09:46Z</time>
      </trkpt>
      <trkpt lat="44.14945" lon="7.68162">
        <ele>2232</ele>
        <time>2017-09-17T14:09:47Z</time>
      </trkpt>
      <trkpt lat="44.14944" lon="7.68165">
        <ele>2232</ele>
        <time>2017-09-17T14:09:48Z</time>
      </trkpt>
      <trkpt lat="44.14944" lon="7.68168">
        <ele>2232</ele>
        <time>2017-09-17T14:09:49Z</time>
      </trkpt>
      <trkpt lat="44.14943" lon="7.68172">
        <ele>2232</ele>
        <time>2017-09-17T14:09:50Z</time>
      </trkpt>
      <trkpt lat="44.14943" lon="7.68175">
        <ele>2233</ele>
        <time>2017-09-17T14:09:51Z</time>
      </trkpt>
      <trkpt lat="44.14942" lon="7.68179">
        <ele>2233</ele>
        <time>2017-09-17T14:09:52Z</time>
      </trkpt>
      <trkpt lat="44.14942" lon="7.68183">
        <ele>2233</ele>
        <time>2017-09-17T14:09:53Z</time>
      </trkpt>
      <trkpt lat="44.14942" lon="7.68187">
        <ele>2233</ele>
        <time>2017-09-17T14:09:54Z</time>
      </trkpt>
      <trkpt lat="44.14942" lon="7.6819">
        <ele>2234</ele>
        <time>2017-09-17T14:09:55Z</time>
      </trkpt>
      <trkpt lat="44.14941" lon="7.68194">
        <ele>2234</ele>
        <time>2017-09-17T14:09:56Z</time>
      </trkpt>
      <trkpt lat="44.14941" lon="7.68197">
        <ele>2234</ele>
        <time>2017-09-17T14:09:57Z</time>
      </trkpt>
      <trkpt lat="44.1494" lon="7.68201">
        <ele>2234</ele>
        <time>2017-09-17T14:09:58Z</time>
      </trkpt>
      <trkpt lat="44.1494" lon="7.68205">
        <ele>2235</ele>
        <time>2017-09-17T14:09:59Z</time>
      </trkpt>
      <trkpt lat="44.1494" lon="7.68208">
        <ele>2235</ele>
        <time>2017-09-17T14:10:00Z</time>
      </trkpt>
      <trkpt lat="44.14939" lon="7.68212">
        <ele>2235</ele>
        <time>2017-09-17T14:10:01Z</time>
      </trkpt>
      <trkpt lat="44.14939" lon="7.68215">
        <ele>2235</ele>
        <time>2017-09-17T14:10:02Z</time>
      </trkpt>
      <trkpt lat="44.14938" lon="7.68219">
        <ele>2236</ele>
        <time>2017-09-17T14:10:03Z</time>
      </trkpt>
      <trkpt lat="44.14938" lon="7.68222">
        <ele>2236</ele>
        <time>2017-09-17T14:10:04Z</time>
      </trkpt>
      <trkpt lat="44.14937" lon="7.68226">
        <ele>2236</ele>
        <time>2017-09-17T14:10:05Z</time>
      </trkpt>
      <trkpt lat="44.14937" lon="7.6823">
        <ele>2237</ele>
        <time>2017-09-17T14:10:06Z</time>
      </trkpt>
      <trkpt lat="44.14936" lon="7.68233">
        <ele>2237</ele>
        <time>2017-09-17T14:10:07Z</time>
      </trkpt>
      <trkpt lat="44.14936" lon="7.68237">
        <ele>2237</ele>
        <time>2017-09-17T14:10:08Z</time>
      </trkpt>
      <trkpt lat="44.14935" lon="7.6824">
        <ele>2237</ele>
        <time>2017-09-17T14:10:09Z</time>
      </trkpt>
      <trkpt lat="44.14934" lon="7.68244">
        <ele>2238</ele>
        <time>2017-09-17T14:10:10Z</time>
      </trkpt>
      <trkpt lat="44.14932" lon="7.68247">
        <ele>2238</ele>
        <time>2017-09-17T14:10:11Z</time>
      </trkpt>
      <trkpt lat="44.14931" lon="7.6825">
        <ele>2238</ele>
        <time>2017-09-17T14:10:12Z</time>
      </trkpt>
      <trkpt lat="44.14929" lon="7.68253">
        <ele>2238</ele>
        <time>2017-09-17T14:10:13Z</time>
      </trkpt>
      <trkpt lat="44.14927" lon="7.68256">
        <ele>2238</ele>
        <time>2017-09-17T14:10:14Z</time>
      </trkpt>
      <trkpt lat="44.14926" lon="7.68259">
        <ele>2239</ele>
        <time>2017-09-17T14:10:15Z</time>
      </trkpt>
      <trkpt lat="44.14925" lon="7.68263">
        <ele>2239</ele>
        <time>2017-09-17T14:10:16Z</time>
      </trkpt>
      <trkpt lat="44.14923" lon="7.68266">
        <ele>2239</ele>
        <time>2017-09-17T14:10:17Z</time>
      </trkpt>
      <trkpt lat="44.14922" lon="7.68269">
        <ele>2239</ele>
        <time>2017-09-17T14:10:18Z</time>
      </trkpt>
      <trkpt lat="44.14921" lon="7.68273">
        <ele>2239</ele>
        <time>2017-09-17T14:10:19Z</time>
      </trkpt>
      <trkpt lat="44.14919" lon="7.68276">
        <ele>2239</ele>
        <time>2017-09-17T14:10:20Z</time>
      </trkpt>
      <trkpt lat="44.14917" lon="7.68279">
        <ele>2239</ele>
        <time>2017-09-17T14:10:21Z</time>
      </trkpt>
      <trkpt lat="44.14915" lon="7.68283">
        <ele>2239</ele>
        <time>2017-09-17T14:10:22Z</time>
      </trkpt>
      <trkpt lat="44.14914" lon="7.68286">
        <ele>2239</ele>
        <time>2017-09-17T14:10:23Z</time>
      </trkpt>
      <trkpt lat="44.14912" lon="7.6829">
        <ele>2240</ele>
        <time>2017-09-17T14:10:24Z</time>
      </trkpt>
      <trkpt lat="44.14911" lon="7.68294">
        <ele>2240</ele>
        <time>2017-09-17T14:10:25Z</time>
      </trkpt>
      <trkpt lat="44.14909" lon="7.68298">
        <ele>2240</ele>
        <time>2017-09-17T14:10:26Z</time>
      </trkpt>
      <trkpt lat="44.14908" lon="7.68302">
        <ele>2240</ele>
        <time>2017-09-17T14:10:27Z</time>
      </trkpt>
      <trkpt lat="44.14906" lon="7.68307">
        <ele>2240</ele>
        <time>2017-09-17T14:10:28Z</time>
      </trkpt>
      <trkpt lat="44.14904" lon="7.68311">
        <ele>2240</ele>
        <time>2017-09-17T14:10:29Z</time>
      </trkpt>
      <trkpt lat="44.14903" lon="7.68314">
        <ele>2240</ele>
        <time>2017-09-17T14:10:30Z</time>
      </trkpt>
      <trkpt lat="44.149" lon="7.68317">
        <ele>2240</ele>
        <time>2017-09-17T14:10:31Z</time>
      </trkpt>
      <trkpt lat="44.14897" lon="7.6832">
        <ele>2240</ele>
        <time>2017-09-17T14:10:32Z</time>
      </trkpt>
      <trkpt lat="44.14894" lon="7.68322">
        <ele>2240</ele>
        <time>2017-09-17T14:10:33Z</time>
      </trkpt>
      <trkpt lat="44.1489" lon="7.68322">
        <ele>2241</ele>
        <time>2017-09-17T14:10:34Z</time>
      </trkpt>
      <trkpt lat="44.14886" lon="7.68322">
        <ele>2241</ele>
        <time>2017-09-17T14:10:35Z</time>
      </trkpt>
      <trkpt lat="44.14882" lon="7.68321">
        <ele>2241</ele>
        <time>2017-09-17T14:10:36Z</time>
      </trkpt>
      <trkpt lat="44.14878" lon="7.6832">
        <ele>2241</ele>
        <time>2017-09-17T14:10:37Z</time>
      </trkpt>
      <trkpt lat="44.14874" lon="7.6832">
        <ele>2241</ele>
        <time>2017-09-17T14:10:38Z</time>
      </trkpt>
      <trkpt lat="44.14869" lon="7.6832">
        <ele>2241</ele>
        <time>2017-09-17T14:10:39Z</time>
      </trkpt>
      <trkpt lat="44.14864" lon="7.6832">
        <ele>2240</ele>
        <time>2017-09-17T14:10:40Z</time>
      </trkpt>
      <trkpt lat="44.1486" lon="7.68322">
        <ele>2240</ele>
        <time>2017-09-17T14:10:41Z</time>
      </trkpt>
      <trkpt lat="44.14856" lon="7.68325">
        <ele>2240</ele>
        <time>2017-09-17T14:10:42Z</time>
      </trkpt>
      <trkpt lat="44.14851" lon="7.68328">
        <ele>2240</ele>
        <time>2017-09-17T14:10:43Z</time>
      </trkpt>
      <trkpt lat="44.14847" lon="7.68331">
        <ele>2240</ele>
        <time>2017-09-17T14:10:44Z</time>
      </trkpt>
      <trkpt lat="44.14842" lon="7.68333">
        <ele>2240</ele>
        <time>2017-09-17T14:10:45Z</time>
      </trkpt>
      <trkpt lat="44.14837" lon="7.68336">
        <ele>2240</ele>
        <time>2017-09-17T14:10:46Z</time>
      </trkpt>
      <trkpt lat="44.14832" lon="7.68339">
        <ele>2240</ele>
        <time>2017-09-17T14:10:47Z</time>
      </trkpt>
      <trkpt lat="44.14827" lon="7.68344">
        <ele>2240</ele>
        <time>2017-09-17T14:10:48Z</time>
      </trkpt>
      <trkpt lat="44.14823" lon="7.68348">
        <ele>2240</ele>
        <time>2017-09-17T14:10:49Z</time>
      </trkpt>
      <trkpt lat="44.14819" lon="7.68354">
        <ele>2240</ele>
        <time>2017-09-17T14:10:50Z</time>
      </trkpt>
      <trkpt lat="44.14816" lon="7.68359">
        <ele>2240</ele>
        <time>2017-09-17T14:10:51Z</time>
      </trkpt>
      <trkpt lat="44.14812" lon="7.68365">
        <ele>2241</ele>
        <time>2017-09-17T14:10:52Z</time>
      </trkpt>
      <trkpt lat="44.14808" lon="7.6837">
        <ele>2241</ele>
        <time>2017-09-17T14:10:53Z</time>
      </trkpt>
      <trkpt lat="44.14804" lon="7.68375">
        <ele>2241</ele>
        <time>2017-09-17T14:10:54Z</time>
      </trkpt>
      <trkpt lat="44.148" lon="7.6838">
        <ele>2241</ele>
        <time>2017-09-17T14:10:55Z</time>
      </trkpt>
      <trkpt lat="44.14796" lon="7.68386">
        <ele>2241</ele>
        <time>2017-09-17T14:10:56Z</time>
      </trkpt>
      <trkpt lat="44.14794" lon="7.68393">
        <ele>2241</ele>
        <time>2017-09-17T14:10:57Z</time>
      </trkpt>
      <trkpt lat="44.14792" lon="7.68399">
        <ele>2241</ele>
        <time>2017-09-17T14:10:58Z</time>
      </trkpt>
      <trkpt lat="44.1479" lon="7.68406">
        <ele>2241</ele>
        <time>2017-09-17T14:10:59Z</time>
      </trkpt>
      <trkpt lat="44.14788" lon="7.68413">
        <ele>2241</ele>
        <time>2017-09-17T14:11:00Z</time>
      </trkpt>
      <trkpt lat="44.14786" lon="7.6842">
        <ele>2241</ele>
        <time>2017-09-17T14:11:01Z</time>
      </trkpt>
      <trkpt lat="44.14784" lon="7.68427">
        <ele>2241</ele>
        <time>2017-09-17T14:11:02Z</time>
      </trkpt>
      <trkpt lat="44.14782" lon="7.68435">
        <ele>2241</ele>
        <time>2017-09-17T14:11:03Z</time>
      </trkpt>
      <trkpt lat="44.14781" lon="7.68442">
        <ele>2240</ele>
        <time>2017-09-17T14:11:04Z</time>
      </trkpt>
      <trkpt lat="44.14779" lon="7.6845">
        <ele>2240</ele>
        <time>2017-09-17T14:11:05Z</time>
      </trkpt>
      <trkpt lat="44.14777" lon="7.68458">
        <ele>2240</ele>
        <time>2017-09-17T14:11:06Z</time>
      </trkpt>
      <trkpt lat="44.14776" lon="7.68467">
        <ele>2240</ele>
        <time>2017-09-17T14:11:07Z</time>
      </trkpt>
      <trkpt lat="44.14774" lon="7.68475">
        <ele>2240</ele>
        <time>2017-09-17T14:11:08Z</time>
      </trkpt>
      <trkpt lat="44.14773" lon="7.68484">
        <ele>2239</ele>
        <time>2017-09-17T14:11:09Z</time>
      </trkpt>
      <trkpt lat="44.14771" lon="7.68493">
        <ele>2239</ele>
        <time>2017-09-17T14:11:10Z</time>
      </trkpt>
      <trkpt lat="44.14769" lon="7.68502">
        <ele>2239</ele>
        <time>2017-09-17T14:11:11Z</time>
      </trkpt>
      <trkpt lat="44.14766" lon="7.68512">
        <ele>2238</ele>
        <time>2017-09-17T14:11:12Z</time>
      </trkpt>
      <trkpt lat="44.14764" lon="7.68521">
        <ele>2238</ele>
        <time>2017-09-17T14:11:13Z</time>
      </trkpt>
      <trkpt lat="44.14761" lon="7.68531">
        <ele>2238</ele>
        <time>2017-09-17T14:11:14Z</time>
      </trkpt>
      <trkpt lat="44.14758" lon="7.6854">
        <ele>2237</ele>
        <time>2017-09-17T14:11:15Z</time>
      </trkpt>
      <trkpt lat="44.14755" lon="7.6855">
        <ele>2237</ele>
        <time>2017-09-17T14:11:16Z</time>
      </trkpt>
      <trkpt lat="44.14752" lon="7.6856">
        <ele>2236</ele>
        <time>2017-09-17T14:11:17Z</time>
      </trkpt>
      <trkpt lat="44.14749" lon="7.6857">
        <ele>2236</ele>
        <time>2017-09-17T14:11:18Z</time>
      </trkpt>
      <trkpt lat="44.14745" lon="7.6858">
        <ele>2236</ele>
        <time>2017-09-17T14:11:19Z</time>
      </trkpt>
      <trkpt lat="44.14741" lon="7.68589">
        <ele>2235</ele>
        <time>2017-09-17T14:11:20Z</time>
      </trkpt>
      <trkpt lat="44.14737" lon="7.68599">
        <ele>2235</ele>
        <time>2017-09-17T14:11:21Z</time>
      </trkpt>
      <trkpt lat="44.14733" lon="7.6861">
        <ele>2234</ele>
        <time>2017-09-17T14:11:22Z</time>
      </trkpt>
      <trkpt lat="44.1473" lon="7.6862">
        <ele>2234</ele>
        <time>2017-09-17T14:11:23Z</time>
      </trkpt>
      <trkpt lat="44.14727" lon="7.68631">
        <ele>2234</ele>
        <time>2017-09-17T14:11:24Z</time>
      </trkpt>
      <trkpt lat="44.14724" lon="7.68642">
        <ele>2233</ele>
        <time>2017-09-17T14:11:25Z</time>
      </trkpt>
      <trkpt lat="44.14722" lon="7.68654">
        <ele>2233</ele>
        <time>2017-09-17T14:11:26Z</time>
      </trkpt>
      <trkpt lat="44.14721" lon="7.68666">
        <ele>2232</ele>
        <time>2017-09-17T14:11:27Z</time>
      </trkpt>
      <trkpt lat="44.14721" lon="7.68678">
        <ele>2231</ele>
        <time>2017-09-17T14:11:28Z</time>
      </trkpt>
      <trkpt lat="44.14722" lon="7.68691">
        <ele>2231</ele>
        <time>2017-09-17T14:11:29Z</time>
      </trkpt>
      <trkpt lat="44.14725" lon="7.68703">
        <ele>2230</ele>
        <time>2017-09-17T14:11:30Z</time>
      </trkpt>
      <trkpt lat="44.14729" lon="7.68714">
        <ele>2230</ele>
        <time>2017-09-17T14:11:31Z</time>
      </trkpt>
      <trkpt lat="44.14733" lon="7.68725">
        <ele>2229</ele>
        <time>2017-09-17T14:11:32Z</time>
      </trkpt>
      <trkpt lat="44.14738" lon="7.68736">
        <ele>2228</ele>
        <time>2017-09-17T14:11:33Z</time>
      </trkpt>
      <trkpt lat="44.14744" lon="7.68745">
        <ele>2228</ele>
        <time>2017-09-17T14:11:34Z</time>
      </trkpt>
      <trkpt lat="44.1475" lon="7.68755">
        <ele>2227</ele>
        <time>2017-09-17T14:11:35Z</time>
      </trkpt>
      <trkpt lat="44.14755" lon="7.68765">
        <ele>2227</ele>
        <time>2017-09-17T14:11:36Z</time>
      </trkpt>
      <trkpt lat="44.1476" lon="7.68775">
        <ele>2226</ele>
        <time>2017-09-17T14:11:37Z</time>
      </trkpt>
      <trkpt lat="44.14765" lon="7.68784">
        <ele>2225</ele>
        <time>2017-09-17T14:11:38Z</time>
      </trkpt>
      <trkpt lat="44.14768" lon="7.68791">
        <ele>2225</ele>
        <time>2017-09-17T14:11:39Z</time>
      </trkpt>
      <trkpt lat="44.1477" lon="7.68797">
        <ele>2224</ele>
        <time>2017-09-17T14:11:40Z</time>
      </trkpt>
      <trkpt lat="44.14772" lon="7.68801">
        <ele>2224</ele>
        <time>2017-09-17T14:11:41Z</time>
      </trkpt>
      <trkpt lat="44.14773" lon="7.68803">
        <ele>2224</ele>
        <time>2017-09-17T14:11:42Z</time>
      </trkpt>
      <trkpt lat="44.14773" lon="7.68803">
        <ele>2223</ele>
        <time>2017-09-17T14:11:43Z</time>
      </trkpt>
      <trkpt lat="44.14773" lon="7.68803">
        <ele>2223</ele>
        <time>2017-09-17T14:11:44Z</time>
      </trkpt>
      <trkpt lat="44.14773" lon="7.68803">
        <ele>2223</ele>
        <time>2017-09-17T14:11:45Z</time>
      </trkpt>
      <trkpt lat="44.14773" lon="7.68803">
        <ele>2223</ele>
        <time>2017-09-17T14:11:46Z</time>
      </trkpt>
      <trkpt lat="44.14773" lon="7.68803">
        <ele>2223</ele>
        <time>2017-09-17T14:11:47Z</time>
      </trkpt>
      <trkpt lat="44.14773" lon="7.68803">
        <ele>2223</ele>
        <time>2017-09-17T14:11:48Z</time>
      </trkpt>
      <trkpt lat="44.14773" lon="7.68803">
        <ele>2222</ele>
        <time>2017-09-17T14:11:49Z</time>
      </trkpt>
      <trkpt lat="44.14773" lon="7.68803">
        <ele>2222</ele>
        <time>2017-09-17T14:11:50Z</time>
      </trkpt>
      <trkpt lat="44.14773" lon="7.68803">
        <ele>2222</ele>
        <time>2017-09-17T14:11:51Z</time>
      </trkpt>
      <trkpt lat="44.14773" lon="7.68803">
        <ele>2222</ele>
        <time>2017-09-17T14:11:52Z</time>
      </trkpt>
      <trkpt lat="44.14773" lon="7.68803">
        <ele>2222</ele>
        <time>2017-09-17T14:11:53Z</time>
      </trkpt>
      <trkpt lat="44.14773" lon="7.68804">
        <ele>2222</ele>
        <time>2017-09-17T14:11:54Z</time>
      </trkpt>
      <trkpt lat="44.14773" lon="7.68804">
        <ele>2222</ele>
        <time>2017-09-17T14:11:55Z</time>
      </trkpt>
      <trkpt lat="44.14773" lon="7.68804">
        <ele>2222</ele>
        <time>2017-09-17T14:11:56Z</time>
      </trkpt>
      <trkpt lat="44.14773" lon="7.68804">
        <ele>2222</ele>
        <time>2017-09-17T14:11:57Z</time>
      </trkpt>
      <trkpt lat="44.14773" lon="7.68804">
        <ele>2222</ele>
        <time>2017-09-17T14:11:58Z</time>
      </trkpt>
      <trkpt lat="44.14773" lon="7.68804">
        <ele>2222</ele>
        <time>2017-09-17T14:11:59Z</time>
      </trkpt>
      <trkpt lat="44.14773" lon="7.68804">
        <ele>2222</ele>
        <time>2017-09-17T14:12:00Z</time>
      </trkpt>
      <trkpt lat="44.14773" lon="7.68804">
        <ele>2222</ele>
        <time>2017-09-17T14:12:01Z</time>
      </trkpt>
      <trkpt lat="44.14773" lon="7.68804">
        <ele>2222</ele>
        <time>2017-09-17T14:12:02Z</time>
      </trkpt>
      <trkpt lat="44.14773" lon="7.68804">
        <ele>2221</ele>
        <time>2017-09-17T14:12:03Z</time>
      </trkpt>
      <trkpt lat="44.14773" lon="7.68804">
        <ele>2221</ele>
        <time>2017-09-17T14:12:04Z</time>
      </trkpt>
      <trkpt lat="44.14773" lon="7.68804">
        <ele>2221</ele>
        <time>2017-09-17T14:12:05Z</time>
      </trkpt>
      <trkpt lat="44.14773" lon="7.68804">
        <ele>2221</ele>
        <time>2017-09-17T14:12:06Z</time>
      </trkpt>
      <trkpt lat="44.14773" lon="7.68804">
        <ele>2221</ele>
        <time>2017-09-17T14:12:07Z</time>
      </trkpt>
      <trkpt lat="44.14773" lon="7.68804">
        <ele>2221</ele>
        <time>2017-09-17T14:12:08Z</time>
      </trkpt>
      <trkpt lat="44.14773" lon="7.68804">
        <ele>2221</ele>
        <time>2017-09-17T14:12:09Z</time>
      </trkpt>
      <trkpt lat="44.14773" lon="7.68804">
        <ele>2221</ele>
        <time>2017-09-17T14:12:10Z</time>
      </trkpt>
      <trkpt lat="44.14773" lon="7.68804">
        <ele>2221</ele>
        <time>2017-09-17T14:12:11Z</time>
      </trkpt>
      <trkpt lat="44.14773" lon="7.68804">
        <ele>2221</ele>
        <time>2017-09-17T14:12:12Z</time>
      </trkpt>
      <trkpt lat="44.14773" lon="7.68804">
        <ele>2221</ele>
        <time>2017-09-17T14:12:13Z</time>
      </trkpt>
      <trkpt lat="44.14773" lon="7.68804">
        <ele>2221</ele>
        <time>2017-09-17T14:12:14Z</time>
      </trkpt>
      <trkpt lat="44.14773" lon="7.68804">
        <ele>2221</ele>
        <time>2017-09-17T14:12:15Z</time>
      </trkpt>
      <trkpt lat="44.14773" lon="7.68804">
        <ele>2221</ele>
        <time>2017-09-17T14:12:16Z</time>
      </trkpt>
      <trkpt lat="44.14773" lon="7.68804">
        <ele>2221</ele>
        <time>2017-09-17T14:12:17Z</time>
      </trkpt>
      <trkpt lat="44.14773" lon="7.68804">
        <ele>2221</ele>
        <time>2017-09-17T14:12:18Z</time>
      </trkpt>
      <trkpt lat="44.14773" lon="7.68804">
        <ele>2221</ele>
        <time>2017-09-17T14:12:19Z</time>
      </trkpt>
      <trkpt lat="44.14773" lon="7.68804">
        <ele>2221</ele>
        <time>2017-09-17T14:12:20Z</time>
      </trkpt>
      <trkpt lat="44.14773" lon="7.68804">
        <ele>2221</ele>
        <time>2017-09-17T14:12:21Z</time>
      </trkpt>
      <trkpt lat="44.14773" lon="7.68804">
        <ele>2221</ele>
        <time>2017-09-17T14:12:22Z</time>
      </trkpt>
      <trkpt lat="44.14773" lon="7.68804">
        <ele>2221</ele>
        <time>2017-09-17T14:12:23Z</time>
      </trkpt>
      <trkpt lat="44.14773" lon="7.68804">
        <ele>2221</ele>
        <time>2017-09-17T14:12:24Z</time>
      </trkpt>
      <trkpt lat="44.14773" lon="7.68804">
        <ele>2221</ele>
        <time>2017-09-17T14:12:25Z</time>
      </trkpt>
      <trkpt lat="44.14773" lon="7.68804">
        <ele>2221</ele>
        <time>2017-09-17T14:12:26Z</time>
      </trkpt>
      <trkpt lat="44.14773" lon="7.68804">
        <ele>2221</ele>
        <time>2017-09-17T14:12:27Z</time>
      </trkpt>
      <trkpt lat="44.14773" lon="7.68804">
        <ele>2221</ele>
        <time>2017-09-17T14:12:28Z</time>
      </trkpt>
      <trkpt lat="44.14773" lon="7.68804">
        <ele>2221</ele>
        <time>2017-09-17T14:12:29Z</time>
      </trkpt>
      <trkpt lat="44.14773" lon="7.68804">
        <ele>2221</ele>
        <time>2017-09-17T14:12:30Z</time>
      </trkpt>
      <trkpt lat="44.14773" lon="7.68804">
        <ele>2221</ele>
        <time>2017-09-17T14:12:31Z</time>
      </trkpt>
      <trkpt lat="44.14773" lon="7.68804">
        <ele>2221</ele>
        <time>2017-09-17T14:12:32Z</time>
      </trkpt>
      <trkpt lat="44.14773" lon="7.68804">
        <ele>2221</ele>
        <time>2017-09-17T14:12:33Z</time>
      </trkpt>
      <trkpt lat="44.14773" lon="7.68804">
        <ele>2221</ele>
        <time>2017-09-17T14:12:34Z</time>
      </trkpt>
      <trkpt lat="44.14773" lon="7.68804">
        <ele>2221</ele>
        <time>2017-09-17T14:12:35Z</time>
      </trkpt>
      <trkpt lat="44.14773" lon="7.68804">
        <ele>2221</ele>
        <time>2017-09-17T14:12:36Z</time>
      </trkpt>
      <trkpt lat="44.14773" lon="7.68804">
        <ele>2221</ele>
        <time>2017-09-17T14:12:37Z</time>
      </trkpt>
      <trkpt lat="44.14773" lon="7.68804">
        <ele>2221</ele>
        <time>2017-09-17T14:12:38Z</time>
      </trkpt>
      <trkpt lat="44.14773" lon="7.68804">
        <ele>2221</ele>
        <time>2017-09-17T14:12:39Z</time>
      </trkpt>
      <trkpt lat="44.14773" lon="7.68804">
        <ele>2221</ele>
        <time>2017-09-17T14:12:40Z</time>
      </trkpt>
      <trkpt lat="44.14773" lon="7.68804">
        <ele>2221</ele>
        <time>2017-09-17T14:12:41Z</time>
      </trkpt>
      <trkpt lat="44.14773" lon="7.68804">
        <ele>2221</ele>
        <time>2017-09-17T14:12:42Z</time>
      </trkpt>
      <trkpt lat="44.14773" lon="7.68804">
        <ele>2221</ele>
        <time>2017-09-17T14:12:43Z</time>
      </trkpt>
      <trkpt lat="44.14773" lon="7.68804">
        <ele>2221</ele>
        <time>2017-09-17T14:12:44Z</time>
      </trkpt>
      <trkpt lat="44.14773" lon="7.68804">
        <ele>2221</ele>
        <time>2017-09-17T14:12:45Z</time>
      </trkpt>
      <trkpt lat="44.14774" lon="7.68806">
        <ele>2221</ele>
        <time>2017-09-17T14:12:46Z</time>
      </trkpt>
      <trkpt lat="44.14774" lon="7.68808">
        <ele>2221</ele>
        <time>2017-09-17T14:12:47Z</time>
      </trkpt>
      <trkpt lat="44.14775" lon="7.6881">
        <ele>2221</ele>
        <time>2017-09-17T14:12:48Z</time>
      </trkpt>
      <trkpt lat="44.14776" lon="7.68813">
        <ele>2221</ele>
        <time>2017-09-17T14:12:49Z</time>
      </trkpt>
      <trkpt lat="44.14776" lon="7.68815">
        <ele>2220</ele>
        <time>2017-09-17T14:12:50Z</time>
      </trkpt>
      <trkpt lat="44.14777" lon="7.68818">
        <ele>2220</ele>
        <time>2017-09-17T14:12:51Z</time>
      </trkpt>
      <trkpt lat="44.14777" lon="7.68822">
        <ele>2220</ele>
        <time>2017-09-17T14:12:52Z</time>
      </trkpt>
      <trkpt lat="44.14778" lon="7.68827">
        <ele>2220</ele>
        <time>2017-09-17T14:12:53Z</time>
      </trkpt>
      <trkpt lat="44.14778" lon="7.68833">
        <ele>2220</ele>
        <time>2017-09-17T14:12:54Z</time>
      </trkpt>
      <trkpt lat="44.14778" lon="7.68839">
        <ele>2219</ele>
        <time>2017-09-17T14:12:55Z</time>
      </trkpt>
      <trkpt lat="44.14778" lon="7.68845">
        <ele>2219</ele>
        <time>2017-09-17T14:12:56Z</time>
      </trkpt>
      <trkpt lat="44.14778" lon="7.68852">
        <ele>2219</ele>
        <time>2017-09-17T14:12:57Z</time>
      </trkpt>
      <trkpt lat="44.14779" lon="7.68859">
        <ele>2218</ele>
        <time>2017-09-17T14:12:58Z</time>
      </trkpt>
      <trkpt lat="44.14779" lon="7.68866">
        <ele>2218</ele>
        <time>2017-09-17T14:12:59Z</time>
      </trkpt>
      <trkpt lat="44.14778" lon="7.68873">
        <ele>2218</ele>
        <time>2017-09-17T14:13:00Z</time>
      </trkpt>
      <trkpt lat="44.14778" lon="7.68881">
        <ele>2217</ele>
        <time>2017-09-17T14:13:01Z</time>
      </trkpt>
      <trkpt lat="44.14777" lon="7.68889">
        <ele>2217</ele>
        <time>2017-09-17T14:13:02Z</time>
      </trkpt>
      <trkpt lat="44.14777" lon="7.68899">
        <ele>2217</ele>
        <time>2017-09-17T14:13:03Z</time>
      </trkpt>
      <trkpt lat="44.14776" lon="7.68908">
        <ele>2216</ele>
        <time>2017-09-17T14:13:04Z</time>
      </trkpt>
      <trkpt lat="44.14775" lon="7.68918">
        <ele>2216</ele>
        <time>2017-09-17T14:13:05Z</time>
      </trkpt>
      <trkpt lat="44.14775" lon="7.68928">
        <ele>2216</ele>
        <time>2017-09-17T14:13:06Z</time>
      </trkpt>
      <trkpt lat="44.14774" lon="7.68938">
        <ele>2215</ele>
        <time>2017-09-17T14:13:07Z</time>
      </trkpt>
      <trkpt lat="44.14773" lon="7.68949">
        <ele>2215</ele>
        <time>2017-09-17T14:13:08Z</time>
      </trkpt>
      <trkpt lat="44.14772" lon="7.68959">
        <ele>2214</ele>
        <time>2017-09-17T14:13:09Z</time>
      </trkpt>
      <trkpt lat="44.1477" lon="7.6897">
        <ele>2214</ele>
        <time>2017-09-17T14:13:10Z</time>
      </trkpt>
      <trkpt lat="44.14769" lon="7.68981">
        <ele>2213</ele>
        <time>2017-09-17T14:13:11Z</time>
      </trkpt>
      <trkpt lat="44.14768" lon="7.68992">
        <ele>2213</ele>
        <time>2017-09-17T14:13:12Z</time>
      </trkpt>
      <trkpt lat="44.14767" lon="7.69004">
        <ele>2213</ele>
        <time>2017-09-17T14:13:13Z</time>
      </trkpt>
      <trkpt lat="44.14766" lon="7.69016">
        <ele>2212</ele>
        <time>2017-09-17T14:13:14Z</time>
      </trkpt>
      <trkpt lat="44.14766" lon="7.69027">
        <ele>2212</ele>
        <time>2017-09-17T14:13:15Z</time>
      </trkpt>
      <trkpt lat="44.14765" lon="7.69039">
        <ele>2211</ele>
        <time>2017-09-17T14:13:16Z</time>
      </trkpt>
      <trkpt lat="44.14765" lon="7.69051">
        <ele>2211</ele>
        <time>2017-09-17T14:13:17Z</time>
      </trkpt>
      <trkpt lat="44.14764" lon="7.69063">
        <ele>2210</ele>
        <time>2017-09-17T14:13:18Z</time>
      </trkpt>
      <trkpt lat="44.14763" lon="7.69075">
        <ele>2210</ele>
        <time>2017-09-17T14:13:19Z</time>
      </trkpt>
      <trkpt lat="44.14762" lon="7.69087">
        <ele>2210</ele>
        <time>2017-09-17T14:13:20Z</time>
      </trkpt>
      <trkpt lat="44.14761" lon="7.69099">
        <ele>2209</ele>
        <time>2017-09-17T14:13:21Z</time>
      </trkpt>
      <trkpt lat="44.1476" lon="7.69112">
        <ele>2208</ele>
        <time>2017-09-17T14:13:22Z</time>
      </trkpt>
      <trkpt lat="44.14759" lon="7.69124">
        <ele>2208</ele>
        <time>2017-09-17T14:13:23Z</time>
      </trkpt>
      <trkpt lat="44.14757" lon="7.69137">
        <ele>2207</ele>
        <time>2017-09-17T14:13:24Z</time>
      </trkpt>
      <trkpt lat="44.14756" lon="7.6915">
        <ele>2207</ele>
        <time>2017-09-17T14:13:25Z</time>
      </trkpt>
      <trkpt lat="44.14755" lon="7.69163">
        <ele>2207</ele>
        <time>2017-09-17T14:13:26Z</time>
      </trkpt>
      <trkpt lat="44.14754" lon="7.69176">
        <ele>2206</ele>
        <time>2017-09-17T14:13:27Z</time>
      </trkpt>
      <trkpt lat="44.14753" lon="7.69189">
        <ele>2205</ele>
        <time>2017-09-17T14:13:28Z</time>
      </trkpt>
      <trkpt lat="44.14751" lon="7.69202">
        <ele>2205</ele>
        <time>2017-09-17T14:13:29Z</time>
      </trkpt>
      <trkpt lat="44.1475" lon="7.69215">
        <ele>2204</ele>
        <time>2017-09-17T14:13:30Z</time>
      </trkpt>
      <trkpt lat="44.14749" lon="7.69228">
        <ele>2204</ele>
        <time>2017-09-17T14:13:31Z</time>
      </trkpt>
      <trkpt lat="44.14747" lon="7.69242">
        <ele>2203</ele>
        <time>2017-09-17T14:13:32Z</time>
      </trkpt>
      <trkpt lat="44.14745" lon="7.69255">
        <ele>2203</ele>
        <time>2017-09-17T14:13:33Z</time>
      </trkpt>
      <trkpt lat="44.14744" lon="7.69269">
        <ele>2202</ele>
        <time>2017-09-17T14:13:34Z</time>
      </trkpt>
      <trkpt lat="44.14742" lon="7.69282">
        <ele>2202</ele>
        <time>2017-09-17T14:13:35Z</time>
      </trkpt>
      <trkpt lat="44.14741" lon="7.69296">
        <ele>2201</ele>
        <time>2017-09-17T14:13:36Z</time>
      </trkpt>
      <trkpt lat="44.1474" lon="7.6931">
        <ele>2201</ele>
        <time>2017-09-17T14:13:37Z</time>
      </trkpt>
      <trkpt lat="44.14739" lon="7.69323">
        <ele>2200</ele>
        <time>2017-09-17T14:13:38Z</time>
      </trkpt>
      <trkpt lat="44.14739" lon="7.69337">
        <ele>2199</ele>
        <time>2017-09-17T14:13:39Z</time>
      </trkpt>
      <trkpt lat="44.14739" lon="7.69351">
        <ele>2199</ele>
        <time>2017-09-17T14:13:40Z</time>
      </trkpt>
      <trkpt lat="44.14739" lon="7.69365">
        <ele>2198</ele>
        <time>2017-09-17T14:13:41Z</time>
      </trkpt>
      <trkpt lat="44.14739" lon="7.6938">
        <ele>2198</ele>
        <time>2017-09-17T14:13:42Z</time>
      </trkpt>
      <trkpt lat="44.14739" lon="7.69394">
        <ele>2197</ele>
        <time>2017-09-17T14:13:43Z</time>
      </trkpt>
      <trkpt lat="44.14739" lon="7.69408">
        <ele>2196</ele>
        <time>2017-09-17T14:13:44Z</time>
      </trkpt>
      <trkpt lat="44.1474" lon="7.69422">
        <ele>2196</ele>
        <time>2017-09-17T14:13:45Z</time>
      </trkpt>
      <trkpt lat="44.1474" lon="7.69436">
        <ele>2196</ele>
        <time>2017-09-17T14:13:46Z</time>
      </trkpt>
      <trkpt lat="44.14742" lon="7.6945">
        <ele>2195</ele>
        <time>2017-09-17T14:13:47Z</time>
      </trkpt>
      <trkpt lat="44.14743" lon="7.69463">
        <ele>2195</ele>
        <time>2017-09-17T14:13:48Z</time>
      </trkpt>
      <trkpt lat="44.14745" lon="7.69475">
        <ele>2195</ele>
        <time>2017-09-17T14:13:49Z</time>
      </trkpt>
      <trkpt lat="44.14747" lon="7.69487">
        <ele>2195</ele>
        <time>2017-09-17T14:13:50Z</time>
      </trkpt>
      <trkpt lat="44.14749" lon="7.69498">
        <ele>2194</ele>
        <time>2017-09-17T14:13:51Z</time>
      </trkpt>
      <trkpt lat="44.1475" lon="7.69508">
        <ele>2194</ele>
        <time>2017-09-17T14:13:52Z</time>
      </trkpt>
      <trkpt lat="44.1475" lon="7.69519">
        <ele>2194</ele>
        <time>2017-09-17T14:13:53Z</time>
      </trkpt>
      <trkpt lat="44.1475" lon="7.69529">
        <ele>2194</ele>
        <time>2017-09-17T14:13:54Z</time>
      </trkpt>
      <trkpt lat="44.14749" lon="7.69538">
        <ele>2194</ele>
        <time>2017-09-17T14:13:55Z</time>
      </trkpt>
      <trkpt lat="44.14748" lon="7.69545">
        <ele>2193</ele>
        <time>2017-09-17T14:13:56Z</time>
      </trkpt>
      <trkpt lat="44.14745" lon="7.69551">
        <ele>2193</ele>
        <time>2017-09-17T14:13:57Z</time>
      </trkpt>
      <trkpt lat="44.14741" lon="7.69554">
        <ele>2193</ele>
        <time>2017-09-17T14:13:58Z</time>
      </trkpt>
      <trkpt lat="44.14737" lon="7.69554">
        <ele>2193</ele>
        <time>2017-09-17T14:13:59Z</time>
      </trkpt>
      <trkpt lat="44.14732" lon="7.69552">
        <ele>2193</ele>
        <time>2017-09-17T14:14:00Z</time>
      </trkpt>
      <trkpt lat="44.14728" lon="7.69548">
        <ele>2193</ele>
        <time>2017-09-17T14:14:01Z</time>
      </trkpt>
      <trkpt lat="44.14725" lon="7.69542">
        <ele>2193</ele>
        <time>2017-09-17T14:14:02Z</time>
      </trkpt>
      <trkpt lat="44.14723" lon="7.69535">
        <ele>2193</ele>
        <time>2017-09-17T14:14:03Z</time>
      </trkpt>
      <trkpt lat="44.14722" lon="7.69528">
        <ele>2192</ele>
        <time>2017-09-17T14:14:04Z</time>
      </trkpt>
      <trkpt lat="44.14721" lon="7.6952">
        <ele>2192</ele>
        <time>2017-09-17T14:14:05Z</time>
      </trkpt>
      <trkpt lat="44.1472" lon="7.69513">
        <ele>2192</ele>
        <time>2017-09-17T14:14:06Z</time>
      </trkpt>
      <trkpt lat="44.14718" lon="7.69505">
        <ele>2192</ele>
        <time>2017-09-17T14:14:07Z</time>
      </trkpt>
      <trkpt lat="44.14717" lon="7.69497">
        <ele>2191</ele>
        <time>2017-09-17T14:14:08Z</time>
      </trkpt>
      <trkpt lat="44.14715" lon="7.69489">
        <ele>2191</ele>
        <time>2017-09-17T14:14:09Z</time>
      </trkpt>
      <trkpt lat="44.14712" lon="7.69481">
        <ele>2191</ele>
        <time>2017-09-17T14:14:10Z</time>
      </trkpt>
      <trkpt lat="44.14709" lon="7.69474">
        <ele>2190</ele>
        <time>2017-09-17T14:14:11Z</time>
      </trkpt>
      <trkpt lat="44.14706" lon="7.69466">
        <ele>2190</ele>
        <time>2017-09-17T14:14:12Z</time>
      </trkpt>
      <trkpt lat="44.14702" lon="7.69458">
        <ele>2189</ele>
        <time>2017-09-17T14:14:13Z</time>
      </trkpt>
      <trkpt lat="44.14699" lon="7.6945">
        <ele>2189</ele>
        <time>2017-09-17T14:14:14Z</time>
      </trkpt>
      <trkpt lat="44.14696" lon="7.69442">
        <ele>2189</ele>
        <time>2017-09-17T14:14:15Z</time>
      </trkpt>
      <trkpt lat="44.14693" lon="7.69434">
        <ele>2188</ele>
        <time>2017-09-17T14:14:16Z</time>
      </trkpt>
      <trkpt lat="44.14689" lon="7.69426">
        <ele>2188</ele>
        <time>2017-09-17T14:14:17Z</time>
      </trkpt>
      <trkpt lat="44.14684" lon="7.69419">
        <ele>2187</ele>
        <time>2017-09-17T14:14:18Z</time>
      </trkpt>
      <trkpt lat="44.1468" lon="7.69411">
        <ele>2187</ele>
        <time>2017-09-17T14:14:19Z</time>
      </trkpt>
      <trkpt lat="44.14676" lon="7.69403">
        <ele>2186</ele>
        <time>2017-09-17T14:14:20Z</time>
      </trkpt>
      <trkpt lat="44.14673" lon="7.69395">
        <ele>2186</ele>
        <time>2017-09-17T14:14:21Z</time>
      </trkpt>
      <trkpt lat="44.14669" lon="7.69386">
        <ele>2185</ele>
        <time>2017-09-17T14:14:22Z</time>
      </trkpt>
      <trkpt lat="44.14665" lon="7.69377">
        <ele>2185</ele>
        <time>2017-09-17T14:14:23Z</time>
      </trkpt>
      <trkpt lat="44.14662" lon="7.69367">
        <ele>2184</ele>
        <time>2017-09-17T14:14:24Z</time>
      </trkpt>
      <trkpt lat="44.14659" lon="7.69357">
        <ele>2184</ele>
        <time>2017-09-17T14:14:25Z</time>
      </trkpt>
      <trkpt lat="44.14655" lon="7.69346">
        <ele>2183</ele>
        <time>2017-09-17T14:14:26Z</time>
      </trkpt>
      <trkpt lat="44.14651" lon="7.69336">
        <ele>2183</ele>
        <time>2017-09-17T14:14:27Z</time>
      </trkpt>
      <trkpt lat="44.14647" lon="7.69326">
        <ele>2182</ele>
        <time>2017-09-17T14:14:28Z</time>
      </trkpt>
      <trkpt lat="44.14643" lon="7.69316">
        <ele>2182</ele>
        <time>2017-09-17T14:14:29Z</time>
      </trkpt>
      <trkpt lat="44.14638" lon="7.69305">
        <ele>2181</ele>
        <time>2017-09-17T14:14:30Z</time>
      </trkpt>
      <trkpt lat="44.14633" lon="7.69295">
        <ele>2180</ele>
        <time>2017-09-17T14:14:31Z</time>
      </trkpt>
      <trkpt lat="44.14627" lon="7.69286">
        <ele>2180</ele>
        <time>2017-09-17T14:14:32Z</time>
      </trkpt>
      <trkpt lat="44.1462" lon="7.69276">
        <ele>2179</ele>
        <time>2017-09-17T14:14:33Z</time>
      </trkpt>
      <trkpt lat="44.14614" lon="7.69266">
        <ele>2179</ele>
        <time>2017-09-17T14:14:34Z</time>
      </trkpt>
      <trkpt lat="44.14607" lon="7.69256">
        <ele>2178</ele>
        <time>2017-09-17T14:14:35Z</time>
      </trkpt>
      <trkpt lat="44.14601" lon="7.69246">
        <ele>2177</ele>
        <time>2017-09-17T14:14:36Z</time>
      </trkpt>
      <trkpt lat="44.14595" lon="7.69234">
        <ele>2177</ele>
        <time>2017-09-17T14:14:37Z</time>
      </trkpt>
      <trkpt lat="44.1459" lon="7.69223">
        <ele>2176</ele>
        <time>2017-09-17T14:14:38Z</time>
      </trkpt>
      <trkpt lat="44.14586" lon="7.6921">
        <ele>2175</ele>
        <time>2017-09-17T14:14:39Z</time>
      </trkpt>
      <trkpt lat="44.14582" lon="7.69198">
        <ele>2175</ele>
        <time>2017-09-17T14:14:40Z</time>
      </trkpt>
      <trkpt lat="44.14579" lon="7.69186">
        <ele>2174</ele>
        <time>2017-09-17T14:14:41Z</time>
      </trkpt>
      <trkpt lat="44.14576" lon="7.69175">
        <ele>2173</ele>
        <time>2017-09-17T14:14:42Z</time>
      </trkpt>
      <trkpt lat="44.14573" lon="7.69163">
        <ele>2173</ele>
        <time>2017-09-17T14:14:43Z</time>
      </trkpt>
      <trkpt lat="44.1457" lon="7.6915">
        <ele>2172</ele>
        <time>2017-09-17T14:14:44Z</time>
      </trkpt>
      <trkpt lat="44.14568" lon="7.69138">
        <ele>2171</ele>
        <time>2017-09-17T14:14:45Z</time>
      </trkpt>
      <trkpt lat="44.14565" lon="7.69125">
        <ele>2171</ele>
        <time>2017-09-17T14:14:46Z</time>
      </trkpt>
      <trkpt lat="44.14563" lon="7.69112">
        <ele>2170</ele>
        <time>2017-09-17T14:14:47Z</time>
      </trkpt>
      <trkpt lat="44.14561" lon="7.69099">
        <ele>2169</ele>
        <time>2017-09-17T14:14:48Z</time>
      </trkpt>
      <trkpt lat="44.14558" lon="7.69086">
        <ele>2169</ele>
        <time>2017-09-17T14:14:49Z</time>
      </trkpt>
      <trkpt lat="44.14555" lon="7.69073">
        <ele>2168</ele>
        <time>2017-09-17T14:14:50Z</time>
      </trkpt>
      <trkpt lat="44.14553" lon="7.69061">
        <ele>2167</ele>
        <time>2017-09-17T14:14:51Z</time>
      </trkpt>
      <trkpt lat="44.1455" lon="7.69048">
        <ele>2166</ele>
        <time>2017-09-17T14:14:52Z</time>
      </trkpt>
      <trkpt lat="44.14548" lon="7.69036">
        <ele>2166</ele>
        <time>2017-09-17T14:14:53Z</time>
      </trkpt>
      <trkpt lat="44.14545" lon="7.69024">
        <ele>2165</ele>
        <time>2017-09-17T14:14:54Z</time>
      </trkpt>
      <trkpt lat="44.14543" lon="7.69012">
        <ele>2164</ele>
        <time>2017-09-17T14:14:55Z</time>
      </trkpt>
      <trkpt lat="44.14541" lon="7.69">
        <ele>2164</ele>
        <time>2017-09-17T14:14:56Z</time>
      </trkpt>
      <trkpt lat="44.1454" lon="7.68989">
        <ele>2163</ele>
        <time>2017-09-17T14:14:57Z</time>
      </trkpt>
      <trkpt lat="44.14539" lon="7.68979">
        <ele>2163</ele>
        <time>2017-09-17T14:14:58Z</time>
      </trkpt>
      <trkpt lat="44.14538" lon="7.68969">
        <ele>2162</ele>
        <time>2017-09-17T14:14:59Z</time>
      </trkpt>
      <trkpt lat="44.14537" lon="7.6896">
        <ele>2162</ele>
        <time>2017-09-17T14:15:00Z</time>
      </trkpt>
      <trkpt lat="44.14537" lon="7.6895">
        <ele>2161</ele>
        <time>2017-09-17T14:15:01Z</time>
      </trkpt>
      <trkpt lat="44.14536" lon="7.6894">
        <ele>2160</ele>
        <time>2017-09-17T14:15:02Z</time>
      </trkpt>
      <trkpt lat="44.14535" lon="7.6893">
        <ele>2160</ele>
        <time>2017-09-17T14:15:03Z</time>
      </trkpt>
      <trkpt lat="44.14535" lon="7.6892">
        <ele>2160</ele>
        <time>2017-09-17T14:15:04Z</time>
      </trkpt>
      <trkpt lat="44.14535" lon="7.68909">
        <ele>2159</ele>
        <time>2017-09-17T14:15:05Z</time>
      </trkpt>
      <trkpt lat="44.14534" lon="7.68898">
        <ele>2159</ele>
        <time>2017-09-17T14:15:06Z</time>
      </trkpt>
      <trkpt lat="44.14533" lon="7.68887">
        <ele>2158</ele>
        <time>2017-09-17T14:15:07Z</time>
      </trkpt>
      <trkpt lat="44.14531" lon="7.68875">
        <ele>2158</ele>
        <time>2017-09-17T14:15:08Z</time>
      </trkpt>
      <trkpt lat="44.14528" lon="7.68864">
        <ele>2157</ele>
        <time>2017-09-17T14:15:09Z</time>
      </trkpt>
      <trkpt lat="44.14526" lon="7.68853">
        <ele>2156</ele>
        <time>2017-09-17T14:15:10Z</time>
      </trkpt>
      <trkpt lat="44.14523" lon="7.68841">
        <ele>2156</ele>
        <time>2017-09-17T14:15:11Z</time>
      </trkpt>
      <trkpt lat="44.14519" lon="7.6883">
        <ele>2155</ele>
        <time>2017-09-17T14:15:12Z</time>
      </trkpt>
      <trkpt lat="44.14513" lon="7.6882">
        <ele>2155</ele>
        <time>2017-09-17T14:15:13Z</time>
      </trkpt>
      <trkpt lat="44.14508" lon="7.68811">
        <ele>2154</ele>
        <time>2017-09-17T14:15:14Z</time>
      </trkpt>
      <trkpt lat="44.14503" lon="7.68803">
        <ele>2153</ele>
        <time>2017-09-17T14:15:15Z</time>
      </trkpt>
      <trkpt lat="44.145" lon="7.68794">
        <ele>2153</ele>
        <time>2017-09-17T14:15:16Z</time>
      </trkpt>
      <trkpt lat="44.14497" lon="7.68785">
        <ele>2153</ele>
        <time>2017-09-17T14:15:17Z</time>
      </trkpt>
      <trkpt lat="44.14496" lon="7.68776">
        <ele>2153</ele>
        <time>2017-09-17T14:15:18Z</time>
      </trkpt>
      <trkpt lat="44.14495" lon="7.68766">
        <ele>2152</ele>
        <time>2017-09-17T14:15:19Z</time>
      </trkpt>
      <trkpt lat="44.14492" lon="7.68756">
        <ele>2152</ele>
        <time>2017-09-17T14:15:20Z</time>
      </trkpt>
      <trkpt lat="44.1449" lon="7.68745">
        <ele>2151</ele>
        <time>2017-09-17T14:15:21Z</time>
      </trkpt>
      <trkpt lat="44.14487" lon="7.68734">
        <ele>2150</ele>
        <time>2017-09-17T14:15:22Z</time>
      </trkpt>
      <trkpt lat="44.14485" lon="7.68724">
        <ele>2150</ele>
        <time>2017-09-17T14:15:23Z</time>
      </trkpt>
      <trkpt lat="44.14483" lon="7.68712">
        <ele>2149</ele>
        <time>2017-09-17T14:15:24Z</time>
      </trkpt>
      <trkpt lat="44.14484" lon="7.68701">
        <ele>2149</ele>
        <time>2017-09-17T14:15:25Z</time>
      </trkpt>
      <trkpt lat="44.14486" lon="7.6869">
        <ele>2148</ele>
        <time>2017-09-17T14:15:26Z</time>
      </trkpt>
      <trkpt lat="44.14489" lon="7.6868">
        <ele>2148</ele>
        <time>2017-09-17T14:15:27Z</time>
      </trkpt>
      <trkpt lat="44.14493" lon="7.68671">
        <ele>2147</ele>
        <time>2017-09-17T14:15:28Z</time>
      </trkpt>
      <trkpt lat="44.14495" lon="7.68663">
        <ele>2147</ele>
        <time>2017-09-17T14:15:29Z</time>
      </trkpt>
      <trkpt lat="44.14496" lon="7.68656">
        <ele>2147</ele>
        <time>2017-09-17T14:15:30Z</time>
      </trkpt>
      <trkpt lat="44.14496" lon="7.68652">
        <ele>2146</ele>
        <time>2017-09-17T14:15:31Z</time>
      </trkpt>
      <trkpt lat="44.14496" lon="7.68648">
        <ele>2146</ele>
        <time>2017-09-17T14:15:32Z</time>
      </trkpt>
      <trkpt lat="44.14495" lon="7.68646">
        <ele>2146</ele>
        <time>2017-09-17T14:15:33Z</time>
      </trkpt>
      <trkpt lat="44.14495" lon="7.68645">
        <ele>2146</ele>
        <time>2017-09-17T14:15:34Z</time>
      </trkpt>
      <trkpt lat="44.14495" lon="7.68645">
        <ele>2146</ele>
        <time>2017-09-17T14:15:35Z</time>
      </trkpt>
      <trkpt lat="44.14495" lon="7.68644">
        <ele>2146</ele>
        <time>2017-09-17T14:15:36Z</time>
      </trkpt>
      <trkpt lat="44.14495" lon="7.68644">
        <ele>2146</ele>
        <time>2017-09-17T14:15:37Z</time>
      </trkpt>
      <trkpt lat="44.14495" lon="7.68644">
        <ele>2146</ele>
        <time>2017-09-17T14:15:38Z</time>
      </trkpt>
      <trkpt lat="44.14495" lon="7.68644">
        <ele>2146</ele>
        <time>2017-09-17T14:15:39Z</time>
      </trkpt>
      <trkpt lat="44.14495" lon="7.68644">
        <ele>2146</ele>
        <time>2017-09-17T14:15:40Z</time>
      </trkpt>
      <trkpt lat="44.14495" lon="7.68644">
        <ele>2146</ele>
        <time>2017-09-17T14:15:41Z</time>
      </trkpt>
      <trkpt lat="44.14495" lon="7.68644">
        <ele>2145</ele>
        <time>2017-09-17T14:15:42Z</time>
      </trkpt>
      <trkpt lat="44.14495" lon="7.68643">
        <ele>2145</ele>
        <time>2017-09-17T14:15:43Z</time>
      </trkpt>
      <trkpt lat="44.14495" lon="7.68643">
        <ele>2145</ele>
        <time>2017-09-17T14:15:44Z</time>
      </trkpt>
      <trkpt lat="44.14495" lon="7.68643">
        <ele>2145</ele>
        <time>2017-09-17T14:15:45Z</time>
      </trkpt>
      <trkpt lat="44.14495" lon="7.68643">
        <ele>2145</ele>
        <time>2017-09-17T14:15:46Z</time>
      </trkpt>
      <trkpt lat="44.14495" lon="7.68643">
        <ele>2145</ele>
        <time>2017-09-17T14:15:47Z</time>
      </trkpt>
      <trkpt lat="44.14495" lon="7.68643">
        <ele>2145</ele>
        <time>2017-09-17T14:15:48Z</time>
      </trkpt>
      <trkpt lat="44.14495" lon="7.68643">
        <ele>2145</ele>
        <time>2017-09-17T14:15:49Z</time>
      </trkpt>
      <trkpt lat="44.14495" lon="7.68643">
        <ele>2145</ele>
        <time>2017-09-17T14:15:50Z</time>
      </trkpt>
      <trkpt lat="44.14495" lon="7.68643">
        <ele>2145</ele>
        <time>2017-09-17T14:15:51Z</time>
      </trkpt>
      <trkpt lat="44.14495" lon="7.68643">
        <ele>2145</ele>
        <time>2017-09-17T14:15:52Z</time>
      </trkpt>
      <trkpt lat="44.14495" lon="7.68643">
        <ele>2145</ele>
        <time>2017-09-17T14:15:53Z</time>
      </trkpt>
      <trkpt lat="44.14495" lon="7.68643">
        <ele>2145</ele>
        <time>2017-09-17T14:15:54Z</time>
      </trkpt>
      <trkpt lat="44.14495" lon="7.68643">
        <ele>2145</ele>
        <time>2017-09-17T14:15:55Z</time>
      </trkpt>
      <trkpt lat="44.14495" lon="7.68643">
        <ele>2145</ele>
        <time>2017-09-17T14:15:56Z</time>
      </trkpt>
      <trkpt lat="44.14495" lon="7.68643">
        <ele>2145</ele>
        <time>2017-09-17T14:15:57Z</time>
      </trkpt>
      <trkpt lat="44.14495" lon="7.68643">
        <ele>2144</ele>
        <time>2017-09-17T14:15:58Z</time>
      </trkpt>
      <trkpt lat="44.14495" lon="7.68643">
        <ele>2144</ele>
        <time>2017-09-17T14:15:59Z</time>
      </trkpt>
      <trkpt lat="44.14495" lon="7.68643">
        <ele>2144</ele>
        <time>2017-09-17T14:16:00Z</time>
      </trkpt>
      <trkpt lat="44.14495" lon="7.68643">
        <ele>2144</ele>
        <time>2017-09-17T14:16:01Z</time>
      </trkpt>
      <trkpt lat="44.14495" lon="7.68643">
        <ele>2144</ele>
        <time>2017-09-17T14:16:02Z</time>
      </trkpt>
      <trkpt lat="44.14495" lon="7.68643">
        <ele>2144</ele>
        <time>2017-09-17T14:16:03Z</time>
      </trkpt>
      <trkpt lat="44.14495" lon="7.68643">
        <ele>2144</ele>
        <time>2017-09-17T14:16:04Z</time>
      </trkpt>
      <trkpt lat="44.14495" lon="7.68643">
        <ele>2144</ele>
        <time>2017-09-17T14:16:05Z</time>
      </trkpt>
      <trkpt lat="44.14495" lon="7.68643">
        <ele>2144</ele>
        <time>2017-09-17T14:16:06Z</time>
      </trkpt>
      <trkpt lat="44.14495" lon="7.68643">
        <ele>2144</ele>
        <time>2017-09-17T14:16:07Z</time>
      </trkpt>
      <trkpt lat="44.14495" lon="7.68643">
        <ele>2144</ele>
        <time>2017-09-17T14:16:08Z</time>
      </trkpt>
      <trkpt lat="44.14495" lon="7.68643">
        <ele>2144</ele>
        <time>2017-09-17T14:16:09Z</time>
      </trkpt>
      <trkpt lat="44.14495" lon="7.68643">
        <ele>2144</ele>
        <time>2017-09-17T14:16:10Z</time>
      </trkpt>
      <trkpt lat="44.14495" lon="7.68643">
        <ele>2144</ele>
        <time>2017-09-17T14:16:11Z</time>
      </trkpt>
      <trkpt lat="44.14495" lon="7.68643">
        <ele>2144</ele>
        <time>2017-09-17T14:16:12Z</time>
      </trkpt>
      <trkpt lat="44.14495" lon="7.68643">
        <ele>2144</ele>
        <time>2017-09-17T14:16:13Z</time>
      </trkpt>
      <trkpt lat="44.14495" lon="7.68643">
        <ele>2144</ele>
        <time>2017-09-17T14:16:14Z</time>
      </trkpt>
      <trkpt lat="44.14495" lon="7.68643">
        <ele>2144</ele>
        <time>2017-09-17T14:16:15Z</time>
      </trkpt>
      <trkpt lat="44.14495" lon="7.68643">
        <ele>2144</ele>
        <time>2017-09-17T14:16:16Z</time>
      </trkpt>
      <trkpt lat="44.14495" lon="7.68644">
        <ele>2144</ele>
        <time>2017-09-17T14:16:17Z</time>
      </trkpt>
      <trkpt lat="44.14495" lon="7.68644">
        <ele>2144</ele>
        <time>2017-09-17T14:16:18Z</time>
      </trkpt>
      <trkpt lat="44.14495" lon="7.68644">
        <ele>2144</ele>
        <time>2017-09-17T14:16:19Z</time>
      </trkpt>
      <trkpt lat="44.14495" lon="7.68644">
        <ele>2144</ele>
        <time>2017-09-17T14:16:20Z</time>
      </trkpt>
      <trkpt lat="44.14495" lon="7.68644">
        <ele>2144</ele>
        <time>2017-09-17T14:16:21Z</time>
      </trkpt>
      <trkpt lat="44.14495" lon="7.68644">
        <ele>2145</ele>
        <time>2017-09-17T14:16:22Z</time>
      </trkpt>
      <trkpt lat="44.14495" lon="7.68644">
        <ele>2145</ele>
        <time>2017-09-17T14:16:23Z</time>
      </trkpt>
      <trkpt lat="44.14495" lon="7.68644">
        <ele>2145</ele>
        <time>2017-09-17T14:16:24Z</time>
      </trkpt>
      <trkpt lat="44.14495" lon="7.68644">
        <ele>2145</ele>
        <time>2017-09-17T14:16:25Z</time>
      </trkpt>
      <trkpt lat="44.14495" lon="7.68644">
        <ele>2145</ele>
        <time>2017-09-17T14:16:26Z</time>
      </trkpt>
      <trkpt lat="44.14495" lon="7.68644">
        <ele>2145</ele>
        <time>2017-09-17T14:16:27Z</time>
      </trkpt>
      <trkpt lat="44.14495" lon="7.68645">
        <ele>2145</ele>
        <time>2017-09-17T14:16:28Z</time>
      </trkpt>
      <trkpt lat="44.14495" lon="7.68645">
        <ele>2145</ele>
        <time>2017-09-17T14:16:29Z</time>
      </trkpt>
      <trkpt lat="44.14495" lon="7.68645">
        <ele>2145</ele>
        <time>2017-09-17T14:16:30Z</time>
      </trkpt>
      <trkpt lat="44.14495" lon="7.68645">
        <ele>2145</ele>
        <time>2017-09-17T14:16:31Z</time>
      </trkpt>
      <trkpt lat="44.14495" lon="7.68645">
        <ele>2145</ele>
        <time>2017-09-17T14:16:32Z</time>
      </trkpt>
      <trkpt lat="44.14495" lon="7.68645">
        <ele>2145</ele>
        <time>2017-09-17T14:16:33Z</time>
      </trkpt>
      <trkpt lat="44.14495" lon="7.68645">
        <ele>2145</ele>
        <time>2017-09-17T14:16:34Z</time>
      </trkpt>
      <trkpt lat="44.14495" lon="7.68645">
        <ele>2145</ele>
        <time>2017-09-17T14:16:35Z</time>
      </trkpt>
      <trkpt lat="44.14495" lon="7.68645">
        <ele>2145</ele>
        <time>2017-09-17T14:16:36Z</time>
      </trkpt>
      <trkpt lat="44.14495" lon="7.68645">
        <ele>2145</ele>
        <time>2017-09-17T14:16:37Z</time>
      </trkpt>
      <trkpt lat="44.14495" lon="7.68644">
        <ele>2145</ele>
        <time>2017-09-17T14:16:38Z</time>
      </trkpt>
      <trkpt lat="44.14494" lon="7.68641">
        <ele>2145</ele>
        <time>2017-09-17T14:16:39Z</time>
      </trkpt>
      <trkpt lat="44.14494" lon="7.68638">
        <ele>2145</ele>
        <time>2017-09-17T14:16:40Z</time>
      </trkpt>
      <trkpt lat="44.14493" lon="7.68634">
        <ele>2145</ele>
        <time>2017-09-17T14:16:41Z</time>
      </trkpt>
      <trkpt lat="44.14493" lon="7.68629">
        <ele>2145</ele>
        <time>2017-09-17T14:16:42Z</time>
      </trkpt>
      <trkpt lat="44.14493" lon="7.68623">
        <ele>2144</ele>
        <time>2017-09-17T14:16:43Z</time>
      </trkpt>
      <trkpt lat="44.14493" lon="7.68616">
        <ele>2144</ele>
        <time>2017-09-17T14:16:44Z</time>
      </trkpt>
      <trkpt lat="44.14493" lon="7.68608">
        <ele>2144</ele>
        <time>2017-09-17T14:16:45Z</time>
      </trkpt>
      <trkpt lat="44.14494" lon="7.686">
        <ele>2144</ele>
        <time>2017-09-17T14:16:46Z</time>
      </trkpt>
      <trkpt lat="44.14496" lon="7.68593">
        <ele>2144</ele>
        <time>2017-09-17T14:16:47Z</time>
      </trkpt>
      <trkpt lat="44.14499" lon="7.68585">
        <ele>2143</ele>
        <time>2017-09-17T14:16:48Z</time>
      </trkpt>
      <trkpt lat="44.14502" lon="7.68577">
        <ele>2143</ele>
        <time>2017-09-17T14:16:49Z</time>
      </trkpt>
      <trkpt lat="44.14503" lon="7.68568">
        <ele>2143</ele>
        <time>2017-09-17T14:16:50Z</time>
      </trkpt>
      <trkpt lat="44.14503" lon="7.68559">
        <ele>2142</ele>
        <time>2017-09-17T14:16:51Z</time>
      </trkpt>
      <trkpt lat="44.14501" lon="7.68549">
        <ele>2142</ele>
        <time>2017-09-17T14:16:52Z</time>
      </trkpt>
      <trkpt lat="44.14498" lon="7.68539">
        <ele>2142</ele>
        <time>2017-09-17T14:16:53Z</time>
      </trkpt>
      <trkpt lat="44.14493" lon="7.6853">
        <ele>2141</ele>
        <time>2017-09-17T14:16:54Z</time>
      </trkpt>
      <trkpt lat="44.14489" lon="7.68521">
        <ele>2141</ele>
        <time>2017-09-17T14:16:55Z</time>
      </trkpt>
      <trkpt lat="44.14484" lon="7.68511">
        <ele>2141</ele>
        <time>2017-09-17T14:16:56Z</time>
      </trkpt>
      <trkpt lat="44.1448" lon="7.68502">
        <ele>2140</ele>
        <time>2017-09-17T14:16:57Z</time>
      </trkpt>
      <trkpt lat="44.14477" lon="7.68492">
        <ele>2140</ele>
        <time>2017-09-17T14:16:58Z</time>
      </trkpt>
      <trkpt lat="44.14476" lon="7.68481">
        <ele>2139</ele>
        <time>2017-09-17T14:16:59Z</time>
      </trkpt>
      <trkpt lat="44.14475" lon="7.6847">
        <ele>2139</ele>
        <time>2017-09-17T14:17:00Z</time>
      </trkpt>
      <trkpt lat="44.14475" lon="7.68458">
        <ele>2138</ele>
        <time>2017-09-17T14:17:01Z</time>
      </trkpt>
      <trkpt lat="44.14476" lon="7.68446">
        <ele>2138</ele>
        <time>2017-09-17T14:17:02Z</time>
      </trkpt>
      <trkpt lat="44.14475" lon="7.68434">
        <ele>2137</ele>
        <time>2017-09-17T14:17:03Z</time>
      </trkpt>
      <trkpt lat="44.14474" lon="7.68423">
        <ele>2136</ele>
        <time>2017-09-17T14:17:04Z</time>
      </trkpt>
      <trkpt lat="44.14473" lon="7.68411">
        <ele>2136</ele>
        <time>2017-09-17T14:17:05Z</time>
      </trkpt>
      <trkpt lat="44.14472" lon="7.68399">
        <ele>2135</ele>
        <time>2017-09-17T14:17:06Z</time>
      </trkpt>
      <trkpt lat="44.14471" lon="7.68387">
        <ele>2134</ele>
        <time>2017-09-17T14:17:07Z</time>
      </trkpt>
      <trkpt lat="44.1447" lon="7.68375">
        <ele>2134</ele>
        <time>2017-09-17T14:17:08Z</time>
      </trkpt>
      <trkpt lat="44.14468" lon="7.68363">
        <ele>2133</ele>
        <time>2017-09-17T14:17:09Z</time>
      </trkpt>
      <trkpt lat="44.14465" lon="7.68351">
        <ele>2133</ele>
        <time>2017-09-17T14:17:10Z</time>
      </trkpt>
      <trkpt lat="44.14461" lon="7.6834">
        <ele>2132</ele>
        <time>2017-09-17T14:17:11Z</time>
      </trkpt>
      <trkpt lat="44.14456" lon="7.68329">
        <ele>2131</ele>
        <time>2017-09-17T14:17:12Z</time>
      </trkpt>
      <trkpt lat="44.14452" lon="7.68319">
        <ele>2131</ele>
        <time>2017-09-17T14:17:13Z</time>
      </trkpt>
      <trkpt lat="44.14448" lon="7.68309">
        <ele>2130</ele>
        <time>2017-09-17T14:17:14Z</time>
      </trkpt>
      <trkpt lat="44.14446" lon="7.68298">
        <ele>2130</ele>
        <time>2017-09-17T14:17:15Z</time>
      </trkpt>
      <trkpt lat="44.14443" lon="7.68287">
        <ele>2129</ele>
        <time>2017-09-17T14:17:16Z</time>
      </trkpt>
      <trkpt lat="44.14441" lon="7.68276">
        <ele>2129</ele>
        <time>2017-09-17T14:17:17Z</time>
      </trkpt>
      <trkpt lat="44.14438" lon="7.68264">
        <ele>2128</ele>
        <time>2017-09-17T14:17:18Z</time>
      </trkpt>
      <trkpt lat="44.14435" lon="7.68252">
        <ele>2128</ele>
        <time>2017-09-17T14:17:19Z</time>
      </trkpt>
      <trkpt lat="44.14432" lon="7.6824">
        <ele>2127</ele>
        <time>2017-09-17T14:17:20Z</time>
      </trkpt>
      <trkpt lat="44.14429" lon="7.68229">
        <ele>2126</ele>
        <time>2017-09-17T14:17:21Z</time>
      </trkpt>
      <trkpt lat="44.14426" lon="7.68217">
        <ele>2126</ele>
        <time>2017-09-17T14:17:22Z</time>
      </trkpt>
      <trkpt lat="44.14423" lon="7.68205">
        <ele>2125</ele>
        <time>2017-09-17T14:17:23Z</time>
      </trkpt>
      <trkpt lat="44.14421" lon="7.68193">
        <ele>2124</ele>
        <time>2017-09-17T14:17:24Z</time>
      </trkpt>
      <trkpt lat="44.14421" lon="7.68181">
        <ele>2124</ele>
        <time>2017-09-17T14:17:25Z</time>
      </trkpt>
      <trkpt lat="44.14422" lon="7.68168">
        <ele>2123</ele>
        <time>2017-09-17T14:17:26Z</time>
      </trkpt>
      <trkpt lat="44.14424" lon="7.68156">
        <ele>2122</ele>
        <time>2017-09-17T14:17:27Z</time>
      </trkpt>
      <trkpt lat="44.14425" lon="7.68143">
        <ele>2122</ele>
        <time>2017-09-17T14:17:28Z</time>
      </trkpt>
      <trkpt lat="44.14427" lon="7.6813">
        <ele>2121</ele>
        <time>2017-09-17T14:17:29Z</time>
      </trkpt>
      <trkpt lat="44.14428" lon="7.68116">
        <ele>2120</ele>
        <time>2017-09-17T14:17:30Z</time>
      </trkpt>
      <trkpt lat="44.14428" lon="7.68102">
        <ele>2119</ele>
        <time>2017-09-17T14:17:31Z</time>
      </trkpt>
      <trkpt lat="44.14428" lon="7.68089">
        <ele>2119</ele>
        <time>2017-09-17T14:17:32Z</time>
      </trkpt>
      <trkpt lat="44.14427" lon="7.68074">
        <ele>2118</ele>
        <time>2017-09-17T14:17:33Z</time>
      </trkpt>
      <trkpt lat="44.14426" lon="7.6806">
        <ele>2117</ele>
        <time>2017-09-17T14:17:34Z</time>
      </trkpt>
      <trkpt lat="44.14423" lon="7.68046">
        <ele>2116</ele>
        <time>2017-09-17T14:17:35Z</time>
      </trkpt>
      <trkpt lat="44.14421" lon="7.68032">
        <ele>2116</ele>
        <time>2017-09-17T14:17:36Z</time>
      </trkpt>
      <trkpt lat="44.14419" lon="7.68018">
        <ele>2115</ele>
        <time>2017-09-17T14:17:37Z</time>
      </trkpt>
      <trkpt lat="44.14418" lon="7.68003">
        <ele>2114</ele>
        <time>2017-09-17T14:17:38Z</time>
      </trkpt>
      <trkpt lat="44.14416" lon="7.67989">
        <ele>2114</ele>
        <time>2017-09-17T14:17:39Z</time>
      </trkpt>
      <trkpt lat="44.14414" lon="7.67975">
        <ele>2113</ele>
        <time>2017-09-17T14:17:40Z</time>
      </trkpt>
      <trkpt lat="44.1441" lon="7.67961">
        <ele>2112</ele>
        <time>2017-09-17T14:17:41Z</time>
      </trkpt>
      <trkpt lat="44.14407" lon="7.67948">
        <ele>2111</ele>
        <time>2017-09-17T14:17:42Z</time>
      </trkpt>
      <trkpt lat="44.14404" lon="7.67934">
        <ele>2111</ele>
        <time>2017-09-17T14:17:43Z</time>
      </trkpt>
      <trkpt lat="44.14401" lon="7.6792">
        <ele>2110</ele>
        <time>2017-09-17T14:17:44Z</time>
      </trkpt>
      <trkpt lat="44.14399" lon="7.67906">
        <ele>2109</ele>
        <time>2017-09-17T14:17:45Z</time>
      </trkpt>
      <trkpt lat="44.14396" lon="7.67892">
        <ele>2109</ele>
        <time>2017-09-17T14:17:46Z</time>
      </trkpt>
      <trkpt lat="44.14394" lon="7.67878">
        <ele>2108</ele>
        <time>2017-09-17T14:17:47Z</time>
      </trkpt>
      <trkpt lat="44.14391" lon="7.67864">
        <ele>2107</ele>
        <time>2017-09-17T14:17:48Z</time>
      </trkpt>
      <trkpt lat="44.14389" lon="7.6785">
        <ele>2107</ele>
        <time>2017-09-17T14:17:49Z</time>
      </trkpt>
      <trkpt lat="44.14385" lon="7.67837">
        <ele>2106</ele>
        <time>2017-09-17T14:17:50Z</time>
      </trkpt>
      <trkpt lat="44.14381" lon="7.67824">
        <ele>2105</ele>
        <time>2017-09-17T14:17:51Z</time>
      </trkpt>
      <trkpt lat="44.14377" lon="7.67812">
        <ele>2105</ele>
        <time>2017-09-17T14:17:52Z</time>
      </trkpt>
      <trkpt lat="44.14371" lon="7.67801">
        <ele>2104</ele>
        <time>2017-09-17T14:17:53Z</time>
      </trkpt>
      <trkpt lat="44.14364" lon="7.67791">
        <ele>2103</ele>
        <time>2017-09-17T14:17:54Z</time>
      </trkpt>
      <trkpt lat="44.14357" lon="7.67781">
        <ele>2103</ele>
        <time>2017-09-17T14:17:55Z</time>
      </trkpt>
      <trkpt lat="44.14351" lon="7.67771">
        <ele>2102</ele>
        <time>2017-09-17T14:17:56Z</time>
      </trkpt>
      <trkpt lat="44.14344" lon="7.67762">
        <ele>2102</ele>
        <time>2017-09-17T14:17:57Z</time>
      </trkpt>
      <trkpt lat="44.14336" lon="7.67756">
        <ele>2101</ele>
        <time>2017-09-17T14:17:58Z</time>
      </trkpt>
      <trkpt lat="44.14329" lon="7.67751">
        <ele>2100</ele>
        <time>2017-09-17T14:17:59Z</time>
      </trkpt>
      <trkpt lat="44.14322" lon="7.67745">
        <ele>2100</ele>
        <time>2017-09-17T14:18:00Z</time>
      </trkpt>
      <trkpt lat="44.14315" lon="7.67738">
        <ele>2100</ele>
        <time>2017-09-17T14:18:01Z</time>
      </trkpt>
      <trkpt lat="44.14308" lon="7.6773">
        <ele>2099</ele>
        <time>2017-09-17T14:18:02Z</time>
      </trkpt>
      <trkpt lat="44.14301" lon="7.67724">
        <ele>2099</ele>
        <time>2017-09-17T14:18:03Z</time>
      </trkpt>
      <trkpt lat="44.14294" lon="7.67717">
        <ele>2099</ele>
        <time>2017-09-17T14:18:04Z</time>
      </trkpt>
      <trkpt lat="44.14286" lon="7.67713">
        <ele>2098</ele>
        <time>2017-09-17T14:18:05Z</time>
      </trkpt>
      <trkpt lat="44.14277" lon="7.67709">
        <ele>2098</ele>
        <time>2017-09-17T14:18:06Z</time>
      </trkpt>
      <trkpt lat="44.14268" lon="7.67707">
        <ele>2097</ele>
        <time>2017-09-17T14:18:07Z</time>
      </trkpt>
      <trkpt lat="44.14259" lon="7.67705">
        <ele>2097</ele>
        <time>2017-09-17T14:18:08Z</time>
      </trkpt>
      <trkpt lat="44.1425" lon="7.67702">
        <ele>2096</ele>
        <time>2017-09-17T14:18:09Z</time>
      </trkpt>
      <trkpt lat="44.14241" lon="7.677">
        <ele>2096</ele>
        <time>2017-09-17T14:18:10Z</time>
      </trkpt>
      <trkpt lat="44.14233" lon="7.67698">
        <ele>2096</ele>
        <time>2017-09-17T14:18:11Z</time>
      </trkpt>
      <trkpt lat="44.14224" lon="7.67696">
        <ele>2095</ele>
        <time>2017-09-17T14:18:12Z</time>
      </trkpt>
      <trkpt lat="44.14216" lon="7.67694">
        <ele>2095</ele>
        <time>2017-09-17T14:18:13Z</time>
      </trkpt>
      <trkpt lat="44.14208" lon="7.67692">
        <ele>2095</ele>
        <time>2017-09-17T14:18:14Z</time>
      </trkpt>
      <trkpt lat="44.142" lon="7.67691">
        <ele>2095</ele>
        <time>2017-09-17T14:18:15Z</time>
      </trkpt>
      <trkpt lat="44.14193" lon="7.6769">
        <ele>2095</ele>
        <time>2017-09-17T14:18:16Z</time>
      </trkpt>
      <trkpt lat="44.14186" lon="7.6769">
        <ele>2095</ele>
        <time>2017-09-17T14:18:17Z</time>
      </trkpt>
      <trkpt lat="44.14179" lon="7.6769">
        <ele>2094</ele>
        <time>2017-09-17T14:18:18Z</time>
      </trkpt>
      <trkpt lat="44.14172" lon="7.67691">
        <ele>2094</ele>
        <time>2017-09-17T14:18:19Z</time>
      </trkpt>
      <trkpt lat="44.14166" lon="7.67692">
        <ele>2094</ele>
        <time>2017-09-17T14:18:20Z</time>
      </trkpt>
      <trkpt lat="44.14159" lon="7.67694">
        <ele>2094</ele>
        <time>2017-09-17T14:18:21Z</time>
      </trkpt>
      <trkpt lat="44.14153" lon="7.67696">
        <ele>2093</ele>
        <time>2017-09-17T14:18:22Z</time>
      </trkpt>
      <trkpt lat="44.14146" lon="7.67697">
        <ele>2093</ele>
        <time>2017-09-17T14:18:23Z</time>
      </trkpt>
      <trkpt lat="44.14139" lon="7.67698">
        <ele>2093</ele>
        <time>2017-09-17T14:18:24Z</time>
      </trkpt>
      <trkpt lat="44.14132" lon="7.67699">
        <ele>2092</ele>
        <time>2017-09-17T14:18:25Z</time>
      </trkpt>
      <trkpt lat="44.14124" lon="7.677">
        <ele>2092</ele>
        <time>2017-09-17T14:18:26Z</time>
      </trkpt>
      <trkpt lat="44.14116" lon="7.67701">
        <ele>2091</ele>
        <time>2017-09-17T14:18:27Z</time>
      </trkpt>
      <trkpt lat="44.14108" lon="7.67703">
        <ele>2090</ele>
        <time>2017-09-17T14:18:28Z</time>
      </trkpt>
      <trkpt lat="44.14098" lon="7.67703">
        <ele>2089</ele>
        <time>2017-09-17T14:18:29Z</time>
      </trkpt>
      <trkpt lat="44.14089" lon="7.67704">
        <ele>2088</ele>
        <time>2017-09-17T14:18:30Z</time>
      </trkpt>
      <trkpt lat="44.14078" lon="7.67706">
        <ele>2087</ele>
        <time>2017-09-17T14:18:31Z</time>
      </trkpt>
      <trkpt lat="44.14068" lon="7.67708">
        <ele>2086</ele>
        <time>2017-09-17T14:18:32Z</time>
      </trkpt>
      <trkpt lat="44.14057" lon="7.67709">
        <ele>2084</ele>
        <time>2017-09-17T14:18:33Z</time>
      </trkpt>
      <trkpt lat="44.14047" lon="7.6771">
        <ele>2083</ele>
        <time>2017-09-17T14:18:34Z</time>
      </trkpt>
      <trkpt lat="44.14039" lon="7.67708">
        <ele>2082</ele>
        <time>2017-09-17T14:18:35Z</time>
      </trkpt>
      <trkpt lat="44.1403" lon="7.67706">
        <ele>2081</ele>
        <time>2017-09-17T14:18:36Z</time>
      </trkpt>
      <trkpt lat="44.1402" lon="7.67701">
        <ele>2080</ele>
        <time>2017-09-17T14:18:37Z</time>
      </trkpt>
      <trkpt lat="44.14011" lon="7.67697">
        <ele>2079</ele>
        <time>2017-09-17T14:18:38Z</time>
      </trkpt>
      <trkpt lat="44.14003" lon="7.67693">
        <ele>2078</ele>
        <time>2017-09-17T14:18:39Z</time>
      </trkpt>
      <trkpt lat="44.13994" lon="7.67688">
        <ele>2077</ele>
        <time>2017-09-17T14:18:40Z</time>
      </trkpt>
      <trkpt lat="44.13985" lon="7.67684">
        <ele>2076</ele>
        <time>2017-09-17T14:18:41Z</time>
      </trkpt>
      <trkpt lat="44.13976" lon="7.67679">
        <ele>2075</ele>
        <time>2017-09-17T14:18:42Z</time>
      </trkpt>
      <trkpt lat="44.13968" lon="7.67674">
        <ele>2074</ele>
        <time>2017-09-17T14:18:43Z</time>
      </trkpt>
      <trkpt lat="44.13961" lon="7.67668">
        <ele>2073</ele>
        <time>2017-09-17T14:18:44Z</time>
      </trkpt>
      <trkpt lat="44.13955" lon="7.67661">
        <ele>2072</ele>
        <time>2017-09-17T14:18:45Z</time>
      </trkpt>
      <trkpt lat="44.13948" lon="7.67654">
        <ele>2071</ele>
        <time>2017-09-17T14:18:46Z</time>
      </trkpt>
      <trkpt lat="44.13941" lon="7.67649">
        <ele>2071</ele>
        <time>2017-09-17T14:18:47Z</time>
      </trkpt>
      <trkpt lat="44.13933" lon="7.67646">
        <ele>2070</ele>
        <time>2017-09-17T14:18:48Z</time>
      </trkpt>
      <trkpt lat="44.13925" lon="7.67644">
        <ele>2069</ele>
        <time>2017-09-17T14:18:49Z</time>
      </trkpt>
      <trkpt lat="44.13916" lon="7.67645">
        <ele>2068</ele>
        <time>2017-09-17T14:18:50Z</time>
      </trkpt>
      <trkpt lat="44.13907" lon="7.67648">
        <ele>2067</ele>
        <time>2017-09-17T14:18:51Z</time>
      </trkpt>
      <trkpt lat="44.13899" lon="7.67653">
        <ele>2066</ele>
        <time>2017-09-17T14:18:52Z</time>
      </trkpt>
      <trkpt lat="44.1389" lon="7.67658">
        <ele>2065</ele>
        <time>2017-09-17T14:18:53Z</time>
      </trkpt>
      <trkpt lat="44.1388" lon="7.67662">
        <ele>2064</ele>
        <time>2017-09-17T14:18:54Z</time>
      </trkpt>
      <trkpt lat="44.1387" lon="7.67667">
        <ele>2063</ele>
        <time>2017-09-17T14:18:55Z</time>
      </trkpt>
      <trkpt lat="44.1386" lon="7.67672">
        <ele>2062</ele>
        <time>2017-09-17T14:18:56Z</time>
      </trkpt>
      <trkpt lat="44.1385" lon="7.67678">
        <ele>2061</ele>
        <time>2017-09-17T14:18:57Z</time>
      </trkpt>
      <trkpt lat="44.13839" lon="7.67684">
        <ele>2060</ele>
        <time>2017-09-17T14:18:58Z</time>
      </trkpt>
      <trkpt lat="44.13829" lon="7.6769">
        <ele>2058</ele>
        <time>2017-09-17T14:18:59Z</time>
      </trkpt>
      <trkpt lat="44.13819" lon="7.67696">
        <ele>2057</ele>
        <time>2017-09-17T14:19:00Z</time>
      </trkpt>
      <trkpt lat="44.13809" lon="7.67702">
        <ele>2056</ele>
        <time>2017-09-17T14:19:01Z</time>
      </trkpt>
      <trkpt lat="44.13799" lon="7.67708">
        <ele>2055</ele>
        <time>2017-09-17T14:19:02Z</time>
      </trkpt>
      <trkpt lat="44.1379" lon="7.67714">
        <ele>2053</ele>
        <time>2017-09-17T14:19:03Z</time>
      </trkpt>
      <trkpt lat="44.13783" lon="7.6772">
        <ele>2052</ele>
        <time>2017-09-17T14:19:04Z</time>
      </trkpt>
      <trkpt lat="44.13776" lon="7.67724">
        <ele>2051</ele>
        <time>2017-09-17T14:19:05Z</time>
      </trkpt>
      <trkpt lat="44.1377" lon="7.67726">
        <ele>2050</ele>
        <time>2017-09-17T14:19:06Z</time>
      </trkpt>
      <trkpt lat="44.13765" lon="7.67726">
        <ele>2050</ele>
        <time>2017-09-17T14:19:07Z</time>
      </trkpt>
      <trkpt lat="44.1376" lon="7.67723">
        <ele>2049</ele>
        <time>2017-09-17T14:19:08Z</time>
      </trkpt>
      <trkpt lat="44.13755" lon="7.67719">
        <ele>2048</ele>
        <time>2017-09-17T14:19:09Z</time>
      </trkpt>
      <trkpt lat="44.13752" lon="7.67712">
        <ele>2048</ele>
        <time>2017-09-17T14:19:10Z</time>
      </trkpt>
      <trkpt lat="44.13748" lon="7.67704">
        <ele>2047</ele>
        <time>2017-09-17T14:19:11Z</time>
      </trkpt>
      <trkpt lat="44.13745" lon="7.67695">
        <ele>2046</ele>
        <time>2017-09-17T14:19:12Z</time>
      </trkpt>
      <trkpt lat="44.13741" lon="7.67685">
        <ele>2046</ele>
        <time>2017-09-17T14:19:13Z</time>
      </trkpt>
      <trkpt lat="44.13737" lon="7.67674">
        <ele>2045</ele>
        <time>2017-09-17T14:19:14Z</time>
      </trkpt>
      <trkpt lat="44.13733" lon="7.67664">
        <ele>2044</ele>
        <time>2017-09-17T14:19:15Z</time>
      </trkpt>
      <trkpt lat="44.13728" lon="7.67654">
        <ele>2043</ele>
        <time>2017-09-17T14:19:16Z</time>
      </trkpt>
      <trkpt lat="44.13723" lon="7.67646">
        <ele>2042</ele>
        <time>2017-09-17T14:19:17Z</time>
      </trkpt>
      <trkpt lat="44.13717" lon="7.67637">
        <ele>2041</ele>
        <time>2017-09-17T14:19:18Z</time>
      </trkpt>
      <trkpt lat="44.13711" lon="7.67628">
        <ele>2040</ele>
        <time>2017-09-17T14:19:19Z</time>
      </trkpt>
      <trkpt lat="44.13705" lon="7.67618">
        <ele>2039</ele>
        <time>2017-09-17T14:19:20Z</time>
      </trkpt>
      <trkpt lat="44.13699" lon="7.67608">
        <ele>2038</ele>
        <time>2017-09-17T14:19:21Z</time>
      </trkpt>
      <trkpt lat="44.13692" lon="7.67598">
        <ele>2037</ele>
        <time>2017-09-17T14:19:22Z</time>
      </trkpt>
      <trkpt lat="44.13686" lon="7.67588">
        <ele>2036</ele>
        <time>2017-09-17T14:19:23Z</time>
      </trkpt>
      <trkpt lat="44.1368" lon="7.67578">
        <ele>2035</ele>
        <time>2017-09-17T14:19:24Z</time>
      </trkpt>
      <trkpt lat="44.13675" lon="7.67568">
        <ele>2033</ele>
        <time>2017-09-17T14:19:25Z</time>
      </trkpt>
      <trkpt lat="44.13671" lon="7.67558">
        <ele>2032</ele>
        <time>2017-09-17T14:19:26Z</time>
      </trkpt>
      <trkpt lat="44.13669" lon="7.67547">
        <ele>2032</ele>
        <time>2017-09-17T14:19:27Z</time>
      </trkpt>
      <trkpt lat="44.13667" lon="7.67536">
        <ele>2031</ele>
        <time>2017-09-17T14:19:28Z</time>
      </trkpt>
      <trkpt lat="44.13666" lon="7.67525">
        <ele>2030</ele>
        <time>2017-09-17T14:19:29Z</time>
      </trkpt>
      <trkpt lat="44.13664" lon="7.67517">
        <ele>2029</ele>
        <time>2017-09-17T14:19:30Z</time>
      </trkpt>
      <trkpt lat="44.1366" lon="7.6751">
        <ele>2029</ele>
        <time>2017-09-17T14:19:31Z</time>
      </trkpt>
      <trkpt lat="44.13655" lon="7.67504">
        <ele>2028</ele>
        <time>2017-09-17T14:19:32Z</time>
      </trkpt>
      <trkpt lat="44.13649" lon="7.67499">
        <ele>2028</ele>
        <time>2017-09-17T14:19:33Z</time>
      </trkpt>
      <trkpt lat="44.13644" lon="7.67492">
        <ele>2027</ele>
        <time>2017-09-17T14:19:34Z</time>
      </trkpt>
      <trkpt lat="44.13639" lon="7.67484">
        <ele>2026</ele>
        <time>2017-09-17T14:19:35Z</time>
      </trkpt>
      <trkpt lat="44.13634" lon="7.67475">
        <ele>2025</ele>
        <time>2017-09-17T14:19:36Z</time>
      </trkpt>
      <trkpt lat="44.1363" lon="7.67466">
        <ele>2025</ele>
        <time>2017-09-17T14:19:37Z</time>
      </trkpt>
      <trkpt lat="44.13625" lon="7.67456">
        <ele>2024</ele>
        <time>2017-09-17T14:19:38Z</time>
      </trkpt>
      <trkpt lat="44.13621" lon="7.67448">
        <ele>2023</ele>
        <time>2017-09-17T14:19:39Z</time>
      </trkpt>
      <trkpt lat="44.13616" lon="7.67442">
        <ele>2022</ele>
        <time>2017-09-17T14:19:40Z</time>
      </trkpt>
      <trkpt lat="44.13611" lon="7.67438">
        <ele>2022</ele>
        <time>2017-09-17T14:19:41Z</time>
      </trkpt>
      <trkpt lat="44.13604" lon="7.67437">
        <ele>2021</ele>
        <time>2017-09-17T14:19:42Z</time>
      </trkpt>
      <trkpt lat="44.13597" lon="7.67435">
        <ele>2020</ele>
        <time>2017-09-17T14:19:43Z</time>
      </trkpt>
      <trkpt lat="44.13591" lon="7.67432">
        <ele>2020</ele>
        <time>2017-09-17T14:19:44Z</time>
      </trkpt>
      <trkpt lat="44.13584" lon="7.67427">
        <ele>2019</ele>
        <time>2017-09-17T14:19:45Z</time>
      </trkpt>
      <trkpt lat="44.13577" lon="7.67422">
        <ele>2018</ele>
        <time>2017-09-17T14:19:46Z</time>
      </trkpt>
      <trkpt lat="44.13569" lon="7.67417">
        <ele>2018</ele>
        <time>2017-09-17T14:19:47Z</time>
      </trkpt>
      <trkpt lat="44.1356" lon="7.67414">
        <ele>2017</ele>
        <time>2017-09-17T14:19:48Z</time>
      </trkpt>
      <trkpt lat="44.13552" lon="7.6741">
        <ele>2016</ele>
        <time>2017-09-17T14:19:49Z</time>
      </trkpt>
      <trkpt lat="44.13543" lon="7.67406">
        <ele>2015</ele>
        <time>2017-09-17T14:19:50Z</time>
      </trkpt>
      <trkpt lat="44.13535" lon="7.67402">
        <ele>2015</ele>
        <time>2017-09-17T14:19:51Z</time>
      </trkpt>
      <trkpt lat="44.13527" lon="7.67396">
        <ele>2014</ele>
        <time>2017-09-17T14:19:52Z</time>
      </trkpt>
      <trkpt lat="44.13519" lon="7.67391">
        <ele>2013</ele>
        <time>2017-09-17T14:19:53Z</time>
      </trkpt>
      <trkpt lat="44.13511" lon="7.67386">
        <ele>2013</ele>
        <time>2017-09-17T14:19:54Z</time>
      </trkpt>
      <trkpt lat="44.13504" lon="7.6738">
        <ele>2012</ele>
        <time>2017-09-17T14:19:55Z</time>
      </trkpt>
      <trkpt lat="44.13497" lon="7.67373">
        <ele>2012</ele>
        <time>2017-09-17T14:19:56Z</time>
      </trkpt>
      <trkpt lat="44.1349" lon="7.67365">
        <ele>2011</ele>
        <time>2017-09-17T14:19:57Z</time>
      </trkpt>
      <trkpt lat="44.13484" lon="7.67357">
        <ele>2011</ele>
        <time>2017-09-17T14:19:58Z</time>
      </trkpt>
      <trkpt lat="44.13479" lon="7.67349">
        <ele>2010</ele>
        <time>2017-09-17T14:19:59Z</time>
      </trkpt>
      <trkpt lat="44.13474" lon="7.67342">
        <ele>2010</ele>
        <time>2017-09-17T14:20:00Z</time>
      </trkpt>
      <trkpt lat="44.13469" lon="7.67337">
        <ele>2009</ele>
        <time>2017-09-17T14:20:01Z</time>
      </trkpt>
      <trkpt lat="44.13464" lon="7.67335">
        <ele>2009</ele>
        <time>2017-09-17T14:20:02Z</time>
      </trkpt>
      <trkpt lat="44.13459" lon="7.67336">
        <ele>2009</ele>
        <time>2017-09-17T14:20:03Z</time>
      </trkpt>
      <trkpt lat="44.13454" lon="7.67339">
        <ele>2008</ele>
        <time>2017-09-17T14:20:04Z</time>
      </trkpt>
      <trkpt lat="44.1345" lon="7.67344">
        <ele>2007</ele>
        <time>2017-09-17T14:20:05Z</time>
      </trkpt>
      <trkpt lat="44.13446" lon="7.67351">
        <ele>2007</ele>
        <time>2017-09-17T14:20:06Z</time>
      </trkpt>
      <trkpt lat="44.13442" lon="7.67359">
        <ele>2006</ele>
        <time>2017-09-17T14:20:07Z</time>
      </trkpt>
      <trkpt lat="44.13438" lon="7.67367">
        <ele>2005</ele>
        <time>2017-09-17T14:20:08Z</time>
      </trkpt>
      <trkpt lat="44.13432" lon="7.67376">
        <ele>2004</ele>
        <time>2017-09-17T14:20:09Z</time>
      </trkpt>
      <trkpt lat="44.13426" lon="7.67383">
        <ele>2003</ele>
        <time>2017-09-17T14:20:10Z</time>
      </trkpt>
      <trkpt lat="44.1342" lon="7.67391">
        <ele>2002</ele>
        <time>2017-09-17T14:20:11Z</time>
      </trkpt>
      <trkpt lat="44.13413" lon="7.67399">
        <ele>2001</ele>
        <time>2017-09-17T14:20:12Z</time>
      </trkpt>
      <trkpt lat="44.13407" lon="7.67407">
        <ele>2000</ele>
        <time>2017-09-17T14:20:13Z</time>
      </trkpt>
      <trkpt lat="44.134" lon="7.67416">
        <ele>1999</ele>
        <time>2017-09-17T14:20:14Z</time>
      </trkpt>
      <trkpt lat="44.13394" lon="7.67424">
        <ele>1998</ele>
        <time>2017-09-17T14:20:15Z</time>
      </trkpt>
      <trkpt lat="44.13388" lon="7.67431">
        <ele>1997</ele>
        <time>2017-09-17T14:20:16Z</time>
      </trkpt>
      <trkpt lat="44.13382" lon="7.67438">
        <ele>1996</ele>
        <time>2017-09-17T14:20:17Z</time>
      </trkpt>
      <trkpt lat="44.13377" lon="7.67446">
        <ele>1995</ele>
        <time>2017-09-17T14:20:18Z</time>
      </trkpt>
      <trkpt lat="44.13374" lon="7.67454">
        <ele>1994</ele>
        <time>2017-09-17T14:20:19Z</time>
      </trkpt>
      <trkpt lat="44.13372" lon="7.67462">
        <ele>1994</ele>
        <time>2017-09-17T14:20:20Z</time>
      </trkpt>
      <trkpt lat="44.13371" lon="7.67472">
        <ele>1993</ele>
        <time>2017-09-17T14:20:21Z</time>
      </trkpt>
      <trkpt lat="44.13372" lon="7.67482">
        <ele>1992</ele>
        <time>2017-09-17T14:20:22Z</time>
      </trkpt>
      <trkpt lat="44.13374" lon="7.6749">
        <ele>1991</ele>
        <time>2017-09-17T14:20:23Z</time>
      </trkpt>
      <trkpt lat="44.13377" lon="7.67498">
        <ele>1990</ele>
        <time>2017-09-17T14:20:24Z</time>
      </trkpt>
      <trkpt lat="44.13379" lon="7.67504">
        <ele>1990</ele>
        <time>2017-09-17T14:20:25Z</time>
      </trkpt>
      <trkpt lat="44.1338" lon="7.6751">
        <ele>1989</ele>
        <time>2017-09-17T14:20:26Z</time>
      </trkpt>
      <trkpt lat="44.13379" lon="7.67517">
        <ele>1989</ele>
        <time>2017-09-17T14:20:27Z</time>
      </trkpt>
      <trkpt lat="44.13376" lon="7.67525">
        <ele>1988</ele>
        <time>2017-09-17T14:20:28Z</time>
      </trkpt>
      <trkpt lat="44.13373" lon="7.67535">
        <ele>1988</ele>
        <time>2017-09-17T14:20:29Z</time>
      </trkpt>
      <trkpt lat="44.13371" lon="7.67545">
        <ele>1987</ele>
        <time>2017-09-17T14:20:30Z</time>
      </trkpt>
      <trkpt lat="44.1337" lon="7.67555">
        <ele>1987</ele>
        <time>2017-09-17T14:20:31Z</time>
      </trkpt>
      <trkpt lat="44.13369" lon="7.67566">
        <ele>1986</ele>
        <time>2017-09-17T14:20:32Z</time>
      </trkpt>
      <trkpt lat="44.13368" lon="7.67577">
        <ele>1985</ele>
        <time>2017-09-17T14:20:33Z</time>
      </trkpt>
      <trkpt lat="44.13366" lon="7.67588">
        <ele>1985</ele>
        <time>2017-09-17T14:20:34Z</time>
      </trkpt>
      <trkpt lat="44.13364" lon="7.67599">
        <ele>1984</ele>
        <time>2017-09-17T14:20:35Z</time>
      </trkpt>
      <trkpt lat="44.13363" lon="7.6761">
        <ele>1984</ele>
        <time>2017-09-17T14:20:36Z</time>
      </trkpt>
      <trkpt lat="44.13362" lon="7.67621">
        <ele>1984</ele>
        <time>2017-09-17T14:20:37Z</time>
      </trkpt>
      <trkpt lat="44.13361" lon="7.67631">
        <ele>1983</ele>
        <time>2017-09-17T14:20:38Z</time>
      </trkpt>
      <trkpt lat="44.1336" lon="7.67642">
        <ele>1983</ele>
        <time>2017-09-17T14:20:39Z</time>
      </trkpt>
      <trkpt lat="44.13359" lon="7.67653">
        <ele>1983</ele>
        <time>2017-09-17T14:20:40Z</time>
      </trkpt>
      <trkpt lat="44.13358" lon="7.67663">
        <ele>1982</ele>
        <time>2017-09-17T14:20:41Z</time>
      </trkpt>
      <trkpt lat="44.13357" lon="7.67673">
        <ele>1982</ele>
        <time>2017-09-17T14:20:42Z</time>
      </trkpt>
      <trkpt lat="44.13355" lon="7.67682">
        <ele>1982</ele>
        <time>2017-09-17T14:20:43Z</time>
      </trkpt>
      <trkpt lat="44.13353" lon="7.67691">
        <ele>1982</ele>
        <time>2017-09-17T14:20:44Z</time>
      </trkpt>
      <trkpt lat="44.13351" lon="7.677">
        <ele>1982</ele>
        <time>2017-09-17T14:20:45Z</time>
      </trkpt>
      <trkpt lat="44.13349" lon="7.67709">
        <ele>1982</ele>
        <time>2017-09-17T14:20:46Z</time>
      </trkpt>
      <trkpt lat="44.13347" lon="7.67718">
        <ele>1982</ele>
        <time>2017-09-17T14:20:47Z</time>
      </trkpt>
      <trkpt lat="44.13345" lon="7.67726">
        <ele>1982</ele>
        <time>2017-09-17T14:20:48Z</time>
      </trkpt>
      <trkpt lat="44.13344" lon="7.67735">
        <ele>1982</ele>
        <time>2017-09-17T14:20:49Z</time>
      </trkpt>
      <trkpt lat="44.13343" lon="7.67743">
        <ele>1982</ele>
        <time>2017-09-17T14:20:50Z</time>
      </trkpt>
      <trkpt lat="44.13342" lon="7.67751">
        <ele>1982</ele>
        <time>2017-09-17T14:20:51Z</time>
      </trkpt>
      <trkpt lat="44.13343" lon="7.67759">
        <ele>1982</ele>
        <time>2017-09-17T14:20:52Z</time>
      </trkpt>
      <trkpt lat="44.13344" lon="7.67767">
        <ele>1982</ele>
        <time>2017-09-17T14:20:53Z</time>
      </trkpt>
      <trkpt lat="44.13344" lon="7.67776">
        <ele>1981</ele>
        <time>2017-09-17T14:20:54Z</time>
      </trkpt>
      <trkpt lat="44.13344" lon="7.67784">
        <ele>1981</ele>
        <time>2017-09-17T14:20:55Z</time>
      </trkpt>
      <trkpt lat="44.13341" lon="7.67792">
        <ele>1981</ele>
        <time>2017-09-17T14:20:56Z</time>
      </trkpt>
      <trkpt lat="44.13338" lon="7.67799">
        <ele>1981</ele>
        <time>2017-09-17T14:20:57Z</time>
      </trkpt>
      <trkpt lat="44.13333" lon="7.67804">
        <ele>1981</ele>
        <time>2017-09-17T14:20:58Z</time>
      </trkpt>
      <trkpt lat="44.13328" lon="7.6781">
        <ele>1981</ele>
        <time>2017-09-17T14:20:59Z</time>
      </trkpt>
      <trkpt lat="44.13322" lon="7.67814">
        <ele>1981</ele>
        <time>2017-09-17T14:21:00Z</time>
      </trkpt>
      <trkpt lat="44.13317" lon="7.67818">
        <ele>1981</ele>
        <time>2017-09-17T14:21:01Z</time>
      </trkpt>
      <trkpt lat="44.13311" lon="7.67821">
        <ele>1981</ele>
        <time>2017-09-17T14:21:02Z</time>
      </trkpt>
      <trkpt lat="44.13305" lon="7.67823">
        <ele>1981</ele>
        <time>2017-09-17T14:21:03Z</time>
      </trkpt>
      <trkpt lat="44.13299" lon="7.67824">
        <ele>1981</ele>
        <time>2017-09-17T14:21:04Z</time>
      </trkpt>
      <trkpt lat="44.13293" lon="7.67827">
        <ele>1980</ele>
        <time>2017-09-17T14:21:05Z</time>
      </trkpt>
      <trkpt lat="44.13287" lon="7.67829">
        <ele>1980</ele>
        <time>2017-09-17T14:21:06Z</time>
      </trkpt>
      <trkpt lat="44.13281" lon="7.67832">
        <ele>1980</ele>
        <time>2017-09-17T14:21:07Z</time>
      </trkpt>
      <trkpt lat="44.13276" lon="7.67837">
        <ele>1980</ele>
        <time>2017-09-17T14:21:08Z</time>
      </trkpt>
      <trkpt lat="44.13272" lon="7.67843">
        <ele>1980</ele>
        <time>2017-09-17T14:21:09Z</time>
      </trkpt>
      <trkpt lat="44.13268" lon="7.67849">
        <ele>1980</ele>
        <time>2017-09-17T14:21:10Z</time>
      </trkpt>
      <trkpt lat="44.13264" lon="7.67856">
        <ele>1980</ele>
        <time>2017-09-17T14:21:11Z</time>
      </trkpt>
      <trkpt lat="44.1326" lon="7.67862">
        <ele>1980</ele>
        <time>2017-09-17T14:21:12Z</time>
      </trkpt>
      <trkpt lat="44.13256" lon="7.67868">
        <ele>1980</ele>
        <time>2017-09-17T14:21:13Z</time>
      </trkpt>
      <trkpt lat="44.13252" lon="7.67875">
        <ele>1980</ele>
        <time>2017-09-17T14:21:14Z</time>
      </trkpt>
      <trkpt lat="44.13248" lon="7.67881">
        <ele>1980</ele>
        <time>2017-09-17T14:21:15Z</time>
      </trkpt>
      <trkpt lat="44.13244" lon="7.67887">
        <ele>1980</ele>
        <time>2017-09-17T14:21:16Z</time>
      </trkpt>
      <trkpt lat="44.1324" lon="7.67893">
        <ele>1980</ele>
        <time>2017-09-17T14:21:17Z</time>
      </trkpt>
      <trkpt lat="44.13236" lon="7.67899">
        <ele>1980</ele>
        <time>2017-09-17T14:21:18Z</time>
      </trkpt>
      <trkpt lat="44.13232" lon="7.67905">
        <ele>1980</ele>
        <time>2017-09-17T14:21:19Z</time>
      </trkpt>
      <trkpt lat="44.13228" lon="7.67912">
        <ele>1980</ele>
        <time>2017-09-17T14:21:20Z</time>
      </trkpt>
      <trkpt lat="44.13224" lon="7.6792">
        <ele>1980</ele>
        <time>2017-09-17T14:21:21Z</time>
      </trkpt>
      <trkpt lat="44.13222" lon="7.67927">
        <ele>1980</ele>
        <time>2017-09-17T14:21:22Z</time>
      </trkpt>
      <trkpt lat="44.13219" lon="7.67935">
        <ele>1980</ele>
        <time>2017-09-17T14:21:23Z</time>
      </trkpt>
      <trkpt lat="44.13216" lon="7.67943">
        <ele>1980</ele>
        <time>2017-09-17T14:21:24Z</time>
      </trkpt>
      <trkpt lat="44.13213" lon="7.67951">
        <ele>1980</ele>
        <time>2017-09-17T14:21:25Z</time>
      </trkpt>
      <trkpt lat="44.1321" lon="7.67958">
        <ele>1980</ele>
        <time>2017-09-17T14:21:26Z</time>
      </trkpt>
      <trkpt lat="44.13207" lon="7.67966">
        <ele>1980</ele>
        <time>2017-09-17T14:21:27Z</time>
      </trkpt>
      <trkpt lat="44.13204" lon="7.67974">
        <ele>1980</ele>
        <time>2017-09-17T14:21:28Z</time>
      </trkpt>
      <trkpt lat="44.13201" lon="7.67983">
        <ele>1980</ele>
        <time>2017-09-17T14:21:29Z</time>
      </trkpt>
      <trkpt lat="44.13198" lon="7.67991">
        <ele>1980</ele>
        <time>2017-09-17T14:21:30Z</time>
      </trkpt>
      <trkpt lat="44.13196" lon="7.68">
        <ele>1980</ele>
        <time>2017-09-17T14:21:31Z</time>
      </trkpt>
      <trkpt lat="44.13193" lon="7.68009">
        <ele>1980</ele>
        <time>2017-09-17T14:21:32Z</time>
      </trkpt>
      <trkpt lat="44.13192" lon="7.68019">
        <ele>1980</ele>
        <time>2017-09-17T14:21:33Z</time>
      </trkpt>
      <trkpt lat="44.1319" lon="7.68029">
        <ele>1980</ele>
        <time>2017-09-17T14:21:34Z</time>
      </trkpt>
      <trkpt lat="44.13189" lon="7.68038">
        <ele>1980</ele>
        <time>2017-09-17T14:21:35Z</time>
      </trkpt>
      <trkpt lat="44.13187" lon="7.68047">
        <ele>1980</ele>
        <time>2017-09-17T14:21:36Z</time>
      </trkpt>
      <trkpt lat="44.13186" lon="7.68056">
        <ele>1980</ele>
        <time>2017-09-17T14:21:37Z</time>
      </trkpt>
      <trkpt lat="44.13184" lon="7.68065">
        <ele>1979</ele>
        <time>2017-09-17T14:21:38Z</time>
      </trkpt>
      <trkpt lat="44.13183" lon="7.68074">
        <ele>1979</ele>
        <time>2017-09-17T14:21:39Z</time>
      </trkpt>
      <trkpt lat="44.13182" lon="7.68084">
        <ele>1979</ele>
        <time>2017-09-17T14:21:40Z</time>
      </trkpt>
      <trkpt lat="44.13181" lon="7.68093">
        <ele>1979</ele>
        <time>2017-09-17T14:21:41Z</time>
      </trkpt>
      <trkpt lat="44.13179" lon="7.68102">
        <ele>1979</ele>
        <time>2017-09-17T14:21:42Z</time>
      </trkpt>
      <trkpt lat="44.13177" lon="7.68111">
        <ele>1979</ele>
        <time>2017-09-17T14:21:43Z</time>
      </trkpt>
      <trkpt lat="44.13175" lon="7.68119">
        <ele>1979</ele>
        <time>2017-09-17T14:21:44Z</time>
      </trkpt>
      <trkpt lat="44.13173" lon="7.68126">
        <ele>1979</ele>
        <time>2017-09-17T14:21:45Z</time>
      </trkpt>
      <trkpt lat="44.13169" lon="7.68131">
        <ele>1979</ele>
        <time>2017-09-17T14:21:46Z</time>
      </trkpt>
      <trkpt lat="44.13163" lon="7.68133">
        <ele>1979</ele>
        <time>2017-09-17T14:21:47Z</time>
      </trkpt>
      <trkpt lat="44.13156" lon="7.68134">
        <ele>1979</ele>
        <time>2017-09-17T14:21:48Z</time>
      </trkpt>
      <trkpt lat="44.13149" lon="7.68135">
        <ele>1979</ele>
        <time>2017-09-17T14:21:49Z</time>
      </trkpt>
      <trkpt lat="44.13143" lon="7.68138">
        <ele>1979</ele>
        <time>2017-09-17T14:21:50Z</time>
      </trkpt>
      <trkpt lat="44.13138" lon="7.68144">
        <ele>1978</ele>
        <time>2017-09-17T14:21:51Z</time>
      </trkpt>
      <trkpt lat="44.13134" lon="7.68151">
        <ele>1978</ele>
        <time>2017-09-17T14:21:52Z</time>
      </trkpt>
      <trkpt lat="44.13131" lon="7.68158">
        <ele>1978</ele>
        <time>2017-09-17T14:21:53Z</time>
      </trkpt>
      <trkpt lat="44.13127" lon="7.68164">
        <ele>1978</ele>
        <time>2017-09-17T14:21:54Z</time>
      </trkpt>
      <trkpt lat="44.13121" lon="7.68168">
        <ele>1978</ele>
        <time>2017-09-17T14:21:55Z</time>
      </trkpt>
      <trkpt lat="44.13115" lon="7.6817">
        <ele>1978</ele>
        <time>2017-09-17T14:21:56Z</time>
      </trkpt>
      <trkpt lat="44.13109" lon="7.68169">
        <ele>1977</ele>
        <time>2017-09-17T14:21:57Z</time>
      </trkpt>
      <trkpt lat="44.13103" lon="7.68167">
        <ele>1977</ele>
        <time>2017-09-17T14:21:58Z</time>
      </trkpt>
      <trkpt lat="44.13097" lon="7.68164">
        <ele>1977</ele>
        <time>2017-09-17T14:21:59Z</time>
      </trkpt>
      <trkpt lat="44.13092" lon="7.68159">
        <ele>1977</ele>
        <time>2017-09-17T14:22:00Z</time>
      </trkpt>
      <trkpt lat="44.13088" lon="7.68153">
        <ele>1977</ele>
        <time>2017-09-17T14:22:01Z</time>
      </trkpt>
      <trkpt lat="44.13084" lon="7.68146">
        <ele>1977</ele>
        <time>2017-09-17T14:22:02Z</time>
      </trkpt>
      <trkpt lat="44.1308" lon="7.68139">
        <ele>1977</ele>
        <time>2017-09-17T14:22:03Z</time>
      </trkpt>
      <trkpt lat="44.13076" lon="7.68132">
        <ele>1976</ele>
        <time>2017-09-17T14:22:04Z</time>
      </trkpt>
      <trkpt lat="44.13071" lon="7.68126">
        <ele>1976</ele>
        <time>2017-09-17T14:22:05Z</time>
      </trkpt>
      <trkpt lat="44.13066" lon="7.6812">
        <ele>1976</ele>
        <time>2017-09-17T14:22:06Z</time>
      </trkpt>
      <trkpt lat="44.1306" lon="7.68115">
        <ele>1976</ele>
        <time>2017-09-17T14:22:07Z</time>
      </trkpt>
      <trkpt lat="44.13055" lon="7.6811">
        <ele>1976</ele>
        <time>2017-09-17T14:22:08Z</time>
      </trkpt>
      <trkpt lat="44.13051" lon="7.68103">
        <ele>1976</ele>
        <time>2017-09-17T14:22:09Z</time>
      </trkpt>
      <trkpt lat="44.13046" lon="7.68097">
        <ele>1976</ele>
        <time>2017-09-17T14:22:10Z</time>
      </trkpt>
      <trkpt lat="44.13042" lon="7.6809">
        <ele>1976</ele>
        <time>2017-09-17T14:22:11Z</time>
      </trkpt>
      <trkpt lat="44.13038" lon="7.68083">
        <ele>1976</ele>
        <time>2017-09-17T14:22:12Z</time>
      </trkpt>
      <trkpt lat="44.13033" lon="7.68077">
        <ele>1976</ele>
        <time>2017-09-17T14:22:13Z</time>
      </trkpt>
      <trkpt lat="44.13029" lon="7.68071">
        <ele>1976</ele>
        <time>2017-09-17T14:22:14Z</time>
      </trkpt>
      <trkpt lat="44.13024" lon="7.68064">
        <ele>1976</ele>
        <time>2017-09-17T14:22:15Z</time>
      </trkpt>
      <trkpt lat="44.1302" lon="7.68058">
        <ele>1976</ele>
        <time>2017-09-17T14:22:16Z</time>
      </trkpt>
      <trkpt lat="44.13016" lon="7.6805">
        <ele>1976</ele>
        <time>2017-09-17T14:22:17Z</time>
      </trkpt>
      <trkpt lat="44.13013" lon="7.68043">
        <ele>1976</ele>
        <time>2017-09-17T14:22:18Z</time>
      </trkpt>
      <trkpt lat="44.13009" lon="7.68036">
        <ele>1976</ele>
        <time>2017-09-17T14:22:19Z</time>
      </trkpt>
      <trkpt lat="44.13005" lon="7.6803">
        <ele>1976</ele>
        <time>2017-09-17T14:22:20Z</time>
      </trkpt>
      <trkpt lat="44.13" lon="7.68023">
        <ele>1976</ele>
        <time>2017-09-17T14:22:21Z</time>
      </trkpt>
      <trkpt lat="44.12996" lon="7.68017">
        <ele>1976</ele>
        <time>2017-09-17T14:22:22Z</time>
      </trkpt>
      <trkpt lat="44.12993" lon="7.6801">
        <ele>1976</ele>
        <time>2017-09-17T14:22:23Z</time>
      </trkpt>
      <trkpt lat="44.12989" lon="7.68004">
        <ele>1976</ele>
        <time>2017-09-17T14:22:24Z</time>
      </trkpt>
      <trkpt lat="44.12985" lon="7.67999">
        <ele>1976</ele>
        <time>2017-09-17T14:22:25Z</time>
      </trkpt>
      <trkpt lat="44.12981" lon="7.67993">
        <ele>1976</ele>
        <time>2017-09-17T14:22:26Z</time>
      </trkpt>
      <trkpt lat="44.12977" lon="7.67987">
        <ele>1976</ele>
        <time>2017-09-17T14:22:27Z</time>
      </trkpt>
      <trkpt lat="44.12972" lon="7.67982">
        <ele>1976</ele>
        <time>2017-09-17T14:22:28Z</time>
      </trkpt>
      <trkpt lat="44.12966" lon="7.67979">
        <ele>1975</ele>
        <time>2017-09-17T14:22:29Z</time>
      </trkpt>
      <trkpt lat="44.1296" lon="7.67976">
        <ele>1975</ele>
        <time>2017-09-17T14:22:30Z</time>
      </trkpt>
      <trkpt lat="44.12954" lon="7.67974">
        <ele>1975</ele>
        <time>2017-09-17T14:22:31Z</time>
      </trkpt>
      <trkpt lat="44.12948" lon="7.67973">
        <ele>1975</ele>
        <time>2017-09-17T14:22:32Z</time>
      </trkpt>
      <trkpt lat="44.12942" lon="7.67974">
        <ele>1975</ele>
        <time>2017-09-17T14:22:33Z</time>
      </trkpt>
      <trkpt lat="44.12936" lon="7.67977">
        <ele>1975</ele>
        <time>2017-09-17T14:22:34Z</time>
      </trkpt>
      <trkpt lat="44.12932" lon="7.67983">
        <ele>1975</ele>
        <time>2017-09-17T14:22:35Z</time>
      </trkpt>
      <trkpt lat="44.12929" lon="7.67989">
        <ele>1975</ele>
        <time>2017-09-17T14:22:36Z</time>
      </trkpt>
      <trkpt lat="44.12926" lon="7.67996">
        <ele>1975</ele>
        <time>2017-09-17T14:22:37Z</time>
      </trkpt>
      <trkpt lat="44.12922" lon="7.68002">
        <ele>1975</ele>
        <time>2017-09-17T14:22:38Z</time>
      </trkpt>
      <trkpt lat="44.12918" lon="7.68008">
        <ele>1975</ele>
        <time>2017-09-17T14:22:39Z</time>
      </trkpt>
      <trkpt lat="44.12914" lon="7.68014">
        <ele>1975</ele>
        <time>2017-09-17T14:22:40Z</time>
      </trkpt>
      <trkpt lat="44.1291" lon="7.68019">
        <ele>1974</ele>
        <time>2017-09-17T14:22:41Z</time>
      </trkpt>
      <trkpt lat="44.12905" lon="7.68025">
        <ele>1974</ele>
        <time>2017-09-17T14:22:42Z</time>
      </trkpt>
      <trkpt lat="44.12901" lon="7.6803">
        <ele>1974</ele>
        <time>2017-09-17T14:22:43Z</time>
      </trkpt>
      <trkpt lat="44.12896" lon="7.68035">
        <ele>1974</ele>
        <time>2017-09-17T14:22:44Z</time>
      </trkpt>
      <trkpt lat="44.12891" lon="7.68038">
        <ele>1974</ele>
        <time>2017-09-17T14:22:45Z</time>
      </trkpt>
      <trkpt lat="44.12885" lon="7.68041">
        <ele>1974</ele>
        <time>2017-09-17T14:22:46Z</time>
      </trkpt>
      <trkpt lat="44.12879" lon="7.68043">
        <ele>1973</ele>
        <time>2017-09-17T14:22:47Z</time>
      </trkpt>
      <trkpt lat="44.12873" lon="7.68044">
        <ele>1973</ele>
        <time>2017-09-17T14:22:48Z</time>
      </trkpt>
      <trkpt lat="44.12868" lon="7.68044">
        <ele>1973</ele>
        <time>2017-09-17T14:22:49Z</time>
      </trkpt>
      <trkpt lat="44.12862" lon="7.6804">
        <ele>1973</ele>
        <time>2017-09-17T14:22:50Z</time>
      </trkpt>
      <trkpt lat="44.12858" lon="7.68036">
        <ele>1973</ele>
        <time>2017-09-17T14:22:51Z</time>
      </trkpt>
      <trkpt lat="44.12854" lon="7.6803">
        <ele>1973</ele>
        <time>2017-09-17T14:22:52Z</time>
      </trkpt>
      <trkpt lat="44.12851" lon="7.68024">
        <ele>1972</ele>
        <time>2017-09-17T14:22:53Z</time>
      </trkpt>
      <trkpt lat="44.12847" lon="7.68017">
        <ele>1972</ele>
        <time>2017-09-17T14:22:54Z</time>
      </trkpt>
      <trkpt lat="44.12844" lon="7.6801">
        <ele>1972</ele>
        <time>2017-09-17T14:22:55Z</time>
      </trkpt>
      <trkpt lat="44.12841" lon="7.68003">
        <ele>1972</ele>
        <time>2017-09-17T14:22:56Z</time>
      </trkpt>
      <trkpt lat="44.12837" lon="7.67998">
        <ele>1972</ele>
        <time>2017-09-17T14:22:57Z</time>
      </trkpt>
      <trkpt lat="44.12832" lon="7.67994">
        <ele>1971</ele>
        <time>2017-09-17T14:22:58Z</time>
      </trkpt>
      <trkpt lat="44.12826" lon="7.67993">
        <ele>1971</ele>
        <time>2017-09-17T14:22:59Z</time>
      </trkpt>
      <trkpt lat="44.12821" lon="7.67995">
        <ele>1971</ele>
        <time>2017-09-17T14:23:00Z</time>
      </trkpt>
      <trkpt lat="44.12816" lon="7.67999">
        <ele>1971</ele>
        <time>2017-09-17T14:23:01Z</time>
      </trkpt>
      <trkpt lat="44.12812" lon="7.68004">
        <ele>1971</ele>
        <time>2017-09-17T14:23:02Z</time>
      </trkpt>
      <trkpt lat="44.12808" lon="7.68009">
        <ele>1972</ele>
        <time>2017-09-17T14:23:03Z</time>
      </trkpt>
      <trkpt lat="44.12803" lon="7.68013">
        <ele>1972</ele>
        <time>2017-09-17T14:23:04Z</time>
      </trkpt>
      <trkpt lat="44.12798" lon="7.68017">
        <ele>1972</ele>
        <time>2017-09-17T14:23:05Z</time>
      </trkpt>
      <trkpt lat="44.12792" lon="7.6802">
        <ele>1972</ele>
        <time>2017-09-17T14:23:06Z</time>
      </trkpt>
      <trkpt lat="44.12786" lon="7.68022">
        <ele>1972</ele>
        <time>2017-09-17T14:23:07Z</time>
      </trkpt>
      <trkpt lat="44.1278" lon="7.68022">
        <ele>1971</ele>
        <time>2017-09-17T14:23:08Z</time>
      </trkpt>
      <trkpt lat="44.12774" lon="7.68022">
        <ele>1971</ele>
        <time>2017-09-17T14:23:09Z</time>
      </trkpt>
      <trkpt lat="44.12768" lon="7.6802">
        <ele>1971</ele>
        <time>2017-09-17T14:23:10Z</time>
      </trkpt>
      <trkpt lat="44.12762" lon="7.68017">
        <ele>1971</ele>
        <time>2017-09-17T14:23:11Z</time>
      </trkpt>
      <trkpt lat="44.12756" lon="7.68014">
        <ele>1971</ele>
        <time>2017-09-17T14:23:12Z</time>
      </trkpt>
      <trkpt lat="44.1275" lon="7.68011">
        <ele>1971</ele>
        <time>2017-09-17T14:23:13Z</time>
      </trkpt>
      <trkpt lat="44.12743" lon="7.68009">
        <ele>1971</ele>
        <time>2017-09-17T14:23:14Z</time>
      </trkpt>
      <trkpt lat="44.12737" lon="7.68006">
        <ele>1971</ele>
        <time>2017-09-17T14:23:15Z</time>
      </trkpt>
      <trkpt lat="44.12731" lon="7.68003">
        <ele>1971</ele>
        <time>2017-09-17T14:23:16Z</time>
      </trkpt>
      <trkpt lat="44.12725" lon="7.68">
        <ele>1971</ele>
        <time>2017-09-17T14:23:17Z</time>
      </trkpt>
      <trkpt lat="44.12718" lon="7.67997">
        <ele>1972</ele>
        <time>2017-09-17T14:23:18Z</time>
      </trkpt>
      <trkpt lat="44.12712" lon="7.67994">
        <ele>1972</ele>
        <time>2017-09-17T14:23:19Z</time>
      </trkpt>
      <trkpt lat="44.12705" lon="7.67993">
        <ele>1972</ele>
        <time>2017-09-17T14:23:20Z</time>
      </trkpt>
      <trkpt lat="44.12699" lon="7.67994">
        <ele>1972</ele>
        <time>2017-09-17T14:23:21Z</time>
      </trkpt>
      <trkpt lat="44.12693" lon="7.67997">
        <ele>1972</ele>
        <time>2017-09-17T14:23:22Z</time>
      </trkpt>
      <trkpt lat="44.12688" lon="7.68003">
        <ele>1971</ele>
        <time>2017-09-17T14:23:23Z</time>
      </trkpt>
      <trkpt lat="44.12684" lon="7.68009">
        <ele>1971</ele>
        <time>2017-09-17T14:23:24Z</time>
      </trkpt>
      <trkpt lat="44.12679" lon="7.68016">
        <ele>1971</ele>
        <time>2017-09-17T14:23:25Z</time>
      </trkpt>
      <trkpt lat="44.12675" lon="7.68022">
        <ele>1971</ele>
        <time>2017-09-17T14:23:26Z</time>
      </trkpt>
      <trkpt lat="44.12671" lon="7.68028">
        <ele>1971</ele>
        <time>2017-09-17T14:23:27Z</time>
      </trkpt>
      <trkpt lat="44.12667" lon="7.68035">
        <ele>1971</ele>
        <time>2017-09-17T14:23:28Z</time>
      </trkpt>
      <trkpt lat="44.12664" lon="7.68043">
        <ele>1971</ele>
        <time>2017-09-17T14:23:29Z</time>
      </trkpt>
      <trkpt lat="44.12662" lon="7.6805">
        <ele>1971</ele>
        <time>2017-09-17T14:23:30Z</time>
      </trkpt>
      <trkpt lat="44.12661" lon="7.68058">
        <ele>1970</ele>
        <time>2017-09-17T14:23:31Z</time>
      </trkpt>
      <trkpt lat="44.12661" lon="7.68066">
        <ele>1970</ele>
        <time>2017-09-17T14:23:32Z</time>
      </trkpt>
      <trkpt lat="44.12662" lon="7.68075">
        <ele>1970</ele>
        <time>2017-09-17T14:23:33Z</time>
      </trkpt>
      <trkpt lat="44.12665" lon="7.68082">
        <ele>1970</ele>
        <time>2017-09-17T14:23:34Z</time>
      </trkpt>
      <trkpt lat="44.12668" lon="7.6809">
        <ele>1969</ele>
        <time>2017-09-17T14:23:35Z</time>
      </trkpt>
      <trkpt lat="44.12671" lon="7.68096">
        <ele>1969</ele>
        <time>2017-09-17T14:23:36Z</time>
      </trkpt>
      <trkpt lat="44.12675" lon="7.68104">
        <ele>1969</ele>
        <time>2017-09-17T14:23:37Z</time>
      </trkpt>
      <trkpt lat="44.12678" lon="7.68111">
        <ele>1969</ele>
        <time>2017-09-17T14:23:38Z</time>
      </trkpt>
      <trkpt lat="44.12682" lon="7.68118">
        <ele>1968</ele>
        <time>2017-09-17T14:23:39Z</time>
      </trkpt>
      <trkpt lat="44.12685" lon="7.68126">
        <ele>1968</ele>
        <time>2017-09-17T14:23:40Z</time>
      </trkpt>
      <trkpt lat="44.12687" lon="7.68134">
        <ele>1968</ele>
        <time>2017-09-17T14:23:41Z</time>
      </trkpt>
      <trkpt lat="44.12689" lon="7.68142">
        <ele>1968</ele>
        <time>2017-09-17T14:23:42Z</time>
      </trkpt>
      <trkpt lat="44.12689" lon="7.68151">
        <ele>1968</ele>
        <time>2017-09-17T14:23:43Z</time>
      </trkpt>
      <trkpt lat="44.12688" lon="7.68159">
        <ele>1968</ele>
        <time>2017-09-17T14:23:44Z</time>
      </trkpt>
      <trkpt lat="44.12686" lon="7.68167">
        <ele>1968</ele>
        <time>2017-09-17T14:23:45Z</time>
      </trkpt>
      <trkpt lat="44.12684" lon="7.68175">
        <ele>1968</ele>
        <time>2017-09-17T14:23:46Z</time>
      </trkpt>
      <trkpt lat="44.12682" lon="7.68183">
        <ele>1968</ele>
        <time>2017-09-17T14:23:47Z</time>
      </trkpt>
      <trkpt lat="44.12681" lon="7.6819">
        <ele>1968</ele>
        <time>2017-09-17T14:23:48Z</time>
      </trkpt>
      <trkpt lat="44.12679" lon="7.68198">
        <ele>1968</ele>
        <time>2017-09-17T14:23:49Z</time>
      </trkpt>
      <trkpt lat="44.12678" lon="7.68206">
        <ele>1968</ele>
        <time>2017-09-17T14:23:50Z</time>
      </trkpt>
      <trkpt lat="44.12678" lon="7.68214">
        <ele>1968</ele>
        <time>2017-09-17T14:23:51Z</time>
      </trkpt>
      <trkpt lat="44.12678" lon="7.68223">
        <ele>1969</ele>
        <time>2017-09-17T14:23:52Z</time>
      </trkpt>
      <trkpt lat="44.12679" lon="7.68231">
        <ele>1969</ele>
        <time>2017-09-17T14:23:53Z</time>
      </trkpt>
      <trkpt lat="44.12681" lon="7.68239">
        <ele>1969</ele>
        <time>2017-09-17T14:23:54Z</time>
      </trkpt>
      <trkpt lat="44.12684" lon="7.68246">
        <ele>1969</ele>
        <time>2017-09-17T14:23:55Z</time>
      </trkpt>
      <trkpt lat="44.12687" lon="7.68254">
        <ele>1969</ele>
        <time>2017-09-17T14:23:56Z</time>
      </trkpt>
      <trkpt lat="44.12688" lon="7.68262">
        <ele>1969</ele>
        <time>2017-09-17T14:23:57Z</time>
      </trkpt>
      <trkpt lat="44.12687" lon="7.68271">
        <ele>1969</ele>
        <time>2017-09-17T14:23:58Z</time>
      </trkpt>
      <trkpt lat="44.12686" lon="7.68278">
        <ele>1970</ele>
        <time>2017-09-17T14:23:59Z</time>
      </trkpt>
      <trkpt lat="44.12682" lon="7.68285">
        <ele>1970</ele>
        <time>2017-09-17T14:24:00Z</time>
      </trkpt>
      <trkpt lat="44.1268" lon="7.68293">
        <ele>1970</ele>
        <time>2017-09-17T14:24:01Z</time>
      </trkpt>
      <trkpt lat="44.1268" lon="7.68303">
        <ele>1970</ele>
        <time>2017-09-17T14:24:02Z</time>
      </trkpt>
      <trkpt lat="44.12681" lon="7.68311">
        <ele>1970</ele>
        <time>2017-09-17T14:24:03Z</time>
      </trkpt>
      <trkpt lat="44.12683" lon="7.6832">
        <ele>1970</ele>
        <time>2017-09-17T14:24:04Z</time>
      </trkpt>
      <trkpt lat="44.12686" lon="7.68327">
        <ele>1970</ele>
        <time>2017-09-17T14:24:05Z</time>
      </trkpt>
      <trkpt lat="44.12688" lon="7.68334">
        <ele>1970</ele>
        <time>2017-09-17T14:24:06Z</time>
      </trkpt>
      <trkpt lat="44.12691" lon="7.68342">
        <ele>1970</ele>
        <time>2017-09-17T14:24:07Z</time>
      </trkpt>
      <trkpt lat="44.12694" lon="7.6835">
        <ele>1970</ele>
        <time>2017-09-17T14:24:08Z</time>
      </trkpt>
      <trkpt lat="44.12697" lon="7.68358">
        <ele>1970</ele>
        <time>2017-09-17T14:24:09Z</time>
      </trkpt>
      <trkpt lat="44.12701" lon="7.68366">
        <ele>1970</ele>
        <time>2017-09-17T14:24:10Z</time>
      </trkpt>
      <trkpt lat="44.12704" lon="7.68373">
        <ele>1970</ele>
        <time>2017-09-17T14:24:11Z</time>
      </trkpt>
      <trkpt lat="44.12706" lon="7.68382">
        <ele>1970</ele>
        <time>2017-09-17T14:24:12Z</time>
      </trkpt>
      <trkpt lat="44.12709" lon="7.68391">
        <ele>1970</ele>
        <time>2017-09-17T14:24:13Z</time>
      </trkpt>
      <trkpt lat="44.12711" lon="7.68399">
        <ele>1970</ele>
        <time>2017-09-17T14:24:14Z</time>
      </trkpt>
      <trkpt lat="44.12714" lon="7.68408">
        <ele>1970</ele>
        <time>2017-09-17T14:24:15Z</time>
      </trkpt>
      <trkpt lat="44.12716" lon="7.68417">
        <ele>1970</ele>
        <time>2017-09-17T14:24:16Z</time>
      </trkpt>
      <trkpt lat="44.12719" lon="7.68425">
        <ele>1970</ele>
        <time>2017-09-17T14:24:17Z</time>
      </trkpt>
      <trkpt lat="44.12721" lon="7.68433">
        <ele>1969</ele>
        <time>2017-09-17T14:24:18Z</time>
      </trkpt>
      <trkpt lat="44.12724" lon="7.68442">
        <ele>1969</ele>
        <time>2017-09-17T14:24:19Z</time>
      </trkpt>
      <trkpt lat="44.12727" lon="7.6845">
        <ele>1969</ele>
        <time>2017-09-17T14:24:20Z</time>
      </trkpt>
      <trkpt lat="44.12729" lon="7.68458">
        <ele>1969</ele>
        <time>2017-09-17T14:24:21Z</time>
      </trkpt>
      <trkpt lat="44.12732" lon="7.68466">
        <ele>1969</ele>
        <time>2017-09-17T14:24:22Z</time>
      </trkpt>
      <trkpt lat="44.12735" lon="7.68474">
        <ele>1969</ele>
        <time>2017-09-17T14:24:23Z</time>
      </trkpt>
      <trkpt lat="44.12738" lon="7.68482">
        <ele>1969</ele>
        <time>2017-09-17T14:24:24Z</time>
      </trkpt>
      <trkpt lat="44.12741" lon="7.6849">
        <ele>1969</ele>
        <time>2017-09-17T14:24:25Z</time>
      </trkpt>
      <trkpt lat="44.12744" lon="7.68497">
        <ele>1968</ele>
        <time>2017-09-17T14:24:26Z</time>
      </trkpt>
      <trkpt lat="44.12747" lon="7.68505">
        <ele>1968</ele>
        <time>2017-09-17T14:24:27Z</time>
      </trkpt>
      <trkpt lat="44.12751" lon="7.68512">
        <ele>1968</ele>
        <time>2017-09-17T14:24:28Z</time>
      </trkpt>
      <trkpt lat="44.12754" lon="7.6852">
        <ele>1968</ele>
        <time>2017-09-17T14:24:29Z</time>
      </trkpt>
      <trkpt lat="44.12758" lon="7.68527">
        <ele>1968</ele>
        <time>2017-09-17T14:24:30Z</time>
      </trkpt>
      <trkpt lat="44.12762" lon="7.68535">
        <ele>1968</ele>
        <time>2017-09-17T14:24:31Z</time>
      </trkpt>
      <trkpt lat="44.12765" lon="7.68541">
        <ele>1968</ele>
        <time>2017-09-17T14:24:32Z</time>
      </trkpt>
      <trkpt lat="44.12768" lon="7.68548">
        <ele>1968</ele>
        <time>2017-09-17T14:24:33Z</time>
      </trkpt>
      <trkpt lat="44.12771" lon="7.68555">
        <ele>1968</ele>
        <time>2017-09-17T14:24:34Z</time>
      </trkpt>
      <trkpt lat="44.12773" lon="7.68563">
        <ele>1967</ele>
        <time>2017-09-17T14:24:35Z</time>
      </trkpt>
      <trkpt lat="44.12776" lon="7.68571">
        <ele>1967</ele>
        <time>2017-09-17T14:24:36Z</time>
      </trkpt>
      <trkpt lat="44.1278" lon="7.68578">
        <ele>1967</ele>
        <time>2017-09-17T14:24:37Z</time>
      </trkpt>
      <trkpt lat="44.12784" lon="7.68585">
        <ele>1967</ele>
        <time>2017-09-17T14:24:38Z</time>
      </trkpt>
      <trkpt lat="44.12787" lon="7.68592">
        <ele>1967</ele>
        <time>2017-09-17T14:24:39Z</time>
      </trkpt>
      <trkpt lat="44.1279" lon="7.68599">
        <ele>1967</ele>
        <time>2017-09-17T14:24:40Z</time>
      </trkpt>
      <trkpt lat="44.12794" lon="7.68607">
        <ele>1967</ele>
        <time>2017-09-17T14:24:41Z</time>
      </trkpt>
      <trkpt lat="44.12798" lon="7.68614">
        <ele>1967</ele>
        <time>2017-09-17T14:24:42Z</time>
      </trkpt>
      <trkpt lat="44.12802" lon="7.6862">
        <ele>1967</ele>
        <time>2017-09-17T14:24:43Z</time>
      </trkpt>
      <trkpt lat="44.12806" lon="7.68626">
        <ele>1966</ele>
        <time>2017-09-17T14:24:44Z</time>
      </trkpt>
      <trkpt lat="44.12811" lon="7.68633">
        <ele>1966</ele>
        <time>2017-09-17T14:24:45Z</time>
      </trkpt>
      <trkpt lat="44.12815" lon="7.68639">
        <ele>1966</ele>
        <time>2017-09-17T14:24:46Z</time>
      </trkpt>
      <trkpt lat="44.12819" lon="7.68645">
        <ele>1966</ele>
        <time>2017-09-17T14:24:47Z</time>
      </trkpt>
      <trkpt lat="44.12824" lon="7.6865">
        <ele>1966</ele>
        <time>2017-09-17T14:24:48Z</time>
      </trkpt>
      <trkpt lat="44.12829" lon="7.68656">
        <ele>1966</ele>
        <time>2017-09-17T14:24:49Z</time>
      </trkpt>
      <trkpt lat="44.12833" lon="7.68662">
        <ele>1966</ele>
        <time>2017-09-17T14:24:50Z</time>
      </trkpt>
      <trkpt lat="44.12836" lon="7.6867">
        <ele>1966</ele>
        <time>2017-09-17T14:24:51Z</time>
      </trkpt>
      <trkpt lat="44.12837" lon="7.68679">
        <ele>1966</ele>
        <time>2017-09-17T14:24:52Z</time>
      </trkpt>
      <trkpt lat="44.12838" lon="7.68688">
        <ele>1966</ele>
        <time>2017-09-17T14:24:53Z</time>
      </trkpt>
      <trkpt lat="44.12839" lon="7.68697">
        <ele>1966</ele>
        <time>2017-09-17T14:24:54Z</time>
      </trkpt>
      <trkpt lat="44.12839" lon="7.68705">
        <ele>1965</ele>
        <time>2017-09-17T14:24:55Z</time>
      </trkpt>
      <trkpt lat="44.12838" lon="7.68714">
        <ele>1965</ele>
        <time>2017-09-17T14:24:56Z</time>
      </trkpt>
      <trkpt lat="44.12837" lon="7.68722">
        <ele>1965</ele>
        <time>2017-09-17T14:24:57Z</time>
      </trkpt>
      <trkpt lat="44.12836" lon="7.68731">
        <ele>1965</ele>
        <time>2017-09-17T14:24:58Z</time>
      </trkpt>
      <trkpt lat="44.12833" lon="7.68739">
        <ele>1965</ele>
        <time>2017-09-17T14:24:59Z</time>
      </trkpt>
      <trkpt lat="44.12831" lon="7.68747">
        <ele>1965</ele>
        <time>2017-09-17T14:25:00Z</time>
      </trkpt>
      <trkpt lat="44.12829" lon="7.68755">
        <ele>1965</ele>
        <time>2017-09-17T14:25:01Z</time>
      </trkpt>
      <trkpt lat="44.12827" lon="7.68764">
        <ele>1965</ele>
        <time>2017-09-17T14:25:02Z</time>
      </trkpt>
      <trkpt lat="44.12826" lon="7.68773">
        <ele>1965</ele>
        <time>2017-09-17T14:25:03Z</time>
      </trkpt>
      <trkpt lat="44.12825" lon="7.68782">
        <ele>1965</ele>
        <time>2017-09-17T14:25:04Z</time>
      </trkpt>
      <trkpt lat="44.12826" lon="7.68791">
        <ele>1965</ele>
        <time>2017-09-17T14:25:05Z</time>
      </trkpt>
      <trkpt lat="44.12827" lon="7.688">
        <ele>1965</ele>
        <time>2017-09-17T14:25:06Z</time>
      </trkpt>
      <trkpt lat="44.12829" lon="7.68809">
        <ele>1964</ele>
        <time>2017-09-17T14:25:07Z</time>
      </trkpt>
      <trkpt lat="44.1283" lon="7.68819">
        <ele>1964</ele>
        <time>2017-09-17T14:25:08Z</time>
      </trkpt>
      <trkpt lat="44.12832" lon="7.68828">
        <ele>1964</ele>
        <time>2017-09-17T14:25:09Z</time>
      </trkpt>
      <trkpt lat="44.12834" lon="7.68838">
        <ele>1964</ele>
        <time>2017-09-17T14:25:10Z</time>
      </trkpt>
      <trkpt lat="44.12836" lon="7.68848">
        <ele>1964</ele>
        <time>2017-09-17T14:25:11Z</time>
      </trkpt>
      <trkpt lat="44.12838" lon="7.68857">
        <ele>1963</ele>
        <time>2017-09-17T14:25:12Z</time>
      </trkpt>
      <trkpt lat="44.12841" lon="7.68867">
        <ele>1963</ele>
        <time>2017-09-17T14:25:13Z</time>
      </trkpt>
      <trkpt lat="44.12844" lon="7.68875">
        <ele>1963</ele>
        <time>2017-09-17T14:25:14Z</time>
      </trkpt>
      <trkpt lat="44.12847" lon="7.68884">
        <ele>1963</ele>
        <time>2017-09-17T14:25:15Z</time>
      </trkpt>
      <trkpt lat="44.1285" lon="7.68892">
        <ele>1962</ele>
        <time>2017-09-17T14:25:16Z</time>
      </trkpt>
      <trkpt lat="44.12852" lon="7.68901">
        <ele>1962</ele>
        <time>2017-09-17T14:25:17Z</time>
      </trkpt>
      <trkpt lat="44.12853" lon="7.6891">
        <ele>1962</ele>
        <time>2017-09-17T14:25:18Z</time>
      </trkpt>
      <trkpt lat="44.12854" lon="7.68919">
        <ele>1961</ele>
        <time>2017-09-17T14:25:19Z</time>
      </trkpt>
      <trkpt lat="44.12853" lon="7.68929">
        <ele>1961</ele>
        <time>2017-09-17T14:25:20Z</time>
      </trkpt>
      <trkpt lat="44.12852" lon="7.68938">
        <ele>1961</ele>
        <time>2017-09-17T14:25:21Z</time>
      </trkpt>
      <trkpt lat="44.1285" lon="7.68948">
        <ele>1961</ele>
        <time>2017-09-17T14:25:22Z</time>
      </trkpt>
      <trkpt lat="44.12848" lon="7.68957">
        <ele>1960</ele>
        <time>2017-09-17T14:25:23Z</time>
      </trkpt>
      <trkpt lat="44.12847" lon="7.68966">
        <ele>1960</ele>
        <time>2017-09-17T14:25:24Z</time>
      </trkpt>
      <trkpt lat="44.12845" lon="7.68976">
        <ele>1960</ele>
        <time>2017-09-17T14:25:25Z</time>
      </trkpt>
      <trkpt lat="44.12842" lon="7.68985">
        <ele>1960</ele>
        <time>2017-09-17T14:25:26Z</time>
      </trkpt>
      <trkpt lat="44.1284" lon="7.68994">
        <ele>1960</ele>
        <time>2017-09-17T14:25:27Z</time>
      </trkpt>
      <trkpt lat="44.12837" lon="7.69003">
        <ele>1960</ele>
        <time>2017-09-17T14:25:28Z</time>
      </trkpt>
      <trkpt lat="44.12835" lon="7.69012">
        <ele>1959</ele>
        <time>2017-09-17T14:25:29Z</time>
      </trkpt>
      <trkpt lat="44.12833" lon="7.69021">
        <ele>1959</ele>
        <time>2017-09-17T14:25:30Z</time>
      </trkpt>
      <trkpt lat="44.12831" lon="7.6903">
        <ele>1959</ele>
        <time>2017-09-17T14:25:31Z</time>
      </trkpt>
      <trkpt lat="44.12828" lon="7.69039">
        <ele>1958</ele>
        <time>2017-09-17T14:25:32Z</time>
      </trkpt>
      <trkpt lat="44.12824" lon="7.69047">
        <ele>1958</ele>
        <time>2017-09-17T14:25:33Z</time>
      </trkpt>
      <trkpt lat="44.1282" lon="7.69055">
        <ele>1958</ele>
        <time>2017-09-17T14:25:34Z</time>
      </trkpt>
      <trkpt lat="44.12815" lon="7.69062">
        <ele>1957</ele>
        <time>2017-09-17T14:25:35Z</time>
      </trkpt>
      <trkpt lat="44.1281" lon="7.6907">
        <ele>1957</ele>
        <time>2017-09-17T14:25:36Z</time>
      </trkpt>
      <trkpt lat="44.12804" lon="7.69076">
        <ele>1957</ele>
        <time>2017-09-17T14:25:37Z</time>
      </trkpt>
      <trkpt lat="44.12798" lon="7.69082">
        <ele>1957</ele>
        <time>2017-09-17T14:25:38Z</time>
      </trkpt>
      <trkpt lat="44.12792" lon="7.69088">
        <ele>1956</ele>
        <time>2017-09-17T14:25:39Z</time>
      </trkpt>
      <trkpt lat="44.12786" lon="7.69093">
        <ele>1956</ele>
        <time>2017-09-17T14:25:40Z</time>
      </trkpt>
      <trkpt lat="44.12779" lon="7.69098">
        <ele>1956</ele>
        <time>2017-09-17T14:25:41Z</time>
      </trkpt>
      <trkpt lat="44.12773" lon="7.69102">
        <ele>1956</ele>
        <time>2017-09-17T14:25:42Z</time>
      </trkpt>
      <trkpt lat="44.12766" lon="7.69107">
        <ele>1956</ele>
        <time>2017-09-17T14:25:43Z</time>
      </trkpt>
      <trkpt lat="44.1276" lon="7.69111">
        <ele>1955</ele>
        <time>2017-09-17T14:25:44Z</time>
      </trkpt>
      <trkpt lat="44.12753" lon="7.69114">
        <ele>1955</ele>
        <time>2017-09-17T14:25:45Z</time>
      </trkpt>
      <trkpt lat="44.12746" lon="7.69116">
        <ele>1955</ele>
        <time>2017-09-17T14:25:46Z</time>
      </trkpt>
      <trkpt lat="44.12739" lon="7.69119">
        <ele>1955</ele>
        <time>2017-09-17T14:25:47Z</time>
      </trkpt>
      <trkpt lat="44.12732" lon="7.69123">
        <ele>1954</ele>
        <time>2017-09-17T14:25:48Z</time>
      </trkpt>
      <trkpt lat="44.12726" lon="7.69127">
        <ele>1954</ele>
        <time>2017-09-17T14:25:49Z</time>
      </trkpt>
      <trkpt lat="44.1272" lon="7.69132">
        <ele>1954</ele>
        <time>2017-09-17T14:25:50Z</time>
      </trkpt>
      <trkpt lat="44.12714" lon="7.69137">
        <ele>1953</ele>
        <time>2017-09-17T14:25:51Z</time>
      </trkpt>
      <trkpt lat="44.12708" lon="7.69142">
        <ele>1953</ele>
        <time>2017-09-17T14:25:52Z</time>
      </trkpt>
      <trkpt lat="44.12701" lon="7.69147">
        <ele>1952</ele>
        <time>2017-09-17T14:25:53Z</time>
      </trkpt>
      <trkpt lat="44.12695" lon="7.69151">
        <ele>1952</ele>
        <time>2017-09-17T14:25:54Z</time>
      </trkpt>
      <trkpt lat="44.12689" lon="7.69156">
        <ele>1952</ele>
        <time>2017-09-17T14:25:55Z</time>
      </trkpt>
      <trkpt lat="44.12682" lon="7.69161">
        <ele>1951</ele>
        <time>2017-09-17T14:25:56Z</time>
      </trkpt>
      <trkpt lat="44.12675" lon="7.69166">
        <ele>1951</ele>
        <time>2017-09-17T14:25:57Z</time>
      </trkpt>
      <trkpt lat="44.12668" lon="7.6917">
        <ele>1951</ele>
        <time>2017-09-17T14:25:58Z</time>
      </trkpt>
      <trkpt lat="44.12661" lon="7.69173">
        <ele>1950</ele>
        <time>2017-09-17T14:25:59Z</time>
      </trkpt>
      <trkpt lat="44.12654" lon="7.69178">
        <ele>1950</ele>
        <time>2017-09-17T14:26:00Z</time>
      </trkpt>
      <trkpt lat="44.12647" lon="7.69182">
        <ele>1950</ele>
        <time>2017-09-17T14:26:01Z</time>
      </trkpt>
      <trkpt lat="44.12639" lon="7.69186">
        <ele>1949</ele>
        <time>2017-09-17T14:26:02Z</time>
      </trkpt>
      <trkpt lat="44.12632" lon="7.6919">
        <ele>1949</ele>
        <time>2017-09-17T14:26:03Z</time>
      </trkpt>
      <trkpt lat="44.12625" lon="7.69194">
        <ele>1948</ele>
        <time>2017-09-17T14:26:04Z</time>
      </trkpt>
      <trkpt lat="44.12617" lon="7.69197">
        <ele>1948</ele>
        <time>2017-09-17T14:26:05Z</time>
      </trkpt>
      <trkpt lat="44.1261" lon="7.692">
        <ele>1947</ele>
        <time>2017-09-17T14:26:06Z</time>
      </trkpt>
      <trkpt lat="44.12602" lon="7.69203">
        <ele>1947</ele>
        <time>2017-09-17T14:26:07Z</time>
      </trkpt>
      <trkpt lat="44.12594" lon="7.69206">
        <ele>1946</ele>
        <time>2017-09-17T14:26:08Z</time>
      </trkpt>
      <trkpt lat="44.12586" lon="7.69209">
        <ele>1946</ele>
        <time>2017-09-17T14:26:09Z</time>
      </trkpt>
      <trkpt lat="44.12579" lon="7.69212">
        <ele>1946</ele>
        <time>2017-09-17T14:26:10Z</time>
      </trkpt>
      <trkpt lat="44.12571" lon="7.69215">
        <ele>1945</ele>
        <time>2017-09-17T14:26:11Z</time>
      </trkpt>
      <trkpt lat="44.12563" lon="7.69219">
        <ele>1945</ele>
        <time>2017-09-17T14:26:12Z</time>
      </trkpt>
      <trkpt lat="44.12555" lon="7.69222">
        <ele>1944</ele>
        <time>2017-09-17T14:26:13Z</time>
      </trkpt>
      <trkpt lat="44.12547" lon="7.69226">
        <ele>1944</ele>
        <time>2017-09-17T14:26:14Z</time>
      </trkpt>
      <trkpt lat="44.12539" lon="7.69228">
        <ele>1943</ele>
        <time>2017-09-17T14:26:15Z</time>
      </trkpt>
      <trkpt lat="44.12532" lon="7.69229">
        <ele>1943</ele>
        <time>2017-09-17T14:26:16Z</time>
      </trkpt>
      <trkpt lat="44.12524" lon="7.69227">
        <ele>1943</ele>
        <time>2017-09-17T14:26:17Z</time>
      </trkpt>
      <trkpt lat="44.12518" lon="7.69222">
        <ele>1942</ele>
        <time>2017-09-17T14:26:18Z</time>
      </trkpt>
      <trkpt lat="44.12512" lon="7.69215">
        <ele>1942</ele>
        <time>2017-09-17T14:26:19Z</time>
      </trkpt>
      <trkpt lat="44.12508" lon="7.69208">
        <ele>1942</ele>
        <time>2017-09-17T14:26:20Z</time>
      </trkpt>
      <trkpt lat="44.12504" lon="7.69199">
        <ele>1941</ele>
        <time>2017-09-17T14:26:21Z</time>
      </trkpt>
      <trkpt lat="44.125" lon="7.69191">
        <ele>1941</ele>
        <time>2017-09-17T14:26:22Z</time>
      </trkpt>
      <trkpt lat="44.12496" lon="7.69183">
        <ele>1941</ele>
        <time>2017-09-17T14:26:23Z</time>
      </trkpt>
      <trkpt lat="44.12492" lon="7.69174">
        <ele>1940</ele>
        <time>2017-09-17T14:26:24Z</time>
      </trkpt>
      <trkpt lat="44.12489" lon="7.69165">
        <ele>1940</ele>
        <time>2017-09-17T14:26:25Z</time>
      </trkpt>
      <trkpt lat="44.12487" lon="7.69155">
        <ele>1940</ele>
        <time>2017-09-17T14:26:26Z</time>
      </trkpt>
      <trkpt lat="44.12484" lon="7.69146">
        <ele>1939</ele>
        <time>2017-09-17T14:26:27Z</time>
      </trkpt>
      <trkpt lat="44.1248" lon="7.69137">
        <ele>1939</ele>
        <time>2017-09-17T14:26:28Z</time>
      </trkpt>
      <trkpt lat="44.12474" lon="7.69129">
        <ele>1939</ele>
        <time>2017-09-17T14:26:29Z</time>
      </trkpt>
      <trkpt lat="44.12469" lon="7.69122">
        <ele>1938</ele>
        <time>2017-09-17T14:26:30Z</time>
      </trkpt>
      <trkpt lat="44.12463" lon="7.69116">
        <ele>1938</ele>
        <time>2017-09-17T14:26:31Z</time>
      </trkpt>
      <trkpt lat="44.12457" lon="7.6911">
        <ele>1938</ele>
        <time>2017-09-17T14:26:32Z</time>
      </trkpt>
      <trkpt lat="44.1245" lon="7.69104">
        <ele>1938</ele>
        <time>2017-09-17T14:26:33Z</time>
      </trkpt>
      <trkpt lat="44.12444" lon="7.691">
        <ele>1937</ele>
        <time>2017-09-17T14:26:34Z</time>
      </trkpt>
      <trkpt lat="44.12437" lon="7.69095">
        <ele>1937</ele>
        <time>2017-09-17T14:26:35Z</time>
      </trkpt>
      <trkpt lat="44.12431" lon="7.6909">
        <ele>1937</ele>
        <time>2017-09-17T14:26:36Z</time>
      </trkpt>
      <trkpt lat="44.12424" lon="7.69085">
        <ele>1936</ele>
        <time>2017-09-17T14:26:37Z</time>
      </trkpt>
      <trkpt lat="44.12417" lon="7.69081">
        <ele>1936</ele>
        <time>2017-09-17T14:26:38Z</time>
      </trkpt>
      <trkpt lat="44.12409" lon="7.69077">
        <ele>1936</ele>
        <time>2017-09-17T14:26:39Z</time>
      </trkpt>
      <trkpt lat="44.12401" lon="7.69074">
        <ele>1935</ele>
        <time>2017-09-17T14:26:40Z</time>
      </trkpt>
      <trkpt lat="44.12394" lon="7.69073">
        <ele>1935</ele>
        <time>2017-09-17T14:26:41Z</time>
      </trkpt>
      <trkpt lat="44.12386" lon="7.69072">
        <ele>1934</ele>
        <time>2017-09-17T14:26:42Z</time>
      </trkpt>
      <trkpt lat="44.12378" lon="7.69072">
        <ele>1934</ele>
        <time>2017-09-17T14:26:43Z</time>
      </trkpt>
      <trkpt lat="44.1237" lon="7.69071">
        <ele>1934</ele>
        <time>2017-09-17T14:26:44Z</time>
      </trkpt>
      <trkpt lat="44.12362" lon="7.6907">
        <ele>1933</ele>
        <time>2017-09-17T14:26:45Z</time>
      </trkpt>
      <trkpt lat="44.12355" lon="7.69069">
        <ele>1933</ele>
        <time>2017-09-17T14:26:46Z</time>
      </trkpt>
      <trkpt lat="44.12347" lon="7.69067">
        <ele>1932</ele>
        <time>2017-09-17T14:26:47Z</time>
      </trkpt>
      <trkpt lat="44.12339" lon="7.69065">
        <ele>1932</ele>
        <time>2017-09-17T14:26:48Z</time>
      </trkpt>
      <trkpt lat="44.12332" lon="7.69062">
        <ele>1932</ele>
        <time>2017-09-17T14:26:49Z</time>
      </trkpt>
      <trkpt lat="44.12324" lon="7.69059">
        <ele>1931</ele>
        <time>2017-09-17T14:26:50Z</time>
      </trkpt>
      <trkpt lat="44.12316" lon="7.69058">
        <ele>1931</ele>
        <time>2017-09-17T14:26:51Z</time>
      </trkpt>
      <trkpt lat="44.12308" lon="7.69058">
        <ele>1930</ele>
        <time>2017-09-17T14:26:52Z</time>
      </trkpt>
      <trkpt lat="44.12301" lon="7.69059">
        <ele>1930</ele>
        <time>2017-09-17T14:26:53Z</time>
      </trkpt>
      <trkpt lat="44.12293" lon="7.6906">
        <ele>1930</ele>
        <time>2017-09-17T14:26:54Z</time>
      </trkpt>
      <trkpt lat="44.12285" lon="7.69058">
        <ele>1929</ele>
        <time>2017-09-17T14:26:55Z</time>
      </trkpt>
      <trkpt lat="44.12278" lon="7.69053">
        <ele>1929</ele>
        <time>2017-09-17T14:26:56Z</time>
      </trkpt>
      <trkpt lat="44.12272" lon="7.69047">
        <ele>1928</ele>
        <time>2017-09-17T14:26:57Z</time>
      </trkpt>
      <trkpt lat="44.12267" lon="7.6904">
        <ele>1928</ele>
        <time>2017-09-17T14:26:58Z</time>
      </trkpt>
      <trkpt lat="44.1226" lon="7.69034">
        <ele>1927</ele>
        <time>2017-09-17T14:26:59Z</time>
      </trkpt>
      <trkpt lat="44.12253" lon="7.69031">
        <ele>1927</ele>
        <time>2017-09-17T14:27:00Z</time>
      </trkpt>
      <trkpt lat="44.12245" lon="7.69029">
        <ele>1927</ele>
        <time>2017-09-17T14:27:01Z</time>
      </trkpt>
      <trkpt lat="44.12237" lon="7.69028">
        <ele>1926</ele>
        <time>2017-09-17T14:27:02Z</time>
      </trkpt>
      <trkpt lat="44.12229" lon="7.69028">
        <ele>1926</ele>
        <time>2017-09-17T14:27:03Z</time>
      </trkpt>
      <trkpt lat="44.12222" lon="7.69028">
        <ele>1925</ele>
        <time>2017-09-17T14:27:04Z</time>
      </trkpt>
      <trkpt lat="44.12214" lon="7.69028">
        <ele>1925</ele>
        <time>2017-09-17T14:27:05Z</time>
      </trkpt>
      <trkpt lat="44.12206" lon="7.69031">
        <ele>1925</ele>
        <time>2017-09-17T14:27:06Z</time>
      </trkpt>
      <trkpt lat="44.122" lon="7.69037">
        <ele>1925</ele>
        <time>2017-09-17T14:27:07Z</time>
      </trkpt>
      <trkpt lat="44.12196" lon="7.69044">
        <ele>1924</ele>
        <time>2017-09-17T14:27:08Z</time>
      </trkpt>
      <trkpt lat="44.12194" lon="7.69053">
        <ele>1924</ele>
        <time>2017-09-17T14:27:09Z</time>
      </trkpt>
      <trkpt lat="44.12194" lon="7.69063">
        <ele>1924</ele>
        <time>2017-09-17T14:27:10Z</time>
      </trkpt>
      <trkpt lat="44.12194" lon="7.69072">
        <ele>1924</ele>
        <time>2017-09-17T14:27:11Z</time>
      </trkpt>
      <trkpt lat="44.12194" lon="7.69082">
        <ele>1923</ele>
        <time>2017-09-17T14:27:12Z</time>
      </trkpt>
      <trkpt lat="44.12195" lon="7.69091">
        <ele>1923</ele>
        <time>2017-09-17T14:27:13Z</time>
      </trkpt>
      <trkpt lat="44.12196" lon="7.69101">
        <ele>1923</ele>
        <time>2017-09-17T14:27:14Z</time>
      </trkpt>
      <trkpt lat="44.12195" lon="7.69109">
        <ele>1923</ele>
        <time>2017-09-17T14:27:15Z</time>
      </trkpt>
      <trkpt lat="44.12193" lon="7.69117">
        <ele>1923</ele>
        <time>2017-09-17T14:27:16Z</time>
      </trkpt>
      <trkpt lat="44.12187" lon="7.69122">
        <ele>1923</ele>
        <time>2017-09-17T14:27:17Z</time>
      </trkpt>
      <trkpt lat="44.1218" lon="7.69126">
        <ele>1923</ele>
        <time>2017-09-17T14:27:18Z</time>
      </trkpt>
      <trkpt lat="44.12174" lon="7.6913">
        <ele>1923</ele>
        <time>2017-09-17T14:27:19Z</time>
      </trkpt>
      <trkpt lat="44.12167" lon="7.69133">
        <ele>1923</ele>
        <time>2017-09-17T14:27:20Z</time>
      </trkpt>
      <trkpt lat="44.1216" lon="7.69136">
        <ele>1923</ele>
        <time>2017-09-17T14:27:21Z</time>
      </trkpt>
      <trkpt lat="44.12153" lon="7.69138">
        <ele>1923</ele>
        <time>2017-09-17T14:27:22Z</time>
      </trkpt>
      <trkpt lat="44.12145" lon="7.6914">
        <ele>1923</ele>
        <time>2017-09-17T14:27:23Z</time>
      </trkpt>
      <trkpt lat="44.12138" lon="7.69142">
        <ele>1923</ele>
        <time>2017-09-17T14:27:24Z</time>
      </trkpt>
      <trkpt lat="44.12131" lon="7.69142">
        <ele>1923</ele>
        <time>2017-09-17T14:27:25Z</time>
      </trkpt>
      <trkpt lat="44.12124" lon="7.69141">
        <ele>1923</ele>
        <time>2017-09-17T14:27:26Z</time>
      </trkpt>
      <trkpt lat="44.12117" lon="7.69138">
        <ele>1923</ele>
        <time>2017-09-17T14:27:27Z</time>
      </trkpt>
      <trkpt lat="44.12109" lon="7.69137">
        <ele>1923</ele>
        <time>2017-09-17T14:27:28Z</time>
      </trkpt>
      <trkpt lat="44.12102" lon="7.69139">
        <ele>1923</ele>
        <time>2017-09-17T14:27:29Z</time>
      </trkpt>
      <trkpt lat="44.12097" lon="7.69143">
        <ele>1923</ele>
        <time>2017-09-17T14:27:30Z</time>
      </trkpt>
      <trkpt lat="44.12091" lon="7.69149">
        <ele>1922</ele>
        <time>2017-09-17T14:27:31Z</time>
      </trkpt>
      <trkpt lat="44.12087" lon="7.69156">
        <ele>1922</ele>
        <time>2017-09-17T14:27:32Z</time>
      </trkpt>
      <trkpt lat="44.12083" lon="7.69165">
        <ele>1922</ele>
        <time>2017-09-17T14:27:33Z</time>
      </trkpt>
      <trkpt lat="44.1208" lon="7.69174">
        <ele>1922</ele>
        <time>2017-09-17T14:27:34Z</time>
      </trkpt>
      <trkpt lat="44.12078" lon="7.69183">
        <ele>1922</ele>
        <time>2017-09-17T14:27:35Z</time>
      </trkpt>
      <trkpt lat="44.12075" lon="7.69192">
        <ele>1922</ele>
        <time>2017-09-17T14:27:36Z</time>
      </trkpt>
      <trkpt lat="44.12073" lon="7.69201">
        <ele>1922</ele>
        <time>2017-09-17T14:27:37Z</time>
      </trkpt>
      <trkpt lat="44.12071" lon="7.69211">
        <ele>1922</ele>
        <time>2017-09-17T14:27:38Z</time>
      </trkpt>
      <trkpt lat="44.12069" lon="7.6922">
        <ele>1922</ele>
        <time>2017-09-17T14:27:39Z</time>
      </trkpt>
      <trkpt lat="44.12067" lon="7.69229">
        <ele>1922</ele>
        <time>2017-09-17T14:27:40Z</time>
      </trkpt>
      <trkpt lat="44.12066" lon="7.69238">
        <ele>1922</ele>
        <time>2017-09-17T14:27:41Z</time>
      </trkpt>
      <trkpt lat="44.12062" lon="7.69246">
        <ele>1922</ele>
        <time>2017-09-17T14:27:42Z</time>
      </trkpt>
      <trkpt lat="44.12057" lon="7.69254">
        <ele>1922</ele>
        <time>2017-09-17T14:27:43Z</time>
      </trkpt>
      <trkpt lat="44.12054" lon="7.69262">
        <ele>1921</ele>
        <time>2017-09-17T14:27:44Z</time>
      </trkpt>
      <trkpt lat="44.12051" lon="7.69271">
        <ele>1921</ele>
        <time>2017-09-17T14:27:45Z</time>
      </trkpt>
      <trkpt lat="44.1205" lon="7.69281">
        <ele>1921</ele>
        <time>2017-09-17T14:27:46Z</time>
      </trkpt>
      <trkpt lat="44.12049" lon="7.69291">
        <ele>1921</ele>
        <time>2017-09-17T14:27:47Z</time>
      </trkpt>
      <trkpt lat="44.12048" lon="7.69301">
        <ele>1921</ele>
        <time>2017-09-17T14:27:48Z</time>
      </trkpt>
      <trkpt lat="44.12046" lon="7.6931">
        <ele>1921</ele>
        <time>2017-09-17T14:27:49Z</time>
      </trkpt>
      <trkpt lat="44.12045" lon="7.69319">
        <ele>1921</ele>
        <time>2017-09-17T14:27:50Z</time>
      </trkpt>
      <trkpt lat="44.12043" lon="7.69328">
        <ele>1921</ele>
        <time>2017-09-17T14:27:51Z</time>
      </trkpt>
      <trkpt lat="44.12042" lon="7.69337">
        <ele>1921</ele>
        <time>2017-09-17T14:27:52Z</time>
      </trkpt>
      <trkpt lat="44.1204" lon="7.69346">
        <ele>1921</ele>
        <time>2017-09-17T14:27:53Z</time>
      </trkpt>
      <trkpt lat="44.12039" lon="7.69355">
        <ele>1921</ele>
        <time>2017-09-17T14:27:54Z</time>
      </trkpt>
      <trkpt lat="44.12039" lon="7.69364">
        <ele>1920</ele>
        <time>2017-09-17T14:27:55Z</time>
      </trkpt>
      <trkpt lat="44.12039" lon="7.69373">
        <ele>1920</ele>
        <time>2017-09-17T14:27:56Z</time>
      </trkpt>
      <trkpt lat="44.12039" lon="7.69383">
        <ele>1920</ele>
        <time>2017-09-17T14:27:57Z</time>
      </trkpt>
      <trkpt lat="44.12038" lon="7.69392">
        <ele>1920</ele>
        <time>2017-09-17T14:27:58Z</time>
      </trkpt>
      <trkpt lat="44.12039" lon="7.69402">
        <ele>1920</ele>
        <time>2017-09-17T14:27:59Z</time>
      </trkpt>
      <trkpt lat="44.12039" lon="7.69411">
        <ele>1920</ele>
        <time>2017-09-17T14:28:00Z</time>
      </trkpt>
      <trkpt lat="44.12039" lon="7.69421">
        <ele>1920</ele>
        <time>2017-09-17T14:28:01Z</time>
      </trkpt>
      <trkpt lat="44.12039" lon="7.6943">
        <ele>1920</ele>
        <time>2017-09-17T14:28:02Z</time>
      </trkpt>
      <trkpt lat="44.12039" lon="7.69439">
        <ele>1920</ele>
        <time>2017-09-17T14:28:03Z</time>
      </trkpt>
      <trkpt lat="44.12038" lon="7.69448">
        <ele>1920</ele>
        <time>2017-09-17T14:28:04Z</time>
      </trkpt>
      <trkpt lat="44.12038" lon="7.69457">
        <ele>1920</ele>
        <time>2017-09-17T14:28:05Z</time>
      </trkpt>
      <trkpt lat="44.12038" lon="7.69467">
        <ele>1920</ele>
        <time>2017-09-17T14:28:06Z</time>
      </trkpt>
      <trkpt lat="44.12037" lon="7.69476">
        <ele>1920</ele>
        <time>2017-09-17T14:28:07Z</time>
      </trkpt>
      <trkpt lat="44.12036" lon="7.69484">
        <ele>1920</ele>
        <time>2017-09-17T14:28:08Z</time>
      </trkpt>
      <trkpt lat="44.12034" lon="7.69493">
        <ele>1920</ele>
        <time>2017-09-17T14:28:09Z</time>
      </trkpt>
      <trkpt lat="44.12032" lon="7.69501">
        <ele>1920</ele>
        <time>2017-09-17T14:28:10Z</time>
      </trkpt>
      <trkpt lat="44.1203" lon="7.69509">
        <ele>1920</ele>
        <time>2017-09-17T14:28:11Z</time>
      </trkpt>
      <trkpt lat="44.12027" lon="7.69518">
        <ele>1920</ele>
        <time>2017-09-17T14:28:12Z</time>
      </trkpt>
      <trkpt lat="44.12025" lon="7.69526">
        <ele>1920</ele>
        <time>2017-09-17T14:28:13Z</time>
      </trkpt>
      <trkpt lat="44.12023" lon="7.69535">
        <ele>1921</ele>
        <time>2017-09-17T14:28:14Z</time>
      </trkpt>
      <trkpt lat="44.12021" lon="7.69544">
        <ele>1921</ele>
        <time>2017-09-17T14:28:15Z</time>
      </trkpt>
      <trkpt lat="44.1202" lon="7.69553">
        <ele>1920</ele>
        <time>2017-09-17T14:28:16Z</time>
      </trkpt>
      <trkpt lat="44.1202" lon="7.69562">
        <ele>1920</ele>
        <time>2017-09-17T14:28:17Z</time>
      </trkpt>
      <trkpt lat="44.1202" lon="7.69572">
        <ele>1920</ele>
        <time>2017-09-17T14:28:18Z</time>
      </trkpt>
      <trkpt lat="44.12019" lon="7.69582">
        <ele>1920</ele>
        <time>2017-09-17T14:28:19Z</time>
      </trkpt>
      <trkpt lat="44.12017" lon="7.69591">
        <ele>1920</ele>
        <time>2017-09-17T14:28:20Z</time>
      </trkpt>
      <trkpt lat="44.12016" lon="7.69601">
        <ele>1921</ele>
        <time>2017-09-17T14:28:21Z</time>
      </trkpt>
      <trkpt lat="44.12014" lon="7.6961">
        <ele>1920</ele>
        <time>2017-09-17T14:28:22Z</time>
      </trkpt>
      <trkpt lat="44.12012" lon="7.69619">
        <ele>1920</ele>
        <time>2017-09-17T14:28:23Z</time>
      </trkpt>
      <trkpt lat="44.1201" lon="7.69629">
        <ele>1920</ele>
        <time>2017-09-17T14:28:24Z</time>
      </trkpt>
      <trkpt lat="44.12009" lon="7.69639">
        <ele>1920</ele>
        <time>2017-09-17T14:28:25Z</time>
      </trkpt>
      <trkpt lat="44.12007" lon="7.69649">
        <ele>1919</ele>
        <time>2017-09-17T14:28:26Z</time>
      </trkpt>
      <trkpt lat="44.12005" lon="7.69659">
        <ele>1919</ele>
        <time>2017-09-17T14:28:27Z</time>
      </trkpt>
      <trkpt lat="44.12002" lon="7.69669">
        <ele>1919</ele>
        <time>2017-09-17T14:28:28Z</time>
      </trkpt>
      <trkpt lat="44.11998" lon="7.69678">
        <ele>1918</ele>
        <time>2017-09-17T14:28:29Z</time>
      </trkpt>
      <trkpt lat="44.11995" lon="7.69687">
        <ele>1918</ele>
        <time>2017-09-17T14:28:30Z</time>
      </trkpt>
      <trkpt lat="44.11991" lon="7.69697">
        <ele>1918</ele>
        <time>2017-09-17T14:28:31Z</time>
      </trkpt>
      <trkpt lat="44.11987" lon="7.69706">
        <ele>1917</ele>
        <time>2017-09-17T14:28:32Z</time>
      </trkpt>
      <trkpt lat="44.11984" lon="7.69716">
        <ele>1917</ele>
        <time>2017-09-17T14:28:33Z</time>
      </trkpt>
      <trkpt lat="44.1198" lon="7.69725">
        <ele>1917</ele>
        <time>2017-09-17T14:28:34Z</time>
      </trkpt>
      <trkpt lat="44.11976" lon="7.69734">
        <ele>1916</ele>
        <time>2017-09-17T14:28:35Z</time>
      </trkpt>
      <trkpt lat="44.11972" lon="7.69743">
        <ele>1916</ele>
        <time>2017-09-17T14:28:36Z</time>
      </trkpt>
      <trkpt lat="44.11968" lon="7.69752">
        <ele>1915</ele>
        <time>2017-09-17T14:28:37Z</time>
      </trkpt>
      <trkpt lat="44.11964" lon="7.6976">
        <ele>1915</ele>
        <time>2017-09-17T14:28:38Z</time>
      </trkpt>
      <trkpt lat="44.11959" lon="7.69769">
        <ele>1915</ele>
        <time>2017-09-17T14:28:39Z</time>
      </trkpt>
      <trkpt lat="44.11954" lon="7.69777">
        <ele>1915</ele>
        <time>2017-09-17T14:28:40Z</time>
      </trkpt>
      <trkpt lat="44.11949" lon="7.69785">
        <ele>1915</ele>
        <time>2017-09-17T14:28:41Z</time>
      </trkpt>
      <trkpt lat="44.11944" lon="7.69792">
        <ele>1914</ele>
        <time>2017-09-17T14:28:42Z</time>
      </trkpt>
      <trkpt lat="44.11938" lon="7.69798">
        <ele>1914</ele>
        <time>2017-09-17T14:28:43Z</time>
      </trkpt>
      <trkpt lat="44.11932" lon="7.69803">
        <ele>1914</ele>
        <time>2017-09-17T14:28:44Z</time>
      </trkpt>
      <trkpt lat="44.11925" lon="7.69807">
        <ele>1914</ele>
        <time>2017-09-17T14:28:45Z</time>
      </trkpt>
      <trkpt lat="44.11918" lon="7.69811">
        <ele>1914</ele>
        <time>2017-09-17T14:28:46Z</time>
      </trkpt>
      <trkpt lat="44.11911" lon="7.69815">
        <ele>1913</ele>
        <time>2017-09-17T14:28:47Z</time>
      </trkpt>
      <trkpt lat="44.11905" lon="7.6982">
        <ele>1913</ele>
        <time>2017-09-17T14:28:48Z</time>
      </trkpt>
      <trkpt lat="44.119" lon="7.69827">
        <ele>1913</ele>
        <time>2017-09-17T14:28:49Z</time>
      </trkpt>
      <trkpt lat="44.11896" lon="7.69835">
        <ele>1913</ele>
        <time>2017-09-17T14:28:50Z</time>
      </trkpt>
      <trkpt lat="44.11892" lon="7.69843">
        <ele>1913</ele>
        <time>2017-09-17T14:28:51Z</time>
      </trkpt>
      <trkpt lat="44.11888" lon="7.69853">
        <ele>1913</ele>
        <time>2017-09-17T14:28:52Z</time>
      </trkpt>
      <trkpt lat="44.11884" lon="7.69862">
        <ele>1913</ele>
        <time>2017-09-17T14:28:53Z</time>
      </trkpt>
      <trkpt lat="44.11881" lon="7.69872">
        <ele>1912</ele>
        <time>2017-09-17T14:28:54Z</time>
      </trkpt>
      <trkpt lat="44.11877" lon="7.69881">
        <ele>1913</ele>
        <time>2017-09-17T14:28:55Z</time>
      </trkpt>
      <trkpt lat="44.11873" lon="7.69891">
        <ele>1913</ele>
        <time>2017-09-17T14:28:56Z</time>
      </trkpt>
      <trkpt lat="44.1187" lon="7.699">
        <ele>1913</ele>
        <time>2017-09-17T14:28:57Z</time>
      </trkpt>
      <trkpt lat="44.11867" lon="7.69909">
        <ele>1913</ele>
        <time>2017-09-17T14:28:58Z</time>
      </trkpt>
      <trkpt lat="44.11864" lon="7.69919">
        <ele>1912</ele>
        <time>2017-09-17T14:28:59Z</time>
      </trkpt>
      <trkpt lat="44.11862" lon="7.69929">
        <ele>1912</ele>
        <time>2017-09-17T14:29:00Z</time>
      </trkpt>
      <trkpt lat="44.11862" lon="7.6994">
        <ele>1912</ele>
        <time>2017-09-17T14:29:01Z</time>
      </trkpt>
      <trkpt lat="44.11862" lon="7.69951">
        <ele>1912</ele>
        <time>2017-09-17T14:29:02Z</time>
      </trkpt>
      <trkpt lat="44.11862" lon="7.69962">
        <ele>1911</ele>
        <time>2017-09-17T14:29:03Z</time>
      </trkpt>
      <trkpt lat="44.11862" lon="7.69973">
        <ele>1911</ele>
        <time>2017-09-17T14:29:04Z</time>
      </trkpt>
      <trkpt lat="44.11861" lon="7.69983">
        <ele>1910</ele>
        <time>2017-09-17T14:29:05Z</time>
      </trkpt>
      <trkpt lat="44.11859" lon="7.69991">
        <ele>1910</ele>
        <time>2017-09-17T14:29:06Z</time>
      </trkpt>
      <trkpt lat="44.11855" lon="7.69997">
        <ele>1910</ele>
        <time>2017-09-17T14:29:07Z</time>
      </trkpt>
      <trkpt lat="44.1185" lon="7.70001">
        <ele>1909</ele>
        <time>2017-09-17T14:29:08Z</time>
      </trkpt>
      <trkpt lat="44.11845" lon="7.70001">
        <ele>1909</ele>
        <time>2017-09-17T14:29:09Z</time>
      </trkpt>
      <trkpt lat="44.1184" lon="7.69997">
        <ele>1909</ele>
        <time>2017-09-17T14:29:10Z</time>
      </trkpt>
      <trkpt lat="44.11837" lon="7.69991">
        <ele>1908</ele>
        <time>2017-09-17T14:29:11Z</time>
      </trkpt>
      <trkpt lat="44.11834" lon="7.69983">
        <ele>1908</ele>
        <time>2017-09-17T14:29:12Z</time>
      </trkpt>
      <trkpt lat="44.11832" lon="7.69975">
        <ele>1908</ele>
        <time>2017-09-17T14:29:13Z</time>
      </trkpt>
      <trkpt lat="44.11829" lon="7.69966">
        <ele>1907</ele>
        <time>2017-09-17T14:29:14Z</time>
      </trkpt>
      <trkpt lat="44.11827" lon="7.69958">
        <ele>1907</ele>
        <time>2017-09-17T14:29:15Z</time>
      </trkpt>
      <trkpt lat="44.11825" lon="7.69949">
        <ele>1907</ele>
        <time>2017-09-17T14:29:16Z</time>
      </trkpt>
      <trkpt lat="44.11823" lon="7.69939">
        <ele>1907</ele>
        <time>2017-09-17T14:29:17Z</time>
      </trkpt>
      <trkpt lat="44.1182" lon="7.6993">
        <ele>1906</ele>
        <time>2017-09-17T14:29:18Z</time>
      </trkpt>
      <trkpt lat="44.11818" lon="7.69921">
        <ele>1906</ele>
        <time>2017-09-17T14:29:19Z</time>
      </trkpt>
      <trkpt lat="44.11816" lon="7.69912">
        <ele>1906</ele>
        <time>2017-09-17T14:29:20Z</time>
      </trkpt>
      <trkpt lat="44.11814" lon="7.69903">
        <ele>1906</ele>
        <time>2017-09-17T14:29:21Z</time>
      </trkpt>
      <trkpt lat="44.11812" lon="7.69893">
        <ele>1906</ele>
        <time>2017-09-17T14:29:22Z</time>
      </trkpt>
      <trkpt lat="44.1181" lon="7.69884">
        <ele>1905</ele>
        <time>2017-09-17T14:29:23Z</time>
      </trkpt>
      <trkpt lat="44.11808" lon="7.69875">
        <ele>1905</ele>
        <time>2017-09-17T14:29:24Z</time>
      </trkpt>
      <trkpt lat="44.11805" lon="7.69865">
        <ele>1905</ele>
        <time>2017-09-17T14:29:25Z</time>
      </trkpt>
      <trkpt lat="44.11802" lon="7.69856">
        <ele>1905</ele>
        <time>2017-09-17T14:29:26Z</time>
      </trkpt>
      <trkpt lat="44.11799" lon="7.69847">
        <ele>1905</ele>
        <time>2017-09-17T14:29:27Z</time>
      </trkpt>
      <trkpt lat="44.11795" lon="7.69839">
        <ele>1905</ele>
        <time>2017-09-17T14:29:28Z</time>
      </trkpt>
      <trkpt lat="44.11791" lon="7.69831">
        <ele>1904</ele>
        <time>2017-09-17T14:29:29Z</time>
      </trkpt>
      <trkpt lat="44.11786" lon="7.69823">
        <ele>1904</ele>
        <time>2017-09-17T14:29:30Z</time>
      </trkpt>
      <trkpt lat="44.11781" lon="7.69816">
        <ele>1904</ele>
        <time>2017-09-17T14:29:31Z</time>
      </trkpt>
      <trkpt lat="44.11777" lon="7.69809">
        <ele>1904</ele>
        <time>2017-09-17T14:29:32Z</time>
      </trkpt>
      <trkpt lat="44.11772" lon="7.69802">
        <ele>1904</ele>
        <time>2017-09-17T14:29:33Z</time>
      </trkpt>
      <trkpt lat="44.11767" lon="7.69795">
        <ele>1904</ele>
        <time>2017-09-17T14:29:34Z</time>
      </trkpt>
      <trkpt lat="44.11762" lon="7.69789">
        <ele>1903</ele>
        <time>2017-09-17T14:29:35Z</time>
      </trkpt>
      <trkpt lat="44.11757" lon="7.69783">
        <ele>1903</ele>
        <time>2017-09-17T14:29:36Z</time>
      </trkpt>
      <trkpt lat="44.11752" lon="7.69776">
        <ele>1903</ele>
        <time>2017-09-17T14:29:37Z</time>
      </trkpt>
      <trkpt lat="44.11749" lon="7.69771">
        <ele>1903</ele>
        <time>2017-09-17T14:29:38Z</time>
      </trkpt>
      <trkpt lat="44.11745" lon="7.69767">
        <ele>1903</ele>
        <time>2017-09-17T14:29:39Z</time>
      </trkpt>
      <trkpt lat="44.11741" lon="7.69764">
        <ele>1903</ele>
        <time>2017-09-17T14:29:40Z</time>
      </trkpt>
      <trkpt lat="44.11736" lon="7.69763">
        <ele>1903</ele>
        <time>2017-09-17T14:29:41Z</time>
      </trkpt>
      <trkpt lat="44.11731" lon="7.69765">
        <ele>1903</ele>
        <time>2017-09-17T14:29:42Z</time>
      </trkpt>
      <trkpt lat="44.11726" lon="7.69769">
        <ele>1903</ele>
        <time>2017-09-17T14:29:43Z</time>
      </trkpt>
      <trkpt lat="44.11723" lon="7.69775">
        <ele>1903</ele>
        <time>2017-09-17T14:29:44Z</time>
      </trkpt>
      <trkpt lat="44.11719" lon="7.69781">
        <ele>1904</ele>
        <time>2017-09-17T14:29:45Z</time>
      </trkpt>
      <trkpt lat="44.11716" lon="7.69787">
        <ele>1903</ele>
        <time>2017-09-17T14:29:46Z</time>
      </trkpt>
      <trkpt lat="44.11713" lon="7.69792">
        <ele>1903</ele>
        <time>2017-09-17T14:29:47Z</time>
      </trkpt>
      <trkpt lat="44.11709" lon="7.69798">
        <ele>1903</ele>
        <time>2017-09-17T14:29:48Z</time>
      </trkpt>
      <trkpt lat="44.11704" lon="7.69804">
        <ele>1903</ele>
        <time>2017-09-17T14:29:49Z</time>
      </trkpt>
      <trkpt lat="44.117" lon="7.69811">
        <ele>1903</ele>
        <time>2017-09-17T14:29:50Z</time>
      </trkpt>
      <trkpt lat="44.11696" lon="7.69817">
        <ele>1902</ele>
        <time>2017-09-17T14:29:51Z</time>
      </trkpt>
      <trkpt lat="44.11693" lon="7.69824">
        <ele>1902</ele>
        <time>2017-09-17T14:29:52Z</time>
      </trkpt>
      <trkpt lat="44.11689" lon="7.6983">
        <ele>1902</ele>
        <time>2017-09-17T14:29:53Z</time>
      </trkpt>
      <trkpt lat="44.11685" lon="7.69837">
        <ele>1901</ele>
        <time>2017-09-17T14:29:54Z</time>
      </trkpt>
      <trkpt lat="44.11681" lon="7.69842">
        <ele>1901</ele>
        <time>2017-09-17T14:29:55Z</time>
      </trkpt>
      <trkpt lat="44.11676" lon="7.69846">
        <ele>1901</ele>
        <time>2017-09-17T14:29:56Z</time>
      </trkpt>
      <trkpt lat="44.1167" lon="7.69849">
        <ele>1900</ele>
        <time>2017-09-17T14:29:57Z</time>
      </trkpt>
      <trkpt lat="44.11664" lon="7.6985">
        <ele>1900</ele>
        <time>2017-09-17T14:29:58Z</time>
      </trkpt>
      <trkpt lat="44.11658" lon="7.69851">
        <ele>1900</ele>
        <time>2017-09-17T14:29:59Z</time>
      </trkpt>
      <trkpt lat="44.11653" lon="7.69854">
        <ele>1900</ele>
        <time>2017-09-17T14:30:00Z</time>
      </trkpt>
      <trkpt lat="44.11649" lon="7.69859">
        <ele>1900</ele>
        <time>2017-09-17T14:30:01Z</time>
      </trkpt>
      <trkpt lat="44.11645" lon="7.69865">
        <ele>1899</ele>
        <time>2017-09-17T14:30:02Z</time>
      </trkpt>
      <trkpt lat="44.11642" lon="7.69872">
        <ele>1899</ele>
        <time>2017-09-17T14:30:03Z</time>
      </trkpt>
      <trkpt lat="44.11639" lon="7.69879">
        <ele>1899</ele>
        <time>2017-09-17T14:30:04Z</time>
      </trkpt>
      <trkpt lat="44.11636" lon="7.69886">
        <ele>1899</ele>
        <time>2017-09-17T14:30:05Z</time>
      </trkpt>
      <trkpt lat="44.11631" lon="7.6989">
        <ele>1898</ele>
        <time>2017-09-17T14:30:06Z</time>
      </trkpt>
      <trkpt lat="44.11626" lon="7.69892">
        <ele>1898</ele>
        <time>2017-09-17T14:30:07Z</time>
      </trkpt>
      <trkpt lat="44.11621" lon="7.69891">
        <ele>1898</ele>
        <time>2017-09-17T14:30:08Z</time>
      </trkpt>
      <trkpt lat="44.11616" lon="7.69887">
        <ele>1898</ele>
        <time>2017-09-17T14:30:09Z</time>
      </trkpt>
      <trkpt lat="44.11612" lon="7.69881">
        <ele>1897</ele>
        <time>2017-09-17T14:30:10Z</time>
      </trkpt>
      <trkpt lat="44.11608" lon="7.69875">
        <ele>1897</ele>
        <time>2017-09-17T14:30:11Z</time>
      </trkpt>
      <trkpt lat="44.11604" lon="7.69868">
        <ele>1897</ele>
        <time>2017-09-17T14:30:12Z</time>
      </trkpt>
      <trkpt lat="44.11601" lon="7.6986">
        <ele>1897</ele>
        <time>2017-09-17T14:30:13Z</time>
      </trkpt>
      <trkpt lat="44.11599" lon="7.69852">
        <ele>1897</ele>
        <time>2017-09-17T14:30:14Z</time>
      </trkpt>
      <trkpt lat="44.11596" lon="7.69844">
        <ele>1896</ele>
        <time>2017-09-17T14:30:15Z</time>
      </trkpt>
      <trkpt lat="44.11594" lon="7.69836">
        <ele>1896</ele>
        <time>2017-09-17T14:30:16Z</time>
      </trkpt>
      <trkpt lat="44.1159" lon="7.6983">
        <ele>1896</ele>
        <time>2017-09-17T14:30:17Z</time>
      </trkpt>
      <trkpt lat="44.11585" lon="7.69825">
        <ele>1896</ele>
        <time>2017-09-17T14:30:18Z</time>
      </trkpt>
      <trkpt lat="44.11579" lon="7.69823">
        <ele>1896</ele>
        <time>2017-09-17T14:30:19Z</time>
      </trkpt>
      <trkpt lat="44.11572" lon="7.69823">
        <ele>1896</ele>
        <time>2017-09-17T14:30:20Z</time>
      </trkpt>
      <trkpt lat="44.11567" lon="7.69826">
        <ele>1896</ele>
        <time>2017-09-17T14:30:21Z</time>
      </trkpt>
      <trkpt lat="44.11561" lon="7.69829">
        <ele>1896</ele>
        <time>2017-09-17T14:30:22Z</time>
      </trkpt>
      <trkpt lat="44.11556" lon="7.69833">
        <ele>1896</ele>
        <time>2017-09-17T14:30:23Z</time>
      </trkpt>
      <trkpt lat="44.11551" lon="7.69837">
        <ele>1896</ele>
        <time>2017-09-17T14:30:24Z</time>
      </trkpt>
      <trkpt lat="44.11546" lon="7.69842">
        <ele>1896</ele>
        <time>2017-09-17T14:30:25Z</time>
      </trkpt>
      <trkpt lat="44.11542" lon="7.69847">
        <ele>1896</ele>
        <time>2017-09-17T14:30:26Z</time>
      </trkpt>
      <trkpt lat="44.11538" lon="7.69852">
        <ele>1896</ele>
        <time>2017-09-17T14:30:27Z</time>
      </trkpt>
      <trkpt lat="44.11534" lon="7.69858">
        <ele>1896</ele>
        <time>2017-09-17T14:30:28Z</time>
      </trkpt>
      <trkpt lat="44.11531" lon="7.69865">
        <ele>1897</ele>
        <time>2017-09-17T14:30:29Z</time>
      </trkpt>
      <trkpt lat="44.11528" lon="7.69871">
        <ele>1897</ele>
        <time>2017-09-17T14:30:30Z</time>
      </trkpt>
      <trkpt lat="44.11525" lon="7.69877">
        <ele>1897</ele>
        <time>2017-09-17T14:30:31Z</time>
      </trkpt>
      <trkpt lat="44.11523" lon="7.69883">
        <ele>1897</ele>
        <time>2017-09-17T14:30:32Z</time>
      </trkpt>
      <trkpt lat="44.11521" lon="7.69889">
        <ele>1897</ele>
        <time>2017-09-17T14:30:33Z</time>
      </trkpt>
      <trkpt lat="44.11519" lon="7.69895">
        <ele>1898</ele>
        <time>2017-09-17T14:30:34Z</time>
      </trkpt>
      <trkpt lat="44.11517" lon="7.69901">
        <ele>1898</ele>
        <time>2017-09-17T14:30:35Z</time>
      </trkpt>
      <trkpt lat="44.11515" lon="7.69908">
        <ele>1898</ele>
        <time>2017-09-17T14:30:36Z</time>
      </trkpt>
      <trkpt lat="44.11512" lon="7.69914">
        <ele>1898</ele>
        <time>2017-09-17T14:30:37Z</time>
      </trkpt>
      <trkpt lat="44.1151" lon="7.69921">
        <ele>1899</ele>
        <time>2017-09-17T14:30:38Z</time>
      </trkpt>
      <trkpt lat="44.11507" lon="7.69927">
        <ele>1899</ele>
        <time>2017-09-17T14:30:39Z</time>
      </trkpt>
      <trkpt lat="44.11504" lon="7.69934">
        <ele>1899</ele>
        <time>2017-09-17T14:30:40Z</time>
      </trkpt>
      <trkpt lat="44.11502" lon="7.6994">
        <ele>1900</ele>
        <time>2017-09-17T14:30:41Z</time>
      </trkpt>
      <trkpt lat="44.115" lon="7.69946">
        <ele>1900</ele>
        <time>2017-09-17T14:30:42Z</time>
      </trkpt>
      <trkpt lat="44.11497" lon="7.69952">
        <ele>1900</ele>
        <time>2017-09-17T14:30:43Z</time>
      </trkpt>
      <trkpt lat="44.11494" lon="7.69959">
        <ele>1901</ele>
        <time>2017-09-17T14:30:44Z</time>
      </trkpt>
      <trkpt lat="44.11492" lon="7.69966">
        <ele>1901</ele>
        <time>2017-09-17T14:30:45Z</time>
      </trkpt>
      <trkpt lat="44.11489" lon="7.69973">
        <ele>1901</ele>
        <time>2017-09-17T14:30:46Z</time>
      </trkpt>
      <trkpt lat="44.11487" lon="7.6998">
        <ele>1901</ele>
        <time>2017-09-17T14:30:47Z</time>
      </trkpt>
      <trkpt lat="44.11483" lon="7.69986">
        <ele>1901</ele>
        <time>2017-09-17T14:30:48Z</time>
      </trkpt>
      <trkpt lat="44.1148" lon="7.69991">
        <ele>1902</ele>
        <time>2017-09-17T14:30:49Z</time>
      </trkpt>
      <trkpt lat="44.11476" lon="7.69996">
        <ele>1902</ele>
        <time>2017-09-17T14:30:50Z</time>
      </trkpt>
      <trkpt lat="44.11471" lon="7.7">
        <ele>1902</ele>
        <time>2017-09-17T14:30:51Z</time>
      </trkpt>
      <trkpt lat="44.11467" lon="7.70003">
        <ele>1902</ele>
        <time>2017-09-17T14:30:52Z</time>
      </trkpt>
      <trkpt lat="44.11462" lon="7.70008">
        <ele>1902</ele>
        <time>2017-09-17T14:30:53Z</time>
      </trkpt>
      <trkpt lat="44.11458" lon="7.70012">
        <ele>1902</ele>
        <time>2017-09-17T14:30:54Z</time>
      </trkpt>
      <trkpt lat="44.11454" lon="7.70017">
        <ele>1902</ele>
        <time>2017-09-17T14:30:55Z</time>
      </trkpt>
      <trkpt lat="44.11451" lon="7.70023">
        <ele>1902</ele>
        <time>2017-09-17T14:30:56Z</time>
      </trkpt>
      <trkpt lat="44.1145" lon="7.70029">
        <ele>1903</ele>
        <time>2017-09-17T14:30:57Z</time>
      </trkpt>
      <trkpt lat="44.11449" lon="7.70036">
        <ele>1903</ele>
        <time>2017-09-17T14:30:58Z</time>
      </trkpt>
      <trkpt lat="44.1145" lon="7.70044">
        <ele>1903</ele>
        <time>2017-09-17T14:30:59Z</time>
      </trkpt>
      <trkpt lat="44.11451" lon="7.70051">
        <ele>1903</ele>
        <time>2017-09-17T14:31:00Z</time>
      </trkpt>
      <trkpt lat="44.11452" lon="7.70059">
        <ele>1903</ele>
        <time>2017-09-17T14:31:01Z</time>
      </trkpt>
      <trkpt lat="44.11453" lon="7.70066">
        <ele>1903</ele>
        <time>2017-09-17T14:31:02Z</time>
      </trkpt>
      <trkpt lat="44.11454" lon="7.70073">
        <ele>1903</ele>
        <time>2017-09-17T14:31:03Z</time>
      </trkpt>
      <trkpt lat="44.11455" lon="7.70081">
        <ele>1903</ele>
        <time>2017-09-17T14:31:04Z</time>
      </trkpt>
      <trkpt lat="44.11455" lon="7.70088">
        <ele>1903</ele>
        <time>2017-09-17T14:31:05Z</time>
      </trkpt>
      <trkpt lat="44.11456" lon="7.70096">
        <ele>1904</ele>
        <time>2017-09-17T14:31:06Z</time>
      </trkpt>
      <trkpt lat="44.11457" lon="7.70103">
        <ele>1904</ele>
        <time>2017-09-17T14:31:07Z</time>
      </trkpt>
      <trkpt lat="44.11459" lon="7.7011">
        <ele>1904</ele>
        <time>2017-09-17T14:31:08Z</time>
      </trkpt>
      <trkpt lat="44.1146" lon="7.70118">
        <ele>1904</ele>
        <time>2017-09-17T14:31:09Z</time>
      </trkpt>
      <trkpt lat="44.1146" lon="7.70126">
        <ele>1903</ele>
        <time>2017-09-17T14:31:10Z</time>
      </trkpt>
      <trkpt lat="44.11459" lon="7.70133">
        <ele>1903</ele>
        <time>2017-09-17T14:31:11Z</time>
      </trkpt>
      <trkpt lat="44.11458" lon="7.7014">
        <ele>1904</ele>
        <time>2017-09-17T14:31:12Z</time>
      </trkpt>
      <trkpt lat="44.11456" lon="7.70147">
        <ele>1904</ele>
        <time>2017-09-17T14:31:13Z</time>
      </trkpt>
      <trkpt lat="44.11453" lon="7.70152">
        <ele>1904</ele>
        <time>2017-09-17T14:31:14Z</time>
      </trkpt>
      <trkpt lat="44.11449" lon="7.70157">
        <ele>1904</ele>
        <time>2017-09-17T14:31:15Z</time>
      </trkpt>
      <trkpt lat="44.11444" lon="7.7016">
        <ele>1904</ele>
        <time>2017-09-17T14:31:16Z</time>
      </trkpt>
      <trkpt lat="44.11439" lon="7.70162">
        <ele>1904</ele>
        <time>2017-09-17T14:31:17Z</time>
      </trkpt>
      <trkpt lat="44.11434" lon="7.70165">
        <ele>1904</ele>
        <time>2017-09-17T14:31:18Z</time>
      </trkpt>
      <trkpt lat="44.11429" lon="7.70169">
        <ele>1903</ele>
        <time>2017-09-17T14:31:19Z</time>
      </trkpt>
      <trkpt lat="44.11425" lon="7.70174">
        <ele>1903</ele>
        <time>2017-09-17T14:31:20Z</time>
      </trkpt>
      <trkpt lat="44.11421" lon="7.70179">
        <ele>1904</ele>
        <time>2017-09-17T14:31:21Z</time>
      </trkpt>
      <trkpt lat="44.11417" lon="7.70184">
        <ele>1904</ele>
        <time>2017-09-17T14:31:22Z</time>
      </trkpt>
      <trkpt lat="44.11413" lon="7.7019">
        <ele>1904</ele>
        <time>2017-09-17T14:31:23Z</time>
      </trkpt>
      <trkpt lat="44.11409" lon="7.70196">
        <ele>1904</ele>
        <time>2017-09-17T14:31:24Z</time>
      </trkpt>
      <trkpt lat="44.11406" lon="7.70202">
        <ele>1904</ele>
        <time>2017-09-17T14:31:25Z</time>
      </trkpt>
      <trkpt lat="44.11402" lon="7.70208">
        <ele>1904</ele>
        <time>2017-09-17T14:31:26Z</time>
      </trkpt>
      <trkpt lat="44.11399" lon="7.70214">
        <ele>1904</ele>
        <time>2017-09-17T14:31:27Z</time>
      </trkpt>
      <trkpt lat="44.11395" lon="7.70219">
        <ele>1904</ele>
        <time>2017-09-17T14:31:28Z</time>
      </trkpt>
      <trkpt lat="44.11392" lon="7.70226">
        <ele>1904</ele>
        <time>2017-09-17T14:31:29Z</time>
      </trkpt>
      <trkpt lat="44.11389" lon="7.70232">
        <ele>1904</ele>
        <time>2017-09-17T14:31:30Z</time>
      </trkpt>
      <trkpt lat="44.11387" lon="7.70239">
        <ele>1904</ele>
        <time>2017-09-17T14:31:31Z</time>
      </trkpt>
      <trkpt lat="44.11384" lon="7.70246">
        <ele>1904</ele>
        <time>2017-09-17T14:31:32Z</time>
      </trkpt>
      <trkpt lat="44.11382" lon="7.70252">
        <ele>1904</ele>
        <time>2017-09-17T14:31:33Z</time>
      </trkpt>
      <trkpt lat="44.1138" lon="7.70259">
        <ele>1904</ele>
        <time>2017-09-17T14:31:34Z</time>
      </trkpt>
      <trkpt lat="44.11378" lon="7.70266">
        <ele>1904</ele>
        <time>2017-09-17T14:31:35Z</time>
      </trkpt>
      <trkpt lat="44.11376" lon="7.70273">
        <ele>1904</ele>
        <time>2017-09-17T14:31:36Z</time>
      </trkpt>
      <trkpt lat="44.11373" lon="7.7028">
        <ele>1904</ele>
        <time>2017-09-17T14:31:37Z</time>
      </trkpt>
      <trkpt lat="44.1137" lon="7.70286">
        <ele>1904</ele>
        <time>2017-09-17T14:31:38Z</time>
      </trkpt>
      <trkpt lat="44.11367" lon="7.70293">
        <ele>1904</ele>
        <time>2017-09-17T14:31:39Z</time>
      </trkpt>
      <trkpt lat="44.11364" lon="7.703">
        <ele>1904</ele>
        <time>2017-09-17T14:31:40Z</time>
      </trkpt>
      <trkpt lat="44.11361" lon="7.70307">
        <ele>1904</ele>
        <time>2017-09-17T14:31:41Z</time>
      </trkpt>
      <trkpt lat="44.11358" lon="7.70314">
        <ele>1904</ele>
        <time>2017-09-17T14:31:42Z</time>
      </trkpt>
      <trkpt lat="44.11355" lon="7.70321">
        <ele>1904</ele>
        <time>2017-09-17T14:31:43Z</time>
      </trkpt>
      <trkpt lat="44.11353" lon="7.70328">
        <ele>1904</ele>
        <time>2017-09-17T14:31:44Z</time>
      </trkpt>
      <trkpt lat="44.1135" lon="7.70335">
        <ele>1904</ele>
        <time>2017-09-17T14:31:45Z</time>
      </trkpt>
      <trkpt lat="44.11348" lon="7.70342">
        <ele>1904</ele>
        <time>2017-09-17T14:31:46Z</time>
      </trkpt>
      <trkpt lat="44.11345" lon="7.70349">
        <ele>1904</ele>
        <time>2017-09-17T14:31:47Z</time>
      </trkpt>
      <trkpt lat="44.11342" lon="7.70356">
        <ele>1904</ele>
        <time>2017-09-17T14:31:48Z</time>
      </trkpt>
      <trkpt lat="44.11339" lon="7.70363">
        <ele>1904</ele>
        <time>2017-09-17T14:31:49Z</time>
      </trkpt>
      <trkpt lat="44.11336" lon="7.7037">
        <ele>1904</ele>
        <time>2017-09-17T14:31:50Z</time>
      </trkpt>
      <trkpt lat="44.11333" lon="7.70376">
        <ele>1904</ele>
        <time>2017-09-17T14:31:51Z</time>
      </trkpt>
      <trkpt lat="44.1133" lon="7.70383">
        <ele>1904</ele>
        <time>2017-09-17T14:31:52Z</time>
      </trkpt>
      <trkpt lat="44.11327" lon="7.70389">
        <ele>1904</ele>
        <time>2017-09-17T14:31:53Z</time>
      </trkpt>
      <trkpt lat="44.11325" lon="7.70396">
        <ele>1904</ele>
        <time>2017-09-17T14:31:54Z</time>
      </trkpt>
      <trkpt lat="44.11322" lon="7.70403">
        <ele>1904</ele>
        <time>2017-09-17T14:31:55Z</time>
      </trkpt>
      <trkpt lat="44.11318" lon="7.70409">
        <ele>1904</ele>
        <time>2017-09-17T14:31:56Z</time>
      </trkpt>
      <trkpt lat="44.11316" lon="7.70416">
        <ele>1904</ele>
        <time>2017-09-17T14:31:57Z</time>
      </trkpt>
      <trkpt lat="44.11313" lon="7.70422">
        <ele>1904</ele>
        <time>2017-09-17T14:31:58Z</time>
      </trkpt>
      <trkpt lat="44.1131" lon="7.70429">
        <ele>1904</ele>
        <time>2017-09-17T14:31:59Z</time>
      </trkpt>
      <trkpt lat="44.11306" lon="7.70435">
        <ele>1905</ele>
        <time>2017-09-17T14:32:00Z</time>
      </trkpt>
      <trkpt lat="44.11303" lon="7.70441">
        <ele>1905</ele>
        <time>2017-09-17T14:32:01Z</time>
      </trkpt>
      <trkpt lat="44.113" lon="7.70447">
        <ele>1905</ele>
        <time>2017-09-17T14:32:02Z</time>
      </trkpt>
      <trkpt lat="44.11296" lon="7.70453">
        <ele>1905</ele>
        <time>2017-09-17T14:32:03Z</time>
      </trkpt>
      <trkpt lat="44.11293" lon="7.70459">
        <ele>1905</ele>
        <time>2017-09-17T14:32:04Z</time>
      </trkpt>
      <trkpt lat="44.1129" lon="7.70464">
        <ele>1905</ele>
        <time>2017-09-17T14:32:05Z</time>
      </trkpt>
      <trkpt lat="44.11287" lon="7.70471">
        <ele>1906</ele>
        <time>2017-09-17T14:32:06Z</time>
      </trkpt>
      <trkpt lat="44.11284" lon="7.70476">
        <ele>1906</ele>
        <time>2017-09-17T14:32:07Z</time>
      </trkpt>
      <trkpt lat="44.11281" lon="7.70482">
        <ele>1906</ele>
        <time>2017-09-17T14:32:08Z</time>
      </trkpt>
      <trkpt lat="44.11278" lon="7.70488">
        <ele>1907</ele>
        <time>2017-09-17T14:32:09Z</time>
      </trkpt>
      <trkpt lat="44.11275" lon="7.70493">
        <ele>1907</ele>
        <time>2017-09-17T14:32:10Z</time>
      </trkpt>
      <trkpt lat="44.11271" lon="7.70498">
        <ele>1907</ele>
        <time>2017-09-17T14:32:11Z</time>
      </trkpt>
      <trkpt lat="44.11267" lon="7.70502">
        <ele>1907</ele>
        <time>2017-09-17T14:32:12Z</time>
      </trkpt>
      <trkpt lat="44.11262" lon="7.70505">
        <ele>1907</ele>
        <time>2017-09-17T14:32:13Z</time>
      </trkpt>
      <trkpt lat="44.11256" lon="7.70507">
        <ele>1907</ele>
        <time>2017-09-17T14:32:14Z</time>
      </trkpt>
      <trkpt lat="44.11251" lon="7.70507">
        <ele>1907</ele>
        <time>2017-09-17T14:32:15Z</time>
      </trkpt>
      <trkpt lat="44.11245" lon="7.70507">
        <ele>1907</ele>
        <time>2017-09-17T14:32:16Z</time>
      </trkpt>
      <trkpt lat="44.1124" lon="7.70505">
        <ele>1907</ele>
        <time>2017-09-17T14:32:17Z</time>
      </trkpt>
      <trkpt lat="44.11235" lon="7.70501">
        <ele>1907</ele>
        <time>2017-09-17T14:32:18Z</time>
      </trkpt>
      <trkpt lat="44.11231" lon="7.70497">
        <ele>1907</ele>
        <time>2017-09-17T14:32:19Z</time>
      </trkpt>
      <trkpt lat="44.11227" lon="7.70491">
        <ele>1906</ele>
        <time>2017-09-17T14:32:20Z</time>
      </trkpt>
      <trkpt lat="44.11223" lon="7.70486">
        <ele>1906</ele>
        <time>2017-09-17T14:32:21Z</time>
      </trkpt>
      <trkpt lat="44.11219" lon="7.7048">
        <ele>1906</ele>
        <time>2017-09-17T14:32:22Z</time>
      </trkpt>
      <trkpt lat="44.11216" lon="7.70473">
        <ele>1906</ele>
        <time>2017-09-17T14:32:23Z</time>
      </trkpt>
      <trkpt lat="44.11213" lon="7.70465">
        <ele>1906</ele>
        <time>2017-09-17T14:32:24Z</time>
      </trkpt>
      <trkpt lat="44.1121" lon="7.70457">
        <ele>1906</ele>
        <time>2017-09-17T14:32:25Z</time>
      </trkpt>
      <trkpt lat="44.11207" lon="7.70449">
        <ele>1906</ele>
        <time>2017-09-17T14:32:26Z</time>
      </trkpt>
      <trkpt lat="44.11204" lon="7.70441">
        <ele>1906</ele>
        <time>2017-09-17T14:32:27Z</time>
      </trkpt>
      <trkpt lat="44.11201" lon="7.70433">
        <ele>1906</ele>
        <time>2017-09-17T14:32:28Z</time>
      </trkpt>
      <trkpt lat="44.11197" lon="7.70427">
        <ele>1906</ele>
        <time>2017-09-17T14:32:29Z</time>
      </trkpt>
      <trkpt lat="44.11192" lon="7.70422">
        <ele>1905</ele>
        <time>2017-09-17T14:32:30Z</time>
      </trkpt>
      <trkpt lat="44.11186" lon="7.70417">
        <ele>1905</ele>
        <time>2017-09-17T14:32:31Z</time>
      </trkpt>
      <trkpt lat="44.11181" lon="7.70413">
        <ele>1905</ele>
        <time>2017-09-17T14:32:32Z</time>
      </trkpt>
      <trkpt lat="44.11175" lon="7.70409">
        <ele>1905</ele>
        <time>2017-09-17T14:32:33Z</time>
      </trkpt>
      <trkpt lat="44.11169" lon="7.70405">
        <ele>1905</ele>
        <time>2017-09-17T14:32:34Z</time>
      </trkpt>
      <trkpt lat="44.11162" lon="7.70403">
        <ele>1905</ele>
        <time>2017-09-17T14:32:35Z</time>
      </trkpt>
      <trkpt lat="44.11156" lon="7.70402">
        <ele>1905</ele>
        <time>2017-09-17T14:32:36Z</time>
      </trkpt>
      <trkpt lat="44.1115" lon="7.70401">
        <ele>1905</ele>
        <time>2017-09-17T14:32:37Z</time>
      </trkpt>
      <trkpt lat="44.11143" lon="7.70401">
        <ele>1905</ele>
        <time>2017-09-17T14:32:38Z</time>
      </trkpt>
      <trkpt lat="44.11137" lon="7.704">
        <ele>1905</ele>
        <time>2017-09-17T14:32:39Z</time>
      </trkpt>
      <trkpt lat="44.1113" lon="7.70399">
        <ele>1905</ele>
        <time>2017-09-17T14:32:40Z</time>
      </trkpt>
      <trkpt lat="44.11123" lon="7.70398">
        <ele>1905</ele>
        <time>2017-09-17T14:32:41Z</time>
      </trkpt>
      <trkpt lat="44.11117" lon="7.70396">
        <ele>1905</ele>
        <time>2017-09-17T14:32:42Z</time>
      </trkpt>
      <trkpt lat="44.1111" lon="7.70393">
        <ele>1904</ele>
        <time>2017-09-17T14:32:43Z</time>
      </trkpt>
      <trkpt lat="44.11104" lon="7.7039">
        <ele>1904</ele>
        <time>2017-09-17T14:32:44Z</time>
      </trkpt>
      <trkpt lat="44.11098" lon="7.70385">
        <ele>1904</ele>
        <time>2017-09-17T14:32:45Z</time>
      </trkpt>
      <trkpt lat="44.11092" lon="7.70381">
        <ele>1904</ele>
        <time>2017-09-17T14:32:46Z</time>
      </trkpt>
      <trkpt lat="44.11085" lon="7.70377">
        <ele>1904</ele>
        <time>2017-09-17T14:32:47Z</time>
      </trkpt>
      <trkpt lat="44.11079" lon="7.70374">
        <ele>1904</ele>
        <time>2017-09-17T14:32:48Z</time>
      </trkpt>
      <trkpt lat="44.11072" lon="7.70372">
        <ele>1904</ele>
        <time>2017-09-17T14:32:49Z</time>
      </trkpt>
      <trkpt lat="44.11065" lon="7.7037">
        <ele>1903</ele>
        <time>2017-09-17T14:32:50Z</time>
      </trkpt>
      <trkpt lat="44.11059" lon="7.70367">
        <ele>1903</ele>
        <time>2017-09-17T14:32:51Z</time>
      </trkpt>
      <trkpt lat="44.11052" lon="7.70365">
        <ele>1903</ele>
        <time>2017-09-17T14:32:52Z</time>
      </trkpt>
      <trkpt lat="44.11046" lon="7.70363">
        <ele>1903</ele>
        <time>2017-09-17T14:32:53Z</time>
      </trkpt>
      <trkpt lat="44.11039" lon="7.70361">
        <ele>1903</ele>
        <time>2017-09-17T14:32:54Z</time>
      </trkpt>
      <trkpt lat="44.11034" lon="7.70358">
        <ele>1903</ele>
        <time>2017-09-17T14:32:55Z</time>
      </trkpt>
      <trkpt lat="44.11028" lon="7.70356">
        <ele>1903</ele>
        <time>2017-09-17T14:32:56Z</time>
      </trkpt>
      <trkpt lat="44.11023" lon="7.70355">
        <ele>1902</ele>
        <time>2017-09-17T14:32:57Z</time>
      </trkpt>
      <trkpt lat="44.11018" lon="7.70353">
        <ele>1902</ele>
        <time>2017-09-17T14:32:58Z</time>
      </trkpt>
      <trkpt lat="44.11014" lon="7.70351">
        <ele>1902</ele>
        <time>2017-09-17T14:32:59Z</time>
      </trkpt>
      <trkpt lat="44.11011" lon="7.7035">
        <ele>1902</ele>
        <time>2017-09-17T14:33:00Z</time>
      </trkpt>
      <trkpt lat="44.11009" lon="7.70349">
        <ele>1902</ele>
        <time>2017-09-17T14:33:01Z</time>
      </trkpt>
      <trkpt lat="44.11006" lon="7.70347">
        <ele>1902</ele>
        <time>2017-09-17T14:33:02Z</time>
      </trkpt>
      <trkpt lat="44.11002" lon="7.70345">
        <ele>1902</ele>
        <time>2017-09-17T14:33:03Z</time>
      </trkpt>
      <trkpt lat="44.10999" lon="7.70342">
        <ele>1901</ele>
        <time>2017-09-17T14:33:04Z</time>
      </trkpt>
      <trkpt lat="44.10996" lon="7.7034">
        <ele>1901</ele>
        <time>2017-09-17T14:33:05Z</time>
      </trkpt>
      <trkpt lat="44.10992" lon="7.70338">
        <ele>1901</ele>
        <time>2017-09-17T14:33:06Z</time>
      </trkpt>
      <trkpt lat="44.10987" lon="7.70338">
        <ele>1901</ele>
        <time>2017-09-17T14:33:07Z</time>
      </trkpt>
      <trkpt lat="44.10983" lon="7.70337">
        <ele>1901</ele>
        <time>2017-09-17T14:33:08Z</time>
      </trkpt>
      <trkpt lat="44.10978" lon="7.70336">
        <ele>1901</ele>
        <time>2017-09-17T14:33:09Z</time>
      </trkpt>
      <trkpt lat="44.10973" lon="7.70336">
        <ele>1901</ele>
        <time>2017-09-17T14:33:10Z</time>
      </trkpt>
      <trkpt lat="44.10968" lon="7.70335">
        <ele>1901</ele>
        <time>2017-09-17T14:33:11Z</time>
      </trkpt>
      <trkpt lat="44.10963" lon="7.70335">
        <ele>1900</ele>
        <time>2017-09-17T14:33:12Z</time>
      </trkpt>
      <trkpt lat="44.10959" lon="7.70336">
        <ele>1900</ele>
        <time>2017-09-17T14:33:13Z</time>
      </trkpt>
      <trkpt lat="44.10954" lon="7.70336">
        <ele>1900</ele>
        <time>2017-09-17T14:33:14Z</time>
      </trkpt>
      <trkpt lat="44.10949" lon="7.70337">
        <ele>1900</ele>
        <time>2017-09-17T14:33:15Z</time>
      </trkpt>
      <trkpt lat="44.10944" lon="7.70338">
        <ele>1900</ele>
        <time>2017-09-17T14:33:16Z</time>
      </trkpt>
      <trkpt lat="44.10939" lon="7.70342">
        <ele>1900</ele>
        <time>2017-09-17T14:33:17Z</time>
      </trkpt>
      <trkpt lat="44.10934" lon="7.70346">
        <ele>1900</ele>
        <time>2017-09-17T14:33:18Z</time>
      </trkpt>
      <trkpt lat="44.1093" lon="7.70351">
        <ele>1899</ele>
        <time>2017-09-17T14:33:19Z</time>
      </trkpt>
      <trkpt lat="44.10927" lon="7.70357">
        <ele>1899</ele>
        <time>2017-09-17T14:33:20Z</time>
      </trkpt>
      <trkpt lat="44.10923" lon="7.70363">
        <ele>1899</ele>
        <time>2017-09-17T14:33:21Z</time>
      </trkpt>
      <trkpt lat="44.1092" lon="7.70368">
        <ele>1899</ele>
        <time>2017-09-17T14:33:22Z</time>
      </trkpt>
      <trkpt lat="44.10916" lon="7.70373">
        <ele>1899</ele>
        <time>2017-09-17T14:33:23Z</time>
      </trkpt>
      <trkpt lat="44.10912" lon="7.70378">
        <ele>1899</ele>
        <time>2017-09-17T14:33:24Z</time>
      </trkpt>
      <trkpt lat="44.10908" lon="7.70382">
        <ele>1900</ele>
        <time>2017-09-17T14:33:25Z</time>
      </trkpt>
      <trkpt lat="44.10903" lon="7.70386">
        <ele>1900</ele>
        <time>2017-09-17T14:33:26Z</time>
      </trkpt>
      <trkpt lat="44.10898" lon="7.70387">
        <ele>1900</ele>
        <time>2017-09-17T14:33:27Z</time>
      </trkpt>
      <trkpt lat="44.10893" lon="7.70387">
        <ele>1900</ele>
        <time>2017-09-17T14:33:28Z</time>
      </trkpt>
      <trkpt lat="44.10887" lon="7.70387">
        <ele>1900</ele>
        <time>2017-09-17T14:33:29Z</time>
      </trkpt>
      <trkpt lat="44.10882" lon="7.70387">
        <ele>1900</ele>
        <time>2017-09-17T14:33:30Z</time>
      </trkpt>
      <trkpt lat="44.10876" lon="7.70388">
        <ele>1900</ele>
        <time>2017-09-17T14:33:31Z</time>
      </trkpt>
      <trkpt lat="44.10871" lon="7.70391">
        <ele>1900</ele>
        <time>2017-09-17T14:33:32Z</time>
      </trkpt>
      <trkpt lat="44.10866" lon="7.70394">
        <ele>1900</ele>
        <time>2017-09-17T14:33:33Z</time>
      </trkpt>
      <trkpt lat="44.10861" lon="7.70396">
        <ele>1901</ele>
        <time>2017-09-17T14:33:34Z</time>
      </trkpt>
      <trkpt lat="44.10856" lon="7.70399">
        <ele>1901</ele>
        <time>2017-09-17T14:33:35Z</time>
      </trkpt>
      <trkpt lat="44.10851" lon="7.70401">
        <ele>1901</ele>
        <time>2017-09-17T14:33:36Z</time>
      </trkpt>
      <trkpt lat="44.10846" lon="7.70403">
        <ele>1901</ele>
        <time>2017-09-17T14:33:37Z</time>
      </trkpt>
      <trkpt lat="44.10841" lon="7.70406">
        <ele>1901</ele>
        <time>2017-09-17T14:33:38Z</time>
      </trkpt>
      <trkpt lat="44.10836" lon="7.70408">
        <ele>1901</ele>
        <time>2017-09-17T14:33:39Z</time>
      </trkpt>
      <trkpt lat="44.10831" lon="7.70411">
        <ele>1901</ele>
        <time>2017-09-17T14:33:40Z</time>
      </trkpt>
      <trkpt lat="44.10827" lon="7.70413">
        <ele>1901</ele>
        <time>2017-09-17T14:33:41Z</time>
      </trkpt>
      <trkpt lat="44.10822" lon="7.70417">
        <ele>1901</ele>
        <time>2017-09-17T14:33:42Z</time>
      </trkpt>
      <trkpt lat="44.10819" lon="7.70421">
        <ele>1901</ele>
        <time>2017-09-17T14:33:43Z</time>
      </trkpt>
      <trkpt lat="44.10815" lon="7.70425">
        <ele>1901</ele>
        <time>2017-09-17T14:33:44Z</time>
      </trkpt>
      <trkpt lat="44.10812" lon="7.7043">
        <ele>1901</ele>
        <time>2017-09-17T14:33:45Z</time>
      </trkpt>
      <trkpt lat="44.10811" lon="7.70437">
        <ele>1900</ele>
        <time>2017-09-17T14:33:46Z</time>
      </trkpt>
      <trkpt lat="44.10811" lon="7.70443">
        <ele>1900</ele>
        <time>2017-09-17T14:33:47Z</time>
      </trkpt>
      <trkpt lat="44.10811" lon="7.7045">
        <ele>1900</ele>
        <time>2017-09-17T14:33:48Z</time>
      </trkpt>
      <trkpt lat="44.10811" lon="7.70458">
        <ele>1900</ele>
        <time>2017-09-17T14:33:49Z</time>
      </trkpt>
      <trkpt lat="44.10812" lon="7.70465">
        <ele>1900</ele>
        <time>2017-09-17T14:33:50Z</time>
      </trkpt>
      <trkpt lat="44.10812" lon="7.70472">
        <ele>1900</ele>
        <time>2017-09-17T14:33:51Z</time>
      </trkpt>
      <trkpt lat="44.10812" lon="7.7048">
        <ele>1901</ele>
        <time>2017-09-17T14:33:52Z</time>
      </trkpt>
      <trkpt lat="44.10812" lon="7.70487">
        <ele>1901</ele>
        <time>2017-09-17T14:33:53Z</time>
      </trkpt>
      <trkpt lat="44.1081" lon="7.70494">
        <ele>1901</ele>
        <time>2017-09-17T14:33:54Z</time>
      </trkpt>
      <trkpt lat="44.10808" lon="7.70501">
        <ele>1901</ele>
        <time>2017-09-17T14:33:55Z</time>
      </trkpt>
      <trkpt lat="44.10806" lon="7.70508">
        <ele>1901</ele>
        <time>2017-09-17T14:33:56Z</time>
      </trkpt>
      <trkpt lat="44.10804" lon="7.70514">
        <ele>1901</ele>
        <time>2017-09-17T14:33:57Z</time>
      </trkpt>
      <trkpt lat="44.10802" lon="7.70521">
        <ele>1901</ele>
        <time>2017-09-17T14:33:58Z</time>
      </trkpt>
      <trkpt lat="44.108" lon="7.70527">
        <ele>1901</ele>
        <time>2017-09-17T14:33:59Z</time>
      </trkpt>
      <trkpt lat="44.10798" lon="7.70534">
        <ele>1902</ele>
        <time>2017-09-17T14:34:00Z</time>
      </trkpt>
      <trkpt lat="44.10797" lon="7.70541">
        <ele>1902</ele>
        <time>2017-09-17T14:34:01Z</time>
      </trkpt>
      <trkpt lat="44.10795" lon="7.70547">
        <ele>1902</ele>
        <time>2017-09-17T14:34:02Z</time>
      </trkpt>
      <trkpt lat="44.10792" lon="7.70553">
        <ele>1902</ele>
        <time>2017-09-17T14:34:03Z</time>
      </trkpt>
      <trkpt lat="44.10789" lon="7.7056">
        <ele>1902</ele>
        <time>2017-09-17T14:34:04Z</time>
      </trkpt>
      <trkpt lat="44.10786" lon="7.70566">
        <ele>1902</ele>
        <time>2017-09-17T14:34:05Z</time>
      </trkpt>
      <trkpt lat="44.10783" lon="7.70573">
        <ele>1902</ele>
        <time>2017-09-17T14:34:06Z</time>
      </trkpt>
      <trkpt lat="44.1078" lon="7.70579">
        <ele>1902</ele>
        <time>2017-09-17T14:34:07Z</time>
      </trkpt>
      <trkpt lat="44.10777" lon="7.70586">
        <ele>1902</ele>
        <time>2017-09-17T14:34:08Z</time>
      </trkpt>
      <trkpt lat="44.10774" lon="7.70592">
        <ele>1902</ele>
        <time>2017-09-17T14:34:09Z</time>
      </trkpt>
      <trkpt lat="44.10771" lon="7.70598">
        <ele>1902</ele>
        <time>2017-09-17T14:34:10Z</time>
      </trkpt>
      <trkpt lat="44.10767" lon="7.70604">
        <ele>1902</ele>
        <time>2017-09-17T14:34:11Z</time>
      </trkpt>
      <trkpt lat="44.10764" lon="7.7061">
        <ele>1902</ele>
        <time>2017-09-17T14:34:12Z</time>
      </trkpt>
      <trkpt lat="44.10761" lon="7.70616">
        <ele>1902</ele>
        <time>2017-09-17T14:34:13Z</time>
      </trkpt>
      <trkpt lat="44.10758" lon="7.70622">
        <ele>1903</ele>
        <time>2017-09-17T14:34:14Z</time>
      </trkpt>
      <trkpt lat="44.10755" lon="7.70628">
        <ele>1903</ele>
        <time>2017-09-17T14:34:15Z</time>
      </trkpt>
      <trkpt lat="44.10752" lon="7.70634">
        <ele>1903</ele>
        <time>2017-09-17T14:34:16Z</time>
      </trkpt>
      <trkpt lat="44.10748" lon="7.7064">
        <ele>1903</ele>
        <time>2017-09-17T14:34:17Z</time>
      </trkpt>
      <trkpt lat="44.10745" lon="7.70647">
        <ele>1903</ele>
        <time>2017-09-17T14:34:18Z</time>
      </trkpt>
      <trkpt lat="44.10743" lon="7.70653">
        <ele>1903</ele>
        <time>2017-09-17T14:34:19Z</time>
      </trkpt>
      <trkpt lat="44.10741" lon="7.70659">
        <ele>1903</ele>
        <time>2017-09-17T14:34:20Z</time>
      </trkpt>
      <trkpt lat="44.10739" lon="7.70666">
        <ele>1903</ele>
        <time>2017-09-17T14:34:21Z</time>
      </trkpt>
      <trkpt lat="44.10738" lon="7.70673">
        <ele>1903</ele>
        <time>2017-09-17T14:34:22Z</time>
      </trkpt>
      <trkpt lat="44.10735" lon="7.70681">
        <ele>1903</ele>
        <time>2017-09-17T14:34:23Z</time>
      </trkpt>
      <trkpt lat="44.10734" lon="7.70688">
        <ele>1903</ele>
        <time>2017-09-17T14:34:24Z</time>
      </trkpt>
      <trkpt lat="44.10732" lon="7.70696">
        <ele>1903</ele>
        <time>2017-09-17T14:34:25Z</time>
      </trkpt>
      <trkpt lat="44.1073" lon="7.70703">
        <ele>1903</ele>
        <time>2017-09-17T14:34:26Z</time>
      </trkpt>
      <trkpt lat="44.10728" lon="7.7071">
        <ele>1903</ele>
        <time>2017-09-17T14:34:27Z</time>
      </trkpt>
      <trkpt lat="44.10727" lon="7.70717">
        <ele>1903</ele>
        <time>2017-09-17T14:34:28Z</time>
      </trkpt>
      <trkpt lat="44.10725" lon="7.70724">
        <ele>1904</ele>
        <time>2017-09-17T14:34:29Z</time>
      </trkpt>
      <trkpt lat="44.10723" lon="7.70732">
        <ele>1904</ele>
        <time>2017-09-17T14:34:30Z</time>
      </trkpt>
      <trkpt lat="44.10721" lon="7.70739">
        <ele>1904</ele>
        <time>2017-09-17T14:34:31Z</time>
      </trkpt>
      <trkpt lat="44.10719" lon="7.70746">
        <ele>1904</ele>
        <time>2017-09-17T14:34:32Z</time>
      </trkpt>
      <trkpt lat="44.10717" lon="7.70753">
        <ele>1905</ele>
        <time>2017-09-17T14:34:33Z</time>
      </trkpt>
      <trkpt lat="44.10715" lon="7.7076">
        <ele>1905</ele>
        <time>2017-09-17T14:34:34Z</time>
      </trkpt>
      <trkpt lat="44.10712" lon="7.70767">
        <ele>1905</ele>
        <time>2017-09-17T14:34:35Z</time>
      </trkpt>
      <trkpt lat="44.10708" lon="7.70773">
        <ele>1905</ele>
        <time>2017-09-17T14:34:36Z</time>
      </trkpt>
      <trkpt lat="44.10704" lon="7.7078">
        <ele>1906</ele>
        <time>2017-09-17T14:34:37Z</time>
      </trkpt>
      <trkpt lat="44.10701" lon="7.70786">
        <ele>1906</ele>
        <time>2017-09-17T14:34:38Z</time>
      </trkpt>
      <trkpt lat="44.10697" lon="7.70792">
        <ele>1906</ele>
        <time>2017-09-17T14:34:39Z</time>
      </trkpt>
      <trkpt lat="44.10693" lon="7.70798">
        <ele>1906</ele>
        <time>2017-09-17T14:34:40Z</time>
      </trkpt>
      <trkpt lat="44.10689" lon="7.70804">
        <ele>1906</ele>
        <time>2017-09-17T14:34:41Z</time>
      </trkpt>
      <trkpt lat="44.10685" lon="7.7081">
        <ele>1906</ele>
        <time>2017-09-17T14:34:42Z</time>
      </trkpt>
      <trkpt lat="44.10683" lon="7.70817">
        <ele>1906</ele>
        <time>2017-09-17T14:34:43Z</time>
      </trkpt>
      <trkpt lat="44.1068" lon="7.70824">
        <ele>1906</ele>
        <time>2017-09-17T14:34:44Z</time>
      </trkpt>
      <trkpt lat="44.10677" lon="7.70831">
        <ele>1907</ele>
        <time>2017-09-17T14:34:45Z</time>
      </trkpt>
      <trkpt lat="44.10674" lon="7.70839">
        <ele>1907</ele>
        <time>2017-09-17T14:34:46Z</time>
      </trkpt>
      <trkpt lat="44.10671" lon="7.70846">
        <ele>1907</ele>
        <time>2017-09-17T14:34:47Z</time>
      </trkpt>
      <trkpt lat="44.10668" lon="7.70853">
        <ele>1907</ele>
        <time>2017-09-17T14:34:48Z</time>
      </trkpt>
      <trkpt lat="44.10665" lon="7.7086">
        <ele>1907</ele>
        <time>2017-09-17T14:34:49Z</time>
      </trkpt>
      <trkpt lat="44.10663" lon="7.70868">
        <ele>1907</ele>
        <time>2017-09-17T14:34:50Z</time>
      </trkpt>
      <trkpt lat="44.10659" lon="7.70875">
        <ele>1907</ele>
        <time>2017-09-17T14:34:51Z</time>
      </trkpt>
      <trkpt lat="44.10656" lon="7.70881">
        <ele>1908</ele>
        <time>2017-09-17T14:34:52Z</time>
      </trkpt>
      <trkpt lat="44.10652" lon="7.70886">
        <ele>1908</ele>
        <time>2017-09-17T14:34:53Z</time>
      </trkpt>
      <trkpt lat="44.10647" lon="7.70891">
        <ele>1908</ele>
        <time>2017-09-17T14:34:54Z</time>
      </trkpt>
      <trkpt lat="44.10643" lon="7.70896">
        <ele>1908</ele>
        <time>2017-09-17T14:34:55Z</time>
      </trkpt>
      <trkpt lat="44.10638" lon="7.70901">
        <ele>1908</ele>
        <time>2017-09-17T14:34:56Z</time>
      </trkpt>
      <trkpt lat="44.10633" lon="7.70906">
        <ele>1908</ele>
        <time>2017-09-17T14:34:57Z</time>
      </trkpt>
      <trkpt lat="44.10629" lon="7.70911">
        <ele>1908</ele>
        <time>2017-09-17T14:34:58Z</time>
      </trkpt>
      <trkpt lat="44.10624" lon="7.70916">
        <ele>1909</ele>
        <time>2017-09-17T14:34:59Z</time>
      </trkpt>
      <trkpt lat="44.10619" lon="7.70921">
        <ele>1909</ele>
        <time>2017-09-17T14:35:00Z</time>
      </trkpt>
      <trkpt lat="44.10615" lon="7.70926">
        <ele>1909</ele>
        <time>2017-09-17T14:35:01Z</time>
      </trkpt>
      <trkpt lat="44.1061" lon="7.70931">
        <ele>1909</ele>
        <time>2017-09-17T14:35:02Z</time>
      </trkpt>
      <trkpt lat="44.10605" lon="7.70936">
        <ele>1909</ele>
        <time>2017-09-17T14:35:03Z</time>
      </trkpt>
      <trkpt lat="44.10601" lon="7.70941">
        <ele>1909</ele>
        <time>2017-09-17T14:35:04Z</time>
      </trkpt>
      <trkpt lat="44.10596" lon="7.70945">
        <ele>1909</ele>
        <time>2017-09-17T14:35:05Z</time>
      </trkpt>
      <trkpt lat="44.10592" lon="7.7095">
        <ele>1909</ele>
        <time>2017-09-17T14:35:06Z</time>
      </trkpt>
      <trkpt lat="44.10588" lon="7.70955">
        <ele>1910</ele>
        <time>2017-09-17T14:35:07Z</time>
      </trkpt>
      <trkpt lat="44.10584" lon="7.70961">
        <ele>1910</ele>
        <time>2017-09-17T14:35:08Z</time>
      </trkpt>
      <trkpt lat="44.10581" lon="7.70966">
        <ele>1910</ele>
        <time>2017-09-17T14:35:09Z</time>
      </trkpt>
      <trkpt lat="44.10578" lon="7.70972">
        <ele>1910</ele>
        <time>2017-09-17T14:35:10Z</time>
      </trkpt>
      <trkpt lat="44.10575" lon="7.70978">
        <ele>1910</ele>
        <time>2017-09-17T14:35:11Z</time>
      </trkpt>
      <trkpt lat="44.10573" lon="7.70984">
        <ele>1910</ele>
        <time>2017-09-17T14:35:12Z</time>
      </trkpt>
      <trkpt lat="44.1057" lon="7.7099">
        <ele>1910</ele>
        <time>2017-09-17T14:35:13Z</time>
      </trkpt>
      <trkpt lat="44.10567" lon="7.70996">
        <ele>1910</ele>
        <time>2017-09-17T14:35:14Z</time>
      </trkpt>
      <trkpt lat="44.10563" lon="7.71002">
        <ele>1910</ele>
        <time>2017-09-17T14:35:15Z</time>
      </trkpt>
      <trkpt lat="44.10558" lon="7.71007">
        <ele>1910</ele>
        <time>2017-09-17T14:35:16Z</time>
      </trkpt>
      <trkpt lat="44.10554" lon="7.71011">
        <ele>1910</ele>
        <time>2017-09-17T14:35:17Z</time>
      </trkpt>
      <trkpt lat="44.10549" lon="7.71016">
        <ele>1910</ele>
        <time>2017-09-17T14:35:18Z</time>
      </trkpt>
      <trkpt lat="44.10544" lon="7.7102">
        <ele>1910</ele>
        <time>2017-09-17T14:35:19Z</time>
      </trkpt>
      <trkpt lat="44.1054" lon="7.71025">
        <ele>1910</ele>
        <time>2017-09-17T14:35:20Z</time>
      </trkpt>
      <trkpt lat="44.10535" lon="7.7103">
        <ele>1910</ele>
        <time>2017-09-17T14:35:21Z</time>
      </trkpt>
      <trkpt lat="44.1053" lon="7.71034">
        <ele>1910</ele>
        <time>2017-09-17T14:35:22Z</time>
      </trkpt>
      <trkpt lat="44.10525" lon="7.71037">
        <ele>1910</ele>
        <time>2017-09-17T14:35:23Z</time>
      </trkpt>
      <trkpt lat="44.10519" lon="7.7104">
        <ele>1910</ele>
        <time>2017-09-17T14:35:24Z</time>
      </trkpt>
      <trkpt lat="44.10514" lon="7.71042">
        <ele>1910</ele>
        <time>2017-09-17T14:35:25Z</time>
      </trkpt>
      <trkpt lat="44.10508" lon="7.71043">
        <ele>1910</ele>
        <time>2017-09-17T14:35:26Z</time>
      </trkpt>
      <trkpt lat="44.10503" lon="7.71041">
        <ele>1910</ele>
        <time>2017-09-17T14:35:27Z</time>
      </trkpt>
      <trkpt lat="44.10498" lon="7.71038">
        <ele>1910</ele>
        <time>2017-09-17T14:35:28Z</time>
      </trkpt>
      <trkpt lat="44.10493" lon="7.71034">
        <ele>1910</ele>
        <time>2017-09-17T14:35:29Z</time>
      </trkpt>
      <trkpt lat="44.10489" lon="7.71029">
        <ele>1910</ele>
        <time>2017-09-17T14:35:30Z</time>
      </trkpt>
      <trkpt lat="44.10484" lon="7.71024">
        <ele>1910</ele>
        <time>2017-09-17T14:35:31Z</time>
      </trkpt>
      <trkpt lat="44.10479" lon="7.7102">
        <ele>1910</ele>
        <time>2017-09-17T14:35:32Z</time>
      </trkpt>
      <trkpt lat="44.10474" lon="7.71015">
        <ele>1910</ele>
        <time>2017-09-17T14:35:33Z</time>
      </trkpt>
      <trkpt lat="44.10469" lon="7.71011">
        <ele>1910</ele>
        <time>2017-09-17T14:35:34Z</time>
      </trkpt>
      <trkpt lat="44.10465" lon="7.71006">
        <ele>1910</ele>
        <time>2017-09-17T14:35:35Z</time>
      </trkpt>
      <trkpt lat="44.1046" lon="7.71001">
        <ele>1911</ele>
        <time>2017-09-17T14:35:36Z</time>
      </trkpt>
      <trkpt lat="44.10456" lon="7.70997">
        <ele>1911</ele>
        <time>2017-09-17T14:35:37Z</time>
      </trkpt>
      <trkpt lat="44.10451" lon="7.70993">
        <ele>1911</ele>
        <time>2017-09-17T14:35:38Z</time>
      </trkpt>
      <trkpt lat="44.10446" lon="7.70989">
        <ele>1911</ele>
        <time>2017-09-17T14:35:39Z</time>
      </trkpt>
      <trkpt lat="44.10441" lon="7.70985">
        <ele>1911</ele>
        <time>2017-09-17T14:35:40Z</time>
      </trkpt>
      <trkpt lat="44.10436" lon="7.70982">
        <ele>1911</ele>
        <time>2017-09-17T14:35:41Z</time>
      </trkpt>
      <trkpt lat="44.10431" lon="7.7098">
        <ele>1911</ele>
        <time>2017-09-17T14:35:42Z</time>
      </trkpt>
      <trkpt lat="44.10425" lon="7.70978">
        <ele>1911</ele>
        <time>2017-09-17T14:35:43Z</time>
      </trkpt>
      <trkpt lat="44.1042" lon="7.70977">
        <ele>1912</ele>
        <time>2017-09-17T14:35:44Z</time>
      </trkpt>
      <trkpt lat="44.10414" lon="7.70975">
        <ele>1912</ele>
        <time>2017-09-17T14:35:45Z</time>
      </trkpt>
      <trkpt lat="44.10408" lon="7.70974">
        <ele>1912</ele>
        <time>2017-09-17T14:35:46Z</time>
      </trkpt>
      <trkpt lat="44.10402" lon="7.70973">
        <ele>1912</ele>
        <time>2017-09-17T14:35:47Z</time>
      </trkpt>
      <trkpt lat="44.10396" lon="7.70973">
        <ele>1912</ele>
        <time>2017-09-17T14:35:48Z</time>
      </trkpt>
      <trkpt lat="44.10391" lon="7.70972">
        <ele>1912</ele>
        <time>2017-09-17T14:35:49Z</time>
      </trkpt>
      <trkpt lat="44.10385" lon="7.70971">
        <ele>1912</ele>
        <time>2017-09-17T14:35:50Z</time>
      </trkpt>
      <trkpt lat="44.1038" lon="7.7097">
        <ele>1912</ele>
        <time>2017-09-17T14:35:51Z</time>
      </trkpt>
      <trkpt lat="44.10374" lon="7.70969">
        <ele>1912</ele>
        <time>2017-09-17T14:35:52Z</time>
      </trkpt>
      <trkpt lat="44.10368" lon="7.70968">
        <ele>1913</ele>
        <time>2017-09-17T14:35:53Z</time>
      </trkpt>
      <trkpt lat="44.10363" lon="7.70967">
        <ele>1913</ele>
        <time>2017-09-17T14:35:54Z</time>
      </trkpt>
      <trkpt lat="44.10357" lon="7.70966">
        <ele>1913</ele>
        <time>2017-09-17T14:35:55Z</time>
      </trkpt>
      <trkpt lat="44.10352" lon="7.70965">
        <ele>1913</ele>
        <time>2017-09-17T14:35:56Z</time>
      </trkpt>
      <trkpt lat="44.10346" lon="7.70963">
        <ele>1913</ele>
        <time>2017-09-17T14:35:57Z</time>
      </trkpt>
      <trkpt lat="44.10341" lon="7.7096">
        <ele>1913</ele>
        <time>2017-09-17T14:35:58Z</time>
      </trkpt>
      <trkpt lat="44.10335" lon="7.70957">
        <ele>1913</ele>
        <time>2017-09-17T14:35:59Z</time>
      </trkpt>
      <trkpt lat="44.1033" lon="7.70953">
        <ele>1913</ele>
        <time>2017-09-17T14:36:00Z</time>
      </trkpt>
      <trkpt lat="44.10324" lon="7.7095">
        <ele>1913</ele>
        <time>2017-09-17T14:36:01Z</time>
      </trkpt>
      <trkpt lat="44.10319" lon="7.70947">
        <ele>1913</ele>
        <time>2017-09-17T14:36:02Z</time>
      </trkpt>
      <trkpt lat="44.10313" lon="7.70944">
        <ele>1913</ele>
        <time>2017-09-17T14:36:03Z</time>
      </trkpt>
      <trkpt lat="44.10308" lon="7.70941">
        <ele>1913</ele>
        <time>2017-09-17T14:36:04Z</time>
      </trkpt>
      <trkpt lat="44.10303" lon="7.70938">
        <ele>1914</ele>
        <time>2017-09-17T14:36:05Z</time>
      </trkpt>
      <trkpt lat="44.10298" lon="7.70935">
        <ele>1914</ele>
        <time>2017-09-17T14:36:06Z</time>
      </trkpt>
      <trkpt lat="44.10293" lon="7.70933">
        <ele>1914</ele>
        <time>2017-09-17T14:36:07Z</time>
      </trkpt>
      <trkpt lat="44.10288" lon="7.70932">
        <ele>1914</ele>
        <time>2017-09-17T14:36:08Z</time>
      </trkpt>
      <trkpt lat="44.10282" lon="7.70932">
        <ele>1914</ele>
        <time>2017-09-17T14:36:09Z</time>
      </trkpt>
      <trkpt lat="44.10277" lon="7.70934">
        <ele>1914</ele>
        <time>2017-09-17T14:36:10Z</time>
      </trkpt>
      <trkpt lat="44.10272" lon="7.70937">
        <ele>1914</ele>
        <time>2017-09-17T14:36:11Z</time>
      </trkpt>
      <trkpt lat="44.10268" lon="7.70941">
        <ele>1913</ele>
        <time>2017-09-17T14:36:12Z</time>
      </trkpt>
      <trkpt lat="44.10264" lon="7.70947">
        <ele>1913</ele>
        <time>2017-09-17T14:36:13Z</time>
      </trkpt>
      <trkpt lat="44.10261" lon="7.70955">
        <ele>1913</ele>
        <time>2017-09-17T14:36:14Z</time>
      </trkpt>
      <trkpt lat="44.1026" lon="7.70962">
        <ele>1913</ele>
        <time>2017-09-17T14:36:15Z</time>
      </trkpt>
      <trkpt lat="44.10259" lon="7.70971">
        <ele>1913</ele>
        <time>2017-09-17T14:36:16Z</time>
      </trkpt>
      <trkpt lat="44.10259" lon="7.70979">
        <ele>1913</ele>
        <time>2017-09-17T14:36:17Z</time>
      </trkpt>
      <trkpt lat="44.10258" lon="7.70988">
        <ele>1913</ele>
        <time>2017-09-17T14:36:18Z</time>
      </trkpt>
      <trkpt lat="44.10258" lon="7.70997">
        <ele>1912</ele>
        <time>2017-09-17T14:36:19Z</time>
      </trkpt>
      <trkpt lat="44.10257" lon="7.71006">
        <ele>1912</ele>
        <time>2017-09-17T14:36:20Z</time>
      </trkpt>
      <trkpt lat="44.10257" lon="7.71016">
        <ele>1912</ele>
        <time>2017-09-17T14:36:21Z</time>
      </trkpt>
      <trkpt lat="44.10256" lon="7.71026">
        <ele>1911</ele>
        <time>2017-09-17T14:36:22Z</time>
      </trkpt>
      <trkpt lat="44.10256" lon="7.71036">
        <ele>1911</ele>
        <time>2017-09-17T14:36:23Z</time>
      </trkpt>
      <trkpt lat="44.10255" lon="7.71046">
        <ele>1911</ele>
        <time>2017-09-17T14:36:24Z</time>
      </trkpt>
      <trkpt lat="44.10255" lon="7.71056">
        <ele>1910</ele>
        <time>2017-09-17T14:36:25Z</time>
      </trkpt>
      <trkpt lat="44.10255" lon="7.71066">
        <ele>1910</ele>
        <time>2017-09-17T14:36:26Z</time>
      </trkpt>
      <trkpt lat="44.10254" lon="7.71077">
        <ele>1910</ele>
        <time>2017-09-17T14:36:27Z</time>
      </trkpt>
      <trkpt lat="44.10253" lon="7.71088">
        <ele>1909</ele>
        <time>2017-09-17T14:36:28Z</time>
      </trkpt>
      <trkpt lat="44.10253" lon="7.71099">
        <ele>1909</ele>
        <time>2017-09-17T14:36:29Z</time>
      </trkpt>
      <trkpt lat="44.10252" lon="7.7111">
        <ele>1908</ele>
        <time>2017-09-17T14:36:30Z</time>
      </trkpt>
      <trkpt lat="44.10251" lon="7.71122">
        <ele>1908</ele>
        <time>2017-09-17T14:36:31Z</time>
      </trkpt>
      <trkpt lat="44.10251" lon="7.71134">
        <ele>1908</ele>
        <time>2017-09-17T14:36:32Z</time>
      </trkpt>
      <trkpt lat="44.10251" lon="7.71145">
        <ele>1907</ele>
        <time>2017-09-17T14:36:33Z</time>
      </trkpt>
      <trkpt lat="44.10251" lon="7.71157">
        <ele>1907</ele>
        <time>2017-09-17T14:36:34Z</time>
      </trkpt>
      <trkpt lat="44.10251" lon="7.71168">
        <ele>1906</ele>
        <time>2017-09-17T14:36:35Z</time>
      </trkpt>
      <trkpt lat="44.1025" lon="7.71179">
        <ele>1906</ele>
        <time>2017-09-17T14:36:36Z</time>
      </trkpt>
      <trkpt lat="44.10248" lon="7.71191">
        <ele>1905</ele>
        <time>2017-09-17T14:36:37Z</time>
      </trkpt>
      <trkpt lat="44.10246" lon="7.71203">
        <ele>1904</ele>
        <time>2017-09-17T14:36:38Z</time>
      </trkpt>
      <trkpt lat="44.10244" lon="7.71214">
        <ele>1904</ele>
        <time>2017-09-17T14:36:39Z</time>
      </trkpt>
      <trkpt lat="44.10241" lon="7.71225">
        <ele>1903</ele>
        <time>2017-09-17T14:36:40Z</time>
      </trkpt>
      <trkpt lat="44.10239" lon="7.71235">
        <ele>1903</ele>
        <time>2017-09-17T14:36:41Z</time>
      </trkpt>
      <trkpt lat="44.10235" lon="7.71244">
        <ele>1902</ele>
        <time>2017-09-17T14:36:42Z</time>
      </trkpt>
      <trkpt lat="44.10231" lon="7.71253">
        <ele>1902</ele>
        <time>2017-09-17T14:36:43Z</time>
      </trkpt>
      <trkpt lat="44.10226" lon="7.71262">
        <ele>1901</ele>
        <time>2017-09-17T14:36:44Z</time>
      </trkpt>
      <trkpt lat="44.10221" lon="7.71271">
        <ele>1901</ele>
        <time>2017-09-17T14:36:45Z</time>
      </trkpt>
      <trkpt lat="44.10217" lon="7.7128">
        <ele>1901</ele>
        <time>2017-09-17T14:36:46Z</time>
      </trkpt>
      <trkpt lat="44.10214" lon="7.71289">
        <ele>1901</ele>
        <time>2017-09-17T14:36:47Z</time>
      </trkpt>
      <trkpt lat="44.10211" lon="7.71298">
        <ele>1900</ele>
        <time>2017-09-17T14:36:48Z</time>
      </trkpt>
      <trkpt lat="44.10208" lon="7.71307">
        <ele>1900</ele>
        <time>2017-09-17T14:36:49Z</time>
      </trkpt>
      <trkpt lat="44.10206" lon="7.71316">
        <ele>1900</ele>
        <time>2017-09-17T14:36:50Z</time>
      </trkpt>
      <trkpt lat="44.10206" lon="7.71326">
        <ele>1900</ele>
        <time>2017-09-17T14:36:51Z</time>
      </trkpt>
      <trkpt lat="44.10208" lon="7.71335">
        <ele>1900</ele>
        <time>2017-09-17T14:36:52Z</time>
      </trkpt>
      <trkpt lat="44.1021" lon="7.71343">
        <ele>1899</ele>
        <time>2017-09-17T14:36:53Z</time>
      </trkpt>
      <trkpt lat="44.10212" lon="7.71353">
        <ele>1899</ele>
        <time>2017-09-17T14:36:54Z</time>
      </trkpt>
      <trkpt lat="44.10213" lon="7.71363">
        <ele>1899</ele>
        <time>2017-09-17T14:36:55Z</time>
      </trkpt>
      <trkpt lat="44.10214" lon="7.71374">
        <ele>1899</ele>
        <time>2017-09-17T14:36:56Z</time>
      </trkpt>
      <trkpt lat="44.10215" lon="7.71385">
        <ele>1898</ele>
        <time>2017-09-17T14:36:57Z</time>
      </trkpt>
      <trkpt lat="44.10215" lon="7.71397">
        <ele>1898</ele>
        <time>2017-09-17T14:36:58Z</time>
      </trkpt>
      <trkpt lat="44.10214" lon="7.71409">
        <ele>1897</ele>
        <time>2017-09-17T14:36:59Z</time>
      </trkpt>
      <trkpt lat="44.10214" lon="7.71422">
        <ele>1896</ele>
        <time>2017-09-17T14:37:00Z</time>
      </trkpt>
      <trkpt lat="44.10212" lon="7.71434">
        <ele>1895</ele>
        <time>2017-09-17T14:37:01Z</time>
      </trkpt>
      <trkpt lat="44.1021" lon="7.71447">
        <ele>1894</ele>
        <time>2017-09-17T14:37:02Z</time>
      </trkpt>
      <trkpt lat="44.10208" lon="7.71459">
        <ele>1894</ele>
        <time>2017-09-17T14:37:03Z</time>
      </trkpt>
      <trkpt lat="44.10204" lon="7.71472">
        <ele>1893</ele>
        <time>2017-09-17T14:37:04Z</time>
      </trkpt>
      <trkpt lat="44.102" lon="7.71483">
        <ele>1892</ele>
        <time>2017-09-17T14:37:05Z</time>
      </trkpt>
      <trkpt lat="44.10196" lon="7.71494">
        <ele>1891</ele>
        <time>2017-09-17T14:37:06Z</time>
      </trkpt>
      <trkpt lat="44.10191" lon="7.71504">
        <ele>1890</ele>
        <time>2017-09-17T14:37:07Z</time>
      </trkpt>
      <trkpt lat="44.10186" lon="7.71511">
        <ele>1889</ele>
        <time>2017-09-17T14:37:08Z</time>
      </trkpt>
      <trkpt lat="44.10179" lon="7.71516">
        <ele>1889</ele>
        <time>2017-09-17T14:37:09Z</time>
      </trkpt>
      <trkpt lat="44.10173" lon="7.71521">
        <ele>1888</ele>
        <time>2017-09-17T14:37:10Z</time>
      </trkpt>
      <trkpt lat="44.10167" lon="7.71528">
        <ele>1887</ele>
        <time>2017-09-17T14:37:11Z</time>
      </trkpt>
      <trkpt lat="44.10164" lon="7.71536">
        <ele>1887</ele>
        <time>2017-09-17T14:37:12Z</time>
      </trkpt>
      <trkpt lat="44.10163" lon="7.71545">
        <ele>1886</ele>
        <time>2017-09-17T14:37:13Z</time>
      </trkpt>
      <trkpt lat="44.10163" lon="7.71554">
        <ele>1886</ele>
        <time>2017-09-17T14:37:14Z</time>
      </trkpt>
      <trkpt lat="44.10164" lon="7.71564">
        <ele>1885</ele>
        <time>2017-09-17T14:37:15Z</time>
      </trkpt>
      <trkpt lat="44.10166" lon="7.71574">
        <ele>1885</ele>
        <time>2017-09-17T14:37:16Z</time>
      </trkpt>
      <trkpt lat="44.1017" lon="7.71583">
        <ele>1884</ele>
        <time>2017-09-17T14:37:17Z</time>
      </trkpt>
      <trkpt lat="44.10173" lon="7.71592">
        <ele>1883</ele>
        <time>2017-09-17T14:37:18Z</time>
      </trkpt>
      <trkpt lat="44.10176" lon="7.71601">
        <ele>1883</ele>
        <time>2017-09-17T14:37:19Z</time>
      </trkpt>
      <trkpt lat="44.1018" lon="7.71612">
        <ele>1882</ele>
        <time>2017-09-17T14:37:20Z</time>
      </trkpt>
      <trkpt lat="44.10183" lon="7.71622">
        <ele>1881</ele>
        <time>2017-09-17T14:37:21Z</time>
      </trkpt>
      <trkpt lat="44.10186" lon="7.71633">
        <ele>1881</ele>
        <time>2017-09-17T14:37:22Z</time>
      </trkpt>
      <trkpt lat="44.1019" lon="7.71644">
        <ele>1880</ele>
        <time>2017-09-17T14:37:23Z</time>
      </trkpt>
      <trkpt lat="44.10194" lon="7.71655">
        <ele>1879</ele>
        <time>2017-09-17T14:37:24Z</time>
      </trkpt>
      <trkpt lat="44.10197" lon="7.71665">
        <ele>1878</ele>
        <time>2017-09-17T14:37:25Z</time>
      </trkpt>
      <trkpt lat="44.10202" lon="7.71674">
        <ele>1878</ele>
        <time>2017-09-17T14:37:26Z</time>
      </trkpt>
      <trkpt lat="44.10209" lon="7.7168">
        <ele>1877</ele>
        <time>2017-09-17T14:37:27Z</time>
      </trkpt>
      <trkpt lat="44.10216" lon="7.71683">
        <ele>1876</ele>
        <time>2017-09-17T14:37:28Z</time>
      </trkpt>
      <trkpt lat="44.10223" lon="7.71684">
        <ele>1876</ele>
        <time>2017-09-17T14:37:29Z</time>
      </trkpt>
      <trkpt lat="44.1023" lon="7.71684">
        <ele>1875</ele>
        <time>2017-09-17T14:37:30Z</time>
      </trkpt>
      <trkpt lat="44.10236" lon="7.71686">
        <ele>1875</ele>
        <time>2017-09-17T14:37:31Z</time>
      </trkpt>
      <trkpt lat="44.10241" lon="7.71691">
        <ele>1874</ele>
        <time>2017-09-17T14:37:32Z</time>
      </trkpt>
      <trkpt lat="44.10246" lon="7.71697">
        <ele>1874</ele>
        <time>2017-09-17T14:37:33Z</time>
      </trkpt>
      <trkpt lat="44.10251" lon="7.71702">
        <ele>1874</ele>
        <time>2017-09-17T14:37:34Z</time>
      </trkpt>
      <trkpt lat="44.10257" lon="7.71708">
        <ele>1873</ele>
        <time>2017-09-17T14:37:35Z</time>
      </trkpt>
      <trkpt lat="44.10263" lon="7.71711">
        <ele>1873</ele>
        <time>2017-09-17T14:37:36Z</time>
      </trkpt>
      <trkpt lat="44.1027" lon="7.71714">
        <ele>1872</ele>
        <time>2017-09-17T14:37:37Z</time>
      </trkpt>
      <trkpt lat="44.10277" lon="7.71716">
        <ele>1872</ele>
        <time>2017-09-17T14:37:38Z</time>
      </trkpt>
      <trkpt lat="44.10283" lon="7.7172">
        <ele>1871</ele>
        <time>2017-09-17T14:37:39Z</time>
      </trkpt>
      <trkpt lat="44.10288" lon="7.71727">
        <ele>1871</ele>
        <time>2017-09-17T14:37:40Z</time>
      </trkpt>
      <trkpt lat="44.10293" lon="7.71735">
        <ele>1870</ele>
        <time>2017-09-17T14:37:41Z</time>
      </trkpt>
      <trkpt lat="44.10296" lon="7.71743">
        <ele>1870</ele>
        <time>2017-09-17T14:37:42Z</time>
      </trkpt>
      <trkpt lat="44.10298" lon="7.71753">
        <ele>1869</ele>
        <time>2017-09-17T14:37:43Z</time>
      </trkpt>
      <trkpt lat="44.10298" lon="7.71763">
        <ele>1869</ele>
        <time>2017-09-17T14:37:44Z</time>
      </trkpt>
      <trkpt lat="44.10298" lon="7.71774">
        <ele>1868</ele>
        <time>2017-09-17T14:37:45Z</time>
      </trkpt>
      <trkpt lat="44.10298" lon="7.71784">
        <ele>1867</ele>
        <time>2017-09-17T14:37:46Z</time>
      </trkpt>
      <trkpt lat="44.10298" lon="7.71794">
        <ele>1867</ele>
        <time>2017-09-17T14:37:47Z</time>
      </trkpt>
      <trkpt lat="44.10298" lon="7.71804">
        <ele>1866</ele>
        <time>2017-09-17T14:37:48Z</time>
      </trkpt>
      <trkpt lat="44.10299" lon="7.71814">
        <ele>1866</ele>
        <time>2017-09-17T14:37:49Z</time>
      </trkpt>
      <trkpt lat="44.10299" lon="7.71824">
        <ele>1865</ele>
        <time>2017-09-17T14:37:50Z</time>
      </trkpt>
      <trkpt lat="44.10299" lon="7.71833">
        <ele>1865</ele>
        <time>2017-09-17T14:37:51Z</time>
      </trkpt>
      <trkpt lat="44.10297" lon="7.71839">
        <ele>1865</ele>
        <time>2017-09-17T14:37:52Z</time>
      </trkpt>
      <trkpt lat="44.10294" lon="7.71844">
        <ele>1864</ele>
        <time>2017-09-17T14:37:53Z</time>
      </trkpt>
      <trkpt lat="44.10289" lon="7.71847">
        <ele>1864</ele>
        <time>2017-09-17T14:37:54Z</time>
      </trkpt>
      <trkpt lat="44.10283" lon="7.71849">
        <ele>1864</ele>
        <time>2017-09-17T14:37:55Z</time>
      </trkpt>
      <trkpt lat="44.10276" lon="7.71848">
        <ele>1863</ele>
        <time>2017-09-17T14:37:56Z</time>
      </trkpt>
      <trkpt lat="44.1027" lon="7.71847">
        <ele>1863</ele>
        <time>2017-09-17T14:37:57Z</time>
      </trkpt>
      <trkpt lat="44.10263" lon="7.71845">
        <ele>1863</ele>
        <time>2017-09-17T14:37:58Z</time>
      </trkpt>
      <trkpt lat="44.10256" lon="7.71844">
        <ele>1862</ele>
        <time>2017-09-17T14:37:59Z</time>
      </trkpt>
      <trkpt lat="44.10249" lon="7.71843">
        <ele>1862</ele>
        <time>2017-09-17T14:38:00Z</time>
      </trkpt>
      <trkpt lat="44.10242" lon="7.71843">
        <ele>1862</ele>
        <time>2017-09-17T14:38:01Z</time>
      </trkpt>
      <trkpt lat="44.10235" lon="7.71843">
        <ele>1861</ele>
        <time>2017-09-17T14:38:02Z</time>
      </trkpt>
      <trkpt lat="44.10228" lon="7.71845">
        <ele>1861</ele>
        <time>2017-09-17T14:38:03Z</time>
      </trkpt>
      <trkpt lat="44.10221" lon="7.71849">
        <ele>1861</ele>
        <time>2017-09-17T14:38:04Z</time>
      </trkpt>
      <trkpt lat="44.10215" lon="7.71854">
        <ele>1860</ele>
        <time>2017-09-17T14:38:05Z</time>
      </trkpt>
      <trkpt lat="44.10209" lon="7.71859">
        <ele>1860</ele>
        <time>2017-09-17T14:38:06Z</time>
      </trkpt>
      <trkpt lat="44.10203" lon="7.71865">
        <ele>1860</ele>
        <time>2017-09-17T14:38:07Z</time>
      </trkpt>
      <trkpt lat="44.10197" lon="7.71872">
        <ele>1860</ele>
        <time>2017-09-17T14:38:08Z</time>
      </trkpt>
      <trkpt lat="44.10192" lon="7.71878">
        <ele>1860</ele>
        <time>2017-09-17T14:38:09Z</time>
      </trkpt>
      <trkpt lat="44.10186" lon="7.71884">
        <ele>1860</ele>
        <time>2017-09-17T14:38:10Z</time>
      </trkpt>
      <trkpt lat="44.10181" lon="7.71891">
        <ele>1859</ele>
        <time>2017-09-17T14:38:11Z</time>
      </trkpt>
      <trkpt lat="44.10175" lon="7.71897">
        <ele>1859</ele>
        <time>2017-09-17T14:38:12Z</time>
      </trkpt>
      <trkpt lat="44.10169" lon="7.71902">
        <ele>1859</ele>
        <time>2017-09-17T14:38:13Z</time>
      </trkpt>
      <trkpt lat="44.10162" lon="7.71905">
        <ele>1859</ele>
        <time>2017-09-17T14:38:14Z</time>
      </trkpt>
      <trkpt lat="44.10155" lon="7.71907">
        <ele>1858</ele>
        <time>2017-09-17T14:38:15Z</time>
      </trkpt>
      <trkpt lat="44.10148" lon="7.71906">
        <ele>1858</ele>
        <time>2017-09-17T14:38:16Z</time>
      </trkpt>
      <trkpt lat="44.1014" lon="7.71906">
        <ele>1857</ele>
        <time>2017-09-17T14:38:17Z</time>
      </trkpt>
      <trkpt lat="44.10133" lon="7.71904">
        <ele>1857</ele>
        <time>2017-09-17T14:38:18Z</time>
      </trkpt>
      <trkpt lat="44.10125" lon="7.719">
        <ele>1857</ele>
        <time>2017-09-17T14:38:19Z</time>
      </trkpt>
      <trkpt lat="44.10119" lon="7.71895">
        <ele>1856</ele>
        <time>2017-09-17T14:38:20Z</time>
      </trkpt>
      <trkpt lat="44.10112" lon="7.71889">
        <ele>1856</ele>
        <time>2017-09-17T14:38:21Z</time>
      </trkpt>
      <trkpt lat="44.10105" lon="7.71883">
        <ele>1856</ele>
        <time>2017-09-17T14:38:22Z</time>
      </trkpt>
      <trkpt lat="44.10098" lon="7.71877">
        <ele>1856</ele>
        <time>2017-09-17T14:38:23Z</time>
      </trkpt>
      <trkpt lat="44.10091" lon="7.7187">
        <ele>1855</ele>
        <time>2017-09-17T14:38:24Z</time>
      </trkpt>
      <trkpt lat="44.10085" lon="7.71863">
        <ele>1855</ele>
        <time>2017-09-17T14:38:25Z</time>
      </trkpt>
      <trkpt lat="44.10078" lon="7.71855">
        <ele>1855</ele>
        <time>2017-09-17T14:38:26Z</time>
      </trkpt>
      <trkpt lat="44.10072" lon="7.71848">
        <ele>1854</ele>
        <time>2017-09-17T14:38:27Z</time>
      </trkpt>
      <trkpt lat="44.10065" lon="7.7184">
        <ele>1854</ele>
        <time>2017-09-17T14:38:28Z</time>
      </trkpt>
      <trkpt lat="44.10058" lon="7.71833">
        <ele>1853</ele>
        <time>2017-09-17T14:38:29Z</time>
      </trkpt>
      <trkpt lat="44.10051" lon="7.71826">
        <ele>1852</ele>
        <time>2017-09-17T14:38:30Z</time>
      </trkpt>
      <trkpt lat="44.10044" lon="7.7182">
        <ele>1852</ele>
        <time>2017-09-17T14:38:31Z</time>
      </trkpt>
      <trkpt lat="44.10036" lon="7.71813">
        <ele>1851</ele>
        <time>2017-09-17T14:38:32Z</time>
      </trkpt>
      <trkpt lat="44.10029" lon="7.71806">
        <ele>1851</ele>
        <time>2017-09-17T14:38:33Z</time>
      </trkpt>
      <trkpt lat="44.10021" lon="7.71799">
        <ele>1850</ele>
        <time>2017-09-17T14:38:34Z</time>
      </trkpt>
      <trkpt lat="44.10014" lon="7.71793">
        <ele>1850</ele>
        <time>2017-09-17T14:38:35Z</time>
      </trkpt>
      <trkpt lat="44.10006" lon="7.71787">
        <ele>1850</ele>
        <time>2017-09-17T14:38:36Z</time>
      </trkpt>
      <trkpt lat="44.09999" lon="7.71782">
        <ele>1850</ele>
        <time>2017-09-17T14:38:37Z</time>
      </trkpt>
      <trkpt lat="44.09992" lon="7.71777">
        <ele>1850</ele>
        <time>2017-09-17T14:38:38Z</time>
      </trkpt>
      <trkpt lat="44.09985" lon="7.71772">
        <ele>1850</ele>
        <time>2017-09-17T14:38:39Z</time>
      </trkpt>
      <trkpt lat="44.09978" lon="7.71767">
        <ele>1849</ele>
        <time>2017-09-17T14:38:40Z</time>
      </trkpt>
      <trkpt lat="44.09971" lon="7.71762">
        <ele>1850</ele>
        <time>2017-09-17T14:38:41Z</time>
      </trkpt>
      <trkpt lat="44.09964" lon="7.71758">
        <ele>1850</ele>
        <time>2017-09-17T14:38:42Z</time>
      </trkpt>
      <trkpt lat="44.09956" lon="7.71755">
        <ele>1850</ele>
        <time>2017-09-17T14:38:43Z</time>
      </trkpt>
      <trkpt lat="44.09949" lon="7.71753">
        <ele>1850</ele>
        <time>2017-09-17T14:38:44Z</time>
      </trkpt>
      <trkpt lat="44.09942" lon="7.71752">
        <ele>1850</ele>
        <time>2017-09-17T14:38:45Z</time>
      </trkpt>
      <trkpt lat="44.09935" lon="7.71751">
        <ele>1850</ele>
        <time>2017-09-17T14:38:46Z</time>
      </trkpt>
      <trkpt lat="44.09929" lon="7.71749">
        <ele>1850</ele>
        <time>2017-09-17T14:38:47Z</time>
      </trkpt>
      <trkpt lat="44.09923" lon="7.71745">
        <ele>1850</ele>
        <time>2017-09-17T14:38:48Z</time>
      </trkpt>
      <trkpt lat="44.09918" lon="7.7174">
        <ele>1850</ele>
        <time>2017-09-17T14:38:49Z</time>
      </trkpt>
      <trkpt lat="44.09914" lon="7.71735">
        <ele>1850</ele>
        <time>2017-09-17T14:38:50Z</time>
      </trkpt>
      <trkpt lat="44.09911" lon="7.71729">
        <ele>1850</ele>
        <time>2017-09-17T14:38:51Z</time>
      </trkpt>
      <trkpt lat="44.09908" lon="7.71724">
        <ele>1850</ele>
        <time>2017-09-17T14:38:52Z</time>
      </trkpt>
      <trkpt lat="44.09904" lon="7.71718">
        <ele>1850</ele>
        <time>2017-09-17T14:38:53Z</time>
      </trkpt>
      <trkpt lat="44.09902" lon="7.71713">
        <ele>1850</ele>
        <time>2017-09-17T14:38:54Z</time>
      </trkpt>
      <trkpt lat="44.09898" lon="7.71708">
        <ele>1851</ele>
        <time>2017-09-17T14:38:55Z</time>
      </trkpt>
      <trkpt lat="44.09895" lon="7.71703">
        <ele>1851</ele>
        <time>2017-09-17T14:38:56Z</time>
      </trkpt>
      <trkpt lat="44.09892" lon="7.717">
        <ele>1851</ele>
        <time>2017-09-17T14:38:57Z</time>
      </trkpt>
      <trkpt lat="44.09889" lon="7.71696">
        <ele>1851</ele>
        <time>2017-09-17T14:38:58Z</time>
      </trkpt>
      <trkpt lat="44.09887" lon="7.71692">
        <ele>1852</ele>
        <time>2017-09-17T14:38:59Z</time>
      </trkpt>
      <trkpt lat="44.09884" lon="7.71688">
        <ele>1852</ele>
        <time>2017-09-17T14:39:00Z</time>
      </trkpt>
      <trkpt lat="44.09881" lon="7.71683">
        <ele>1853</ele>
        <time>2017-09-17T14:39:01Z</time>
      </trkpt>
      <trkpt lat="44.09878" lon="7.7168">
        <ele>1853</ele>
        <time>2017-09-17T14:39:02Z</time>
      </trkpt>
      <trkpt lat="44.09875" lon="7.71676">
        <ele>1853</ele>
        <time>2017-09-17T14:39:03Z</time>
      </trkpt>
      <trkpt lat="44.09871" lon="7.71672">
        <ele>1854</ele>
        <time>2017-09-17T14:39:04Z</time>
      </trkpt>
      <trkpt lat="44.09868" lon="7.71668">
        <ele>1854</ele>
        <time>2017-09-17T14:39:05Z</time>
      </trkpt>
      <trkpt lat="44.09865" lon="7.71664">
        <ele>1855</ele>
        <time>2017-09-17T14:39:06Z</time>
      </trkpt>
      <trkpt lat="44.09861" lon="7.7166">
        <ele>1855</ele>
        <time>2017-09-17T14:39:07Z</time>
      </trkpt>
      <trkpt lat="44.09857" lon="7.71656">
        <ele>1855</ele>
        <time>2017-09-17T14:39:08Z</time>
      </trkpt>
      <trkpt lat="44.09854" lon="7.71652">
        <ele>1856</ele>
        <time>2017-09-17T14:39:09Z</time>
      </trkpt>
      <trkpt lat="44.0985" lon="7.71649">
        <ele>1856</ele>
        <time>2017-09-17T14:39:10Z</time>
      </trkpt>
      <trkpt lat="44.09846" lon="7.71645">
        <ele>1856</ele>
        <time>2017-09-17T14:39:11Z</time>
      </trkpt>
      <trkpt lat="44.09843" lon="7.71642">
        <ele>1857</ele>
        <time>2017-09-17T14:39:12Z</time>
      </trkpt>
      <trkpt lat="44.0984" lon="7.71638">
        <ele>1857</ele>
        <time>2017-09-17T14:39:13Z</time>
      </trkpt>
      <trkpt lat="44.09836" lon="7.71634">
        <ele>1857</ele>
        <time>2017-09-17T14:39:14Z</time>
      </trkpt>
      <trkpt lat="44.09833" lon="7.7163">
        <ele>1858</ele>
        <time>2017-09-17T14:39:15Z</time>
      </trkpt>
      <trkpt lat="44.09829" lon="7.71626">
        <ele>1858</ele>
        <time>2017-09-17T14:39:16Z</time>
      </trkpt>
      <trkpt lat="44.09826" lon="7.71623">
        <ele>1859</ele>
        <time>2017-09-17T14:39:17Z</time>
      </trkpt>
      <trkpt lat="44.09822" lon="7.71619">
        <ele>1859</ele>
        <time>2017-09-17T14:39:18Z</time>
      </trkpt>
      <trkpt lat="44.09819" lon="7.71615">
        <ele>1859</ele>
        <time>2017-09-17T14:39:19Z</time>
      </trkpt>
      <trkpt lat="44.09817" lon="7.7161">
        <ele>1859</ele>
        <time>2017-09-17T14:39:20Z</time>
      </trkpt>
      <trkpt lat="44.09814" lon="7.71606">
        <ele>1860</ele>
        <time>2017-09-17T14:39:21Z</time>
      </trkpt>
      <trkpt lat="44.09813" lon="7.71602">
        <ele>1860</ele>
        <time>2017-09-17T14:39:22Z</time>
      </trkpt>
      <trkpt lat="44.09811" lon="7.71597">
        <ele>1860</ele>
        <time>2017-09-17T14:39:23Z</time>
      </trkpt>
      <trkpt lat="44.0981" lon="7.71593">
        <ele>1860</ele>
        <time>2017-09-17T14:39:24Z</time>
      </trkpt>
      <trkpt lat="44.09808" lon="7.71589">
        <ele>1860</ele>
        <time>2017-09-17T14:39:25Z</time>
      </trkpt>
      <trkpt lat="44.09806" lon="7.71585">
        <ele>1861</ele>
        <time>2017-09-17T14:39:26Z</time>
      </trkpt>
      <trkpt lat="44.09803" lon="7.71581">
        <ele>1861</ele>
        <time>2017-09-17T14:39:27Z</time>
      </trkpt>
      <trkpt lat="44.09801" lon="7.71578">
        <ele>1861</ele>
        <time>2017-09-17T14:39:28Z</time>
      </trkpt>
      <trkpt lat="44.09798" lon="7.71574">
        <ele>1861</ele>
        <time>2017-09-17T14:39:29Z</time>
      </trkpt>
      <trkpt lat="44.09795" lon="7.71571">
        <ele>1861</ele>
        <time>2017-09-17T14:39:30Z</time>
      </trkpt>
      <trkpt lat="44.09793" lon="7.71568">
        <ele>1861</ele>
        <time>2017-09-17T14:39:31Z</time>
      </trkpt>
      <trkpt lat="44.0979" lon="7.71565">
        <ele>1861</ele>
        <time>2017-09-17T14:39:32Z</time>
      </trkpt>
      <trkpt lat="44.09786" lon="7.71562">
        <ele>1861</ele>
        <time>2017-09-17T14:39:33Z</time>
      </trkpt>
      <trkpt lat="44.09783" lon="7.7156">
        <ele>1861</ele>
        <time>2017-09-17T14:39:34Z</time>
      </trkpt>
      <trkpt lat="44.09779" lon="7.71559">
        <ele>1861</ele>
        <time>2017-09-17T14:39:35Z</time>
      </trkpt>
      <trkpt lat="44.09775" lon="7.71557">
        <ele>1861</ele>
        <time>2017-09-17T14:39:36Z</time>
      </trkpt>
      <trkpt lat="44.09771" lon="7.71557">
        <ele>1861</ele>
        <time>2017-09-17T14:39:37Z</time>
      </trkpt>
      <trkpt lat="44.09767" lon="7.71557">
        <ele>1861</ele>
        <time>2017-09-17T14:39:38Z</time>
      </trkpt>
      <trkpt lat="44.09763" lon="7.71557">
        <ele>1861</ele>
        <time>2017-09-17T14:39:39Z</time>
      </trkpt>
      <trkpt lat="44.09759" lon="7.71559">
        <ele>1861</ele>
        <time>2017-09-17T14:39:40Z</time>
      </trkpt>
      <trkpt lat="44.09756" lon="7.71562">
        <ele>1861</ele>
        <time>2017-09-17T14:39:41Z</time>
      </trkpt>
      <trkpt lat="44.09753" lon="7.71565">
        <ele>1862</ele>
        <time>2017-09-17T14:39:42Z</time>
      </trkpt>
      <trkpt lat="44.09751" lon="7.71569">
        <ele>1862</ele>
        <time>2017-09-17T14:39:43Z</time>
      </trkpt>
      <trkpt lat="44.09749" lon="7.71573">
        <ele>1862</ele>
        <time>2017-09-17T14:39:44Z</time>
      </trkpt>
      <trkpt lat="44.09747" lon="7.71577">
        <ele>1862</ele>
        <time>2017-09-17T14:39:45Z</time>
      </trkpt>
      <trkpt lat="44.09745" lon="7.71581">
        <ele>1862</ele>
        <time>2017-09-17T14:39:46Z</time>
      </trkpt>
      <trkpt lat="44.09743" lon="7.71585">
        <ele>1862</ele>
        <time>2017-09-17T14:39:47Z</time>
      </trkpt>
      <trkpt lat="44.0974" lon="7.71588">
        <ele>1862</ele>
        <time>2017-09-17T14:39:48Z</time>
      </trkpt>
      <trkpt lat="44.09738" lon="7.71592">
        <ele>1862</ele>
        <time>2017-09-17T14:39:49Z</time>
      </trkpt>
      <trkpt lat="44.09735" lon="7.71596">
        <ele>1863</ele>
        <time>2017-09-17T14:39:50Z</time>
      </trkpt>
      <trkpt lat="44.09732" lon="7.71599">
        <ele>1863</ele>
        <time>2017-09-17T14:39:51Z</time>
      </trkpt>
      <trkpt lat="44.09729" lon="7.71603">
        <ele>1863</ele>
        <time>2017-09-17T14:39:52Z</time>
      </trkpt>
      <trkpt lat="44.09727" lon="7.71607">
        <ele>1864</ele>
        <time>2017-09-17T14:39:53Z</time>
      </trkpt>
      <trkpt lat="44.09724" lon="7.71611">
        <ele>1864</ele>
        <time>2017-09-17T14:39:54Z</time>
      </trkpt>
      <trkpt lat="44.09721" lon="7.71614">
        <ele>1865</ele>
        <time>2017-09-17T14:39:55Z</time>
      </trkpt>
      <trkpt lat="44.09719" lon="7.71617">
        <ele>1865</ele>
        <time>2017-09-17T14:39:56Z</time>
      </trkpt>
      <trkpt lat="44.09716" lon="7.71621">
        <ele>1865</ele>
        <time>2017-09-17T14:39:57Z</time>
      </trkpt>
      <trkpt lat="44.09714" lon="7.71624">
        <ele>1866</ele>
        <time>2017-09-17T14:39:58Z</time>
      </trkpt>
      <trkpt lat="44.09712" lon="7.71627">
        <ele>1866</ele>
        <time>2017-09-17T14:39:59Z</time>
      </trkpt>
      <trkpt lat="44.0971" lon="7.7163">
        <ele>1867</ele>
        <time>2017-09-17T14:40:00Z</time>
      </trkpt>
      <trkpt lat="44.09708" lon="7.71633">
        <ele>1867</ele>
        <time>2017-09-17T14:40:01Z</time>
      </trkpt>
      <trkpt lat="44.09705" lon="7.71637">
        <ele>1867</ele>
        <time>2017-09-17T14:40:02Z</time>
      </trkpt>
      <trkpt lat="44.09703" lon="7.71642">
        <ele>1867</ele>
        <time>2017-09-17T14:40:03Z</time>
      </trkpt>
      <trkpt lat="44.097" lon="7.71647">
        <ele>1868</ele>
        <time>2017-09-17T14:40:04Z</time>
      </trkpt>
      <trkpt lat="44.09697" lon="7.71652">
        <ele>1868</ele>
        <time>2017-09-17T14:40:05Z</time>
      </trkpt>
      <trkpt lat="44.09694" lon="7.71657">
        <ele>1868</ele>
        <time>2017-09-17T14:40:06Z</time>
      </trkpt>
      <trkpt lat="44.09692" lon="7.71661">
        <ele>1868</ele>
        <time>2017-09-17T14:40:07Z</time>
      </trkpt>
      <trkpt lat="44.09689" lon="7.71666">
        <ele>1868</ele>
        <time>2017-09-17T14:40:08Z</time>
      </trkpt>
      <trkpt lat="44.09686" lon="7.71672">
        <ele>1868</ele>
        <time>2017-09-17T14:40:09Z</time>
      </trkpt>
      <trkpt lat="44.09683" lon="7.71677">
        <ele>1868</ele>
        <time>2017-09-17T14:40:10Z</time>
      </trkpt>
      <trkpt lat="44.0968" lon="7.71683">
        <ele>1868</ele>
        <time>2017-09-17T14:40:11Z</time>
      </trkpt>
      <trkpt lat="44.09676" lon="7.71689">
        <ele>1868</ele>
        <time>2017-09-17T14:40:12Z</time>
      </trkpt>
      <trkpt lat="44.09674" lon="7.71697">
        <ele>1868</ele>
        <time>2017-09-17T14:40:13Z</time>
      </trkpt>
      <trkpt lat="44.09672" lon="7.71705">
        <ele>1868</ele>
        <time>2017-09-17T14:40:14Z</time>
      </trkpt>
      <trkpt lat="44.09672" lon="7.71714">
        <ele>1867</ele>
        <time>2017-09-17T14:40:15Z</time>
      </trkpt>
      <trkpt lat="44.09672" lon="7.71725">
        <ele>1867</ele>
        <time>2017-09-17T14:40:16Z</time>
      </trkpt>
      <trkpt lat="44.09672" lon="7.71735">
        <ele>1867</ele>
        <time>2017-09-17T14:40:17Z</time>
      </trkpt>
      <trkpt lat="44.09673" lon="7.71747">
        <ele>1866</ele>
        <time>2017-09-17T14:40:18Z</time>
      </trkpt>
      <trkpt lat="44.09672" lon="7.71758">
        <ele>1866</ele>
        <time>2017-09-17T14:40:19Z</time>
      </trkpt>
      <trkpt lat="44.09671" lon="7.71769">
        <ele>1865</ele>
        <time>2017-09-17T14:40:20Z</time>
      </trkpt>
      <trkpt lat="44.0967" lon="7.71782">
        <ele>1865</ele>
        <time>2017-09-17T14:40:21Z</time>
      </trkpt>
      <trkpt lat="44.09669" lon="7.71794">
        <ele>1864</ele>
        <time>2017-09-17T14:40:22Z</time>
      </trkpt>
      <trkpt lat="44.09667" lon="7.71807">
        <ele>1864</ele>
        <time>2017-09-17T14:40:23Z</time>
      </trkpt>
      <trkpt lat="44.09665" lon="7.7182">
        <ele>1863</ele>
        <time>2017-09-17T14:40:24Z</time>
      </trkpt>
      <trkpt lat="44.09663" lon="7.71833">
        <ele>1863</ele>
        <time>2017-09-17T14:40:25Z</time>
      </trkpt>
      <trkpt lat="44.0966" lon="7.71846">
        <ele>1862</ele>
        <time>2017-09-17T14:40:26Z</time>
      </trkpt>
      <trkpt lat="44.09658" lon="7.7186">
        <ele>1861</ele>
        <time>2017-09-17T14:40:27Z</time>
      </trkpt>
      <trkpt lat="44.09657" lon="7.71874">
        <ele>1861</ele>
        <time>2017-09-17T14:40:28Z</time>
      </trkpt>
      <trkpt lat="44.09656" lon="7.71888">
        <ele>1860</ele>
        <time>2017-09-17T14:40:29Z</time>
      </trkpt>
      <trkpt lat="44.09655" lon="7.71902">
        <ele>1859</ele>
        <time>2017-09-17T14:40:30Z</time>
      </trkpt>
      <trkpt lat="44.09653" lon="7.71917">
        <ele>1858</ele>
        <time>2017-09-17T14:40:31Z</time>
      </trkpt>
      <trkpt lat="44.09651" lon="7.71931">
        <ele>1858</ele>
        <time>2017-09-17T14:40:32Z</time>
      </trkpt>
      <trkpt lat="44.09649" lon="7.71943">
        <ele>1857</ele>
        <time>2017-09-17T14:40:33Z</time>
      </trkpt>
      <trkpt lat="44.09647" lon="7.71954">
        <ele>1856</ele>
        <time>2017-09-17T14:40:34Z</time>
      </trkpt>
      <trkpt lat="44.09644" lon="7.71963">
        <ele>1856</ele>
        <time>2017-09-17T14:40:35Z</time>
      </trkpt>
      <trkpt lat="44.09639" lon="7.71971">
        <ele>1855</ele>
        <time>2017-09-17T14:40:36Z</time>
      </trkpt>
      <trkpt lat="44.09634" lon="7.7198">
        <ele>1854</ele>
        <time>2017-09-17T14:40:37Z</time>
      </trkpt>
      <trkpt lat="44.09629" lon="7.71988">
        <ele>1853</ele>
        <time>2017-09-17T14:40:38Z</time>
      </trkpt>
      <trkpt lat="44.09625" lon="7.71998">
        <ele>1853</ele>
        <time>2017-09-17T14:40:39Z</time>
      </trkpt>
      <trkpt lat="44.09622" lon="7.7201">
        <ele>1852</ele>
        <time>2017-09-17T14:40:40Z</time>
      </trkpt>
      <trkpt lat="44.09621" lon="7.72022">
        <ele>1851</ele>
        <time>2017-09-17T14:40:41Z</time>
      </trkpt>
      <trkpt lat="44.0962" lon="7.72035">
        <ele>1850</ele>
        <time>2017-09-17T14:40:42Z</time>
      </trkpt>
      <trkpt lat="44.0962" lon="7.72049">
        <ele>1849</ele>
        <time>2017-09-17T14:40:43Z</time>
      </trkpt>
      <trkpt lat="44.0962" lon="7.72063">
        <ele>1848</ele>
        <time>2017-09-17T14:40:44Z</time>
      </trkpt>
      <trkpt lat="44.09618" lon="7.72077">
        <ele>1847</ele>
        <time>2017-09-17T14:40:45Z</time>
      </trkpt>
      <trkpt lat="44.09616" lon="7.72091">
        <ele>1846</ele>
        <time>2017-09-17T14:40:46Z</time>
      </trkpt>
      <trkpt lat="44.09613" lon="7.72106">
        <ele>1845</ele>
        <time>2017-09-17T14:40:47Z</time>
      </trkpt>
      <trkpt lat="44.0961" lon="7.7212">
        <ele>1844</ele>
        <time>2017-09-17T14:40:48Z</time>
      </trkpt>
      <trkpt lat="44.09607" lon="7.72135">
        <ele>1843</ele>
        <time>2017-09-17T14:40:49Z</time>
      </trkpt>
      <trkpt lat="44.09605" lon="7.7215">
        <ele>1842</ele>
        <time>2017-09-17T14:40:50Z</time>
      </trkpt>
      <trkpt lat="44.09604" lon="7.72165">
        <ele>1841</ele>
        <time>2017-09-17T14:40:51Z</time>
      </trkpt>
      <trkpt lat="44.09604" lon="7.72181">
        <ele>1840</ele>
        <time>2017-09-17T14:40:52Z</time>
      </trkpt>
      <trkpt lat="44.09605" lon="7.72195">
        <ele>1838</ele>
        <time>2017-09-17T14:40:53Z</time>
      </trkpt>
      <trkpt lat="44.09607" lon="7.72209">
        <ele>1837</ele>
        <time>2017-09-17T14:40:54Z</time>
      </trkpt>
      <trkpt lat="44.09608" lon="7.72225">
        <ele>1836</ele>
        <time>2017-09-17T14:40:55Z</time>
      </trkpt>
      <trkpt lat="44.09608" lon="7.7224">
        <ele>1835</ele>
        <time>2017-09-17T14:40:56Z</time>
      </trkpt>
      <trkpt lat="44.09606" lon="7.72255">
        <ele>1834</ele>
        <time>2017-09-17T14:40:57Z</time>
      </trkpt>
      <trkpt lat="44.09603" lon="7.72269">
        <ele>1833</ele>
        <time>2017-09-17T14:40:58Z</time>
      </trkpt>
      <trkpt lat="44.09599" lon="7.72282">
        <ele>1832</ele>
        <time>2017-09-17T14:40:59Z</time>
      </trkpt>
      <trkpt lat="44.09593" lon="7.72291">
        <ele>1832</ele>
        <time>2017-09-17T14:41:00Z</time>
      </trkpt>
      <trkpt lat="44.09587" lon="7.72298">
        <ele>1831</ele>
        <time>2017-09-17T14:41:01Z</time>
      </trkpt>
      <trkpt lat="44.09579" lon="7.72302">
        <ele>1831</ele>
        <time>2017-09-17T14:41:02Z</time>
      </trkpt>
      <trkpt lat="44.09571" lon="7.72303">
        <ele>1831</ele>
        <time>2017-09-17T14:41:03Z</time>
      </trkpt>
      <trkpt lat="44.09564" lon="7.72303">
        <ele>1831</ele>
        <time>2017-09-17T14:41:04Z</time>
      </trkpt>
      <trkpt lat="44.09557" lon="7.72301">
        <ele>1831</ele>
        <time>2017-09-17T14:41:05Z</time>
      </trkpt>
      <trkpt lat="44.0955" lon="7.72296">
        <ele>1830</ele>
        <time>2017-09-17T14:41:06Z</time>
      </trkpt>
      <trkpt lat="44.09545" lon="7.7229">
        <ele>1830</ele>
        <time>2017-09-17T14:41:07Z</time>
      </trkpt>
      <trkpt lat="44.09541" lon="7.72283">
        <ele>1830</ele>
        <time>2017-09-17T14:41:08Z</time>
      </trkpt>
      <trkpt lat="44.09537" lon="7.72276">
        <ele>1830</ele>
        <time>2017-09-17T14:41:09Z</time>
      </trkpt>
      <trkpt lat="44.09532" lon="7.7227">
        <ele>1829</ele>
        <time>2017-09-17T14:41:10Z</time>
      </trkpt>
      <trkpt lat="44.09526" lon="7.72264">
        <ele>1829</ele>
        <time>2017-09-17T14:41:11Z</time>
      </trkpt>
      <trkpt lat="44.0952" lon="7.72259">
        <ele>1829</ele>
        <time>2017-09-17T14:41:12Z</time>
      </trkpt>
      <trkpt lat="44.09514" lon="7.72255">
        <ele>1829</ele>
        <time>2017-09-17T14:41:13Z</time>
      </trkpt>
      <trkpt lat="44.09508" lon="7.72252">
        <ele>1829</ele>
        <time>2017-09-17T14:41:14Z</time>
      </trkpt>
      <trkpt lat="44.09502" lon="7.72248">
        <ele>1830</ele>
        <time>2017-09-17T14:41:15Z</time>
      </trkpt>
      <trkpt lat="44.09497" lon="7.72244">
        <ele>1830</ele>
        <time>2017-09-17T14:41:16Z</time>
      </trkpt>
      <trkpt lat="44.09491" lon="7.72239">
        <ele>1830</ele>
        <time>2017-09-17T14:41:17Z</time>
      </trkpt>
      <trkpt lat="44.09487" lon="7.72234">
        <ele>1830</ele>
        <time>2017-09-17T14:41:18Z</time>
      </trkpt>
      <trkpt lat="44.09482" lon="7.72228">
        <ele>1830</ele>
        <time>2017-09-17T14:41:19Z</time>
      </trkpt>
      <trkpt lat="44.09477" lon="7.72223">
        <ele>1830</ele>
        <time>2017-09-17T14:41:20Z</time>
      </trkpt>
      <trkpt lat="44.09471" lon="7.72218">
        <ele>1830</ele>
        <time>2017-09-17T14:41:21Z</time>
      </trkpt>
      <trkpt lat="44.09466" lon="7.72213">
        <ele>1830</ele>
        <time>2017-09-17T14:41:22Z</time>
      </trkpt>
      <trkpt lat="44.0946" lon="7.7221">
        <ele>1830</ele>
        <time>2017-09-17T14:41:23Z</time>
      </trkpt>
      <trkpt lat="44.09454" lon="7.72207">
        <ele>1830</ele>
        <time>2017-09-17T14:41:24Z</time>
      </trkpt>
      <trkpt lat="44.09448" lon="7.72204">
        <ele>1830</ele>
        <time>2017-09-17T14:41:25Z</time>
      </trkpt>
      <trkpt lat="44.09442" lon="7.722">
        <ele>1830</ele>
        <time>2017-09-17T14:41:26Z</time>
      </trkpt>
      <trkpt lat="44.09436" lon="7.72196">
        <ele>1830</ele>
        <time>2017-09-17T14:41:27Z</time>
      </trkpt>
      <trkpt lat="44.0943" lon="7.72192">
        <ele>1830</ele>
        <time>2017-09-17T14:41:28Z</time>
      </trkpt>
      <trkpt lat="44.09423" lon="7.72189">
        <ele>1829</ele>
        <time>2017-09-17T14:41:29Z</time>
      </trkpt>
      <trkpt lat="44.09417" lon="7.72185">
        <ele>1829</ele>
        <time>2017-09-17T14:41:30Z</time>
      </trkpt>
      <trkpt lat="44.0941" lon="7.72183">
        <ele>1829</ele>
        <time>2017-09-17T14:41:31Z</time>
      </trkpt>
      <trkpt lat="44.09404" lon="7.72182">
        <ele>1829</ele>
        <time>2017-09-17T14:41:32Z</time>
      </trkpt>
      <trkpt lat="44.09398" lon="7.72182">
        <ele>1829</ele>
        <time>2017-09-17T14:41:33Z</time>
      </trkpt>
      <trkpt lat="44.09392" lon="7.72184">
        <ele>1829</ele>
        <time>2017-09-17T14:41:34Z</time>
      </trkpt>
      <trkpt lat="44.09386" lon="7.72187">
        <ele>1828</ele>
        <time>2017-09-17T14:41:35Z</time>
      </trkpt>
      <trkpt lat="44.09381" lon="7.7219">
        <ele>1828</ele>
        <time>2017-09-17T14:41:36Z</time>
      </trkpt>
      <trkpt lat="44.09376" lon="7.72193">
        <ele>1828</ele>
        <time>2017-09-17T14:41:37Z</time>
      </trkpt>
      <trkpt lat="44.09371" lon="7.72196">
        <ele>1828</ele>
        <time>2017-09-17T14:41:38Z</time>
      </trkpt>
      <trkpt lat="44.09366" lon="7.72198">
        <ele>1827</ele>
        <time>2017-09-17T14:41:39Z</time>
      </trkpt>
      <trkpt lat="44.0936" lon="7.722">
        <ele>1827</ele>
        <time>2017-09-17T14:41:40Z</time>
      </trkpt>
      <trkpt lat="44.09355" lon="7.72201">
        <ele>1827</ele>
        <time>2017-09-17T14:41:41Z</time>
      </trkpt>
      <trkpt lat="44.09349" lon="7.72201">
        <ele>1827</ele>
        <time>2017-09-17T14:41:42Z</time>
      </trkpt>
      <trkpt lat="44.09344" lon="7.72201">
        <ele>1827</ele>
        <time>2017-09-17T14:41:43Z</time>
      </trkpt>
      <trkpt lat="44.09338" lon="7.72199">
        <ele>1827</ele>
        <time>2017-09-17T14:41:44Z</time>
      </trkpt>
      <trkpt lat="44.09333" lon="7.72196">
        <ele>1827</ele>
        <time>2017-09-17T14:41:45Z</time>
      </trkpt>
      <trkpt lat="44.09328" lon="7.72194">
        <ele>1827</ele>
        <time>2017-09-17T14:41:46Z</time>
      </trkpt>
      <trkpt lat="44.09324" lon="7.7219">
        <ele>1827</ele>
        <time>2017-09-17T14:41:47Z</time>
      </trkpt>
      <trkpt lat="44.09319" lon="7.72186">
        <ele>1827</ele>
        <time>2017-09-17T14:41:48Z</time>
      </trkpt>
      <trkpt lat="44.09315" lon="7.72182">
        <ele>1828</ele>
        <time>2017-09-17T14:41:49Z</time>
      </trkpt>
      <trkpt lat="44.09311" lon="7.72178">
        <ele>1828</ele>
        <time>2017-09-17T14:41:50Z</time>
      </trkpt>
      <trkpt lat="44.09307" lon="7.72174">
        <ele>1828</ele>
        <time>2017-09-17T14:41:51Z</time>
      </trkpt>
      <trkpt lat="44.09303" lon="7.72169">
        <ele>1828</ele>
        <time>2017-09-17T14:41:52Z</time>
      </trkpt>
      <trkpt lat="44.093" lon="7.72165">
        <ele>1828</ele>
        <time>2017-09-17T14:41:53Z</time>
      </trkpt>
      <trkpt lat="44.09296" lon="7.72161">
        <ele>1828</ele>
        <time>2017-09-17T14:41:54Z</time>
      </trkpt>
      <trkpt lat="44.09293" lon="7.72156">
        <ele>1828</ele>
        <time>2017-09-17T14:41:55Z</time>
      </trkpt>
      <trkpt lat="44.0929" lon="7.72152">
        <ele>1828</ele>
        <time>2017-09-17T14:41:56Z</time>
      </trkpt>
      <trkpt lat="44.09287" lon="7.72147">
        <ele>1829</ele>
        <time>2017-09-17T14:41:57Z</time>
      </trkpt>
      <trkpt lat="44.09285" lon="7.72143">
        <ele>1829</ele>
        <time>2017-09-17T14:41:58Z</time>
      </trkpt>
      <trkpt lat="44.09283" lon="7.72139">
        <ele>1829</ele>
        <time>2017-09-17T14:41:59Z</time>
      </trkpt>
      <trkpt lat="44.0928" lon="7.72135">
        <ele>1829</ele>
        <time>2017-09-17T14:42:00Z</time>
      </trkpt>
      <trkpt lat="44.09278" lon="7.72131">
        <ele>1830</ele>
        <time>2017-09-17T14:42:01Z</time>
      </trkpt>
      <trkpt lat="44.09276" lon="7.72127">
        <ele>1830</ele>
        <time>2017-09-17T14:42:02Z</time>
      </trkpt>
      <trkpt lat="44.09274" lon="7.72123">
        <ele>1830</ele>
        <time>2017-09-17T14:42:03Z</time>
      </trkpt>
      <trkpt lat="44.09271" lon="7.72119">
        <ele>1830</ele>
        <time>2017-09-17T14:42:04Z</time>
      </trkpt>
      <trkpt lat="44.09268" lon="7.72115">
        <ele>1830</ele>
        <time>2017-09-17T14:42:05Z</time>
      </trkpt>
      <trkpt lat="44.09265" lon="7.72111">
        <ele>1831</ele>
        <time>2017-09-17T14:42:06Z</time>
      </trkpt>
      <trkpt lat="44.09262" lon="7.72108">
        <ele>1831</ele>
        <time>2017-09-17T14:42:07Z</time>
      </trkpt>
      <trkpt lat="44.09259" lon="7.72105">
        <ele>1831</ele>
        <time>2017-09-17T14:42:08Z</time>
      </trkpt>
      <trkpt lat="44.09256" lon="7.72101">
        <ele>1831</ele>
        <time>2017-09-17T14:42:09Z</time>
      </trkpt>
      <trkpt lat="44.09252" lon="7.72098">
        <ele>1832</ele>
        <time>2017-09-17T14:42:10Z</time>
      </trkpt>
      <trkpt lat="44.09249" lon="7.72096">
        <ele>1832</ele>
        <time>2017-09-17T14:42:11Z</time>
      </trkpt>
      <trkpt lat="44.09245" lon="7.72093">
        <ele>1832</ele>
        <time>2017-09-17T14:42:12Z</time>
      </trkpt>
      <trkpt lat="44.09241" lon="7.72091">
        <ele>1832</ele>
        <time>2017-09-17T14:42:13Z</time>
      </trkpt>
      <trkpt lat="44.09238" lon="7.72089">
        <ele>1832</ele>
        <time>2017-09-17T14:42:14Z</time>
      </trkpt>
      <trkpt lat="44.09234" lon="7.72088">
        <ele>1833</ele>
        <time>2017-09-17T14:42:15Z</time>
      </trkpt>
      <trkpt lat="44.0923" lon="7.72086">
        <ele>1833</ele>
        <time>2017-09-17T14:42:16Z</time>
      </trkpt>
      <trkpt lat="44.09226" lon="7.72084">
        <ele>1833</ele>
        <time>2017-09-17T14:42:17Z</time>
      </trkpt>
      <trkpt lat="44.09222" lon="7.72083">
        <ele>1833</ele>
        <time>2017-09-17T14:42:18Z</time>
      </trkpt>
      <trkpt lat="44.09218" lon="7.72082">
        <ele>1833</ele>
        <time>2017-09-17T14:42:19Z</time>
      </trkpt>
      <trkpt lat="44.09214" lon="7.72081">
        <ele>1834</ele>
        <time>2017-09-17T14:42:20Z</time>
      </trkpt>
      <trkpt lat="44.0921" lon="7.72081">
        <ele>1834</ele>
        <time>2017-09-17T14:42:21Z</time>
      </trkpt>
      <trkpt lat="44.09206" lon="7.72082">
        <ele>1834</ele>
        <time>2017-09-17T14:42:22Z</time>
      </trkpt>
      <trkpt lat="44.09202" lon="7.72083">
        <ele>1834</ele>
        <time>2017-09-17T14:42:23Z</time>
      </trkpt>
      <trkpt lat="44.09199" lon="7.72084">
        <ele>1834</ele>
        <time>2017-09-17T14:42:24Z</time>
      </trkpt>
      <trkpt lat="44.09195" lon="7.72086">
        <ele>1834</ele>
        <time>2017-09-17T14:42:25Z</time>
      </trkpt>
      <trkpt lat="44.09191" lon="7.72088">
        <ele>1834</ele>
        <time>2017-09-17T14:42:26Z</time>
      </trkpt>
      <trkpt lat="44.09188" lon="7.72089">
        <ele>1834</ele>
        <time>2017-09-17T14:42:27Z</time>
      </trkpt>
      <trkpt lat="44.09184" lon="7.7209">
        <ele>1835</ele>
        <time>2017-09-17T14:42:28Z</time>
      </trkpt>
      <trkpt lat="44.0918" lon="7.72091">
        <ele>1835</ele>
        <time>2017-09-17T14:42:29Z</time>
      </trkpt>
      <trkpt lat="44.09177" lon="7.72091">
        <ele>1835</ele>
        <time>2017-09-17T14:42:30Z</time>
      </trkpt>
      <trkpt lat="44.09173" lon="7.7209">
        <ele>1835</ele>
        <time>2017-09-17T14:42:31Z</time>
      </trkpt>
      <trkpt lat="44.09169" lon="7.72089">
        <ele>1835</ele>
        <time>2017-09-17T14:42:32Z</time>
      </trkpt>
      <trkpt lat="44.09165" lon="7.72088">
        <ele>1835</ele>
        <time>2017-09-17T14:42:33Z</time>
      </trkpt>
      <trkpt lat="44.09162" lon="7.72087">
        <ele>1836</ele>
        <time>2017-09-17T14:42:34Z</time>
      </trkpt>
      <trkpt lat="44.09158" lon="7.72086">
        <ele>1836</ele>
        <time>2017-09-17T14:42:35Z</time>
      </trkpt>
      <trkpt lat="44.09155" lon="7.72084">
        <ele>1836</ele>
        <time>2017-09-17T14:42:36Z</time>
      </trkpt>
      <trkpt lat="44.09151" lon="7.72082">
        <ele>1836</ele>
        <time>2017-09-17T14:42:37Z</time>
      </trkpt>
      <trkpt lat="44.09147" lon="7.7208">
        <ele>1836</ele>
        <time>2017-09-17T14:42:38Z</time>
      </trkpt>
      <trkpt lat="44.09143" lon="7.72078">
        <ele>1836</ele>
        <time>2017-09-17T14:42:39Z</time>
      </trkpt>
      <trkpt lat="44.09138" lon="7.72076">
        <ele>1836</ele>
        <time>2017-09-17T14:42:40Z</time>
      </trkpt>
      <trkpt lat="44.09133" lon="7.72074">
        <ele>1836</ele>
        <time>2017-09-17T14:42:41Z</time>
      </trkpt>
      <trkpt lat="44.09127" lon="7.72072">
        <ele>1836</ele>
        <time>2017-09-17T14:42:42Z</time>
      </trkpt>
      <trkpt lat="44.09122" lon="7.72069">
        <ele>1836</ele>
        <time>2017-09-17T14:42:43Z</time>
      </trkpt>
      <trkpt lat="44.09117" lon="7.72067">
        <ele>1836</ele>
        <time>2017-09-17T14:42:44Z</time>
      </trkpt>
      <trkpt lat="44.09111" lon="7.72065">
        <ele>1836</ele>
        <time>2017-09-17T14:42:45Z</time>
      </trkpt>
      <trkpt lat="44.09106" lon="7.72062">
        <ele>1836</ele>
        <time>2017-09-17T14:42:46Z</time>
      </trkpt>
      <trkpt lat="44.09101" lon="7.72059">
        <ele>1836</ele>
        <time>2017-09-17T14:42:47Z</time>
      </trkpt>
      <trkpt lat="44.09096" lon="7.72056">
        <ele>1836</ele>
        <time>2017-09-17T14:42:48Z</time>
      </trkpt>
      <trkpt lat="44.09091" lon="7.72053">
        <ele>1836</ele>
        <time>2017-09-17T14:42:49Z</time>
      </trkpt>
      <trkpt lat="44.09086" lon="7.7205">
        <ele>1836</ele>
        <time>2017-09-17T14:42:50Z</time>
      </trkpt>
      <trkpt lat="44.0908" lon="7.72049">
        <ele>1836</ele>
        <time>2017-09-17T14:42:51Z</time>
      </trkpt>
      <trkpt lat="44.09074" lon="7.72047">
        <ele>1836</ele>
        <time>2017-09-17T14:42:52Z</time>
      </trkpt>
      <trkpt lat="44.09069" lon="7.72044">
        <ele>1835</ele>
        <time>2017-09-17T14:42:53Z</time>
      </trkpt>
      <trkpt lat="44.09064" lon="7.7204">
        <ele>1835</ele>
        <time>2017-09-17T14:42:54Z</time>
      </trkpt>
      <trkpt lat="44.09058" lon="7.72036">
        <ele>1835</ele>
        <time>2017-09-17T14:42:55Z</time>
      </trkpt>
      <trkpt lat="44.09053" lon="7.72032">
        <ele>1835</ele>
        <time>2017-09-17T14:42:56Z</time>
      </trkpt>
      <trkpt lat="44.09049" lon="7.72028">
        <ele>1835</ele>
        <time>2017-09-17T14:42:57Z</time>
      </trkpt>
      <trkpt lat="44.09044" lon="7.72023">
        <ele>1835</ele>
        <time>2017-09-17T14:42:58Z</time>
      </trkpt>
      <trkpt lat="44.09039" lon="7.72019">
        <ele>1835</ele>
        <time>2017-09-17T14:42:59Z</time>
      </trkpt>
      <trkpt lat="44.09034" lon="7.72015">
        <ele>1835</ele>
        <time>2017-09-17T14:43:00Z</time>
      </trkpt>
      <trkpt lat="44.09029" lon="7.72012">
        <ele>1835</ele>
        <time>2017-09-17T14:43:01Z</time>
      </trkpt>
      <trkpt lat="44.09023" lon="7.72011">
        <ele>1835</ele>
        <time>2017-09-17T14:43:02Z</time>
      </trkpt>
      <trkpt lat="44.09017" lon="7.72012">
        <ele>1835</ele>
        <time>2017-09-17T14:43:03Z</time>
      </trkpt>
      <trkpt lat="44.09012" lon="7.72015">
        <ele>1835</ele>
        <time>2017-09-17T14:43:04Z</time>
      </trkpt>
      <trkpt lat="44.09007" lon="7.72021">
        <ele>1835</ele>
        <time>2017-09-17T14:43:05Z</time>
      </trkpt>
      <trkpt lat="44.09004" lon="7.72029">
        <ele>1835</ele>
        <time>2017-09-17T14:43:06Z</time>
      </trkpt>
      <trkpt lat="44.09002" lon="7.72037">
        <ele>1834</ele>
        <time>2017-09-17T14:43:07Z</time>
      </trkpt>
      <trkpt lat="44.09001" lon="7.72045">
        <ele>1834</ele>
        <time>2017-09-17T14:43:08Z</time>
      </trkpt>
      <trkpt lat="44.08999" lon="7.72054">
        <ele>1834</ele>
        <time>2017-09-17T14:43:09Z</time>
      </trkpt>
      <trkpt lat="44.08997" lon="7.72063">
        <ele>1834</ele>
        <time>2017-09-17T14:43:10Z</time>
      </trkpt>
      <trkpt lat="44.08995" lon="7.72072">
        <ele>1834</ele>
        <time>2017-09-17T14:43:11Z</time>
      </trkpt>
      <trkpt lat="44.08993" lon="7.72081">
        <ele>1834</ele>
        <time>2017-09-17T14:43:12Z</time>
      </trkpt>
      <trkpt lat="44.08991" lon="7.7209">
        <ele>1833</ele>
        <time>2017-09-17T14:43:13Z</time>
      </trkpt>
      <trkpt lat="44.08989" lon="7.72099">
        <ele>1833</ele>
        <time>2017-09-17T14:43:14Z</time>
      </trkpt>
      <trkpt lat="44.08988" lon="7.72108">
        <ele>1833</ele>
        <time>2017-09-17T14:43:15Z</time>
      </trkpt>
      <trkpt lat="44.08986" lon="7.72117">
        <ele>1833</ele>
        <time>2017-09-17T14:43:16Z</time>
      </trkpt>
      <trkpt lat="44.08985" lon="7.72126">
        <ele>1833</ele>
        <time>2017-09-17T14:43:17Z</time>
      </trkpt>
      <trkpt lat="44.08984" lon="7.72135">
        <ele>1832</ele>
        <time>2017-09-17T14:43:18Z</time>
      </trkpt>
      <trkpt lat="44.08983" lon="7.72145">
        <ele>1832</ele>
        <time>2017-09-17T14:43:19Z</time>
      </trkpt>
      <trkpt lat="44.08983" lon="7.72153">
        <ele>1832</ele>
        <time>2017-09-17T14:43:20Z</time>
      </trkpt>
      <trkpt lat="44.08982" lon="7.72162">
        <ele>1832</ele>
        <time>2017-09-17T14:43:21Z</time>
      </trkpt>
      <trkpt lat="44.0898" lon="7.7217">
        <ele>1831</ele>
        <time>2017-09-17T14:43:22Z</time>
      </trkpt>
      <trkpt lat="44.08976" lon="7.72177">
        <ele>1831</ele>
        <time>2017-09-17T14:43:23Z</time>
      </trkpt>
      <trkpt lat="44.08971" lon="7.72182">
        <ele>1831</ele>
        <time>2017-09-17T14:43:24Z</time>
      </trkpt>
      <trkpt lat="44.08965" lon="7.72184">
        <ele>1831</ele>
        <time>2017-09-17T14:43:25Z</time>
      </trkpt>
      <trkpt lat="44.08959" lon="7.72188">
        <ele>1831</ele>
        <time>2017-09-17T14:43:26Z</time>
      </trkpt>
      <trkpt lat="44.08955" lon="7.72193">
        <ele>1831</ele>
        <time>2017-09-17T14:43:27Z</time>
      </trkpt>
      <trkpt lat="44.08951" lon="7.722">
        <ele>1830</ele>
        <time>2017-09-17T14:43:28Z</time>
      </trkpt>
      <trkpt lat="44.08947" lon="7.72208">
        <ele>1830</ele>
        <time>2017-09-17T14:43:29Z</time>
      </trkpt>
      <trkpt lat="44.08944" lon="7.72215">
        <ele>1830</ele>
        <time>2017-09-17T14:43:30Z</time>
      </trkpt>
      <trkpt lat="44.08942" lon="7.72223">
        <ele>1830</ele>
        <time>2017-09-17T14:43:31Z</time>
      </trkpt>
      <trkpt lat="44.08939" lon="7.7223">
        <ele>1830</ele>
        <time>2017-09-17T14:43:32Z</time>
      </trkpt>
      <trkpt lat="44.08936" lon="7.72238">
        <ele>1830</ele>
        <time>2017-09-17T14:43:33Z</time>
      </trkpt>
      <trkpt lat="44.08932" lon="7.72244">
        <ele>1830</ele>
        <time>2017-09-17T14:43:34Z</time>
      </trkpt>
      <trkpt lat="44.08927" lon="7.7225">
        <ele>1830</ele>
        <time>2017-09-17T14:43:35Z</time>
      </trkpt>
      <trkpt lat="44.08921" lon="7.72253">
        <ele>1830</ele>
        <time>2017-09-17T14:43:36Z</time>
      </trkpt>
      <trkpt lat="44.08915" lon="7.72254">
        <ele>1830</ele>
        <time>2017-09-17T14:43:37Z</time>
      </trkpt>
      <trkpt lat="44.08908" lon="7.72256">
        <ele>1830</ele>
        <time>2017-09-17T14:43:38Z</time>
      </trkpt>
      <trkpt lat="44.08901" lon="7.72258">
        <ele>1829</ele>
        <time>2017-09-17T14:43:39Z</time>
      </trkpt>
      <trkpt lat="44.08894" lon="7.7226">
        <ele>1829</ele>
        <time>2017-09-17T14:43:40Z</time>
      </trkpt>
      <trkpt lat="44.08888" lon="7.72261">
        <ele>1829</ele>
        <time>2017-09-17T14:43:41Z</time>
      </trkpt>
      <trkpt lat="44.0888" lon="7.72261">
        <ele>1829</ele>
        <time>2017-09-17T14:43:42Z</time>
      </trkpt>
      <trkpt lat="44.08873" lon="7.72262">
        <ele>1828</ele>
        <time>2017-09-17T14:43:43Z</time>
      </trkpt>
      <trkpt lat="44.08866" lon="7.72262">
        <ele>1828</ele>
        <time>2017-09-17T14:43:44Z</time>
      </trkpt>
      <trkpt lat="44.0886" lon="7.72264">
        <ele>1828</ele>
        <time>2017-09-17T14:43:45Z</time>
      </trkpt>
      <trkpt lat="44.08853" lon="7.72265">
        <ele>1827</ele>
        <time>2017-09-17T14:43:46Z</time>
      </trkpt>
      <trkpt lat="44.08846" lon="7.72268">
        <ele>1827</ele>
        <time>2017-09-17T14:43:47Z</time>
      </trkpt>
      <trkpt lat="44.0884" lon="7.72272">
        <ele>1827</ele>
        <time>2017-09-17T14:43:48Z</time>
      </trkpt>
      <trkpt lat="44.08834" lon="7.72277">
        <ele>1826</ele>
        <time>2017-09-17T14:43:49Z</time>
      </trkpt>
      <trkpt lat="44.08828" lon="7.72283">
        <ele>1826</ele>
        <time>2017-09-17T14:43:50Z</time>
      </trkpt>
      <trkpt lat="44.08823" lon="7.7229">
        <ele>1826</ele>
        <time>2017-09-17T14:43:51Z</time>
      </trkpt>
      <trkpt lat="44.08818" lon="7.72297">
        <ele>1826</ele>
        <time>2017-09-17T14:43:52Z</time>
      </trkpt>
      <trkpt lat="44.08815" lon="7.72306">
        <ele>1826</ele>
        <time>2017-09-17T14:43:53Z</time>
      </trkpt>
      <trkpt lat="44.08812" lon="7.72315">
        <ele>1826</ele>
        <time>2017-09-17T14:43:54Z</time>
      </trkpt>
      <trkpt lat="44.08809" lon="7.72325">
        <ele>1825</ele>
        <time>2017-09-17T14:43:55Z</time>
      </trkpt>
      <trkpt lat="44.08808" lon="7.72335">
        <ele>1825</ele>
        <time>2017-09-17T14:43:56Z</time>
      </trkpt>
      <trkpt lat="44.08807" lon="7.72345">
        <ele>1825</ele>
        <time>2017-09-17T14:43:57Z</time>
      </trkpt>
      <trkpt lat="44.08807" lon="7.72355">
        <ele>1825</ele>
        <time>2017-09-17T14:43:58Z</time>
      </trkpt>
      <trkpt lat="44.08806" lon="7.72366">
        <ele>1825</ele>
        <time>2017-09-17T14:43:59Z</time>
      </trkpt>
      <trkpt lat="44.08806" lon="7.72376">
        <ele>1825</ele>
        <time>2017-09-17T14:44:00Z</time>
      </trkpt>
      <trkpt lat="44.08806" lon="7.72386">
        <ele>1825</ele>
        <time>2017-09-17T14:44:01Z</time>
      </trkpt>
      <trkpt lat="44.08807" lon="7.72396">
        <ele>1825</ele>
        <time>2017-09-17T14:44:02Z</time>
      </trkpt>
      <trkpt lat="44.08808" lon="7.72406">
        <ele>1825</ele>
        <time>2017-09-17T14:44:03Z</time>
      </trkpt>
      <trkpt lat="44.0881" lon="7.72416">
        <ele>1824</ele>
        <time>2017-09-17T14:44:04Z</time>
      </trkpt>
      <trkpt lat="44.08811" lon="7.72426">
        <ele>1824</ele>
        <time>2017-09-17T14:44:05Z</time>
      </trkpt>
      <trkpt lat="44.08813" lon="7.72436">
        <ele>1824</ele>
        <time>2017-09-17T14:44:06Z</time>
      </trkpt>
      <trkpt lat="44.08814" lon="7.72446">
        <ele>1824</ele>
        <time>2017-09-17T14:44:07Z</time>
      </trkpt>
      <trkpt lat="44.08814" lon="7.72455">
        <ele>1824</ele>
        <time>2017-09-17T14:44:08Z</time>
      </trkpt>
      <trkpt lat="44.08813" lon="7.72465">
        <ele>1824</ele>
        <time>2017-09-17T14:44:09Z</time>
      </trkpt>
      <trkpt lat="44.08812" lon="7.72474">
        <ele>1824</ele>
        <time>2017-09-17T14:44:10Z</time>
      </trkpt>
      <trkpt lat="44.08811" lon="7.72483">
        <ele>1823</ele>
        <time>2017-09-17T14:44:11Z</time>
      </trkpt>
      <trkpt lat="44.0881" lon="7.72492">
        <ele>1823</ele>
        <time>2017-09-17T14:44:12Z</time>
      </trkpt>
      <trkpt lat="44.08808" lon="7.72501">
        <ele>1823</ele>
        <time>2017-09-17T14:44:13Z</time>
      </trkpt>
      <trkpt lat="44.08807" lon="7.7251">
        <ele>1823</ele>
        <time>2017-09-17T14:44:14Z</time>
      </trkpt>
      <trkpt lat="44.08805" lon="7.7252">
        <ele>1822</ele>
        <time>2017-09-17T14:44:15Z</time>
      </trkpt>
      <trkpt lat="44.08803" lon="7.72529">
        <ele>1822</ele>
        <time>2017-09-17T14:44:16Z</time>
      </trkpt>
      <trkpt lat="44.08801" lon="7.72539">
        <ele>1822</ele>
        <time>2017-09-17T14:44:17Z</time>
      </trkpt>
      <trkpt lat="44.088" lon="7.7255">
        <ele>1822</ele>
        <time>2017-09-17T14:44:18Z</time>
      </trkpt>
      <trkpt lat="44.08798" lon="7.7256">
        <ele>1821</ele>
        <time>2017-09-17T14:44:19Z</time>
      </trkpt>
      <trkpt lat="44.08796" lon="7.7257">
        <ele>1821</ele>
        <time>2017-09-17T14:44:20Z</time>
      </trkpt>
      <trkpt lat="44.08794" lon="7.72581">
        <ele>1821</ele>
        <time>2017-09-17T14:44:21Z</time>
      </trkpt>
      <trkpt lat="44.08792" lon="7.72592">
        <ele>1820</ele>
        <time>2017-09-17T14:44:22Z</time>
      </trkpt>
      <trkpt lat="44.0879" lon="7.72602">
        <ele>1820</ele>
        <time>2017-09-17T14:44:23Z</time>
      </trkpt>
      <trkpt lat="44.08788" lon="7.72613">
        <ele>1820</ele>
        <time>2017-09-17T14:44:24Z</time>
      </trkpt>
      <trkpt lat="44.08786" lon="7.72623">
        <ele>1819</ele>
        <time>2017-09-17T14:44:25Z</time>
      </trkpt>
      <trkpt lat="44.08783" lon="7.72634">
        <ele>1819</ele>
        <time>2017-09-17T14:44:26Z</time>
      </trkpt>
      <trkpt lat="44.08781" lon="7.72644">
        <ele>1819</ele>
        <time>2017-09-17T14:44:27Z</time>
      </trkpt>
      <trkpt lat="44.08778" lon="7.72654">
        <ele>1819</ele>
        <time>2017-09-17T14:44:28Z</time>
      </trkpt>
      <trkpt lat="44.08775" lon="7.72664">
        <ele>1819</ele>
        <time>2017-09-17T14:44:29Z</time>
      </trkpt>
      <trkpt lat="44.08771" lon="7.72673">
        <ele>1818</ele>
        <time>2017-09-17T14:44:30Z</time>
      </trkpt>
      <trkpt lat="44.08768" lon="7.72682">
        <ele>1818</ele>
        <time>2017-09-17T14:44:31Z</time>
      </trkpt>
      <trkpt lat="44.08765" lon="7.72691">
        <ele>1818</ele>
        <time>2017-09-17T14:44:32Z</time>
      </trkpt>
      <trkpt lat="44.08762" lon="7.72699">
        <ele>1818</ele>
        <time>2017-09-17T14:44:33Z</time>
      </trkpt>
      <trkpt lat="44.08759" lon="7.72707">
        <ele>1818</ele>
        <time>2017-09-17T14:44:34Z</time>
      </trkpt>
      <trkpt lat="44.08757" lon="7.72715">
        <ele>1818</ele>
        <time>2017-09-17T14:44:35Z</time>
      </trkpt>
      <trkpt lat="44.08754" lon="7.72723">
        <ele>1818</ele>
        <time>2017-09-17T14:44:36Z</time>
      </trkpt>
      <trkpt lat="44.08752" lon="7.72731">
        <ele>1818</ele>
        <time>2017-09-17T14:44:37Z</time>
      </trkpt>
      <trkpt lat="44.08749" lon="7.72738">
        <ele>1818</ele>
        <time>2017-09-17T14:44:38Z</time>
      </trkpt>
      <trkpt lat="44.08747" lon="7.72746">
        <ele>1818</ele>
        <time>2017-09-17T14:44:39Z</time>
      </trkpt>
      <trkpt lat="44.08744" lon="7.72752">
        <ele>1819</ele>
        <time>2017-09-17T14:44:40Z</time>
      </trkpt>
      <trkpt lat="44.08741" lon="7.72758">
        <ele>1819</ele>
        <time>2017-09-17T14:44:41Z</time>
      </trkpt>
      <trkpt lat="44.08739" lon="7.72763">
        <ele>1819</ele>
        <time>2017-09-17T14:44:42Z</time>
      </trkpt>
      <trkpt lat="44.08736" lon="7.72769">
        <ele>1819</ele>
        <time>2017-09-17T14:44:43Z</time>
      </trkpt>
      <trkpt lat="44.08733" lon="7.72775">
        <ele>1819</ele>
        <time>2017-09-17T14:44:44Z</time>
      </trkpt>
      <trkpt lat="44.0873" lon="7.72781">
        <ele>1819</ele>
        <time>2017-09-17T14:44:45Z</time>
      </trkpt>
      <trkpt lat="44.08726" lon="7.72788">
        <ele>1819</ele>
        <time>2017-09-17T14:44:46Z</time>
      </trkpt>
      <trkpt lat="44.08723" lon="7.72793">
        <ele>1819</ele>
        <time>2017-09-17T14:44:47Z</time>
      </trkpt>
      <trkpt lat="44.08721" lon="7.72799">
        <ele>1819</ele>
        <time>2017-09-17T14:44:48Z</time>
      </trkpt>
      <trkpt lat="44.08717" lon="7.72804">
        <ele>1819</ele>
        <time>2017-09-17T14:44:49Z</time>
      </trkpt>
      <trkpt lat="44.08714" lon="7.7281">
        <ele>1818</ele>
        <time>2017-09-17T14:44:50Z</time>
      </trkpt>
      <trkpt lat="44.0871" lon="7.72815">
        <ele>1818</ele>
        <time>2017-09-17T14:44:51Z</time>
      </trkpt>
      <trkpt lat="44.08707" lon="7.72821">
        <ele>1819</ele>
        <time>2017-09-17T14:44:52Z</time>
      </trkpt>
      <trkpt lat="44.08703" lon="7.72826">
        <ele>1819</ele>
        <time>2017-09-17T14:44:53Z</time>
      </trkpt>
      <trkpt lat="44.087" lon="7.72831">
        <ele>1819</ele>
        <time>2017-09-17T14:44:54Z</time>
      </trkpt>
      <trkpt lat="44.08696" lon="7.72838">
        <ele>1819</ele>
        <time>2017-09-17T14:44:55Z</time>
      </trkpt>
      <trkpt lat="44.08693" lon="7.72845">
        <ele>1820</ele>
        <time>2017-09-17T14:44:56Z</time>
      </trkpt>
      <trkpt lat="44.08689" lon="7.72851">
        <ele>1820</ele>
        <time>2017-09-17T14:44:57Z</time>
      </trkpt>
      <trkpt lat="44.08685" lon="7.72858">
        <ele>1821</ele>
        <time>2017-09-17T14:44:58Z</time>
      </trkpt>
      <trkpt lat="44.08682" lon="7.72864">
        <ele>1821</ele>
        <time>2017-09-17T14:44:59Z</time>
      </trkpt>
      <trkpt lat="44.08678" lon="7.7287">
        <ele>1822</ele>
        <time>2017-09-17T14:45:00Z</time>
      </trkpt>
      <trkpt lat="44.08675" lon="7.72876">
        <ele>1822</ele>
        <time>2017-09-17T14:45:01Z</time>
      </trkpt>
      <trkpt lat="44.08671" lon="7.72883">
        <ele>1823</ele>
        <time>2017-09-17T14:45:02Z</time>
      </trkpt>
      <trkpt lat="44.08668" lon="7.72889">
        <ele>1823</ele>
        <time>2017-09-17T14:45:03Z</time>
      </trkpt>
      <trkpt lat="44.08665" lon="7.72896">
        <ele>1824</ele>
        <time>2017-09-17T14:45:04Z</time>
      </trkpt>
      <trkpt lat="44.08663" lon="7.72902">
        <ele>1824</ele>
        <time>2017-09-17T14:45:05Z</time>
      </trkpt>
      <trkpt lat="44.0866" lon="7.72909">
        <ele>1824</ele>
        <time>2017-09-17T14:45:06Z</time>
      </trkpt>
      <trkpt lat="44.08657" lon="7.72916">
        <ele>1824</ele>
        <time>2017-09-17T14:45:07Z</time>
      </trkpt>
      <trkpt lat="44.08655" lon="7.72922">
        <ele>1825</ele>
        <time>2017-09-17T14:45:08Z</time>
      </trkpt>
      <trkpt lat="44.08651" lon="7.72928">
        <ele>1825</ele>
        <time>2017-09-17T14:45:09Z</time>
      </trkpt>
      <trkpt lat="44.08648" lon="7.72934">
        <ele>1825</ele>
        <time>2017-09-17T14:45:10Z</time>
      </trkpt>
      <trkpt lat="44.08644" lon="7.7294">
        <ele>1825</ele>
        <time>2017-09-17T14:45:11Z</time>
      </trkpt>
      <trkpt lat="44.0864" lon="7.72944">
        <ele>1826</ele>
        <time>2017-09-17T14:45:12Z</time>
      </trkpt>
      <trkpt lat="44.08635" lon="7.72948">
        <ele>1826</ele>
        <time>2017-09-17T14:45:13Z</time>
      </trkpt>
      <trkpt lat="44.0863" lon="7.72953">
        <ele>1826</ele>
        <time>2017-09-17T14:45:14Z</time>
      </trkpt>
      <trkpt lat="44.08625" lon="7.72956">
        <ele>1826</ele>
        <time>2017-09-17T14:45:15Z</time>
      </trkpt>
      <trkpt lat="44.0862" lon="7.7296">
        <ele>1826</ele>
        <time>2017-09-17T14:45:16Z</time>
      </trkpt>
      <trkpt lat="44.08614" lon="7.72963">
        <ele>1826</ele>
        <time>2017-09-17T14:45:17Z</time>
      </trkpt>
      <trkpt lat="44.08609" lon="7.72966">
        <ele>1826</ele>
        <time>2017-09-17T14:45:18Z</time>
      </trkpt>
      <trkpt lat="44.08604" lon="7.72969">
        <ele>1826</ele>
        <time>2017-09-17T14:45:19Z</time>
      </trkpt>
      <trkpt lat="44.08598" lon="7.72972">
        <ele>1826</ele>
        <time>2017-09-17T14:45:20Z</time>
      </trkpt>
      <trkpt lat="44.08593" lon="7.72974">
        <ele>1826</ele>
        <time>2017-09-17T14:45:21Z</time>
      </trkpt>
      <trkpt lat="44.08587" lon="7.72976">
        <ele>1826</ele>
        <time>2017-09-17T14:45:22Z</time>
      </trkpt>
      <trkpt lat="44.08582" lon="7.72977">
        <ele>1825</ele>
        <time>2017-09-17T14:45:23Z</time>
      </trkpt>
      <trkpt lat="44.08577" lon="7.72979">
        <ele>1825</ele>
        <time>2017-09-17T14:45:24Z</time>
      </trkpt>
      <trkpt lat="44.08571" lon="7.72981">
        <ele>1826</ele>
        <time>2017-09-17T14:45:25Z</time>
      </trkpt>
      <trkpt lat="44.08565" lon="7.72984">
        <ele>1826</ele>
        <time>2017-09-17T14:45:26Z</time>
      </trkpt>
      <trkpt lat="44.08561" lon="7.72988">
        <ele>1826</ele>
        <time>2017-09-17T14:45:27Z</time>
      </trkpt>
      <trkpt lat="44.08556" lon="7.72992">
        <ele>1826</ele>
        <time>2017-09-17T14:45:28Z</time>
      </trkpt>
      <trkpt lat="44.08552" lon="7.72997">
        <ele>1826</ele>
        <time>2017-09-17T14:45:29Z</time>
      </trkpt>
      <trkpt lat="44.08549" lon="7.73003">
        <ele>1826</ele>
        <time>2017-09-17T14:45:30Z</time>
      </trkpt>
      <trkpt lat="44.08545" lon="7.73009">
        <ele>1826</ele>
        <time>2017-09-17T14:45:31Z</time>
      </trkpt>
      <trkpt lat="44.08543" lon="7.73015">
        <ele>1826</ele>
        <time>2017-09-17T14:45:32Z</time>
      </trkpt>
      <trkpt lat="44.0854" lon="7.73022">
        <ele>1826</ele>
        <time>2017-09-17T14:45:33Z</time>
      </trkpt>
      <trkpt lat="44.08537" lon="7.73028">
        <ele>1826</ele>
        <time>2017-09-17T14:45:34Z</time>
      </trkpt>
      <trkpt lat="44.08535" lon="7.73034">
        <ele>1826</ele>
        <time>2017-09-17T14:45:35Z</time>
      </trkpt>
      <trkpt lat="44.08532" lon="7.73041">
        <ele>1826</ele>
        <time>2017-09-17T14:45:36Z</time>
      </trkpt>
      <trkpt lat="44.08529" lon="7.73047">
        <ele>1826</ele>
        <time>2017-09-17T14:45:37Z</time>
      </trkpt>
      <trkpt lat="44.08526" lon="7.73054">
        <ele>1826</ele>
        <time>2017-09-17T14:45:38Z</time>
      </trkpt>
      <trkpt lat="44.08524" lon="7.73061">
        <ele>1826</ele>
        <time>2017-09-17T14:45:39Z</time>
      </trkpt>
      <trkpt lat="44.08522" lon="7.73068">
        <ele>1827</ele>
        <time>2017-09-17T14:45:40Z</time>
      </trkpt>
      <trkpt lat="44.0852" lon="7.73075">
        <ele>1827</ele>
        <time>2017-09-17T14:45:41Z</time>
      </trkpt>
      <trkpt lat="44.08517" lon="7.73081">
        <ele>1827</ele>
        <time>2017-09-17T14:45:42Z</time>
      </trkpt>
      <trkpt lat="44.08514" lon="7.73088">
        <ele>1827</ele>
        <time>2017-09-17T14:45:43Z</time>
      </trkpt>
      <trkpt lat="44.08511" lon="7.73093">
        <ele>1827</ele>
        <time>2017-09-17T14:45:44Z</time>
      </trkpt>
      <trkpt lat="44.08507" lon="7.731">
        <ele>1827</ele>
        <time>2017-09-17T14:45:45Z</time>
      </trkpt>
      <trkpt lat="44.08503" lon="7.73106">
        <ele>1828</ele>
        <time>2017-09-17T14:45:46Z</time>
      </trkpt>
      <trkpt lat="44.085" lon="7.73112">
        <ele>1828</ele>
        <time>2017-09-17T14:45:47Z</time>
      </trkpt>
      <trkpt lat="44.08496" lon="7.73118">
        <ele>1828</ele>
        <time>2017-09-17T14:45:48Z</time>
      </trkpt>
      <trkpt lat="44.08492" lon="7.73124">
        <ele>1828</ele>
        <time>2017-09-17T14:45:49Z</time>
      </trkpt>
      <trkpt lat="44.08488" lon="7.73129">
        <ele>1829</ele>
        <time>2017-09-17T14:45:50Z</time>
      </trkpt>
      <trkpt lat="44.08484" lon="7.73135">
        <ele>1829</ele>
        <time>2017-09-17T14:45:51Z</time>
      </trkpt>
      <trkpt lat="44.0848" lon="7.7314">
        <ele>1829</ele>
        <time>2017-09-17T14:45:52Z</time>
      </trkpt>
      <trkpt lat="44.08476" lon="7.73145">
        <ele>1829</ele>
        <time>2017-09-17T14:45:53Z</time>
      </trkpt>
      <trkpt lat="44.08472" lon="7.7315">
        <ele>1829</ele>
        <time>2017-09-17T14:45:54Z</time>
      </trkpt>
      <trkpt lat="44.08468" lon="7.73155">
        <ele>1830</ele>
        <time>2017-09-17T14:45:55Z</time>
      </trkpt>
      <trkpt lat="44.08464" lon="7.73161">
        <ele>1830</ele>
        <time>2017-09-17T14:45:56Z</time>
      </trkpt>
      <trkpt lat="44.0846" lon="7.73167">
        <ele>1830</ele>
        <time>2017-09-17T14:45:57Z</time>
      </trkpt>
      <trkpt lat="44.08456" lon="7.73172">
        <ele>1830</ele>
        <time>2017-09-17T14:45:58Z</time>
      </trkpt>
      <trkpt lat="44.08452" lon="7.73177">
        <ele>1830</ele>
        <time>2017-09-17T14:45:59Z</time>
      </trkpt>
      <trkpt lat="44.08447" lon="7.73182">
        <ele>1830</ele>
        <time>2017-09-17T14:46:00Z</time>
      </trkpt>
      <trkpt lat="44.08442" lon="7.73188">
        <ele>1830</ele>
        <time>2017-09-17T14:46:01Z</time>
      </trkpt>
      <trkpt lat="44.08438" lon="7.73193">
        <ele>1830</ele>
        <time>2017-09-17T14:46:02Z</time>
      </trkpt>
      <trkpt lat="44.08433" lon="7.73198">
        <ele>1830</ele>
        <time>2017-09-17T14:46:03Z</time>
      </trkpt>
      <trkpt lat="44.08429" lon="7.73202">
        <ele>1830</ele>
        <time>2017-09-17T14:46:04Z</time>
      </trkpt>
      <trkpt lat="44.08424" lon="7.73208">
        <ele>1830</ele>
        <time>2017-09-17T14:46:05Z</time>
      </trkpt>
      <trkpt lat="44.08419" lon="7.73213">
        <ele>1830</ele>
        <time>2017-09-17T14:46:06Z</time>
      </trkpt>
      <trkpt lat="44.08414" lon="7.73218">
        <ele>1830</ele>
        <time>2017-09-17T14:46:07Z</time>
      </trkpt>
      <trkpt lat="44.08409" lon="7.73222">
        <ele>1830</ele>
        <time>2017-09-17T14:46:08Z</time>
      </trkpt>
      <trkpt lat="44.08404" lon="7.73227">
        <ele>1830</ele>
        <time>2017-09-17T14:46:09Z</time>
      </trkpt>
      <trkpt lat="44.084" lon="7.73233">
        <ele>1830</ele>
        <time>2017-09-17T14:46:10Z</time>
      </trkpt>
      <trkpt lat="44.08395" lon="7.73239">
        <ele>1829</ele>
        <time>2017-09-17T14:46:11Z</time>
      </trkpt>
      <trkpt lat="44.08391" lon="7.73244">
        <ele>1829</ele>
        <time>2017-09-17T14:46:12Z</time>
      </trkpt>
      <trkpt lat="44.08388" lon="7.73249">
        <ele>1829</ele>
        <time>2017-09-17T14:46:13Z</time>
      </trkpt>
      <trkpt lat="44.08384" lon="7.73255">
        <ele>1829</ele>
        <time>2017-09-17T14:46:14Z</time>
      </trkpt>
      <trkpt lat="44.0838" lon="7.73261">
        <ele>1829</ele>
        <time>2017-09-17T14:46:15Z</time>
      </trkpt>
      <trkpt lat="44.08376" lon="7.73267">
        <ele>1829</ele>
        <time>2017-09-17T14:46:16Z</time>
      </trkpt>
      <trkpt lat="44.08373" lon="7.73273">
        <ele>1830</ele>
        <time>2017-09-17T14:46:17Z</time>
      </trkpt>
      <trkpt lat="44.08369" lon="7.7328">
        <ele>1830</ele>
        <time>2017-09-17T14:46:18Z</time>
      </trkpt>
      <trkpt lat="44.08365" lon="7.73285">
        <ele>1830</ele>
        <time>2017-09-17T14:46:19Z</time>
      </trkpt>
      <trkpt lat="44.0836" lon="7.73289">
        <ele>1830</ele>
        <time>2017-09-17T14:46:20Z</time>
      </trkpt>
      <trkpt lat="44.08355" lon="7.73291">
        <ele>1830</ele>
        <time>2017-09-17T14:46:21Z</time>
      </trkpt>
      <trkpt lat="44.0835" lon="7.7329">
        <ele>1830</ele>
        <time>2017-09-17T14:46:22Z</time>
      </trkpt>
      <trkpt lat="44.08346" lon="7.73286">
        <ele>1830</ele>
        <time>2017-09-17T14:46:23Z</time>
      </trkpt>
      <trkpt lat="44.08343" lon="7.7328">
        <ele>1829</ele>
        <time>2017-09-17T14:46:24Z</time>
      </trkpt>
      <trkpt lat="44.08341" lon="7.73274">
        <ele>1829</ele>
        <time>2017-09-17T14:46:25Z</time>
      </trkpt>
      <trkpt lat="44.08339" lon="7.73268">
        <ele>1829</ele>
        <time>2017-09-17T14:46:26Z</time>
      </trkpt>
      <trkpt lat="44.08337" lon="7.73262">
        <ele>1829</ele>
        <time>2017-09-17T14:46:27Z</time>
      </trkpt>
      <trkpt lat="44.08335" lon="7.73256">
        <ele>1829</ele>
        <time>2017-09-17T14:46:28Z</time>
      </trkpt>
      <trkpt lat="44.08333" lon="7.7325">
        <ele>1829</ele>
        <time>2017-09-17T14:46:29Z</time>
      </trkpt>
      <trkpt lat="44.08331" lon="7.73243">
        <ele>1829</ele>
        <time>2017-09-17T14:46:30Z</time>
      </trkpt>
      <trkpt lat="44.08329" lon="7.73237">
        <ele>1829</ele>
        <time>2017-09-17T14:46:31Z</time>
      </trkpt>
      <trkpt lat="44.08327" lon="7.73231">
        <ele>1829</ele>
        <time>2017-09-17T14:46:32Z</time>
      </trkpt>
      <trkpt lat="44.08325" lon="7.73224">
        <ele>1829</ele>
        <time>2017-09-17T14:46:33Z</time>
      </trkpt>
      <trkpt lat="44.08322" lon="7.73218">
        <ele>1829</ele>
        <time>2017-09-17T14:46:34Z</time>
      </trkpt>
      <trkpt lat="44.08319" lon="7.73212">
        <ele>1829</ele>
        <time>2017-09-17T14:46:35Z</time>
      </trkpt>
      <trkpt lat="44.08317" lon="7.73206">
        <ele>1829</ele>
        <time>2017-09-17T14:46:36Z</time>
      </trkpt>
      <trkpt lat="44.08314" lon="7.732">
        <ele>1829</ele>
        <time>2017-09-17T14:46:37Z</time>
      </trkpt>
      <trkpt lat="44.08311" lon="7.73194">
        <ele>1829</ele>
        <time>2017-09-17T14:46:38Z</time>
      </trkpt>
      <trkpt lat="44.08308" lon="7.73189">
        <ele>1829</ele>
        <time>2017-09-17T14:46:39Z</time>
      </trkpt>
      <trkpt lat="44.08305" lon="7.73184">
        <ele>1829</ele>
        <time>2017-09-17T14:46:40Z</time>
      </trkpt>
      <trkpt lat="44.08301" lon="7.73178">
        <ele>1830</ele>
        <time>2017-09-17T14:46:41Z</time>
      </trkpt>
      <trkpt lat="44.08298" lon="7.73173">
        <ele>1830</ele>
        <time>2017-09-17T14:46:42Z</time>
      </trkpt>
      <trkpt lat="44.08296" lon="7.73167">
        <ele>1830</ele>
        <time>2017-09-17T14:46:43Z</time>
      </trkpt>
      <trkpt lat="44.08293" lon="7.73162">
        <ele>1830</ele>
        <time>2017-09-17T14:46:44Z</time>
      </trkpt>
      <trkpt lat="44.0829" lon="7.73156">
        <ele>1830</ele>
        <time>2017-09-17T14:46:45Z</time>
      </trkpt>
      <trkpt lat="44.08287" lon="7.73151">
        <ele>1830</ele>
        <time>2017-09-17T14:46:46Z</time>
      </trkpt>
      <trkpt lat="44.08284" lon="7.73146">
        <ele>1830</ele>
        <time>2017-09-17T14:46:47Z</time>
      </trkpt>
      <trkpt lat="44.08281" lon="7.73141">
        <ele>1830</ele>
        <time>2017-09-17T14:46:48Z</time>
      </trkpt>
      <trkpt lat="44.08278" lon="7.73136">
        <ele>1830</ele>
        <time>2017-09-17T14:46:49Z</time>
      </trkpt>
      <trkpt lat="44.08274" lon="7.73131">
        <ele>1830</ele>
        <time>2017-09-17T14:46:50Z</time>
      </trkpt>
      <trkpt lat="44.08271" lon="7.73126">
        <ele>1830</ele>
        <time>2017-09-17T14:46:51Z</time>
      </trkpt>
      <trkpt lat="44.08267" lon="7.73122">
        <ele>1830</ele>
        <time>2017-09-17T14:46:52Z</time>
      </trkpt>
      <trkpt lat="44.08262" lon="7.73118">
        <ele>1831</ele>
        <time>2017-09-17T14:46:53Z</time>
      </trkpt>
      <trkpt lat="44.08258" lon="7.73114">
        <ele>1831</ele>
        <time>2017-09-17T14:46:54Z</time>
      </trkpt>
      <trkpt lat="44.08255" lon="7.73109">
        <ele>1831</ele>
        <time>2017-09-17T14:46:55Z</time>
      </trkpt>
      <trkpt lat="44.08251" lon="7.73105">
        <ele>1831</ele>
        <time>2017-09-17T14:46:56Z</time>
      </trkpt>
      <trkpt lat="44.08249" lon="7.731">
        <ele>1831</ele>
        <time>2017-09-17T14:46:57Z</time>
      </trkpt>
      <trkpt lat="44.08247" lon="7.73097">
        <ele>1831</ele>
        <time>2017-09-17T14:46:58Z</time>
      </trkpt>
      <trkpt lat="44.08246" lon="7.73097">
        <ele>1831</ele>
        <time>2017-09-17T14:46:59Z</time>
      </trkpt>
      <trkpt lat="44.08246" lon="7.73097">
        <ele>1831</ele>
        <time>2017-09-17T14:47:00Z</time>
      </trkpt>
      <trkpt lat="44.08246" lon="7.73097">
        <ele>1831</ele>
        <time>2017-09-17T14:47:01Z</time>
      </trkpt>
      <trkpt lat="44.08246" lon="7.73097">
        <ele>1831</ele>
        <time>2017-09-17T14:47:02Z</time>
      </trkpt>
      <trkpt lat="44.08246" lon="7.73097">
        <ele>1831</ele>
        <time>2017-09-17T14:47:03Z</time>
      </trkpt>
      <trkpt lat="44.08246" lon="7.73097">
        <ele>1831</ele>
        <time>2017-09-17T14:47:04Z</time>
      </trkpt>
      <trkpt lat="44.08246" lon="7.73097">
        <ele>1831</ele>
        <time>2017-09-17T14:47:05Z</time>
      </trkpt>
      <trkpt lat="44.08246" lon="7.73097">
        <ele>1831</ele>
        <time>2017-09-17T14:47:06Z</time>
      </trkpt>
      <trkpt lat="44.08246" lon="7.73097">
        <ele>1831</ele>
        <time>2017-09-17T14:47:07Z</time>
      </trkpt>
      <trkpt lat="44.08246" lon="7.73097">
        <ele>1831</ele>
        <time>2017-09-17T14:47:08Z</time>
      </trkpt>
      <trkpt lat="44.08246" lon="7.73097">
        <ele>1831</ele>
        <time>2017-09-17T14:47:09Z</time>
      </trkpt>
      <trkpt lat="44.08246" lon="7.73097">
        <ele>1831</ele>
        <time>2017-09-17T14:47:10Z</time>
      </trkpt>
      <trkpt lat="44.08246" lon="7.73097">
        <ele>1831</ele>
        <time>2017-09-17T14:47:11Z</time>
      </trkpt>
      <trkpt lat="44.08246" lon="7.73097">
        <ele>1831</ele>
        <time>2017-09-17T14:47:12Z</time>
      </trkpt>
      <trkpt lat="44.08246" lon="7.73097">
        <ele>1831</ele>
        <time>2017-09-17T14:47:13Z</time>
      </trkpt>
      <trkpt lat="44.08246" lon="7.73097">
        <ele>1831</ele>
        <time>2017-09-17T14:47:14Z</time>
      </trkpt>
      <trkpt lat="44.08246" lon="7.73097">
        <ele>1831</ele>
        <time>2017-09-17T14:47:15Z</time>
      </trkpt>
      <trkpt lat="44.08246" lon="7.73097">
        <ele>1831</ele>
        <time>2017-09-17T14:47:16Z</time>
      </trkpt>
      <trkpt lat="44.08246" lon="7.73097">
        <ele>1831</ele>
        <time>2017-09-17T14:47:17Z</time>
      </trkpt>
      <trkpt lat="44.08246" lon="7.73097">
        <ele>1831</ele>
        <time>2017-09-17T14:47:18Z</time>
      </trkpt>
      <trkpt lat="44.08246" lon="7.73097">
        <ele>1831</ele>
        <time>2017-09-17T14:47:19Z</time>
      </trkpt>
      <trkpt lat="44.08246" lon="7.73097">
        <ele>1831</ele>
        <time>2017-09-17T14:47:20Z</time>
      </trkpt>
      <trkpt lat="44.08246" lon="7.73097">
        <ele>1831</ele>
        <time>2017-09-17T14:47:21Z</time>
      </trkpt>
      <trkpt lat="44.08246" lon="7.73097">
        <ele>1831</ele>
        <time>2017-09-17T14:47:22Z</time>
      </trkpt>
      <trkpt lat="44.08246" lon="7.73097">
        <ele>1831</ele>
        <time>2017-09-17T14:47:23Z</time>
      </trkpt>
      <trkpt lat="44.08246" lon="7.73097">
        <ele>1831</ele>
        <time>2017-09-17T14:47:24Z</time>
      </trkpt>
      <trkpt lat="44.08246" lon="7.73097">
        <ele>1831</ele>
        <time>2017-09-17T14:47:25Z</time>
      </trkpt>
      <trkpt lat="44.08246" lon="7.73097">
        <ele>1831</ele>
        <time>2017-09-17T14:47:26Z</time>
      </trkpt>
      <trkpt lat="44.08246" lon="7.73097">
        <ele>1831</ele>
        <time>2017-09-17T14:47:27Z</time>
      </trkpt>
      <trkpt lat="44.08246" lon="7.73097">
        <ele>1831</ele>
        <time>2017-09-17T14:47:28Z</time>
      </trkpt>
      <trkpt lat="44.08246" lon="7.73097">
        <ele>1831</ele>
        <time>2017-09-17T14:47:29Z</time>
      </trkpt>
      <trkpt lat="44.08246" lon="7.73097">
        <ele>1831</ele>
        <time>2017-09-17T14:47:30Z</time>
      </trkpt>
      <trkpt lat="44.08246" lon="7.73097">
        <ele>1831</ele>
        <time>2017-09-17T14:47:31Z</time>
      </trkpt>
      <trkpt lat="44.08246" lon="7.73097">
        <ele>1831</ele>
        <time>2017-09-17T14:47:32Z</time>
      </trkpt>
      <trkpt lat="44.08246" lon="7.73097">
        <ele>1831</ele>
        <time>2017-09-17T14:47:33Z</time>
      </trkpt>
      <trkpt lat="44.08246" lon="7.73097">
        <ele>1831</ele>
        <time>2017-09-17T14:47:34Z</time>
      </trkpt>
      <trkpt lat="44.08246" lon="7.73097">
        <ele>1831</ele>
        <time>2017-09-17T14:47:35Z</time>
      </trkpt>
      <trkpt lat="44.08246" lon="7.73097">
        <ele>1831</ele>
        <time>2017-09-17T14:47:36Z</time>
      </trkpt>
      <trkpt lat="44.08246" lon="7.73097">
        <ele>1831</ele>
        <time>2017-09-17T14:47:37Z</time>
      </trkpt>
      <trkpt lat="44.08246" lon="7.73097">
        <ele>1831</ele>
        <time>2017-09-17T14:47:38Z</time>
      </trkpt>
      <trkpt lat="44.08246" lon="7.73097">
        <ele>1831</ele>
        <time>2017-09-17T14:47:39Z</time>
      </trkpt>
      <trkpt lat="44.08246" lon="7.73097">
        <ele>1831</ele>
        <time>2017-09-17T14:47:40Z</time>
      </trkpt>
      <trkpt lat="44.08246" lon="7.73097">
        <ele>1831</ele>
        <time>2017-09-17T14:47:41Z</time>
      </trkpt>
      <trkpt lat="44.08246" lon="7.73097">
        <ele>1831</ele>
        <time>2017-09-17T14:47:42Z</time>
      </trkpt>
      <trkpt lat="44.08246" lon="7.73097">
        <ele>1831</ele>
        <time>2017-09-17T14:47:43Z</time>
      </trkpt>
      <trkpt lat="44.08246" lon="7.73098">
        <ele>1831</ele>
        <time>2017-09-17T14:47:44Z</time>
      </trkpt>
      <trkpt lat="44.08246" lon="7.73098">
        <ele>1831</ele>
        <time>2017-09-17T14:47:45Z</time>
      </trkpt>
      <trkpt lat="44.08246" lon="7.73098">
        <ele>1831</ele>
        <time>2017-09-17T14:47:46Z</time>
      </trkpt>
      <trkpt lat="44.08246" lon="7.73098">
        <ele>1831</ele>
        <time>2017-09-17T14:47:47Z</time>
      </trkpt>
      <trkpt lat="44.08246" lon="7.73098">
        <ele>1831</ele>
        <time>2017-09-17T14:47:48Z</time>
      </trkpt>
      <trkpt lat="44.08246" lon="7.73098">
        <ele>1831</ele>
        <time>2017-09-17T14:47:49Z</time>
      </trkpt>
      <trkpt lat="44.08246" lon="7.73098">
        <ele>1831</ele>
        <time>2017-09-17T14:47:50Z</time>
      </trkpt>
      <trkpt lat="44.08246" lon="7.73098">
        <ele>1831</ele>
        <time>2017-09-17T14:47:51Z</time>
      </trkpt>
      <trkpt lat="44.08246" lon="7.73098">
        <ele>1831</ele>
        <time>2017-09-17T14:47:52Z</time>
      </trkpt>
      <trkpt lat="44.08246" lon="7.73098">
        <ele>1831</ele>
        <time>2017-09-17T14:47:53Z</time>
      </trkpt>
      <trkpt lat="44.08246" lon="7.73098">
        <ele>1831</ele>
        <time>2017-09-17T14:47:54Z</time>
      </trkpt>
      <trkpt lat="44.08246" lon="7.73098">
        <ele>1831</ele>
        <time>2017-09-17T14:47:55Z</time>
      </trkpt>
      <trkpt lat="44.08246" lon="7.73097">
        <ele>1831</ele>
        <time>2017-09-17T14:47:56Z</time>
      </trkpt>
      <trkpt lat="44.08245" lon="7.73096">
        <ele>1831</ele>
        <time>2017-09-17T14:47:57Z</time>
      </trkpt>
      <trkpt lat="44.08244" lon="7.73093">
        <ele>1831</ele>
        <time>2017-09-17T14:47:58Z</time>
      </trkpt>
      <trkpt lat="44.08243" lon="7.7309">
        <ele>1832</ele>
        <time>2017-09-17T14:47:59Z</time>
      </trkpt>
      <trkpt lat="44.08241" lon="7.73086">
        <ele>1832</ele>
        <time>2017-09-17T14:48:00Z</time>
      </trkpt>
      <trkpt lat="44.08239" lon="7.73081">
        <ele>1832</ele>
        <time>2017-09-17T14:48:01Z</time>
      </trkpt>
      <trkpt lat="44.08236" lon="7.73075">
        <ele>1832</ele>
        <time>2017-09-17T14:48:02Z</time>
      </trkpt>
      <trkpt lat="44.08234" lon="7.73068">
        <ele>1832</ele>
        <time>2017-09-17T14:48:03Z</time>
      </trkpt>
      <trkpt lat="44.08232" lon="7.73061">
        <ele>1832</ele>
        <time>2017-09-17T14:48:04Z</time>
      </trkpt>
      <trkpt lat="44.0823" lon="7.73054">
        <ele>1832</ele>
        <time>2017-09-17T14:48:05Z</time>
      </trkpt>
      <trkpt lat="44.08228" lon="7.73047">
        <ele>1832</ele>
        <time>2017-09-17T14:48:06Z</time>
      </trkpt>
      <trkpt lat="44.08226" lon="7.7304">
        <ele>1832</ele>
        <time>2017-09-17T14:48:07Z</time>
      </trkpt>
      <trkpt lat="44.08224" lon="7.73032">
        <ele>1832</ele>
        <time>2017-09-17T14:48:08Z</time>
      </trkpt>
      <trkpt lat="44.08222" lon="7.73026">
        <ele>1832</ele>
        <time>2017-09-17T14:48:09Z</time>
      </trkpt>
      <trkpt lat="44.0822" lon="7.73019">
        <ele>1832</ele>
        <time>2017-09-17T14:48:10Z</time>
      </trkpt>
      <trkpt lat="44.08217" lon="7.73012">
        <ele>1832</ele>
        <time>2017-09-17T14:48:11Z</time>
      </trkpt>
      <trkpt lat="44.08213" lon="7.73006">
        <ele>1833</ele>
        <time>2017-09-17T14:48:12Z</time>
      </trkpt>
      <trkpt lat="44.0821" lon="7.73">
        <ele>1833</ele>
        <time>2017-09-17T14:48:13Z</time>
      </trkpt>
      <trkpt lat="44.08206" lon="7.72994">
        <ele>1833</ele>
        <time>2017-09-17T14:48:14Z</time>
      </trkpt>
      <trkpt lat="44.08202" lon="7.72989">
        <ele>1833</ele>
        <time>2017-09-17T14:48:15Z</time>
      </trkpt>
      <trkpt lat="44.08198" lon="7.72983">
        <ele>1833</ele>
        <time>2017-09-17T14:48:16Z</time>
      </trkpt>
      <trkpt lat="44.08195" lon="7.72977">
        <ele>1833</ele>
        <time>2017-09-17T14:48:17Z</time>
      </trkpt>
      <trkpt lat="44.08191" lon="7.72972">
        <ele>1833</ele>
        <time>2017-09-17T14:48:18Z</time>
      </trkpt>
      <trkpt lat="44.08187" lon="7.72966">
        <ele>1833</ele>
        <time>2017-09-17T14:48:19Z</time>
      </trkpt>
      <trkpt lat="44.08184" lon="7.7296">
        <ele>1833</ele>
        <time>2017-09-17T14:48:20Z</time>
      </trkpt>
      <trkpt lat="44.08181" lon="7.72954">
        <ele>1833</ele>
        <time>2017-09-17T14:48:21Z</time>
      </trkpt>
      <trkpt lat="44.08178" lon="7.72947">
        <ele>1833</ele>
        <time>2017-09-17T14:48:22Z</time>
      </trkpt>
      <trkpt lat="44.08176" lon="7.72941">
        <ele>1833</ele>
        <time>2017-09-17T14:48:23Z</time>
      </trkpt>
      <trkpt lat="44.08173" lon="7.72934">
        <ele>1833</ele>
        <time>2017-09-17T14:48:24Z</time>
      </trkpt>
      <trkpt lat="44.08171" lon="7.72927">
        <ele>1833</ele>
        <time>2017-09-17T14:48:25Z</time>
      </trkpt>
      <trkpt lat="44.0817" lon="7.7292">
        <ele>1834</ele>
        <time>2017-09-17T14:48:26Z</time>
      </trkpt>
      <trkpt lat="44.08167" lon="7.72913">
        <ele>1834</ele>
        <time>2017-09-17T14:48:27Z</time>
      </trkpt>
      <trkpt lat="44.08164" lon="7.72907">
        <ele>1834</ele>
        <time>2017-09-17T14:48:28Z</time>
      </trkpt>
      <trkpt lat="44.0816" lon="7.72901">
        <ele>1834</ele>
        <time>2017-09-17T14:48:29Z</time>
      </trkpt>
      <trkpt lat="44.08156" lon="7.72897">
        <ele>1834</ele>
        <time>2017-09-17T14:48:30Z</time>
      </trkpt>
      <trkpt lat="44.08152" lon="7.72892">
        <ele>1834</ele>
        <time>2017-09-17T14:48:31Z</time>
      </trkpt>
      <trkpt lat="44.08148" lon="7.72888">
        <ele>1834</ele>
        <time>2017-09-17T14:48:32Z</time>
      </trkpt>
      <trkpt lat="44.08144" lon="7.72883">
        <ele>1834</ele>
        <time>2017-09-17T14:48:33Z</time>
      </trkpt>
      <trkpt lat="44.0814" lon="7.72878">
        <ele>1834</ele>
        <time>2017-09-17T14:48:34Z</time>
      </trkpt>
      <trkpt lat="44.08137" lon="7.72872">
        <ele>1834</ele>
        <time>2017-09-17T14:48:35Z</time>
      </trkpt>
      <trkpt lat="44.08132" lon="7.72867">
        <ele>1834</ele>
        <time>2017-09-17T14:48:36Z</time>
      </trkpt>
      <trkpt lat="44.08128" lon="7.72862">
        <ele>1834</ele>
        <time>2017-09-17T14:48:37Z</time>
      </trkpt>
      <trkpt lat="44.08123" lon="7.72858">
        <ele>1834</ele>
        <time>2017-09-17T14:48:38Z</time>
      </trkpt>
      <trkpt lat="44.08119" lon="7.72854">
        <ele>1834</ele>
        <time>2017-09-17T14:48:39Z</time>
      </trkpt>
      <trkpt lat="44.08114" lon="7.7285">
        <ele>1835</ele>
        <time>2017-09-17T14:48:40Z</time>
      </trkpt>
      <trkpt lat="44.0811" lon="7.72846">
        <ele>1835</ele>
        <time>2017-09-17T14:48:41Z</time>
      </trkpt>
      <trkpt lat="44.08105" lon="7.72842">
        <ele>1835</ele>
        <time>2017-09-17T14:48:42Z</time>
      </trkpt>
      <trkpt lat="44.08101" lon="7.72838">
        <ele>1835</ele>
        <time>2017-09-17T14:48:43Z</time>
      </trkpt>
      <trkpt lat="44.08096" lon="7.72834">
        <ele>1835</ele>
        <time>2017-09-17T14:48:44Z</time>
      </trkpt>
      <trkpt lat="44.08091" lon="7.7283">
        <ele>1835</ele>
        <time>2017-09-17T14:48:45Z</time>
      </trkpt>
      <trkpt lat="44.08086" lon="7.72826">
        <ele>1835</ele>
        <time>2017-09-17T14:48:46Z</time>
      </trkpt>
      <trkpt lat="44.08081" lon="7.72822">
        <ele>1835</ele>
        <time>2017-09-17T14:48:47Z</time>
      </trkpt>
      <trkpt lat="44.08077" lon="7.72818">
        <ele>1835</ele>
        <time>2017-09-17T14:48:48Z</time>
      </trkpt>
      <trkpt lat="44.08073" lon="7.72814">
        <ele>1835</ele>
        <time>2017-09-17T14:48:49Z</time>
      </trkpt>
      <trkpt lat="44.08069" lon="7.7281">
        <ele>1835</ele>
        <time>2017-09-17T14:48:50Z</time>
      </trkpt>
      <trkpt lat="44.08065" lon="7.72806">
        <ele>1835</ele>
        <time>2017-09-17T14:48:51Z</time>
      </trkpt>
      <trkpt lat="44.0806" lon="7.72803">
        <ele>1835</ele>
        <time>2017-09-17T14:48:52Z</time>
      </trkpt>
      <trkpt lat="44.08056" lon="7.728">
        <ele>1836</ele>
        <time>2017-09-17T14:48:53Z</time>
      </trkpt>
      <trkpt lat="44.08051" lon="7.72798">
        <ele>1836</ele>
        <time>2017-09-17T14:48:54Z</time>
      </trkpt>
      <trkpt lat="44.08045" lon="7.72796">
        <ele>1836</ele>
        <time>2017-09-17T14:48:55Z</time>
      </trkpt>
      <trkpt lat="44.0804" lon="7.72795">
        <ele>1836</ele>
        <time>2017-09-17T14:48:56Z</time>
      </trkpt>
      <trkpt lat="44.08035" lon="7.72794">
        <ele>1836</ele>
        <time>2017-09-17T14:48:57Z</time>
      </trkpt>
      <trkpt lat="44.08029" lon="7.72792">
        <ele>1836</ele>
        <time>2017-09-17T14:48:58Z</time>
      </trkpt>
      <trkpt lat="44.08024" lon="7.72789">
        <ele>1836</ele>
        <time>2017-09-17T14:48:59Z</time>
      </trkpt>
      <trkpt lat="44.08019" lon="7.72787">
        <ele>1836</ele>
        <time>2017-09-17T14:49:00Z</time>
      </trkpt>
      <trkpt lat="44.08014" lon="7.72785">
        <ele>1836</ele>
        <time>2017-09-17T14:49:01Z</time>
      </trkpt>
      <trkpt lat="44.08009" lon="7.72783">
        <ele>1836</ele>
        <time>2017-09-17T14:49:02Z</time>
      </trkpt>
      <trkpt lat="44.08004" lon="7.72781">
        <ele>1836</ele>
        <time>2017-09-17T14:49:03Z</time>
      </trkpt>
      <trkpt lat="44.07999" lon="7.7278">
        <ele>1836</ele>
        <time>2017-09-17T14:49:04Z</time>
      </trkpt>
      <trkpt lat="44.07995" lon="7.72777">
        <ele>1836</ele>
        <time>2017-09-17T14:49:05Z</time>
      </trkpt>
      <trkpt lat="44.07991" lon="7.72774">
        <ele>1836</ele>
        <time>2017-09-17T14:49:06Z</time>
      </trkpt>
      <trkpt lat="44.07987" lon="7.72769">
        <ele>1836</ele>
        <time>2017-09-17T14:49:07Z</time>
      </trkpt>
      <trkpt lat="44.07983" lon="7.72763">
        <ele>1836</ele>
        <time>2017-09-17T14:49:08Z</time>
      </trkpt>
      <trkpt lat="44.07981" lon="7.72757">
        <ele>1836</ele>
        <time>2017-09-17T14:49:09Z</time>
      </trkpt>
      <trkpt lat="44.07979" lon="7.7275">
        <ele>1836</ele>
        <time>2017-09-17T14:49:10Z</time>
      </trkpt>
      <trkpt lat="44.07977" lon="7.72744">
        <ele>1836</ele>
        <time>2017-09-17T14:49:11Z</time>
      </trkpt>
      <trkpt lat="44.07976" lon="7.72737">
        <ele>1836</ele>
        <time>2017-09-17T14:49:12Z</time>
      </trkpt>
      <trkpt lat="44.07974" lon="7.72731">
        <ele>1836</ele>
        <time>2017-09-17T14:49:13Z</time>
      </trkpt>
      <trkpt lat="44.07973" lon="7.72724">
        <ele>1836</ele>
        <time>2017-09-17T14:49:14Z</time>
      </trkpt>
      <trkpt lat="44.07972" lon="7.72717">
        <ele>1836</ele>
        <time>2017-09-17T14:49:15Z</time>
      </trkpt>
      <trkpt lat="44.07971" lon="7.7271">
        <ele>1836</ele>
        <time>2017-09-17T14:49:16Z</time>
      </trkpt>
      <trkpt lat="44.0797" lon="7.72703">
        <ele>1836</ele>
        <time>2017-09-17T14:49:17Z</time>
      </trkpt>
      <trkpt lat="44.07969" lon="7.72696">
        <ele>1836</ele>
        <time>2017-09-17T14:49:18Z</time>
      </trkpt>
      <trkpt lat="44.07969" lon="7.72688">
        <ele>1836</ele>
        <time>2017-09-17T14:49:19Z</time>
      </trkpt>
      <trkpt lat="44.07968" lon="7.72682">
        <ele>1836</ele>
        <time>2017-09-17T14:49:20Z</time>
      </trkpt>
      <trkpt lat="44.07968" lon="7.72675">
        <ele>1836</ele>
        <time>2017-09-17T14:49:21Z</time>
      </trkpt>
      <trkpt lat="44.07967" lon="7.72668">
        <ele>1837</ele>
        <time>2017-09-17T14:49:22Z</time>
      </trkpt>
      <trkpt lat="44.07967" lon="7.72661">
        <ele>1837</ele>
        <time>2017-09-17T14:49:23Z</time>
      </trkpt>
      <trkpt lat="44.07968" lon="7.72654">
        <ele>1837</ele>
        <time>2017-09-17T14:49:24Z</time>
      </trkpt>
      <trkpt lat="44.07968" lon="7.72647">
        <ele>1837</ele>
        <time>2017-09-17T14:49:25Z</time>
      </trkpt>
      <trkpt lat="44.07968" lon="7.7264">
        <ele>1837</ele>
        <time>2017-09-17T14:49:26Z</time>
      </trkpt>
      <trkpt lat="44.07968" lon="7.72634">
        <ele>1837</ele>
        <time>2017-09-17T14:49:27Z</time>
      </trkpt>
      <trkpt lat="44.07968" lon="7.72627">
        <ele>1837</ele>
        <time>2017-09-17T14:49:28Z</time>
      </trkpt>
      <trkpt lat="44.07968" lon="7.7262">
        <ele>1837</ele>
        <time>2017-09-17T14:49:29Z</time>
      </trkpt>
      <trkpt lat="44.07967" lon="7.72613">
        <ele>1838</ele>
        <time>2017-09-17T14:49:30Z</time>
      </trkpt>
      <trkpt lat="44.07965" lon="7.72606">
        <ele>1838</ele>
        <time>2017-09-17T14:49:31Z</time>
      </trkpt>
      <trkpt lat="44.07963" lon="7.726">
        <ele>1838</ele>
        <time>2017-09-17T14:49:32Z</time>
      </trkpt>
      <trkpt lat="44.07959" lon="7.72594">
        <ele>1838</ele>
        <time>2017-09-17T14:49:33Z</time>
      </trkpt>
      <trkpt lat="44.07955" lon="7.7259">
        <ele>1838</ele>
        <time>2017-09-17T14:49:34Z</time>
      </trkpt>
      <trkpt lat="44.0795" lon="7.72585">
        <ele>1838</ele>
        <time>2017-09-17T14:49:35Z</time>
      </trkpt>
      <trkpt lat="44.07946" lon="7.7258">
        <ele>1838</ele>
        <time>2017-09-17T14:49:36Z</time>
      </trkpt>
      <trkpt lat="44.07941" lon="7.72575">
        <ele>1838</ele>
        <time>2017-09-17T14:49:37Z</time>
      </trkpt>
      <trkpt lat="44.07938" lon="7.7257">
        <ele>1838</ele>
        <time>2017-09-17T14:49:38Z</time>
      </trkpt>
      <trkpt lat="44.07934" lon="7.72563">
        <ele>1838</ele>
        <time>2017-09-17T14:49:39Z</time>
      </trkpt>
      <trkpt lat="44.07931" lon="7.72557">
        <ele>1838</ele>
        <time>2017-09-17T14:49:40Z</time>
      </trkpt>
      <trkpt lat="44.07928" lon="7.72551">
        <ele>1838</ele>
        <time>2017-09-17T14:49:41Z</time>
      </trkpt>
      <trkpt lat="44.07926" lon="7.72544">
        <ele>1838</ele>
        <time>2017-09-17T14:49:42Z</time>
      </trkpt>
      <trkpt lat="44.07924" lon="7.72537">
        <ele>1838</ele>
        <time>2017-09-17T14:49:43Z</time>
      </trkpt>
      <trkpt lat="44.07922" lon="7.7253">
        <ele>1839</ele>
        <time>2017-09-17T14:49:44Z</time>
      </trkpt>
      <trkpt lat="44.0792" lon="7.72523">
        <ele>1839</ele>
        <time>2017-09-17T14:49:45Z</time>
      </trkpt>
      <trkpt lat="44.07918" lon="7.72517">
        <ele>1839</ele>
        <time>2017-09-17T14:49:46Z</time>
      </trkpt>
      <trkpt lat="44.07916" lon="7.7251">
        <ele>1839</ele>
        <time>2017-09-17T14:49:47Z</time>
      </trkpt>
      <trkpt lat="44.07913" lon="7.72503">
        <ele>1839</ele>
        <time>2017-09-17T14:49:48Z</time>
      </trkpt>
      <trkpt lat="44.07911" lon="7.72496">
        <ele>1839</ele>
        <time>2017-09-17T14:49:49Z</time>
      </trkpt>
      <trkpt lat="44.07909" lon="7.7249">
        <ele>1839</ele>
        <time>2017-09-17T14:49:50Z</time>
      </trkpt>
      <trkpt lat="44.07907" lon="7.72483">
        <ele>1839</ele>
        <time>2017-09-17T14:49:51Z</time>
      </trkpt>
      <trkpt lat="44.07905" lon="7.72476">
        <ele>1839</ele>
        <time>2017-09-17T14:49:52Z</time>
      </trkpt>
      <trkpt lat="44.07903" lon="7.72469">
        <ele>1839</ele>
        <time>2017-09-17T14:49:53Z</time>
      </trkpt>
      <trkpt lat="44.07901" lon="7.72462">
        <ele>1839</ele>
        <time>2017-09-17T14:49:54Z</time>
      </trkpt>
      <trkpt lat="44.07899" lon="7.72455">
        <ele>1840</ele>
        <time>2017-09-17T14:49:55Z</time>
      </trkpt>
      <trkpt lat="44.07896" lon="7.72448">
        <ele>1840</ele>
        <time>2017-09-17T14:49:56Z</time>
      </trkpt>
      <trkpt lat="44.07894" lon="7.72441">
        <ele>1840</ele>
        <time>2017-09-17T14:49:57Z</time>
      </trkpt>
      <trkpt lat="44.07892" lon="7.72435">
        <ele>1840</ele>
        <time>2017-09-17T14:49:58Z</time>
      </trkpt>
      <trkpt lat="44.0789" lon="7.72428">
        <ele>1840</ele>
        <time>2017-09-17T14:49:59Z</time>
      </trkpt>
      <trkpt lat="44.07888" lon="7.72421">
        <ele>1840</ele>
        <time>2017-09-17T14:50:00Z</time>
      </trkpt>
      <trkpt lat="44.07886" lon="7.72415">
        <ele>1840</ele>
        <time>2017-09-17T14:50:01Z</time>
      </trkpt>
      <trkpt lat="44.07884" lon="7.72408">
        <ele>1841</ele>
        <time>2017-09-17T14:50:02Z</time>
      </trkpt>
      <trkpt lat="44.07882" lon="7.72401">
        <ele>1841</ele>
        <time>2017-09-17T14:50:03Z</time>
      </trkpt>
      <trkpt lat="44.0788" lon="7.72395">
        <ele>1841</ele>
        <time>2017-09-17T14:50:04Z</time>
      </trkpt>
      <trkpt lat="44.07879" lon="7.72388">
        <ele>1841</ele>
        <time>2017-09-17T14:50:05Z</time>
      </trkpt>
      <trkpt lat="44.07877" lon="7.72382">
        <ele>1841</ele>
        <time>2017-09-17T14:50:06Z</time>
      </trkpt>
      <trkpt lat="44.07875" lon="7.72376">
        <ele>1841</ele>
        <time>2017-09-17T14:50:07Z</time>
      </trkpt>
      <trkpt lat="44.07872" lon="7.72369">
        <ele>1841</ele>
        <time>2017-09-17T14:50:08Z</time>
      </trkpt>
      <trkpt lat="44.07871" lon="7.72362">
        <ele>1841</ele>
        <time>2017-09-17T14:50:09Z</time>
      </trkpt>
      <trkpt lat="44.07869" lon="7.72355">
        <ele>1841</ele>
        <time>2017-09-17T14:50:10Z</time>
      </trkpt>
      <trkpt lat="44.07868" lon="7.72348">
        <ele>1841</ele>
        <time>2017-09-17T14:50:11Z</time>
      </trkpt>
      <trkpt lat="44.07867" lon="7.72341">
        <ele>1841</ele>
        <time>2017-09-17T14:50:12Z</time>
      </trkpt>
      <trkpt lat="44.07865" lon="7.72334">
        <ele>1841</ele>
        <time>2017-09-17T14:50:13Z</time>
      </trkpt>
      <trkpt lat="44.07863" lon="7.72327">
        <ele>1841</ele>
        <time>2017-09-17T14:50:14Z</time>
      </trkpt>
      <trkpt lat="44.07862" lon="7.72319">
        <ele>1842</ele>
        <time>2017-09-17T14:50:15Z</time>
      </trkpt>
      <trkpt lat="44.07861" lon="7.72312">
        <ele>1842</ele>
        <time>2017-09-17T14:50:16Z</time>
      </trkpt>
      <trkpt lat="44.07861" lon="7.72304">
        <ele>1842</ele>
        <time>2017-09-17T14:50:17Z</time>
      </trkpt>
      <trkpt lat="44.07861" lon="7.72297">
        <ele>1842</ele>
        <time>2017-09-17T14:50:18Z</time>
      </trkpt>
      <trkpt lat="44.0786" lon="7.72289">
        <ele>1842</ele>
        <time>2017-09-17T14:50:19Z</time>
      </trkpt>
      <trkpt lat="44.0786" lon="7.72282">
        <ele>1842</ele>
        <time>2017-09-17T14:50:20Z</time>
      </trkpt>
      <trkpt lat="44.07858" lon="7.72274">
        <ele>1842</ele>
        <time>2017-09-17T14:50:21Z</time>
      </trkpt>
      <trkpt lat="44.07855" lon="7.72268">
        <ele>1842</ele>
        <time>2017-09-17T14:50:22Z</time>
      </trkpt>
      <trkpt lat="44.07851" lon="7.72262">
        <ele>1842</ele>
        <time>2017-09-17T14:50:23Z</time>
      </trkpt>
      <trkpt lat="44.07847" lon="7.72257">
        <ele>1842</ele>
        <time>2017-09-17T14:50:24Z</time>
      </trkpt>
      <trkpt lat="44.07842" lon="7.72253">
        <ele>1842</ele>
        <time>2017-09-17T14:50:25Z</time>
      </trkpt>
      <trkpt lat="44.07837" lon="7.72249">
        <ele>1842</ele>
        <time>2017-09-17T14:50:26Z</time>
      </trkpt>
      <trkpt lat="44.07833" lon="7.72245">
        <ele>1842</ele>
        <time>2017-09-17T14:50:27Z</time>
      </trkpt>
      <trkpt lat="44.07828" lon="7.72242">
        <ele>1842</ele>
        <time>2017-09-17T14:50:28Z</time>
      </trkpt>
      <trkpt lat="44.07823" lon="7.72237">
        <ele>1842</ele>
        <time>2017-09-17T14:50:29Z</time>
      </trkpt>
      <trkpt lat="44.07819" lon="7.72233">
        <ele>1843</ele>
        <time>2017-09-17T14:50:30Z</time>
      </trkpt>
      <trkpt lat="44.07814" lon="7.72229">
        <ele>1843</ele>
        <time>2017-09-17T14:50:31Z</time>
      </trkpt>
      <trkpt lat="44.0781" lon="7.72225">
        <ele>1843</ele>
        <time>2017-09-17T14:50:32Z</time>
      </trkpt>
      <trkpt lat="44.07805" lon="7.72223">
        <ele>1843</ele>
        <time>2017-09-17T14:50:33Z</time>
      </trkpt>
      <trkpt lat="44.078" lon="7.7222">
        <ele>1843</ele>
        <time>2017-09-17T14:50:34Z</time>
      </trkpt>
      <trkpt lat="44.07794" lon="7.72219">
        <ele>1843</ele>
        <time>2017-09-17T14:50:35Z</time>
      </trkpt>
      <trkpt lat="44.07789" lon="7.72218">
        <ele>1843</ele>
        <time>2017-09-17T14:50:36Z</time>
      </trkpt>
      <trkpt lat="44.07783" lon="7.72218">
        <ele>1843</ele>
        <time>2017-09-17T14:50:37Z</time>
      </trkpt>
      <trkpt lat="44.07778" lon="7.72218">
        <ele>1843</ele>
        <time>2017-09-17T14:50:38Z</time>
      </trkpt>
      <trkpt lat="44.07773" lon="7.72217">
        <ele>1843</ele>
        <time>2017-09-17T14:50:39Z</time>
      </trkpt>
      <trkpt lat="44.07768" lon="7.72215">
        <ele>1843</ele>
        <time>2017-09-17T14:50:40Z</time>
      </trkpt>
      <trkpt lat="44.07764" lon="7.72211">
        <ele>1843</ele>
        <time>2017-09-17T14:50:41Z</time>
      </trkpt>
      <trkpt lat="44.0776" lon="7.72206">
        <ele>1843</ele>
        <time>2017-09-17T14:50:42Z</time>
      </trkpt>
      <trkpt lat="44.07757" lon="7.72201">
        <ele>1843</ele>
        <time>2017-09-17T14:50:43Z</time>
      </trkpt>
      <trkpt lat="44.07755" lon="7.72196">
        <ele>1843</ele>
        <time>2017-09-17T14:50:44Z</time>
      </trkpt>
      <trkpt lat="44.07751" lon="7.72191">
        <ele>1843</ele>
        <time>2017-09-17T14:50:45Z</time>
      </trkpt>
      <trkpt lat="44.07747" lon="7.72188">
        <ele>1843</ele>
        <time>2017-09-17T14:50:46Z</time>
      </trkpt>
      <trkpt lat="44.07742" lon="7.72186">
        <ele>1843</ele>
        <time>2017-09-17T14:50:47Z</time>
      </trkpt>
      <trkpt lat="44.07738" lon="7.72184">
        <ele>1843</ele>
        <time>2017-09-17T14:50:48Z</time>
      </trkpt>
      <trkpt lat="44.07733" lon="7.72182">
        <ele>1843</ele>
        <time>2017-09-17T14:50:49Z</time>
      </trkpt>
      <trkpt lat="44.07729" lon="7.72179">
        <ele>1843</ele>
        <time>2017-09-17T14:50:50Z</time>
      </trkpt>
      <trkpt lat="44.07724" lon="7.72177">
        <ele>1843</ele>
        <time>2017-09-17T14:50:51Z</time>
      </trkpt>
      <trkpt lat="44.07719" lon="7.72176">
        <ele>1843</ele>
        <time>2017-09-17T14:50:52Z</time>
      </trkpt>
      <trkpt lat="44.07714" lon="7.72174">
        <ele>1843</ele>
        <time>2017-09-17T14:50:53Z</time>
      </trkpt>
      <trkpt lat="44.0771" lon="7.72171">
        <ele>1843</ele>
        <time>2017-09-17T14:50:54Z</time>
      </trkpt>
      <trkpt lat="44.07706" lon="7.72167">
        <ele>1843</ele>
        <time>2017-09-17T14:50:55Z</time>
      </trkpt>
      <trkpt lat="44.07704" lon="7.72161">
        <ele>1843</ele>
        <time>2017-09-17T14:50:56Z</time>
      </trkpt>
      <trkpt lat="44.07703" lon="7.72155">
        <ele>1843</ele>
        <time>2017-09-17T14:50:57Z</time>
      </trkpt>
      <trkpt lat="44.07702" lon="7.72149">
        <ele>1843</ele>
        <time>2017-09-17T14:50:58Z</time>
      </trkpt>
      <trkpt lat="44.07701" lon="7.72142">
        <ele>1843</ele>
        <time>2017-09-17T14:50:59Z</time>
      </trkpt>
      <trkpt lat="44.07701" lon="7.72135">
        <ele>1843</ele>
        <time>2017-09-17T14:51:00Z</time>
      </trkpt>
      <trkpt lat="44.077" lon="7.72128">
        <ele>1843</ele>
        <time>2017-09-17T14:51:01Z</time>
      </trkpt>
      <trkpt lat="44.07699" lon="7.72121">
        <ele>1843</ele>
        <time>2017-09-17T14:51:02Z</time>
      </trkpt>
      <trkpt lat="44.07698" lon="7.72114">
        <ele>1843</ele>
        <time>2017-09-17T14:51:03Z</time>
      </trkpt>
      <trkpt lat="44.07695" lon="7.72108">
        <ele>1843</ele>
        <time>2017-09-17T14:51:04Z</time>
      </trkpt>
      <trkpt lat="44.07692" lon="7.72102">
        <ele>1843</ele>
        <time>2017-09-17T14:51:05Z</time>
      </trkpt>
      <trkpt lat="44.07688" lon="7.72097">
        <ele>1843</ele>
        <time>2017-09-17T14:51:06Z</time>
      </trkpt>
      <trkpt lat="44.07683" lon="7.72093">
        <ele>1843</ele>
        <time>2017-09-17T14:51:07Z</time>
      </trkpt>
      <trkpt lat="44.07678" lon="7.7209">
        <ele>1843</ele>
        <time>2017-09-17T14:51:08Z</time>
      </trkpt>
      <trkpt lat="44.07673" lon="7.72089">
        <ele>1843</ele>
        <time>2017-09-17T14:51:09Z</time>
      </trkpt>
      <trkpt lat="44.07667" lon="7.7209">
        <ele>1843</ele>
        <time>2017-09-17T14:51:10Z</time>
      </trkpt>
      <trkpt lat="44.07662" lon="7.72091">
        <ele>1844</ele>
        <time>2017-09-17T14:51:11Z</time>
      </trkpt>
      <trkpt lat="44.07657" lon="7.72093">
        <ele>1844</ele>
        <time>2017-09-17T14:51:12Z</time>
      </trkpt>
      <trkpt lat="44.07652" lon="7.72095">
        <ele>1844</ele>
        <time>2017-09-17T14:51:13Z</time>
      </trkpt>
      <trkpt lat="44.07647" lon="7.72097">
        <ele>1844</ele>
        <time>2017-09-17T14:51:14Z</time>
      </trkpt>
      <trkpt lat="44.07642" lon="7.72099">
        <ele>1844</ele>
        <time>2017-09-17T14:51:15Z</time>
      </trkpt>
      <trkpt lat="44.07638" lon="7.72101">
        <ele>1844</ele>
        <time>2017-09-17T14:51:16Z</time>
      </trkpt>
      <trkpt lat="44.07635" lon="7.72104">
        <ele>1844</ele>
        <time>2017-09-17T14:51:17Z</time>
      </trkpt>
      <trkpt lat="44.07631" lon="7.72108">
        <ele>1843</ele>
        <time>2017-09-17T14:51:18Z</time>
      </trkpt>
      <trkpt lat="44.07628" lon="7.72112">
        <ele>1843</ele>
        <time>2017-09-17T14:51:19Z</time>
      </trkpt>
      <trkpt lat="44.07624" lon="7.72117">
        <ele>1843</ele>
        <time>2017-09-17T14:51:20Z</time>
      </trkpt>
      <trkpt lat="44.0762" lon="7.72121">
        <ele>1843</ele>
        <time>2017-09-17T14:51:21Z</time>
      </trkpt>
      <trkpt lat="44.07616" lon="7.72126">
        <ele>1842</ele>
        <time>2017-09-17T14:51:22Z</time>
      </trkpt>
      <trkpt lat="44.07612" lon="7.72132">
        <ele>1842</ele>
        <time>2017-09-17T14:51:23Z</time>
      </trkpt>
      <trkpt lat="44.07608" lon="7.72138">
        <ele>1842</ele>
        <time>2017-09-17T14:51:24Z</time>
      </trkpt>
      <trkpt lat="44.07604" lon="7.72145">
        <ele>1841</ele>
        <time>2017-09-17T14:51:25Z</time>
      </trkpt>
      <trkpt lat="44.076" lon="7.72152">
        <ele>1841</ele>
        <time>2017-09-17T14:51:26Z</time>
      </trkpt>
      <trkpt lat="44.07596" lon="7.72159">
        <ele>1841</ele>
        <time>2017-09-17T14:51:27Z</time>
      </trkpt>
      <trkpt lat="44.07591" lon="7.72166">
        <ele>1840</ele>
        <time>2017-09-17T14:51:28Z</time>
      </trkpt>
      <trkpt lat="44.07587" lon="7.72174">
        <ele>1839</ele>
        <time>2017-09-17T14:51:29Z</time>
      </trkpt>
      <trkpt lat="44.07582" lon="7.72182">
        <ele>1839</ele>
        <time>2017-09-17T14:51:30Z</time>
      </trkpt>
      <trkpt lat="44.07578" lon="7.72191">
        <ele>1838</ele>
        <time>2017-09-17T14:51:31Z</time>
      </trkpt>
      <trkpt lat="44.07575" lon="7.722">
        <ele>1838</ele>
        <time>2017-09-17T14:51:32Z</time>
      </trkpt>
      <trkpt lat="44.0757" lon="7.72208">
        <ele>1837</ele>
        <time>2017-09-17T14:51:33Z</time>
      </trkpt>
      <trkpt lat="44.07565" lon="7.72214">
        <ele>1836</ele>
        <time>2017-09-17T14:51:34Z</time>
      </trkpt>
      <trkpt lat="44.07559" lon="7.72217">
        <ele>1836</ele>
        <time>2017-09-17T14:51:35Z</time>
      </trkpt>
      <trkpt lat="44.07553" lon="7.72216">
        <ele>1835</ele>
        <time>2017-09-17T14:51:36Z</time>
      </trkpt>
      <trkpt lat="44.07548" lon="7.72211">
        <ele>1834</ele>
        <time>2017-09-17T14:51:37Z</time>
      </trkpt>
      <trkpt lat="44.07543" lon="7.72204">
        <ele>1834</ele>
        <time>2017-09-17T14:51:38Z</time>
      </trkpt>
      <trkpt lat="44.07538" lon="7.72198">
        <ele>1833</ele>
        <time>2017-09-17T14:51:39Z</time>
      </trkpt>
      <trkpt lat="44.07532" lon="7.72191">
        <ele>1833</ele>
        <time>2017-09-17T14:51:40Z</time>
      </trkpt>
      <trkpt lat="44.07526" lon="7.72185">
        <ele>1832</ele>
        <time>2017-09-17T14:51:41Z</time>
      </trkpt>
      <trkpt lat="44.07519" lon="7.72179">
        <ele>1831</ele>
        <time>2017-09-17T14:51:42Z</time>
      </trkpt>
      <trkpt lat="44.07511" lon="7.72175">
        <ele>1830</ele>
        <time>2017-09-17T14:51:43Z</time>
      </trkpt>
      <trkpt lat="44.07502" lon="7.72172">
        <ele>1829</ele>
        <time>2017-09-17T14:51:44Z</time>
      </trkpt>
      <trkpt lat="44.07493" lon="7.72171">
        <ele>1829</ele>
        <time>2017-09-17T14:51:45Z</time>
      </trkpt>
      <trkpt lat="44.07484" lon="7.72171">
        <ele>1828</ele>
        <time>2017-09-17T14:51:46Z</time>
      </trkpt>
      <trkpt lat="44.07474" lon="7.72172">
        <ele>1827</ele>
        <time>2017-09-17T14:51:47Z</time>
      </trkpt>
      <trkpt lat="44.07465" lon="7.72172">
        <ele>1826</ele>
        <time>2017-09-17T14:51:48Z</time>
      </trkpt>
      <trkpt lat="44.07455" lon="7.72173">
        <ele>1825</ele>
        <time>2017-09-17T14:51:49Z</time>
      </trkpt>
      <trkpt lat="44.07445" lon="7.72174">
        <ele>1824</ele>
        <time>2017-09-17T14:51:50Z</time>
      </trkpt>
      <trkpt lat="44.07435" lon="7.72175">
        <ele>1823</ele>
        <time>2017-09-17T14:51:51Z</time>
      </trkpt>
      <trkpt lat="44.07424" lon="7.72175">
        <ele>1822</ele>
        <time>2017-09-17T14:51:52Z</time>
      </trkpt>
      <trkpt lat="44.07414" lon="7.72176">
        <ele>1821</ele>
        <time>2017-09-17T14:51:53Z</time>
      </trkpt>
      <trkpt lat="44.07404" lon="7.72178">
        <ele>1820</ele>
        <time>2017-09-17T14:51:54Z</time>
      </trkpt>
      <trkpt lat="44.07393" lon="7.72179">
        <ele>1819</ele>
        <time>2017-09-17T14:51:55Z</time>
      </trkpt>
      <trkpt lat="44.07383" lon="7.7218">
        <ele>1818</ele>
        <time>2017-09-17T14:51:56Z</time>
      </trkpt>
      <trkpt lat="44.07372" lon="7.7218">
        <ele>1817</ele>
        <time>2017-09-17T14:51:57Z</time>
      </trkpt>
      <trkpt lat="44.07361" lon="7.72178">
        <ele>1816</ele>
        <time>2017-09-17T14:51:58Z</time>
      </trkpt>
      <trkpt lat="44.07351" lon="7.72174">
        <ele>1815</ele>
        <time>2017-09-17T14:51:59Z</time>
      </trkpt>
      <trkpt lat="44.0734" lon="7.7217">
        <ele>1814</ele>
        <time>2017-09-17T14:52:00Z</time>
      </trkpt>
      <trkpt lat="44.07329" lon="7.72167">
        <ele>1813</ele>
        <time>2017-09-17T14:52:01Z</time>
      </trkpt>
      <trkpt lat="44.07318" lon="7.72164">
        <ele>1812</ele>
        <time>2017-09-17T14:52:02Z</time>
      </trkpt>
      <trkpt lat="44.07307" lon="7.72161">
        <ele>1810</ele>
        <time>2017-09-17T14:52:03Z</time>
      </trkpt>
      <trkpt lat="44.07296" lon="7.72157">
        <ele>1809</ele>
        <time>2017-09-17T14:52:04Z</time>
      </trkpt>
      <trkpt lat="44.07285" lon="7.72154">
        <ele>1808</ele>
        <time>2017-09-17T14:52:05Z</time>
      </trkpt>
      <trkpt lat="44.07274" lon="7.72151">
        <ele>1807</ele>
        <time>2017-09-17T14:52:06Z</time>
      </trkpt>
      <trkpt lat="44.07263" lon="7.72149">
        <ele>1806</ele>
        <time>2017-09-17T14:52:07Z</time>
      </trkpt>
      <trkpt lat="44.07251" lon="7.72146">
        <ele>1804</ele>
        <time>2017-09-17T14:52:08Z</time>
      </trkpt>
      <trkpt lat="44.0724" lon="7.72143">
        <ele>1803</ele>
        <time>2017-09-17T14:52:09Z</time>
      </trkpt>
      <trkpt lat="44.07229" lon="7.7214">
        <ele>1802</ele>
        <time>2017-09-17T14:52:10Z</time>
      </trkpt>
      <trkpt lat="44.07217" lon="7.72138">
        <ele>1801</ele>
        <time>2017-09-17T14:52:11Z</time>
      </trkpt>
      <trkpt lat="44.07206" lon="7.72135">
        <ele>1799</ele>
        <time>2017-09-17T14:52:12Z</time>
      </trkpt>
      <trkpt lat="44.07194" lon="7.72133">
        <ele>1798</ele>
        <time>2017-09-17T14:52:13Z</time>
      </trkpt>
      <trkpt lat="44.07183" lon="7.7213">
        <ele>1797</ele>
        <time>2017-09-17T14:52:14Z</time>
      </trkpt>
      <trkpt lat="44.07172" lon="7.72126">
        <ele>1796</ele>
        <time>2017-09-17T14:52:15Z</time>
      </trkpt>
      <trkpt lat="44.07161" lon="7.72124">
        <ele>1795</ele>
        <time>2017-09-17T14:52:16Z</time>
      </trkpt>
      <trkpt lat="44.0715" lon="7.72124">
        <ele>1794</ele>
        <time>2017-09-17T14:52:17Z</time>
      </trkpt>
      <trkpt lat="44.07139" lon="7.72125">
        <ele>1792</ele>
        <time>2017-09-17T14:52:18Z</time>
      </trkpt>
      <trkpt lat="44.07129" lon="7.72127">
        <ele>1791</ele>
        <time>2017-09-17T14:52:19Z</time>
      </trkpt>
      <trkpt lat="44.07118" lon="7.72129">
        <ele>1790</ele>
        <time>2017-09-17T14:52:20Z</time>
      </trkpt>
      <trkpt lat="44.07107" lon="7.72132">
        <ele>1789</ele>
        <time>2017-09-17T14:52:21Z</time>
      </trkpt>
      <trkpt lat="44.07097" lon="7.72135">
        <ele>1788</ele>
        <time>2017-09-17T14:52:22Z</time>
      </trkpt>
      <trkpt lat="44.07086" lon="7.72138">
        <ele>1787</ele>
        <time>2017-09-17T14:52:23Z</time>
      </trkpt>
      <trkpt lat="44.07076" lon="7.72139">
        <ele>1786</ele>
        <time>2017-09-17T14:52:24Z</time>
      </trkpt>
      <trkpt lat="44.07065" lon="7.72139">
        <ele>1785</ele>
        <time>2017-09-17T14:52:25Z</time>
      </trkpt>
      <trkpt lat="44.07055" lon="7.72137">
        <ele>1784</ele>
        <time>2017-09-17T14:52:26Z</time>
      </trkpt>
      <trkpt lat="44.07045" lon="7.72133">
        <ele>1783</ele>
        <time>2017-09-17T14:52:27Z</time>
      </trkpt>
      <trkpt lat="44.07037" lon="7.72127">
        <ele>1783</ele>
        <time>2017-09-17T14:52:28Z</time>
      </trkpt>
      <trkpt lat="44.0703" lon="7.72122">
        <ele>1782</ele>
        <time>2017-09-17T14:52:29Z</time>
      </trkpt>
      <trkpt lat="44.07023" lon="7.7212">
        <ele>1782</ele>
        <time>2017-09-17T14:52:30Z</time>
      </trkpt>
      <trkpt lat="44.07017" lon="7.72122">
        <ele>1781</ele>
        <time>2017-09-17T14:52:31Z</time>
      </trkpt>
      <trkpt lat="44.07014" lon="7.72128">
        <ele>1781</ele>
        <time>2017-09-17T14:52:32Z</time>
      </trkpt>
      <trkpt lat="44.07013" lon="7.72135">
        <ele>1781</ele>
        <time>2017-09-17T14:52:33Z</time>
      </trkpt>
      <trkpt lat="44.07014" lon="7.72143">
        <ele>1780</ele>
        <time>2017-09-17T14:52:34Z</time>
      </trkpt>
      <trkpt lat="44.07017" lon="7.72151">
        <ele>1779</ele>
        <time>2017-09-17T14:52:35Z</time>
      </trkpt>
      <trkpt lat="44.0702" lon="7.7216">
        <ele>1778</ele>
        <time>2017-09-17T14:52:36Z</time>
      </trkpt>
      <trkpt lat="44.07024" lon="7.72168">
        <ele>1777</ele>
        <time>2017-09-17T14:52:37Z</time>
      </trkpt>
      <trkpt lat="44.07028" lon="7.72178">
        <ele>1776</ele>
        <time>2017-09-17T14:52:38Z</time>
      </trkpt>
      <trkpt lat="44.07032" lon="7.72188">
        <ele>1776</ele>
        <time>2017-09-17T14:52:39Z</time>
      </trkpt>
      <trkpt lat="44.07037" lon="7.72199">
        <ele>1775</ele>
        <time>2017-09-17T14:52:40Z</time>
      </trkpt>
      <trkpt lat="44.07041" lon="7.7221">
        <ele>1774</ele>
        <time>2017-09-17T14:52:41Z</time>
      </trkpt>
      <trkpt lat="44.07046" lon="7.72221">
        <ele>1772</ele>
        <time>2017-09-17T14:52:42Z</time>
      </trkpt>
      <trkpt lat="44.07051" lon="7.72232">
        <ele>1771</ele>
        <time>2017-09-17T14:52:43Z</time>
      </trkpt>
      <trkpt lat="44.07055" lon="7.72243">
        <ele>1770</ele>
        <time>2017-09-17T14:52:44Z</time>
      </trkpt>
      <trkpt lat="44.0706" lon="7.72255">
        <ele>1769</ele>
        <time>2017-09-17T14:52:45Z</time>
      </trkpt>
      <trkpt lat="44.07063" lon="7.72267">
        <ele>1768</ele>
        <time>2017-09-17T14:52:46Z</time>
      </trkpt>
      <trkpt lat="44.07065" lon="7.7228">
        <ele>1767</ele>
        <time>2017-09-17T14:52:47Z</time>
      </trkpt>
      <trkpt lat="44.07067" lon="7.72293">
        <ele>1766</ele>
        <time>2017-09-17T14:52:48Z</time>
      </trkpt>
      <trkpt lat="44.07069" lon="7.72306">
        <ele>1765</ele>
        <time>2017-09-17T14:52:49Z</time>
      </trkpt>
      <trkpt lat="44.07072" lon="7.72319">
        <ele>1763</ele>
        <time>2017-09-17T14:52:50Z</time>
      </trkpt>
      <trkpt lat="44.07074" lon="7.72333">
        <ele>1762</ele>
        <time>2017-09-17T14:52:51Z</time>
      </trkpt>
      <trkpt lat="44.07076" lon="7.72346">
        <ele>1761</ele>
        <time>2017-09-17T14:52:52Z</time>
      </trkpt>
      <trkpt lat="44.07078" lon="7.72358">
        <ele>1760</ele>
        <time>2017-09-17T14:52:53Z</time>
      </trkpt>
      <trkpt lat="44.0708" lon="7.72369">
        <ele>1759</ele>
        <time>2017-09-17T14:52:54Z</time>
      </trkpt>
      <trkpt lat="44.0708" lon="7.7238">
        <ele>1759</ele>
        <time>2017-09-17T14:52:55Z</time>
      </trkpt>
      <trkpt lat="44.07079" lon="7.7239">
        <ele>1758</ele>
        <time>2017-09-17T14:52:56Z</time>
      </trkpt>
      <trkpt lat="44.07079" lon="7.72398">
        <ele>1757</ele>
        <time>2017-09-17T14:52:57Z</time>
      </trkpt>
      <trkpt lat="44.07082" lon="7.72405">
        <ele>1757</ele>
        <time>2017-09-17T14:52:58Z</time>
      </trkpt>
      <trkpt lat="44.07086" lon="7.72406">
        <ele>1756</ele>
        <time>2017-09-17T14:52:59Z</time>
      </trkpt>
      <trkpt lat="44.0709" lon="7.72404">
        <ele>1756</ele>
        <time>2017-09-17T14:53:00Z</time>
      </trkpt>
      <trkpt lat="44.07093" lon="7.72399">
        <ele>1755</ele>
        <time>2017-09-17T14:53:01Z</time>
      </trkpt>
      <trkpt lat="44.07096" lon="7.72392">
        <ele>1755</ele>
        <time>2017-09-17T14:53:02Z</time>
      </trkpt>
      <trkpt lat="44.07098" lon="7.72384">
        <ele>1755</ele>
        <time>2017-09-17T14:53:03Z</time>
      </trkpt>
      <trkpt lat="44.07101" lon="7.72376">
        <ele>1754</ele>
        <time>2017-09-17T14:53:04Z</time>
      </trkpt>
      <trkpt lat="44.07104" lon="7.72368">
        <ele>1754</ele>
        <time>2017-09-17T14:53:05Z</time>
      </trkpt>
      <trkpt lat="44.07107" lon="7.72359">
        <ele>1753</ele>
        <time>2017-09-17T14:53:06Z</time>
      </trkpt>
      <trkpt lat="44.0711" lon="7.7235">
        <ele>1753</ele>
        <time>2017-09-17T14:53:07Z</time>
      </trkpt>
      <trkpt lat="44.07114" lon="7.72341">
        <ele>1752</ele>
        <time>2017-09-17T14:53:08Z</time>
      </trkpt>
      <trkpt lat="44.07116" lon="7.7233">
        <ele>1751</ele>
        <time>2017-09-17T14:53:09Z</time>
      </trkpt>
      <trkpt lat="44.07116" lon="7.7232">
        <ele>1750</ele>
        <time>2017-09-17T14:53:10Z</time>
      </trkpt>
      <trkpt lat="44.07115" lon="7.7231">
        <ele>1750</ele>
        <time>2017-09-17T14:53:11Z</time>
      </trkpt>
      <trkpt lat="44.07116" lon="7.72302">
        <ele>1749</ele>
        <time>2017-09-17T14:53:12Z</time>
      </trkpt>
      <trkpt lat="44.07119" lon="7.72297">
        <ele>1749</ele>
        <time>2017-09-17T14:53:13Z</time>
      </trkpt>
      <trkpt lat="44.07123" lon="7.72297">
        <ele>1749</ele>
        <time>2017-09-17T14:53:14Z</time>
      </trkpt>
      <trkpt lat="44.07127" lon="7.72301">
        <ele>1748</ele>
        <time>2017-09-17T14:53:15Z</time>
      </trkpt>
      <trkpt lat="44.07129" lon="7.72308">
        <ele>1748</ele>
        <time>2017-09-17T14:53:16Z</time>
      </trkpt>
      <trkpt lat="44.07132" lon="7.72317">
        <ele>1747</ele>
        <time>2017-09-17T14:53:17Z</time>
      </trkpt>
      <trkpt lat="44.07136" lon="7.72326">
        <ele>1745</ele>
        <time>2017-09-17T14:53:18Z</time>
      </trkpt>
      <trkpt lat="44.0714" lon="7.72337">
        <ele>1744</ele>
        <time>2017-09-17T14:53:19Z</time>
      </trkpt>
      <trkpt lat="44.07143" lon="7.72348">
        <ele>1743</ele>
        <time>2017-09-17T14:53:20Z</time>
      </trkpt>
      <trkpt lat="44.07145" lon="7.72362">
        <ele>1742</ele>
        <time>2017-09-17T14:53:21Z</time>
      </trkpt>
      <trkpt lat="44.07146" lon="7.72375">
        <ele>1741</ele>
        <time>2017-09-17T14:53:22Z</time>
      </trkpt>
      <trkpt lat="44.07147" lon="7.72388">
        <ele>1740</ele>
        <time>2017-09-17T14:53:23Z</time>
      </trkpt>
      <trkpt lat="44.07146" lon="7.72401">
        <ele>1738</ele>
        <time>2017-09-17T14:53:24Z</time>
      </trkpt>
      <trkpt lat="44.07143" lon="7.72412">
        <ele>1737</ele>
        <time>2017-09-17T14:53:25Z</time>
      </trkpt>
      <trkpt lat="44.07137" lon="7.72422">
        <ele>1736</ele>
        <time>2017-09-17T14:53:26Z</time>
      </trkpt>
      <trkpt lat="44.07131" lon="7.72431">
        <ele>1735</ele>
        <time>2017-09-17T14:53:27Z</time>
      </trkpt>
      <trkpt lat="44.07125" lon="7.7244">
        <ele>1734</ele>
        <time>2017-09-17T14:53:28Z</time>
      </trkpt>
      <trkpt lat="44.0712" lon="7.72449">
        <ele>1733</ele>
        <time>2017-09-17T14:53:29Z</time>
      </trkpt>
      <trkpt lat="44.07117" lon="7.72461">
        <ele>1732</ele>
        <time>2017-09-17T14:53:30Z</time>
      </trkpt>
      <trkpt lat="44.07116" lon="7.72473">
        <ele>1732</ele>
        <time>2017-09-17T14:53:31Z</time>
      </trkpt>
      <trkpt lat="44.07115" lon="7.72485">
        <ele>1731</ele>
        <time>2017-09-17T14:53:32Z</time>
      </trkpt>
      <trkpt lat="44.07114" lon="7.72498">
        <ele>1730</ele>
        <time>2017-09-17T14:53:33Z</time>
      </trkpt>
      <trkpt lat="44.07114" lon="7.72511">
        <ele>1729</ele>
        <time>2017-09-17T14:53:34Z</time>
      </trkpt>
      <trkpt lat="44.07113" lon="7.72522">
        <ele>1728</ele>
        <time>2017-09-17T14:53:35Z</time>
      </trkpt>
      <trkpt lat="44.07113" lon="7.72534">
        <ele>1727</ele>
        <time>2017-09-17T14:53:36Z</time>
      </trkpt>
      <trkpt lat="44.07113" lon="7.72547">
        <ele>1726</ele>
        <time>2017-09-17T14:53:37Z</time>
      </trkpt>
      <trkpt lat="44.07115" lon="7.7256">
        <ele>1725</ele>
        <time>2017-09-17T14:53:38Z</time>
      </trkpt>
      <trkpt lat="44.07116" lon="7.72573">
        <ele>1725</ele>
        <time>2017-09-17T14:53:39Z</time>
      </trkpt>
      <trkpt lat="44.07118" lon="7.72587">
        <ele>1724</ele>
        <time>2017-09-17T14:53:40Z</time>
      </trkpt>
      <trkpt lat="44.0712" lon="7.72601">
        <ele>1723</ele>
        <time>2017-09-17T14:53:41Z</time>
      </trkpt>
      <trkpt lat="44.07122" lon="7.72615">
        <ele>1722</ele>
        <time>2017-09-17T14:53:42Z</time>
      </trkpt>
      <trkpt lat="44.07123" lon="7.72629">
        <ele>1720</ele>
        <time>2017-09-17T14:53:43Z</time>
      </trkpt>
      <trkpt lat="44.07124" lon="7.72644">
        <ele>1719</ele>
        <time>2017-09-17T14:53:44Z</time>
      </trkpt>
      <trkpt lat="44.07126" lon="7.72658">
        <ele>1718</ele>
        <time>2017-09-17T14:53:45Z</time>
      </trkpt>
      <trkpt lat="44.07127" lon="7.72672">
        <ele>1717</ele>
        <time>2017-09-17T14:53:46Z</time>
      </trkpt>
      <trkpt lat="44.07128" lon="7.72687">
        <ele>1716</ele>
        <time>2017-09-17T14:53:47Z</time>
      </trkpt>
      <trkpt lat="44.07128" lon="7.72702">
        <ele>1715</ele>
        <time>2017-09-17T14:53:48Z</time>
      </trkpt>
      <trkpt lat="44.07127" lon="7.72717">
        <ele>1714</ele>
        <time>2017-09-17T14:53:49Z</time>
      </trkpt>
      <trkpt lat="44.07125" lon="7.72732">
        <ele>1712</ele>
        <time>2017-09-17T14:53:50Z</time>
      </trkpt>
      <trkpt lat="44.07122" lon="7.72747">
        <ele>1711</ele>
        <time>2017-09-17T14:53:51Z</time>
      </trkpt>
      <trkpt lat="44.07119" lon="7.72762">
        <ele>1710</ele>
        <time>2017-09-17T14:53:52Z</time>
      </trkpt>
      <trkpt lat="44.07115" lon="7.72776">
        <ele>1709</ele>
        <time>2017-09-17T14:53:53Z</time>
      </trkpt>
      <trkpt lat="44.0711" lon="7.72789">
        <ele>1708</ele>
        <time>2017-09-17T14:53:54Z</time>
      </trkpt>
      <trkpt lat="44.07105" lon="7.72801">
        <ele>1707</ele>
        <time>2017-09-17T14:53:55Z</time>
      </trkpt>
      <trkpt lat="44.071" lon="7.72814">
        <ele>1706</ele>
        <time>2017-09-17T14:53:56Z</time>
      </trkpt>
      <trkpt lat="44.07096" lon="7.72828">
        <ele>1705</ele>
        <time>2017-09-17T14:53:57Z</time>
      </trkpt>
      <trkpt lat="44.07092" lon="7.72842">
        <ele>1703</ele>
        <time>2017-09-17T14:53:58Z</time>
      </trkpt>
      <trkpt lat="44.07089" lon="7.72857">
        <ele>1702</ele>
        <time>2017-09-17T14:53:59Z</time>
      </trkpt>
      <trkpt lat="44.07087" lon="7.72872">
        <ele>1701</ele>
        <time>2017-09-17T14:54:00Z</time>
      </trkpt>
      <trkpt lat="44.07085" lon="7.72887">
        <ele>1700</ele>
        <time>2017-09-17T14:54:01Z</time>
      </trkpt>
      <trkpt lat="44.07082" lon="7.72902">
        <ele>1699</ele>
        <time>2017-09-17T14:54:02Z</time>
      </trkpt>
      <trkpt lat="44.07079" lon="7.72917">
        <ele>1698</ele>
        <time>2017-09-17T14:54:03Z</time>
      </trkpt>
      <trkpt lat="44.07076" lon="7.72931">
        <ele>1696</ele>
        <time>2017-09-17T14:54:04Z</time>
      </trkpt>
      <trkpt lat="44.07072" lon="7.72944">
        <ele>1695</ele>
        <time>2017-09-17T14:54:05Z</time>
      </trkpt>
      <trkpt lat="44.07067" lon="7.72955">
        <ele>1694</ele>
        <time>2017-09-17T14:54:06Z</time>
      </trkpt>
      <trkpt lat="44.07059" lon="7.72964">
        <ele>1693</ele>
        <time>2017-09-17T14:54:07Z</time>
      </trkpt>
      <trkpt lat="44.0705" lon="7.72972">
        <ele>1692</ele>
        <time>2017-09-17T14:54:08Z</time>
      </trkpt>
      <trkpt lat="44.07041" lon="7.72978">
        <ele>1691</ele>
        <time>2017-09-17T14:54:09Z</time>
      </trkpt>
      <trkpt lat="44.07031" lon="7.72982">
        <ele>1690</ele>
        <time>2017-09-17T14:54:10Z</time>
      </trkpt>
      <trkpt lat="44.07023" lon="7.72987">
        <ele>1689</ele>
        <time>2017-09-17T14:54:11Z</time>
      </trkpt>
      <trkpt lat="44.07014" lon="7.72992">
        <ele>1689</ele>
        <time>2017-09-17T14:54:12Z</time>
      </trkpt>
      <trkpt lat="44.07006" lon="7.72999">
        <ele>1688</ele>
        <time>2017-09-17T14:54:13Z</time>
      </trkpt>
      <trkpt lat="44.07" lon="7.73007">
        <ele>1687</ele>
        <time>2017-09-17T14:54:14Z</time>
      </trkpt>
      <trkpt lat="44.06994" lon="7.73018">
        <ele>1686</ele>
        <time>2017-09-17T14:54:15Z</time>
      </trkpt>
      <trkpt lat="44.0699" lon="7.7303">
        <ele>1685</ele>
        <time>2017-09-17T14:54:16Z</time>
      </trkpt>
      <trkpt lat="44.06988" lon="7.73043">
        <ele>1684</ele>
        <time>2017-09-17T14:54:17Z</time>
      </trkpt>
      <trkpt lat="44.06987" lon="7.73057">
        <ele>1683</ele>
        <time>2017-09-17T14:54:18Z</time>
      </trkpt>
      <trkpt lat="44.06988" lon="7.73071">
        <ele>1682</ele>
        <time>2017-09-17T14:54:19Z</time>
      </trkpt>
      <trkpt lat="44.06988" lon="7.73085">
        <ele>1681</ele>
        <time>2017-09-17T14:54:20Z</time>
      </trkpt>
      <trkpt lat="44.06987" lon="7.73098">
        <ele>1680</ele>
        <time>2017-09-17T14:54:21Z</time>
      </trkpt>
      <trkpt lat="44.06984" lon="7.73111">
        <ele>1679</ele>
        <time>2017-09-17T14:54:22Z</time>
      </trkpt>
      <trkpt lat="44.06979" lon="7.73122">
        <ele>1678</ele>
        <time>2017-09-17T14:54:23Z</time>
      </trkpt>
      <trkpt lat="44.06973" lon="7.73133">
        <ele>1677</ele>
        <time>2017-09-17T14:54:24Z</time>
      </trkpt>
      <trkpt lat="44.06967" lon="7.73144">
        <ele>1676</ele>
        <time>2017-09-17T14:54:25Z</time>
      </trkpt>
      <trkpt lat="44.06962" lon="7.73156">
        <ele>1676</ele>
        <time>2017-09-17T14:54:26Z</time>
      </trkpt>
      <trkpt lat="44.06958" lon="7.73169">
        <ele>1675</ele>
        <time>2017-09-17T14:54:27Z</time>
      </trkpt>
      <trkpt lat="44.06955" lon="7.73181">
        <ele>1674</ele>
        <time>2017-09-17T14:54:28Z</time>
      </trkpt>
      <trkpt lat="44.06953" lon="7.73193">
        <ele>1674</ele>
        <time>2017-09-17T14:54:29Z</time>
      </trkpt>
      <trkpt lat="44.06953" lon="7.73204">
        <ele>1673</ele>
        <time>2017-09-17T14:54:30Z</time>
      </trkpt>
      <trkpt lat="44.06955" lon="7.73215">
        <ele>1672</ele>
        <time>2017-09-17T14:54:31Z</time>
      </trkpt>
      <trkpt lat="44.06958" lon="7.73226">
        <ele>1671</ele>
        <time>2017-09-17T14:54:32Z</time>
      </trkpt>
      <trkpt lat="44.06962" lon="7.73237">
        <ele>1670</ele>
        <time>2017-09-17T14:54:33Z</time>
      </trkpt>
      <trkpt lat="44.06966" lon="7.73247">
        <ele>1669</ele>
        <time>2017-09-17T14:54:34Z</time>
      </trkpt>
      <trkpt lat="44.06971" lon="7.73255">
        <ele>1668</ele>
        <time>2017-09-17T14:54:35Z</time>
      </trkpt>
      <trkpt lat="44.06977" lon="7.73261">
        <ele>1667</ele>
        <time>2017-09-17T14:54:36Z</time>
      </trkpt>
      <trkpt lat="44.06984" lon="7.73265">
        <ele>1666</ele>
        <time>2017-09-17T14:54:37Z</time>
      </trkpt>
      <trkpt lat="44.06992" lon="7.73267">
        <ele>1666</ele>
        <time>2017-09-17T14:54:38Z</time>
      </trkpt>
      <trkpt lat="44.07001" lon="7.73267">
        <ele>1665</ele>
        <time>2017-09-17T14:54:39Z</time>
      </trkpt>
      <trkpt lat="44.0701" lon="7.73269">
        <ele>1664</ele>
        <time>2017-09-17T14:54:40Z</time>
      </trkpt>
      <trkpt lat="44.07018" lon="7.73273">
        <ele>1663</ele>
        <time>2017-09-17T14:54:41Z</time>
      </trkpt>
      <trkpt lat="44.07026" lon="7.7328">
        <ele>1662</ele>
        <time>2017-09-17T14:54:42Z</time>
      </trkpt>
      <trkpt lat="44.07034" lon="7.7329">
        <ele>1661</ele>
        <time>2017-09-17T14:54:43Z</time>
      </trkpt>
      <trkpt lat="44.07041" lon="7.733">
        <ele>1660</ele>
        <time>2017-09-17T14:54:44Z</time>
      </trkpt>
      <trkpt lat="44.07048" lon="7.73311">
        <ele>1659</ele>
        <time>2017-09-17T14:54:45Z</time>
      </trkpt>
      <trkpt lat="44.07056" lon="7.73322">
        <ele>1657</ele>
        <time>2017-09-17T14:54:46Z</time>
      </trkpt>
      <trkpt lat="44.07065" lon="7.73334">
        <ele>1656</ele>
        <time>2017-09-17T14:54:47Z</time>
      </trkpt>
      <trkpt lat="44.07073" lon="7.73346">
        <ele>1655</ele>
        <time>2017-09-17T14:54:48Z</time>
      </trkpt>
      <trkpt lat="44.07083" lon="7.73356">
        <ele>1654</ele>
        <time>2017-09-17T14:54:49Z</time>
      </trkpt>
      <trkpt lat="44.07093" lon="7.73365">
        <ele>1653</ele>
        <time>2017-09-17T14:54:50Z</time>
      </trkpt>
      <trkpt lat="44.07103" lon="7.73375">
        <ele>1652</ele>
        <time>2017-09-17T14:54:51Z</time>
      </trkpt>
      <trkpt lat="44.07112" lon="7.73385">
        <ele>1651</ele>
        <time>2017-09-17T14:54:52Z</time>
      </trkpt>
      <trkpt lat="44.07119" lon="7.73395">
        <ele>1650</ele>
        <time>2017-09-17T14:54:53Z</time>
      </trkpt>
      <trkpt lat="44.07125" lon="7.73405">
        <ele>1649</ele>
        <time>2017-09-17T14:54:54Z</time>
      </trkpt>
      <trkpt lat="44.07128" lon="7.73415">
        <ele>1648</ele>
        <time>2017-09-17T14:54:55Z</time>
      </trkpt>
      <trkpt lat="44.07128" lon="7.73426">
        <ele>1647</ele>
        <time>2017-09-17T14:54:56Z</time>
      </trkpt>
      <trkpt lat="44.07124" lon="7.73435">
        <ele>1647</ele>
        <time>2017-09-17T14:54:57Z</time>
      </trkpt>
      <trkpt lat="44.0712" lon="7.73444">
        <ele>1646</ele>
        <time>2017-09-17T14:54:58Z</time>
      </trkpt>
      <trkpt lat="44.07118" lon="7.73453">
        <ele>1645</ele>
        <time>2017-09-17T14:54:59Z</time>
      </trkpt>
      <trkpt lat="44.07118" lon="7.73461">
        <ele>1644</ele>
        <time>2017-09-17T14:55:00Z</time>
      </trkpt>
      <trkpt lat="44.07124" lon="7.73466">
        <ele>1644</ele>
        <time>2017-09-17T14:55:01Z</time>
      </trkpt>
      <trkpt lat="44.07132" lon="7.7347">
        <ele>1643</ele>
        <time>2017-09-17T14:55:02Z</time>
      </trkpt>
      <trkpt lat="44.07141" lon="7.73472">
        <ele>1643</ele>
        <time>2017-09-17T14:55:03Z</time>
      </trkpt>
      <trkpt lat="44.07149" lon="7.73475">
        <ele>1642</ele>
        <time>2017-09-17T14:55:04Z</time>
      </trkpt>
      <trkpt lat="44.07157" lon="7.7348">
        <ele>1641</ele>
        <time>2017-09-17T14:55:05Z</time>
      </trkpt>
      <trkpt lat="44.07163" lon="7.73488">
        <ele>1640</ele>
        <time>2017-09-17T14:55:06Z</time>
      </trkpt>
      <trkpt lat="44.07169" lon="7.73499">
        <ele>1639</ele>
        <time>2017-09-17T14:55:07Z</time>
      </trkpt>
      <trkpt lat="44.07172" lon="7.73513">
        <ele>1638</ele>
        <time>2017-09-17T14:55:08Z</time>
      </trkpt>
      <trkpt lat="44.07171" lon="7.73527">
        <ele>1637</ele>
        <time>2017-09-17T14:55:09Z</time>
      </trkpt>
      <trkpt lat="44.07168" lon="7.73542">
        <ele>1636</ele>
        <time>2017-09-17T14:55:10Z</time>
      </trkpt>
      <trkpt lat="44.07165" lon="7.73556">
        <ele>1635</ele>
        <time>2017-09-17T14:55:11Z</time>
      </trkpt>
      <trkpt lat="44.07162" lon="7.7357">
        <ele>1634</ele>
        <time>2017-09-17T14:55:12Z</time>
      </trkpt>
      <trkpt lat="44.07159" lon="7.73583">
        <ele>1633</ele>
        <time>2017-09-17T14:55:13Z</time>
      </trkpt>
      <trkpt lat="44.07156" lon="7.73595">
        <ele>1631</ele>
        <time>2017-09-17T14:55:14Z</time>
      </trkpt>
      <trkpt lat="44.07153" lon="7.73605">
        <ele>1630</ele>
        <time>2017-09-17T14:55:15Z</time>
      </trkpt>
      <trkpt lat="44.07152" lon="7.73615">
        <ele>1629</ele>
        <time>2017-09-17T14:55:16Z</time>
      </trkpt>
      <trkpt lat="44.07154" lon="7.73623">
        <ele>1628</ele>
        <time>2017-09-17T14:55:17Z</time>
      </trkpt>
      <trkpt lat="44.07159" lon="7.73627">
        <ele>1626</ele>
        <time>2017-09-17T14:55:18Z</time>
      </trkpt>
      <trkpt lat="44.07165" lon="7.73625">
        <ele>1625</ele>
        <time>2017-09-17T14:55:19Z</time>
      </trkpt>
      <trkpt lat="44.07169" lon="7.73619">
        <ele>1625</ele>
        <time>2017-09-17T14:55:20Z</time>
      </trkpt>
      <trkpt lat="44.07174" lon="7.73611">
        <ele>1624</ele>
        <time>2017-09-17T14:55:21Z</time>
      </trkpt>
      <trkpt lat="44.07179" lon="7.73603">
        <ele>1623</ele>
        <time>2017-09-17T14:55:22Z</time>
      </trkpt>
      <trkpt lat="44.07184" lon="7.73594">
        <ele>1622</ele>
        <time>2017-09-17T14:55:23Z</time>
      </trkpt>
      <trkpt lat="44.07189" lon="7.73585">
        <ele>1621</ele>
        <time>2017-09-17T14:55:24Z</time>
      </trkpt>
      <trkpt lat="44.07193" lon="7.73575">
        <ele>1621</ele>
        <time>2017-09-17T14:55:25Z</time>
      </trkpt>
      <trkpt lat="44.07198" lon="7.73565">
        <ele>1620</ele>
        <time>2017-09-17T14:55:26Z</time>
      </trkpt>
      <trkpt lat="44.07202" lon="7.73555">
        <ele>1619</ele>
        <time>2017-09-17T14:55:27Z</time>
      </trkpt>
      <trkpt lat="44.07204" lon="7.73543">
        <ele>1618</ele>
        <time>2017-09-17T14:55:28Z</time>
      </trkpt>
      <trkpt lat="44.07207" lon="7.7353">
        <ele>1618</ele>
        <time>2017-09-17T14:55:29Z</time>
      </trkpt>
      <trkpt lat="44.07208" lon="7.73516">
        <ele>1617</ele>
        <time>2017-09-17T14:55:30Z</time>
      </trkpt>
      <trkpt lat="44.07208" lon="7.73504">
        <ele>1616</ele>
        <time>2017-09-17T14:55:31Z</time>
      </trkpt>
      <trkpt lat="44.07206" lon="7.73493">
        <ele>1616</ele>
        <time>2017-09-17T14:55:32Z</time>
      </trkpt>
      <trkpt lat="44.07205" lon="7.73484">
        <ele>1615</ele>
        <time>2017-09-17T14:55:33Z</time>
      </trkpt>
      <trkpt lat="44.07207" lon="7.73476">
        <ele>1615</ele>
        <time>2017-09-17T14:55:34Z</time>
      </trkpt>
      <trkpt lat="44.07209" lon="7.73472">
        <ele>1614</ele>
        <time>2017-09-17T14:55:35Z</time>
      </trkpt>
      <trkpt lat="44.07211" lon="7.73471">
        <ele>1614</ele>
        <time>2017-09-17T14:55:36Z</time>
      </trkpt>
      <trkpt lat="44.07213" lon="7.73477">
        <ele>1614</ele>
        <time>2017-09-17T14:55:37Z</time>
      </trkpt>
      <trkpt lat="44.07213" lon="7.73486">
        <ele>1613</ele>
        <time>2017-09-17T14:55:38Z</time>
      </trkpt>
      <trkpt lat="44.07215" lon="7.73495">
        <ele>1613</ele>
        <time>2017-09-17T14:55:39Z</time>
      </trkpt>
      <trkpt lat="44.07216" lon="7.73504">
        <ele>1612</ele>
        <time>2017-09-17T14:55:40Z</time>
      </trkpt>
      <trkpt lat="44.07218" lon="7.73515">
        <ele>1612</ele>
        <time>2017-09-17T14:55:41Z</time>
      </trkpt>
      <trkpt lat="44.07221" lon="7.73526">
        <ele>1611</ele>
        <time>2017-09-17T14:55:42Z</time>
      </trkpt>
      <trkpt lat="44.07224" lon="7.73538">
        <ele>1611</ele>
        <time>2017-09-17T14:55:43Z</time>
      </trkpt>
      <trkpt lat="44.07226" lon="7.73551">
        <ele>1610</ele>
        <time>2017-09-17T14:55:44Z</time>
      </trkpt>
      <trkpt lat="44.07228" lon="7.73565">
        <ele>1609</ele>
        <time>2017-09-17T14:55:45Z</time>
      </trkpt>
      <trkpt lat="44.07229" lon="7.73579">
        <ele>1608</ele>
        <time>2017-09-17T14:55:46Z</time>
      </trkpt>
      <trkpt lat="44.0723" lon="7.73592">
        <ele>1607</ele>
        <time>2017-09-17T14:55:47Z</time>
      </trkpt>
      <trkpt lat="44.07229" lon="7.73604">
        <ele>1606</ele>
        <time>2017-09-17T14:55:48Z</time>
      </trkpt>
      <trkpt lat="44.07229" lon="7.73616">
        <ele>1605</ele>
        <time>2017-09-17T14:55:49Z</time>
      </trkpt>
      <trkpt lat="44.07229" lon="7.73627">
        <ele>1605</ele>
        <time>2017-09-17T14:55:50Z</time>
      </trkpt>
      <trkpt lat="44.07228" lon="7.73637">
        <ele>1604</ele>
        <time>2017-09-17T14:55:51Z</time>
      </trkpt>
      <trkpt lat="44.07226" lon="7.73647">
        <ele>1603</ele>
        <time>2017-09-17T14:55:52Z</time>
      </trkpt>
      <trkpt lat="44.07228" lon="7.73655">
        <ele>1603</ele>
        <time>2017-09-17T14:55:53Z</time>
      </trkpt>
      <trkpt lat="44.07232" lon="7.7366">
        <ele>1602</ele>
        <time>2017-09-17T14:55:54Z</time>
      </trkpt>
      <trkpt lat="44.07237" lon="7.73659">
        <ele>1602</ele>
        <time>2017-09-17T14:55:55Z</time>
      </trkpt>
      <trkpt lat="44.0724" lon="7.73655">
        <ele>1601</ele>
        <time>2017-09-17T14:55:56Z</time>
      </trkpt>
      <trkpt lat="44.07242" lon="7.73648">
        <ele>1601</ele>
        <time>2017-09-17T14:55:57Z</time>
      </trkpt>
      <trkpt lat="44.07244" lon="7.73642">
        <ele>1600</ele>
        <time>2017-09-17T14:55:58Z</time>
      </trkpt>
      <trkpt lat="44.07246" lon="7.73635">
        <ele>1600</ele>
        <time>2017-09-17T14:55:59Z</time>
      </trkpt>
      <trkpt lat="44.07248" lon="7.73628">
        <ele>1599</ele>
        <time>2017-09-17T14:56:00Z</time>
      </trkpt>
      <trkpt lat="44.0725" lon="7.73622">
        <ele>1598</ele>
        <time>2017-09-17T14:56:01Z</time>
      </trkpt>
      <trkpt lat="44.07252" lon="7.73616">
        <ele>1598</ele>
        <time>2017-09-17T14:56:02Z</time>
      </trkpt>
      <trkpt lat="44.07254" lon="7.73613">
        <ele>1597</ele>
        <time>2017-09-17T14:56:03Z</time>
      </trkpt>
      <trkpt lat="44.07258" lon="7.73612">
        <ele>1597</ele>
        <time>2017-09-17T14:56:04Z</time>
      </trkpt>
      <trkpt lat="44.07261" lon="7.73613">
        <ele>1596</ele>
        <time>2017-09-17T14:56:05Z</time>
      </trkpt>
      <trkpt lat="44.07264" lon="7.73616">
        <ele>1596</ele>
        <time>2017-09-17T14:56:06Z</time>
      </trkpt>
      <trkpt lat="44.07266" lon="7.7362">
        <ele>1595</ele>
        <time>2017-09-17T14:56:07Z</time>
      </trkpt>
      <trkpt lat="44.07268" lon="7.73626">
        <ele>1594</ele>
        <time>2017-09-17T14:56:08Z</time>
      </trkpt>
      <trkpt lat="44.07269" lon="7.73632">
        <ele>1593</ele>
        <time>2017-09-17T14:56:09Z</time>
      </trkpt>
      <trkpt lat="44.0727" lon="7.7364">
        <ele>1592</ele>
        <time>2017-09-17T14:56:10Z</time>
      </trkpt>
      <trkpt lat="44.0727" lon="7.73649">
        <ele>1591</ele>
        <time>2017-09-17T14:56:11Z</time>
      </trkpt>
      <trkpt lat="44.0727" lon="7.7366">
        <ele>1590</ele>
        <time>2017-09-17T14:56:12Z</time>
      </trkpt>
      <trkpt lat="44.0727" lon="7.73672">
        <ele>1589</ele>
        <time>2017-09-17T14:56:13Z</time>
      </trkpt>
      <trkpt lat="44.07268" lon="7.73683">
        <ele>1588</ele>
        <time>2017-09-17T14:56:14Z</time>
      </trkpt>
      <trkpt lat="44.07264" lon="7.73694">
        <ele>1587</ele>
        <time>2017-09-17T14:56:15Z</time>
      </trkpt>
      <trkpt lat="44.07259" lon="7.73704">
        <ele>1586</ele>
        <time>2017-09-17T14:56:16Z</time>
      </trkpt>
      <trkpt lat="44.07254" lon="7.73715">
        <ele>1585</ele>
        <time>2017-09-17T14:56:17Z</time>
      </trkpt>
      <trkpt lat="44.07251" lon="7.73726">
        <ele>1584</ele>
        <time>2017-09-17T14:56:18Z</time>
      </trkpt>
      <trkpt lat="44.07251" lon="7.73736">
        <ele>1583</ele>
        <time>2017-09-17T14:56:19Z</time>
      </trkpt>
      <trkpt lat="44.07254" lon="7.73746">
        <ele>1582</ele>
        <time>2017-09-17T14:56:20Z</time>
      </trkpt>
      <trkpt lat="44.0726" lon="7.73756">
        <ele>1581</ele>
        <time>2017-09-17T14:56:21Z</time>
      </trkpt>
      <trkpt lat="44.07264" lon="7.73765">
        <ele>1580</ele>
        <time>2017-09-17T14:56:22Z</time>
      </trkpt>
      <trkpt lat="44.07268" lon="7.73777">
        <ele>1579</ele>
        <time>2017-09-17T14:56:23Z</time>
      </trkpt>
      <trkpt lat="44.0727" lon="7.73789">
        <ele>1578</ele>
        <time>2017-09-17T14:56:24Z</time>
      </trkpt>
      <trkpt lat="44.07272" lon="7.73802">
        <ele>1577</ele>
        <time>2017-09-17T14:56:25Z</time>
      </trkpt>
      <trkpt lat="44.07274" lon="7.73815">
        <ele>1576</ele>
        <time>2017-09-17T14:56:26Z</time>
      </trkpt>
      <trkpt lat="44.07276" lon="7.73827">
        <ele>1575</ele>
        <time>2017-09-17T14:56:27Z</time>
      </trkpt>
      <trkpt lat="44.07277" lon="7.7384">
        <ele>1574</ele>
        <time>2017-09-17T14:56:28Z</time>
      </trkpt>
      <trkpt lat="44.0728" lon="7.73852">
        <ele>1573</ele>
        <time>2017-09-17T14:56:29Z</time>
      </trkpt>
      <trkpt lat="44.07284" lon="7.73863">
        <ele>1573</ele>
        <time>2017-09-17T14:56:30Z</time>
      </trkpt>
      <trkpt lat="44.0729" lon="7.73874">
        <ele>1572</ele>
        <time>2017-09-17T14:56:31Z</time>
      </trkpt>
      <trkpt lat="44.07296" lon="7.73885">
        <ele>1572</ele>
        <time>2017-09-17T14:56:32Z</time>
      </trkpt>
      <trkpt lat="44.07301" lon="7.73897">
        <ele>1572</ele>
        <time>2017-09-17T14:56:33Z</time>
      </trkpt>
      <trkpt lat="44.07306" lon="7.73909">
        <ele>1571</ele>
        <time>2017-09-17T14:56:34Z</time>
      </trkpt>
      <trkpt lat="44.0731" lon="7.73921">
        <ele>1571</ele>
        <time>2017-09-17T14:56:35Z</time>
      </trkpt>
      <trkpt lat="44.07315" lon="7.73933">
        <ele>1570</ele>
        <time>2017-09-17T14:56:36Z</time>
      </trkpt>
      <trkpt lat="44.07319" lon="7.73945">
        <ele>1570</ele>
        <time>2017-09-17T14:56:37Z</time>
      </trkpt>
      <trkpt lat="44.07324" lon="7.73956">
        <ele>1570</ele>
        <time>2017-09-17T14:56:38Z</time>
      </trkpt>
      <trkpt lat="44.07329" lon="7.73967">
        <ele>1569</ele>
        <time>2017-09-17T14:56:39Z</time>
      </trkpt>
      <trkpt lat="44.07333" lon="7.73977">
        <ele>1569</ele>
        <time>2017-09-17T14:56:40Z</time>
      </trkpt>
      <trkpt lat="44.07338" lon="7.73987">
        <ele>1569</ele>
        <time>2017-09-17T14:56:41Z</time>
      </trkpt>
      <trkpt lat="44.07342" lon="7.73996">
        <ele>1568</ele>
        <time>2017-09-17T14:56:42Z</time>
      </trkpt>
      <trkpt lat="44.07344" lon="7.74005">
        <ele>1567</ele>
        <time>2017-09-17T14:56:43Z</time>
      </trkpt>
      <trkpt lat="44.07344" lon="7.74015">
        <ele>1567</ele>
        <time>2017-09-17T14:56:44Z</time>
      </trkpt>
      <trkpt lat="44.07342" lon="7.74025">
        <ele>1566</ele>
        <time>2017-09-17T14:56:45Z</time>
      </trkpt>
      <trkpt lat="44.07339" lon="7.74034">
        <ele>1565</ele>
        <time>2017-09-17T14:56:46Z</time>
      </trkpt>
      <trkpt lat="44.07335" lon="7.74043">
        <ele>1565</ele>
        <time>2017-09-17T14:56:47Z</time>
      </trkpt>
      <trkpt lat="44.0733" lon="7.74052">
        <ele>1565</ele>
        <time>2017-09-17T14:56:48Z</time>
      </trkpt>
      <trkpt lat="44.07326" lon="7.74062">
        <ele>1564</ele>
        <time>2017-09-17T14:56:49Z</time>
      </trkpt>
      <trkpt lat="44.07322" lon="7.74072">
        <ele>1564</ele>
        <time>2017-09-17T14:56:50Z</time>
      </trkpt>
      <trkpt lat="44.07319" lon="7.74083">
        <ele>1564</ele>
        <time>2017-09-17T14:56:51Z</time>
      </trkpt>
      <trkpt lat="44.07315" lon="7.74093">
        <ele>1563</ele>
        <time>2017-09-17T14:56:52Z</time>
      </trkpt>
      <trkpt lat="44.07311" lon="7.74104">
        <ele>1563</ele>
        <time>2017-09-17T14:56:53Z</time>
      </trkpt>
      <trkpt lat="44.07307" lon="7.74114">
        <ele>1563</ele>
        <time>2017-09-17T14:56:54Z</time>
      </trkpt>
      <trkpt lat="44.07304" lon="7.74125">
        <ele>1562</ele>
        <time>2017-09-17T14:56:55Z</time>
      </trkpt>
      <trkpt lat="44.07301" lon="7.74137">
        <ele>1561</ele>
        <time>2017-09-17T14:56:56Z</time>
      </trkpt>
      <trkpt lat="44.07299" lon="7.74149">
        <ele>1561</ele>
        <time>2017-09-17T14:56:57Z</time>
      </trkpt>
      <trkpt lat="44.07297" lon="7.7416">
        <ele>1560</ele>
        <time>2017-09-17T14:56:58Z</time>
      </trkpt>
      <trkpt lat="44.07295" lon="7.74172">
        <ele>1560</ele>
        <time>2017-09-17T14:56:59Z</time>
      </trkpt>
      <trkpt lat="44.07294" lon="7.74184">
        <ele>1559</ele>
        <time>2017-09-17T14:57:00Z</time>
      </trkpt>
      <trkpt lat="44.07292" lon="7.74196">
        <ele>1558</ele>
        <time>2017-09-17T14:57:01Z</time>
      </trkpt>
      <trkpt lat="44.07291" lon="7.74208">
        <ele>1558</ele>
        <time>2017-09-17T14:57:02Z</time>
      </trkpt>
      <trkpt lat="44.07289" lon="7.7422">
        <ele>1557</ele>
        <time>2017-09-17T14:57:03Z</time>
      </trkpt>
      <trkpt lat="44.07288" lon="7.74232">
        <ele>1557</ele>
        <time>2017-09-17T14:57:04Z</time>
      </trkpt>
      <trkpt lat="44.07287" lon="7.74244">
        <ele>1556</ele>
        <time>2017-09-17T14:57:05Z</time>
      </trkpt>
      <trkpt lat="44.07286" lon="7.74256">
        <ele>1556</ele>
        <time>2017-09-17T14:57:06Z</time>
      </trkpt>
      <trkpt lat="44.07285" lon="7.74267">
        <ele>1556</ele>
        <time>2017-09-17T14:57:07Z</time>
      </trkpt>
      <trkpt lat="44.07284" lon="7.74279">
        <ele>1555</ele>
        <time>2017-09-17T14:57:08Z</time>
      </trkpt>
      <trkpt lat="44.07281" lon="7.74289">
        <ele>1555</ele>
        <time>2017-09-17T14:57:09Z</time>
      </trkpt>
      <trkpt lat="44.07278" lon="7.743">
        <ele>1554</ele>
        <time>2017-09-17T14:57:10Z</time>
      </trkpt>
      <trkpt lat="44.07274" lon="7.7431">
        <ele>1553</ele>
        <time>2017-09-17T14:57:11Z</time>
      </trkpt>
      <trkpt lat="44.07269" lon="7.74319">
        <ele>1553</ele>
        <time>2017-09-17T14:57:12Z</time>
      </trkpt>
      <trkpt lat="44.07264" lon="7.74329">
        <ele>1552</ele>
        <time>2017-09-17T14:57:13Z</time>
      </trkpt>
      <trkpt lat="44.07257" lon="7.74339">
        <ele>1551</ele>
        <time>2017-09-17T14:57:14Z</time>
      </trkpt>
      <trkpt lat="44.07251" lon="7.74347">
        <ele>1550</ele>
        <time>2017-09-17T14:57:15Z</time>
      </trkpt>
      <trkpt lat="44.07243" lon="7.74355">
        <ele>1550</ele>
        <time>2017-09-17T14:57:16Z</time>
      </trkpt>
      <trkpt lat="44.07236" lon="7.74363">
        <ele>1549</ele>
        <time>2017-09-17T14:57:17Z</time>
      </trkpt>
      <trkpt lat="44.07229" lon="7.74373">
        <ele>1548</ele>
        <time>2017-09-17T14:57:18Z</time>
      </trkpt>
      <trkpt lat="44.07222" lon="7.74382">
        <ele>1547</ele>
        <time>2017-09-17T14:57:19Z</time>
      </trkpt>
      <trkpt lat="44.07215" lon="7.74393">
        <ele>1546</ele>
        <time>2017-09-17T14:57:20Z</time>
      </trkpt>
      <trkpt lat="44.07209" lon="7.74404">
        <ele>1545</ele>
        <time>2017-09-17T14:57:21Z</time>
      </trkpt>
      <trkpt lat="44.07202" lon="7.74415">
        <ele>1544</ele>
        <time>2017-09-17T14:57:22Z</time>
      </trkpt>
      <trkpt lat="44.07197" lon="7.74427">
        <ele>1543</ele>
        <time>2017-09-17T14:57:23Z</time>
      </trkpt>
      <trkpt lat="44.07192" lon="7.74439">
        <ele>1542</ele>
        <time>2017-09-17T14:57:24Z</time>
      </trkpt>
      <trkpt lat="44.07187" lon="7.7445">
        <ele>1541</ele>
        <time>2017-09-17T14:57:25Z</time>
      </trkpt>
      <trkpt lat="44.0718" lon="7.7446">
        <ele>1540</ele>
        <time>2017-09-17T14:57:26Z</time>
      </trkpt>
      <trkpt lat="44.07173" lon="7.74469">
        <ele>1538</ele>
        <time>2017-09-17T14:57:27Z</time>
      </trkpt>
      <trkpt lat="44.07165" lon="7.74479">
        <ele>1537</ele>
        <time>2017-09-17T14:57:28Z</time>
      </trkpt>
      <trkpt lat="44.07157" lon="7.74486">
        <ele>1536</ele>
        <time>2017-09-17T14:57:29Z</time>
      </trkpt>
      <trkpt lat="44.07149" lon="7.74491">
        <ele>1535</ele>
        <time>2017-09-17T14:57:30Z</time>
      </trkpt>
      <trkpt lat="44.0714" lon="7.74494">
        <ele>1535</ele>
        <time>2017-09-17T14:57:31Z</time>
      </trkpt>
      <trkpt lat="44.07132" lon="7.74498">
        <ele>1534</ele>
        <time>2017-09-17T14:57:32Z</time>
      </trkpt>
      <trkpt lat="44.07124" lon="7.74505">
        <ele>1533</ele>
        <time>2017-09-17T14:57:33Z</time>
      </trkpt>
      <trkpt lat="44.07116" lon="7.74513">
        <ele>1533</ele>
        <time>2017-09-17T14:57:34Z</time>
      </trkpt>
      <trkpt lat="44.07109" lon="7.74522">
        <ele>1532</ele>
        <time>2017-09-17T14:57:35Z</time>
      </trkpt>
      <trkpt lat="44.07103" lon="7.74533">
        <ele>1531</ele>
        <time>2017-09-17T14:57:36Z</time>
      </trkpt>
      <trkpt lat="44.07098" lon="7.74544">
        <ele>1530</ele>
        <time>2017-09-17T14:57:37Z</time>
      </trkpt>
      <trkpt lat="44.07095" lon="7.74555">
        <ele>1529</ele>
        <time>2017-09-17T14:57:38Z</time>
      </trkpt>
      <trkpt lat="44.07096" lon="7.74566">
        <ele>1528</ele>
        <time>2017-09-17T14:57:39Z</time>
      </trkpt>
      <trkpt lat="44.07099" lon="7.74577">
        <ele>1527</ele>
        <time>2017-09-17T14:57:40Z</time>
      </trkpt>
      <trkpt lat="44.07104" lon="7.74588">
        <ele>1526</ele>
        <time>2017-09-17T14:57:41Z</time>
      </trkpt>
      <trkpt lat="44.07109" lon="7.74599">
        <ele>1525</ele>
        <time>2017-09-17T14:57:42Z</time>
      </trkpt>
      <trkpt lat="44.07113" lon="7.7461">
        <ele>1524</ele>
        <time>2017-09-17T14:57:43Z</time>
      </trkpt>
      <trkpt lat="44.0712" lon="7.74617">
        <ele>1524</ele>
        <time>2017-09-17T14:57:44Z</time>
      </trkpt>
      <trkpt lat="44.07128" lon="7.7462">
        <ele>1523</ele>
        <time>2017-09-17T14:57:45Z</time>
      </trkpt>
      <trkpt lat="44.07136" lon="7.74618">
        <ele>1522</ele>
        <time>2017-09-17T14:57:46Z</time>
      </trkpt>
      <trkpt lat="44.07144" lon="7.74612">
        <ele>1522</ele>
        <time>2017-09-17T14:57:47Z</time>
      </trkpt>
      <trkpt lat="44.0715" lon="7.74604">
        <ele>1521</ele>
        <time>2017-09-17T14:57:48Z</time>
      </trkpt>
      <trkpt lat="44.07156" lon="7.74594">
        <ele>1520</ele>
        <time>2017-09-17T14:57:49Z</time>
      </trkpt>
      <trkpt lat="44.07161" lon="7.74584">
        <ele>1519</ele>
        <time>2017-09-17T14:57:50Z</time>
      </trkpt>
      <trkpt lat="44.07163" lon="7.74572">
        <ele>1518</ele>
        <time>2017-09-17T14:57:51Z</time>
      </trkpt>
      <trkpt lat="44.07163" lon="7.7456">
        <ele>1517</ele>
        <time>2017-09-17T14:57:52Z</time>
      </trkpt>
      <trkpt lat="44.07166" lon="7.74548">
        <ele>1516</ele>
        <time>2017-09-17T14:57:53Z</time>
      </trkpt>
      <trkpt lat="44.07173" lon="7.7454">
        <ele>1516</ele>
        <time>2017-09-17T14:57:54Z</time>
      </trkpt>
      <trkpt lat="44.07181" lon="7.74535">
        <ele>1515</ele>
        <time>2017-09-17T14:57:55Z</time>
      </trkpt>
      <trkpt lat="44.07191" lon="7.74534">
        <ele>1514</ele>
        <time>2017-09-17T14:57:56Z</time>
      </trkpt>
      <trkpt lat="44.072" lon="7.74537">
        <ele>1513</ele>
        <time>2017-09-17T14:57:57Z</time>
      </trkpt>
      <trkpt lat="44.07209" lon="7.7454">
        <ele>1513</ele>
        <time>2017-09-17T14:57:58Z</time>
      </trkpt>
      <trkpt lat="44.07218" lon="7.74543">
        <ele>1512</ele>
        <time>2017-09-17T14:57:59Z</time>
      </trkpt>
      <trkpt lat="44.07225" lon="7.74549">
        <ele>1511</ele>
        <time>2017-09-17T14:58:00Z</time>
      </trkpt>
      <trkpt lat="44.07229" lon="7.74558">
        <ele>1510</ele>
        <time>2017-09-17T14:58:01Z</time>
      </trkpt>
      <trkpt lat="44.07229" lon="7.74569">
        <ele>1509</ele>
        <time>2017-09-17T14:58:02Z</time>
      </trkpt>
      <trkpt lat="44.07225" lon="7.74577">
        <ele>1508</ele>
        <time>2017-09-17T14:58:03Z</time>
      </trkpt>
      <trkpt lat="44.07219" lon="7.74583">
        <ele>1507</ele>
        <time>2017-09-17T14:58:04Z</time>
      </trkpt>
      <trkpt lat="44.07213" lon="7.74591">
        <ele>1507</ele>
        <time>2017-09-17T14:58:05Z</time>
      </trkpt>
      <trkpt lat="44.07208" lon="7.74601">
        <ele>1506</ele>
        <time>2017-09-17T14:58:06Z</time>
      </trkpt>
      <trkpt lat="44.07206" lon="7.74613">
        <ele>1505</ele>
        <time>2017-09-17T14:58:07Z</time>
      </trkpt>
      <trkpt lat="44.07206" lon="7.74626">
        <ele>1504</ele>
        <time>2017-09-17T14:58:08Z</time>
      </trkpt>
      <trkpt lat="44.07207" lon="7.74637">
        <ele>1503</ele>
        <time>2017-09-17T14:58:09Z</time>
      </trkpt>
      <trkpt lat="44.07212" lon="7.74645">
        <ele>1502</ele>
        <time>2017-09-17T14:58:10Z</time>
      </trkpt>
      <trkpt lat="44.07218" lon="7.74648">
        <ele>1501</ele>
        <time>2017-09-17T14:58:11Z</time>
      </trkpt>
      <trkpt lat="44.07225" lon="7.74645">
        <ele>1500</ele>
        <time>2017-09-17T14:58:12Z</time>
      </trkpt>
      <trkpt lat="44.0723" lon="7.74639">
        <ele>1499</ele>
        <time>2017-09-17T14:58:13Z</time>
      </trkpt>
      <trkpt lat="44.07236" lon="7.74632">
        <ele>1499</ele>
        <time>2017-09-17T14:58:14Z</time>
      </trkpt>
      <trkpt lat="44.07241" lon="7.74624">
        <ele>1498</ele>
        <time>2017-09-17T14:58:15Z</time>
      </trkpt>
      <trkpt lat="44.07246" lon="7.74615">
        <ele>1498</ele>
        <time>2017-09-17T14:58:16Z</time>
      </trkpt>
      <trkpt lat="44.0725" lon="7.74604">
        <ele>1497</ele>
        <time>2017-09-17T14:58:17Z</time>
      </trkpt>
      <trkpt lat="44.07254" lon="7.74592">
        <ele>1496</ele>
        <time>2017-09-17T14:58:18Z</time>
      </trkpt>
      <trkpt lat="44.07256" lon="7.7458">
        <ele>1495</ele>
        <time>2017-09-17T14:58:19Z</time>
      </trkpt>
      <trkpt lat="44.07259" lon="7.74567">
        <ele>1494</ele>
        <time>2017-09-17T14:58:20Z</time>
      </trkpt>
      <trkpt lat="44.07263" lon="7.74555">
        <ele>1493</ele>
        <time>2017-09-17T14:58:21Z</time>
      </trkpt>
      <trkpt lat="44.07269" lon="7.74545">
        <ele>1493</ele>
        <time>2017-09-17T14:58:22Z</time>
      </trkpt>
      <trkpt lat="44.07277" lon="7.74536">
        <ele>1492</ele>
        <time>2017-09-17T14:58:23Z</time>
      </trkpt>
      <trkpt lat="44.07285" lon="7.74527">
        <ele>1491</ele>
        <time>2017-09-17T14:58:24Z</time>
      </trkpt>
      <trkpt lat="44.07293" lon="7.74517">
        <ele>1490</ele>
        <time>2017-09-17T14:58:25Z</time>
      </trkpt>
      <trkpt lat="44.07301" lon="7.74507">
        <ele>1489</ele>
        <time>2017-09-17T14:58:26Z</time>
      </trkpt>
      <trkpt lat="44.0731" lon="7.74496">
        <ele>1487</ele>
        <time>2017-09-17T14:58:27Z</time>
      </trkpt>
      <trkpt lat="44.07319" lon="7.74485">
        <ele>1486</ele>
        <time>2017-09-17T14:58:28Z</time>
      </trkpt>
      <trkpt lat="44.07328" lon="7.74474">
        <ele>1485</ele>
        <time>2017-09-17T14:58:29Z</time>
      </trkpt>
      <trkpt lat="44.07337" lon="7.74463">
        <ele>1483</ele>
        <time>2017-09-17T14:58:30Z</time>
      </trkpt>
      <trkpt lat="44.07346" lon="7.74451">
        <ele>1482</ele>
        <time>2017-09-17T14:58:31Z</time>
      </trkpt>
      <trkpt lat="44.07356" lon="7.74441">
        <ele>1481</ele>
        <time>2017-09-17T14:58:32Z</time>
      </trkpt>
      <trkpt lat="44.07365" lon="7.74431">
        <ele>1480</ele>
        <time>2017-09-17T14:58:33Z</time>
      </trkpt>
      <trkpt lat="44.07372" lon="7.74421">
        <ele>1478</ele>
        <time>2017-09-17T14:58:34Z</time>
      </trkpt>
      <trkpt lat="44.07378" lon="7.74412">
        <ele>1478</ele>
        <time>2017-09-17T14:58:35Z</time>
      </trkpt>
      <trkpt lat="44.07382" lon="7.74404">
        <ele>1477</ele>
        <time>2017-09-17T14:58:36Z</time>
      </trkpt>
      <trkpt lat="44.07387" lon="7.74402">
        <ele>1476</ele>
        <time>2017-09-17T14:58:37Z</time>
      </trkpt>
      <trkpt lat="44.07391" lon="7.74404">
        <ele>1476</ele>
        <time>2017-09-17T14:58:38Z</time>
      </trkpt>
      <trkpt lat="44.07392" lon="7.74411">
        <ele>1475</ele>
        <time>2017-09-17T14:58:39Z</time>
      </trkpt>
      <trkpt lat="44.07391" lon="7.74419">
        <ele>1474</ele>
        <time>2017-09-17T14:58:40Z</time>
      </trkpt>
      <trkpt lat="44.07387" lon="7.74427">
        <ele>1473</ele>
        <time>2017-09-17T14:58:41Z</time>
      </trkpt>
      <trkpt lat="44.07382" lon="7.74435">
        <ele>1473</ele>
        <time>2017-09-17T14:58:42Z</time>
      </trkpt>
      <trkpt lat="44.07377" lon="7.74442">
        <ele>1472</ele>
        <time>2017-09-17T14:58:43Z</time>
      </trkpt>
      <trkpt lat="44.07371" lon="7.74449">
        <ele>1472</ele>
        <time>2017-09-17T14:58:44Z</time>
      </trkpt>
      <trkpt lat="44.07365" lon="7.74459">
        <ele>1471</ele>
        <time>2017-09-17T14:58:45Z</time>
      </trkpt>
      <trkpt lat="44.0736" lon="7.74469">
        <ele>1470</ele>
        <time>2017-09-17T14:58:46Z</time>
      </trkpt>
      <trkpt lat="44.07357" lon="7.74481">
        <ele>1469</ele>
        <time>2017-09-17T14:58:47Z</time>
      </trkpt>
      <trkpt lat="44.07354" lon="7.74494">
        <ele>1468</ele>
        <time>2017-09-17T14:58:48Z</time>
      </trkpt>
      <trkpt lat="44.0735" lon="7.74507">
        <ele>1467</ele>
        <time>2017-09-17T14:58:49Z</time>
      </trkpt>
      <trkpt lat="44.07344" lon="7.74518">
        <ele>1466</ele>
        <time>2017-09-17T14:58:50Z</time>
      </trkpt>
      <trkpt lat="44.07336" lon="7.74529">
        <ele>1465</ele>
        <time>2017-09-17T14:58:51Z</time>
      </trkpt>
      <trkpt lat="44.07329" lon="7.7454">
        <ele>1464</ele>
        <time>2017-09-17T14:58:52Z</time>
      </trkpt>
      <trkpt lat="44.07323" lon="7.74552">
        <ele>1463</ele>
        <time>2017-09-17T14:58:53Z</time>
      </trkpt>
      <trkpt lat="44.07318" lon="7.74566">
        <ele>1462</ele>
        <time>2017-09-17T14:58:54Z</time>
      </trkpt>
      <trkpt lat="44.07316" lon="7.74581">
        <ele>1461</ele>
        <time>2017-09-17T14:58:55Z</time>
      </trkpt>
      <trkpt lat="44.07315" lon="7.74597">
        <ele>1459</ele>
        <time>2017-09-17T14:58:56Z</time>
      </trkpt>
      <trkpt lat="44.07314" lon="7.74613">
        <ele>1458</ele>
        <time>2017-09-17T14:58:57Z</time>
      </trkpt>
      <trkpt lat="44.07313" lon="7.74629">
        <ele>1457</ele>
        <time>2017-09-17T14:58:58Z</time>
      </trkpt>
      <trkpt lat="44.07312" lon="7.74644">
        <ele>1456</ele>
        <time>2017-09-17T14:58:59Z</time>
      </trkpt>
      <trkpt lat="44.07314" lon="7.74659">
        <ele>1454</ele>
        <time>2017-09-17T14:59:00Z</time>
      </trkpt>
      <trkpt lat="44.07318" lon="7.74671">
        <ele>1453</ele>
        <time>2017-09-17T14:59:01Z</time>
      </trkpt>
      <trkpt lat="44.07321" lon="7.74682">
        <ele>1452</ele>
        <time>2017-09-17T14:59:02Z</time>
      </trkpt>
      <trkpt lat="44.07323" lon="7.74694">
        <ele>1451</ele>
        <time>2017-09-17T14:59:03Z</time>
      </trkpt>
      <trkpt lat="44.07322" lon="7.74707">
        <ele>1450</ele>
        <time>2017-09-17T14:59:04Z</time>
      </trkpt>
      <trkpt lat="44.0732" lon="7.74721">
        <ele>1449</ele>
        <time>2017-09-17T14:59:05Z</time>
      </trkpt>
      <trkpt lat="44.07318" lon="7.74733">
        <ele>1448</ele>
        <time>2017-09-17T14:59:06Z</time>
      </trkpt>
      <trkpt lat="44.07313" lon="7.74743">
        <ele>1447</ele>
        <time>2017-09-17T14:59:07Z</time>
      </trkpt>
      <trkpt lat="44.07309" lon="7.7475">
        <ele>1446</ele>
        <time>2017-09-17T14:59:08Z</time>
      </trkpt>
      <trkpt lat="44.07308" lon="7.74757">
        <ele>1446</ele>
        <time>2017-09-17T14:59:09Z</time>
      </trkpt>
      <trkpt lat="44.0731" lon="7.74762">
        <ele>1445</ele>
        <time>2017-09-17T14:59:10Z</time>
      </trkpt>
      <trkpt lat="44.07315" lon="7.74763">
        <ele>1444</ele>
        <time>2017-09-17T14:59:11Z</time>
      </trkpt>
      <trkpt lat="44.07321" lon="7.74759">
        <ele>1444</ele>
        <time>2017-09-17T14:59:12Z</time>
      </trkpt>
      <trkpt lat="44.07325" lon="7.74753">
        <ele>1443</ele>
        <time>2017-09-17T14:59:13Z</time>
      </trkpt>
      <trkpt lat="44.0733" lon="7.74745">
        <ele>1443</ele>
        <time>2017-09-17T14:59:14Z</time>
      </trkpt>
      <trkpt lat="44.07334" lon="7.74736">
        <ele>1442</ele>
        <time>2017-09-17T14:59:15Z</time>
      </trkpt>
      <trkpt lat="44.0734" lon="7.74728">
        <ele>1441</ele>
        <time>2017-09-17T14:59:16Z</time>
      </trkpt>
      <trkpt lat="44.07347" lon="7.74722">
        <ele>1441</ele>
        <time>2017-09-17T14:59:17Z</time>
      </trkpt>
      <trkpt lat="44.07355" lon="7.74718">
        <ele>1440</ele>
        <time>2017-09-17T14:59:18Z</time>
      </trkpt>
      <trkpt lat="44.07364" lon="7.74714">
        <ele>1440</ele>
        <time>2017-09-17T14:59:19Z</time>
      </trkpt>
      <trkpt lat="44.07371" lon="7.74706">
        <ele>1439</ele>
        <time>2017-09-17T14:59:20Z</time>
      </trkpt>
      <trkpt lat="44.07376" lon="7.74696">
        <ele>1438</ele>
        <time>2017-09-17T14:59:21Z</time>
      </trkpt>
      <trkpt lat="44.07378" lon="7.74683">
        <ele>1437</ele>
        <time>2017-09-17T14:59:22Z</time>
      </trkpt>
      <trkpt lat="44.07376" lon="7.74672">
        <ele>1436</ele>
        <time>2017-09-17T14:59:23Z</time>
      </trkpt>
      <trkpt lat="44.07372" lon="7.74662">
        <ele>1436</ele>
        <time>2017-09-17T14:59:24Z</time>
      </trkpt>
      <trkpt lat="44.07369" lon="7.74651">
        <ele>1435</ele>
        <time>2017-09-17T14:59:25Z</time>
      </trkpt>
      <trkpt lat="44.07368" lon="7.74639">
        <ele>1434</ele>
        <time>2017-09-17T14:59:26Z</time>
      </trkpt>
      <trkpt lat="44.07369" lon="7.74626">
        <ele>1433</ele>
        <time>2017-09-17T14:59:27Z</time>
      </trkpt>
      <trkpt lat="44.0737" lon="7.74613">
        <ele>1432</ele>
        <time>2017-09-17T14:59:28Z</time>
      </trkpt>
      <trkpt lat="44.07375" lon="7.74601">
        <ele>1431</ele>
        <time>2017-09-17T14:59:29Z</time>
      </trkpt>
      <trkpt lat="44.07382" lon="7.74592">
        <ele>1430</ele>
        <time>2017-09-17T14:59:30Z</time>
      </trkpt>
      <trkpt lat="44.0739" lon="7.74582">
        <ele>1429</ele>
        <time>2017-09-17T14:59:31Z</time>
      </trkpt>
      <trkpt lat="44.07398" lon="7.74572">
        <ele>1428</ele>
        <time>2017-09-17T14:59:32Z</time>
      </trkpt>
      <trkpt lat="44.07406" lon="7.74563">
        <ele>1427</ele>
        <time>2017-09-17T14:59:33Z</time>
      </trkpt>
      <trkpt lat="44.07416" lon="7.74555">
        <ele>1426</ele>
        <time>2017-09-17T14:59:34Z</time>
      </trkpt>
      <trkpt lat="44.07426" lon="7.74548">
        <ele>1424</ele>
        <time>2017-09-17T14:59:35Z</time>
      </trkpt>
      <trkpt lat="44.07436" lon="7.7454">
        <ele>1423</ele>
        <time>2017-09-17T14:59:36Z</time>
      </trkpt>
      <trkpt lat="44.07446" lon="7.74533">
        <ele>1422</ele>
        <time>2017-09-17T14:59:37Z</time>
      </trkpt>
      <trkpt lat="44.07457" lon="7.74526">
        <ele>1420</ele>
        <time>2017-09-17T14:59:38Z</time>
      </trkpt>
      <trkpt lat="44.07467" lon="7.74519">
        <ele>1419</ele>
        <time>2017-09-17T14:59:39Z</time>
      </trkpt>
      <trkpt lat="44.07477" lon="7.7451">
        <ele>1418</ele>
        <time>2017-09-17T14:59:40Z</time>
      </trkpt>
      <trkpt lat="44.07486" lon="7.74499">
        <ele>1416</ele>
        <time>2017-09-17T14:59:41Z</time>
      </trkpt>
      <trkpt lat="44.07494" lon="7.74486">
        <ele>1415</ele>
        <time>2017-09-17T14:59:42Z</time>
      </trkpt>
      <trkpt lat="44.07501" lon="7.74472">
        <ele>1414</ele>
        <time>2017-09-17T14:59:43Z</time>
      </trkpt>
      <trkpt lat="44.07508" lon="7.74458">
        <ele>1413</ele>
        <time>2017-09-17T14:59:44Z</time>
      </trkpt>
      <trkpt lat="44.07514" lon="7.74445">
        <ele>1412</ele>
        <time>2017-09-17T14:59:45Z</time>
      </trkpt>
      <trkpt lat="44.07521" lon="7.74432">
        <ele>1411</ele>
        <time>2017-09-17T14:59:46Z</time>
      </trkpt>
      <trkpt lat="44.07528" lon="7.74421">
        <ele>1410</ele>
        <time>2017-09-17T14:59:47Z</time>
      </trkpt>
      <trkpt lat="44.07536" lon="7.74411">
        <ele>1409</ele>
        <time>2017-09-17T14:59:48Z</time>
      </trkpt>
      <trkpt lat="44.07544" lon="7.74402">
        <ele>1408</ele>
        <time>2017-09-17T14:59:49Z</time>
      </trkpt>
      <trkpt lat="44.07552" lon="7.74395">
        <ele>1407</ele>
        <time>2017-09-17T14:59:50Z</time>
      </trkpt>
      <trkpt lat="44.07559" lon="7.74388">
        <ele>1406</ele>
        <time>2017-09-17T14:59:51Z</time>
      </trkpt>
      <trkpt lat="44.07565" lon="7.74384">
        <ele>1406</ele>
        <time>2017-09-17T14:59:52Z</time>
      </trkpt>
      <trkpt lat="44.0757" lon="7.74384">
        <ele>1405</ele>
        <time>2017-09-17T14:59:53Z</time>
      </trkpt>
      <trkpt lat="44.07573" lon="7.74388">
        <ele>1405</ele>
        <time>2017-09-17T14:59:54Z</time>
      </trkpt>
      <trkpt lat="44.07572" lon="7.74394">
        <ele>1404</ele>
        <time>2017-09-17T14:59:55Z</time>
      </trkpt>
      <trkpt lat="44.07569" lon="7.744">
        <ele>1404</ele>
        <time>2017-09-17T14:59:56Z</time>
      </trkpt>
      <trkpt lat="44.07565" lon="7.74406">
        <ele>1404</ele>
        <time>2017-09-17T14:59:57Z</time>
      </trkpt>
      <trkpt lat="44.07562" lon="7.74411">
        <ele>1403</ele>
        <time>2017-09-17T14:59:58Z</time>
      </trkpt>
      <trkpt lat="44.07558" lon="7.74417">
        <ele>1403</ele>
        <time>2017-09-17T14:59:59Z</time>
      </trkpt>
      <trkpt lat="44.07555" lon="7.74424">
        <ele>1402</ele>
        <time>2017-09-17T15:00:00Z</time>
      </trkpt>
      <trkpt lat="44.07553" lon="7.74432">
        <ele>1401</ele>
        <time>2017-09-17T15:00:01Z</time>
      </trkpt>
      <trkpt lat="44.07552" lon="7.7444">
        <ele>1401</ele>
        <time>2017-09-17T15:00:02Z</time>
      </trkpt>
      <trkpt lat="44.07553" lon="7.74448">
        <ele>1400</ele>
        <time>2017-09-17T15:00:03Z</time>
      </trkpt>
      <trkpt lat="44.07555" lon="7.74456">
        <ele>1400</ele>
        <time>2017-09-17T15:00:04Z</time>
      </trkpt>
      <trkpt lat="44.07558" lon="7.74462">
        <ele>1399</ele>
        <time>2017-09-17T15:00:05Z</time>
      </trkpt>
      <trkpt lat="44.07562" lon="7.74468">
        <ele>1398</ele>
        <time>2017-09-17T15:00:06Z</time>
      </trkpt>
      <trkpt lat="44.07566" lon="7.74473">
        <ele>1398</ele>
        <time>2017-09-17T15:00:07Z</time>
      </trkpt>
      <trkpt lat="44.07569" lon="7.74478">
        <ele>1397</ele>
        <time>2017-09-17T15:00:08Z</time>
      </trkpt>
      <trkpt lat="44.07571" lon="7.74484">
        <ele>1397</ele>
        <time>2017-09-17T15:00:09Z</time>
      </trkpt>
      <trkpt lat="44.07571" lon="7.74491">
        <ele>1396</ele>
        <time>2017-09-17T15:00:10Z</time>
      </trkpt>
      <trkpt lat="44.0757" lon="7.74497">
        <ele>1396</ele>
        <time>2017-09-17T15:00:11Z</time>
      </trkpt>
      <trkpt lat="44.07568" lon="7.74503">
        <ele>1395</ele>
        <time>2017-09-17T15:00:12Z</time>
      </trkpt>
      <trkpt lat="44.07565" lon="7.74508">
        <ele>1395</ele>
        <time>2017-09-17T15:00:13Z</time>
      </trkpt>
      <trkpt lat="44.07562" lon="7.74515">
        <ele>1394</ele>
        <time>2017-09-17T15:00:14Z</time>
      </trkpt>
      <trkpt lat="44.07559" lon="7.74521">
        <ele>1393</ele>
        <time>2017-09-17T15:00:15Z</time>
      </trkpt>
      <trkpt lat="44.07555" lon="7.74529">
        <ele>1393</ele>
        <time>2017-09-17T15:00:16Z</time>
      </trkpt>
      <trkpt lat="44.07552" lon="7.74536">
        <ele>1392</ele>
        <time>2017-09-17T15:00:17Z</time>
      </trkpt>
      <trkpt lat="44.07548" lon="7.74543">
        <ele>1391</ele>
        <time>2017-09-17T15:00:18Z</time>
      </trkpt>
      <trkpt lat="44.07545" lon="7.7455">
        <ele>1390</ele>
        <time>2017-09-17T15:00:19Z</time>
      </trkpt>
      <trkpt lat="44.07542" lon="7.74556">
        <ele>1389</ele>
        <time>2017-09-17T15:00:20Z</time>
      </trkpt>
      <trkpt lat="44.07541" lon="7.74563">
        <ele>1389</ele>
        <time>2017-09-17T15:00:21Z</time>
      </trkpt>
      <trkpt lat="44.07541" lon="7.7457">
        <ele>1388</ele>
        <time>2017-09-17T15:00:22Z</time>
      </trkpt>
      <trkpt lat="44.07544" lon="7.74576">
        <ele>1388</ele>
        <time>2017-09-17T15:00:23Z</time>
      </trkpt>
      <trkpt lat="44.07547" lon="7.74581">
        <ele>1388</ele>
        <time>2017-09-17T15:00:24Z</time>
      </trkpt>
      <trkpt lat="44.07552" lon="7.74586">
        <ele>1387</ele>
        <time>2017-09-17T15:00:25Z</time>
      </trkpt>
      <trkpt lat="44.07556" lon="7.74592">
        <ele>1387</ele>
        <time>2017-09-17T15:00:26Z</time>
      </trkpt>
      <trkpt lat="44.0756" lon="7.74598">
        <ele>1386</ele>
        <time>2017-09-17T15:00:27Z</time>
      </trkpt>
      <trkpt lat="44.07564" lon="7.74605">
        <ele>1386</ele>
        <time>2017-09-17T15:00:28Z</time>
      </trkpt>
      <trkpt lat="44.07568" lon="7.74613">
        <ele>1385</ele>
        <time>2017-09-17T15:00:29Z</time>
      </trkpt>
      <trkpt lat="44.07572" lon="7.74621">
        <ele>1385</ele>
        <time>2017-09-17T15:00:30Z</time>
      </trkpt>
      <trkpt lat="44.07577" lon="7.74629">
        <ele>1385</ele>
        <time>2017-09-17T15:00:31Z</time>
      </trkpt>
      <trkpt lat="44.07581" lon="7.74638">
        <ele>1384</ele>
        <time>2017-09-17T15:00:32Z</time>
      </trkpt>
      <trkpt lat="44.07586" lon="7.74647">
        <ele>1384</ele>
        <time>2017-09-17T15:00:33Z</time>
      </trkpt>
      <trkpt lat="44.0759" lon="7.74655">
        <ele>1384</ele>
        <time>2017-09-17T15:00:34Z</time>
      </trkpt>
      <trkpt lat="44.07594" lon="7.74664">
        <ele>1383</ele>
        <time>2017-09-17T15:00:35Z</time>
      </trkpt>
      <trkpt lat="44.07597" lon="7.74672">
        <ele>1383</ele>
        <time>2017-09-17T15:00:36Z</time>
      </trkpt>
      <trkpt lat="44.07601" lon="7.74681">
        <ele>1382</ele>
        <time>2017-09-17T15:00:37Z</time>
      </trkpt>
      <trkpt lat="44.07604" lon="7.74689">
        <ele>1381</ele>
        <time>2017-09-17T15:00:38Z</time>
      </trkpt>
      <trkpt lat="44.07607" lon="7.74697">
        <ele>1381</ele>
        <time>2017-09-17T15:00:39Z</time>
      </trkpt>
      <trkpt lat="44.0761" lon="7.74705">
        <ele>1380</ele>
        <time>2017-09-17T15:00:40Z</time>
      </trkpt>
      <trkpt lat="44.07612" lon="7.74713">
        <ele>1379</ele>
        <time>2017-09-17T15:00:41Z</time>
      </trkpt>
      <trkpt lat="44.07612" lon="7.74721">
        <ele>1378</ele>
        <time>2017-09-17T15:00:42Z</time>
      </trkpt>
      <trkpt lat="44.0761" lon="7.7473">
        <ele>1377</ele>
        <time>2017-09-17T15:00:43Z</time>
      </trkpt>
      <trkpt lat="44.07607" lon="7.74737">
        <ele>1376</ele>
        <time>2017-09-17T15:00:44Z</time>
      </trkpt>
      <trkpt lat="44.07602" lon="7.74744">
        <ele>1376</ele>
        <time>2017-09-17T15:00:45Z</time>
      </trkpt>
      <trkpt lat="44.07597" lon="7.74749">
        <ele>1375</ele>
        <time>2017-09-17T15:00:46Z</time>
      </trkpt>
      <trkpt lat="44.0759" lon="7.74753">
        <ele>1374</ele>
        <time>2017-09-17T15:00:47Z</time>
      </trkpt>
      <trkpt lat="44.07584" lon="7.74757">
        <ele>1373</ele>
        <time>2017-09-17T15:00:48Z</time>
      </trkpt>
      <trkpt lat="44.07576" lon="7.74759">
        <ele>1372</ele>
        <time>2017-09-17T15:00:49Z</time>
      </trkpt>
      <trkpt lat="44.07569" lon="7.74763">
        <ele>1372</ele>
        <time>2017-09-17T15:00:50Z</time>
      </trkpt>
      <trkpt lat="44.07562" lon="7.74767">
        <ele>1371</ele>
        <time>2017-09-17T15:00:51Z</time>
      </trkpt>
      <trkpt lat="44.07555" lon="7.74773">
        <ele>1370</ele>
        <time>2017-09-17T15:00:52Z</time>
      </trkpt>
      <trkpt lat="44.0755" lon="7.74781">
        <ele>1370</ele>
        <time>2017-09-17T15:00:53Z</time>
      </trkpt>
      <trkpt lat="44.07546" lon="7.7479">
        <ele>1369</ele>
        <time>2017-09-17T15:00:54Z</time>
      </trkpt>
      <trkpt lat="44.07542" lon="7.74799">
        <ele>1368</ele>
        <time>2017-09-17T15:00:55Z</time>
      </trkpt>
      <trkpt lat="44.07538" lon="7.74809">
        <ele>1367</ele>
        <time>2017-09-17T15:00:56Z</time>
      </trkpt>
      <trkpt lat="44.07533" lon="7.74818">
        <ele>1367</ele>
        <time>2017-09-17T15:00:57Z</time>
      </trkpt>
      <trkpt lat="44.07528" lon="7.74828">
        <ele>1366</ele>
        <time>2017-09-17T15:00:58Z</time>
      </trkpt>
      <trkpt lat="44.07522" lon="7.74837">
        <ele>1365</ele>
        <time>2017-09-17T15:00:59Z</time>
      </trkpt>
      <trkpt lat="44.07515" lon="7.74847">
        <ele>1364</ele>
        <time>2017-09-17T15:01:00Z</time>
      </trkpt>
      <trkpt lat="44.07508" lon="7.74858">
        <ele>1362</ele>
        <time>2017-09-17T15:01:01Z</time>
      </trkpt>
      <trkpt lat="44.07503" lon="7.7487">
        <ele>1361</ele>
        <time>2017-09-17T15:01:02Z</time>
      </trkpt>
      <trkpt lat="44.07499" lon="7.74884">
        <ele>1360</ele>
        <time>2017-09-17T15:01:03Z</time>
      </trkpt>
      <trkpt lat="44.07495" lon="7.74897">
        <ele>1359</ele>
        <time>2017-09-17T15:01:04Z</time>
      </trkpt>
      <trkpt lat="44.0749" lon="7.74909">
        <ele>1358</ele>
        <time>2017-09-17T15:01:05Z</time>
      </trkpt>
      <trkpt lat="44.07485" lon="7.7492">
        <ele>1357</ele>
        <time>2017-09-17T15:01:06Z</time>
      </trkpt>
      <trkpt lat="44.07482" lon="7.74928">
        <ele>1357</ele>
        <time>2017-09-17T15:01:07Z</time>
      </trkpt>
      <trkpt lat="44.0748" lon="7.74936">
        <ele>1356</ele>
        <time>2017-09-17T15:01:08Z</time>
      </trkpt>
      <trkpt lat="44.0748" lon="7.74942">
        <ele>1356</ele>
        <time>2017-09-17T15:01:09Z</time>
      </trkpt>
      <trkpt lat="44.07483" lon="7.74943">
        <ele>1356</ele>
        <time>2017-09-17T15:01:10Z</time>
      </trkpt>
      <trkpt lat="44.07488" lon="7.7494">
        <ele>1356</ele>
        <time>2017-09-17T15:01:11Z</time>
      </trkpt>
      <trkpt lat="44.07493" lon="7.74933">
        <ele>1355</ele>
        <time>2017-09-17T15:01:12Z</time>
      </trkpt>
      <trkpt lat="44.07499" lon="7.74927">
        <ele>1355</ele>
        <time>2017-09-17T15:01:13Z</time>
      </trkpt>
      <trkpt lat="44.07506" lon="7.74922">
        <ele>1354</ele>
        <time>2017-09-17T15:01:14Z</time>
      </trkpt>
      <trkpt lat="44.07514" lon="7.74919">
        <ele>1354</ele>
        <time>2017-09-17T15:01:15Z</time>
      </trkpt>
      <trkpt lat="44.07522" lon="7.74916">
        <ele>1353</ele>
        <time>2017-09-17T15:01:16Z</time>
      </trkpt>
      <trkpt lat="44.07529" lon="7.74913">
        <ele>1353</ele>
        <time>2017-09-17T15:01:17Z</time>
      </trkpt>
      <trkpt lat="44.07534" lon="7.74912">
        <ele>1352</ele>
        <time>2017-09-17T15:01:18Z</time>
      </trkpt>
      <trkpt lat="44.07539" lon="7.74916">
        <ele>1352</ele>
        <time>2017-09-17T15:01:19Z</time>
      </trkpt>
      <trkpt lat="44.07539" lon="7.74923">
        <ele>1352</ele>
        <time>2017-09-17T15:01:20Z</time>
      </trkpt>
      <trkpt lat="44.07535" lon="7.74928">
        <ele>1351</ele>
        <time>2017-09-17T15:01:21Z</time>
      </trkpt>
      <trkpt lat="44.0753" lon="7.74932">
        <ele>1351</ele>
        <time>2017-09-17T15:01:22Z</time>
      </trkpt>
      <trkpt lat="44.07524" lon="7.74935">
        <ele>1351</ele>
        <time>2017-09-17T15:01:23Z</time>
      </trkpt>
      <trkpt lat="44.07518" lon="7.74939">
        <ele>1350</ele>
        <time>2017-09-17T15:01:24Z</time>
      </trkpt>
      <trkpt lat="44.07511" lon="7.74943">
        <ele>1350</ele>
        <time>2017-09-17T15:01:25Z</time>
      </trkpt>
      <trkpt lat="44.07504" lon="7.74947">
        <ele>1350</ele>
        <time>2017-09-17T15:01:26Z</time>
      </trkpt>
      <trkpt lat="44.07498" lon="7.74952">
        <ele>1349</ele>
        <time>2017-09-17T15:01:27Z</time>
      </trkpt>
      <trkpt lat="44.07491" lon="7.74958">
        <ele>1349</ele>
        <time>2017-09-17T15:01:28Z</time>
      </trkpt>
      <trkpt lat="44.07485" lon="7.74963">
        <ele>1349</ele>
        <time>2017-09-17T15:01:29Z</time>
      </trkpt>
      <trkpt lat="44.0748" lon="7.7497">
        <ele>1349</ele>
        <time>2017-09-17T15:01:30Z</time>
      </trkpt>
      <trkpt lat="44.07476" lon="7.74979">
        <ele>1349</ele>
        <time>2017-09-17T15:01:31Z</time>
      </trkpt>
      <trkpt lat="44.07475" lon="7.74988">
        <ele>1349</ele>
        <time>2017-09-17T15:01:32Z</time>
      </trkpt>
      <trkpt lat="44.07476" lon="7.74997">
        <ele>1349</ele>
        <time>2017-09-17T15:01:33Z</time>
      </trkpt>
      <trkpt lat="44.07478" lon="7.75006">
        <ele>1349</ele>
        <time>2017-09-17T15:01:34Z</time>
      </trkpt>
      <trkpt lat="44.07482" lon="7.75012">
        <ele>1349</ele>
        <time>2017-09-17T15:01:35Z</time>
      </trkpt>
      <trkpt lat="44.07488" lon="7.75016">
        <ele>1349</ele>
        <time>2017-09-17T15:01:36Z</time>
      </trkpt>
      <trkpt lat="44.07494" lon="7.75017">
        <ele>1348</ele>
        <time>2017-09-17T15:01:37Z</time>
      </trkpt>
      <trkpt lat="44.075" lon="7.75017">
        <ele>1348</ele>
        <time>2017-09-17T15:01:38Z</time>
      </trkpt>
      <trkpt lat="44.07507" lon="7.75017">
        <ele>1348</ele>
        <time>2017-09-17T15:01:39Z</time>
      </trkpt>
      <trkpt lat="44.07514" lon="7.75017">
        <ele>1348</ele>
        <time>2017-09-17T15:01:40Z</time>
      </trkpt>
      <trkpt lat="44.07522" lon="7.75017">
        <ele>1347</ele>
        <time>2017-09-17T15:01:41Z</time>
      </trkpt>
      <trkpt lat="44.07529" lon="7.75017">
        <ele>1347</ele>
        <time>2017-09-17T15:01:42Z</time>
      </trkpt>
      <trkpt lat="44.07537" lon="7.75017">
        <ele>1346</ele>
        <time>2017-09-17T15:01:43Z</time>
      </trkpt>
      <trkpt lat="44.07545" lon="7.75016">
        <ele>1346</ele>
        <time>2017-09-17T15:01:44Z</time>
      </trkpt>
      <trkpt lat="44.07554" lon="7.75015">
        <ele>1345</ele>
        <time>2017-09-17T15:01:45Z</time>
      </trkpt>
      <trkpt lat="44.07563" lon="7.75012">
        <ele>1345</ele>
        <time>2017-09-17T15:01:46Z</time>
      </trkpt>
      <trkpt lat="44.07572" lon="7.7501">
        <ele>1344</ele>
        <time>2017-09-17T15:01:47Z</time>
      </trkpt>
      <trkpt lat="44.07581" lon="7.75007">
        <ele>1343</ele>
        <time>2017-09-17T15:01:48Z</time>
      </trkpt>
      <trkpt lat="44.07591" lon="7.75003">
        <ele>1342</ele>
        <time>2017-09-17T15:01:49Z</time>
      </trkpt>
      <trkpt lat="44.07601" lon="7.75">
        <ele>1342</ele>
        <time>2017-09-17T15:01:50Z</time>
      </trkpt>
      <trkpt lat="44.07611" lon="7.74996">
        <ele>1341</ele>
        <time>2017-09-17T15:01:51Z</time>
      </trkpt>
      <trkpt lat="44.07621" lon="7.74992">
        <ele>1340</ele>
        <time>2017-09-17T15:01:52Z</time>
      </trkpt>
      <trkpt lat="44.07632" lon="7.74987">
        <ele>1339</ele>
        <time>2017-09-17T15:01:53Z</time>
      </trkpt>
      <trkpt lat="44.07642" lon="7.74982">
        <ele>1338</ele>
        <time>2017-09-17T15:01:54Z</time>
      </trkpt>
      <trkpt lat="44.07652" lon="7.74976">
        <ele>1337</ele>
        <time>2017-09-17T15:01:55Z</time>
      </trkpt>
      <trkpt lat="44.07664" lon="7.74971">
        <ele>1335</ele>
        <time>2017-09-17T15:01:56Z</time>
      </trkpt>
      <trkpt lat="44.07675" lon="7.74967">
        <ele>1334</ele>
        <time>2017-09-17T15:01:57Z</time>
      </trkpt>
      <trkpt lat="44.07687" lon="7.74964">
        <ele>1332</ele>
        <time>2017-09-17T15:01:58Z</time>
      </trkpt>
      <trkpt lat="44.077" lon="7.74963">
        <ele>1331</ele>
        <time>2017-09-17T15:01:59Z</time>
      </trkpt>
      <trkpt lat="44.07712" lon="7.74962">
        <ele>1330</ele>
        <time>2017-09-17T15:02:00Z</time>
      </trkpt>
      <trkpt lat="44.07725" lon="7.74961">
        <ele>1329</ele>
        <time>2017-09-17T15:02:01Z</time>
      </trkpt>
      <trkpt lat="44.07738" lon="7.7496">
        <ele>1328</ele>
        <time>2017-09-17T15:02:02Z</time>
      </trkpt>
      <trkpt lat="44.0775" lon="7.74959">
        <ele>1327</ele>
        <time>2017-09-17T15:02:03Z</time>
      </trkpt>
      <trkpt lat="44.07763" lon="7.74958">
        <ele>1325</ele>
        <time>2017-09-17T15:02:04Z</time>
      </trkpt>
      <trkpt lat="44.07776" lon="7.74959">
        <ele>1324</ele>
        <time>2017-09-17T15:02:05Z</time>
      </trkpt>
      <trkpt lat="44.07789" lon="7.7496">
        <ele>1323</ele>
        <time>2017-09-17T15:02:06Z</time>
      </trkpt>
      <trkpt lat="44.07802" lon="7.74963">
        <ele>1322</ele>
        <time>2017-09-17T15:02:07Z</time>
      </trkpt>
      <trkpt lat="44.07815" lon="7.74967">
        <ele>1320</ele>
        <time>2017-09-17T15:02:08Z</time>
      </trkpt>
      <trkpt lat="44.07828" lon="7.74972">
        <ele>1319</ele>
        <time>2017-09-17T15:02:09Z</time>
      </trkpt>
      <trkpt lat="44.0784" lon="7.74979">
        <ele>1318</ele>
        <time>2017-09-17T15:02:10Z</time>
      </trkpt>
      <trkpt lat="44.07852" lon="7.74987">
        <ele>1317</ele>
        <time>2017-09-17T15:02:11Z</time>
      </trkpt>
      <trkpt lat="44.07864" lon="7.74995">
        <ele>1316</ele>
        <time>2017-09-17T15:02:12Z</time>
      </trkpt>
      <trkpt lat="44.07876" lon="7.75001">
        <ele>1315</ele>
        <time>2017-09-17T15:02:13Z</time>
      </trkpt>
      <trkpt lat="44.07887" lon="7.75007">
        <ele>1313</ele>
        <time>2017-09-17T15:02:14Z</time>
      </trkpt>
      <trkpt lat="44.07897" lon="7.75012">
        <ele>1312</ele>
        <time>2017-09-17T15:02:15Z</time>
      </trkpt>
      <trkpt lat="44.07905" lon="7.75016">
        <ele>1311</ele>
        <time>2017-09-17T15:02:16Z</time>
      </trkpt>
      <trkpt lat="44.07911" lon="7.7502">
        <ele>1311</ele>
        <time>2017-09-17T15:02:17Z</time>
      </trkpt>
      <trkpt lat="44.07915" lon="7.75024">
        <ele>1310</ele>
        <time>2017-09-17T15:02:18Z</time>
      </trkpt>
      <trkpt lat="44.07917" lon="7.75027">
        <ele>1310</ele>
        <time>2017-09-17T15:02:19Z</time>
      </trkpt>
      <trkpt lat="44.07918" lon="7.75029">
        <ele>1310</ele>
        <time>2017-09-17T15:02:20Z</time>
      </trkpt>
      <trkpt lat="44.07919" lon="7.7503">
        <ele>1309</ele>
        <time>2017-09-17T15:02:21Z</time>
      </trkpt>
      <trkpt lat="44.0792" lon="7.7503">
        <ele>1309</ele>
        <time>2017-09-17T15:02:22Z</time>
      </trkpt>
      <trkpt lat="44.0792" lon="7.75031">
        <ele>1309</ele>
        <time>2017-09-17T15:02:23Z</time>
      </trkpt>
      <trkpt lat="44.0792" lon="7.75031">
        <ele>1309</ele>
        <time>2017-09-17T15:02:24Z</time>
      </trkpt>
      <trkpt lat="44.0792" lon="7.75031">
        <ele>1309</ele>
        <time>2017-09-17T15:02:25Z</time>
      </trkpt>
      <trkpt lat="44.07921" lon="7.75031">
        <ele>1309</ele>
        <time>2017-09-17T15:02:26Z</time>
      </trkpt>
      <trkpt lat="44.07921" lon="7.75031">
        <ele>1308</ele>
        <time>2017-09-17T15:02:27Z</time>
      </trkpt>
      <trkpt lat="44.07921" lon="7.75031">
        <ele>1308</ele>
        <time>2017-09-17T15:02:28Z</time>
      </trkpt>
      <trkpt lat="44.07921" lon="7.75031">
        <ele>1308</ele>
        <time>2017-09-17T15:02:29Z</time>
      </trkpt>
      <trkpt lat="44.07921" lon="7.75031">
        <ele>1308</ele>
        <time>2017-09-17T15:02:30Z</time>
      </trkpt>
      <trkpt lat="44.07921" lon="7.75032">
        <ele>1308</ele>
        <time>2017-09-17T15:02:31Z</time>
      </trkpt>
      <trkpt lat="44.07921" lon="7.75032">
        <ele>1308</ele>
        <time>2017-09-17T15:02:32Z</time>
      </trkpt>
      <trkpt lat="44.07921" lon="7.75032">
        <ele>1308</ele>
        <time>2017-09-17T15:02:33Z</time>
      </trkpt>
      <trkpt lat="44.07921" lon="7.75032">
        <ele>1308</ele>
        <time>2017-09-17T15:02:34Z</time>
      </trkpt>
      <trkpt lat="44.07921" lon="7.75032">
        <ele>1308</ele>
        <time>2017-09-17T15:02:35Z</time>
      </trkpt>
      <trkpt lat="44.07921" lon="7.75032">
        <ele>1308</ele>
        <time>2017-09-17T15:02:36Z</time>
      </trkpt>
      <trkpt lat="44.07921" lon="7.75032">
        <ele>1308</ele>
        <time>2017-09-17T15:02:37Z</time>
      </trkpt>
      <trkpt lat="44.07921" lon="7.75032">
        <ele>1308</ele>
        <time>2017-09-17T15:02:38Z</time>
      </trkpt>
      <trkpt lat="44.07921" lon="7.75032">
        <ele>1308</ele>
        <time>2017-09-17T15:02:39Z</time>
      </trkpt>
      <trkpt lat="44.07921" lon="7.75032">
        <ele>1308</ele>
        <time>2017-09-17T15:02:40Z</time>
      </trkpt>
      <trkpt lat="44.07921" lon="7.75032">
        <ele>1308</ele>
        <time>2017-09-17T15:02:41Z</time>
      </trkpt>
      <trkpt lat="44.07921" lon="7.75032">
        <ele>1308</ele>
        <time>2017-09-17T15:02:42Z</time>
      </trkpt>
      <trkpt lat="44.07921" lon="7.75032">
        <ele>1308</ele>
        <time>2017-09-17T15:02:43Z</time>
      </trkpt>
      <trkpt lat="44.07921" lon="7.75032">
        <ele>1308</ele>
        <time>2017-09-17T15:02:44Z</time>
      </trkpt>
      <trkpt lat="44.07921" lon="7.75032">
        <ele>1308</ele>
        <time>2017-09-17T15:02:45Z</time>
      </trkpt>
      <trkpt lat="44.07921" lon="7.75032">
        <ele>1308</ele>
        <time>2017-09-17T15:02:46Z</time>
      </trkpt>
      <trkpt lat="44.07921" lon="7.75032">
        <ele>1308</ele>
        <time>2017-09-17T15:02:47Z</time>
      </trkpt>
      <trkpt lat="44.07921" lon="7.75032">
        <ele>1308</ele>
        <time>2017-09-17T15:02:48Z</time>
      </trkpt>
      <trkpt lat="44.07921" lon="7.75032">
        <ele>1308</ele>
        <time>2017-09-17T15:02:49Z</time>
      </trkpt>
      <trkpt lat="44.07921" lon="7.75032">
        <ele>1308</ele>
        <time>2017-09-17T15:02:50Z</time>
      </trkpt>
      <trkpt lat="44.07921" lon="7.75032">
        <ele>1308</ele>
        <time>2017-09-17T15:02:51Z</time>
      </trkpt>
      <trkpt lat="44.07921" lon="7.75032">
        <ele>1308</ele>
        <time>2017-09-17T15:02:52Z</time>
      </trkpt>
      <trkpt lat="44.07921" lon="7.75032">
        <ele>1308</ele>
        <time>2017-09-17T15:02:53Z</time>
      </trkpt>
      <trkpt lat="44.07921" lon="7.75032">
        <ele>1308</ele>
        <time>2017-09-17T15:02:54Z</time>
      </trkpt>
      <trkpt lat="44.07921" lon="7.75032">
        <ele>1308</ele>
        <time>2017-09-17T15:02:55Z</time>
      </trkpt>
      <trkpt lat="44.07921" lon="7.75032">
        <ele>1308</ele>
        <time>2017-09-17T15:02:56Z</time>
      </trkpt>
      <trkpt lat="44.07921" lon="7.75032">
        <ele>1308</ele>
        <time>2017-09-17T15:02:57Z</time>
      </trkpt>
      <trkpt lat="44.07921" lon="7.75032">
        <ele>1307</ele>
        <time>2017-09-17T15:02:58Z</time>
      </trkpt>
      <trkpt lat="44.07921" lon="7.75032">
        <ele>1307</ele>
        <time>2017-09-17T15:02:59Z</time>
      </trkpt>
      <trkpt lat="44.07921" lon="7.75033">
        <ele>1307</ele>
        <time>2017-09-17T15:03:00Z</time>
      </trkpt>
      <trkpt lat="44.07921" lon="7.75033">
        <ele>1307</ele>
        <time>2017-09-17T15:03:01Z</time>
      </trkpt>
      <trkpt lat="44.07921" lon="7.75033">
        <ele>1307</ele>
        <time>2017-09-17T15:03:02Z</time>
      </trkpt>
      <trkpt lat="44.07921" lon="7.75033">
        <ele>1307</ele>
        <time>2017-09-17T15:03:03Z</time>
      </trkpt>
      <trkpt lat="44.07921" lon="7.75033">
        <ele>1307</ele>
        <time>2017-09-17T15:03:04Z</time>
      </trkpt>
      <trkpt lat="44.07921" lon="7.75033">
        <ele>1307</ele>
        <time>2017-09-17T15:03:05Z</time>
      </trkpt>
      <trkpt lat="44.07921" lon="7.75033">
        <ele>1307</ele>
        <time>2017-09-17T15:03:06Z</time>
      </trkpt>
      <trkpt lat="44.07921" lon="7.75033">
        <ele>1307</ele>
        <time>2017-09-17T15:03:07Z</time>
      </trkpt>
      <trkpt lat="44.07921" lon="7.75033">
        <ele>1307</ele>
        <time>2017-09-17T15:03:08Z</time>
      </trkpt>
      <trkpt lat="44.07921" lon="7.75033">
        <ele>1307</ele>
        <time>2017-09-17T15:03:09Z</time>
      </trkpt>
      <trkpt lat="44.07921" lon="7.75033">
        <ele>1307</ele>
        <time>2017-09-17T15:03:10Z</time>
      </trkpt>
      <trkpt lat="44.07921" lon="7.75033">
        <ele>1307</ele>
        <time>2017-09-17T15:03:11Z</time>
      </trkpt>
      <trkpt lat="44.07922" lon="7.75033">
        <ele>1307</ele>
        <time>2017-09-17T15:03:12Z</time>
      </trkpt>
      <trkpt lat="44.07922" lon="7.75033">
        <ele>1307</ele>
        <time>2017-09-17T15:03:13Z</time>
      </trkpt>
      <trkpt lat="44.07922" lon="7.75034">
        <ele>1307</ele>
        <time>2017-09-17T15:03:14Z</time>
      </trkpt>
      <trkpt lat="44.07922" lon="7.75034">
        <ele>1307</ele>
        <time>2017-09-17T15:03:15Z</time>
      </trkpt>
      <trkpt lat="44.07922" lon="7.75034">
        <ele>1307</ele>
        <time>2017-09-17T15:03:16Z</time>
      </trkpt>
      <trkpt lat="44.07922" lon="7.75034">
        <ele>1307</ele>
        <time>2017-09-17T15:03:17Z</time>
      </trkpt>
      <trkpt lat="44.07922" lon="7.75035">
        <ele>1307</ele>
        <time>2017-09-17T15:03:18Z</time>
      </trkpt>
      <trkpt lat="44.07922" lon="7.75035">
        <ele>1307</ele>
        <time>2017-09-17T15:03:19Z</time>
      </trkpt>
      <trkpt lat="44.07923" lon="7.75035">
        <ele>1307</ele>
        <time>2017-09-17T15:03:20Z</time>
      </trkpt>
      <trkpt lat="44.07923" lon="7.75035">
        <ele>1308</ele>
        <time>2017-09-17T15:03:21Z</time>
      </trkpt>
      <trkpt lat="44.07923" lon="7.75036">
        <ele>1308</ele>
        <time>2017-09-17T15:03:22Z</time>
      </trkpt>
      <trkpt lat="44.07923" lon="7.75036">
        <ele>1308</ele>
        <time>2017-09-17T15:03:23Z</time>
      </trkpt>
      <trkpt lat="44.07924" lon="7.75037">
        <ele>1308</ele>
        <time>2017-09-17T15:03:24Z</time>
      </trkpt>
      <trkpt lat="44.07924" lon="7.75037">
        <ele>1308</ele>
        <time>2017-09-17T15:03:25Z</time>
      </trkpt>
      <trkpt lat="44.07925" lon="7.75037">
        <ele>1308</ele>
        <time>2017-09-17T15:03:26Z</time>
      </trkpt>
      <trkpt lat="44.07926" lon="7.75038">
        <ele>1307</ele>
        <time>2017-09-17T15:03:27Z</time>
      </trkpt>
      <trkpt lat="44.07927" lon="7.75039">
        <ele>1307</ele>
        <time>2017-09-17T15:03:28Z</time>
      </trkpt>
      <trkpt lat="44.07928" lon="7.7504">
        <ele>1307</ele>
        <time>2017-09-17T15:03:29Z</time>
      </trkpt>
      <trkpt lat="44.07929" lon="7.75041">
        <ele>1307</ele>
        <time>2017-09-17T15:03:30Z</time>
      </trkpt>
      <trkpt lat="44.07929" lon="7.75042">
        <ele>1307</ele>
        <time>2017-09-17T15:03:31Z</time>
      </trkpt>
      <trkpt lat="44.0793" lon="7.75044">
        <ele>1307</ele>
        <time>2017-09-17T15:03:32Z</time>
      </trkpt>
      <trkpt lat="44.07931" lon="7.75047">
        <ele>1307</ele>
        <time>2017-09-17T15:03:33Z</time>
      </trkpt>
      <trkpt lat="44.07932" lon="7.7505">
        <ele>1307</ele>
        <time>2017-09-17T15:03:34Z</time>
      </trkpt>
      <trkpt lat="44.07934" lon="7.75053">
        <ele>1307</ele>
        <time>2017-09-17T15:03:35Z</time>
      </trkpt>
      <trkpt lat="44.07936" lon="7.75057">
        <ele>1307</ele>
        <time>2017-09-17T15:03:36Z</time>
      </trkpt>
      <trkpt lat="44.07938" lon="7.75061">
        <ele>1306</ele>
        <time>2017-09-17T15:03:37Z</time>
      </trkpt>
      <trkpt lat="44.07939" lon="7.75066">
        <ele>1306</ele>
        <time>2017-09-17T15:03:38Z</time>
      </trkpt>
      <trkpt lat="44.07941" lon="7.75071">
        <ele>1306</ele>
        <time>2017-09-17T15:03:39Z</time>
      </trkpt>
      <trkpt lat="44.07944" lon="7.75075">
        <ele>1306</ele>
        <time>2017-09-17T15:03:40Z</time>
      </trkpt>
      <trkpt lat="44.07946" lon="7.75079">
        <ele>1306</ele>
        <time>2017-09-17T15:03:41Z</time>
      </trkpt>
      <trkpt lat="44.07948" lon="7.75082">
        <ele>1305</ele>
        <time>2017-09-17T15:03:42Z</time>
      </trkpt>
      <trkpt lat="44.0795" lon="7.75085">
        <ele>1305</ele>
        <time>2017-09-17T15:03:43Z</time>
      </trkpt>
      <trkpt lat="44.07952" lon="7.75088">
        <ele>1305</ele>
        <time>2017-09-17T15:03:44Z</time>
      </trkpt>
      <trkpt lat="44.07954" lon="7.7509">
        <ele>1305</ele>
        <time>2017-09-17T15:03:45Z</time>
      </trkpt>
      <trkpt lat="44.07955" lon="7.75092">
        <ele>1305</ele>
        <time>2017-09-17T15:03:46Z</time>
      </trkpt>
      <trkpt lat="44.07956" lon="7.75093">
        <ele>1304</ele>
        <time>2017-09-17T15:03:47Z</time>
      </trkpt>
      <trkpt lat="44.07957" lon="7.75094">
        <ele>1304</ele>
        <time>2017-09-17T15:03:48Z</time>
      </trkpt>
      <trkpt lat="44.07957" lon="7.75094">
        <ele>1304</ele>
        <time>2017-09-17T15:03:49Z</time>
      </trkpt>
      <trkpt lat="44.07957" lon="7.75094">
        <ele>1304</ele>
        <time>2017-09-17T15:03:50Z</time>
      </trkpt>
      <trkpt lat="44.07957" lon="7.75094">
        <ele>1304</ele>
        <time>2017-09-17T15:03:51Z</time>
      </trkpt>
      <trkpt lat="44.07957" lon="7.75094">
        <ele>1304</ele>
        <time>2017-09-17T15:03:52Z</time>
      </trkpt>
      <trkpt lat="44.07957" lon="7.75094">
        <ele>1304</ele>
        <time>2017-09-17T15:03:53Z</time>
      </trkpt>
      <trkpt lat="44.07957" lon="7.75094">
        <ele>1304</ele>
        <time>2017-09-17T15:03:54Z</time>
      </trkpt>
      <trkpt lat="44.07956" lon="7.75094">
        <ele>1304</ele>
        <time>2017-09-17T15:03:55Z</time>
      </trkpt>
      <trkpt lat="44.07956" lon="7.75095">
        <ele>1304</ele>
        <time>2017-09-17T15:03:56Z</time>
      </trkpt>
      <trkpt lat="44.07956" lon="7.75095">
        <ele>1304</ele>
        <time>2017-09-17T15:03:57Z</time>
      </trkpt>
      <trkpt lat="44.07956" lon="7.75095">
        <ele>1304</ele>
        <time>2017-09-17T15:03:58Z</time>
      </trkpt>
      <trkpt lat="44.07956" lon="7.75095">
        <ele>1304</ele>
        <time>2017-09-17T15:03:59Z</time>
      </trkpt>
      <trkpt lat="44.07956" lon="7.75095">
        <ele>1304</ele>
        <time>2017-09-17T15:04:00Z</time>
      </trkpt>
      <trkpt lat="44.07956" lon="7.75095">
        <ele>1304</ele>
        <time>2017-09-17T15:04:01Z</time>
      </trkpt>
      <trkpt lat="44.07956" lon="7.75095">
        <ele>1304</ele>
        <time>2017-09-17T15:04:02Z</time>
      </trkpt>
      <trkpt lat="44.07956" lon="7.75095">
        <ele>1304</ele>
        <time>2017-09-17T15:04:03Z</time>
      </trkpt>
      <trkpt lat="44.07956" lon="7.75095">
        <ele>1304</ele>
        <time>2017-09-17T15:04:04Z</time>
      </trkpt>
      <trkpt lat="44.07956" lon="7.75095">
        <ele>1304</ele>
        <time>2017-09-17T15:04:05Z</time>
      </trkpt>
      <trkpt lat="44.07952" lon="7.7509">
        <ele>1309</ele>
        <time>2017-09-17T15:04:06Z</time>
      </trkpt>
      <trkpt lat="44.07954" lon="7.75092">
        <ele>1309</ele>
        <time>2017-09-17T15:04:07Z</time>
      </trkpt>
      <trkpt lat="44.07955" lon="7.75095">
        <ele>1309</ele>
        <time>2017-09-17T15:04:08Z</time>
      </trkpt>
      <trkpt lat="44.07958" lon="7.75098">
        <ele>1309</ele>
        <time>2017-09-17T15:04:09Z</time>
      </trkpt>
      <trkpt lat="44.07961" lon="7.75103">
        <ele>1309</ele>
        <time>2017-09-17T15:04:10Z</time>
      </trkpt>
      <trkpt lat="44.07964" lon="7.75108">
        <ele>1309</ele>
        <time>2017-09-17T15:04:11Z</time>
      </trkpt>
      <trkpt lat="44.07966" lon="7.75113">
        <ele>1309</ele>
        <time>2017-09-17T15:04:12Z</time>
      </trkpt>
      <trkpt lat="44.07968" lon="7.75117">
        <ele>1309</ele>
        <time>2017-09-17T15:04:13Z</time>
      </trkpt>
      <trkpt lat="44.0797" lon="7.7512">
        <ele>1309</ele>
        <time>2017-09-17T15:04:14Z</time>
      </trkpt>
      <trkpt lat="44.07972" lon="7.75124">
        <ele>1309</ele>
        <time>2017-09-17T15:04:15Z</time>
      </trkpt>
      <trkpt lat="44.07973" lon="7.75128">
        <ele>1309</ele>
        <time>2017-09-17T15:04:16Z</time>
      </trkpt>
      <trkpt lat="44.07974" lon="7.75132">
        <ele>1309</ele>
        <time>2017-09-17T15:04:17Z</time>
      </trkpt>
      <trkpt lat="44.07973" lon="7.75136">
        <ele>1310</ele>
        <time>2017-09-17T15:04:18Z</time>
      </trkpt>
      <trkpt lat="44.07973" lon="7.7514">
        <ele>1310</ele>
        <time>2017-09-17T15:04:19Z</time>
      </trkpt>
      <trkpt lat="44.07973" lon="7.75143">
        <ele>1310</ele>
        <time>2017-09-17T15:04:20Z</time>
      </trkpt>
      <trkpt lat="44.07972" lon="7.75144">
        <ele>1311</ele>
        <time>2017-09-17T15:04:21Z</time>
      </trkpt>
      <trkpt lat="44.07972" lon="7.75145">
        <ele>1311</ele>
        <time>2017-09-17T15:04:22Z</time>
      </trkpt>
      <trkpt lat="44.07972" lon="7.75145">
        <ele>1311</ele>
        <time>2017-09-17T15:04:23Z</time>
      </trkpt>
      <trkpt lat="44.07972" lon="7.75147">
        <ele>1312</ele>
        <time>2017-09-17T15:04:24Z</time>
      </trkpt>
      <trkpt lat="44.07972" lon="7.75149">
        <ele>1312</ele>
        <time>2017-09-17T15:04:25Z</time>
      </trkpt>
      <trkpt lat="44.07972" lon="7.75151">
        <ele>1312</ele>
        <time>2017-09-17T15:04:26Z</time>
      </trkpt>
      <trkpt lat="44.07972" lon="7.75154">
        <ele>1313</ele>
        <time>2017-09-17T15:04:27Z</time>
      </trkpt>
      <trkpt lat="44.07972" lon="7.75157">
        <ele>1313</ele>
        <time>2017-09-17T15:04:28Z</time>
      </trkpt>
      <trkpt lat="44.07973" lon="7.7516">
        <ele>1313</ele>
        <time>2017-09-17T15:04:29Z</time>
      </trkpt>
      <trkpt lat="44.07973" lon="7.75163">
        <ele>1314</ele>
        <time>2017-09-17T15:04:30Z</time>
      </trkpt>
      <trkpt lat="44.07974" lon="7.75166">
        <ele>1314</ele>
        <time>2017-09-17T15:04:31Z</time>
      </trkpt>
      <trkpt lat="44.07974" lon="7.75169">
        <ele>1315</ele>
        <time>2017-09-17T15:04:32Z</time>
      </trkpt>
      <trkpt lat="44.07975" lon="7.75172">
        <ele>1315</ele>
        <time>2017-09-17T15:04:33Z</time>
      </trkpt>
      <trkpt lat="44.07975" lon="7.75176">
        <ele>1316</ele>
        <time>2017-09-17T15:04:34Z</time>
      </trkpt>
      <trkpt lat="44.07975" lon="7.7518">
        <ele>1316</ele>
        <time>2017-09-17T15:04:35Z</time>
      </trkpt>
      <trkpt lat="44.07975" lon="7.75183">
        <ele>1317</ele>
        <time>2017-09-17T15:04:36Z</time>
      </trkpt>
      <trkpt lat="44.07975" lon="7.75187">
        <ele>1318</ele>
        <time>2017-09-17T15:04:37Z</time>
      </trkpt>
      <trkpt lat="44.07975" lon="7.75191">
        <ele>1318</ele>
        <time>2017-09-17T15:04:38Z</time>
      </trkpt>
      <trkpt lat="44.07976" lon="7.75195">
        <ele>1319</ele>
        <time>2017-09-17T15:04:39Z</time>
      </trkpt>
      <trkpt lat="44.07976" lon="7.75198">
        <ele>1320</ele>
        <time>2017-09-17T15:04:40Z</time>
      </trkpt>
      <trkpt lat="44.07977" lon="7.75202">
        <ele>1320</ele>
        <time>2017-09-17T15:04:41Z</time>
      </trkpt>
      <trkpt lat="44.07979" lon="7.75205">
        <ele>1321</ele>
        <time>2017-09-17T15:04:42Z</time>
      </trkpt>
      <trkpt lat="44.07981" lon="7.75207">
        <ele>1322</ele>
        <time>2017-09-17T15:04:43Z</time>
      </trkpt>
      <trkpt lat="44.07983" lon="7.7521">
        <ele>1322</ele>
        <time>2017-09-17T15:04:44Z</time>
      </trkpt>
      <trkpt lat="44.07985" lon="7.75214">
        <ele>1322</ele>
        <time>2017-09-17T15:04:45Z</time>
      </trkpt>
      <trkpt lat="44.07987" lon="7.75217">
        <ele>1322</ele>
        <time>2017-09-17T15:04:46Z</time>
      </trkpt>
      <trkpt lat="44.0799" lon="7.75221">
        <ele>1323</ele>
        <time>2017-09-17T15:04:47Z</time>
      </trkpt>
      <trkpt lat="44.07991" lon="7.75225">
        <ele>1323</ele>
        <time>2017-09-17T15:04:48Z</time>
      </trkpt>
      <trkpt lat="44.07993" lon="7.7523">
        <ele>1323</ele>
        <time>2017-09-17T15:04:49Z</time>
      </trkpt>
      <trkpt lat="44.07995" lon="7.75234">
        <ele>1323</ele>
        <time>2017-09-17T15:04:50Z</time>
      </trkpt>
      <trkpt lat="44.07997" lon="7.75238">
        <ele>1323</ele>
        <time>2017-09-17T15:04:51Z</time>
      </trkpt>
      <trkpt lat="44.08" lon="7.75243">
        <ele>1323</ele>
        <time>2017-09-17T15:04:52Z</time>
      </trkpt>
      <trkpt lat="44.08001" lon="7.75248">
        <ele>1323</ele>
        <time>2017-09-17T15:04:53Z</time>
      </trkpt>
      <trkpt lat="44.08002" lon="7.75253">
        <ele>1323</ele>
        <time>2017-09-17T15:04:54Z</time>
      </trkpt>
      <trkpt lat="44.08003" lon="7.75259">
        <ele>1324</ele>
        <time>2017-09-17T15:04:55Z</time>
      </trkpt>
      <trkpt lat="44.08003" lon="7.75265">
        <ele>1324</ele>
        <time>2017-09-17T15:04:56Z</time>
      </trkpt>
      <trkpt lat="44.08003" lon="7.75271">
        <ele>1324</ele>
        <time>2017-09-17T15:04:57Z</time>
      </trkpt>
      <trkpt lat="44.08002" lon="7.75277">
        <ele>1324</ele>
        <time>2017-09-17T15:04:58Z</time>
      </trkpt>
      <trkpt lat="44.08002" lon="7.75284">
        <ele>1324</ele>
        <time>2017-09-17T15:04:59Z</time>
      </trkpt>
      <trkpt lat="44.08002" lon="7.7529">
        <ele>1324</ele>
        <time>2017-09-17T15:05:00Z</time>
      </trkpt>
      <trkpt lat="44.08002" lon="7.75296">
        <ele>1324</ele>
        <time>2017-09-17T15:05:01Z</time>
      </trkpt>
      <trkpt lat="44.08002" lon="7.75302">
        <ele>1324</ele>
        <time>2017-09-17T15:05:02Z</time>
      </trkpt>
      <trkpt lat="44.08003" lon="7.75308">
        <ele>1324</ele>
        <time>2017-09-17T15:05:03Z</time>
      </trkpt>
      <trkpt lat="44.08004" lon="7.75315">
        <ele>1324</ele>
        <time>2017-09-17T15:05:04Z</time>
      </trkpt>
      <trkpt lat="44.08004" lon="7.75322">
        <ele>1324</ele>
        <time>2017-09-17T15:05:05Z</time>
      </trkpt>
      <trkpt lat="44.08003" lon="7.75328">
        <ele>1325</ele>
        <time>2017-09-17T15:05:06Z</time>
      </trkpt>
      <trkpt lat="44.08002" lon="7.75333">
        <ele>1325</ele>
        <time>2017-09-17T15:05:07Z</time>
      </trkpt>
      <trkpt lat="44.08" lon="7.75339">
        <ele>1325</ele>
        <time>2017-09-17T15:05:08Z</time>
      </trkpt>
      <trkpt lat="44.07999" lon="7.75344">
        <ele>1325</ele>
        <time>2017-09-17T15:05:09Z</time>
      </trkpt>
      <trkpt lat="44.07999" lon="7.7535">
        <ele>1325</ele>
        <time>2017-09-17T15:05:10Z</time>
      </trkpt>
      <trkpt lat="44.07999" lon="7.75356">
        <ele>1326</ele>
        <time>2017-09-17T15:05:11Z</time>
      </trkpt>
      <trkpt lat="44.07998" lon="7.75363">
        <ele>1326</ele>
        <time>2017-09-17T15:05:12Z</time>
      </trkpt>
      <trkpt lat="44.07998" lon="7.75369">
        <ele>1326</ele>
        <time>2017-09-17T15:05:13Z</time>
      </trkpt>
      <trkpt lat="44.07998" lon="7.75376">
        <ele>1325</ele>
        <time>2017-09-17T15:05:14Z</time>
      </trkpt>
      <trkpt lat="44.07998" lon="7.75383">
        <ele>1325</ele>
        <time>2017-09-17T15:05:15Z</time>
      </trkpt>
      <trkpt lat="44.07997" lon="7.7539">
        <ele>1325</ele>
        <time>2017-09-17T15:05:16Z</time>
      </trkpt>
      <trkpt lat="44.07997" lon="7.75397">
        <ele>1325</ele>
        <time>2017-09-17T15:05:17Z</time>
      </trkpt>
      <trkpt lat="44.07997" lon="7.75404">
        <ele>1325</ele>
        <time>2017-09-17T15:05:18Z</time>
      </trkpt>
      <trkpt lat="44.07997" lon="7.75411">
        <ele>1325</ele>
        <time>2017-09-17T15:05:19Z</time>
      </trkpt>
      <trkpt lat="44.07997" lon="7.75417">
        <ele>1325</ele>
        <time>2017-09-17T15:05:20Z</time>
      </trkpt>
      <trkpt lat="44.07998" lon="7.75423">
        <ele>1325</ele>
        <time>2017-09-17T15:05:21Z</time>
      </trkpt>
      <trkpt lat="44.07998" lon="7.7543">
        <ele>1325</ele>
        <time>2017-09-17T15:05:22Z</time>
      </trkpt>
      <trkpt lat="44.07998" lon="7.75436">
        <ele>1325</ele>
        <time>2017-09-17T15:05:23Z</time>
      </trkpt>
      <trkpt lat="44.07998" lon="7.75441">
        <ele>1325</ele>
        <time>2017-09-17T15:05:24Z</time>
      </trkpt>
      <trkpt lat="44.07998" lon="7.75446">
        <ele>1325</ele>
        <time>2017-09-17T15:05:25Z</time>
      </trkpt>
      <trkpt lat="44.07998" lon="7.75451">
        <ele>1325</ele>
        <time>2017-09-17T15:05:26Z</time>
      </trkpt>
      <trkpt lat="44.07998" lon="7.75454">
        <ele>1325</ele>
        <time>2017-09-17T15:05:27Z</time>
      </trkpt>
      <trkpt lat="44.07999" lon="7.75456">
        <ele>1325</ele>
        <time>2017-09-17T15:05:28Z</time>
      </trkpt>
      <trkpt lat="44.07999" lon="7.75457">
        <ele>1325</ele>
        <time>2017-09-17T15:05:29Z</time>
      </trkpt>
      <trkpt lat="44.07999" lon="7.75457">
        <ele>1325</ele>
        <time>2017-09-17T15:05:30Z</time>
      </trkpt>
      <trkpt lat="44.07999" lon="7.75457">
        <ele>1325</ele>
        <time>2017-09-17T15:05:31Z</time>
      </trkpt>
      <trkpt lat="44.07999" lon="7.75457">
        <ele>1325</ele>
        <time>2017-09-17T15:05:32Z</time>
      </trkpt>
      <trkpt lat="44.07999" lon="7.75457">
        <ele>1325</ele>
        <time>2017-09-17T15:05:33Z</time>
      </trkpt>
      <trkpt lat="44.07999" lon="7.75457">
        <ele>1325</ele>
        <time>2017-09-17T15:05:34Z</time>
      </trkpt>
      <trkpt lat="44.07999" lon="7.75458">
        <ele>1325</ele>
        <time>2017-09-17T15:05:35Z</time>
      </trkpt>
      <trkpt lat="44.07999" lon="7.75458">
        <ele>1325</ele>
        <time>2017-09-17T15:05:36Z</time>
      </trkpt>
      <trkpt lat="44.07999" lon="7.75458">
        <ele>1325</ele>
        <time>2017-09-17T15:05:37Z</time>
      </trkpt>
      <trkpt lat="44.07999" lon="7.75458">
        <ele>1325</ele>
        <time>2017-09-17T15:05:38Z</time>
      </trkpt>
      <trkpt lat="44.07999" lon="7.75458">
        <ele>1325</ele>
        <time>2017-09-17T15:05:39Z</time>
      </trkpt>
      <trkpt lat="44.07999" lon="7.75458">
        <ele>1325</ele>
        <time>2017-09-17T15:05:40Z</time>
      </trkpt>
      <trkpt lat="44.07999" lon="7.75458">
        <ele>1325</ele>
        <time>2017-09-17T15:05:41Z</time>
      </trkpt>
      <trkpt lat="44.07999" lon="7.75458">
        <ele>1325</ele>
        <time>2017-09-17T15:05:42Z</time>
      </trkpt>
      <trkpt lat="44.07999" lon="7.75458">
        <ele>1325</ele>
        <time>2017-09-17T15:05:43Z</time>
      </trkpt>
      <trkpt lat="44.07999" lon="7.75458">
        <ele>1325</ele>
        <time>2017-09-17T15:05:44Z</time>
      </trkpt>
      <trkpt lat="44.07999" lon="7.75458">
        <ele>1325</ele>
        <time>2017-09-17T15:05:45Z</time>
      </trkpt>
      <trkpt lat="44.07999" lon="7.75458">
        <ele>1325</ele>
        <time>2017-09-17T15:05:46Z</time>
      </trkpt>
      <trkpt lat="44.07999" lon="7.75458">
        <ele>1325</ele>
        <time>2017-09-17T15:05:47Z</time>
      </trkpt>
      <trkpt lat="44.07999" lon="7.75458">
        <ele>1325</ele>
        <time>2017-09-17T15:05:48Z</time>
      </trkpt>
      <trkpt lat="44.07999" lon="7.75458">
        <ele>1325</ele>
        <time>2017-09-17T15:05:49Z</time>
      </trkpt>
      <trkpt lat="44.07999" lon="7.75458">
        <ele>1325</ele>
        <time>2017-09-17T15:05:50Z</time>
      </trkpt>
      <trkpt lat="44.07999" lon="7.75458">
        <ele>1325</ele>
        <time>2017-09-17T15:05:51Z</time>
      </trkpt>
      <trkpt lat="44.07999" lon="7.75458">
        <ele>1325</ele>
        <time>2017-09-17T15:05:52Z</time>
      </trkpt>
      <trkpt lat="44.07999" lon="7.75458">
        <ele>1325</ele>
        <time>2017-09-17T15:05:53Z</time>
      </trkpt>
      <trkpt lat="44.07999" lon="7.75458">
        <ele>1325</ele>
        <time>2017-09-17T15:05:54Z</time>
      </trkpt>
      <trkpt lat="44.07999" lon="7.75458">
        <ele>1325</ele>
        <time>2017-09-17T15:05:55Z</time>
      </trkpt>
      <trkpt lat="44.07999" lon="7.75458">
        <ele>1325</ele>
        <time>2017-09-17T15:05:56Z</time>
      </trkpt>
      <trkpt lat="44.07999" lon="7.75459">
        <ele>1325</ele>
        <time>2017-09-17T15:05:57Z</time>
      </trkpt>
      <trkpt lat="44.07999" lon="7.75459">
        <ele>1325</ele>
        <time>2017-09-17T15:05:58Z</time>
      </trkpt>
      <trkpt lat="44.07999" lon="7.75459">
        <ele>1325</ele>
        <time>2017-09-17T15:05:59Z</time>
      </trkpt>
      <trkpt lat="44.07998" lon="7.75459">
        <ele>1325</ele>
        <time>2017-09-17T15:06:00Z</time>
      </trkpt>
      <trkpt lat="44.07998" lon="7.75459">
        <ele>1325</ele>
        <time>2017-09-17T15:06:01Z</time>
      </trkpt>
      <trkpt lat="44.07998" lon="7.75459">
        <ele>1325</ele>
        <time>2017-09-17T15:06:02Z</time>
      </trkpt>
      <trkpt lat="44.07998" lon="7.75459">
        <ele>1325</ele>
        <time>2017-09-17T15:06:03Z</time>
      </trkpt>
      <trkpt lat="44.07998" lon="7.75459">
        <ele>1325</ele>
        <time>2017-09-17T15:06:04Z</time>
      </trkpt>
      <trkpt lat="44.07998" lon="7.75459">
        <ele>1325</ele>
        <time>2017-09-17T15:06:05Z</time>
      </trkpt>
      <trkpt lat="44.07998" lon="7.75459">
        <ele>1325</ele>
        <time>2017-09-17T15:06:06Z</time>
      </trkpt>
      <trkpt lat="44.07998" lon="7.75459">
        <ele>1325</ele>
        <time>2017-09-17T15:06:07Z</time>
      </trkpt>
      <trkpt lat="44.07998" lon="7.75459">
        <ele>1325</ele>
        <time>2017-09-17T15:06:08Z</time>
      </trkpt>
      <trkpt lat="44.07998" lon="7.75459">
        <ele>1325</ele>
        <time>2017-09-17T15:06:09Z</time>
      </trkpt>
      <trkpt lat="44.07998" lon="7.75459">
        <ele>1325</ele>
        <time>2017-09-17T15:06:10Z</time>
      </trkpt>
      <trkpt lat="44.07998" lon="7.75459">
        <ele>1325</ele>
        <time>2017-09-17T15:06:11Z</time>
      </trkpt>
      <trkpt lat="44.07998" lon="7.75459">
        <ele>1325</ele>
        <time>2017-09-17T15:06:12Z</time>
      </trkpt>
      <trkpt lat="44.07998" lon="7.75459">
        <ele>1325</ele>
        <time>2017-09-17T15:06:13Z</time>
      </trkpt>
      <trkpt lat="44.07998" lon="7.75459">
        <ele>1325</ele>
        <time>2017-09-17T15:06:14Z</time>
      </trkpt>
      <trkpt lat="44.07998" lon="7.75459">
        <ele>1325</ele>
        <time>2017-09-17T15:06:15Z</time>
      </trkpt>
      <trkpt lat="44.07998" lon="7.75459">
        <ele>1325</ele>
        <time>2017-09-17T15:06:16Z</time>
      </trkpt>
      <trkpt lat="44.07998" lon="7.75459">
        <ele>1325</ele>
        <time>2017-09-17T15:06:17Z</time>
      </trkpt>
      <trkpt lat="44.07998" lon="7.75459">
        <ele>1325</ele>
        <time>2017-09-17T15:06:18Z</time>
      </trkpt>
      <trkpt lat="44.07998" lon="7.75459">
        <ele>1325</ele>
        <time>2017-09-17T15:06:19Z</time>
      </trkpt>
      <trkpt lat="44.07998" lon="7.75459">
        <ele>1324</ele>
        <time>2017-09-17T15:06:20Z</time>
      </trkpt>
      <trkpt lat="44.07998" lon="7.75459">
        <ele>1324</ele>
        <time>2017-09-17T15:06:21Z</time>
      </trkpt>
      <trkpt lat="44.07998" lon="7.75459">
        <ele>1324</ele>
        <time>2017-09-17T15:06:22Z</time>
      </trkpt>
      <trkpt lat="44.07998" lon="7.75459">
        <ele>1324</ele>
        <time>2017-09-17T15:06:23Z</time>
      </trkpt>
      <trkpt lat="44.07998" lon="7.75459">
        <ele>1324</ele>
        <time>2017-09-17T15:06:24Z</time>
      </trkpt>
      <trkpt lat="44.07998" lon="7.75459">
        <ele>1324</ele>
        <time>2017-09-17T15:06:25Z</time>
      </trkpt>
      <trkpt lat="44.07998" lon="7.75459">
        <ele>1324</ele>
        <time>2017-09-17T15:06:26Z</time>
      </trkpt>
      <trkpt lat="44.07998" lon="7.75459">
        <ele>1324</ele>
        <time>2017-09-17T15:06:27Z</time>
      </trkpt>
      <trkpt lat="44.07998" lon="7.75459">
        <ele>1324</ele>
        <time>2017-09-17T15:06:28Z</time>
      </trkpt>
      <trkpt lat="44.07998" lon="7.75459">
        <ele>1324</ele>
        <time>2017-09-17T15:06:29Z</time>
      </trkpt>
      <trkpt lat="44.07998" lon="7.75459">
        <ele>1324</ele>
        <time>2017-09-17T15:06:30Z</time>
      </trkpt>
      <trkpt lat="44.07998" lon="7.75459">
        <ele>1324</ele>
        <time>2017-09-17T15:06:31Z</time>
      </trkpt>
      <trkpt lat="44.07998" lon="7.75459">
        <ele>1324</ele>
        <time>2017-09-17T15:06:32Z</time>
      </trkpt>
      <trkpt lat="44.07998" lon="7.75459">
        <ele>1324</ele>
        <time>2017-09-17T15:06:33Z</time>
      </trkpt>
      <trkpt lat="44.08" lon="7.7546">
        <ele>1324</ele>
        <time>2017-09-17T15:06:34Z</time>
      </trkpt>
      <trkpt lat="44.08002" lon="7.7546">
        <ele>1324</ele>
        <time>2017-09-17T15:06:35Z</time>
      </trkpt>
      <trkpt lat="44.08004" lon="7.75461">
        <ele>1325</ele>
        <time>2017-09-17T15:06:36Z</time>
      </trkpt>
      <trkpt lat="44.08007" lon="7.75461">
        <ele>1325</ele>
        <time>2017-09-17T15:06:37Z</time>
      </trkpt>
      <trkpt lat="44.0801" lon="7.75462">
        <ele>1324</ele>
        <time>2017-09-17T15:06:38Z</time>
      </trkpt>
      <trkpt lat="44.08014" lon="7.75464">
        <ele>1324</ele>
        <time>2017-09-17T15:06:39Z</time>
      </trkpt>
      <trkpt lat="44.08018" lon="7.75467">
        <ele>1324</ele>
        <time>2017-09-17T15:06:40Z</time>
      </trkpt>
      <trkpt lat="44.08023" lon="7.7547">
        <ele>1324</ele>
        <time>2017-09-17T15:06:41Z</time>
      </trkpt>
      <trkpt lat="44.08027" lon="7.75472">
        <ele>1323</ele>
        <time>2017-09-17T15:06:42Z</time>
      </trkpt>
      <trkpt lat="44.08031" lon="7.75475">
        <ele>1323</ele>
        <time>2017-09-17T15:06:43Z</time>
      </trkpt>
      <trkpt lat="44.08035" lon="7.75477">
        <ele>1323</ele>
        <time>2017-09-17T15:06:44Z</time>
      </trkpt>
      <trkpt lat="44.08039" lon="7.75478">
        <ele>1323</ele>
        <time>2017-09-17T15:06:45Z</time>
      </trkpt>
      <trkpt lat="44.08042" lon="7.75477">
        <ele>1323</ele>
        <time>2017-09-17T15:06:46Z</time>
      </trkpt>
      <trkpt lat="44.08046" lon="7.75476">
        <ele>1323</ele>
        <time>2017-09-17T15:06:47Z</time>
      </trkpt>
      <trkpt lat="44.08049" lon="7.75476">
        <ele>1323</ele>
        <time>2017-09-17T15:06:48Z</time>
      </trkpt>
      <trkpt lat="44.08051" lon="7.75477">
        <ele>1322</ele>
        <time>2017-09-17T15:06:49Z</time>
      </trkpt>
      <trkpt lat="44.08053" lon="7.75479">
        <ele>1322</ele>
        <time>2017-09-17T15:06:50Z</time>
      </trkpt>
      <trkpt lat="44.08054" lon="7.75481">
        <ele>1321</ele>
        <time>2017-09-17T15:06:51Z</time>
      </trkpt>
      <trkpt lat="44.08054" lon="7.75482">
        <ele>1321</ele>
        <time>2017-09-17T15:06:52Z</time>
      </trkpt>
      <trkpt lat="44.08054" lon="7.75482">
        <ele>1321</ele>
        <time>2017-09-17T15:06:53Z</time>
      </trkpt>
      <trkpt lat="44.08055" lon="7.75482">
        <ele>1321</ele>
        <time>2017-09-17T15:06:54Z</time>
      </trkpt>
      <trkpt lat="44.08055" lon="7.75482">
        <ele>1321</ele>
        <time>2017-09-17T15:06:55Z</time>
      </trkpt>
      <trkpt lat="44.08055" lon="7.75482">
        <ele>1320</ele>
        <time>2017-09-17T15:06:56Z</time>
      </trkpt>
      <trkpt lat="44.08055" lon="7.75482">
        <ele>1320</ele>
        <time>2017-09-17T15:06:57Z</time>
      </trkpt>
      <trkpt lat="44.08055" lon="7.75482">
        <ele>1320</ele>
        <time>2017-09-17T15:06:58Z</time>
      </trkpt>
      <trkpt lat="44.08055" lon="7.75483">
        <ele>1320</ele>
        <time>2017-09-17T15:06:59Z</time>
      </trkpt>
      <trkpt lat="44.08055" lon="7.75484">
        <ele>1319</ele>
        <time>2017-09-17T15:07:00Z</time>
      </trkpt>
      <trkpt lat="44.08055" lon="7.75485">
        <ele>1319</ele>
        <time>2017-09-17T15:07:01Z</time>
      </trkpt>
      <trkpt lat="44.08054" lon="7.75487">
        <ele>1319</ele>
        <time>2017-09-17T15:07:02Z</time>
      </trkpt>
      <trkpt lat="44.08053" lon="7.7549">
        <ele>1318</ele>
        <time>2017-09-17T15:07:03Z</time>
      </trkpt>
      <trkpt lat="44.08051" lon="7.75493">
        <ele>1318</ele>
        <time>2017-09-17T15:07:04Z</time>
      </trkpt>
      <trkpt lat="44.08048" lon="7.75497">
        <ele>1318</ele>
        <time>2017-09-17T15:07:05Z</time>
      </trkpt>
      <trkpt lat="44.08045" lon="7.75502">
        <ele>1317</ele>
        <time>2017-09-17T15:07:06Z</time>
      </trkpt>
      <trkpt lat="44.08042" lon="7.75507">
        <ele>1317</ele>
        <time>2017-09-17T15:07:07Z</time>
      </trkpt>
      <trkpt lat="44.08039" lon="7.75513">
        <ele>1317</ele>
        <time>2017-09-17T15:07:08Z</time>
      </trkpt>
      <trkpt lat="44.08035" lon="7.75519">
        <ele>1316</ele>
        <time>2017-09-17T15:07:09Z</time>
      </trkpt>
      <trkpt lat="44.08032" lon="7.75526">
        <ele>1316</ele>
        <time>2017-09-17T15:07:10Z</time>
      </trkpt>
      <trkpt lat="44.08028" lon="7.75532">
        <ele>1316</ele>
        <time>2017-09-17T15:07:11Z</time>
      </trkpt>
      <trkpt lat="44.08024" lon="7.75537">
        <ele>1315</ele>
        <time>2017-09-17T15:07:12Z</time>
      </trkpt>
      <trkpt lat="44.0802" lon="7.75541">
        <ele>1315</ele>
        <time>2017-09-17T15:07:13Z</time>
      </trkpt>
      <trkpt lat="44.08015" lon="7.75545">
        <ele>1315</ele>
        <time>2017-09-17T15:07:14Z</time>
      </trkpt>
      <trkpt lat="44.08012" lon="7.75547">
        <ele>1315</ele>
        <time>2017-09-17T15:07:15Z</time>
      </trkpt>
      <trkpt lat="44.08008" lon="7.7555">
        <ele>1315</ele>
        <time>2017-09-17T15:07:16Z</time>
      </trkpt>
      <trkpt lat="44.08006" lon="7.75553">
        <ele>1314</ele>
        <time>2017-09-17T15:07:17Z</time>
      </trkpt>
      <trkpt lat="44.08003" lon="7.75556">
        <ele>1314</ele>
        <time>2017-09-17T15:07:18Z</time>
      </trkpt>
      <trkpt lat="44.08001" lon="7.75559">
        <ele>1314</ele>
        <time>2017-09-17T15:07:19Z</time>
      </trkpt>
      <trkpt lat="44.08" lon="7.75561">
        <ele>1314</ele>
        <time>2017-09-17T15:07:20Z</time>
      </trkpt>
      <trkpt lat="44.07999" lon="7.75562">
        <ele>1314</ele>
        <time>2017-09-17T15:07:21Z</time>
      </trkpt>
      <trkpt lat="44.07998" lon="7.75564">
        <ele>1314</ele>
        <time>2017-09-17T15:07:22Z</time>
      </trkpt>
      <trkpt lat="44.07998" lon="7.75565">
        <ele>1314</ele>
        <time>2017-09-17T15:07:23Z</time>
      </trkpt>
      <trkpt lat="44.07998" lon="7.75566">
        <ele>1314</ele>
        <time>2017-09-17T15:07:24Z</time>
      </trkpt>
      <trkpt lat="44.07998" lon="7.75566">
        <ele>1314</ele>
        <time>2017-09-17T15:07:25Z</time>
      </trkpt>
      <trkpt lat="44.07997" lon="7.75566">
        <ele>1313</ele>
        <time>2017-09-17T15:07:26Z</time>
      </trkpt>
      <trkpt lat="44.07997" lon="7.75567">
        <ele>1313</ele>
        <time>2017-09-17T15:07:27Z</time>
      </trkpt>
      <trkpt lat="44.07997" lon="7.75567">
        <ele>1313</ele>
        <time>2017-09-17T15:07:28Z</time>
      </trkpt>
      <trkpt lat="44.07997" lon="7.75567">
        <ele>1313</ele>
        <time>2017-09-17T15:07:29Z</time>
      </trkpt>
      <trkpt lat="44.07997" lon="7.75567">
        <ele>1313</ele>
        <time>2017-09-17T15:07:30Z</time>
      </trkpt>
      <trkpt lat="44.07996" lon="7.75568">
        <ele>1313</ele>
        <time>2017-09-17T15:07:31Z</time>
      </trkpt>
      <trkpt lat="44.07996" lon="7.75568">
        <ele>1313</ele>
        <time>2017-09-17T15:07:32Z</time>
      </trkpt>
      <trkpt lat="44.07996" lon="7.75568">
        <ele>1313</ele>
        <time>2017-09-17T15:07:33Z</time>
      </trkpt>
      <trkpt lat="44.07996" lon="7.75568">
        <ele>1313</ele>
        <time>2017-09-17T15:07:34Z</time>
      </trkpt>
      <trkpt lat="44.07996" lon="7.75568">
        <ele>1313</ele>
        <time>2017-09-17T15:07:35Z</time>
      </trkpt>
      <trkpt lat="44.07996" lon="7.75568">
        <ele>1313</ele>
        <time>2017-09-17T15:07:36Z</time>
      </trkpt>
      <trkpt lat="44.07996" lon="7.75568">
        <ele>1313</ele>
        <time>2017-09-17T15:07:37Z</time>
      </trkpt>
      <trkpt lat="44.07996" lon="7.75568">
        <ele>1313</ele>
        <time>2017-09-17T15:07:38Z</time>
      </trkpt>
      <trkpt lat="44.07996" lon="7.75568">
        <ele>1313</ele>
        <time>2017-09-17T15:07:39Z</time>
      </trkpt>
      <trkpt lat="44.07996" lon="7.75568">
        <ele>1313</ele>
        <time>2017-09-17T15:07:40Z</time>
      </trkpt>
      <trkpt lat="44.07996" lon="7.75568">
        <ele>1313</ele>
        <time>2017-09-17T15:07:41Z</time>
      </trkpt>
      <trkpt lat="44.07996" lon="7.75568">
        <ele>1313</ele>
        <time>2017-09-17T15:07:42Z</time>
      </trkpt>
      <trkpt lat="44.07996" lon="7.75568">
        <ele>1313</ele>
        <time>2017-09-17T15:07:43Z</time>
      </trkpt>
      <trkpt lat="44.07996" lon="7.75568">
        <ele>1313</ele>
        <time>2017-09-17T15:07:44Z</time>
      </trkpt>
      <trkpt lat="44.07996" lon="7.75568">
        <ele>1313</ele>
        <time>2017-09-17T15:07:45Z</time>
      </trkpt>
      <trkpt lat="44.07996" lon="7.75568">
        <ele>1313</ele>
        <time>2017-09-17T15:07:46Z</time>
      </trkpt>
      <trkpt lat="44.07996" lon="7.75568">
        <ele>1313</ele>
        <time>2017-09-17T15:07:47Z</time>
      </trkpt>
      <trkpt lat="44.07996" lon="7.75568">
        <ele>1313</ele>
        <time>2017-09-17T15:07:48Z</time>
      </trkpt>
      <trkpt lat="44.07996" lon="7.75568">
        <ele>1313</ele>
        <time>2017-09-17T15:07:49Z</time>
      </trkpt>
      <trkpt lat="44.07996" lon="7.75568">
        <ele>1313</ele>
        <time>2017-09-17T15:07:50Z</time>
      </trkpt>
      <trkpt lat="44.07996" lon="7.75568">
        <ele>1313</ele>
        <time>2017-09-17T15:07:51Z</time>
      </trkpt>
      <trkpt lat="44.07996" lon="7.75568">
        <ele>1313</ele>
        <time>2017-09-17T15:07:52Z</time>
      </trkpt>
      <trkpt lat="44.07996" lon="7.75568">
        <ele>1313</ele>
        <time>2017-09-17T15:07:53Z</time>
      </trkpt>
      <trkpt lat="44.07996" lon="7.75568">
        <ele>1313</ele>
        <time>2017-09-17T15:07:54Z</time>
      </trkpt>
      <trkpt lat="44.07996" lon="7.75568">
        <ele>1313</ele>
        <time>2017-09-17T15:07:55Z</time>
      </trkpt>
      <trkpt lat="44.07996" lon="7.75568">
        <ele>1313</ele>
        <time>2017-09-17T15:07:56Z</time>
      </trkpt>
      <trkpt lat="44.07996" lon="7.75568">
        <ele>1313</ele>
        <time>2017-09-17T15:07:57Z</time>
      </trkpt>
      <trkpt lat="44.07996" lon="7.75568">
        <ele>1313</ele>
        <time>2017-09-17T15:07:58Z</time>
      </trkpt>
      <trkpt lat="44.07996" lon="7.75568">
        <ele>1313</ele>
        <time>2017-09-17T15:07:59Z</time>
      </trkpt>
      <trkpt lat="44.07996" lon="7.75567">
        <ele>1313</ele>
        <time>2017-09-17T15:08:00Z</time>
      </trkpt>
      <trkpt lat="44.07996" lon="7.75567">
        <ele>1313</ele>
        <time>2017-09-17T15:08:01Z</time>
      </trkpt>
      <trkpt lat="44.07996" lon="7.75567">
        <ele>1313</ele>
        <time>2017-09-17T15:08:02Z</time>
      </trkpt>
      <trkpt lat="44.07996" lon="7.75567">
        <ele>1313</ele>
        <time>2017-09-17T15:08:03Z</time>
      </trkpt>
      <trkpt lat="44.07995" lon="7.75567">
        <ele>1313</ele>
        <time>2017-09-17T15:08:04Z</time>
      </trkpt>
      <trkpt lat="44.07995" lon="7.75567">
        <ele>1313</ele>
        <time>2017-09-17T15:08:05Z</time>
      </trkpt>
      <trkpt lat="44.07996" lon="7.75567">
        <ele>1313</ele>
        <time>2017-09-17T15:08:06Z</time>
      </trkpt>
      <trkpt lat="44.07996" lon="7.75567">
        <ele>1313</ele>
        <time>2017-09-17T15:08:07Z</time>
      </trkpt>
      <trkpt lat="44.07996" lon="7.75567">
        <ele>1313</ele>
        <time>2017-09-17T15:08:08Z</time>
      </trkpt>
      <trkpt lat="44.07995" lon="7.75567">
        <ele>1313</ele>
        <time>2017-09-17T15:08:09Z</time>
      </trkpt>
      <trkpt lat="44.07996" lon="7.75567">
        <ele>1313</ele>
        <time>2017-09-17T15:08:10Z</time>
      </trkpt>
      <trkpt lat="44.07995" lon="7.75567">
        <ele>1313</ele>
        <time>2017-09-17T15:08:11Z</time>
      </trkpt>
      <trkpt lat="44.07995" lon="7.75567">
        <ele>1313</ele>
        <time>2017-09-17T15:08:12Z</time>
      </trkpt>
      <trkpt lat="44.07995" lon="7.75568">
        <ele>1313</ele>
        <time>2017-09-17T15:08:13Z</time>
      </trkpt>
      <trkpt lat="44.07995" lon="7.75568">
        <ele>1313</ele>
        <time>2017-09-17T15:08:14Z</time>
      </trkpt>
      <trkpt lat="44.07994" lon="7.75568">
        <ele>1313</ele>
        <time>2017-09-17T15:08:15Z</time>
      </trkpt>
      <trkpt lat="44.07994" lon="7.75568">
        <ele>1313</ele>
        <time>2017-09-17T15:08:16Z</time>
      </trkpt>
      <trkpt lat="44.07994" lon="7.75568">
        <ele>1313</ele>
        <time>2017-09-17T15:08:17Z</time>
      </trkpt>
      <trkpt lat="44.07993" lon="7.75569">
        <ele>1313</ele>
        <time>2017-09-17T15:08:18Z</time>
      </trkpt>
      <trkpt lat="44.07992" lon="7.75569">
        <ele>1313</ele>
        <time>2017-09-17T15:08:19Z</time>
      </trkpt>
      <trkpt lat="44.07991" lon="7.75569">
        <ele>1312</ele>
        <time>2017-09-17T15:08:20Z</time>
      </trkpt>
      <trkpt lat="44.0799" lon="7.7557">
        <ele>1312</ele>
        <time>2017-09-17T15:08:21Z</time>
      </trkpt>
      <trkpt lat="44.07989" lon="7.75571">
        <ele>1312</ele>
        <time>2017-09-17T15:08:22Z</time>
      </trkpt>
      <trkpt lat="44.07987" lon="7.75572">
        <ele>1311</ele>
        <time>2017-09-17T15:08:23Z</time>
      </trkpt>
      <trkpt lat="44.07985" lon="7.75576">
        <ele>1311</ele>
        <time>2017-09-17T15:08:24Z</time>
      </trkpt>
      <trkpt lat="44.07983" lon="7.7558">
        <ele>1311</ele>
        <time>2017-09-17T15:08:25Z</time>
      </trkpt>
      <trkpt lat="44.07983" lon="7.75585">
        <ele>1310</ele>
        <time>2017-09-17T15:08:26Z</time>
      </trkpt>
      <trkpt lat="44.07982" lon="7.75591">
        <ele>1310</ele>
        <time>2017-09-17T15:08:27Z</time>
      </trkpt>
      <trkpt lat="44.07982" lon="7.75598">
        <ele>1310</ele>
        <time>2017-09-17T15:08:28Z</time>
      </trkpt>
      <trkpt lat="44.07981" lon="7.75605">
        <ele>1310</ele>
        <time>2017-09-17T15:08:29Z</time>
      </trkpt>
      <trkpt lat="44.0798" lon="7.75612">
        <ele>1310</ele>
        <time>2017-09-17T15:08:30Z</time>
      </trkpt>
      <trkpt lat="44.07978" lon="7.75619">
        <ele>1310</ele>
        <time>2017-09-17T15:08:31Z</time>
      </trkpt>
      <trkpt lat="44.07977" lon="7.75626">
        <ele>1310</ele>
        <time>2017-09-17T15:08:32Z</time>
      </trkpt>
      <trkpt lat="44.07976" lon="7.75633">
        <ele>1310</ele>
        <time>2017-09-17T15:08:33Z</time>
      </trkpt>
      <trkpt lat="44.07975" lon="7.7564">
        <ele>1310</ele>
        <time>2017-09-17T15:08:34Z</time>
      </trkpt>
      <trkpt lat="44.07974" lon="7.75647">
        <ele>1310</ele>
        <time>2017-09-17T15:08:35Z</time>
      </trkpt>
      <trkpt lat="44.07974" lon="7.75653">
        <ele>1311</ele>
        <time>2017-09-17T15:08:36Z</time>
      </trkpt>
      <trkpt lat="44.07974" lon="7.7566">
        <ele>1311</ele>
        <time>2017-09-17T15:08:37Z</time>
      </trkpt>
      <trkpt lat="44.07975" lon="7.75666">
        <ele>1311</ele>
        <time>2017-09-17T15:08:38Z</time>
      </trkpt>
      <trkpt lat="44.07977" lon="7.75671">
        <ele>1311</ele>
        <time>2017-09-17T15:08:39Z</time>
      </trkpt>
      <trkpt lat="44.07979" lon="7.75676">
        <ele>1312</ele>
        <time>2017-09-17T15:08:40Z</time>
      </trkpt>
      <trkpt lat="44.07981" lon="7.7568">
        <ele>1312</ele>
        <time>2017-09-17T15:08:41Z</time>
      </trkpt>
      <trkpt lat="44.07984" lon="7.75684">
        <ele>1312</ele>
        <time>2017-09-17T15:08:42Z</time>
      </trkpt>
      <trkpt lat="44.07987" lon="7.75688">
        <ele>1312</ele>
        <time>2017-09-17T15:08:43Z</time>
      </trkpt>
      <trkpt lat="44.0799" lon="7.75692">
        <ele>1312</ele>
        <time>2017-09-17T15:08:44Z</time>
      </trkpt>
      <trkpt lat="44.07993" lon="7.75697">
        <ele>1312</ele>
        <time>2017-09-17T15:08:45Z</time>
      </trkpt>
      <trkpt lat="44.07995" lon="7.75701">
        <ele>1312</ele>
        <time>2017-09-17T15:08:46Z</time>
      </trkpt>
      <trkpt lat="44.07998" lon="7.75705">
        <ele>1313</ele>
        <time>2017-09-17T15:08:47Z</time>
      </trkpt>
      <trkpt lat="44.08001" lon="7.75709">
        <ele>1313</ele>
        <time>2017-09-17T15:08:48Z</time>
      </trkpt>
      <trkpt lat="44.08004" lon="7.75713">
        <ele>1313</ele>
        <time>2017-09-17T15:08:49Z</time>
      </trkpt>
      <trkpt lat="44.08007" lon="7.75718">
        <ele>1313</ele>
        <time>2017-09-17T15:08:50Z</time>
      </trkpt>
      <trkpt lat="44.0801" lon="7.75722">
        <ele>1313</ele>
        <time>2017-09-17T15:08:51Z</time>
      </trkpt>
      <trkpt lat="44.08013" lon="7.75726">
        <ele>1313</ele>
        <time>2017-09-17T15:08:52Z</time>
      </trkpt>
      <trkpt lat="44.08016" lon="7.7573">
        <ele>1314</ele>
        <time>2017-09-17T15:08:53Z</time>
      </trkpt>
      <trkpt lat="44.08019" lon="7.75734">
        <ele>1314</ele>
        <time>2017-09-17T15:08:54Z</time>
      </trkpt>
      <trkpt lat="44.08022" lon="7.75738">
        <ele>1314</ele>
        <time>2017-09-17T15:08:55Z</time>
      </trkpt>
      <trkpt lat="44.08025" lon="7.75741">
        <ele>1314</ele>
        <time>2017-09-17T15:08:56Z</time>
      </trkpt>
      <trkpt lat="44.08029" lon="7.75744">
        <ele>1314</ele>
        <time>2017-09-17T15:08:57Z</time>
      </trkpt>
      <trkpt lat="44.08032" lon="7.75747">
        <ele>1314</ele>
        <time>2017-09-17T15:08:58Z</time>
      </trkpt>
      <trkpt lat="44.08035" lon="7.75751">
        <ele>1315</ele>
        <time>2017-09-17T15:08:59Z</time>
      </trkpt>
      <trkpt lat="44.08038" lon="7.75754">
        <ele>1315</ele>
        <time>2017-09-17T15:09:00Z</time>
      </trkpt>
      <trkpt lat="44.08041" lon="7.75758">
        <ele>1315</ele>
        <time>2017-09-17T15:09:01Z</time>
      </trkpt>
      <trkpt lat="44.08044" lon="7.75762">
        <ele>1315</ele>
        <time>2017-09-17T15:09:02Z</time>
      </trkpt>
      <trkpt lat="44.08048" lon="7.75765">
        <ele>1315</ele>
        <time>2017-09-17T15:09:03Z</time>
      </trkpt>
      <trkpt lat="44.08051" lon="7.75769">
        <ele>1316</ele>
        <time>2017-09-17T15:09:04Z</time>
      </trkpt>
      <trkpt lat="44.08055" lon="7.75773">
        <ele>1316</ele>
        <time>2017-09-17T15:09:05Z</time>
      </trkpt>
      <trkpt lat="44.08058" lon="7.75777">
        <ele>1316</ele>
        <time>2017-09-17T15:09:06Z</time>
      </trkpt>
      <trkpt lat="44.08061" lon="7.75781">
        <ele>1316</ele>
        <time>2017-09-17T15:09:07Z</time>
      </trkpt>
      <trkpt lat="44.08064" lon="7.75786">
        <ele>1316</ele>
        <time>2017-09-17T15:09:08Z</time>
      </trkpt>
      <trkpt lat="44.08067" lon="7.7579">
        <ele>1316</ele>
        <time>2017-09-17T15:09:09Z</time>
      </trkpt>
      <trkpt lat="44.0807" lon="7.75796">
        <ele>1316</ele>
        <time>2017-09-17T15:09:10Z</time>
      </trkpt>
      <trkpt lat="44.08072" lon="7.75802">
        <ele>1317</ele>
        <time>2017-09-17T15:09:11Z</time>
      </trkpt>
      <trkpt lat="44.08075" lon="7.75808">
        <ele>1317</ele>
        <time>2017-09-17T15:09:12Z</time>
      </trkpt>
      <trkpt lat="44.08077" lon="7.75814">
        <ele>1317</ele>
        <time>2017-09-17T15:09:13Z</time>
      </trkpt>
      <trkpt lat="44.08079" lon="7.75821">
        <ele>1317</ele>
        <time>2017-09-17T15:09:14Z</time>
      </trkpt>
      <trkpt lat="44.08081" lon="7.75829">
        <ele>1318</ele>
        <time>2017-09-17T15:09:15Z</time>
      </trkpt>
      <trkpt lat="44.08084" lon="7.75836">
        <ele>1318</ele>
        <time>2017-09-17T15:09:16Z</time>
      </trkpt>
      <trkpt lat="44.08087" lon="7.75843">
        <ele>1318</ele>
        <time>2017-09-17T15:09:17Z</time>
      </trkpt>
      <trkpt lat="44.0809" lon="7.7585">
        <ele>1319</ele>
        <time>2017-09-17T15:09:18Z</time>
      </trkpt>
      <trkpt lat="44.08093" lon="7.75856">
        <ele>1319</ele>
        <time>2017-09-17T15:09:19Z</time>
      </trkpt>
      <trkpt lat="44.08097" lon="7.75862">
        <ele>1319</ele>
        <time>2017-09-17T15:09:20Z</time>
      </trkpt>
      <trkpt lat="44.081" lon="7.75869">
        <ele>1319</ele>
        <time>2017-09-17T15:09:21Z</time>
      </trkpt>
      <trkpt lat="44.08105" lon="7.75875">
        <ele>1319</ele>
        <time>2017-09-17T15:09:22Z</time>
      </trkpt>
      <trkpt lat="44.08109" lon="7.7588">
        <ele>1319</ele>
        <time>2017-09-17T15:09:23Z</time>
      </trkpt>
      <trkpt lat="44.08113" lon="7.75886">
        <ele>1320</ele>
        <time>2017-09-17T15:09:24Z</time>
      </trkpt>
      <trkpt lat="44.08117" lon="7.75892">
        <ele>1320</ele>
        <time>2017-09-17T15:09:25Z</time>
      </trkpt>
      <trkpt lat="44.08121" lon="7.75898">
        <ele>1320</ele>
        <time>2017-09-17T15:09:26Z</time>
      </trkpt>
      <trkpt lat="44.08126" lon="7.75903">
        <ele>1320</ele>
        <time>2017-09-17T15:09:27Z</time>
      </trkpt>
      <trkpt lat="44.08131" lon="7.75909">
        <ele>1320</ele>
        <time>2017-09-17T15:09:28Z</time>
      </trkpt>
      <trkpt lat="44.08135" lon="7.75915">
        <ele>1321</ele>
        <time>2017-09-17T15:09:29Z</time>
      </trkpt>
      <trkpt lat="44.08139" lon="7.75921">
        <ele>1321</ele>
        <time>2017-09-17T15:09:30Z</time>
      </trkpt>
      <trkpt lat="44.08142" lon="7.75928">
        <ele>1321</ele>
        <time>2017-09-17T15:09:31Z</time>
      </trkpt>
      <trkpt lat="44.08146" lon="7.75935">
        <ele>1321</ele>
        <time>2017-09-17T15:09:32Z</time>
      </trkpt>
      <trkpt lat="44.0815" lon="7.75942">
        <ele>1321</ele>
        <time>2017-09-17T15:09:33Z</time>
      </trkpt>
      <trkpt lat="44.08152" lon="7.7595">
        <ele>1322</ele>
        <time>2017-09-17T15:09:34Z</time>
      </trkpt>
      <trkpt lat="44.08154" lon="7.75957">
        <ele>1322</ele>
        <time>2017-09-17T15:09:35Z</time>
      </trkpt>
      <trkpt lat="44.08155" lon="7.75965">
        <ele>1322</ele>
        <time>2017-09-17T15:09:36Z</time>
      </trkpt>
      <trkpt lat="44.08156" lon="7.75973">
        <ele>1322</ele>
        <time>2017-09-17T15:09:37Z</time>
      </trkpt>
      <trkpt lat="44.08156" lon="7.75981">
        <ele>1322</ele>
        <time>2017-09-17T15:09:38Z</time>
      </trkpt>
      <trkpt lat="44.08157" lon="7.75989">
        <ele>1323</ele>
        <time>2017-09-17T15:09:39Z</time>
      </trkpt>
      <trkpt lat="44.08157" lon="7.75996">
        <ele>1323</ele>
        <time>2017-09-17T15:09:40Z</time>
      </trkpt>
      <trkpt lat="44.08157" lon="7.76004">
        <ele>1323</ele>
        <time>2017-09-17T15:09:41Z</time>
      </trkpt>
      <trkpt lat="44.08156" lon="7.76012">
        <ele>1323</ele>
        <time>2017-09-17T15:09:42Z</time>
      </trkpt>
      <trkpt lat="44.08154" lon="7.76019">
        <ele>1323</ele>
        <time>2017-09-17T15:09:43Z</time>
      </trkpt>
      <trkpt lat="44.08152" lon="7.76026">
        <ele>1324</ele>
        <time>2017-09-17T15:09:44Z</time>
      </trkpt>
      <trkpt lat="44.0815" lon="7.76033">
        <ele>1324</ele>
        <time>2017-09-17T15:09:45Z</time>
      </trkpt>
      <trkpt lat="44.08147" lon="7.7604">
        <ele>1324</ele>
        <time>2017-09-17T15:09:46Z</time>
      </trkpt>
      <trkpt lat="44.08144" lon="7.76047">
        <ele>1324</ele>
        <time>2017-09-17T15:09:47Z</time>
      </trkpt>
      <trkpt lat="44.08142" lon="7.76053">
        <ele>1324</ele>
        <time>2017-09-17T15:09:48Z</time>
      </trkpt>
      <trkpt lat="44.08138" lon="7.76059">
        <ele>1324</ele>
        <time>2017-09-17T15:09:49Z</time>
      </trkpt>
      <trkpt lat="44.08135" lon="7.76065">
        <ele>1325</ele>
        <time>2017-09-17T15:09:50Z</time>
      </trkpt>
      <trkpt lat="44.08131" lon="7.7607">
        <ele>1325</ele>
        <time>2017-09-17T15:09:51Z</time>
      </trkpt>
      <trkpt lat="44.08127" lon="7.76075">
        <ele>1325</ele>
        <time>2017-09-17T15:09:52Z</time>
      </trkpt>
      <trkpt lat="44.08123" lon="7.76081">
        <ele>1325</ele>
        <time>2017-09-17T15:09:53Z</time>
      </trkpt>
      <trkpt lat="44.08119" lon="7.76086">
        <ele>1325</ele>
        <time>2017-09-17T15:09:54Z</time>
      </trkpt>
      <trkpt lat="44.08115" lon="7.76092">
        <ele>1325</ele>
        <time>2017-09-17T15:09:55Z</time>
      </trkpt>
      <trkpt lat="44.08111" lon="7.76097">
        <ele>1325</ele>
        <time>2017-09-17T15:09:56Z</time>
      </trkpt>
      <trkpt lat="44.08107" lon="7.76103">
        <ele>1326</ele>
        <time>2017-09-17T15:09:57Z</time>
      </trkpt>
      <trkpt lat="44.08105" lon="7.7611">
        <ele>1326</ele>
        <time>2017-09-17T15:09:58Z</time>
      </trkpt>
      <trkpt lat="44.08105" lon="7.76117">
        <ele>1326</ele>
        <time>2017-09-17T15:09:59Z</time>
      </trkpt>
      <trkpt lat="44.08108" lon="7.76123">
        <ele>1326</ele>
        <time>2017-09-17T15:10:00Z</time>
      </trkpt>
      <trkpt lat="44.08112" lon="7.76127">
        <ele>1326</ele>
        <time>2017-09-17T15:10:01Z</time>
      </trkpt>
      <trkpt lat="44.08117" lon="7.76132">
        <ele>1326</ele>
        <time>2017-09-17T15:10:02Z</time>
      </trkpt>
      <trkpt lat="44.08123" lon="7.76137">
        <ele>1326</ele>
        <time>2017-09-17T15:10:03Z</time>
      </trkpt>
      <trkpt lat="44.08129" lon="7.76142">
        <ele>1327</ele>
        <time>2017-09-17T15:10:04Z</time>
      </trkpt>
      <trkpt lat="44.08135" lon="7.76147">
        <ele>1327</ele>
        <time>2017-09-17T15:10:05Z</time>
      </trkpt>
      <trkpt lat="44.08141" lon="7.76152">
        <ele>1327</ele>
        <time>2017-09-17T15:10:06Z</time>
      </trkpt>
      <trkpt lat="44.08147" lon="7.76157">
        <ele>1327</ele>
        <time>2017-09-17T15:10:07Z</time>
      </trkpt>
      <trkpt lat="44.08154" lon="7.76161">
        <ele>1327</ele>
        <time>2017-09-17T15:10:08Z</time>
      </trkpt>
      <trkpt lat="44.08161" lon="7.76167">
        <ele>1327</ele>
        <time>2017-09-17T15:10:09Z</time>
      </trkpt>
      <trkpt lat="44.08168" lon="7.76173">
        <ele>1327</ele>
        <time>2017-09-17T15:10:10Z</time>
      </trkpt>
      <trkpt lat="44.08174" lon="7.76181">
        <ele>1327</ele>
        <time>2017-09-17T15:10:11Z</time>
      </trkpt>
      <trkpt lat="44.08179" lon="7.76191">
        <ele>1326</ele>
        <time>2017-09-17T15:10:12Z</time>
      </trkpt>
      <trkpt lat="44.08183" lon="7.76203">
        <ele>1325</ele>
        <time>2017-09-17T15:10:13Z</time>
      </trkpt>
      <trkpt lat="44.08185" lon="7.76216">
        <ele>1324</ele>
        <time>2017-09-17T15:10:14Z</time>
      </trkpt>
      <trkpt lat="44.08186" lon="7.76229">
        <ele>1323</ele>
        <time>2017-09-17T15:10:15Z</time>
      </trkpt>
      <trkpt lat="44.08187" lon="7.76242">
        <ele>1322</ele>
        <time>2017-09-17T15:10:16Z</time>
      </trkpt>
      <trkpt lat="44.08189" lon="7.76256">
        <ele>1321</ele>
        <time>2017-09-17T15:10:17Z</time>
      </trkpt>
      <trkpt lat="44.0819" lon="7.7627">
        <ele>1320</ele>
        <time>2017-09-17T15:10:18Z</time>
      </trkpt>
      <trkpt lat="44.08189" lon="7.76284">
        <ele>1319</ele>
        <time>2017-09-17T15:10:19Z</time>
      </trkpt>
      <trkpt lat="44.08186" lon="7.76298">
        <ele>1318</ele>
        <time>2017-09-17T15:10:20Z</time>
      </trkpt>
      <trkpt lat="44.08182" lon="7.76312">
        <ele>1317</ele>
        <time>2017-09-17T15:10:21Z</time>
      </trkpt>
      <trkpt lat="44.08178" lon="7.76325">
        <ele>1316</ele>
        <time>2017-09-17T15:10:22Z</time>
      </trkpt>
      <trkpt lat="44.08175" lon="7.76339">
        <ele>1315</ele>
        <time>2017-09-17T15:10:23Z</time>
      </trkpt>
      <trkpt lat="44.08172" lon="7.76354">
        <ele>1314</ele>
        <time>2017-09-17T15:10:24Z</time>
      </trkpt>
      <trkpt lat="44.08169" lon="7.76368">
        <ele>1313</ele>
        <time>2017-09-17T15:10:25Z</time>
      </trkpt>
      <trkpt lat="44.08165" lon="7.76382">
        <ele>1312</ele>
        <time>2017-09-17T15:10:26Z</time>
      </trkpt>
      <trkpt lat="44.08161" lon="7.76396">
        <ele>1310</ele>
        <time>2017-09-17T15:10:27Z</time>
      </trkpt>
      <trkpt lat="44.08157" lon="7.7641">
        <ele>1309</ele>
        <time>2017-09-17T15:10:28Z</time>
      </trkpt>
      <trkpt lat="44.08153" lon="7.76424">
        <ele>1308</ele>
        <time>2017-09-17T15:10:29Z</time>
      </trkpt>
      <trkpt lat="44.08151" lon="7.76439">
        <ele>1307</ele>
        <time>2017-09-17T15:10:30Z</time>
      </trkpt>
      <trkpt lat="44.0815" lon="7.76454">
        <ele>1306</ele>
        <time>2017-09-17T15:10:31Z</time>
      </trkpt>
      <trkpt lat="44.08154" lon="7.76468">
        <ele>1305</ele>
        <time>2017-09-17T15:10:32Z</time>
      </trkpt>
      <trkpt lat="44.08157" lon="7.76482">
        <ele>1304</ele>
        <time>2017-09-17T15:10:33Z</time>
      </trkpt>
      <trkpt lat="44.08158" lon="7.76495">
        <ele>1303</ele>
        <time>2017-09-17T15:10:34Z</time>
      </trkpt>
      <trkpt lat="44.08156" lon="7.76507">
        <ele>1302</ele>
        <time>2017-09-17T15:10:35Z</time>
      </trkpt>
      <trkpt lat="44.08151" lon="7.76518">
        <ele>1301</ele>
        <time>2017-09-17T15:10:36Z</time>
      </trkpt>
      <trkpt lat="44.08145" lon="7.76527">
        <ele>1301</ele>
        <time>2017-09-17T15:10:37Z</time>
      </trkpt>
      <trkpt lat="44.08138" lon="7.76537">
        <ele>1300</ele>
        <time>2017-09-17T15:10:38Z</time>
      </trkpt>
      <trkpt lat="44.08131" lon="7.76546">
        <ele>1299</ele>
        <time>2017-09-17T15:10:39Z</time>
      </trkpt>
      <trkpt lat="44.08124" lon="7.76556">
        <ele>1299</ele>
        <time>2017-09-17T15:10:40Z</time>
      </trkpt>
      <trkpt lat="44.08119" lon="7.76567">
        <ele>1298</ele>
        <time>2017-09-17T15:10:41Z</time>
      </trkpt>
      <trkpt lat="44.08117" lon="7.76581">
        <ele>1297</ele>
        <time>2017-09-17T15:10:42Z</time>
      </trkpt>
      <trkpt lat="44.08118" lon="7.76594">
        <ele>1297</ele>
        <time>2017-09-17T15:10:43Z</time>
      </trkpt>
      <trkpt lat="44.0812" lon="7.76606">
        <ele>1296</ele>
        <time>2017-09-17T15:10:44Z</time>
      </trkpt>
      <trkpt lat="44.08122" lon="7.76619">
        <ele>1296</ele>
        <time>2017-09-17T15:10:45Z</time>
      </trkpt>
      <trkpt lat="44.08123" lon="7.76632">
        <ele>1295</ele>
        <time>2017-09-17T15:10:46Z</time>
      </trkpt>
      <trkpt lat="44.08122" lon="7.76644">
        <ele>1295</ele>
        <time>2017-09-17T15:10:47Z</time>
      </trkpt>
      <trkpt lat="44.08119" lon="7.76656">
        <ele>1294</ele>
        <time>2017-09-17T15:10:48Z</time>
      </trkpt>
      <trkpt lat="44.08114" lon="7.76667">
        <ele>1293</ele>
        <time>2017-09-17T15:10:49Z</time>
      </trkpt>
      <trkpt lat="44.08108" lon="7.76676">
        <ele>1293</ele>
        <time>2017-09-17T15:10:50Z</time>
      </trkpt>
      <trkpt lat="44.08104" lon="7.76687">
        <ele>1293</ele>
        <time>2017-09-17T15:10:51Z</time>
      </trkpt>
      <trkpt lat="44.081" lon="7.76697">
        <ele>1293</ele>
        <time>2017-09-17T15:10:52Z</time>
      </trkpt>
      <trkpt lat="44.08098" lon="7.76707">
        <ele>1293</ele>
        <time>2017-09-17T15:10:53Z</time>
      </trkpt>
      <trkpt lat="44.08097" lon="7.76718">
        <ele>1293</ele>
        <time>2017-09-17T15:10:54Z</time>
      </trkpt>
      <trkpt lat="44.08096" lon="7.76728">
        <ele>1294</ele>
        <time>2017-09-17T15:10:55Z</time>
      </trkpt>
      <trkpt lat="44.08096" lon="7.76737">
        <ele>1294</ele>
        <time>2017-09-17T15:10:56Z</time>
      </trkpt>
      <trkpt lat="44.08097" lon="7.76746">
        <ele>1294</ele>
        <time>2017-09-17T15:10:57Z</time>
      </trkpt>
      <trkpt lat="44.08098" lon="7.76754">
        <ele>1295</ele>
        <time>2017-09-17T15:10:58Z</time>
      </trkpt>
      <trkpt lat="44.08099" lon="7.76762">
        <ele>1295</ele>
        <time>2017-09-17T15:10:59Z</time>
      </trkpt>
      <trkpt lat="44.08099" lon="7.7677">
        <ele>1295</ele>
        <time>2017-09-17T15:11:00Z</time>
      </trkpt>
      <trkpt lat="44.081" lon="7.76777">
        <ele>1296</ele>
        <time>2017-09-17T15:11:01Z</time>
      </trkpt>
      <trkpt lat="44.08101" lon="7.76784">
        <ele>1296</ele>
        <time>2017-09-17T15:11:02Z</time>
      </trkpt>
      <trkpt lat="44.08102" lon="7.76791">
        <ele>1296</ele>
        <time>2017-09-17T15:11:03Z</time>
      </trkpt>
      <trkpt lat="44.08103" lon="7.76798">
        <ele>1297</ele>
        <time>2017-09-17T15:11:04Z</time>
      </trkpt>
      <trkpt lat="44.08104" lon="7.76804">
        <ele>1297</ele>
        <time>2017-09-17T15:11:05Z</time>
      </trkpt>
      <trkpt lat="44.08104" lon="7.76809">
        <ele>1297</ele>
        <time>2017-09-17T15:11:06Z</time>
      </trkpt>
      <trkpt lat="44.08105" lon="7.76813">
        <ele>1297</ele>
        <time>2017-09-17T15:11:07Z</time>
      </trkpt>
      <trkpt lat="44.08106" lon="7.76816">
        <ele>1297</ele>
        <time>2017-09-17T15:11:08Z</time>
      </trkpt>
      <trkpt lat="44.08105" lon="7.76818">
        <ele>1297</ele>
        <time>2017-09-17T15:11:09Z</time>
      </trkpt>
      <trkpt lat="44.08105" lon="7.7682">
        <ele>1297</ele>
        <time>2017-09-17T15:11:10Z</time>
      </trkpt>
      <trkpt lat="44.08105" lon="7.76822">
        <ele>1298</ele>
        <time>2017-09-17T15:11:11Z</time>
      </trkpt>
      <trkpt lat="44.08105" lon="7.76823">
        <ele>1298</ele>
        <time>2017-09-17T15:11:12Z</time>
      </trkpt>
      <trkpt lat="44.08105" lon="7.76826">
        <ele>1298</ele>
        <time>2017-09-17T15:11:13Z</time>
      </trkpt>
      <trkpt lat="44.08105" lon="7.76828">
        <ele>1298</ele>
        <time>2017-09-17T15:11:14Z</time>
      </trkpt>
      <trkpt lat="44.08106" lon="7.76831">
        <ele>1298</ele>
        <time>2017-09-17T15:11:15Z</time>
      </trkpt>
      <trkpt lat="44.08106" lon="7.76834">
        <ele>1298</ele>
        <time>2017-09-17T15:11:16Z</time>
      </trkpt>
      <trkpt lat="44.08106" lon="7.76837">
        <ele>1298</ele>
        <time>2017-09-17T15:11:17Z</time>
      </trkpt>
      <trkpt lat="44.08107" lon="7.76841">
        <ele>1298</ele>
        <time>2017-09-17T15:11:18Z</time>
      </trkpt>
      <trkpt lat="44.08108" lon="7.76846">
        <ele>1297</ele>
        <time>2017-09-17T15:11:19Z</time>
      </trkpt>
      <trkpt lat="44.08109" lon="7.76852">
        <ele>1297</ele>
        <time>2017-09-17T15:11:20Z</time>
      </trkpt>
      <trkpt lat="44.0811" lon="7.76859">
        <ele>1297</ele>
        <time>2017-09-17T15:11:21Z</time>
      </trkpt>
      <trkpt lat="44.08112" lon="7.76867">
        <ele>1298</ele>
        <time>2017-09-17T15:11:22Z</time>
      </trkpt>
      <trkpt lat="44.08115" lon="7.76874">
        <ele>1298</ele>
        <time>2017-09-17T15:11:23Z</time>
      </trkpt>
      <trkpt lat="44.08118" lon="7.76881">
        <ele>1299</ele>
        <time>2017-09-17T15:11:24Z</time>
      </trkpt>
      <trkpt lat="44.08121" lon="7.76887">
        <ele>1299</ele>
        <time>2017-09-17T15:11:25Z</time>
      </trkpt>
      <trkpt lat="44.08125" lon="7.76893">
        <ele>1299</ele>
        <time>2017-09-17T15:11:26Z</time>
      </trkpt>
      <trkpt lat="44.08128" lon="7.76898">
        <ele>1300</ele>
        <time>2017-09-17T15:11:27Z</time>
      </trkpt>
      <trkpt lat="44.08132" lon="7.76903">
        <ele>1300</ele>
        <time>2017-09-17T15:11:28Z</time>
      </trkpt>
      <trkpt lat="44.08135" lon="7.76907">
        <ele>1301</ele>
        <time>2017-09-17T15:11:29Z</time>
      </trkpt>
      <trkpt lat="44.08139" lon="7.76912">
        <ele>1301</ele>
        <time>2017-09-17T15:11:30Z</time>
      </trkpt>
      <trkpt lat="44.08143" lon="7.76916">
        <ele>1302</ele>
        <time>2017-09-17T15:11:31Z</time>
      </trkpt>
      <trkpt lat="44.08146" lon="7.7692">
        <ele>1302</ele>
        <time>2017-09-17T15:11:32Z</time>
      </trkpt>
      <trkpt lat="44.0815" lon="7.76924">
        <ele>1303</ele>
        <time>2017-09-17T15:11:33Z</time>
      </trkpt>
      <trkpt lat="44.08153" lon="7.76928">
        <ele>1303</ele>
        <time>2017-09-17T15:11:34Z</time>
      </trkpt>
      <trkpt lat="44.08156" lon="7.76933">
        <ele>1304</ele>
        <time>2017-09-17T15:11:35Z</time>
      </trkpt>
      <trkpt lat="44.08159" lon="7.76937">
        <ele>1304</ele>
        <time>2017-09-17T15:11:36Z</time>
      </trkpt>
      <trkpt lat="44.08162" lon="7.76942">
        <ele>1305</ele>
        <time>2017-09-17T15:11:37Z</time>
      </trkpt>
      <trkpt lat="44.08165" lon="7.76947">
        <ele>1305</ele>
        <time>2017-09-17T15:11:38Z</time>
      </trkpt>
      <trkpt lat="44.08169" lon="7.76951">
        <ele>1306</ele>
        <time>2017-09-17T15:11:39Z</time>
      </trkpt>
      <trkpt lat="44.08172" lon="7.76956">
        <ele>1306</ele>
        <time>2017-09-17T15:11:40Z</time>
      </trkpt>
      <trkpt lat="44.08175" lon="7.7696">
        <ele>1307</ele>
        <time>2017-09-17T15:11:41Z</time>
      </trkpt>
      <trkpt lat="44.08177" lon="7.76965">
        <ele>1307</ele>
        <time>2017-09-17T15:11:42Z</time>
      </trkpt>
      <trkpt lat="44.0818" lon="7.7697">
        <ele>1308</ele>
        <time>2017-09-17T15:11:43Z</time>
      </trkpt>
      <trkpt lat="44.08183" lon="7.76975">
        <ele>1309</ele>
        <time>2017-09-17T15:11:44Z</time>
      </trkpt>
      <trkpt lat="44.08185" lon="7.7698">
        <ele>1309</ele>
        <time>2017-09-17T15:11:45Z</time>
      </trkpt>
      <trkpt lat="44.08187" lon="7.76985">
        <ele>1310</ele>
        <time>2017-09-17T15:11:46Z</time>
      </trkpt>
      <trkpt lat="44.08189" lon="7.76991">
        <ele>1310</ele>
        <time>2017-09-17T15:11:47Z</time>
      </trkpt>
      <trkpt lat="44.08191" lon="7.76996">
        <ele>1311</ele>
        <time>2017-09-17T15:11:48Z</time>
      </trkpt>
      <trkpt lat="44.08193" lon="7.77002">
        <ele>1312</ele>
        <time>2017-09-17T15:11:49Z</time>
      </trkpt>
      <trkpt lat="44.08195" lon="7.77007">
        <ele>1312</ele>
        <time>2017-09-17T15:11:50Z</time>
      </trkpt>
      <trkpt lat="44.08197" lon="7.77013">
        <ele>1313</ele>
        <time>2017-09-17T15:11:51Z</time>
      </trkpt>
      <trkpt lat="44.08199" lon="7.77018">
        <ele>1313</ele>
        <time>2017-09-17T15:11:52Z</time>
      </trkpt>
      <trkpt lat="44.08201" lon="7.77024">
        <ele>1314</ele>
        <time>2017-09-17T15:11:53Z</time>
      </trkpt>
      <trkpt lat="44.08203" lon="7.7703">
        <ele>1314</ele>
        <time>2017-09-17T15:11:54Z</time>
      </trkpt>
      <trkpt lat="44.08205" lon="7.77035">
        <ele>1315</ele>
        <time>2017-09-17T15:11:55Z</time>
      </trkpt>
      <trkpt lat="44.08207" lon="7.77041">
        <ele>1316</ele>
        <time>2017-09-17T15:11:56Z</time>
      </trkpt>
      <trkpt lat="44.08209" lon="7.77046">
        <ele>1316</ele>
        <time>2017-09-17T15:11:57Z</time>
      </trkpt>
      <trkpt lat="44.0821" lon="7.77052">
        <ele>1316</ele>
        <time>2017-09-17T15:11:58Z</time>
      </trkpt>
      <trkpt lat="44.08212" lon="7.77057">
        <ele>1317</ele>
        <time>2017-09-17T15:11:59Z</time>
      </trkpt>
      <trkpt lat="44.08214" lon="7.77063">
        <ele>1317</ele>
        <time>2017-09-17T15:12:00Z</time>
      </trkpt>
      <trkpt lat="44.08216" lon="7.77068">
        <ele>1318</ele>
        <time>2017-09-17T15:12:01Z</time>
      </trkpt>
      <trkpt lat="44.08218" lon="7.77074">
        <ele>1318</ele>
        <time>2017-09-17T15:12:02Z</time>
      </trkpt>
      <trkpt lat="44.0822" lon="7.77079">
        <ele>1318</ele>
        <time>2017-09-17T15:12:03Z</time>
      </trkpt>
      <trkpt lat="44.08222" lon="7.77084">
        <ele>1318</ele>
        <time>2017-09-17T15:12:04Z</time>
      </trkpt>
      <trkpt lat="44.08225" lon="7.77088">
        <ele>1319</ele>
        <time>2017-09-17T15:12:05Z</time>
      </trkpt>
      <trkpt lat="44.08229" lon="7.77092">
        <ele>1319</ele>
        <time>2017-09-17T15:12:06Z</time>
      </trkpt>
      <trkpt lat="44.08233" lon="7.77096">
        <ele>1319</ele>
        <time>2017-09-17T15:12:07Z</time>
      </trkpt>
      <trkpt lat="44.08237" lon="7.77098">
        <ele>1319</ele>
        <time>2017-09-17T15:12:08Z</time>
      </trkpt>
      <trkpt lat="44.08241" lon="7.771">
        <ele>1320</ele>
        <time>2017-09-17T15:12:09Z</time>
      </trkpt>
      <trkpt lat="44.08245" lon="7.77101">
        <ele>1320</ele>
        <time>2017-09-17T15:12:10Z</time>
      </trkpt>
      <trkpt lat="44.08249" lon="7.77101">
        <ele>1320</ele>
        <time>2017-09-17T15:12:11Z</time>
      </trkpt>
      <trkpt lat="44.08254" lon="7.771">
        <ele>1320</ele>
        <time>2017-09-17T15:12:12Z</time>
      </trkpt>
      <trkpt lat="44.08258" lon="7.77099">
        <ele>1320</ele>
        <time>2017-09-17T15:12:13Z</time>
      </trkpt>
      <trkpt lat="44.08262" lon="7.77097">
        <ele>1321</ele>
        <time>2017-09-17T15:12:14Z</time>
      </trkpt>
      <trkpt lat="44.08265" lon="7.77095">
        <ele>1321</ele>
        <time>2017-09-17T15:12:15Z</time>
      </trkpt>
      <trkpt lat="44.08269" lon="7.77092">
        <ele>1321</ele>
        <time>2017-09-17T15:12:16Z</time>
      </trkpt>
      <trkpt lat="44.08273" lon="7.77089">
        <ele>1321</ele>
        <time>2017-09-17T15:12:17Z</time>
      </trkpt>
      <trkpt lat="44.08277" lon="7.77086">
        <ele>1321</ele>
        <time>2017-09-17T15:12:18Z</time>
      </trkpt>
      <trkpt lat="44.08281" lon="7.77084">
        <ele>1321</ele>
        <time>2017-09-17T15:12:19Z</time>
      </trkpt>
      <trkpt lat="44.08285" lon="7.77082">
        <ele>1321</ele>
        <time>2017-09-17T15:12:20Z</time>
      </trkpt>
      <trkpt lat="44.08289" lon="7.77081">
        <ele>1322</ele>
        <time>2017-09-17T15:12:21Z</time>
      </trkpt>
      <trkpt lat="44.08294" lon="7.7708">
        <ele>1322</ele>
        <time>2017-09-17T15:12:22Z</time>
      </trkpt>
      <trkpt lat="44.08297" lon="7.7708">
        <ele>1322</ele>
        <time>2017-09-17T15:12:23Z</time>
      </trkpt>
      <trkpt lat="44.08302" lon="7.7708">
        <ele>1322</ele>
        <time>2017-09-17T15:12:24Z</time>
      </trkpt>
      <trkpt lat="44.08306" lon="7.77079">
        <ele>1322</ele>
        <time>2017-09-17T15:12:25Z</time>
      </trkpt>
      <trkpt lat="44.0831" lon="7.77079">
        <ele>1323</ele>
        <time>2017-09-17T15:12:26Z</time>
      </trkpt>
      <trkpt lat="44.08314" lon="7.77079">
        <ele>1323</ele>
        <time>2017-09-17T15:12:27Z</time>
      </trkpt>
      <trkpt lat="44.08318" lon="7.77079">
        <ele>1323</ele>
        <time>2017-09-17T15:12:28Z</time>
      </trkpt>
      <trkpt lat="44.08322" lon="7.77079">
        <ele>1323</ele>
        <time>2017-09-17T15:12:29Z</time>
      </trkpt>
      <trkpt lat="44.08326" lon="7.77079">
        <ele>1324</ele>
        <time>2017-09-17T15:12:30Z</time>
      </trkpt>
      <trkpt lat="44.0833" lon="7.77079">
        <ele>1324</ele>
        <time>2017-09-17T15:12:31Z</time>
      </trkpt>
      <trkpt lat="44.08334" lon="7.77079">
        <ele>1324</ele>
        <time>2017-09-17T15:12:32Z</time>
      </trkpt>
      <trkpt lat="44.08339" lon="7.77079">
        <ele>1324</ele>
        <time>2017-09-17T15:12:33Z</time>
      </trkpt>
      <trkpt lat="44.08343" lon="7.77079">
        <ele>1325</ele>
        <time>2017-09-17T15:12:34Z</time>
      </trkpt>
      <trkpt lat="44.08347" lon="7.77079">
        <ele>1325</ele>
        <time>2017-09-17T15:12:35Z</time>
      </trkpt>
      <trkpt lat="44.08351" lon="7.7708">
        <ele>1325</ele>
        <time>2017-09-17T15:12:36Z</time>
      </trkpt>
      <trkpt lat="44.08355" lon="7.77081">
        <ele>1325</ele>
        <time>2017-09-17T15:12:37Z</time>
      </trkpt>
      <trkpt lat="44.08359" lon="7.77082">
        <ele>1325</ele>
        <time>2017-09-17T15:12:38Z</time>
      </trkpt>
      <trkpt lat="44.08363" lon="7.77085">
        <ele>1326</ele>
        <time>2017-09-17T15:12:39Z</time>
      </trkpt>
      <trkpt lat="44.08367" lon="7.77087">
        <ele>1326</ele>
        <time>2017-09-17T15:12:40Z</time>
      </trkpt>
      <trkpt lat="44.0837" lon="7.7709">
        <ele>1326</ele>
        <time>2017-09-17T15:12:41Z</time>
      </trkpt>
      <trkpt lat="44.08374" lon="7.77093">
        <ele>1326</ele>
        <time>2017-09-17T15:12:42Z</time>
      </trkpt>
      <trkpt lat="44.08378" lon="7.77097">
        <ele>1327</ele>
        <time>2017-09-17T15:12:43Z</time>
      </trkpt>
      <trkpt lat="44.08381" lon="7.77101">
        <ele>1327</ele>
        <time>2017-09-17T15:12:44Z</time>
      </trkpt>
      <trkpt lat="44.08385" lon="7.77105">
        <ele>1327</ele>
        <time>2017-09-17T15:12:45Z</time>
      </trkpt>
      <trkpt lat="44.08388" lon="7.77109">
        <ele>1328</ele>
        <time>2017-09-17T15:12:46Z</time>
      </trkpt>
      <trkpt lat="44.08391" lon="7.77114">
        <ele>1328</ele>
        <time>2017-09-17T15:12:47Z</time>
      </trkpt>
      <trkpt lat="44.08393" lon="7.7712">
        <ele>1328</ele>
        <time>2017-09-17T15:12:48Z</time>
      </trkpt>
      <trkpt lat="44.08394" lon="7.77126">
        <ele>1328</ele>
        <time>2017-09-17T15:12:49Z</time>
      </trkpt>
      <trkpt lat="44.08395" lon="7.77133">
        <ele>1328</ele>
        <time>2017-09-17T15:12:50Z</time>
      </trkpt>
      <trkpt lat="44.08395" lon="7.7714">
        <ele>1328</ele>
        <time>2017-09-17T15:12:51Z</time>
      </trkpt>
      <trkpt lat="44.08396" lon="7.77147">
        <ele>1329</ele>
        <time>2017-09-17T15:12:52Z</time>
      </trkpt>
      <trkpt lat="44.08396" lon="7.77154">
        <ele>1329</ele>
        <time>2017-09-17T15:12:53Z</time>
      </trkpt>
      <trkpt lat="44.08397" lon="7.77162">
        <ele>1329</ele>
        <time>2017-09-17T15:12:54Z</time>
      </trkpt>
      <trkpt lat="44.08399" lon="7.77169">
        <ele>1329</ele>
        <time>2017-09-17T15:12:55Z</time>
      </trkpt>
      <trkpt lat="44.08401" lon="7.77176">
        <ele>1330</ele>
        <time>2017-09-17T15:12:56Z</time>
      </trkpt>
      <trkpt lat="44.08405" lon="7.77183">
        <ele>1330</ele>
        <time>2017-09-17T15:12:57Z</time>
      </trkpt>
      <trkpt lat="44.08409" lon="7.77189">
        <ele>1330</ele>
        <time>2017-09-17T15:12:58Z</time>
      </trkpt>
      <trkpt lat="44.08414" lon="7.77194">
        <ele>1330</ele>
        <time>2017-09-17T15:12:59Z</time>
      </trkpt>
      <trkpt lat="44.08418" lon="7.772">
        <ele>1330</ele>
        <time>2017-09-17T15:13:00Z</time>
      </trkpt>
      <trkpt lat="44.08422" lon="7.77207">
        <ele>1330</ele>
        <time>2017-09-17T15:13:01Z</time>
      </trkpt>
      <trkpt lat="44.08426" lon="7.77214">
        <ele>1331</ele>
        <time>2017-09-17T15:13:02Z</time>
      </trkpt>
      <trkpt lat="44.08429" lon="7.77221">
        <ele>1331</ele>
        <time>2017-09-17T15:13:03Z</time>
      </trkpt>
      <trkpt lat="44.08433" lon="7.77227">
        <ele>1331</ele>
        <time>2017-09-17T15:13:04Z</time>
      </trkpt>
      <trkpt lat="44.08438" lon="7.77234">
        <ele>1331</ele>
        <time>2017-09-17T15:13:05Z</time>
      </trkpt>
      <trkpt lat="44.08442" lon="7.77239">
        <ele>1332</ele>
        <time>2017-09-17T15:13:06Z</time>
      </trkpt>
      <trkpt lat="44.08447" lon="7.77245">
        <ele>1332</ele>
        <time>2017-09-17T15:13:07Z</time>
      </trkpt>
      <trkpt lat="44.08452" lon="7.77249">
        <ele>1332</ele>
        <time>2017-09-17T15:13:08Z</time>
      </trkpt>
      <trkpt lat="44.08457" lon="7.77254">
        <ele>1333</ele>
        <time>2017-09-17T15:13:09Z</time>
      </trkpt>
      <trkpt lat="44.08462" lon="7.77258">
        <ele>1333</ele>
        <time>2017-09-17T15:13:10Z</time>
      </trkpt>
      <trkpt lat="44.08467" lon="7.77263">
        <ele>1333</ele>
        <time>2017-09-17T15:13:11Z</time>
      </trkpt>
      <trkpt lat="44.08472" lon="7.77267">
        <ele>1334</ele>
        <time>2017-09-17T15:13:12Z</time>
      </trkpt>
      <trkpt lat="44.08477" lon="7.77271">
        <ele>1334</ele>
        <time>2017-09-17T15:13:13Z</time>
      </trkpt>
      <trkpt lat="44.08482" lon="7.77275">
        <ele>1334</ele>
        <time>2017-09-17T15:13:14Z</time>
      </trkpt>
      <trkpt lat="44.08487" lon="7.77278">
        <ele>1335</ele>
        <time>2017-09-17T15:13:15Z</time>
      </trkpt>
      <trkpt lat="44.08493" lon="7.77281">
        <ele>1335</ele>
        <time>2017-09-17T15:13:16Z</time>
      </trkpt>
      <trkpt lat="44.08498" lon="7.77283">
        <ele>1335</ele>
        <time>2017-09-17T15:13:17Z</time>
      </trkpt>
      <trkpt lat="44.08504" lon="7.77285">
        <ele>1336</ele>
        <time>2017-09-17T15:13:18Z</time>
      </trkpt>
      <trkpt lat="44.0851" lon="7.77286">
        <ele>1336</ele>
        <time>2017-09-17T15:13:19Z</time>
      </trkpt>
      <trkpt lat="44.08516" lon="7.77287">
        <ele>1336</ele>
        <time>2017-09-17T15:13:20Z</time>
      </trkpt>
      <trkpt lat="44.08523" lon="7.77288">
        <ele>1336</ele>
        <time>2017-09-17T15:13:21Z</time>
      </trkpt>
      <trkpt lat="44.0853" lon="7.77289">
        <ele>1337</ele>
        <time>2017-09-17T15:13:22Z</time>
      </trkpt>
      <trkpt lat="44.08537" lon="7.7729">
        <ele>1337</ele>
        <time>2017-09-17T15:13:23Z</time>
      </trkpt>
      <trkpt lat="44.08545" lon="7.77292">
        <ele>1337</ele>
        <time>2017-09-17T15:13:24Z</time>
      </trkpt>
      <trkpt lat="44.08552" lon="7.77294">
        <ele>1337</ele>
        <time>2017-09-17T15:13:25Z</time>
      </trkpt>
      <trkpt lat="44.08558" lon="7.77299">
        <ele>1337</ele>
        <time>2017-09-17T15:13:26Z</time>
      </trkpt>
      <trkpt lat="44.08564" lon="7.77306">
        <ele>1336</ele>
        <time>2017-09-17T15:13:27Z</time>
      </trkpt>
      <trkpt lat="44.08568" lon="7.77315">
        <ele>1336</ele>
        <time>2017-09-17T15:13:28Z</time>
      </trkpt>
      <trkpt lat="44.08568" lon="7.77324">
        <ele>1335</ele>
        <time>2017-09-17T15:13:29Z</time>
      </trkpt>
      <trkpt lat="44.08564" lon="7.77332">
        <ele>1335</ele>
        <time>2017-09-17T15:13:30Z</time>
      </trkpt>
      <trkpt lat="44.08557" lon="7.77336">
        <ele>1334</ele>
        <time>2017-09-17T15:13:31Z</time>
      </trkpt>
      <trkpt lat="44.08549" lon="7.77339">
        <ele>1333</ele>
        <time>2017-09-17T15:13:32Z</time>
      </trkpt>
      <trkpt lat="44.08541" lon="7.77343">
        <ele>1332</ele>
        <time>2017-09-17T15:13:33Z</time>
      </trkpt>
      <trkpt lat="44.08533" lon="7.77347">
        <ele>1332</ele>
        <time>2017-09-17T15:13:34Z</time>
      </trkpt>
      <trkpt lat="44.08525" lon="7.7735">
        <ele>1331</ele>
        <time>2017-09-17T15:13:35Z</time>
      </trkpt>
      <trkpt lat="44.08516" lon="7.77352">
        <ele>1330</ele>
        <time>2017-09-17T15:13:36Z</time>
      </trkpt>
      <trkpt lat="44.08507" lon="7.77355">
        <ele>1330</ele>
        <time>2017-09-17T15:13:37Z</time>
      </trkpt>
      <trkpt lat="44.08499" lon="7.77361">
        <ele>1329</ele>
        <time>2017-09-17T15:13:38Z</time>
      </trkpt>
      <trkpt lat="44.08492" lon="7.77369">
        <ele>1328</ele>
        <time>2017-09-17T15:13:39Z</time>
      </trkpt>
      <trkpt lat="44.08486" lon="7.77379">
        <ele>1327</ele>
        <time>2017-09-17T15:13:40Z</time>
      </trkpt>
      <trkpt lat="44.08481" lon="7.77391">
        <ele>1326</ele>
        <time>2017-09-17T15:13:41Z</time>
      </trkpt>
      <trkpt lat="44.08476" lon="7.77403">
        <ele>1325</ele>
        <time>2017-09-17T15:13:42Z</time>
      </trkpt>
      <trkpt lat="44.0847" lon="7.77414">
        <ele>1324</ele>
        <time>2017-09-17T15:13:43Z</time>
      </trkpt>
      <trkpt lat="44.08463" lon="7.77426">
        <ele>1323</ele>
        <time>2017-09-17T15:13:44Z</time>
      </trkpt>
      <trkpt lat="44.08456" lon="7.77436">
        <ele>1322</ele>
        <time>2017-09-17T15:13:45Z</time>
      </trkpt>
      <trkpt lat="44.08448" lon="7.77446">
        <ele>1322</ele>
        <time>2017-09-17T15:13:46Z</time>
      </trkpt>
      <trkpt lat="44.08439" lon="7.77457">
        <ele>1321</ele>
        <time>2017-09-17T15:13:47Z</time>
      </trkpt>
      <trkpt lat="44.08432" lon="7.77468">
        <ele>1320</ele>
        <time>2017-09-17T15:13:48Z</time>
      </trkpt>
      <trkpt lat="44.08425" lon="7.77481">
        <ele>1320</ele>
        <time>2017-09-17T15:13:49Z</time>
      </trkpt>
      <trkpt lat="44.0842" lon="7.77494">
        <ele>1319</ele>
        <time>2017-09-17T15:13:50Z</time>
      </trkpt>
      <trkpt lat="44.08419" lon="7.77509">
        <ele>1318</ele>
        <time>2017-09-17T15:13:51Z</time>
      </trkpt>
      <trkpt lat="44.08418" lon="7.77522">
        <ele>1318</ele>
        <time>2017-09-17T15:13:52Z</time>
      </trkpt>
      <trkpt lat="44.08419" lon="7.77535">
        <ele>1318</ele>
        <time>2017-09-17T15:13:53Z</time>
      </trkpt>
      <trkpt lat="44.0842" lon="7.77548">
        <ele>1318</ele>
        <time>2017-09-17T15:13:54Z</time>
      </trkpt>
      <trkpt lat="44.08421" lon="7.7756">
        <ele>1317</ele>
        <time>2017-09-17T15:13:55Z</time>
      </trkpt>
      <trkpt lat="44.08422" lon="7.77572">
        <ele>1317</ele>
        <time>2017-09-17T15:13:56Z</time>
      </trkpt>
      <trkpt lat="44.08422" lon="7.77584">
        <ele>1317</ele>
        <time>2017-09-17T15:13:57Z</time>
      </trkpt>
      <trkpt lat="44.08421" lon="7.77596">
        <ele>1316</ele>
        <time>2017-09-17T15:13:58Z</time>
      </trkpt>
      <trkpt lat="44.0842" lon="7.77608">
        <ele>1316</ele>
        <time>2017-09-17T15:13:59Z</time>
      </trkpt>
      <trkpt lat="44.0842" lon="7.7762">
        <ele>1316</ele>
        <time>2017-09-17T15:14:00Z</time>
      </trkpt>
      <trkpt lat="44.08422" lon="7.77631">
        <ele>1315</ele>
        <time>2017-09-17T15:14:01Z</time>
      </trkpt>
      <trkpt lat="44.08426" lon="7.7764">
        <ele>1315</ele>
        <time>2017-09-17T15:14:02Z</time>
      </trkpt>
      <trkpt lat="44.08434" lon="7.77646">
        <ele>1315</ele>
        <time>2017-09-17T15:14:03Z</time>
      </trkpt>
      <trkpt lat="44.08441" lon="7.77652">
        <ele>1315</ele>
        <time>2017-09-17T15:14:04Z</time>
      </trkpt>
      <trkpt lat="44.0845" lon="7.77657">
        <ele>1314</ele>
        <time>2017-09-17T15:14:05Z</time>
      </trkpt>
      <trkpt lat="44.08458" lon="7.77663">
        <ele>1314</ele>
        <time>2017-09-17T15:14:06Z</time>
      </trkpt>
      <trkpt lat="44.08466" lon="7.77669">
        <ele>1314</ele>
        <time>2017-09-17T15:14:07Z</time>
      </trkpt>
      <trkpt lat="44.08473" lon="7.77677">
        <ele>1313</ele>
        <time>2017-09-17T15:14:08Z</time>
      </trkpt>
      <trkpt lat="44.0848" lon="7.77686">
        <ele>1313</ele>
        <time>2017-09-17T15:14:09Z</time>
      </trkpt>
      <trkpt lat="44.08487" lon="7.77695">
        <ele>1312</ele>
        <time>2017-09-17T15:14:10Z</time>
      </trkpt>
      <trkpt lat="44.08495" lon="7.77705">
        <ele>1312</ele>
        <time>2017-09-17T15:14:11Z</time>
      </trkpt>
      <trkpt lat="44.08502" lon="7.77716">
        <ele>1311</ele>
        <time>2017-09-17T15:14:12Z</time>
      </trkpt>
      <trkpt lat="44.0851" lon="7.77728">
        <ele>1310</ele>
        <time>2017-09-17T15:14:13Z</time>
      </trkpt>
      <trkpt lat="44.08517" lon="7.77739">
        <ele>1309</ele>
        <time>2017-09-17T15:14:14Z</time>
      </trkpt>
      <trkpt lat="44.08524" lon="7.77751">
        <ele>1309</ele>
        <time>2017-09-17T15:14:15Z</time>
      </trkpt>
      <trkpt lat="44.08531" lon="7.77763">
        <ele>1308</ele>
        <time>2017-09-17T15:14:16Z</time>
      </trkpt>
      <trkpt lat="44.08538" lon="7.77774">
        <ele>1308</ele>
        <time>2017-09-17T15:14:17Z</time>
      </trkpt>
      <trkpt lat="44.08544" lon="7.77785">
        <ele>1307</ele>
        <time>2017-09-17T15:14:18Z</time>
      </trkpt>
      <trkpt lat="44.08549" lon="7.77797">
        <ele>1307</ele>
        <time>2017-09-17T15:14:19Z</time>
      </trkpt>
      <trkpt lat="44.08554" lon="7.77808">
        <ele>1307</ele>
        <time>2017-09-17T15:14:20Z</time>
      </trkpt>
      <trkpt lat="44.08557" lon="7.77819">
        <ele>1306</ele>
        <time>2017-09-17T15:14:21Z</time>
      </trkpt>
      <trkpt lat="44.08561" lon="7.7783">
        <ele>1306</ele>
        <time>2017-09-17T15:14:22Z</time>
      </trkpt>
      <trkpt lat="44.08563" lon="7.77842">
        <ele>1305</ele>
        <time>2017-09-17T15:14:23Z</time>
      </trkpt>
      <trkpt lat="44.08564" lon="7.77854">
        <ele>1305</ele>
        <time>2017-09-17T15:14:24Z</time>
      </trkpt>
      <trkpt lat="44.08562" lon="7.77864">
        <ele>1304</ele>
        <time>2017-09-17T15:14:25Z</time>
      </trkpt>
      <trkpt lat="44.08556" lon="7.77872">
        <ele>1303</ele>
        <time>2017-09-17T15:14:26Z</time>
      </trkpt>
      <trkpt lat="44.08548" lon="7.77877">
        <ele>1303</ele>
        <time>2017-09-17T15:14:27Z</time>
      </trkpt>
      <trkpt lat="44.0854" lon="7.77882">
        <ele>1302</ele>
        <time>2017-09-17T15:14:28Z</time>
      </trkpt>
      <trkpt lat="44.08533" lon="7.7789">
        <ele>1302</ele>
        <time>2017-09-17T15:14:29Z</time>
      </trkpt>
      <trkpt lat="44.08527" lon="7.77898">
        <ele>1301</ele>
        <time>2017-09-17T15:14:30Z</time>
      </trkpt>
      <trkpt lat="44.08523" lon="7.77907">
        <ele>1301</ele>
        <time>2017-09-17T15:14:31Z</time>
      </trkpt>
      <trkpt lat="44.08521" lon="7.77918">
        <ele>1301</ele>
        <time>2017-09-17T15:14:32Z</time>
      </trkpt>
      <trkpt lat="44.08523" lon="7.77929">
        <ele>1300</ele>
        <time>2017-09-17T15:14:33Z</time>
      </trkpt>
      <trkpt lat="44.08527" lon="7.77939">
        <ele>1300</ele>
        <time>2017-09-17T15:14:34Z</time>
      </trkpt>
      <trkpt lat="44.08532" lon="7.77949">
        <ele>1300</ele>
        <time>2017-09-17T15:14:35Z</time>
      </trkpt>
      <trkpt lat="44.08537" lon="7.77958">
        <ele>1300</ele>
        <time>2017-09-17T15:14:36Z</time>
      </trkpt>
      <trkpt lat="44.08542" lon="7.77967">
        <ele>1300</ele>
        <time>2017-09-17T15:14:37Z</time>
      </trkpt>
      <trkpt lat="44.08547" lon="7.77975">
        <ele>1300</ele>
        <time>2017-09-17T15:14:38Z</time>
      </trkpt>
      <trkpt lat="44.08552" lon="7.77984">
        <ele>1299</ele>
        <time>2017-09-17T15:14:39Z</time>
      </trkpt>
      <trkpt lat="44.08556" lon="7.77992">
        <ele>1299</ele>
        <time>2017-09-17T15:14:40Z</time>
      </trkpt>
      <trkpt lat="44.0856" lon="7.78001">
        <ele>1299</ele>
        <time>2017-09-17T15:14:41Z</time>
      </trkpt>
      <trkpt lat="44.08565" lon="7.78011">
        <ele>1299</ele>
        <time>2017-09-17T15:14:42Z</time>
      </trkpt>
      <trkpt lat="44.08568" lon="7.7802">
        <ele>1299</ele>
        <time>2017-09-17T15:14:43Z</time>
      </trkpt>
      <trkpt lat="44.08573" lon="7.78029">
        <ele>1299</ele>
        <time>2017-09-17T15:14:44Z</time>
      </trkpt>
      <trkpt lat="44.08577" lon="7.78038">
        <ele>1299</ele>
        <time>2017-09-17T15:14:45Z</time>
      </trkpt>
      <trkpt lat="44.08581" lon="7.78048">
        <ele>1299</ele>
        <time>2017-09-17T15:14:46Z</time>
      </trkpt>
      <trkpt lat="44.08585" lon="7.78057">
        <ele>1298</ele>
        <time>2017-09-17T15:14:47Z</time>
      </trkpt>
      <trkpt lat="44.0859" lon="7.78066">
        <ele>1298</ele>
        <time>2017-09-17T15:14:48Z</time>
      </trkpt>
      <trkpt lat="44.08594" lon="7.78076">
        <ele>1298</ele>
        <time>2017-09-17T15:14:49Z</time>
      </trkpt>
      <trkpt lat="44.08597" lon="7.78087">
        <ele>1297</ele>
        <time>2017-09-17T15:14:50Z</time>
      </trkpt>
      <trkpt lat="44.08597" lon="7.78098">
        <ele>1297</ele>
        <time>2017-09-17T15:14:51Z</time>
      </trkpt>
      <trkpt lat="44.08594" lon="7.78108">
        <ele>1296</ele>
        <time>2017-09-17T15:14:52Z</time>
      </trkpt>
      <trkpt lat="44.08588" lon="7.78118">
        <ele>1295</ele>
        <time>2017-09-17T15:14:53Z</time>
      </trkpt>
      <trkpt lat="44.08581" lon="7.78128">
        <ele>1295</ele>
        <time>2017-09-17T15:14:54Z</time>
      </trkpt>
      <trkpt lat="44.08574" lon="7.78139">
        <ele>1294</ele>
        <time>2017-09-17T15:14:55Z</time>
      </trkpt>
      <trkpt lat="44.08567" lon="7.78151">
        <ele>1293</ele>
        <time>2017-09-17T15:14:56Z</time>
      </trkpt>
      <trkpt lat="44.08561" lon="7.78164">
        <ele>1292</ele>
        <time>2017-09-17T15:14:57Z</time>
      </trkpt>
      <trkpt lat="44.08557" lon="7.78178">
        <ele>1290</ele>
        <time>2017-09-17T15:14:58Z</time>
      </trkpt>
      <trkpt lat="44.08556" lon="7.78194">
        <ele>1289</ele>
        <time>2017-09-17T15:14:59Z</time>
      </trkpt>
      <trkpt lat="44.08556" lon="7.78209">
        <ele>1288</ele>
        <time>2017-09-17T15:15:00Z</time>
      </trkpt>
      <trkpt lat="44.08559" lon="7.78224">
        <ele>1287</ele>
        <time>2017-09-17T15:15:01Z</time>
      </trkpt>
      <trkpt lat="44.08561" lon="7.7824">
        <ele>1286</ele>
        <time>2017-09-17T15:15:02Z</time>
      </trkpt>
      <trkpt lat="44.08564" lon="7.78256">
        <ele>1285</ele>
        <time>2017-09-17T15:15:03Z</time>
      </trkpt>
      <trkpt lat="44.08565" lon="7.78272">
        <ele>1283</ele>
        <time>2017-09-17T15:15:04Z</time>
      </trkpt>
      <trkpt lat="44.08566" lon="7.78288">
        <ele>1282</ele>
        <time>2017-09-17T15:15:05Z</time>
      </trkpt>
      <trkpt lat="44.08564" lon="7.78304">
        <ele>1280</ele>
        <time>2017-09-17T15:15:06Z</time>
      </trkpt>
      <trkpt lat="44.08561" lon="7.78318">
        <ele>1278</ele>
        <time>2017-09-17T15:15:07Z</time>
      </trkpt>
      <trkpt lat="44.08556" lon="7.78332">
        <ele>1277</ele>
        <time>2017-09-17T15:15:08Z</time>
      </trkpt>
      <trkpt lat="44.08549" lon="7.78343">
        <ele>1275</ele>
        <time>2017-09-17T15:15:09Z</time>
      </trkpt>
      <trkpt lat="44.08541" lon="7.7835">
        <ele>1274</ele>
        <time>2017-09-17T15:15:10Z</time>
      </trkpt>
      <trkpt lat="44.08531" lon="7.78355">
        <ele>1273</ele>
        <time>2017-09-17T15:15:11Z</time>
      </trkpt>
      <trkpt lat="44.08521" lon="7.78361">
        <ele>1272</ele>
        <time>2017-09-17T15:15:12Z</time>
      </trkpt>
      <trkpt lat="44.08512" lon="7.78368">
        <ele>1271</ele>
        <time>2017-09-17T15:15:13Z</time>
      </trkpt>
      <trkpt lat="44.08505" lon="7.78376">
        <ele>1271</ele>
        <time>2017-09-17T15:15:14Z</time>
      </trkpt>
      <trkpt lat="44.08498" lon="7.78385">
        <ele>1270</ele>
        <time>2017-09-17T15:15:15Z</time>
      </trkpt>
      <trkpt lat="44.08494" lon="7.78394">
        <ele>1270</ele>
        <time>2017-09-17T15:15:16Z</time>
      </trkpt>
      <trkpt lat="44.0849" lon="7.78403">
        <ele>1269</ele>
        <time>2017-09-17T15:15:17Z</time>
      </trkpt>
      <trkpt lat="44.08489" lon="7.78411">
        <ele>1269</ele>
        <time>2017-09-17T15:15:18Z</time>
      </trkpt>
      <trkpt lat="44.08486" lon="7.78417">
        <ele>1269</ele>
        <time>2017-09-17T15:15:19Z</time>
      </trkpt>
      <trkpt lat="44.08484" lon="7.78421">
        <ele>1269</ele>
        <time>2017-09-17T15:15:20Z</time>
      </trkpt>
      <trkpt lat="44.08482" lon="7.78424">
        <ele>1269</ele>
        <time>2017-09-17T15:15:21Z</time>
      </trkpt>
      <trkpt lat="44.08479" lon="7.78426">
        <ele>1268</ele>
        <time>2017-09-17T15:15:22Z</time>
      </trkpt>
      <trkpt lat="44.08477" lon="7.78426">
        <ele>1268</ele>
        <time>2017-09-17T15:15:23Z</time>
      </trkpt>
      <trkpt lat="44.08474" lon="7.78425">
        <ele>1268</ele>
        <time>2017-09-17T15:15:24Z</time>
      </trkpt>
      <trkpt lat="44.08471" lon="7.78424">
        <ele>1268</ele>
        <time>2017-09-17T15:15:25Z</time>
      </trkpt>
      <trkpt lat="44.08469" lon="7.78423">
        <ele>1267</ele>
        <time>2017-09-17T15:15:26Z</time>
      </trkpt>
      <trkpt lat="44.08467" lon="7.78421">
        <ele>1267</ele>
        <time>2017-09-17T15:15:27Z</time>
      </trkpt>
      <trkpt lat="44.08465" lon="7.7842">
        <ele>1267</ele>
        <time>2017-09-17T15:15:28Z</time>
      </trkpt>
      <trkpt lat="44.08463" lon="7.78417">
        <ele>1267</ele>
        <time>2017-09-17T15:15:29Z</time>
      </trkpt>
      <trkpt lat="44.08461" lon="7.78415">
        <ele>1267</ele>
        <time>2017-09-17T15:15:30Z</time>
      </trkpt>
      <trkpt lat="44.08459" lon="7.78412">
        <ele>1267</ele>
        <time>2017-09-17T15:15:31Z</time>
      </trkpt>
      <trkpt lat="44.08457" lon="7.78408">
        <ele>1267</ele>
        <time>2017-09-17T15:15:32Z</time>
      </trkpt>
      <trkpt lat="44.08456" lon="7.78403">
        <ele>1267</ele>
        <time>2017-09-17T15:15:33Z</time>
      </trkpt>
      <trkpt lat="44.08454" lon="7.78398">
        <ele>1267</ele>
        <time>2017-09-17T15:15:34Z</time>
      </trkpt>
      <trkpt lat="44.08453" lon="7.78393">
        <ele>1267</ele>
        <time>2017-09-17T15:15:35Z</time>
      </trkpt>
      <trkpt lat="44.08452" lon="7.78388">
        <ele>1267</ele>
        <time>2017-09-17T15:15:36Z</time>
      </trkpt>
      <trkpt lat="44.08451" lon="7.78383">
        <ele>1267</ele>
        <time>2017-09-17T15:15:37Z</time>
      </trkpt>
      <trkpt lat="44.0845" lon="7.78378">
        <ele>1267</ele>
        <time>2017-09-17T15:15:38Z</time>
      </trkpt>
      <trkpt lat="44.08449" lon="7.78374">
        <ele>1267</ele>
        <time>2017-09-17T15:15:39Z</time>
      </trkpt>
      <trkpt lat="44.08449" lon="7.78369">
        <ele>1267</ele>
        <time>2017-09-17T15:15:40Z</time>
      </trkpt>
      <trkpt lat="44.08448" lon="7.78364">
        <ele>1266</ele>
        <time>2017-09-17T15:15:41Z</time>
      </trkpt>
      <trkpt lat="44.08447" lon="7.78359">
        <ele>1266</ele>
        <time>2017-09-17T15:15:42Z</time>
      </trkpt>
      <trkpt lat="44.08446" lon="7.78354">
        <ele>1266</ele>
        <time>2017-09-17T15:15:43Z</time>
      </trkpt>
      <trkpt lat="44.08445" lon="7.78348">
        <ele>1266</ele>
        <time>2017-09-17T15:15:44Z</time>
      </trkpt>
      <trkpt lat="44.08444" lon="7.78343">
        <ele>1266</ele>
        <time>2017-09-17T15:15:45Z</time>
      </trkpt>
      <trkpt lat="44.08443" lon="7.78338">
        <ele>1266</ele>
        <time>2017-09-17T15:15:46Z</time>
      </trkpt>
      <trkpt lat="44.08441" lon="7.78333">
        <ele>1266</ele>
        <time>2017-09-17T15:15:47Z</time>
      </trkpt>
      <trkpt lat="44.0844" lon="7.78327">
        <ele>1266</ele>
        <time>2017-09-17T15:15:48Z</time>
      </trkpt>
      <trkpt lat="44.08439" lon="7.78322">
        <ele>1266</ele>
        <time>2017-09-17T15:15:49Z</time>
      </trkpt>
      <trkpt lat="44.08437" lon="7.78318">
        <ele>1266</ele>
        <time>2017-09-17T15:15:50Z</time>
      </trkpt>
      <trkpt lat="44.08436" lon="7.78313">
        <ele>1266</ele>
        <time>2017-09-17T15:15:51Z</time>
      </trkpt>
      <trkpt lat="44.08434" lon="7.78308">
        <ele>1267</ele>
        <time>2017-09-17T15:15:52Z</time>
      </trkpt>
      <trkpt lat="44.08433" lon="7.78303">
        <ele>1267</ele>
        <time>2017-09-17T15:15:53Z</time>
      </trkpt>
      <trkpt lat="44.08431" lon="7.78298">
        <ele>1267</ele>
        <time>2017-09-17T15:15:54Z</time>
      </trkpt>
      <trkpt lat="44.08429" lon="7.78294">
        <ele>1267</ele>
        <time>2017-09-17T15:15:55Z</time>
      </trkpt>
      <trkpt lat="44.08428" lon="7.7829">
        <ele>1267</ele>
        <time>2017-09-17T15:15:56Z</time>
      </trkpt>
      <trkpt lat="44.08426" lon="7.78285">
        <ele>1267</ele>
        <time>2017-09-17T15:15:57Z</time>
      </trkpt>
      <trkpt lat="44.08424" lon="7.78281">
        <ele>1268</ele>
        <time>2017-09-17T15:15:58Z</time>
      </trkpt>
      <trkpt lat="44.08423" lon="7.78276">
        <ele>1268</ele>
        <time>2017-09-17T15:15:59Z</time>
      </trkpt>
      <trkpt lat="44.08421" lon="7.78272">
        <ele>1268</ele>
        <time>2017-09-17T15:16:00Z</time>
      </trkpt>
      <trkpt lat="44.0842" lon="7.78267">
        <ele>1268</ele>
        <time>2017-09-17T15:16:01Z</time>
      </trkpt>
      <trkpt lat="44.08419" lon="7.78262">
        <ele>1268</ele>
        <time>2017-09-17T15:16:02Z</time>
      </trkpt>
      <trkpt lat="44.08417" lon="7.78258">
        <ele>1269</ele>
        <time>2017-09-17T15:16:03Z</time>
      </trkpt>
      <trkpt lat="44.08416" lon="7.78253">
        <ele>1269</ele>
        <time>2017-09-17T15:16:04Z</time>
      </trkpt>
      <trkpt lat="44.08415" lon="7.78248">
        <ele>1269</ele>
        <time>2017-09-17T15:16:05Z</time>
      </trkpt>
      <trkpt lat="44.08415" lon="7.78243">
        <ele>1269</ele>
        <time>2017-09-17T15:16:06Z</time>
      </trkpt>
      <trkpt lat="44.08415" lon="7.78238">
        <ele>1269</ele>
        <time>2017-09-17T15:16:07Z</time>
      </trkpt>
      <trkpt lat="44.08415" lon="7.78233">
        <ele>1270</ele>
        <time>2017-09-17T15:16:08Z</time>
      </trkpt>
      <trkpt lat="44.08414" lon="7.78228">
        <ele>1270</ele>
        <time>2017-09-17T15:16:09Z</time>
      </trkpt>
      <trkpt lat="44.08414" lon="7.78222">
        <ele>1270</ele>
        <time>2017-09-17T15:16:10Z</time>
      </trkpt>
      <trkpt lat="44.08413" lon="7.78217">
        <ele>1271</ele>
        <time>2017-09-17T15:16:11Z</time>
      </trkpt>
      <trkpt lat="44.08412" lon="7.78213">
        <ele>1271</ele>
        <time>2017-09-17T15:16:12Z</time>
      </trkpt>
      <trkpt lat="44.0841" lon="7.78208">
        <ele>1271</ele>
        <time>2017-09-17T15:16:13Z</time>
      </trkpt>
      <trkpt lat="44.08408" lon="7.78204">
        <ele>1271</ele>
        <time>2017-09-17T15:16:14Z</time>
      </trkpt>
      <trkpt lat="44.08407" lon="7.78199">
        <ele>1272</ele>
        <time>2017-09-17T15:16:15Z</time>
      </trkpt>
      <trkpt lat="44.08406" lon="7.78194">
        <ele>1272</ele>
        <time>2017-09-17T15:16:16Z</time>
      </trkpt>
      <trkpt lat="44.08405" lon="7.78189">
        <ele>1272</ele>
        <time>2017-09-17T15:16:17Z</time>
      </trkpt>
      <trkpt lat="44.08405" lon="7.78184">
        <ele>1272</ele>
        <time>2017-09-17T15:16:18Z</time>
      </trkpt>
      <trkpt lat="44.08404" lon="7.7818">
        <ele>1273</ele>
        <time>2017-09-17T15:16:19Z</time>
      </trkpt>
      <trkpt lat="44.08402" lon="7.78175">
        <ele>1273</ele>
        <time>2017-09-17T15:16:20Z</time>
      </trkpt>
      <trkpt lat="44.08401" lon="7.7817">
        <ele>1274</ele>
        <time>2017-09-17T15:16:21Z</time>
      </trkpt>
      <trkpt lat="44.08398" lon="7.78166">
        <ele>1274</ele>
        <time>2017-09-17T15:16:22Z</time>
      </trkpt>
      <trkpt lat="44.08395" lon="7.78163">
        <ele>1274</ele>
        <time>2017-09-17T15:16:23Z</time>
      </trkpt>
      <trkpt lat="44.08391" lon="7.78161">
        <ele>1275</ele>
        <time>2017-09-17T15:16:24Z</time>
      </trkpt>
      <trkpt lat="44.08387" lon="7.78161">
        <ele>1275</ele>
        <time>2017-09-17T15:16:25Z</time>
      </trkpt>
      <trkpt lat="44.08383" lon="7.78161">
        <ele>1276</ele>
        <time>2017-09-17T15:16:26Z</time>
      </trkpt>
      <trkpt lat="44.08379" lon="7.78162">
        <ele>1276</ele>
        <time>2017-09-17T15:16:27Z</time>
      </trkpt>
      <trkpt lat="44.08376" lon="7.78163">
        <ele>1277</ele>
        <time>2017-09-17T15:16:28Z</time>
      </trkpt>
      <trkpt lat="44.08372" lon="7.78164">
        <ele>1277</ele>
        <time>2017-09-17T15:16:29Z</time>
      </trkpt>
      <trkpt lat="44.08368" lon="7.78165">
        <ele>1278</ele>
        <time>2017-09-17T15:16:30Z</time>
      </trkpt>
      <trkpt lat="44.08364" lon="7.78166">
        <ele>1278</ele>
        <time>2017-09-17T15:16:31Z</time>
      </trkpt>
      <trkpt lat="44.08361" lon="7.78166">
        <ele>1279</ele>
        <time>2017-09-17T15:16:32Z</time>
      </trkpt>
      <trkpt lat="44.08357" lon="7.78166">
        <ele>1279</ele>
        <time>2017-09-17T15:16:33Z</time>
      </trkpt>
      <trkpt lat="44.08353" lon="7.78165">
        <ele>1280</ele>
        <time>2017-09-17T15:16:34Z</time>
      </trkpt>
      <trkpt lat="44.0835" lon="7.78163">
        <ele>1280</ele>
        <time>2017-09-17T15:16:35Z</time>
      </trkpt>
      <trkpt lat="44.08348" lon="7.7816">
        <ele>1281</ele>
        <time>2017-09-17T15:16:36Z</time>
      </trkpt>
      <trkpt lat="44.08345" lon="7.78156">
        <ele>1281</ele>
        <time>2017-09-17T15:16:37Z</time>
      </trkpt>
      <trkpt lat="44.08344" lon="7.78152">
        <ele>1282</ele>
        <time>2017-09-17T15:16:38Z</time>
      </trkpt>
      <trkpt lat="44.08342" lon="7.78148">
        <ele>1282</ele>
        <time>2017-09-17T15:16:39Z</time>
      </trkpt>
      <trkpt lat="44.08339" lon="7.78145">
        <ele>1282</ele>
        <time>2017-09-17T15:16:40Z</time>
      </trkpt>
      <trkpt lat="44.08336" lon="7.78142">
        <ele>1283</ele>
        <time>2017-09-17T15:16:41Z</time>
      </trkpt>
      <trkpt lat="44.08333" lon="7.78141">
        <ele>1283</ele>
        <time>2017-09-17T15:16:42Z</time>
      </trkpt>
      <trkpt lat="44.0833" lon="7.78139">
        <ele>1283</ele>
        <time>2017-09-17T15:16:43Z</time>
      </trkpt>
      <trkpt lat="44.08327" lon="7.78138">
        <ele>1284</ele>
        <time>2017-09-17T15:16:44Z</time>
      </trkpt>
      <trkpt lat="44.08324" lon="7.78137">
        <ele>1284</ele>
        <time>2017-09-17T15:16:45Z</time>
      </trkpt>
      <trkpt lat="44.08321" lon="7.78136">
        <ele>1285</ele>
        <time>2017-09-17T15:16:46Z</time>
      </trkpt>
      <trkpt lat="44.08318" lon="7.78135">
        <ele>1285</ele>
        <time>2017-09-17T15:16:47Z</time>
      </trkpt>
      <trkpt lat="44.08315" lon="7.78134">
        <ele>1286</ele>
        <time>2017-09-17T15:16:48Z</time>
      </trkpt>
      <trkpt lat="44.08312" lon="7.78133">
        <ele>1287</ele>
        <time>2017-09-17T15:16:49Z</time>
      </trkpt>
      <trkpt lat="44.08308" lon="7.78134">
        <ele>1287</ele>
        <time>2017-09-17T15:16:50Z</time>
      </trkpt>
      <trkpt lat="44.08305" lon="7.78135">
        <ele>1288</ele>
        <time>2017-09-17T15:16:51Z</time>
      </trkpt>
      <trkpt lat="44.08303" lon="7.78137">
        <ele>1288</ele>
        <time>2017-09-17T15:16:52Z</time>
      </trkpt>
      <trkpt lat="44.083" lon="7.78139">
        <ele>1289</ele>
        <time>2017-09-17T15:16:53Z</time>
      </trkpt>
      <trkpt lat="44.08298" lon="7.78142">
        <ele>1289</ele>
        <time>2017-09-17T15:16:54Z</time>
      </trkpt>
      <trkpt lat="44.08295" lon="7.78145">
        <ele>1290</ele>
        <time>2017-09-17T15:16:55Z</time>
      </trkpt>
      <trkpt lat="44.08293" lon="7.78149">
        <ele>1291</ele>
        <time>2017-09-17T15:16:56Z</time>
      </trkpt>
      <trkpt lat="44.0829" lon="7.78152">
        <ele>1291</ele>
        <time>2017-09-17T15:16:57Z</time>
      </trkpt>
      <trkpt lat="44.08288" lon="7.78156">
        <ele>1292</ele>
        <time>2017-09-17T15:16:58Z</time>
      </trkpt>
      <trkpt lat="44.08285" lon="7.78159">
        <ele>1292</ele>
        <time>2017-09-17T15:16:59Z</time>
      </trkpt>
      <trkpt lat="44.08283" lon="7.78162">
        <ele>1293</ele>
        <time>2017-09-17T15:17:00Z</time>
      </trkpt>
      <trkpt lat="44.0828" lon="7.78164">
        <ele>1293</ele>
        <time>2017-09-17T15:17:01Z</time>
      </trkpt>
      <trkpt lat="44.08277" lon="7.78167">
        <ele>1293</ele>
        <time>2017-09-17T15:17:02Z</time>
      </trkpt>
      <trkpt lat="44.08274" lon="7.78169">
        <ele>1294</ele>
        <time>2017-09-17T15:17:03Z</time>
      </trkpt>
      <trkpt lat="44.08271" lon="7.78171">
        <ele>1294</ele>
        <time>2017-09-17T15:17:04Z</time>
      </trkpt>
      <trkpt lat="44.08269" lon="7.78174">
        <ele>1294</ele>
        <time>2017-09-17T15:17:05Z</time>
      </trkpt>
      <trkpt lat="44.08266" lon="7.78177">
        <ele>1295</ele>
        <time>2017-09-17T15:17:06Z</time>
      </trkpt>
      <trkpt lat="44.08263" lon="7.7818">
        <ele>1295</ele>
        <time>2017-09-17T15:17:07Z</time>
      </trkpt>
      <trkpt lat="44.08261" lon="7.78183">
        <ele>1295</ele>
        <time>2017-09-17T15:17:08Z</time>
      </trkpt>
      <trkpt lat="44.08258" lon="7.78187">
        <ele>1296</ele>
        <time>2017-09-17T15:17:09Z</time>
      </trkpt>
      <trkpt lat="44.08256" lon="7.78191">
        <ele>1296</ele>
        <time>2017-09-17T15:17:10Z</time>
      </trkpt>
      <trkpt lat="44.08254" lon="7.78194">
        <ele>1296</ele>
        <time>2017-09-17T15:17:11Z</time>
      </trkpt>
      <trkpt lat="44.08252" lon="7.78198">
        <ele>1296</ele>
        <time>2017-09-17T15:17:12Z</time>
      </trkpt>
      <trkpt lat="44.0825" lon="7.78201">
        <ele>1296</ele>
        <time>2017-09-17T15:17:13Z</time>
      </trkpt>
      <trkpt lat="44.08247" lon="7.78204">
        <ele>1297</ele>
        <time>2017-09-17T15:17:14Z</time>
      </trkpt>
      <trkpt lat="44.08245" lon="7.78206">
        <ele>1297</ele>
        <time>2017-09-17T15:17:15Z</time>
      </trkpt>
      <trkpt lat="44.08242" lon="7.78207">
        <ele>1297</ele>
        <time>2017-09-17T15:17:16Z</time>
      </trkpt>
      <trkpt lat="44.08239" lon="7.78208">
        <ele>1298</ele>
        <time>2017-09-17T15:17:17Z</time>
      </trkpt>
      <trkpt lat="44.08235" lon="7.78208">
        <ele>1298</ele>
        <time>2017-09-17T15:17:18Z</time>
      </trkpt>
      <trkpt lat="44.08232" lon="7.78209">
        <ele>1298</ele>
        <time>2017-09-17T15:17:19Z</time>
      </trkpt>
      <trkpt lat="44.08228" lon="7.78209">
        <ele>1298</ele>
        <time>2017-09-17T15:17:20Z</time>
      </trkpt>
      <trkpt lat="44.08225" lon="7.78209">
        <ele>1298</ele>
        <time>2017-09-17T15:17:21Z</time>
      </trkpt>
      <trkpt lat="44.08221" lon="7.78209">
        <ele>1299</ele>
        <time>2017-09-17T15:17:22Z</time>
      </trkpt>
      <trkpt lat="44.08217" lon="7.78209">
        <ele>1299</ele>
        <time>2017-09-17T15:17:23Z</time>
      </trkpt>
      <trkpt lat="44.08214" lon="7.7821">
        <ele>1299</ele>
        <time>2017-09-17T15:17:24Z</time>
      </trkpt>
      <trkpt lat="44.0821" lon="7.78211">
        <ele>1300</ele>
        <time>2017-09-17T15:17:25Z</time>
      </trkpt>
      <trkpt lat="44.08207" lon="7.78212">
        <ele>1300</ele>
        <time>2017-09-17T15:17:26Z</time>
      </trkpt>
      <trkpt lat="44.08203" lon="7.78213">
        <ele>1301</ele>
        <time>2017-09-17T15:17:27Z</time>
      </trkpt>
      <trkpt lat="44.08199" lon="7.78214">
        <ele>1301</ele>
        <time>2017-09-17T15:17:28Z</time>
      </trkpt>
      <trkpt lat="44.08195" lon="7.78214">
        <ele>1301</ele>
        <time>2017-09-17T15:17:29Z</time>
      </trkpt>
      <trkpt lat="44.08191" lon="7.78215">
        <ele>1302</ele>
        <time>2017-09-17T15:17:30Z</time>
      </trkpt>
      <trkpt lat="44.08187" lon="7.78216">
        <ele>1302</ele>
        <time>2017-09-17T15:17:31Z</time>
      </trkpt>
      <trkpt lat="44.08183" lon="7.78216">
        <ele>1303</ele>
        <time>2017-09-17T15:17:32Z</time>
      </trkpt>
      <trkpt lat="44.0818" lon="7.78217">
        <ele>1303</ele>
        <time>2017-09-17T15:17:33Z</time>
      </trkpt>
      <trkpt lat="44.08176" lon="7.78218">
        <ele>1304</ele>
        <time>2017-09-17T15:17:34Z</time>
      </trkpt>
      <trkpt lat="44.08172" lon="7.78219">
        <ele>1304</ele>
        <time>2017-09-17T15:17:35Z</time>
      </trkpt>
      <trkpt lat="44.08169" lon="7.78219">
        <ele>1305</ele>
        <time>2017-09-17T15:17:36Z</time>
      </trkpt>
      <trkpt lat="44.08165" lon="7.7822">
        <ele>1305</ele>
        <time>2017-09-17T15:17:37Z</time>
      </trkpt>
      <trkpt lat="44.08162" lon="7.78221">
        <ele>1306</ele>
        <time>2017-09-17T15:17:38Z</time>
      </trkpt>
      <trkpt lat="44.08158" lon="7.78221">
        <ele>1306</ele>
        <time>2017-09-17T15:17:39Z</time>
      </trkpt>
      <trkpt lat="44.08155" lon="7.78222">
        <ele>1307</ele>
        <time>2017-09-17T15:17:40Z</time>
      </trkpt>
      <trkpt lat="44.08152" lon="7.78223">
        <ele>1307</ele>
        <time>2017-09-17T15:17:41Z</time>
      </trkpt>
      <trkpt lat="44.08149" lon="7.78224">
        <ele>1308</ele>
        <time>2017-09-17T15:17:42Z</time>
      </trkpt>
      <trkpt lat="44.08146" lon="7.78226">
        <ele>1308</ele>
        <time>2017-09-17T15:17:43Z</time>
      </trkpt>
      <trkpt lat="44.08144" lon="7.78228">
        <ele>1309</ele>
        <time>2017-09-17T15:17:44Z</time>
      </trkpt>
      <trkpt lat="44.08141" lon="7.78229">
        <ele>1309</ele>
        <time>2017-09-17T15:17:45Z</time>
      </trkpt>
      <trkpt lat="44.08138" lon="7.78231">
        <ele>1310</ele>
        <time>2017-09-17T15:17:46Z</time>
      </trkpt>
      <trkpt lat="44.08135" lon="7.78233">
        <ele>1310</ele>
        <time>2017-09-17T15:17:47Z</time>
      </trkpt>
      <trkpt lat="44.08132" lon="7.78234">
        <ele>1311</ele>
        <time>2017-09-17T15:17:48Z</time>
      </trkpt>
      <trkpt lat="44.08129" lon="7.78236">
        <ele>1311</ele>
        <time>2017-09-17T15:17:49Z</time>
      </trkpt>
      <trkpt lat="44.08126" lon="7.78238">
        <ele>1312</ele>
        <time>2017-09-17T15:17:50Z</time>
      </trkpt>
      <trkpt lat="44.08123" lon="7.7824">
        <ele>1312</ele>
        <time>2017-09-17T15:17:51Z</time>
      </trkpt>
      <trkpt lat="44.0812" lon="7.78242">
        <ele>1312</ele>
        <time>2017-09-17T15:17:52Z</time>
      </trkpt>
      <trkpt lat="44.08117" lon="7.78244">
        <ele>1313</ele>
        <time>2017-09-17T15:17:53Z</time>
      </trkpt>
      <trkpt lat="44.08113" lon="7.78245">
        <ele>1313</ele>
        <time>2017-09-17T15:17:54Z</time>
      </trkpt>
      <trkpt lat="44.0811" lon="7.78245">
        <ele>1313</ele>
        <time>2017-09-17T15:17:55Z</time>
      </trkpt>
      <trkpt lat="44.08107" lon="7.78244">
        <ele>1314</ele>
        <time>2017-09-17T15:17:56Z</time>
      </trkpt>
      <trkpt lat="44.08104" lon="7.78243">
        <ele>1314</ele>
        <time>2017-09-17T15:17:57Z</time>
      </trkpt>
      <trkpt lat="44.08102" lon="7.7824">
        <ele>1315</ele>
        <time>2017-09-17T15:17:58Z</time>
      </trkpt>
      <trkpt lat="44.081" lon="7.78237">
        <ele>1315</ele>
        <time>2017-09-17T15:17:59Z</time>
      </trkpt>
      <trkpt lat="44.08099" lon="7.78233">
        <ele>1315</ele>
        <time>2017-09-17T15:18:00Z</time>
      </trkpt>
      <trkpt lat="44.08098" lon="7.78229">
        <ele>1315</ele>
        <time>2017-09-17T15:18:01Z</time>
      </trkpt>
      <trkpt lat="44.08097" lon="7.78225">
        <ele>1316</ele>
        <time>2017-09-17T15:18:02Z</time>
      </trkpt>
      <trkpt lat="44.08097" lon="7.7822">
        <ele>1316</ele>
        <time>2017-09-17T15:18:03Z</time>
      </trkpt>
      <trkpt lat="44.08096" lon="7.78216">
        <ele>1316</ele>
        <time>2017-09-17T15:18:04Z</time>
      </trkpt>
      <trkpt lat="44.08095" lon="7.78211">
        <ele>1316</ele>
        <time>2017-09-17T15:18:05Z</time>
      </trkpt>
      <trkpt lat="44.08095" lon="7.78207">
        <ele>1316</ele>
        <time>2017-09-17T15:18:06Z</time>
      </trkpt>
      <trkpt lat="44.08094" lon="7.78202">
        <ele>1317</ele>
        <time>2017-09-17T15:18:07Z</time>
      </trkpt>
      <trkpt lat="44.08093" lon="7.78198">
        <ele>1317</ele>
        <time>2017-09-17T15:18:08Z</time>
      </trkpt>
      <trkpt lat="44.08092" lon="7.78193">
        <ele>1317</ele>
        <time>2017-09-17T15:18:09Z</time>
      </trkpt>
      <trkpt lat="44.08091" lon="7.78189">
        <ele>1317</ele>
        <time>2017-09-17T15:18:10Z</time>
      </trkpt>
      <trkpt lat="44.08089" lon="7.78185">
        <ele>1318</ele>
        <time>2017-09-17T15:18:11Z</time>
      </trkpt>
      <trkpt lat="44.08087" lon="7.78182">
        <ele>1318</ele>
        <time>2017-09-17T15:18:12Z</time>
      </trkpt>
      <trkpt lat="44.08084" lon="7.78179">
        <ele>1318</ele>
        <time>2017-09-17T15:18:13Z</time>
      </trkpt>
      <trkpt lat="44.08082" lon="7.78176">
        <ele>1318</ele>
        <time>2017-09-17T15:18:14Z</time>
      </trkpt>
      <trkpt lat="44.08079" lon="7.78173">
        <ele>1319</ele>
        <time>2017-09-17T15:18:15Z</time>
      </trkpt>
      <trkpt lat="44.08076" lon="7.7817">
        <ele>1319</ele>
        <time>2017-09-17T15:18:16Z</time>
      </trkpt>
      <trkpt lat="44.08074" lon="7.78168">
        <ele>1319</ele>
        <time>2017-09-17T15:18:17Z</time>
      </trkpt>
      <trkpt lat="44.08071" lon="7.78166">
        <ele>1320</ele>
        <time>2017-09-17T15:18:18Z</time>
      </trkpt>
      <trkpt lat="44.08068" lon="7.78163">
        <ele>1320</ele>
        <time>2017-09-17T15:18:19Z</time>
      </trkpt>
      <trkpt lat="44.08066" lon="7.78161">
        <ele>1321</ele>
        <time>2017-09-17T15:18:20Z</time>
      </trkpt>
      <trkpt lat="44.08063" lon="7.78159">
        <ele>1321</ele>
        <time>2017-09-17T15:18:21Z</time>
      </trkpt>
      <trkpt lat="44.0806" lon="7.78157">
        <ele>1321</ele>
        <time>2017-09-17T15:18:22Z</time>
      </trkpt>
      <trkpt lat="44.08057" lon="7.78155">
        <ele>1322</ele>
        <time>2017-09-17T15:18:23Z</time>
      </trkpt>
      <trkpt lat="44.08054" lon="7.78154">
        <ele>1322</ele>
        <time>2017-09-17T15:18:24Z</time>
      </trkpt>
      <trkpt lat="44.08051" lon="7.78153">
        <ele>1323</ele>
        <time>2017-09-17T15:18:25Z</time>
      </trkpt>
      <trkpt lat="44.08048" lon="7.78151">
        <ele>1323</ele>
        <time>2017-09-17T15:18:26Z</time>
      </trkpt>
      <trkpt lat="44.08044" lon="7.7815">
        <ele>1323</ele>
        <time>2017-09-17T15:18:27Z</time>
      </trkpt>
      <trkpt lat="44.08041" lon="7.78149">
        <ele>1324</ele>
        <time>2017-09-17T15:18:28Z</time>
      </trkpt>
      <trkpt lat="44.08038" lon="7.78148">
        <ele>1324</ele>
        <time>2017-09-17T15:18:29Z</time>
      </trkpt>
      <trkpt lat="44.08034" lon="7.78146">
        <ele>1325</ele>
        <time>2017-09-17T15:18:30Z</time>
      </trkpt>
      <trkpt lat="44.08031" lon="7.78145">
        <ele>1325</ele>
        <time>2017-09-17T15:18:31Z</time>
      </trkpt>
      <trkpt lat="44.08028" lon="7.78144">
        <ele>1326</ele>
        <time>2017-09-17T15:18:32Z</time>
      </trkpt>
      <trkpt lat="44.08025" lon="7.78143">
        <ele>1326</ele>
        <time>2017-09-17T15:18:33Z</time>
      </trkpt>
      <trkpt lat="44.08021" lon="7.78143">
        <ele>1327</ele>
        <time>2017-09-17T15:18:34Z</time>
      </trkpt>
      <trkpt lat="44.08018" lon="7.78143">
        <ele>1327</ele>
        <time>2017-09-17T15:18:35Z</time>
      </trkpt>
      <trkpt lat="44.08015" lon="7.78144">
        <ele>1327</ele>
        <time>2017-09-17T15:18:36Z</time>
      </trkpt>
      <trkpt lat="44.08011" lon="7.78144">
        <ele>1328</ele>
        <time>2017-09-17T15:18:37Z</time>
      </trkpt>
      <trkpt lat="44.08008" lon="7.78144">
        <ele>1328</ele>
        <time>2017-09-17T15:18:38Z</time>
      </trkpt>
      <trkpt lat="44.08004" lon="7.78144">
        <ele>1329</ele>
        <time>2017-09-17T15:18:39Z</time>
      </trkpt>
      <trkpt lat="44.08001" lon="7.78144">
        <ele>1329</ele>
        <time>2017-09-17T15:18:40Z</time>
      </trkpt>
      <trkpt lat="44.07997" lon="7.78144">
        <ele>1329</ele>
        <time>2017-09-17T15:18:41Z</time>
      </trkpt>
      <trkpt lat="44.07994" lon="7.78143">
        <ele>1330</ele>
        <time>2017-09-17T15:18:42Z</time>
      </trkpt>
      <trkpt lat="44.0799" lon="7.78143">
        <ele>1330</ele>
        <time>2017-09-17T15:18:43Z</time>
      </trkpt>
      <trkpt lat="44.07987" lon="7.78142">
        <ele>1330</ele>
        <time>2017-09-17T15:18:44Z</time>
      </trkpt>
      <trkpt lat="44.07983" lon="7.78141">
        <ele>1331</ele>
        <time>2017-09-17T15:18:45Z</time>
      </trkpt>
      <trkpt lat="44.0798" lon="7.7814">
        <ele>1331</ele>
        <time>2017-09-17T15:18:46Z</time>
      </trkpt>
      <trkpt lat="44.07976" lon="7.78138">
        <ele>1332</ele>
        <time>2017-09-17T15:18:47Z</time>
      </trkpt>
      <trkpt lat="44.07973" lon="7.78137">
        <ele>1332</ele>
        <time>2017-09-17T15:18:48Z</time>
      </trkpt>
      <trkpt lat="44.07969" lon="7.78135">
        <ele>1332</ele>
        <time>2017-09-17T15:18:49Z</time>
      </trkpt>
      <trkpt lat="44.07966" lon="7.78134">
        <ele>1333</ele>
        <time>2017-09-17T15:18:50Z</time>
      </trkpt>
      <trkpt lat="44.07962" lon="7.78132">
        <ele>1333</ele>
        <time>2017-09-17T15:18:51Z</time>
      </trkpt>
      <trkpt lat="44.07959" lon="7.78131">
        <ele>1334</ele>
        <time>2017-09-17T15:18:52Z</time>
      </trkpt>
      <trkpt lat="44.07956" lon="7.7813">
        <ele>1334</ele>
        <time>2017-09-17T15:18:53Z</time>
      </trkpt>
      <trkpt lat="44.07952" lon="7.78128">
        <ele>1335</ele>
        <time>2017-09-17T15:18:54Z</time>
      </trkpt>
      <trkpt lat="44.07949" lon="7.78128">
        <ele>1335</ele>
        <time>2017-09-17T15:18:55Z</time>
      </trkpt>
      <trkpt lat="44.07945" lon="7.78127">
        <ele>1335</ele>
        <time>2017-09-17T15:18:56Z</time>
      </trkpt>
      <trkpt lat="44.07942" lon="7.78126">
        <ele>1336</ele>
        <time>2017-09-17T15:18:57Z</time>
      </trkpt>
      <trkpt lat="44.07938" lon="7.78126">
        <ele>1336</ele>
        <time>2017-09-17T15:18:58Z</time>
      </trkpt>
      <trkpt lat="44.07935" lon="7.78126">
        <ele>1336</ele>
        <time>2017-09-17T15:18:59Z</time>
      </trkpt>
      <trkpt lat="44.07931" lon="7.78126">
        <ele>1337</ele>
        <time>2017-09-17T15:19:00Z</time>
      </trkpt>
      <trkpt lat="44.07927" lon="7.78126">
        <ele>1337</ele>
        <time>2017-09-17T15:19:01Z</time>
      </trkpt>
      <trkpt lat="44.07924" lon="7.78126">
        <ele>1337</ele>
        <time>2017-09-17T15:19:02Z</time>
      </trkpt>
      <trkpt lat="44.0792" lon="7.78126">
        <ele>1338</ele>
        <time>2017-09-17T15:19:03Z</time>
      </trkpt>
      <trkpt lat="44.07917" lon="7.78126">
        <ele>1338</ele>
        <time>2017-09-17T15:19:04Z</time>
      </trkpt>
      <trkpt lat="44.07913" lon="7.78125">
        <ele>1338</ele>
        <time>2017-09-17T15:19:05Z</time>
      </trkpt>
      <trkpt lat="44.0791" lon="7.78123">
        <ele>1339</ele>
        <time>2017-09-17T15:19:06Z</time>
      </trkpt>
      <trkpt lat="44.07907" lon="7.78121">
        <ele>1339</ele>
        <time>2017-09-17T15:19:07Z</time>
      </trkpt>
      <trkpt lat="44.07904" lon="7.78119">
        <ele>1339</ele>
        <time>2017-09-17T15:19:08Z</time>
      </trkpt>
      <trkpt lat="44.07902" lon="7.78116">
        <ele>1340</ele>
        <time>2017-09-17T15:19:09Z</time>
      </trkpt>
      <trkpt lat="44.07899" lon="7.78113">
        <ele>1340</ele>
        <time>2017-09-17T15:19:10Z</time>
      </trkpt>
      <trkpt lat="44.07897" lon="7.78111">
        <ele>1340</ele>
        <time>2017-09-17T15:19:11Z</time>
      </trkpt>
      <trkpt lat="44.07894" lon="7.78108">
        <ele>1340</ele>
        <time>2017-09-17T15:19:12Z</time>
      </trkpt>
      <trkpt lat="44.07891" lon="7.78105">
        <ele>1341</ele>
        <time>2017-09-17T15:19:13Z</time>
      </trkpt>
      <trkpt lat="44.07888" lon="7.78103">
        <ele>1341</ele>
        <time>2017-09-17T15:19:14Z</time>
      </trkpt>
      <trkpt lat="44.07885" lon="7.78101">
        <ele>1341</ele>
        <time>2017-09-17T15:19:15Z</time>
      </trkpt>
      <trkpt lat="44.07882" lon="7.78099">
        <ele>1342</ele>
        <time>2017-09-17T15:19:16Z</time>
      </trkpt>
      <trkpt lat="44.07879" lon="7.78097">
        <ele>1342</ele>
        <time>2017-09-17T15:19:17Z</time>
      </trkpt>
      <trkpt lat="44.07876" lon="7.78095">
        <ele>1342</ele>
        <time>2017-09-17T15:19:18Z</time>
      </trkpt>
      <trkpt lat="44.07873" lon="7.78093">
        <ele>1342</ele>
        <time>2017-09-17T15:19:19Z</time>
      </trkpt>
      <trkpt lat="44.0787" lon="7.78092">
        <ele>1343</ele>
        <time>2017-09-17T15:19:20Z</time>
      </trkpt>
      <trkpt lat="44.07867" lon="7.7809">
        <ele>1343</ele>
        <time>2017-09-17T15:19:21Z</time>
      </trkpt>
      <trkpt lat="44.07864" lon="7.78088">
        <ele>1343</ele>
        <time>2017-09-17T15:19:22Z</time>
      </trkpt>
      <trkpt lat="44.07861" lon="7.78087">
        <ele>1343</ele>
        <time>2017-09-17T15:19:23Z</time>
      </trkpt>
      <trkpt lat="44.07858" lon="7.78086">
        <ele>1344</ele>
        <time>2017-09-17T15:19:24Z</time>
      </trkpt>
      <trkpt lat="44.07855" lon="7.78085">
        <ele>1344</ele>
        <time>2017-09-17T15:19:25Z</time>
      </trkpt>
      <trkpt lat="44.07852" lon="7.78084">
        <ele>1344</ele>
        <time>2017-09-17T15:19:26Z</time>
      </trkpt>
      <trkpt lat="44.07849" lon="7.78084">
        <ele>1345</ele>
        <time>2017-09-17T15:19:27Z</time>
      </trkpt>
      <trkpt lat="44.07845" lon="7.78084">
        <ele>1345</ele>
        <time>2017-09-17T15:19:28Z</time>
      </trkpt>
      <trkpt lat="44.07842" lon="7.78084">
        <ele>1345</ele>
        <time>2017-09-17T15:19:29Z</time>
      </trkpt>
      <trkpt lat="44.07839" lon="7.78084">
        <ele>1345</ele>
        <time>2017-09-17T15:19:30Z</time>
      </trkpt>
      <trkpt lat="44.07835" lon="7.78084">
        <ele>1346</ele>
        <time>2017-09-17T15:19:31Z</time>
      </trkpt>
      <trkpt lat="44.07832" lon="7.78084">
        <ele>1346</ele>
        <time>2017-09-17T15:19:32Z</time>
      </trkpt>
      <trkpt lat="44.07829" lon="7.78084">
        <ele>1346</ele>
        <time>2017-09-17T15:19:33Z</time>
      </trkpt>
      <trkpt lat="44.07826" lon="7.78084">
        <ele>1347</ele>
        <time>2017-09-17T15:19:34Z</time>
      </trkpt>
      <trkpt lat="44.07823" lon="7.78084">
        <ele>1347</ele>
        <time>2017-09-17T15:19:35Z</time>
      </trkpt>
      <trkpt lat="44.0782" lon="7.78084">
        <ele>1347</ele>
        <time>2017-09-17T15:19:36Z</time>
      </trkpt>
      <trkpt lat="44.07817" lon="7.78084">
        <ele>1347</ele>
        <time>2017-09-17T15:19:37Z</time>
      </trkpt>
      <trkpt lat="44.07814" lon="7.78084">
        <ele>1348</ele>
        <time>2017-09-17T15:19:38Z</time>
      </trkpt>
      <trkpt lat="44.07811" lon="7.78084">
        <ele>1348</ele>
        <time>2017-09-17T15:19:39Z</time>
      </trkpt>
      <trkpt lat="44.07808" lon="7.78085">
        <ele>1348</ele>
        <time>2017-09-17T15:19:40Z</time>
      </trkpt>
      <trkpt lat="44.07805" lon="7.78086">
        <ele>1348</ele>
        <time>2017-09-17T15:19:41Z</time>
      </trkpt>
      <trkpt lat="44.07802" lon="7.78087">
        <ele>1348</ele>
        <time>2017-09-17T15:19:42Z</time>
      </trkpt>
      <trkpt lat="44.07799" lon="7.78089">
        <ele>1349</ele>
        <time>2017-09-17T15:19:43Z</time>
      </trkpt>
      <trkpt lat="44.07796" lon="7.78092">
        <ele>1349</ele>
        <time>2017-09-17T15:19:44Z</time>
      </trkpt>
      <trkpt lat="44.07793" lon="7.78094">
        <ele>1349</ele>
        <time>2017-09-17T15:19:45Z</time>
      </trkpt>
      <trkpt lat="44.07791" lon="7.78096">
        <ele>1349</ele>
        <time>2017-09-17T15:19:46Z</time>
      </trkpt>
      <trkpt lat="44.07788" lon="7.78099">
        <ele>1349</ele>
        <time>2017-09-17T15:19:47Z</time>
      </trkpt>
      <trkpt lat="44.07785" lon="7.78101">
        <ele>1349</ele>
        <time>2017-09-17T15:19:48Z</time>
      </trkpt>
      <trkpt lat="44.07783" lon="7.78103">
        <ele>1350</ele>
        <time>2017-09-17T15:19:49Z</time>
      </trkpt>
      <trkpt lat="44.0778" lon="7.78105">
        <ele>1350</ele>
        <time>2017-09-17T15:19:50Z</time>
      </trkpt>
      <trkpt lat="44.07777" lon="7.78106">
        <ele>1350</ele>
        <time>2017-09-17T15:19:51Z</time>
      </trkpt>
      <trkpt lat="44.07775" lon="7.78108">
        <ele>1351</ele>
        <time>2017-09-17T15:19:52Z</time>
      </trkpt>
      <trkpt lat="44.07772" lon="7.7811">
        <ele>1351</ele>
        <time>2017-09-17T15:19:53Z</time>
      </trkpt>
      <trkpt lat="44.0777" lon="7.78112">
        <ele>1351</ele>
        <time>2017-09-17T15:19:54Z</time>
      </trkpt>
      <trkpt lat="44.07768" lon="7.78114">
        <ele>1352</ele>
        <time>2017-09-17T15:19:55Z</time>
      </trkpt>
      <trkpt lat="44.07765" lon="7.78116">
        <ele>1352</ele>
        <time>2017-09-17T15:19:56Z</time>
      </trkpt>
      <trkpt lat="44.07763" lon="7.78118">
        <ele>1353</ele>
        <time>2017-09-17T15:19:57Z</time>
      </trkpt>
      <trkpt lat="44.07761" lon="7.7812">
        <ele>1353</ele>
        <time>2017-09-17T15:19:58Z</time>
      </trkpt>
      <trkpt lat="44.07759" lon="7.78121">
        <ele>1354</ele>
        <time>2017-09-17T15:19:59Z</time>
      </trkpt>
      <trkpt lat="44.07757" lon="7.78123">
        <ele>1354</ele>
        <time>2017-09-17T15:20:00Z</time>
      </trkpt>
      <trkpt lat="44.07754" lon="7.78125">
        <ele>1354</ele>
        <time>2017-09-17T15:20:01Z</time>
      </trkpt>
      <trkpt lat="44.07751" lon="7.78127">
        <ele>1355</ele>
        <time>2017-09-17T15:20:02Z</time>
      </trkpt>
      <trkpt lat="44.07748" lon="7.78129">
        <ele>1355</ele>
        <time>2017-09-17T15:20:03Z</time>
      </trkpt>
      <trkpt lat="44.07745" lon="7.78131">
        <ele>1355</ele>
        <time>2017-09-17T15:20:04Z</time>
      </trkpt>
      <trkpt lat="44.07743" lon="7.78135">
        <ele>1356</ele>
        <time>2017-09-17T15:20:05Z</time>
      </trkpt>
      <trkpt lat="44.0774" lon="7.78138">
        <ele>1356</ele>
        <time>2017-09-17T15:20:06Z</time>
      </trkpt>
      <trkpt lat="44.07738" lon="7.78142">
        <ele>1357</ele>
        <time>2017-09-17T15:20:07Z</time>
      </trkpt>
      <trkpt lat="44.07737" lon="7.78145">
        <ele>1357</ele>
        <time>2017-09-17T15:20:08Z</time>
      </trkpt>
      <trkpt lat="44.07735" lon="7.78149">
        <ele>1358</ele>
        <time>2017-09-17T15:20:09Z</time>
      </trkpt>
      <trkpt lat="44.07733" lon="7.78152">
        <ele>1358</ele>
        <time>2017-09-17T15:20:10Z</time>
      </trkpt>
      <trkpt lat="44.0773" lon="7.78148">
        <ele>1362</ele>
        <time>2017-09-17T15:20:11Z</time>
      </trkpt>
      <trkpt lat="44.0773" lon="7.78149">
        <ele>1363</ele>
        <time>2017-09-17T15:20:12Z</time>
      </trkpt>
      <trkpt lat="44.0773" lon="7.78151">
        <ele>1363</ele>
        <time>2017-09-17T15:20:13Z</time>
      </trkpt>
      <trkpt lat="44.07729" lon="7.78152">
        <ele>1363</ele>
        <time>2017-09-17T15:20:14Z</time>
      </trkpt>
      <trkpt lat="44.07728" lon="7.78154">
        <ele>1363</ele>
        <time>2017-09-17T15:20:15Z</time>
      </trkpt>
      <trkpt lat="44.07726" lon="7.78155">
        <ele>1363</ele>
        <time>2017-09-17T15:20:16Z</time>
      </trkpt>
      <trkpt lat="44.07724" lon="7.78156">
        <ele>1363</ele>
        <time>2017-09-17T15:20:17Z</time>
      </trkpt>
      <trkpt lat="44.07723" lon="7.78158">
        <ele>1364</ele>
        <time>2017-09-17T15:20:18Z</time>
      </trkpt>
      <trkpt lat="44.07722" lon="7.78158">
        <ele>1364</ele>
        <time>2017-09-17T15:20:19Z</time>
      </trkpt>
      <trkpt lat="44.07721" lon="7.78159">
        <ele>1364</ele>
        <time>2017-09-17T15:20:20Z</time>
      </trkpt>
      <trkpt lat="44.0772" lon="7.7816">
        <ele>1364</ele>
        <time>2017-09-17T15:20:21Z</time>
      </trkpt>
      <trkpt lat="44.07718" lon="7.78161">
        <ele>1365</ele>
        <time>2017-09-17T15:20:22Z</time>
      </trkpt>
      <trkpt lat="44.07717" lon="7.78162">
        <ele>1365</ele>
        <time>2017-09-17T15:20:23Z</time>
      </trkpt>
      <trkpt lat="44.07717" lon="7.78163">
        <ele>1365</ele>
        <time>2017-09-17T15:20:24Z</time>
      </trkpt>
      <trkpt lat="44.07716" lon="7.78164">
        <ele>1365</ele>
        <time>2017-09-17T15:20:25Z</time>
      </trkpt>
      <trkpt lat="44.07715" lon="7.78165">
        <ele>1365</ele>
        <time>2017-09-17T15:20:26Z</time>
      </trkpt>
      <trkpt lat="44.07714" lon="7.78165">
        <ele>1365</ele>
        <time>2017-09-17T15:20:27Z</time>
      </trkpt>
      <trkpt lat="44.07713" lon="7.78164">
        <ele>1365</ele>
        <time>2017-09-17T15:20:28Z</time>
      </trkpt>
      <trkpt lat="44.07712" lon="7.78163">
        <ele>1365</ele>
        <time>2017-09-17T15:20:29Z</time>
      </trkpt>
      <trkpt lat="44.07711" lon="7.78162">
        <ele>1365</ele>
        <time>2017-09-17T15:20:30Z</time>
      </trkpt>
      <trkpt lat="44.0771" lon="7.7816">
        <ele>1365</ele>
        <time>2017-09-17T15:20:31Z</time>
      </trkpt>
      <trkpt lat="44.0771" lon="7.7816">
        <ele>1365</ele>
        <time>2017-09-17T15:20:32Z</time>
      </trkpt>
      <trkpt lat="44.07709" lon="7.7816">
        <ele>1365</ele>
        <time>2017-09-17T15:20:33Z</time>
      </trkpt>
      <trkpt lat="44.07708" lon="7.78161">
        <ele>1365</ele>
        <time>2017-09-17T15:20:34Z</time>
      </trkpt>
      <trkpt lat="44.07708" lon="7.78161">
        <ele>1365</ele>
        <time>2017-09-17T15:20:35Z</time>
      </trkpt>
      <trkpt lat="44.07708" lon="7.78161">
        <ele>1365</ele>
        <time>2017-09-17T15:20:36Z</time>
      </trkpt>
      <trkpt lat="44.07707" lon="7.78161">
        <ele>1365</ele>
        <time>2017-09-17T15:20:37Z</time>
      </trkpt>
      <trkpt lat="44.07707" lon="7.78161">
        <ele>1365</ele>
        <time>2017-09-17T15:20:38Z</time>
      </trkpt>
      <trkpt lat="44.07706" lon="7.78161">
        <ele>1365</ele>
        <time>2017-09-17T15:20:39Z</time>
      </trkpt>
      <trkpt lat="44.07706" lon="7.78161">
        <ele>1365</ele>
        <time>2017-09-17T15:20:40Z</time>
      </trkpt>
      <trkpt lat="44.07705" lon="7.7816">
        <ele>1365</ele>
        <time>2017-09-17T15:20:41Z</time>
      </trkpt>
      <trkpt lat="44.07705" lon="7.7816">
        <ele>1366</ele>
        <time>2017-09-17T15:20:42Z</time>
      </trkpt>
      <trkpt lat="44.07705" lon="7.7816">
        <ele>1366</ele>
        <time>2017-09-17T15:20:43Z</time>
      </trkpt>
      <trkpt lat="44.07704" lon="7.7816">
        <ele>1366</ele>
        <time>2017-09-17T15:20:44Z</time>
      </trkpt>
      <trkpt lat="44.07704" lon="7.7816">
        <ele>1367</ele>
        <time>2017-09-17T15:20:45Z</time>
      </trkpt>
      <trkpt lat="44.07704" lon="7.78159">
        <ele>1367</ele>
        <time>2017-09-17T15:20:46Z</time>
      </trkpt>
      <trkpt lat="44.07704" lon="7.78159">
        <ele>1367</ele>
        <time>2017-09-17T15:20:47Z</time>
      </trkpt>
      <trkpt lat="44.07704" lon="7.78159">
        <ele>1368</ele>
        <time>2017-09-17T15:20:48Z</time>
      </trkpt>
      <trkpt lat="44.07703" lon="7.78159">
        <ele>1368</ele>
        <time>2017-09-17T15:20:49Z</time>
      </trkpt>
      <trkpt lat="44.07703" lon="7.78159">
        <ele>1368</ele>
        <time>2017-09-17T15:20:50Z</time>
      </trkpt>
      <trkpt lat="44.07702" lon="7.78159">
        <ele>1368</ele>
        <time>2017-09-17T15:20:51Z</time>
      </trkpt>
      <trkpt lat="44.07702" lon="7.78159">
        <ele>1369</ele>
        <time>2017-09-17T15:20:52Z</time>
      </trkpt>
      <trkpt lat="44.07702" lon="7.78159">
        <ele>1369</ele>
        <time>2017-09-17T15:20:53Z</time>
      </trkpt>
      <trkpt lat="44.07701" lon="7.78159">
        <ele>1369</ele>
        <time>2017-09-17T15:20:54Z</time>
      </trkpt>
      <trkpt lat="44.07701" lon="7.78159">
        <ele>1370</ele>
        <time>2017-09-17T15:20:55Z</time>
      </trkpt>
      <trkpt lat="44.077" lon="7.78159">
        <ele>1370</ele>
        <time>2017-09-17T15:20:56Z</time>
      </trkpt>
      <trkpt lat="44.077" lon="7.78159">
        <ele>1370</ele>
        <time>2017-09-17T15:20:57Z</time>
      </trkpt>
      <trkpt lat="44.077" lon="7.78159">
        <ele>1370</ele>
        <time>2017-09-17T15:20:58Z</time>
      </trkpt>
      <trkpt lat="44.07699" lon="7.78158">
        <ele>1370</ele>
        <time>2017-09-17T15:20:59Z</time>
      </trkpt>
      <trkpt lat="44.07699" lon="7.78158">
        <ele>1370</ele>
        <time>2017-09-17T15:21:00Z</time>
      </trkpt>
      <trkpt lat="44.07699" lon="7.78158">
        <ele>1370</ele>
        <time>2017-09-17T15:21:01Z</time>
      </trkpt>
      <trkpt lat="44.07699" lon="7.78158">
        <ele>1371</ele>
        <time>2017-09-17T15:21:02Z</time>
      </trkpt>
      <trkpt lat="44.07698" lon="7.78159">
        <ele>1371</ele>
        <time>2017-09-17T15:21:03Z</time>
      </trkpt>
      <trkpt lat="44.07696" lon="7.78159">
        <ele>1371</ele>
        <time>2017-09-17T15:21:04Z</time>
      </trkpt>
      <trkpt lat="44.07695" lon="7.78158">
        <ele>1371</ele>
        <time>2017-09-17T15:21:05Z</time>
      </trkpt>
      <trkpt lat="44.07693" lon="7.78158">
        <ele>1372</ele>
        <time>2017-09-17T15:21:06Z</time>
      </trkpt>
      <trkpt lat="44.07691" lon="7.78158">
        <ele>1372</ele>
        <time>2017-09-17T15:21:07Z</time>
      </trkpt>
      <trkpt lat="44.07689" lon="7.78158">
        <ele>1372</ele>
        <time>2017-09-17T15:21:08Z</time>
      </trkpt>
      <trkpt lat="44.07686" lon="7.78157">
        <ele>1372</ele>
        <time>2017-09-17T15:21:09Z</time>
      </trkpt>
      <trkpt lat="44.07684" lon="7.78155">
        <ele>1373</ele>
        <time>2017-09-17T15:21:10Z</time>
      </trkpt>
      <trkpt lat="44.07682" lon="7.78155">
        <ele>1373</ele>
        <time>2017-09-17T15:21:11Z</time>
      </trkpt>
      <trkpt lat="44.0768" lon="7.78156">
        <ele>1374</ele>
        <time>2017-09-17T15:21:12Z</time>
      </trkpt>
      <trkpt lat="44.07679" lon="7.78156">
        <ele>1374</ele>
        <time>2017-09-17T15:21:13Z</time>
      </trkpt>
      <trkpt lat="44.07677" lon="7.78156">
        <ele>1374</ele>
        <time>2017-09-17T15:21:14Z</time>
      </trkpt>
      <trkpt lat="44.07675" lon="7.78156">
        <ele>1375</ele>
        <time>2017-09-17T15:21:15Z</time>
      </trkpt>
      <trkpt lat="44.07672" lon="7.78156">
        <ele>1375</ele>
        <time>2017-09-17T15:21:16Z</time>
      </trkpt>
      <trkpt lat="44.0767" lon="7.78156">
        <ele>1375</ele>
        <time>2017-09-17T15:21:17Z</time>
      </trkpt>
      <trkpt lat="44.07668" lon="7.78157">
        <ele>1376</ele>
        <time>2017-09-17T15:21:18Z</time>
      </trkpt>
      <trkpt lat="44.07666" lon="7.78157">
        <ele>1376</ele>
        <time>2017-09-17T15:21:19Z</time>
      </trkpt>
      <trkpt lat="44.07665" lon="7.78159">
        <ele>1376</ele>
        <time>2017-09-17T15:21:20Z</time>
      </trkpt>
      <trkpt lat="44.07663" lon="7.78162">
        <ele>1376</ele>
        <time>2017-09-17T15:21:21Z</time>
      </trkpt>
      <trkpt lat="44.07662" lon="7.78165">
        <ele>1376</ele>
        <time>2017-09-17T15:21:22Z</time>
      </trkpt>
      <trkpt lat="44.07661" lon="7.78167">
        <ele>1376</ele>
        <time>2017-09-17T15:21:23Z</time>
      </trkpt>
      <trkpt lat="44.0766" lon="7.78171">
        <ele>1376</ele>
        <time>2017-09-17T15:21:24Z</time>
      </trkpt>
      <trkpt lat="44.07659" lon="7.78175">
        <ele>1376</ele>
        <time>2017-09-17T15:21:25Z</time>
      </trkpt>
      <trkpt lat="44.07657" lon="7.78179">
        <ele>1376</ele>
        <time>2017-09-17T15:21:26Z</time>
      </trkpt>
      <trkpt lat="44.07655" lon="7.78182">
        <ele>1376</ele>
        <time>2017-09-17T15:21:27Z</time>
      </trkpt>
      <trkpt lat="44.07652" lon="7.78186">
        <ele>1376</ele>
        <time>2017-09-17T15:21:28Z</time>
      </trkpt>
      <trkpt lat="44.0765" lon="7.78189">
        <ele>1376</ele>
        <time>2017-09-17T15:21:29Z</time>
      </trkpt>
      <trkpt lat="44.07647" lon="7.78192">
        <ele>1377</ele>
        <time>2017-09-17T15:21:30Z</time>
      </trkpt>
      <trkpt lat="44.07645" lon="7.78194">
        <ele>1377</ele>
        <time>2017-09-17T15:21:31Z</time>
      </trkpt>
      <trkpt lat="44.07643" lon="7.78195">
        <ele>1377</ele>
        <time>2017-09-17T15:21:32Z</time>
      </trkpt>
      <trkpt lat="44.07642" lon="7.78197">
        <ele>1377</ele>
        <time>2017-09-17T15:21:33Z</time>
      </trkpt>
      <trkpt lat="44.0764" lon="7.78199">
        <ele>1377</ele>
        <time>2017-09-17T15:21:34Z</time>
      </trkpt>
      <trkpt lat="44.07638" lon="7.78202">
        <ele>1377</ele>
        <time>2017-09-17T15:21:35Z</time>
      </trkpt>
      <trkpt lat="44.07636" lon="7.78205">
        <ele>1377</ele>
        <time>2017-09-17T15:21:36Z</time>
      </trkpt>
      <trkpt lat="44.07634" lon="7.78209">
        <ele>1376</ele>
        <time>2017-09-17T15:21:37Z</time>
      </trkpt>
      <trkpt lat="44.07632" lon="7.78211">
        <ele>1376</ele>
        <time>2017-09-17T15:21:38Z</time>
      </trkpt>
      <trkpt lat="44.0763" lon="7.78214">
        <ele>1376</ele>
        <time>2017-09-17T15:21:39Z</time>
      </trkpt>
      <trkpt lat="44.07627" lon="7.78216">
        <ele>1376</ele>
        <time>2017-09-17T15:21:40Z</time>
      </trkpt>
      <trkpt lat="44.07624" lon="7.78217">
        <ele>1375</ele>
        <time>2017-09-17T15:21:41Z</time>
      </trkpt>
      <trkpt lat="44.0762" lon="7.78219">
        <ele>1375</ele>
        <time>2017-09-17T15:21:42Z</time>
      </trkpt>
      <trkpt lat="44.07616" lon="7.7822">
        <ele>1375</ele>
        <time>2017-09-17T15:21:43Z</time>
      </trkpt>
      <trkpt lat="44.07613" lon="7.78223">
        <ele>1375</ele>
        <time>2017-09-17T15:21:44Z</time>
      </trkpt>
      <trkpt lat="44.07609" lon="7.78227">
        <ele>1374</ele>
        <time>2017-09-17T15:21:45Z</time>
      </trkpt>
      <trkpt lat="44.07604" lon="7.78231">
        <ele>1374</ele>
        <time>2017-09-17T15:21:46Z</time>
      </trkpt>
      <trkpt lat="44.076" lon="7.78233">
        <ele>1374</ele>
        <time>2017-09-17T15:21:47Z</time>
      </trkpt>
      <trkpt lat="44.07595" lon="7.78235">
        <ele>1373</ele>
        <time>2017-09-17T15:21:48Z</time>
      </trkpt>
      <trkpt lat="44.0759" lon="7.78236">
        <ele>1373</ele>
        <time>2017-09-17T15:21:49Z</time>
      </trkpt>
      <trkpt lat="44.07585" lon="7.78238">
        <ele>1373</ele>
        <time>2017-09-17T15:21:50Z</time>
      </trkpt>
      <trkpt lat="44.0758" lon="7.7824">
        <ele>1372</ele>
        <time>2017-09-17T15:21:51Z</time>
      </trkpt>
      <trkpt lat="44.07574" lon="7.78241">
        <ele>1372</ele>
        <time>2017-09-17T15:21:52Z</time>
      </trkpt>
      <trkpt lat="44.07569" lon="7.78242">
        <ele>1372</ele>
        <time>2017-09-17T15:21:53Z</time>
      </trkpt>
      <trkpt lat="44.07564" lon="7.78242">
        <ele>1372</ele>
        <time>2017-09-17T15:21:54Z</time>
      </trkpt>
      <trkpt lat="44.07559" lon="7.78243">
        <ele>1371</ele>
        <time>2017-09-17T15:21:55Z</time>
      </trkpt>
      <trkpt lat="44.07553" lon="7.78243">
        <ele>1371</ele>
        <time>2017-09-17T15:21:56Z</time>
      </trkpt>
      <trkpt lat="44.07548" lon="7.78244">
        <ele>1371</ele>
        <time>2017-09-17T15:21:57Z</time>
      </trkpt>
      <trkpt lat="44.07543" lon="7.78246">
        <ele>1371</ele>
        <time>2017-09-17T15:21:58Z</time>
      </trkpt>
      <trkpt lat="44.07538" lon="7.78248">
        <ele>1371</ele>
        <time>2017-09-17T15:21:59Z</time>
      </trkpt>
      <trkpt lat="44.07534" lon="7.78252">
        <ele>1371</ele>
        <time>2017-09-17T15:22:00Z</time>
      </trkpt>
      <trkpt lat="44.0753" lon="7.78255">
        <ele>1371</ele>
        <time>2017-09-17T15:22:01Z</time>
      </trkpt>
      <trkpt lat="44.07527" lon="7.78259">
        <ele>1371</ele>
        <time>2017-09-17T15:22:02Z</time>
      </trkpt>
      <trkpt lat="44.07523" lon="7.78262">
        <ele>1371</ele>
        <time>2017-09-17T15:22:03Z</time>
      </trkpt>
      <trkpt lat="44.0752" lon="7.78265">
        <ele>1371</ele>
        <time>2017-09-17T15:22:04Z</time>
      </trkpt>
      <trkpt lat="44.07517" lon="7.78269">
        <ele>1371</ele>
        <time>2017-09-17T15:22:05Z</time>
      </trkpt>
      <trkpt lat="44.07514" lon="7.78272">
        <ele>1371</ele>
        <time>2017-09-17T15:22:06Z</time>
      </trkpt>
      <trkpt lat="44.07511" lon="7.78275">
        <ele>1371</ele>
        <time>2017-09-17T15:22:07Z</time>
      </trkpt>
      <trkpt lat="44.07508" lon="7.78278">
        <ele>1371</ele>
        <time>2017-09-17T15:22:08Z</time>
      </trkpt>
      <trkpt lat="44.07505" lon="7.78281">
        <ele>1372</ele>
        <time>2017-09-17T15:22:09Z</time>
      </trkpt>
      <trkpt lat="44.07502" lon="7.78285">
        <ele>1372</ele>
        <time>2017-09-17T15:22:10Z</time>
      </trkpt>
      <trkpt lat="44.075" lon="7.78288">
        <ele>1372</ele>
        <time>2017-09-17T15:22:11Z</time>
      </trkpt>
      <trkpt lat="44.07498" lon="7.78291">
        <ele>1372</ele>
        <time>2017-09-17T15:22:12Z</time>
      </trkpt>
      <trkpt lat="44.07495" lon="7.78295">
        <ele>1372</ele>
        <time>2017-09-17T15:22:13Z</time>
      </trkpt>
      <trkpt lat="44.07493" lon="7.783">
        <ele>1372</ele>
        <time>2017-09-17T15:22:14Z</time>
      </trkpt>
      <trkpt lat="44.07492" lon="7.78304">
        <ele>1372</ele>
        <time>2017-09-17T15:22:15Z</time>
      </trkpt>
      <trkpt lat="44.0749" lon="7.78308">
        <ele>1373</ele>
        <time>2017-09-17T15:22:16Z</time>
      </trkpt>
      <trkpt lat="44.07489" lon="7.78313">
        <ele>1373</ele>
        <time>2017-09-17T15:22:17Z</time>
      </trkpt>
      <trkpt lat="44.07488" lon="7.78317">
        <ele>1373</ele>
        <time>2017-09-17T15:22:18Z</time>
      </trkpt>
      <trkpt lat="44.07487" lon="7.78321">
        <ele>1373</ele>
        <time>2017-09-17T15:22:19Z</time>
      </trkpt>
      <trkpt lat="44.07486" lon="7.78325">
        <ele>1374</ele>
        <time>2017-09-17T15:22:20Z</time>
      </trkpt>
      <trkpt lat="44.07484" lon="7.78329">
        <ele>1374</ele>
        <time>2017-09-17T15:22:21Z</time>
      </trkpt>
      <trkpt lat="44.07483" lon="7.78333">
        <ele>1374</ele>
        <time>2017-09-17T15:22:22Z</time>
      </trkpt>
      <trkpt lat="44.07482" lon="7.78337">
        <ele>1374</ele>
        <time>2017-09-17T15:22:23Z</time>
      </trkpt>
      <trkpt lat="44.07481" lon="7.78342">
        <ele>1375</ele>
        <time>2017-09-17T15:22:24Z</time>
      </trkpt>
      <trkpt lat="44.0748" lon="7.78346">
        <ele>1375</ele>
        <time>2017-09-17T15:22:25Z</time>
      </trkpt>
      <trkpt lat="44.07479" lon="7.78351">
        <ele>1375</ele>
        <time>2017-09-17T15:22:26Z</time>
      </trkpt>
      <trkpt lat="44.07477" lon="7.78355">
        <ele>1375</ele>
        <time>2017-09-17T15:22:27Z</time>
      </trkpt>
      <trkpt lat="44.07476" lon="7.78359">
        <ele>1376</ele>
        <time>2017-09-17T15:22:28Z</time>
      </trkpt>
      <trkpt lat="44.07474" lon="7.78363">
        <ele>1376</ele>
        <time>2017-09-17T15:22:29Z</time>
      </trkpt>
      <trkpt lat="44.07472" lon="7.78366">
        <ele>1377</ele>
        <time>2017-09-17T15:22:30Z</time>
      </trkpt>
      <trkpt lat="44.0747" lon="7.7837">
        <ele>1377</ele>
        <time>2017-09-17T15:22:31Z</time>
      </trkpt>
      <trkpt lat="44.07469" lon="7.78374">
        <ele>1377</ele>
        <time>2017-09-17T15:22:32Z</time>
      </trkpt>
      <trkpt lat="44.07467" lon="7.78378">
        <ele>1378</ele>
        <time>2017-09-17T15:22:33Z</time>
      </trkpt>
      <trkpt lat="44.07465" lon="7.78381">
        <ele>1378</ele>
        <time>2017-09-17T15:22:34Z</time>
      </trkpt>
      <trkpt lat="44.07463" lon="7.78384">
        <ele>1379</ele>
        <time>2017-09-17T15:22:35Z</time>
      </trkpt>
      <trkpt lat="44.07461" lon="7.78387">
        <ele>1379</ele>
        <time>2017-09-17T15:22:36Z</time>
      </trkpt>
      <trkpt lat="44.07458" lon="7.7839">
        <ele>1380</ele>
        <time>2017-09-17T15:22:37Z</time>
      </trkpt>
      <trkpt lat="44.07456" lon="7.78393">
        <ele>1380</ele>
        <time>2017-09-17T15:22:38Z</time>
      </trkpt>
      <trkpt lat="44.07454" lon="7.78396">
        <ele>1381</ele>
        <time>2017-09-17T15:22:39Z</time>
      </trkpt>
      <trkpt lat="44.07452" lon="7.784">
        <ele>1381</ele>
        <time>2017-09-17T15:22:40Z</time>
      </trkpt>
      <trkpt lat="44.0745" lon="7.78403">
        <ele>1382</ele>
        <time>2017-09-17T15:22:41Z</time>
      </trkpt>
      <trkpt lat="44.07448" lon="7.78406">
        <ele>1382</ele>
        <time>2017-09-17T15:22:42Z</time>
      </trkpt>
      <trkpt lat="44.07446" lon="7.78409">
        <ele>1382</ele>
        <time>2017-09-17T15:22:43Z</time>
      </trkpt>
      <trkpt lat="44.07443" lon="7.78411">
        <ele>1383</ele>
        <time>2017-09-17T15:22:44Z</time>
      </trkpt>
      <trkpt lat="44.07441" lon="7.78412">
        <ele>1383</ele>
        <time>2017-09-17T15:22:45Z</time>
      </trkpt>
      <trkpt lat="44.07438" lon="7.78413">
        <ele>1384</ele>
        <time>2017-09-17T15:22:46Z</time>
      </trkpt>
      <trkpt lat="44.07435" lon="7.78414">
        <ele>1384</ele>
        <time>2017-09-17T15:22:47Z</time>
      </trkpt>
      <trkpt lat="44.07432" lon="7.78414">
        <ele>1384</ele>
        <time>2017-09-17T15:22:48Z</time>
      </trkpt>
      <trkpt lat="44.0743" lon="7.78414">
        <ele>1385</ele>
        <time>2017-09-17T15:22:49Z</time>
      </trkpt>
      <trkpt lat="44.07427" lon="7.78414">
        <ele>1385</ele>
        <time>2017-09-17T15:22:50Z</time>
      </trkpt>
      <trkpt lat="44.07425" lon="7.78413">
        <ele>1386</ele>
        <time>2017-09-17T15:22:51Z</time>
      </trkpt>
      <trkpt lat="44.07423" lon="7.78411">
        <ele>1386</ele>
        <time>2017-09-17T15:22:52Z</time>
      </trkpt>
      <trkpt lat="44.0742" lon="7.78409">
        <ele>1386</ele>
        <time>2017-09-17T15:22:53Z</time>
      </trkpt>
      <trkpt lat="44.07418" lon="7.78407">
        <ele>1387</ele>
        <time>2017-09-17T15:22:54Z</time>
      </trkpt>
      <trkpt lat="44.07416" lon="7.78405">
        <ele>1387</ele>
        <time>2017-09-17T15:22:55Z</time>
      </trkpt>
      <trkpt lat="44.07414" lon="7.78403">
        <ele>1388</ele>
        <time>2017-09-17T15:22:56Z</time>
      </trkpt>
      <trkpt lat="44.07411" lon="7.78401">
        <ele>1388</ele>
        <time>2017-09-17T15:22:57Z</time>
      </trkpt>
      <trkpt lat="44.07408" lon="7.78399">
        <ele>1388</ele>
        <time>2017-09-17T15:22:58Z</time>
      </trkpt>
      <trkpt lat="44.07406" lon="7.78397">
        <ele>1389</ele>
        <time>2017-09-17T15:22:59Z</time>
      </trkpt>
      <trkpt lat="44.07403" lon="7.78394">
        <ele>1389</ele>
        <time>2017-09-17T15:23:00Z</time>
      </trkpt>
      <trkpt lat="44.074" lon="7.78392">
        <ele>1390</ele>
        <time>2017-09-17T15:23:01Z</time>
      </trkpt>
      <trkpt lat="44.07398" lon="7.78389">
        <ele>1390</ele>
        <time>2017-09-17T15:23:02Z</time>
      </trkpt>
      <trkpt lat="44.07395" lon="7.78387">
        <ele>1390</ele>
        <time>2017-09-17T15:23:03Z</time>
      </trkpt>
      <trkpt lat="44.07393" lon="7.78384">
        <ele>1391</ele>
        <time>2017-09-17T15:23:04Z</time>
      </trkpt>
      <trkpt lat="44.0739" lon="7.78381">
        <ele>1391</ele>
        <time>2017-09-17T15:23:05Z</time>
      </trkpt>
      <trkpt lat="44.07388" lon="7.78379">
        <ele>1392</ele>
        <time>2017-09-17T15:23:06Z</time>
      </trkpt>
      <trkpt lat="44.07385" lon="7.78377">
        <ele>1392</ele>
        <time>2017-09-17T15:23:07Z</time>
      </trkpt>
      <trkpt lat="44.07383" lon="7.78374">
        <ele>1392</ele>
        <time>2017-09-17T15:23:08Z</time>
      </trkpt>
      <trkpt lat="44.07381" lon="7.78372">
        <ele>1393</ele>
        <time>2017-09-17T15:23:09Z</time>
      </trkpt>
      <trkpt lat="44.07378" lon="7.78369">
        <ele>1393</ele>
        <time>2017-09-17T15:23:10Z</time>
      </trkpt>
      <trkpt lat="44.07376" lon="7.78367">
        <ele>1393</ele>
        <time>2017-09-17T15:23:11Z</time>
      </trkpt>
      <trkpt lat="44.07374" lon="7.78364">
        <ele>1394</ele>
        <time>2017-09-17T15:23:12Z</time>
      </trkpt>
      <trkpt lat="44.07372" lon="7.78361">
        <ele>1394</ele>
        <time>2017-09-17T15:23:13Z</time>
      </trkpt>
      <trkpt lat="44.0737" lon="7.78358">
        <ele>1394</ele>
        <time>2017-09-17T15:23:14Z</time>
      </trkpt>
      <trkpt lat="44.07368" lon="7.78354">
        <ele>1395</ele>
        <time>2017-09-17T15:23:15Z</time>
      </trkpt>
      <trkpt lat="44.07366" lon="7.78351">
        <ele>1395</ele>
        <time>2017-09-17T15:23:16Z</time>
      </trkpt>
      <trkpt lat="44.07364" lon="7.78347">
        <ele>1395</ele>
        <time>2017-09-17T15:23:17Z</time>
      </trkpt>
      <trkpt lat="44.07362" lon="7.78344">
        <ele>1395</ele>
        <time>2017-09-17T15:23:18Z</time>
      </trkpt>
      <trkpt lat="44.0736" lon="7.78341">
        <ele>1396</ele>
        <time>2017-09-17T15:23:19Z</time>
      </trkpt>
      <trkpt lat="44.07359" lon="7.78337">
        <ele>1396</ele>
        <time>2017-09-17T15:23:20Z</time>
      </trkpt>
      <trkpt lat="44.07357" lon="7.78334">
        <ele>1396</ele>
        <time>2017-09-17T15:23:21Z</time>
      </trkpt>
      <trkpt lat="44.07355" lon="7.7833">
        <ele>1396</ele>
        <time>2017-09-17T15:23:22Z</time>
      </trkpt>
      <trkpt lat="44.07353" lon="7.78327">
        <ele>1396</ele>
        <time>2017-09-17T15:23:23Z</time>
      </trkpt>
      <trkpt lat="44.07351" lon="7.78324">
        <ele>1397</ele>
        <time>2017-09-17T15:23:24Z</time>
      </trkpt>
      <trkpt lat="44.07349" lon="7.78321">
        <ele>1397</ele>
        <time>2017-09-17T15:23:25Z</time>
      </trkpt>
      <trkpt lat="44.07346" lon="7.78318">
        <ele>1397</ele>
        <time>2017-09-17T15:23:26Z</time>
      </trkpt>
      <trkpt lat="44.07344" lon="7.78316">
        <ele>1397</ele>
        <time>2017-09-17T15:23:27Z</time>
      </trkpt>
      <trkpt lat="44.07342" lon="7.78313">
        <ele>1398</ele>
        <time>2017-09-17T15:23:28Z</time>
      </trkpt>
      <trkpt lat="44.07339" lon="7.7831">
        <ele>1398</ele>
        <time>2017-09-17T15:23:29Z</time>
      </trkpt>
      <trkpt lat="44.07337" lon="7.78308">
        <ele>1398</ele>
        <time>2017-09-17T15:23:30Z</time>
      </trkpt>
      <trkpt lat="44.07335" lon="7.78305">
        <ele>1398</ele>
        <time>2017-09-17T15:23:31Z</time>
      </trkpt>
      <trkpt lat="44.07333" lon="7.78302">
        <ele>1399</ele>
        <time>2017-09-17T15:23:32Z</time>
      </trkpt>
      <trkpt lat="44.07331" lon="7.78299">
        <ele>1399</ele>
        <time>2017-09-17T15:23:33Z</time>
      </trkpt>
      <trkpt lat="44.07329" lon="7.78296">
        <ele>1399</ele>
        <time>2017-09-17T15:23:34Z</time>
      </trkpt>
      <trkpt lat="44.07328" lon="7.78292">
        <ele>1400</ele>
        <time>2017-09-17T15:23:35Z</time>
      </trkpt>
      <trkpt lat="44.07326" lon="7.78289">
        <ele>1400</ele>
        <time>2017-09-17T15:23:36Z</time>
      </trkpt>
      <trkpt lat="44.07325" lon="7.78286">
        <ele>1400</ele>
        <time>2017-09-17T15:23:37Z</time>
      </trkpt>
      <trkpt lat="44.07324" lon="7.78283">
        <ele>1400</ele>
        <time>2017-09-17T15:23:38Z</time>
      </trkpt>
      <trkpt lat="44.07322" lon="7.78279">
        <ele>1401</ele>
        <time>2017-09-17T15:23:39Z</time>
      </trkpt>
      <trkpt lat="44.07321" lon="7.78276">
        <ele>1401</ele>
        <time>2017-09-17T15:23:40Z</time>
      </trkpt>
      <trkpt lat="44.0732" lon="7.78273">
        <ele>1401</ele>
        <time>2017-09-17T15:23:41Z</time>
      </trkpt>
      <trkpt lat="44.07319" lon="7.78269">
        <ele>1402</ele>
        <time>2017-09-17T15:23:42Z</time>
      </trkpt>
      <trkpt lat="44.07317" lon="7.78266">
        <ele>1402</ele>
        <time>2017-09-17T15:23:43Z</time>
      </trkpt>
      <trkpt lat="44.07316" lon="7.78263">
        <ele>1402</ele>
        <time>2017-09-17T15:23:44Z</time>
      </trkpt>
      <trkpt lat="44.07315" lon="7.7826">
        <ele>1402</ele>
        <time>2017-09-17T15:23:45Z</time>
      </trkpt>
      <trkpt lat="44.07313" lon="7.78257">
        <ele>1403</ele>
        <time>2017-09-17T15:23:46Z</time>
      </trkpt>
      <trkpt lat="44.07312" lon="7.78253">
        <ele>1403</ele>
        <time>2017-09-17T15:23:47Z</time>
      </trkpt>
      <trkpt lat="44.07311" lon="7.7825">
        <ele>1403</ele>
        <time>2017-09-17T15:23:48Z</time>
      </trkpt>
      <trkpt lat="44.07309" lon="7.78247">
        <ele>1403</ele>
        <time>2017-09-17T15:23:49Z</time>
      </trkpt>
      <trkpt lat="44.07308" lon="7.78244">
        <ele>1404</ele>
        <time>2017-09-17T15:23:50Z</time>
      </trkpt>
      <trkpt lat="44.07307" lon="7.7824">
        <ele>1404</ele>
        <time>2017-09-17T15:23:51Z</time>
      </trkpt>
      <trkpt lat="44.07306" lon="7.78237">
        <ele>1404</ele>
        <time>2017-09-17T15:23:52Z</time>
      </trkpt>
      <trkpt lat="44.07305" lon="7.78233">
        <ele>1404</ele>
        <time>2017-09-17T15:23:53Z</time>
      </trkpt>
      <trkpt lat="44.07304" lon="7.78229">
        <ele>1405</ele>
        <time>2017-09-17T15:23:54Z</time>
      </trkpt>
      <trkpt lat="44.07303" lon="7.78225">
        <ele>1405</ele>
        <time>2017-09-17T15:23:55Z</time>
      </trkpt>
      <trkpt lat="44.07302" lon="7.78222">
        <ele>1405</ele>
        <time>2017-09-17T15:23:56Z</time>
      </trkpt>
      <trkpt lat="44.07301" lon="7.78218">
        <ele>1405</ele>
        <time>2017-09-17T15:23:57Z</time>
      </trkpt>
      <trkpt lat="44.073" lon="7.78214">
        <ele>1406</ele>
        <time>2017-09-17T15:23:58Z</time>
      </trkpt>
      <trkpt lat="44.07299" lon="7.7821">
        <ele>1406</ele>
        <time>2017-09-17T15:23:59Z</time>
      </trkpt>
      <trkpt lat="44.07299" lon="7.78206">
        <ele>1406</ele>
        <time>2017-09-17T15:24:00Z</time>
      </trkpt>
      <trkpt lat="44.07298" lon="7.78202">
        <ele>1406</ele>
        <time>2017-09-17T15:24:01Z</time>
      </trkpt>
      <trkpt lat="44.07297" lon="7.78198">
        <ele>1407</ele>
        <time>2017-09-17T15:24:02Z</time>
      </trkpt>
      <trkpt lat="44.07296" lon="7.78194">
        <ele>1407</ele>
        <time>2017-09-17T15:24:03Z</time>
      </trkpt>
      <trkpt lat="44.07296" lon="7.78191">
        <ele>1407</ele>
        <time>2017-09-17T15:24:04Z</time>
      </trkpt>
      <trkpt lat="44.07295" lon="7.78187">
        <ele>1407</ele>
        <time>2017-09-17T15:24:05Z</time>
      </trkpt>
      <trkpt lat="44.07295" lon="7.78183">
        <ele>1408</ele>
        <time>2017-09-17T15:24:06Z</time>
      </trkpt>
      <trkpt lat="44.07295" lon="7.78179">
        <ele>1408</ele>
        <time>2017-09-17T15:24:07Z</time>
      </trkpt>
      <trkpt lat="44.07295" lon="7.78175">
        <ele>1408</ele>
        <time>2017-09-17T15:24:08Z</time>
      </trkpt>
      <trkpt lat="44.07295" lon="7.78172">
        <ele>1408</ele>
        <time>2017-09-17T15:24:09Z</time>
      </trkpt>
      <trkpt lat="44.07295" lon="7.78168">
        <ele>1409</ele>
        <time>2017-09-17T15:24:10Z</time>
      </trkpt>
      <trkpt lat="44.07295" lon="7.78164">
        <ele>1409</ele>
        <time>2017-09-17T15:24:11Z</time>
      </trkpt>
      <trkpt lat="44.07295" lon="7.78161">
        <ele>1409</ele>
        <time>2017-09-17T15:24:12Z</time>
      </trkpt>
      <trkpt lat="44.07295" lon="7.78157">
        <ele>1409</ele>
        <time>2017-09-17T15:24:13Z</time>
      </trkpt>
      <trkpt lat="44.07295" lon="7.78154">
        <ele>1410</ele>
        <time>2017-09-17T15:24:14Z</time>
      </trkpt>
      <trkpt lat="44.07295" lon="7.7815">
        <ele>1410</ele>
        <time>2017-09-17T15:24:15Z</time>
      </trkpt>
      <trkpt lat="44.07295" lon="7.78147">
        <ele>1410</ele>
        <time>2017-09-17T15:24:16Z</time>
      </trkpt>
      <trkpt lat="44.07296" lon="7.78144">
        <ele>1411</ele>
        <time>2017-09-17T15:24:17Z</time>
      </trkpt>
      <trkpt lat="44.07296" lon="7.78141">
        <ele>1411</ele>
        <time>2017-09-17T15:24:18Z</time>
      </trkpt>
      <trkpt lat="44.07296" lon="7.78138">
        <ele>1412</ele>
        <time>2017-09-17T15:24:19Z</time>
      </trkpt>
      <trkpt lat="44.07296" lon="7.78135">
        <ele>1412</ele>
        <time>2017-09-17T15:24:20Z</time>
      </trkpt>
      <trkpt lat="44.07295" lon="7.78132">
        <ele>1412</ele>
        <time>2017-09-17T15:24:21Z</time>
      </trkpt>
      <trkpt lat="44.07295" lon="7.78128">
        <ele>1413</ele>
        <time>2017-09-17T15:24:22Z</time>
      </trkpt>
      <trkpt lat="44.07295" lon="7.78125">
        <ele>1413</ele>
        <time>2017-09-17T15:24:23Z</time>
      </trkpt>
      <trkpt lat="44.07295" lon="7.78121">
        <ele>1414</ele>
        <time>2017-09-17T15:24:24Z</time>
      </trkpt>
      <trkpt lat="44.07294" lon="7.78118">
        <ele>1414</ele>
        <time>2017-09-17T15:24:25Z</time>
      </trkpt>
      <trkpt lat="44.07294" lon="7.78115">
        <ele>1414</ele>
        <time>2017-09-17T15:24:26Z</time>
      </trkpt>
      <trkpt lat="44.07293" lon="7.78112">
        <ele>1415</ele>
        <time>2017-09-17T15:24:27Z</time>
      </trkpt>
      <trkpt lat="44.07293" lon="7.78109">
        <ele>1415</ele>
        <time>2017-09-17T15:24:28Z</time>
      </trkpt>
      <trkpt lat="44.07292" lon="7.78106">
        <ele>1416</ele>
        <time>2017-09-17T15:24:29Z</time>
      </trkpt>
      <trkpt lat="44.07291" lon="7.78102">
        <ele>1416</ele>
        <time>2017-09-17T15:24:30Z</time>
      </trkpt>
      <trkpt lat="44.07291" lon="7.78099">
        <ele>1416</ele>
        <time>2017-09-17T15:24:31Z</time>
      </trkpt>
      <trkpt lat="44.0729" lon="7.78096">
        <ele>1417</ele>
        <time>2017-09-17T15:24:32Z</time>
      </trkpt>
      <trkpt lat="44.07289" lon="7.78092">
        <ele>1417</ele>
        <time>2017-09-17T15:24:33Z</time>
      </trkpt>
      <trkpt lat="44.07288" lon="7.78089">
        <ele>1417</ele>
        <time>2017-09-17T15:24:34Z</time>
      </trkpt>
      <trkpt lat="44.07286" lon="7.78086">
        <ele>1418</ele>
        <time>2017-09-17T15:24:35Z</time>
      </trkpt>
      <trkpt lat="44.07285" lon="7.78082">
        <ele>1418</ele>
        <time>2017-09-17T15:24:36Z</time>
      </trkpt>
      <trkpt lat="44.07284" lon="7.78079">
        <ele>1418</ele>
        <time>2017-09-17T15:24:37Z</time>
      </trkpt>
      <trkpt lat="44.07282" lon="7.78076">
        <ele>1418</ele>
        <time>2017-09-17T15:24:38Z</time>
      </trkpt>
      <trkpt lat="44.07281" lon="7.78073">
        <ele>1418</ele>
        <time>2017-09-17T15:24:39Z</time>
      </trkpt>
      <trkpt lat="44.0728" lon="7.78071">
        <ele>1419</ele>
        <time>2017-09-17T15:24:40Z</time>
      </trkpt>
      <trkpt lat="44.07279" lon="7.78069">
        <ele>1419</ele>
        <time>2017-09-17T15:24:41Z</time>
      </trkpt>
      <trkpt lat="44.07279" lon="7.78069">
        <ele>1419</ele>
        <time>2017-09-17T15:24:42Z</time>
      </trkpt>
      <trkpt lat="44.07279" lon="7.78069">
        <ele>1419</ele>
        <time>2017-09-17T15:24:43Z</time>
      </trkpt>
      <trkpt lat="44.07279" lon="7.78068">
        <ele>1419</ele>
        <time>2017-09-17T15:24:44Z</time>
      </trkpt>
      <trkpt lat="44.07279" lon="7.78068">
        <ele>1420</ele>
        <time>2017-09-17T15:24:45Z</time>
      </trkpt>
      <trkpt lat="44.0728" lon="7.78067">
        <ele>1420</ele>
        <time>2017-09-17T15:24:46Z</time>
      </trkpt>
      <trkpt lat="44.0728" lon="7.78066">
        <ele>1420</ele>
        <time>2017-09-17T15:24:47Z</time>
      </trkpt>
      <trkpt lat="44.0728" lon="7.78066">
        <ele>1420</ele>
        <time>2017-09-17T15:24:48Z</time>
      </trkpt>
      <trkpt lat="44.0728" lon="7.78066">
        <ele>1421</ele>
        <time>2017-09-17T15:24:49Z</time>
      </trkpt>
      <trkpt lat="44.0728" lon="7.78066">
        <ele>1421</ele>
        <time>2017-09-17T15:24:50Z</time>
      </trkpt>
      <trkpt lat="44.0728" lon="7.78066">
        <ele>1421</ele>
        <time>2017-09-17T15:24:51Z</time>
      </trkpt>
      <trkpt lat="44.0728" lon="7.78066">
        <ele>1421</ele>
        <time>2017-09-17T15:24:52Z</time>
      </trkpt>
      <trkpt lat="44.0728" lon="7.78066">
        <ele>1422</ele>
        <time>2017-09-17T15:24:53Z</time>
      </trkpt>
      <trkpt lat="44.0728" lon="7.78066">
        <ele>1422</ele>
        <time>2017-09-17T15:24:54Z</time>
      </trkpt>
      <trkpt lat="44.0728" lon="7.78066">
        <ele>1422</ele>
        <time>2017-09-17T15:24:55Z</time>
      </trkpt>
      <trkpt lat="44.0728" lon="7.78066">
        <ele>1422</ele>
        <time>2017-09-17T15:24:56Z</time>
      </trkpt>
      <trkpt lat="44.0728" lon="7.78066">
        <ele>1422</ele>
        <time>2017-09-17T15:24:57Z</time>
      </trkpt>
      <trkpt lat="44.0728" lon="7.78066">
        <ele>1422</ele>
        <time>2017-09-17T15:24:58Z</time>
      </trkpt>
      <trkpt lat="44.0728" lon="7.78066">
        <ele>1422</ele>
        <time>2017-09-17T15:24:59Z</time>
      </trkpt>
      <trkpt lat="44.0728" lon="7.78066">
        <ele>1422</ele>
        <time>2017-09-17T15:25:00Z</time>
      </trkpt>
      <trkpt lat="44.0728" lon="7.78066">
        <ele>1422</ele>
        <time>2017-09-17T15:25:01Z</time>
      </trkpt>
      <trkpt lat="44.0728" lon="7.78066">
        <ele>1423</ele>
        <time>2017-09-17T15:25:02Z</time>
      </trkpt>
      <trkpt lat="44.0728" lon="7.78066">
        <ele>1423</ele>
        <time>2017-09-17T15:25:03Z</time>
      </trkpt>
      <trkpt lat="44.0728" lon="7.78066">
        <ele>1423</ele>
        <time>2017-09-17T15:25:04Z</time>
      </trkpt>
      <trkpt lat="44.0728" lon="7.78066">
        <ele>1423</ele>
        <time>2017-09-17T15:25:05Z</time>
      </trkpt>
      <trkpt lat="44.0728" lon="7.78066">
        <ele>1423</ele>
        <time>2017-09-17T15:25:06Z</time>
      </trkpt>
      <trkpt lat="44.0728" lon="7.78066">
        <ele>1423</ele>
        <time>2017-09-17T15:25:07Z</time>
      </trkpt>
      <trkpt lat="44.0728" lon="7.78066">
        <ele>1423</ele>
        <time>2017-09-17T15:25:08Z</time>
      </trkpt>
      <trkpt lat="44.0728" lon="7.78066">
        <ele>1423</ele>
        <time>2017-09-17T15:25:09Z</time>
      </trkpt>
      <trkpt lat="44.0728" lon="7.78066">
        <ele>1423</ele>
        <time>2017-09-17T15:25:10Z</time>
      </trkpt>
      <trkpt lat="44.0728" lon="7.78066">
        <ele>1423</ele>
        <time>2017-09-17T15:25:11Z</time>
      </trkpt>
      <trkpt lat="44.0728" lon="7.78066">
        <ele>1423</ele>
        <time>2017-09-17T15:25:12Z</time>
      </trkpt>
      <trkpt lat="44.0728" lon="7.78066">
        <ele>1423</ele>
        <time>2017-09-17T15:25:13Z</time>
      </trkpt>
      <trkpt lat="44.0728" lon="7.78066">
        <ele>1423</ele>
        <time>2017-09-17T15:25:14Z</time>
      </trkpt>
      <trkpt lat="44.0728" lon="7.78066">
        <ele>1423</ele>
        <time>2017-09-17T15:25:15Z</time>
      </trkpt>
      <trkpt lat="44.0728" lon="7.78066">
        <ele>1423</ele>
        <time>2017-09-17T15:25:16Z</time>
      </trkpt>
      <trkpt lat="44.0728" lon="7.78066">
        <ele>1423</ele>
        <time>2017-09-17T15:25:17Z</time>
      </trkpt>
      <trkpt lat="44.0728" lon="7.78066">
        <ele>1423</ele>
        <time>2017-09-17T15:25:18Z</time>
      </trkpt>
      <trkpt lat="44.0728" lon="7.78065">
        <ele>1423</ele>
        <time>2017-09-17T15:25:19Z</time>
      </trkpt>
      <trkpt lat="44.0728" lon="7.78065">
        <ele>1423</ele>
        <time>2017-09-17T15:25:20Z</time>
      </trkpt>
      <trkpt lat="44.0728" lon="7.78065">
        <ele>1423</ele>
        <time>2017-09-17T15:25:21Z</time>
      </trkpt>
      <trkpt lat="44.0728" lon="7.78065">
        <ele>1423</ele>
        <time>2017-09-17T15:25:22Z</time>
      </trkpt>
      <trkpt lat="44.0728" lon="7.78065">
        <ele>1423</ele>
        <time>2017-09-17T15:25:23Z</time>
      </trkpt>
      <trkpt lat="44.0728" lon="7.78065">
        <ele>1423</ele>
        <time>2017-09-17T15:25:24Z</time>
      </trkpt>
      <trkpt lat="44.0728" lon="7.78065">
        <ele>1423</ele>
        <time>2017-09-17T15:25:25Z</time>
      </trkpt>
      <trkpt lat="44.0728" lon="7.78065">
        <ele>1423</ele>
        <time>2017-09-17T15:25:26Z</time>
      </trkpt>
      <trkpt lat="44.0728" lon="7.78065">
        <ele>1423</ele>
        <time>2017-09-17T15:25:27Z</time>
      </trkpt>
      <trkpt lat="44.0728" lon="7.78065">
        <ele>1423</ele>
        <time>2017-09-17T15:25:28Z</time>
      </trkpt>
      <trkpt lat="44.0728" lon="7.78065">
        <ele>1423</ele>
        <time>2017-09-17T15:25:29Z</time>
      </trkpt>
      <trkpt lat="44.0728" lon="7.78065">
        <ele>1423</ele>
        <time>2017-09-17T15:25:30Z</time>
      </trkpt>
      <trkpt lat="44.0728" lon="7.78065">
        <ele>1423</ele>
        <time>2017-09-17T15:25:31Z</time>
      </trkpt>
      <trkpt lat="44.0728" lon="7.78065">
        <ele>1423</ele>
        <time>2017-09-17T15:25:32Z</time>
      </trkpt>
      <trkpt lat="44.0728" lon="7.78065">
        <ele>1423</ele>
        <time>2017-09-17T15:25:33Z</time>
      </trkpt>
      <trkpt lat="44.0728" lon="7.78065">
        <ele>1423</ele>
        <time>2017-09-17T15:25:34Z</time>
      </trkpt>
      <trkpt lat="44.0728" lon="7.78065">
        <ele>1423</ele>
        <time>2017-09-17T15:25:35Z</time>
      </trkpt>
      <trkpt lat="44.0728" lon="7.78065">
        <ele>1423</ele>
        <time>2017-09-17T15:25:36Z</time>
      </trkpt>
      <trkpt lat="44.0728" lon="7.78065">
        <ele>1423</ele>
        <time>2017-09-17T15:25:37Z</time>
      </trkpt>
      <trkpt lat="44.0728" lon="7.78065">
        <ele>1423</ele>
        <time>2017-09-17T15:25:38Z</time>
      </trkpt>
      <trkpt lat="44.0728" lon="7.78065">
        <ele>1423</ele>
        <time>2017-09-17T15:25:39Z</time>
      </trkpt>
      <trkpt lat="44.0728" lon="7.78065">
        <ele>1423</ele>
        <time>2017-09-17T15:25:40Z</time>
      </trkpt>
      <trkpt lat="44.0728" lon="7.78065">
        <ele>1423</ele>
        <time>2017-09-17T15:25:41Z</time>
      </trkpt>
      <trkpt lat="44.0728" lon="7.78065">
        <ele>1423</ele>
        <time>2017-09-17T15:25:42Z</time>
      </trkpt>
      <trkpt lat="44.0728" lon="7.78065">
        <ele>1423</ele>
        <time>2017-09-17T15:25:43Z</time>
      </trkpt>
      <trkpt lat="44.0728" lon="7.78065">
        <ele>1424</ele>
        <time>2017-09-17T15:25:44Z</time>
      </trkpt>
      <trkpt lat="44.0728" lon="7.78066">
        <ele>1423</ele>
        <time>2017-09-17T15:25:45Z</time>
      </trkpt>
      <trkpt lat="44.0728" lon="7.78066">
        <ele>1423</ele>
        <time>2017-09-17T15:25:46Z</time>
      </trkpt>
      <trkpt lat="44.0728" lon="7.78066">
        <ele>1423</ele>
        <time>2017-09-17T15:25:47Z</time>
      </trkpt>
      <trkpt lat="44.0728" lon="7.78066">
        <ele>1423</ele>
        <time>2017-09-17T15:25:48Z</time>
      </trkpt>
      <trkpt lat="44.0728" lon="7.78066">
        <ele>1423</ele>
        <time>2017-09-17T15:25:49Z</time>
      </trkpt>
      <trkpt lat="44.0728" lon="7.78066">
        <ele>1423</ele>
        <time>2017-09-17T15:25:50Z</time>
      </trkpt>
      <trkpt lat="44.0728" lon="7.78066">
        <ele>1423</ele>
        <time>2017-09-17T15:25:51Z</time>
      </trkpt>
      <trkpt lat="44.0728" lon="7.78066">
        <ele>1423</ele>
        <time>2017-09-17T15:25:52Z</time>
      </trkpt>
      <trkpt lat="44.0728" lon="7.78066">
        <ele>1423</ele>
        <time>2017-09-17T15:25:53Z</time>
      </trkpt>
      <trkpt lat="44.0728" lon="7.78066">
        <ele>1423</ele>
        <time>2017-09-17T15:25:54Z</time>
      </trkpt>
      <trkpt lat="44.0728" lon="7.78066">
        <ele>1423</ele>
        <time>2017-09-17T15:25:55Z</time>
      </trkpt>
      <trkpt lat="44.0728" lon="7.78066">
        <ele>1423</ele>
        <time>2017-09-17T15:25:56Z</time>
      </trkpt>
      <trkpt lat="44.0728" lon="7.78066">
        <ele>1423</ele>
        <time>2017-09-17T15:25:57Z</time>
      </trkpt>
      <trkpt lat="44.0728" lon="7.78066">
        <ele>1423</ele>
        <time>2017-09-17T15:25:58Z</time>
      </trkpt>
      <trkpt lat="44.0728" lon="7.78065">
        <ele>1423</ele>
        <time>2017-09-17T15:25:59Z</time>
      </trkpt>
      <trkpt lat="44.0728" lon="7.78065">
        <ele>1423</ele>
        <time>2017-09-17T15:26:00Z</time>
      </trkpt>
      <trkpt lat="44.0728" lon="7.78065">
        <ele>1423</ele>
        <time>2017-09-17T15:26:01Z</time>
      </trkpt>
      <trkpt lat="44.0728" lon="7.78065">
        <ele>1423</ele>
        <time>2017-09-17T15:26:02Z</time>
      </trkpt>
      <trkpt lat="44.0728" lon="7.78065">
        <ele>1423</ele>
        <time>2017-09-17T15:26:03Z</time>
      </trkpt>
      <trkpt lat="44.0728" lon="7.78065">
        <ele>1423</ele>
        <time>2017-09-17T15:26:04Z</time>
      </trkpt>
      <trkpt lat="44.0728" lon="7.78065">
        <ele>1423</ele>
        <time>2017-09-17T15:26:05Z</time>
      </trkpt>
      <trkpt lat="44.0728" lon="7.78065">
        <ele>1423</ele>
        <time>2017-09-17T15:26:06Z</time>
      </trkpt>
      <trkpt lat="44.0728" lon="7.78065">
        <ele>1423</ele>
        <time>2017-09-17T15:26:07Z</time>
      </trkpt>
      <trkpt lat="44.0728" lon="7.78065">
        <ele>1423</ele>
        <time>2017-09-17T15:26:08Z</time>
      </trkpt>
      <trkpt lat="44.0728" lon="7.78065">
        <ele>1423</ele>
        <time>2017-09-17T15:26:09Z</time>
      </trkpt>
      <trkpt lat="44.0728" lon="7.78065">
        <ele>1423</ele>
        <time>2017-09-17T15:26:10Z</time>
      </trkpt>
      <trkpt lat="44.0728" lon="7.78065">
        <ele>1423</ele>
        <time>2017-09-17T15:26:11Z</time>
      </trkpt>
      <trkpt lat="44.0728" lon="7.78065">
        <ele>1423</ele>
        <time>2017-09-17T15:26:12Z</time>
      </trkpt>
      <trkpt lat="44.0728" lon="7.78065">
        <ele>1423</ele>
        <time>2017-09-17T15:26:13Z</time>
      </trkpt>
      <trkpt lat="44.0728" lon="7.78065">
        <ele>1423</ele>
        <time>2017-09-17T15:26:14Z</time>
      </trkpt>
      <trkpt lat="44.0728" lon="7.78065">
        <ele>1423</ele>
        <time>2017-09-17T15:26:15Z</time>
      </trkpt>
      <trkpt lat="44.07281" lon="7.78065">
        <ele>1423</ele>
        <time>2017-09-17T15:26:16Z</time>
      </trkpt>
      <trkpt lat="44.07281" lon="7.78065">
        <ele>1422</ele>
        <time>2017-09-17T15:26:17Z</time>
      </trkpt>
      <trkpt lat="44.07281" lon="7.78065">
        <ele>1422</ele>
        <time>2017-09-17T15:26:18Z</time>
      </trkpt>
      <trkpt lat="44.07281" lon="7.78065">
        <ele>1422</ele>
        <time>2017-09-17T15:26:19Z</time>
      </trkpt>
      <trkpt lat="44.07281" lon="7.78065">
        <ele>1422</ele>
        <time>2017-09-17T15:26:20Z</time>
      </trkpt>
      <trkpt lat="44.07281" lon="7.78065">
        <ele>1422</ele>
        <time>2017-09-17T15:26:21Z</time>
      </trkpt>
      <trkpt lat="44.07281" lon="7.78065">
        <ele>1422</ele>
        <time>2017-09-17T15:26:22Z</time>
      </trkpt>
      <trkpt lat="44.07281" lon="7.78065">
        <ele>1422</ele>
        <time>2017-09-17T15:26:23Z</time>
      </trkpt>
      <trkpt lat="44.07281" lon="7.78065">
        <ele>1422</ele>
        <time>2017-09-17T15:26:24Z</time>
      </trkpt>
      <trkpt lat="44.07281" lon="7.78065">
        <ele>1422</ele>
        <time>2017-09-17T15:26:25Z</time>
      </trkpt>
      <trkpt lat="44.07281" lon="7.78065">
        <ele>1423</ele>
        <time>2017-09-17T15:26:26Z</time>
      </trkpt>
      <trkpt lat="44.07281" lon="7.78065">
        <ele>1423</ele>
        <time>2017-09-17T15:26:27Z</time>
      </trkpt>
      <trkpt lat="44.07281" lon="7.78065">
        <ele>1423</ele>
        <time>2017-09-17T15:26:28Z</time>
      </trkpt>
      <trkpt lat="44.0728" lon="7.78066">
        <ele>1423</ele>
        <time>2017-09-17T15:26:29Z</time>
      </trkpt>
      <trkpt lat="44.0728" lon="7.78066">
        <ele>1423</ele>
        <time>2017-09-17T15:26:30Z</time>
      </trkpt>
      <trkpt lat="44.0728" lon="7.78066">
        <ele>1423</ele>
        <time>2017-09-17T15:26:31Z</time>
      </trkpt>
      <trkpt lat="44.0728" lon="7.78066">
        <ele>1423</ele>
        <time>2017-09-17T15:26:32Z</time>
      </trkpt>
      <trkpt lat="44.0728" lon="7.78067">
        <ele>1424</ele>
        <time>2017-09-17T15:26:33Z</time>
      </trkpt>
      <trkpt lat="44.0728" lon="7.78067">
        <ele>1424</ele>
        <time>2017-09-17T15:26:34Z</time>
      </trkpt>
      <trkpt lat="44.0728" lon="7.78067">
        <ele>1424</ele>
        <time>2017-09-17T15:26:35Z</time>
      </trkpt>
      <trkpt lat="44.0728" lon="7.78067">
        <ele>1424</ele>
        <time>2017-09-17T15:26:36Z</time>
      </trkpt>
      <trkpt lat="44.0728" lon="7.78068">
        <ele>1424</ele>
        <time>2017-09-17T15:26:37Z</time>
      </trkpt>
      <trkpt lat="44.0728" lon="7.78068">
        <ele>1424</ele>
        <time>2017-09-17T15:26:38Z</time>
      </trkpt>
      <trkpt lat="44.0728" lon="7.78068">
        <ele>1425</ele>
        <time>2017-09-17T15:26:39Z</time>
      </trkpt>
      <trkpt lat="44.0728" lon="7.78068">
        <ele>1425</ele>
        <time>2017-09-17T15:26:40Z</time>
      </trkpt>
      <trkpt lat="44.0728" lon="7.78068">
        <ele>1425</ele>
        <time>2017-09-17T15:26:41Z</time>
      </trkpt>
      <trkpt lat="44.0728" lon="7.78068">
        <ele>1425</ele>
        <time>2017-09-17T15:26:42Z</time>
      </trkpt>
      <trkpt lat="44.0728" lon="7.78068">
        <ele>1425</ele>
        <time>2017-09-17T15:26:43Z</time>
      </trkpt>
      <trkpt lat="44.0728" lon="7.78069">
        <ele>1425</ele>
        <time>2017-09-17T15:26:44Z</time>
      </trkpt>
      <trkpt lat="44.0728" lon="7.78069">
        <ele>1425</ele>
        <time>2017-09-17T15:26:45Z</time>
      </trkpt>
      <trkpt lat="44.0728" lon="7.78069">
        <ele>1426</ele>
        <time>2017-09-17T15:26:46Z</time>
      </trkpt>
      <trkpt lat="44.0728" lon="7.78069">
        <ele>1426</ele>
        <time>2017-09-17T15:26:47Z</time>
      </trkpt>
      <trkpt lat="44.0728" lon="7.78069">
        <ele>1426</ele>
        <time>2017-09-17T15:26:48Z</time>
      </trkpt>
      <trkpt lat="44.0728" lon="7.78069">
        <ele>1426</ele>
        <time>2017-09-17T15:26:49Z</time>
      </trkpt>
      <trkpt lat="44.0728" lon="7.78069">
        <ele>1426</ele>
        <time>2017-09-17T15:26:50Z</time>
      </trkpt>
      <trkpt lat="44.0728" lon="7.78069">
        <ele>1426</ele>
        <time>2017-09-17T15:26:51Z</time>
      </trkpt>
      <trkpt lat="44.0728" lon="7.7807">
        <ele>1426</ele>
        <time>2017-09-17T15:26:52Z</time>
      </trkpt>
      <trkpt lat="44.0728" lon="7.7807">
        <ele>1426</ele>
        <time>2017-09-17T15:26:53Z</time>
      </trkpt>
      <trkpt lat="44.0728" lon="7.7807">
        <ele>1426</ele>
        <time>2017-09-17T15:26:54Z</time>
      </trkpt>
      <trkpt lat="44.0728" lon="7.7807">
        <ele>1426</ele>
        <time>2017-09-17T15:26:55Z</time>
      </trkpt>
      <trkpt lat="44.0728" lon="7.7807">
        <ele>1426</ele>
        <time>2017-09-17T15:26:56Z</time>
      </trkpt>
      <trkpt lat="44.0728" lon="7.7807">
        <ele>1427</ele>
        <time>2017-09-17T15:26:57Z</time>
      </trkpt>
      <trkpt lat="44.0728" lon="7.7807">
        <ele>1427</ele>
        <time>2017-09-17T15:26:58Z</time>
      </trkpt>
      <trkpt lat="44.0728" lon="7.7807">
        <ele>1427</ele>
        <time>2017-09-17T15:26:59Z</time>
      </trkpt>
      <trkpt lat="44.0728" lon="7.7807">
        <ele>1427</ele>
        <time>2017-09-17T15:27:00Z</time>
      </trkpt>
      <trkpt lat="44.0728" lon="7.7807">
        <ele>1427</ele>
        <time>2017-09-17T15:27:01Z</time>
      </trkpt>
      <trkpt lat="44.0728" lon="7.7807">
        <ele>1427</ele>
        <time>2017-09-17T15:27:02Z</time>
      </trkpt>
      <trkpt lat="44.0728" lon="7.7807">
        <ele>1427</ele>
        <time>2017-09-17T15:27:03Z</time>
      </trkpt>
      <trkpt lat="44.0728" lon="7.7807">
        <ele>1427</ele>
        <time>2017-09-17T15:27:04Z</time>
      </trkpt>
      <trkpt lat="44.0728" lon="7.7807">
        <ele>1427</ele>
        <time>2017-09-17T15:27:05Z</time>
      </trkpt>
      <trkpt lat="44.0728" lon="7.78069">
        <ele>1427</ele>
        <time>2017-09-17T15:27:06Z</time>
      </trkpt>
      <trkpt lat="44.0728" lon="7.78069">
        <ele>1427</ele>
        <time>2017-09-17T15:27:07Z</time>
      </trkpt>
      <trkpt lat="44.0728" lon="7.78069">
        <ele>1427</ele>
        <time>2017-09-17T15:27:08Z</time>
      </trkpt>
      <trkpt lat="44.0728" lon="7.78069">
        <ele>1427</ele>
        <time>2017-09-17T15:27:09Z</time>
      </trkpt>
      <trkpt lat="44.0728" lon="7.78069">
        <ele>1427</ele>
        <time>2017-09-17T15:27:10Z</time>
      </trkpt>
      <trkpt lat="44.0728" lon="7.78069">
        <ele>1427</ele>
        <time>2017-09-17T15:27:11Z</time>
      </trkpt>
      <trkpt lat="44.0728" lon="7.78069">
        <ele>1427</ele>
        <time>2017-09-17T15:27:12Z</time>
      </trkpt>
      <trkpt lat="44.0728" lon="7.78069">
        <ele>1427</ele>
        <time>2017-09-17T15:27:13Z</time>
      </trkpt>
      <trkpt lat="44.0728" lon="7.78069">
        <ele>1427</ele>
        <time>2017-09-17T15:27:14Z</time>
      </trkpt>
      <trkpt lat="44.0728" lon="7.78069">
        <ele>1427</ele>
        <time>2017-09-17T15:27:15Z</time>
      </trkpt>
      <trkpt lat="44.0728" lon="7.78069">
        <ele>1427</ele>
        <time>2017-09-17T15:27:16Z</time>
      </trkpt>
      <trkpt lat="44.0728" lon="7.78069">
        <ele>1427</ele>
        <time>2017-09-17T15:27:17Z</time>
      </trkpt>
      <trkpt lat="44.0728" lon="7.78069">
        <ele>1427</ele>
        <time>2017-09-17T15:27:18Z</time>
      </trkpt>
      <trkpt lat="44.0728" lon="7.78069">
        <ele>1427</ele>
        <time>2017-09-17T15:27:19Z</time>
      </trkpt>
      <trkpt lat="44.0728" lon="7.78069">
        <ele>1427</ele>
        <time>2017-09-17T15:27:20Z</time>
      </trkpt>
      <trkpt lat="44.0728" lon="7.78069">
        <ele>1427</ele>
        <time>2017-09-17T15:27:21Z</time>
      </trkpt>
      <trkpt lat="44.0728" lon="7.78069">
        <ele>1427</ele>
        <time>2017-09-17T15:27:22Z</time>
      </trkpt>
      <trkpt lat="44.07279" lon="7.78069">
        <ele>1427</ele>
        <time>2017-09-17T15:27:23Z</time>
      </trkpt>
      <trkpt lat="44.07279" lon="7.78069">
        <ele>1427</ele>
        <time>2017-09-17T15:27:24Z</time>
      </trkpt>
      <trkpt lat="44.07278" lon="7.78069">
        <ele>1427</ele>
        <time>2017-09-17T15:27:25Z</time>
      </trkpt>
      <trkpt lat="44.07277" lon="7.78068">
        <ele>1427</ele>
        <time>2017-09-17T15:27:26Z</time>
      </trkpt>
      <trkpt lat="44.07277" lon="7.78068">
        <ele>1427</ele>
        <time>2017-09-17T15:27:27Z</time>
      </trkpt>
      <trkpt lat="44.07277" lon="7.78068">
        <ele>1427</ele>
        <time>2017-09-17T15:27:28Z</time>
      </trkpt>
      <trkpt lat="44.07277" lon="7.78068">
        <ele>1427</ele>
        <time>2017-09-17T15:27:29Z</time>
      </trkpt>
      <trkpt lat="44.07277" lon="7.78068">
        <ele>1427</ele>
        <time>2017-09-17T15:27:30Z</time>
      </trkpt>
      <trkpt lat="44.07277" lon="7.78068">
        <ele>1427</ele>
        <time>2017-09-17T15:27:31Z</time>
      </trkpt>
      <trkpt lat="44.07277" lon="7.78068">
        <ele>1427</ele>
        <time>2017-09-17T15:27:32Z</time>
      </trkpt>
      <trkpt lat="44.07277" lon="7.78068">
        <ele>1427</ele>
        <time>2017-09-17T15:27:33Z</time>
      </trkpt>
      <trkpt lat="44.07277" lon="7.78068">
        <ele>1427</ele>
        <time>2017-09-17T15:27:34Z</time>
      </trkpt>
      <trkpt lat="44.07277" lon="7.78068">
        <ele>1427</ele>
        <time>2017-09-17T15:27:35Z</time>
      </trkpt>
      <trkpt lat="44.07277" lon="7.78067">
        <ele>1427</ele>
        <time>2017-09-17T15:27:36Z</time>
      </trkpt>
      <trkpt lat="44.07276" lon="7.78066">
        <ele>1427</ele>
        <time>2017-09-17T15:27:37Z</time>
      </trkpt>
      <trkpt lat="44.07275" lon="7.78065">
        <ele>1427</ele>
        <time>2017-09-17T15:27:38Z</time>
      </trkpt>
      <trkpt lat="44.07274" lon="7.78062">
        <ele>1427</ele>
        <time>2017-09-17T15:27:39Z</time>
      </trkpt>
      <trkpt lat="44.07273" lon="7.7806">
        <ele>1427</ele>
        <time>2017-09-17T15:27:40Z</time>
      </trkpt>
      <trkpt lat="44.07271" lon="7.78058">
        <ele>1427</ele>
        <time>2017-09-17T15:27:41Z</time>
      </trkpt>
      <trkpt lat="44.07271" lon="7.78056">
        <ele>1427</ele>
        <time>2017-09-17T15:27:42Z</time>
      </trkpt>
      <trkpt lat="44.0727" lon="7.78052">
        <ele>1428</ele>
        <time>2017-09-17T15:27:43Z</time>
      </trkpt>
      <trkpt lat="44.07268" lon="7.78048">
        <ele>1428</ele>
        <time>2017-09-17T15:27:44Z</time>
      </trkpt>
      <trkpt lat="44.07267" lon="7.78044">
        <ele>1428</ele>
        <time>2017-09-17T15:27:45Z</time>
      </trkpt>
      <trkpt lat="44.07266" lon="7.78039">
        <ele>1428</ele>
        <time>2017-09-17T15:27:46Z</time>
      </trkpt>
      <trkpt lat="44.07265" lon="7.78034">
        <ele>1428</ele>
        <time>2017-09-17T15:27:47Z</time>
      </trkpt>
      <trkpt lat="44.07264" lon="7.78029">
        <ele>1428</ele>
        <time>2017-09-17T15:27:48Z</time>
      </trkpt>
      <trkpt lat="44.07263" lon="7.78024">
        <ele>1428</ele>
        <time>2017-09-17T15:27:49Z</time>
      </trkpt>
      <trkpt lat="44.0726" lon="7.7802">
        <ele>1428</ele>
        <time>2017-09-17T15:27:50Z</time>
      </trkpt>
      <trkpt lat="44.07257" lon="7.78017">
        <ele>1428</ele>
        <time>2017-09-17T15:27:51Z</time>
      </trkpt>
      <trkpt lat="44.07254" lon="7.78015">
        <ele>1428</ele>
        <time>2017-09-17T15:27:52Z</time>
      </trkpt>
      <trkpt lat="44.07251" lon="7.78013">
        <ele>1428</ele>
        <time>2017-09-17T15:27:53Z</time>
      </trkpt>
      <trkpt lat="44.07247" lon="7.78011">
        <ele>1428</ele>
        <time>2017-09-17T15:27:54Z</time>
      </trkpt>
      <trkpt lat="44.07244" lon="7.7801">
        <ele>1429</ele>
        <time>2017-09-17T15:27:55Z</time>
      </trkpt>
      <trkpt lat="44.0724" lon="7.78008">
        <ele>1429</ele>
        <time>2017-09-17T15:27:56Z</time>
      </trkpt>
      <trkpt lat="44.07237" lon="7.78006">
        <ele>1429</ele>
        <time>2017-09-17T15:27:57Z</time>
      </trkpt>
      <trkpt lat="44.07233" lon="7.78004">
        <ele>1429</ele>
        <time>2017-09-17T15:27:58Z</time>
      </trkpt>
      <trkpt lat="44.0723" lon="7.78002">
        <ele>1430</ele>
        <time>2017-09-17T15:27:59Z</time>
      </trkpt>
      <trkpt lat="44.07226" lon="7.77999">
        <ele>1430</ele>
        <time>2017-09-17T15:28:00Z</time>
      </trkpt>
      <trkpt lat="44.07223" lon="7.77996">
        <ele>1430</ele>
        <time>2017-09-17T15:28:01Z</time>
      </trkpt>
      <trkpt lat="44.07221" lon="7.77992">
        <ele>1431</ele>
        <time>2017-09-17T15:28:02Z</time>
      </trkpt>
      <trkpt lat="44.07219" lon="7.77988">
        <ele>1431</ele>
        <time>2017-09-17T15:28:03Z</time>
      </trkpt>
      <trkpt lat="44.07217" lon="7.77983">
        <ele>1431</ele>
        <time>2017-09-17T15:28:04Z</time>
      </trkpt>
      <trkpt lat="44.07215" lon="7.77978">
        <ele>1431</ele>
        <time>2017-09-17T15:28:05Z</time>
      </trkpt>
      <trkpt lat="44.07213" lon="7.77973">
        <ele>1431</ele>
        <time>2017-09-17T15:28:06Z</time>
      </trkpt>
      <trkpt lat="44.07211" lon="7.77968">
        <ele>1431</ele>
        <time>2017-09-17T15:28:07Z</time>
      </trkpt>
      <trkpt lat="44.07209" lon="7.77964">
        <ele>1432</ele>
        <time>2017-09-17T15:28:08Z</time>
      </trkpt>
      <trkpt lat="44.07206" lon="7.7796">
        <ele>1432</ele>
        <time>2017-09-17T15:28:09Z</time>
      </trkpt>
      <trkpt lat="44.07203" lon="7.77957">
        <ele>1432</ele>
        <time>2017-09-17T15:28:10Z</time>
      </trkpt>
      <trkpt lat="44.072" lon="7.77954">
        <ele>1433</ele>
        <time>2017-09-17T15:28:11Z</time>
      </trkpt>
      <trkpt lat="44.07196" lon="7.77952">
        <ele>1433</ele>
        <time>2017-09-17T15:28:12Z</time>
      </trkpt>
      <trkpt lat="44.07192" lon="7.7795">
        <ele>1433</ele>
        <time>2017-09-17T15:28:13Z</time>
      </trkpt>
      <trkpt lat="44.07189" lon="7.77948">
        <ele>1434</ele>
        <time>2017-09-17T15:28:14Z</time>
      </trkpt>
      <trkpt lat="44.07185" lon="7.77946">
        <ele>1434</ele>
        <time>2017-09-17T15:28:15Z</time>
      </trkpt>
      <trkpt lat="44.07181" lon="7.77944">
        <ele>1435</ele>
        <time>2017-09-17T15:28:16Z</time>
      </trkpt>
      <trkpt lat="44.07178" lon="7.77941">
        <ele>1435</ele>
        <time>2017-09-17T15:28:17Z</time>
      </trkpt>
      <trkpt lat="44.07174" lon="7.77938">
        <ele>1436</ele>
        <time>2017-09-17T15:28:18Z</time>
      </trkpt>
      <trkpt lat="44.07171" lon="7.77935">
        <ele>1436</ele>
        <time>2017-09-17T15:28:19Z</time>
      </trkpt>
      <trkpt lat="44.07167" lon="7.77931">
        <ele>1437</ele>
        <time>2017-09-17T15:28:20Z</time>
      </trkpt>
      <trkpt lat="44.07164" lon="7.77928">
        <ele>1437</ele>
        <time>2017-09-17T15:28:21Z</time>
      </trkpt>
      <trkpt lat="44.07162" lon="7.77924">
        <ele>1437</ele>
        <time>2017-09-17T15:28:22Z</time>
      </trkpt>
      <trkpt lat="44.07159" lon="7.7792">
        <ele>1438</ele>
        <time>2017-09-17T15:28:23Z</time>
      </trkpt>
      <trkpt lat="44.07156" lon="7.77917">
        <ele>1438</ele>
        <time>2017-09-17T15:28:24Z</time>
      </trkpt>
      <trkpt lat="44.07153" lon="7.77913">
        <ele>1439</ele>
        <time>2017-09-17T15:28:25Z</time>
      </trkpt>
      <trkpt lat="44.0715" lon="7.77909">
        <ele>1439</ele>
        <time>2017-09-17T15:28:26Z</time>
      </trkpt>
      <trkpt lat="44.07147" lon="7.77905">
        <ele>1440</ele>
        <time>2017-09-17T15:28:27Z</time>
      </trkpt>
      <trkpt lat="44.07143" lon="7.77903">
        <ele>1440</ele>
        <time>2017-09-17T15:28:28Z</time>
      </trkpt>
      <trkpt lat="44.07139" lon="7.77901">
        <ele>1440</ele>
        <time>2017-09-17T15:28:29Z</time>
      </trkpt>
      <trkpt lat="44.07136" lon="7.77899">
        <ele>1441</ele>
        <time>2017-09-17T15:28:30Z</time>
      </trkpt>
      <trkpt lat="44.07132" lon="7.77896">
        <ele>1441</ele>
        <time>2017-09-17T15:28:31Z</time>
      </trkpt>
      <trkpt lat="44.07129" lon="7.77893">
        <ele>1441</ele>
        <time>2017-09-17T15:28:32Z</time>
      </trkpt>
      <trkpt lat="44.07127" lon="7.77889">
        <ele>1442</ele>
        <time>2017-09-17T15:28:33Z</time>
      </trkpt>
      <trkpt lat="44.07125" lon="7.77884">
        <ele>1442</ele>
        <time>2017-09-17T15:28:34Z</time>
      </trkpt>
      <trkpt lat="44.07123" lon="7.77878">
        <ele>1442</ele>
        <time>2017-09-17T15:28:35Z</time>
      </trkpt>
      <trkpt lat="44.07121" lon="7.77873">
        <ele>1442</ele>
        <time>2017-09-17T15:28:36Z</time>
      </trkpt>
      <trkpt lat="44.0712" lon="7.77867">
        <ele>1442</ele>
        <time>2017-09-17T15:28:37Z</time>
      </trkpt>
      <trkpt lat="44.07117" lon="7.77862">
        <ele>1442</ele>
        <time>2017-09-17T15:28:38Z</time>
      </trkpt>
      <trkpt lat="44.07115" lon="7.77856">
        <ele>1442</ele>
        <time>2017-09-17T15:28:39Z</time>
      </trkpt>
      <trkpt lat="44.07112" lon="7.77852">
        <ele>1443</ele>
        <time>2017-09-17T15:28:40Z</time>
      </trkpt>
      <trkpt lat="44.07108" lon="7.77847">
        <ele>1443</ele>
        <time>2017-09-17T15:28:41Z</time>
      </trkpt>
      <trkpt lat="44.07105" lon="7.77843">
        <ele>1443</ele>
        <time>2017-09-17T15:28:42Z</time>
      </trkpt>
      <trkpt lat="44.07101" lon="7.7784">
        <ele>1443</ele>
        <time>2017-09-17T15:28:43Z</time>
      </trkpt>
    </trkseg>
  </trk>
</gpx>